<?xml version='1.0' encoding='UTF-8'?><gpx version="1.1" creator="JPX - https://github.com/jenetics/jpx" xmlns="http://www.topografix.com/GPX/1/1"><trk><trkseg><trkpt lat="43.7049378" lon="11.1853332"><ele>231.99999999999997</ele><time>2026-04-18T08:46:04.356Z</time></trkpt><trkpt lat="43.7049371" lon="11.1852426"><ele>232.0</ele><time>2026-04-18T08:46:08.352Z</time></trkpt><trkpt lat="43.7048767" lon="11.1850617"><ele>232.0</ele><time>2026-04-18T08:46:09.282Z</time></trkpt><trkpt lat="43.7048" lon="11.1850983"><ele>232.0</ele><time>2026-04-18T08:46:11.281Z</time></trkpt><trkpt lat="43.70474" lon="11.1851267"><ele>231.99999999999997</ele><time>2026-04-18T08:46:15.28Z</time></trkpt><trkpt lat="43.7047267" lon="11.1852133"><ele>232.0</ele><time>2026-04-18T08:46:18.28Z</time></trkpt><trkpt lat="43.7047617" lon="11.1853867"><ele>232.0</ele><time>2026-04-18T08:46:20.28Z</time></trkpt><trkpt lat="43.7047883" lon="11.1854933"><ele>232.0</ele><time>2026-04-18T08:46:21.282Z</time></trkpt><trkpt lat="43.7048183" lon="11.1856033"><ele>232.0</ele><time>2026-04-18T08:46:22.283Z</time></trkpt><trkpt lat="43.7048667" lon="11.18571"><ele>232.0</ele><time>2026-04-18T08:46:23.283Z</time></trkpt><trkpt lat="43.7049217" lon="11.1858217"><ele>232.0</ele><time>2026-04-18T08:46:24.281Z</time></trkpt><trkpt lat="43.7049883" lon="11.185925"><ele>232.0</ele><time>2026-04-18T08:46:25.281Z</time></trkpt><trkpt lat="43.705065" lon="11.1860167"><ele>232.0</ele><time>2026-04-18T08:46:26.281Z</time></trkpt><trkpt lat="43.70516" lon="11.1860883"><ele>232.0</ele><time>2026-04-18T08:46:27.281Z</time></trkpt><trkpt lat="43.7052583" lon="11.1861483"><ele>232.0</ele><time>2026-04-18T08:46:28.281Z</time></trkpt><trkpt lat="43.705365" lon="11.1862"><ele>232.0</ele><time>2026-04-18T08:46:29.281Z</time></trkpt><trkpt lat="43.7054767" lon="11.1862433"><ele>232.5</ele><time>2026-04-18T08:46:30.282Z</time></trkpt><trkpt lat="43.7055917" lon="11.1862817"><ele>233.0</ele><time>2026-04-18T08:46:31.279Z</time></trkpt><trkpt lat="43.7057117" lon="11.1863117"><ele>233.5</ele><time>2026-04-18T08:46:32.278Z</time></trkpt><trkpt lat="43.7058333" lon="11.1863367"><ele>234.0</ele><time>2026-04-18T08:46:33.281Z</time></trkpt><trkpt lat="43.7059633" lon="11.1863617"><ele>233.25</ele><time>2026-04-18T08:46:34.28Z</time></trkpt><trkpt lat="43.70609" lon="11.1863817"><ele>232.5</ele><time>2026-04-18T08:46:35.278Z</time></trkpt><trkpt lat="43.7062167" lon="11.1864"><ele>231.75</ele><time>2026-04-18T08:46:36.278Z</time></trkpt><trkpt lat="43.7063433" lon="11.186425"><ele>231.0</ele><time>2026-04-18T08:46:37.279Z</time></trkpt><trkpt lat="43.706465" lon="11.1864633"><ele>230.0</ele><time>2026-04-18T08:46:38.28Z</time></trkpt><trkpt lat="43.7065917" lon="11.1865367"><ele>229.0</ele><time>2026-04-18T08:46:39.279Z</time></trkpt><trkpt lat="43.706715" lon="11.18663"><ele>228.0</ele><time>2026-04-18T08:46:40.279Z</time></trkpt><trkpt lat="43.7068467" lon="11.18672"><ele>227.0</ele><time>2026-04-18T08:46:41.279Z</time></trkpt><trkpt lat="43.706985" lon="11.1867983"><ele>225.66666666666669</ele><time>2026-04-18T08:46:42.281Z</time></trkpt><trkpt lat="43.7071367" lon="11.1868467"><ele>224.33333333333331</ele><time>2026-04-18T08:46:43.279Z</time></trkpt><trkpt lat="43.7072867" lon="11.186885"><ele>223.0</ele><time>2026-04-18T08:46:44.282Z</time></trkpt><trkpt lat="43.7074383" lon="11.18692"><ele>223.0</ele><time>2026-04-18T08:46:45.282Z</time></trkpt><trkpt lat="43.7075933" lon="11.1869533"><ele>223.0</ele><time>2026-04-18T08:46:46.28Z</time></trkpt><trkpt lat="43.7077433" lon="11.1869867"><ele>223.0</ele><time>2026-04-18T08:46:47.279Z</time></trkpt><trkpt lat="43.707895" lon="11.1870217"><ele>221.5</ele><time>2026-04-18T08:46:48.279Z</time></trkpt><trkpt lat="43.7080467" lon="11.1870517"><ele>220.0</ele><time>2026-04-18T08:46:49.283Z</time></trkpt><trkpt lat="43.708185" lon="11.18708"><ele>218.5</ele><time>2026-04-18T08:46:50.283Z</time></trkpt><trkpt lat="43.70831" lon="11.18713"><ele>217.0</ele><time>2026-04-18T08:46:51.283Z</time></trkpt><trkpt lat="43.7084317" lon="11.187205"><ele>217.0</ele><time>2026-04-18T08:46:52.283Z</time></trkpt><trkpt lat="43.70855" lon="11.1873017"><ele>217.0</ele><time>2026-04-18T08:46:53.282Z</time></trkpt><trkpt lat="43.708665" lon="11.187415"><ele>217.0</ele><time>2026-04-18T08:46:54.282Z</time></trkpt><trkpt lat="43.7087833" lon="11.1875333"><ele>217.0</ele><time>2026-04-18T08:46:55.282Z</time></trkpt><trkpt lat="43.7089033" lon="11.1876567"><ele>215.66666666666666</ele><time>2026-04-18T08:46:56.28Z</time></trkpt><trkpt lat="43.70903" lon="11.1877833"><ele>214.33333333333331</ele><time>2026-04-18T08:46:57.279Z</time></trkpt><trkpt lat="43.7091583" lon="11.1879083"><ele>213.0</ele><time>2026-04-18T08:46:58.282Z</time></trkpt><trkpt lat="43.7092917" lon="11.188035"><ele>213.0</ele><time>2026-04-18T08:46:59.282Z</time></trkpt><trkpt lat="43.7094283" lon="11.188165"><ele>213.0</ele><time>2026-04-18T08:47:00.28Z</time></trkpt><trkpt lat="43.7095817" lon="11.1882933"><ele>213.0</ele><time>2026-04-18T08:47:01.28Z</time></trkpt><trkpt lat="43.7097333" lon="11.1884217"><ele>213.0</ele><time>2026-04-18T08:47:02.28Z</time></trkpt><trkpt lat="43.7098867" lon="11.188545"><ele>213.0</ele><time>2026-04-18T08:47:03.281Z</time></trkpt><trkpt lat="43.7100433" lon="11.18867"><ele>213.0</ele><time>2026-04-18T08:47:04.28Z</time></trkpt><trkpt lat="43.710205" lon="11.18879"><ele>213.33333333333331</ele><time>2026-04-18T08:47:05.281Z</time></trkpt><trkpt lat="43.71037" lon="11.188895"><ele>213.66666666666666</ele><time>2026-04-18T08:47:06.282Z</time></trkpt><trkpt lat="43.710545" lon="11.1889767"><ele>214.0</ele><time>2026-04-18T08:47:07.282Z</time></trkpt><trkpt lat="43.71072" lon="11.189035"><ele>214.0</ele><time>2026-04-18T08:47:08.282Z</time></trkpt><trkpt lat="43.7108983" lon="11.189095"><ele>214.0</ele><time>2026-04-18T08:47:09.28Z</time></trkpt><trkpt lat="43.71108" lon="11.1891533"><ele>214.0</ele><time>2026-04-18T08:47:10.282Z</time></trkpt><trkpt lat="43.7112633" lon="11.1892017"><ele>214.66666666666666</ele><time>2026-04-18T08:47:11.28Z</time></trkpt><trkpt lat="43.711445" lon="11.1892233"><ele>215.33333333333331</ele><time>2026-04-18T08:47:12.281Z</time></trkpt><trkpt lat="43.7116233" lon="11.1892217"><ele>216.0</ele><time>2026-04-18T08:47:13.279Z</time></trkpt><trkpt lat="43.7117967" lon="11.18921"><ele>216.66666666666669</ele><time>2026-04-18T08:47:14.281Z</time></trkpt><trkpt lat="43.7119667" lon="11.1891883"><ele>217.33333333333334</ele><time>2026-04-18T08:47:15.28Z</time></trkpt><trkpt lat="43.7121283" lon="11.1891583"><ele>218.0</ele><time>2026-04-18T08:47:16.281Z</time></trkpt><trkpt lat="43.7122783" lon="11.18909"><ele>216.66666666666669</ele><time>2026-04-18T08:47:17.282Z</time></trkpt><trkpt lat="43.712415" lon="11.1889783"><ele>215.33333333333331</ele><time>2026-04-18T08:47:18.279Z</time></trkpt><trkpt lat="43.7125267" lon="11.1888267"><ele>214.0</ele><time>2026-04-18T08:47:19.283Z</time></trkpt><trkpt lat="43.7126133" lon="11.1886383"><ele>214.0</ele><time>2026-04-18T08:47:20.28Z</time></trkpt><trkpt lat="43.7126783" lon="11.18843"><ele>214.0</ele><time>2026-04-18T08:47:21.279Z</time></trkpt><trkpt lat="43.71273" lon="11.1882033"><ele>214.0</ele><time>2026-04-18T08:47:22.281Z</time></trkpt><trkpt lat="43.7128033" lon="11.1879917"><ele>213.66666666666666</ele><time>2026-04-18T08:47:23.281Z</time></trkpt><trkpt lat="43.71291" lon="11.1878033"><ele>213.33333333333331</ele><time>2026-04-18T08:47:24.281Z</time></trkpt><trkpt lat="43.71304" lon="11.1876467"><ele>213.0</ele><time>2026-04-18T08:47:25.28Z</time></trkpt><trkpt lat="43.7131967" lon="11.1875383"><ele>213.0</ele><time>2026-04-18T08:47:26.28Z</time></trkpt><trkpt lat="43.7133667" lon="11.1874667"><ele>213.0</ele><time>2026-04-18T08:47:27.282Z</time></trkpt><trkpt lat="43.7135467" lon="11.1874217"><ele>213.0</ele><time>2026-04-18T08:47:28.282Z</time></trkpt><trkpt lat="43.7137317" lon="11.18738"><ele>211.66666666666669</ele><time>2026-04-18T08:47:29.281Z</time></trkpt><trkpt lat="43.713915" lon="11.1873583"><ele>210.33333333333334</ele><time>2026-04-18T08:47:30.281Z</time></trkpt><trkpt lat="43.71409" lon="11.1873467"><ele>209.0</ele><time>2026-04-18T08:47:31.283Z</time></trkpt><trkpt lat="43.7142567" lon="11.1873617"><ele>204.0</ele><time>2026-04-18T08:47:32.28Z</time></trkpt><trkpt lat="43.7144117" lon="11.1874217"><ele>199.0</ele><time>2026-04-18T08:47:33.281Z</time></trkpt><trkpt lat="43.7145667" lon="11.187485"><ele>194.0</ele><time>2026-04-18T08:47:34.28Z</time></trkpt><trkpt lat="43.7147267" lon="11.1875867"><ele>194.0</ele><time>2026-04-18T08:47:35.281Z</time></trkpt><trkpt lat="43.71489" lon="11.18771"><ele>194.0</ele><time>2026-04-18T08:47:36.282Z</time></trkpt><trkpt lat="43.7150617" lon="11.18785"><ele>194.0</ele><time>2026-04-18T08:47:37.282Z</time></trkpt><trkpt lat="43.715225" lon="11.188"><ele>193.0</ele><time>2026-04-18T08:47:38.282Z</time></trkpt><trkpt lat="43.7153917" lon="11.1881483"><ele>192.0</ele><time>2026-04-18T08:47:39.28Z</time></trkpt><trkpt lat="43.7155617" lon="11.1882983"><ele>191.0</ele><time>2026-04-18T08:47:40.28Z</time></trkpt><trkpt lat="43.7157167" lon="11.1884583"><ele>191.0</ele><time>2026-04-18T08:47:41.282Z</time></trkpt><trkpt lat="43.715855" lon="11.1886267"><ele>191.0</ele><time>2026-04-18T08:47:42.28Z</time></trkpt><trkpt lat="43.7159733" lon="11.1888067"><ele>191.0</ele><time>2026-04-18T08:47:43.281Z</time></trkpt><trkpt lat="43.71609" lon="11.18897"><ele>187.0</ele><time>2026-04-18T08:47:44.281Z</time></trkpt><trkpt lat="43.7162017" lon="11.1891217"><ele>183.0</ele><time>2026-04-18T08:47:45.281Z</time></trkpt><trkpt lat="43.71631" lon="11.1892717"><ele>179.0</ele><time>2026-04-18T08:47:46.281Z</time></trkpt><trkpt lat="43.7163933" lon="11.1894433"><ele>179.0</ele><time>2026-04-18T08:47:47.283Z</time></trkpt><trkpt lat="43.7164533" lon="11.1896333"><ele>179.0</ele><time>2026-04-18T08:47:48.281Z</time></trkpt><trkpt lat="43.7164983" lon="11.1898517"><ele>179.0</ele><time>2026-04-18T08:47:49.28Z</time></trkpt><trkpt lat="43.7165183" lon="11.1901"><ele>179.0</ele><time>2026-04-18T08:47:50.28Z</time></trkpt><trkpt lat="43.71652" lon="11.1903633"><ele>179.0</ele><time>2026-04-18T08:47:51.281Z</time></trkpt><trkpt lat="43.716495" lon="11.1906217"><ele>179.0</ele><time>2026-04-18T08:47:52.282Z</time></trkpt><trkpt lat="43.7164517" lon="11.19087"><ele>179.0</ele><time>2026-04-18T08:47:53.28Z</time></trkpt><trkpt lat="43.71639" lon="11.1911083"><ele>179.0</ele><time>2026-04-18T08:47:54.28Z</time></trkpt><trkpt lat="43.71632" lon="11.1913267"><ele>179.0</ele><time>2026-04-18T08:47:55.28Z</time></trkpt><trkpt lat="43.7162583" lon="11.1915267"><ele>179.0</ele><time>2026-04-18T08:47:56.28Z</time></trkpt><trkpt lat="43.7162233" lon="11.1917267"><ele>179.0</ele><time>2026-04-18T08:47:57.281Z</time></trkpt><trkpt lat="43.7162317" lon="11.1919467"><ele>179.0</ele><time>2026-04-18T08:47:58.281Z</time></trkpt><trkpt lat="43.7163017" lon="11.1921617"><ele>178.0</ele><time>2026-04-18T08:47:59.279Z</time></trkpt><trkpt lat="43.7164333" lon="11.1923483"><ele>177.0</ele><time>2026-04-18T08:48:00.282Z</time></trkpt><trkpt lat="43.7165583" lon="11.1925433"><ele>176.0</ele><time>2026-04-18T08:48:01.281Z</time></trkpt><trkpt lat="43.7166917" lon="11.1927467"><ele>176.0</ele><time>2026-04-18T08:48:02.28Z</time></trkpt><trkpt lat="43.7168467" lon="11.1929367"><ele>176.0</ele><time>2026-04-18T08:48:03.279Z</time></trkpt><trkpt lat="43.7169967" lon="11.1931233"><ele>176.0</ele><time>2026-04-18T08:48:04.28Z</time></trkpt><trkpt lat="43.7171617" lon="11.193295"><ele>177.33333333333331</ele><time>2026-04-18T08:48:05.281Z</time></trkpt><trkpt lat="43.7173433" lon="11.1934467"><ele>178.66666666666666</ele><time>2026-04-18T08:48:06.282Z</time></trkpt><trkpt lat="43.7175367" lon="11.1935833"><ele>180.0</ele><time>2026-04-18T08:48:07.279Z</time></trkpt><trkpt lat="43.7177317" lon="11.19371"><ele>180.33333333333334</ele><time>2026-04-18T08:48:08.28Z</time></trkpt><trkpt lat="43.717915" lon="11.1938317"><ele>180.66666666666669</ele><time>2026-04-18T08:48:09.281Z</time></trkpt><trkpt lat="43.718085" lon="11.1939433"><ele>181.0</ele><time>2026-04-18T08:48:10.281Z</time></trkpt><trkpt lat="43.7182367" lon="11.1940517"><ele>181.0</ele><time>2026-04-18T08:48:11.281Z</time></trkpt><trkpt lat="43.7183667" lon="11.1941433"><ele>181.0</ele><time>2026-04-18T08:48:12.282Z</time></trkpt><trkpt lat="43.7184917" lon="11.1941883"><ele>181.0</ele><time>2026-04-18T08:48:13.279Z</time></trkpt><trkpt lat="43.7186233" lon="11.1941767"><ele>181.0</ele><time>2026-04-18T08:48:14.281Z</time></trkpt><trkpt lat="43.7187533" lon="11.1941083"><ele>180.66666666666669</ele><time>2026-04-18T08:48:15.281Z</time></trkpt><trkpt lat="43.7188817" lon="11.1939717"><ele>180.33333333333334</ele><time>2026-04-18T08:48:16.28Z</time></trkpt><trkpt lat="43.719035" lon="11.193815"><ele>180.0</ele><time>2026-04-18T08:48:17.281Z</time></trkpt><trkpt lat="43.7192117" lon="11.19365"><ele>184.5</ele><time>2026-04-18T08:48:18.281Z</time></trkpt><trkpt lat="43.719405" lon="11.19349"><ele>189.0</ele><time>2026-04-18T08:48:19.28Z</time></trkpt><trkpt lat="43.7196033" lon="11.1933417"><ele>189.0</ele><time>2026-04-18T08:48:20.283Z</time></trkpt><trkpt lat="43.7197883" lon="11.1931917"><ele>189.0</ele><time>2026-04-18T08:48:21.279Z</time></trkpt><trkpt lat="43.7199567" lon="11.1930417"><ele>189.0</ele><time>2026-04-18T08:48:22.282Z</time></trkpt><trkpt lat="43.72011" lon="11.192915"><ele>187.75</ele><time>2026-04-18T08:48:23.28Z</time></trkpt><trkpt lat="43.7202533" lon="11.1928033"><ele>186.5</ele><time>2026-04-18T08:48:24.281Z</time></trkpt><trkpt lat="43.7203917" lon="11.1927367"><ele>185.25</ele><time>2026-04-18T08:48:25.281Z</time></trkpt><trkpt lat="43.7205233" lon="11.1927317"><ele>184.0</ele><time>2026-04-18T08:48:26.28Z</time></trkpt><trkpt lat="43.720645" lon="11.1927883"><ele>184.0</ele><time>2026-04-18T08:48:27.282Z</time></trkpt><trkpt lat="43.7207467" lon="11.192905"><ele>184.0</ele><time>2026-04-18T08:48:28.279Z</time></trkpt><trkpt lat="43.7208033" lon="11.1930883"><ele>184.0</ele><time>2026-04-18T08:48:29.281Z</time></trkpt><trkpt lat="43.720825" lon="11.19329"><ele>184.0</ele><time>2026-04-18T08:48:30.281Z</time></trkpt><trkpt lat="43.7207983" lon="11.1935083"><ele>184.0</ele><time>2026-04-18T08:48:31.281Z</time></trkpt><trkpt lat="43.72074" lon="11.193735"><ele>184.0</ele><time>2026-04-18T08:48:32.281Z</time></trkpt><trkpt lat="43.720665" lon="11.1939717"><ele>184.0</ele><time>2026-04-18T08:48:33.281Z</time></trkpt><trkpt lat="43.720595" lon="11.19421"><ele>182.0</ele><time>2026-04-18T08:48:34.283Z</time></trkpt><trkpt lat="43.7205367" lon="11.1944633"><ele>180.0</ele><time>2026-04-18T08:48:35.28Z</time></trkpt><trkpt lat="43.720505" lon="11.1947333"><ele>178.0</ele><time>2026-04-18T08:48:36.282Z</time></trkpt><trkpt lat="43.7205083" lon="11.1950083"><ele>177.0</ele><time>2026-04-18T08:48:37.282Z</time></trkpt><trkpt lat="43.720545" lon="11.1952933"><ele>176.0</ele><time>2026-04-18T08:48:38.282Z</time></trkpt><trkpt lat="43.7205917" lon="11.1955817"><ele>175.0</ele><time>2026-04-18T08:48:39.28Z</time></trkpt><trkpt lat="43.7206483" lon="11.1958683"><ele>175.0</ele><time>2026-04-18T08:48:40.282Z</time></trkpt><trkpt lat="43.72071" lon="11.1961483"><ele>175.0</ele><time>2026-04-18T08:48:41.281Z</time></trkpt><trkpt lat="43.7207767" lon="11.1964317"><ele>175.0</ele><time>2026-04-18T08:48:42.281Z</time></trkpt><trkpt lat="43.7208483" lon="11.19672"><ele>176.0</ele><time>2026-04-18T08:48:43.282Z</time></trkpt><trkpt lat="43.7209133" lon="11.1970083"><ele>177.0</ele><time>2026-04-18T08:48:44.28Z</time></trkpt><trkpt lat="43.7209783" lon="11.1972983"><ele>178.0</ele><time>2026-04-18T08:48:45.28Z</time></trkpt><trkpt lat="43.7210433" lon="11.1975867"><ele>176.66666666666669</ele><time>2026-04-18T08:48:46.279Z</time></trkpt><trkpt lat="43.7211" lon="11.1978617"><ele>175.33333333333334</ele><time>2026-04-18T08:48:47.282Z</time></trkpt><trkpt lat="43.7211417" lon="11.1981267"><ele>174.0</ele><time>2026-04-18T08:48:48.281Z</time></trkpt><trkpt lat="43.7211867" lon="11.1983717"><ele>174.0</ele><time>2026-04-18T08:48:49.28Z</time></trkpt><trkpt lat="43.7212467" lon="11.1986"><ele>174.0</ele><time>2026-04-18T08:48:50.282Z</time></trkpt><trkpt lat="43.7213183" lon="11.1988083"><ele>174.0</ele><time>2026-04-18T08:48:51.28Z</time></trkpt><trkpt lat="43.7214083" lon="11.1989883"><ele>173.33333333333334</ele><time>2026-04-18T08:48:52.281Z</time></trkpt><trkpt lat="43.7215183" lon="11.19914"><ele>172.66666666666669</ele><time>2026-04-18T08:48:53.281Z</time></trkpt><trkpt lat="43.7216617" lon="11.1992533"><ele>172.0</ele><time>2026-04-18T08:48:54.28Z</time></trkpt><trkpt lat="43.7218367" lon="11.199305"><ele>171.33333333333334</ele><time>2026-04-18T08:48:55.282Z</time></trkpt><trkpt lat="43.72204" lon="11.1993083"><ele>170.66666666666666</ele><time>2026-04-18T08:48:56.282Z</time></trkpt><trkpt lat="43.7222383" lon="11.1993133"><ele>170.0</ele><time>2026-04-18T08:48:57.283Z</time></trkpt><trkpt lat="43.72244" lon="11.1993167"><ele>170.0</ele><time>2026-04-18T08:48:58.282Z</time></trkpt><trkpt lat="43.7226433" lon="11.1992983"><ele>170.0</ele><time>2026-04-18T08:48:59.281Z</time></trkpt><trkpt lat="43.7228417" lon="11.19925"><ele>170.0</ele><time>2026-04-18T08:49:00.283Z</time></trkpt><trkpt lat="43.7230367" lon="11.199175"><ele>171.66666666666666</ele><time>2026-04-18T08:49:01.28Z</time></trkpt><trkpt lat="43.7232267" lon="11.199075"><ele>173.33333333333334</ele><time>2026-04-18T08:49:02.28Z</time></trkpt><trkpt lat="43.7234117" lon="11.1989733"><ele>175.0</ele><time>2026-04-18T08:49:03.28Z</time></trkpt><trkpt lat="43.7235867" lon="11.1988733"><ele>177.66666666666669</ele><time>2026-04-18T08:49:04.28Z</time></trkpt><trkpt lat="43.72376" lon="11.1988083"><ele>180.33333333333334</ele><time>2026-04-18T08:49:05.282Z</time></trkpt><trkpt lat="43.7239383" lon="11.1987683"><ele>183.0</ele><time>2026-04-18T08:49:06.281Z</time></trkpt><trkpt lat="43.7241183" lon="11.1987417"><ele>183.0</ele><time>2026-04-18T08:49:07.281Z</time></trkpt><trkpt lat="43.7242883" lon="11.198735"><ele>183.0</ele><time>2026-04-18T08:49:08.281Z</time></trkpt><trkpt lat="43.7244533" lon="11.1987633"><ele>183.0</ele><time>2026-04-18T08:49:09.283Z</time></trkpt><trkpt lat="43.724615" lon="11.1988533"><ele>181.33333333333334</ele><time>2026-04-18T08:49:10.282Z</time></trkpt><trkpt lat="43.7247583" lon="11.1990017"><ele>179.66666666666669</ele><time>2026-04-18T08:49:11.281Z</time></trkpt><trkpt lat="43.7248983" lon="11.1991733"><ele>178.0</ele><time>2026-04-18T08:49:12.282Z</time></trkpt><trkpt lat="43.7250467" lon="11.1993517"><ele>178.0</ele><time>2026-04-18T08:49:13.281Z</time></trkpt><trkpt lat="43.7252067" lon="11.1995283"><ele>178.0</ele><time>2026-04-18T08:49:14.28Z</time></trkpt><trkpt lat="43.72537" lon="11.1997117"><ele>178.0</ele><time>2026-04-18T08:49:15.282Z</time></trkpt><trkpt lat="43.7255367" lon="11.1998867"><ele>178.0</ele><time>2026-04-18T08:49:16.281Z</time></trkpt><trkpt lat="43.7256983" lon="11.20006"><ele>178.0</ele><time>2026-04-18T08:49:17.28Z</time></trkpt><trkpt lat="43.7258567" lon="11.2002217"><ele>178.0</ele><time>2026-04-18T08:49:18.282Z</time></trkpt><trkpt lat="43.7260133" lon="11.2003633"><ele>178.33333333333334</ele><time>2026-04-18T08:49:19.281Z</time></trkpt><trkpt lat="43.7261683" lon="11.2004883"><ele>178.66666666666666</ele><time>2026-04-18T08:49:20.28Z</time></trkpt><trkpt lat="43.7263167" lon="11.2005783"><ele>179.0</ele><time>2026-04-18T08:49:21.281Z</time></trkpt><trkpt lat="43.7264683" lon="11.20066"><ele>179.0</ele><time>2026-04-18T08:49:22.281Z</time></trkpt><trkpt lat="43.7266183" lon="11.2007467"><ele>179.0</ele><time>2026-04-18T08:49:23.281Z</time></trkpt><trkpt lat="43.72677" lon="11.20085"><ele>179.0</ele><time>2026-04-18T08:49:24.28Z</time></trkpt><trkpt lat="43.7269183" lon="11.2009717"><ele>179.0</ele><time>2026-04-18T08:49:25.281Z</time></trkpt><trkpt lat="43.7270667" lon="11.20111"><ele>179.0</ele><time>2026-04-18T08:49:26.282Z</time></trkpt><trkpt lat="43.7272133" lon="11.20126"><ele>179.0</ele><time>2026-04-18T08:49:27.28Z</time></trkpt><trkpt lat="43.7273583" lon="11.2014233"><ele>174.66666666666666</ele><time>2026-04-18T08:49:28.279Z</time></trkpt><trkpt lat="43.7275017" lon="11.2015933"><ele>170.33333333333334</ele><time>2026-04-18T08:49:29.28Z</time></trkpt><trkpt lat="43.7276433" lon="11.201775"><ele>166.0</ele><time>2026-04-18T08:49:30.28Z</time></trkpt><trkpt lat="43.72779" lon="11.2019567"><ele>164.66666666666669</ele><time>2026-04-18T08:49:31.281Z</time></trkpt><trkpt lat="43.72794" lon="11.2021367"><ele>163.33333333333334</ele><time>2026-04-18T08:49:32.283Z</time></trkpt><trkpt lat="43.7281" lon="11.20231"><ele>162.0</ele><time>2026-04-18T08:49:33.282Z</time></trkpt><trkpt lat="43.728255" lon="11.2024833"><ele>162.0</ele><time>2026-04-18T08:49:34.28Z</time></trkpt><trkpt lat="43.7284133" lon="11.2026483"><ele>162.0</ele><time>2026-04-18T08:49:35.281Z</time></trkpt><trkpt lat="43.7285767" lon="11.2028083"><ele>162.0</ele><time>2026-04-18T08:49:36.281Z</time></trkpt><trkpt lat="43.7287383" lon="11.2029617"><ele>160.66666666666666</ele><time>2026-04-18T08:49:37.28Z</time></trkpt><trkpt lat="43.7288883" lon="11.2031217"><ele>159.33333333333331</ele><time>2026-04-18T08:49:38.281Z</time></trkpt><trkpt lat="43.7290267" lon="11.2032917"><ele>158.0</ele><time>2026-04-18T08:49:39.28Z</time></trkpt><trkpt lat="43.7291533" lon="11.2034733"><ele>159.33333333333331</ele><time>2026-04-18T08:49:40.282Z</time></trkpt><trkpt lat="43.729275" lon="11.20366"><ele>160.66666666666666</ele><time>2026-04-18T08:49:41.282Z</time></trkpt><trkpt lat="43.7294" lon="11.2038433"><ele>162.0</ele><time>2026-04-18T08:49:42.282Z</time></trkpt><trkpt lat="43.729525" lon="11.2040283"><ele>166.0</ele><time>2026-04-18T08:49:43.282Z</time></trkpt><trkpt lat="43.729655" lon="11.20421"><ele>170.0</ele><time>2026-04-18T08:49:44.28Z</time></trkpt><trkpt lat="43.72979" lon="11.204385"><ele>174.0</ele><time>2026-04-18T08:49:45.281Z</time></trkpt><trkpt lat="43.72993" lon="11.2045533"><ele>174.0</ele><time>2026-04-18T08:49:46.28Z</time></trkpt><trkpt lat="43.73007" lon="11.20472"><ele>174.0</ele><time>2026-04-18T08:49:47.282Z</time></trkpt><trkpt lat="43.7302067" lon="11.204885"><ele>174.0</ele><time>2026-04-18T08:49:48.28Z</time></trkpt><trkpt lat="43.7303467" lon="11.20504"><ele>177.33333333333334</ele><time>2026-04-18T08:49:49.282Z</time></trkpt><trkpt lat="43.7304867" lon="11.2051783"><ele>180.66666666666669</ele><time>2026-04-18T08:49:50.282Z</time></trkpt><trkpt lat="43.73063" lon="11.205305"><ele>184.0</ele><time>2026-04-18T08:49:51.281Z</time></trkpt><trkpt lat="43.7307583" lon="11.2054217"><ele>184.0</ele><time>2026-04-18T08:49:52.281Z</time></trkpt><trkpt lat="43.7308733" lon="11.20555"><ele>184.0</ele><time>2026-04-18T08:49:53.282Z</time></trkpt><trkpt lat="43.7309717" lon="11.2057017"><ele>184.0</ele><time>2026-04-18T08:49:54.28Z</time></trkpt><trkpt lat="43.7310583" lon="11.205865"><ele>184.0</ele><time>2026-04-18T08:49:55.283Z</time></trkpt><trkpt lat="43.7311317" lon="11.2060233"><ele>184.0</ele><time>2026-04-18T08:49:56.282Z</time></trkpt><trkpt lat="43.7312017" lon="11.2061717"><ele>184.0</ele><time>2026-04-18T08:49:57.282Z</time></trkpt><trkpt lat="43.731265" lon="11.2063067"><ele>184.0</ele><time>2026-04-18T08:49:58.283Z</time></trkpt><trkpt lat="43.73132" lon="11.2064267"><ele>184.0</ele><time>2026-04-18T08:49:59.28Z</time></trkpt><trkpt lat="43.7313667" lon="11.2065233"><ele>184.0</ele><time>2026-04-18T08:50:00.28Z</time></trkpt><trkpt lat="43.73141" lon="11.2066033"><ele>184.0</ele><time>2026-04-18T08:50:01.28Z</time></trkpt><trkpt lat="43.7314567" lon="11.2066867"><ele>184.0</ele><time>2026-04-18T08:50:03.281Z</time></trkpt><trkpt lat="43.7315533" lon="11.2066967"><ele>184.0</ele><time>2026-04-18T08:50:05.281Z</time></trkpt><trkpt lat="43.73163" lon="11.2066783"><ele>184.0</ele><time>2026-04-18T08:50:06.281Z</time></trkpt><trkpt lat="43.7317183" lon="11.2066417"><ele>184.0</ele><time>2026-04-18T08:50:07.281Z</time></trkpt><trkpt lat="43.7318117" lon="11.20662"><ele>184.0</ele><time>2026-04-18T08:50:08.282Z</time></trkpt><trkpt lat="43.7319183" lon="11.20659"><ele>184.0</ele><time>2026-04-18T08:50:09.283Z</time></trkpt><trkpt lat="43.7320333" lon="11.206555"><ele>184.0</ele><time>2026-04-18T08:50:10.282Z</time></trkpt><trkpt lat="43.73215" lon="11.2065333"><ele>184.0</ele><time>2026-04-18T08:50:11.281Z</time></trkpt><trkpt lat="43.73227" lon="11.2065083"><ele>184.0</ele><time>2026-04-18T08:50:12.281Z</time></trkpt><trkpt lat="43.7323933" lon="11.206485"><ele>184.0</ele><time>2026-04-18T08:50:13.283Z</time></trkpt><trkpt lat="43.73251" lon="11.2064517"><ele>184.0</ele><time>2026-04-18T08:50:14.282Z</time></trkpt><trkpt lat="43.7326267" lon="11.2064183"><ele>184.0</ele><time>2026-04-18T08:50:15.281Z</time></trkpt><trkpt lat="43.73275" lon="11.2063833"><ele>184.0</ele><time>2026-04-18T08:50:16.281Z</time></trkpt><trkpt lat="43.7328817" lon="11.2063517"><ele>186.0</ele><time>2026-04-18T08:50:17.281Z</time></trkpt><trkpt lat="43.7330133" lon="11.2063217"><ele>188.0</ele><time>2026-04-18T08:50:18.282Z</time></trkpt><trkpt lat="43.733145" lon="11.20629"><ele>190.0</ele><time>2026-04-18T08:50:19.282Z</time></trkpt><trkpt lat="43.7332767" lon="11.20626"><ele>192.0</ele><time>2026-04-18T08:50:20.283Z</time></trkpt><trkpt lat="43.7333983" lon="11.2062333"><ele>192.0</ele><time>2026-04-18T08:50:21.28Z</time></trkpt><trkpt lat="43.7335117" lon="11.2062067"><ele>192.0</ele><time>2026-04-18T08:50:22.28Z</time></trkpt><trkpt lat="43.73361" lon="11.2061817"><ele>192.0</ele><time>2026-04-18T08:50:23.283Z</time></trkpt><trkpt lat="43.7336933" lon="11.20616"><ele>192.0</ele><time>2026-04-18T08:50:24.28Z</time></trkpt><trkpt lat="43.7337617" lon="11.206145"><ele>192.0</ele><time>2026-04-18T08:50:25.281Z</time></trkpt><trkpt lat="43.733865" lon="11.206145"><ele>192.83333333333334</ele><time>2026-04-18T08:50:27.282Z</time></trkpt><trkpt lat="43.73396" lon="11.2062033"><ele>193.66666666666669</ele><time>2026-04-18T08:50:29.283Z</time></trkpt><trkpt lat="43.734015" lon="11.2062517"><ele>194.5</ele><time>2026-04-18T08:50:30.281Z</time></trkpt><trkpt lat="43.7340733" lon="11.2063083"><ele>195.33333333333334</ele><time>2026-04-18T08:50:31.282Z</time></trkpt><trkpt lat="43.7341367" lon="11.2063617"><ele>196.16666666666669</ele><time>2026-04-18T08:50:32.282Z</time></trkpt><trkpt lat="43.734195" lon="11.2064183"><ele>197.0</ele><time>2026-04-18T08:50:33.281Z</time></trkpt><trkpt lat="43.7342683" lon="11.2064617"><ele>196.39999999999998</ele><time>2026-04-18T08:50:34.283Z</time></trkpt><trkpt lat="43.7343533" lon="11.2064967"><ele>195.79999999999998</ele><time>2026-04-18T08:50:35.28Z</time></trkpt><trkpt lat="43.7344433" lon="11.2065233"><ele>195.2</ele><time>2026-04-18T08:50:36.282Z</time></trkpt><trkpt lat="43.734535" lon="11.20654"><ele>194.6</ele><time>2026-04-18T08:50:37.282Z</time></trkpt><trkpt lat="43.7346267" lon="11.2065383"><ele>194.0</ele><time>2026-04-18T08:50:38.283Z</time></trkpt><trkpt lat="43.7347183" lon="11.206515"><ele>192.79999999999998</ele><time>2026-04-18T08:50:39.281Z</time></trkpt><trkpt lat="43.734805" lon="11.2064783"><ele>191.6</ele><time>2026-04-18T08:50:40.281Z</time></trkpt><trkpt lat="43.73489" lon="11.2064233"><ele>190.4</ele><time>2026-04-18T08:50:41.283Z</time></trkpt><trkpt lat="43.7349767" lon="11.2063467"><ele>189.2</ele><time>2026-04-18T08:50:42.281Z</time></trkpt><trkpt lat="43.7350617" lon="11.2062667"><ele>188.0</ele><time>2026-04-18T08:50:43.282Z</time></trkpt><trkpt lat="43.7351467" lon="11.2061967"><ele>185.8</ele><time>2026-04-18T08:50:44.28Z</time></trkpt><trkpt lat="43.7352367" lon="11.2061267"><ele>183.60000000000002</ele><time>2026-04-18T08:50:45.283Z</time></trkpt><trkpt lat="43.7353233" lon="11.2060517"><ele>181.39999999999998</ele><time>2026-04-18T08:50:46.283Z</time></trkpt><trkpt lat="43.7354017" lon="11.2059733"><ele>179.2</ele><time>2026-04-18T08:50:47.283Z</time></trkpt><trkpt lat="43.7354817" lon="11.2058867"><ele>177.0</ele><time>2026-04-18T08:50:48.281Z</time></trkpt><trkpt lat="43.7355617" lon="11.2057983"><ele>177.0</ele><time>2026-04-18T08:50:49.281Z</time></trkpt><trkpt lat="43.735645" lon="11.2057167"><ele>177.0</ele><time>2026-04-18T08:50:50.28Z</time></trkpt><trkpt lat="43.7357333" lon="11.205635"><ele>177.0</ele><time>2026-04-18T08:50:51.281Z</time></trkpt><trkpt lat="43.7358233" lon="11.2055533"><ele>177.0</ele><time>2026-04-18T08:50:52.281Z</time></trkpt><trkpt lat="43.73591" lon="11.2054683"><ele>177.0</ele><time>2026-04-18T08:50:53.28Z</time></trkpt><trkpt lat="43.73599" lon="11.20538"><ele>177.33333333333334</ele><time>2026-04-18T08:50:54.28Z</time></trkpt><trkpt lat="43.7360667" lon="11.2052867"><ele>177.66666666666666</ele><time>2026-04-18T08:50:55.282Z</time></trkpt><trkpt lat="43.736125" lon="11.2051883"><ele>178.0</ele><time>2026-04-18T08:50:56.282Z</time></trkpt><trkpt lat="43.7361817" lon="11.2051033"><ele>178.33333333333331</ele><time>2026-04-18T08:50:57.284Z</time></trkpt><trkpt lat="43.7362383" lon="11.2050333"><ele>178.66666666666666</ele><time>2026-04-18T08:50:58.282Z</time></trkpt><trkpt lat="43.7363" lon="11.2049733"><ele>179.0</ele><time>2026-04-18T08:50:59.28Z</time></trkpt><trkpt lat="43.736365" lon="11.204935"><ele>179.0</ele><time>2026-04-18T08:51:00.281Z</time></trkpt><trkpt lat="43.73644" lon="11.2049"><ele>179.0</ele><time>2026-04-18T08:51:01.281Z</time></trkpt><trkpt lat="43.7365167" lon="11.204885"><ele>179.0</ele><time>2026-04-18T08:51:02.281Z</time></trkpt><trkpt lat="43.7365933" lon="11.2048817"><ele>179.0</ele><time>2026-04-18T08:51:03.28Z</time></trkpt><trkpt lat="43.7366717" lon="11.20488"><ele>179.0</ele><time>2026-04-18T08:51:04.282Z</time></trkpt><trkpt lat="43.7367533" lon="11.20488"><ele>179.0</ele><time>2026-04-18T08:51:05.281Z</time></trkpt><trkpt lat="43.7368233" lon="11.2048933"><ele>179.0</ele><time>2026-04-18T08:51:06.28Z</time></trkpt><trkpt lat="43.7368817" lon="11.204935"><ele>179.0</ele><time>2026-04-18T08:51:07.281Z</time></trkpt><trkpt lat="43.7369783" lon="11.2050217"><ele>179.0</ele><time>2026-04-18T08:51:09.281Z</time></trkpt><trkpt lat="43.737065" lon="11.2050683"><ele>179.0</ele><time>2026-04-18T08:51:11.281Z</time></trkpt><trkpt lat="43.7371583" lon="11.204995"><ele>179.0</ele><time>2026-04-18T08:51:13.283Z</time></trkpt><trkpt lat="43.737215" lon="11.2049467"><ele>179.0</ele><time>2026-04-18T08:51:14.282Z</time></trkpt><trkpt lat="43.7372783" lon="11.2048867"><ele>179.16666666666666</ele><time>2026-04-18T08:51:15.283Z</time></trkpt><trkpt lat="43.7373417" lon="11.204825"><ele>179.33333333333331</ele><time>2026-04-18T08:51:16.281Z</time></trkpt><trkpt lat="43.7374083" lon="11.2047683"><ele>179.5</ele><time>2026-04-18T08:51:17.28Z</time></trkpt><trkpt lat="43.73748" lon="11.2046933"><ele>179.66666666666666</ele><time>2026-04-18T08:51:18.28Z</time></trkpt><trkpt lat="43.7375517" lon="11.2046217"><ele>179.83333333333334</ele><time>2026-04-18T08:51:19.281Z</time></trkpt><trkpt lat="43.737615" lon="11.2045367"><ele>180.0</ele><time>2026-04-18T08:51:20.282Z</time></trkpt><trkpt lat="43.7376783" lon="11.2044467"><ele>178.2</ele><time>2026-04-18T08:51:21.279Z</time></trkpt><trkpt lat="43.73774" lon="11.2043433"><ele>176.4</ele><time>2026-04-18T08:51:22.28Z</time></trkpt><trkpt lat="43.7377983" lon="11.20424"><ele>174.60000000000002</ele><time>2026-04-18T08:51:23.281Z</time></trkpt><trkpt lat="43.7378583" lon="11.2041533"><ele>172.8</ele><time>2026-04-18T08:51:24.279Z</time></trkpt><trkpt lat="43.7379317" lon="11.2040667"><ele>171.0</ele><time>2026-04-18T08:51:25.28Z</time></trkpt><trkpt lat="43.7380217" lon="11.2040067"><ele>171.0</ele><time>2026-04-18T08:51:26.281Z</time></trkpt><trkpt lat="43.738125" lon="11.203955"><ele>171.0</ele><time>2026-04-18T08:51:27.283Z</time></trkpt><trkpt lat="43.738235" lon="11.203905"><ele>171.0</ele><time>2026-04-18T08:51:28.281Z</time></trkpt><trkpt lat="43.7383517" lon="11.2038683"><ele>171.0</ele><time>2026-04-18T08:51:29.281Z</time></trkpt><trkpt lat="43.7384733" lon="11.20383"><ele>171.25</ele><time>2026-04-18T08:51:30.281Z</time></trkpt><trkpt lat="43.7385983" lon="11.2038117"><ele>171.5</ele><time>2026-04-18T08:51:31.282Z</time></trkpt><trkpt lat="43.7387317" lon="11.2038067"><ele>171.75</ele><time>2026-04-18T08:51:32.28Z</time></trkpt><trkpt lat="43.738865" lon="11.2038167"><ele>172.0</ele><time>2026-04-18T08:51:33.281Z</time></trkpt><trkpt lat="43.7390017" lon="11.2038267"><ele>172.0</ele><time>2026-04-18T08:51:34.281Z</time></trkpt><trkpt lat="43.73914" lon="11.20384"><ele>172.0</ele><time>2026-04-18T08:51:35.278Z</time></trkpt><trkpt lat="43.73928" lon="11.20385"><ele>172.0</ele><time>2026-04-18T08:51:36.281Z</time></trkpt><trkpt lat="43.7394283" lon="11.2038617"><ele>172.0</ele><time>2026-04-18T08:51:37.28Z</time></trkpt><trkpt lat="43.7395717" lon="11.203895"><ele>172.0</ele><time>2026-04-18T08:51:38.283Z</time></trkpt><trkpt lat="43.73971" lon="11.2039333"><ele>172.0</ele><time>2026-04-18T08:51:39.28Z</time></trkpt><trkpt lat="43.7398433" lon="11.2039733"><ele>172.0</ele><time>2026-04-18T08:51:40.28Z</time></trkpt><trkpt lat="43.7399733" lon="11.20401"><ele>172.0</ele><time>2026-04-18T08:51:41.281Z</time></trkpt><trkpt lat="43.740095" lon="11.204035"><ele>171.0</ele><time>2026-04-18T08:51:42.282Z</time></trkpt><trkpt lat="43.7402" lon="11.204055"><ele>170.0</ele><time>2026-04-18T08:51:43.28Z</time></trkpt><trkpt lat="43.7402883" lon="11.20404"><ele>169.0</ele><time>2026-04-18T08:51:44.282Z</time></trkpt><trkpt lat="43.7403783" lon="11.20401"><ele>168.0</ele><time>2026-04-18T08:51:45.279Z</time></trkpt><trkpt lat="43.74047" lon="11.203955"><ele>167.0</ele><time>2026-04-18T08:51:46.279Z</time></trkpt><trkpt lat="43.7405567" lon="11.203895"><ele>166.0</ele><time>2026-04-18T08:51:47.28Z</time></trkpt><trkpt lat="43.7406433" lon="11.2038433"><ele>165.0</ele><time>2026-04-18T08:51:48.28Z</time></trkpt><trkpt lat="43.7407317" lon="11.2038167"><ele>164.0</ele><time>2026-04-18T08:51:49.28Z</time></trkpt><trkpt lat="43.7408283" lon="11.2038217"><ele>163.0</ele><time>2026-04-18T08:51:50.281Z</time></trkpt><trkpt lat="43.7409267" lon="11.2038583"><ele>162.0</ele><time>2026-04-18T08:51:51.281Z</time></trkpt><trkpt lat="43.7410217" lon="11.2039217"><ele>161.4</ele><time>2026-04-18T08:51:52.279Z</time></trkpt><trkpt lat="43.7411167" lon="11.2040033"><ele>160.79999999999998</ele><time>2026-04-18T08:51:53.279Z</time></trkpt><trkpt lat="43.7412067" lon="11.204085"><ele>160.2</ele><time>2026-04-18T08:51:54.281Z</time></trkpt><trkpt lat="43.7412883" lon="11.2041533"><ele>159.6</ele><time>2026-04-18T08:51:55.28Z</time></trkpt><trkpt lat="43.7413683" lon="11.2042017"><ele>159.0</ele><time>2026-04-18T08:51:56.28Z</time></trkpt><trkpt lat="43.741445" lon="11.20423"><ele>159.0</ele><time>2026-04-18T08:51:57.282Z</time></trkpt><trkpt lat="43.7415283" lon="11.20423"><ele>159.0</ele><time>2026-04-18T08:51:58.281Z</time></trkpt><trkpt lat="43.7416217" lon="11.2042133"><ele>159.0</ele><time>2026-04-18T08:51:59.279Z</time></trkpt><trkpt lat="43.74174" lon="11.2041817"><ele>159.0</ele><time>2026-04-18T08:52:00.28Z</time></trkpt><trkpt lat="43.74186" lon="11.20416"><ele>159.0</ele><time>2026-04-18T08:52:01.28Z</time></trkpt><trkpt lat="43.741985" lon="11.204145"><ele>157.2</ele><time>2026-04-18T08:52:02.281Z</time></trkpt><trkpt lat="43.7420967" lon="11.2041583"><ele>155.4</ele><time>2026-04-18T08:52:03.281Z</time></trkpt><trkpt lat="43.7422" lon="11.2041733"><ele>153.6</ele><time>2026-04-18T08:52:04.283Z</time></trkpt><trkpt lat="43.7422983" lon="11.2041883"><ele>151.8</ele><time>2026-04-18T08:52:05.281Z</time></trkpt><trkpt lat="43.7423933" lon="11.2042067"><ele>150.0</ele><time>2026-04-18T08:52:06.28Z</time></trkpt><trkpt lat="43.742475" lon="11.20423"><ele>150.0</ele><time>2026-04-18T08:52:07.281Z</time></trkpt><trkpt lat="43.742545" lon="11.2042533"><ele>150.0</ele><time>2026-04-18T08:52:08.28Z</time></trkpt><trkpt lat="43.7426083" lon="11.204275"><ele>150.0</ele><time>2026-04-18T08:52:09.28Z</time></trkpt><trkpt lat="43.74269" lon="11.2042017"><ele>150.0</ele><time>2026-04-18T08:52:11.281Z</time></trkpt><trkpt lat="43.7427233" lon="11.204105"><ele>150.0</ele><time>2026-04-18T08:52:12.281Z</time></trkpt><trkpt lat="43.7428183" lon="11.2040567"><ele>150.0</ele><time>2026-04-18T08:52:14.283Z</time></trkpt><trkpt lat="43.74288" lon="11.2041"><ele>147.0</ele><time>2026-04-18T08:52:15.28Z</time></trkpt><trkpt lat="43.7429533" lon="11.2041517"><ele>144.0</ele><time>2026-04-18T08:52:16.283Z</time></trkpt><trkpt lat="43.7430317" lon="11.20419"><ele>141.0</ele><time>2026-04-18T08:52:17.281Z</time></trkpt><trkpt lat="43.7431233" lon="11.2042033"><ele>138.0</ele><time>2026-04-18T08:52:18.281Z</time></trkpt><trkpt lat="43.743235" lon="11.2041867"><ele>135.0</ele><time>2026-04-18T08:52:19.281Z</time></trkpt><trkpt lat="43.743355" lon="11.204155"><ele>135.0</ele><time>2026-04-18T08:52:20.282Z</time></trkpt><trkpt lat="43.7434833" lon="11.2041183"><ele>135.0</ele><time>2026-04-18T08:52:21.28Z</time></trkpt><trkpt lat="43.7436083" lon="11.2040917"><ele>135.0</ele><time>2026-04-18T08:52:22.28Z</time></trkpt><trkpt lat="43.7437283" lon="11.2040717"><ele>135.0</ele><time>2026-04-18T08:52:23.281Z</time></trkpt><trkpt lat="43.7438483" lon="11.2040517"><ele>132.0</ele><time>2026-04-18T08:52:24.284Z</time></trkpt><trkpt lat="43.74397" lon="11.2040233"><ele>129.0</ele><time>2026-04-18T08:52:25.281Z</time></trkpt><trkpt lat="43.7440933" lon="11.2040067"><ele>126.0</ele><time>2026-04-18T08:52:26.282Z</time></trkpt><trkpt lat="43.74421" lon="11.2039867"><ele>123.0</ele><time>2026-04-18T08:52:27.281Z</time></trkpt><trkpt lat="43.744325" lon="11.2039717"><ele>120.80000000000001</ele><time>2026-04-18T08:52:28.282Z</time></trkpt><trkpt lat="43.7444367" lon="11.20397"><ele>118.60000000000001</ele><time>2026-04-18T08:52:29.279Z</time></trkpt><trkpt lat="43.7445483" lon="11.20399"><ele>116.39999999999999</ele><time>2026-04-18T08:52:30.28Z</time></trkpt><trkpt lat="43.7446567" lon="11.2040183"><ele>114.19999999999999</ele><time>2026-04-18T08:52:31.28Z</time></trkpt><trkpt lat="43.7447667" lon="11.2040567"><ele>112.0</ele><time>2026-04-18T08:52:32.282Z</time></trkpt><trkpt lat="43.7448767" lon="11.204095"><ele>112.0</ele><time>2026-04-18T08:52:33.281Z</time></trkpt><trkpt lat="43.7449767" lon="11.20412"><ele>111.99999999999999</ele><time>2026-04-18T08:52:34.281Z</time></trkpt><trkpt lat="43.7450733" lon="11.204125"><ele>111.99999999999999</ele><time>2026-04-18T08:52:35.28Z</time></trkpt><trkpt lat="43.7451667" lon="11.204095"><ele>112.0</ele><time>2026-04-18T08:52:36.281Z</time></trkpt><trkpt lat="43.74526" lon="11.2040267"><ele>112.0</ele><time>2026-04-18T08:52:37.28Z</time></trkpt><trkpt lat="43.7453583" lon="11.203955"><ele>107.75</ele><time>2026-04-18T08:52:38.282Z</time></trkpt><trkpt lat="43.74546" lon="11.2038783"><ele>103.5</ele><time>2026-04-18T08:52:39.279Z</time></trkpt><trkpt lat="43.745565" lon="11.203805"><ele>99.25</ele><time>2026-04-18T08:52:40.28Z</time></trkpt><trkpt lat="43.7456683" lon="11.2037367"><ele>95.0</ele><time>2026-04-18T08:52:41.28Z</time></trkpt><trkpt lat="43.745765" lon="11.2036733"><ele>95.0</ele><time>2026-04-18T08:52:42.28Z</time></trkpt><trkpt lat="43.745855" lon="11.2036217"><ele>95.0</ele><time>2026-04-18T08:52:43.28Z</time></trkpt><trkpt lat="43.7459417" lon="11.2035633"><ele>95.0</ele><time>2026-04-18T08:52:44.281Z</time></trkpt><trkpt lat="43.7460267" lon="11.203515"><ele>95.0</ele><time>2026-04-18T08:52:45.281Z</time></trkpt><trkpt lat="43.7461117" lon="11.2034683"><ele>95.0</ele><time>2026-04-18T08:52:46.279Z</time></trkpt><trkpt lat="43.746195" lon="11.20342"><ele>93.4</ele><time>2026-04-18T08:52:47.281Z</time></trkpt><trkpt lat="43.746285" lon="11.20337"><ele>91.8</ele><time>2026-04-18T08:52:48.282Z</time></trkpt><trkpt lat="43.7463783" lon="11.2033267"><ele>90.19999999999999</ele><time>2026-04-18T08:52:49.28Z</time></trkpt><trkpt lat="43.7464733" lon="11.2032783"><ele>88.6</ele><time>2026-04-18T08:52:50.282Z</time></trkpt><trkpt lat="43.74657" lon="11.2032233"><ele>87.0</ele><time>2026-04-18T08:52:51.28Z</time></trkpt><trkpt lat="43.7466683" lon="11.2031617"><ele>85.8</ele><time>2026-04-18T08:52:52.28Z</time></trkpt><trkpt lat="43.7467633" lon="11.2030867"><ele>84.6</ele><time>2026-04-18T08:52:53.281Z</time></trkpt><trkpt lat="43.746855" lon="11.2030083"><ele>83.39999999999999</ele><time>2026-04-18T08:52:54.279Z</time></trkpt><trkpt lat="43.7469417" lon="11.20292"><ele>82.19999999999999</ele><time>2026-04-18T08:52:55.283Z</time></trkpt><trkpt lat="43.7470283" lon="11.2028233"><ele>81.0</ele><time>2026-04-18T08:52:56.281Z</time></trkpt><trkpt lat="43.7471133" lon="11.2027217"><ele>79.8</ele><time>2026-04-18T08:52:57.28Z</time></trkpt><trkpt lat="43.747195" lon="11.2026167"><ele>78.6</ele><time>2026-04-18T08:52:58.281Z</time></trkpt><trkpt lat="43.7472617" lon="11.202495"><ele>77.4</ele><time>2026-04-18T08:52:59.281Z</time></trkpt><trkpt lat="43.747315" lon="11.2023733"><ele>76.2</ele><time>2026-04-18T08:53:00.281Z</time></trkpt><trkpt lat="43.7473633" lon="11.20224"><ele>75.0</ele><time>2026-04-18T08:53:01.281Z</time></trkpt><trkpt lat="43.7474067" lon="11.2021033"><ele>73.6</ele><time>2026-04-18T08:53:02.28Z</time></trkpt><trkpt lat="43.747445" lon="11.2019683"><ele>72.2</ele><time>2026-04-18T08:53:03.28Z</time></trkpt><trkpt lat="43.74748" lon="11.2018217"><ele>70.8</ele><time>2026-04-18T08:53:04.281Z</time></trkpt><trkpt lat="43.74751" lon="11.2016717"><ele>69.4</ele><time>2026-04-18T08:53:05.281Z</time></trkpt><trkpt lat="43.7475383" lon="11.2015233"><ele>68.0</ele><time>2026-04-18T08:53:06.279Z</time></trkpt><trkpt lat="43.74756" lon="11.201375"><ele>67.2</ele><time>2026-04-18T08:53:07.28Z</time></trkpt><trkpt lat="43.7475817" lon="11.2012333"><ele>66.4</ele><time>2026-04-18T08:53:08.28Z</time></trkpt><trkpt lat="43.747615" lon="11.20111"><ele>65.60000000000001</ele><time>2026-04-18T08:53:09.279Z</time></trkpt><trkpt lat="43.7476717" lon="11.20101"><ele>64.8</ele><time>2026-04-18T08:53:10.281Z</time></trkpt><trkpt lat="43.7477583" lon="11.2009433"><ele>64.0</ele><time>2026-04-18T08:53:11.281Z</time></trkpt><trkpt lat="43.7478617" lon="11.2008983"><ele>62.5</ele><time>2026-04-18T08:53:12.28Z</time></trkpt><trkpt lat="43.747975" lon="11.2008567"><ele>61.0</ele><time>2026-04-18T08:53:13.28Z</time></trkpt><trkpt lat="43.7480967" lon="11.2008183"><ele>59.5</ele><time>2026-04-18T08:53:14.28Z</time></trkpt><trkpt lat="43.7482183" lon="11.20077"><ele>58.0</ele><time>2026-04-18T08:53:15.279Z</time></trkpt><trkpt lat="43.748345" lon="11.200725"><ele>58.0</ele><time>2026-04-18T08:53:16.279Z</time></trkpt><trkpt lat="43.748475" lon="11.2006817"><ele>58.0</ele><time>2026-04-18T08:53:17.281Z</time></trkpt><trkpt lat="43.7486017" lon="11.2006433"><ele>58.0</ele><time>2026-04-18T08:53:18.281Z</time></trkpt><trkpt lat="43.7487167" lon="11.2006133"><ele>58.0</ele><time>2026-04-18T08:53:19.28Z</time></trkpt><trkpt lat="43.7488167" lon="11.2005667"><ele>57.0</ele><time>2026-04-18T08:53:20.281Z</time></trkpt><trkpt lat="43.7489167" lon="11.2004917"><ele>56.0</ele><time>2026-04-18T08:53:21.28Z</time></trkpt><trkpt lat="43.7490167" lon="11.2004017"><ele>55.0</ele><time>2026-04-18T08:53:22.281Z</time></trkpt><trkpt lat="43.74912" lon="11.2003033"><ele>54.0</ele><time>2026-04-18T08:53:23.281Z</time></trkpt><trkpt lat="43.7492367" lon="11.200195"><ele>54.0</ele><time>2026-04-18T08:53:24.282Z</time></trkpt><trkpt lat="43.7493467" lon="11.2001017"><ele>54.0</ele><time>2026-04-18T08:53:25.282Z</time></trkpt><trkpt lat="43.74945" lon="11.2000217"><ele>54.0</ele><time>2026-04-18T08:53:26.281Z</time></trkpt><trkpt lat="43.74956" lon="11.1999533"><ele>54.0</ele><time>2026-04-18T08:53:27.282Z</time></trkpt><trkpt lat="43.7496617" lon="11.1998933"><ele>54.2</ele><time>2026-04-18T08:53:28.28Z</time></trkpt><trkpt lat="43.749755" lon="11.1998317"><ele>54.400000000000006</ele><time>2026-04-18T08:53:29.28Z</time></trkpt><trkpt lat="43.749835" lon="11.19977"><ele>54.6</ele><time>2026-04-18T08:53:30.282Z</time></trkpt><trkpt lat="43.7499067" lon="11.199695"><ele>54.8</ele><time>2026-04-18T08:53:31.282Z</time></trkpt><trkpt lat="43.7499667" lon="11.1996"><ele>55.0</ele><time>2026-04-18T08:53:32.281Z</time></trkpt><trkpt lat="43.7500167" lon="11.1994867"><ele>55.0</ele><time>2026-04-18T08:53:33.28Z</time></trkpt><trkpt lat="43.750075" lon="11.1993717"><ele>55.0</ele><time>2026-04-18T08:53:34.279Z</time></trkpt><trkpt lat="43.750145" lon="11.1992567"><ele>55.0</ele><time>2026-04-18T08:53:35.283Z</time></trkpt><trkpt lat="43.750225" lon="11.1991433"><ele>55.0</ele><time>2026-04-18T08:53:36.282Z</time></trkpt><trkpt lat="43.7503083" lon="11.1990317"><ele>55.0</ele><time>2026-04-18T08:53:37.28Z</time></trkpt><trkpt lat="43.7503917" lon="11.19892"><ele>55.0</ele><time>2026-04-18T08:53:38.283Z</time></trkpt><trkpt lat="43.7504683" lon="11.19882"><ele>55.0</ele><time>2026-04-18T08:53:39.281Z</time></trkpt><trkpt lat="43.750535" lon="11.198725"><ele>55.0</ele><time>2026-04-18T08:53:40.28Z</time></trkpt><trkpt lat="43.7506" lon="11.1986283"><ele>55.0</ele><time>2026-04-18T08:53:41.281Z</time></trkpt><trkpt lat="43.750655" lon="11.1985167"><ele>55.0</ele><time>2026-04-18T08:53:42.28Z</time></trkpt><trkpt lat="43.7507" lon="11.1983967"><ele>55.0</ele><time>2026-04-18T08:53:43.281Z</time></trkpt><trkpt lat="43.7507467" lon="11.1982783"><ele>55.0</ele><time>2026-04-18T08:53:44.281Z</time></trkpt><trkpt lat="43.7508017" lon="11.1981717"><ele>55.0</ele><time>2026-04-18T08:53:45.281Z</time></trkpt><trkpt lat="43.75086" lon="11.1980817"><ele>55.0</ele><time>2026-04-18T08:53:46.28Z</time></trkpt><trkpt lat="43.75093" lon="11.1979917"><ele>55.0</ele><time>2026-04-18T08:53:47.284Z</time></trkpt><trkpt lat="43.7509933" lon="11.1979133"><ele>53.4</ele><time>2026-04-18T08:53:48.28Z</time></trkpt><trkpt lat="43.7510633" lon="11.1978267"><ele>51.8</ele><time>2026-04-18T08:53:49.281Z</time></trkpt><trkpt lat="43.7511333" lon="11.1977433"><ele>50.2</ele><time>2026-04-18T08:53:50.282Z</time></trkpt><trkpt lat="43.7512017" lon="11.197655"><ele>48.6</ele><time>2026-04-18T08:53:51.281Z</time></trkpt><trkpt lat="43.7512733" lon="11.197555"><ele>47.0</ele><time>2026-04-18T08:53:52.28Z</time></trkpt><trkpt lat="43.7513383" lon="11.197445"><ele>47.0</ele><time>2026-04-18T08:53:53.28Z</time></trkpt><trkpt lat="43.7513983" lon="11.1973383"><ele>47.0</ele><time>2026-04-18T08:53:54.282Z</time></trkpt><trkpt lat="43.7514567" lon="11.1972483"><ele>47.0</ele><time>2026-04-18T08:53:55.28Z</time></trkpt><trkpt lat="43.751525" lon="11.1971733"><ele>47.0</ele><time>2026-04-18T08:53:56.28Z</time></trkpt><trkpt lat="43.751605" lon="11.197125"><ele>47.0</ele><time>2026-04-18T08:53:57.281Z</time></trkpt><trkpt lat="43.75168" lon="11.1970883"><ele>47.0</ele><time>2026-04-18T08:53:58.28Z</time></trkpt><trkpt lat="43.7517467" lon="11.197045"><ele>47.33333333333333</ele><time>2026-04-18T08:53:59.281Z</time></trkpt><trkpt lat="43.7518017" lon="11.1969983"><ele>47.666666666666664</ele><time>2026-04-18T08:54:00.281Z</time></trkpt><trkpt lat="43.75183" lon="11.1968467"><ele>48.0</ele><time>2026-04-18T08:54:02.281Z</time></trkpt><trkpt lat="43.75183" lon="11.19675"><ele>48.33333333333333</ele><time>2026-04-18T08:54:03.281Z</time></trkpt><trkpt lat="43.75182" lon="11.196635"><ele>48.666666666666664</ele><time>2026-04-18T08:54:04.281Z</time></trkpt><trkpt lat="43.7518133" lon="11.1964967"><ele>49.0</ele><time>2026-04-18T08:54:05.281Z</time></trkpt><trkpt lat="43.7518033" lon="11.1963417"><ele>49.25</ele><time>2026-04-18T08:54:06.28Z</time></trkpt><trkpt lat="43.7517917" lon="11.1961833"><ele>49.5</ele><time>2026-04-18T08:54:07.28Z</time></trkpt><trkpt lat="43.7517833" lon="11.1960283"><ele>49.75</ele><time>2026-04-18T08:54:08.282Z</time></trkpt><trkpt lat="43.7517717" lon="11.1958667"><ele>50.0</ele><time>2026-04-18T08:54:09.282Z</time></trkpt><trkpt lat="43.7517617" lon="11.1957033"><ele>50.0</ele><time>2026-04-18T08:54:10.28Z</time></trkpt><trkpt lat="43.75176" lon="11.19554"><ele>50.0</ele><time>2026-04-18T08:54:11.281Z</time></trkpt><trkpt lat="43.7517683" lon="11.1953783"><ele>50.0</ele><time>2026-04-18T08:54:12.281Z</time></trkpt><trkpt lat="43.7517867" lon="11.195225"><ele>50.0</ele><time>2026-04-18T08:54:13.281Z</time></trkpt><trkpt lat="43.75182" lon="11.1950783"><ele>50.0</ele><time>2026-04-18T08:54:14.281Z</time></trkpt><trkpt lat="43.7518617" lon="11.1949367"><ele>50.0</ele><time>2026-04-18T08:54:15.282Z</time></trkpt><trkpt lat="43.751905" lon="11.1948033"><ele>50.0</ele><time>2026-04-18T08:54:16.281Z</time></trkpt><trkpt lat="43.751945" lon="11.1946717"><ele>50.0</ele><time>2026-04-18T08:54:17.282Z</time></trkpt><trkpt lat="43.75201" lon="11.1945433"><ele>50.0</ele><time>2026-04-18T08:54:18.28Z</time></trkpt><trkpt lat="43.7520833" lon="11.194415"><ele>48.75</ele><time>2026-04-18T08:54:19.28Z</time></trkpt><trkpt lat="43.75216" lon="11.1942933"><ele>47.5</ele><time>2026-04-18T08:54:20.282Z</time></trkpt><trkpt lat="43.7522467" lon="11.194175"><ele>46.25</ele><time>2026-04-18T08:54:21.28Z</time></trkpt><trkpt lat="43.7523333" lon="11.1940567"><ele>45.0</ele><time>2026-04-18T08:54:22.28Z</time></trkpt><trkpt lat="43.7524133" lon="11.1939333"><ele>45.0</ele><time>2026-04-18T08:54:23.281Z</time></trkpt><trkpt lat="43.752495" lon="11.1938133"><ele>45.0</ele><time>2026-04-18T08:54:24.28Z</time></trkpt><trkpt lat="43.7525717" lon="11.1936983"><ele>45.0</ele><time>2026-04-18T08:54:25.282Z</time></trkpt><trkpt lat="43.7526517" lon="11.1935917"><ele>45.0</ele><time>2026-04-18T08:54:26.282Z</time></trkpt><trkpt lat="43.7527283" lon="11.1934833"><ele>44.8</ele><time>2026-04-18T08:54:27.28Z</time></trkpt><trkpt lat="43.7528083" lon="11.19338"><ele>44.6</ele><time>2026-04-18T08:54:28.281Z</time></trkpt><trkpt lat="43.7528917" lon="11.1932883"><ele>44.400000000000006</ele><time>2026-04-18T08:54:29.282Z</time></trkpt><trkpt lat="43.752975" lon="11.1932"><ele>44.2</ele><time>2026-04-18T08:54:30.281Z</time></trkpt><trkpt lat="43.7530617" lon="11.1931217"><ele>44.0</ele><time>2026-04-18T08:54:31.28Z</time></trkpt><trkpt lat="43.7531467" lon="11.1930517"><ele>44.33333333333333</ele><time>2026-04-18T08:54:32.281Z</time></trkpt><trkpt lat="43.7532233" lon="11.192995"><ele>44.666666666666664</ele><time>2026-04-18T08:54:33.281Z</time></trkpt><trkpt lat="43.75329" lon="11.19294"><ele>45.0</ele><time>2026-04-18T08:54:34.279Z</time></trkpt><trkpt lat="43.753345" lon="11.19289"><ele>45.333333333333336</ele><time>2026-04-18T08:54:35.28Z</time></trkpt><trkpt lat="43.7534233" lon="11.1928183"><ele>45.66666666666667</ele><time>2026-04-18T08:54:37.28Z</time></trkpt><trkpt lat="43.7535017" lon="11.1927533"><ele>46.0</ele><time>2026-04-18T08:54:39.281Z</time></trkpt><trkpt lat="43.753615" lon="11.192665"><ele>46.333333333333336</ele><time>2026-04-18T08:54:41.283Z</time></trkpt><trkpt lat="43.75368" lon="11.19262"><ele>46.66666666666667</ele><time>2026-04-18T08:54:42.281Z</time></trkpt><trkpt lat="43.7537483" lon="11.192575"><ele>47.0</ele><time>2026-04-18T08:54:43.281Z</time></trkpt><trkpt lat="43.7538183" lon="11.1925267"><ele>47.333333333333336</ele><time>2026-04-18T08:54:44.282Z</time></trkpt><trkpt lat="43.75389" lon="11.192485"><ele>47.666666666666664</ele><time>2026-04-18T08:54:45.28Z</time></trkpt><trkpt lat="43.7539633" lon="11.19245"><ele>48.0</ele><time>2026-04-18T08:54:46.281Z</time></trkpt><trkpt lat="43.7540317" lon="11.1924083"><ele>48.0</ele><time>2026-04-18T08:54:47.283Z</time></trkpt><trkpt lat="43.75409" lon="11.192375"><ele>48.0</ele><time>2026-04-18T08:54:48.28Z</time></trkpt><trkpt lat="43.7541767" lon="11.19237"><ele>48.0</ele><time>2026-04-18T08:54:50.281Z</time></trkpt><trkpt lat="43.7542383" lon="11.1924583"><ele>48.0</ele><time>2026-04-18T08:54:52.282Z</time></trkpt><trkpt lat="43.7542933" lon="11.192605"><ele>48.0</ele><time>2026-04-18T08:54:54.283Z</time></trkpt><trkpt lat="43.7543283" lon="11.1926867"><ele>48.0</ele><time>2026-04-18T08:54:55.279Z</time></trkpt><trkpt lat="43.7543683" lon="11.1927817"><ele>47.599999999999994</ele><time>2026-04-18T08:54:56.283Z</time></trkpt><trkpt lat="43.754415" lon="11.19289"><ele>47.199999999999996</ele><time>2026-04-18T08:54:57.28Z</time></trkpt><trkpt lat="43.7544667" lon="11.193"><ele>46.8</ele><time>2026-04-18T08:54:58.281Z</time></trkpt><trkpt lat="43.7545283" lon="11.1931167"><ele>46.4</ele><time>2026-04-18T08:54:59.281Z</time></trkpt><trkpt lat="43.754595" lon="11.19323"><ele>46.0</ele><time>2026-04-18T08:55:00.283Z</time></trkpt><trkpt lat="43.7546633" lon="11.1933533"><ele>45.5</ele><time>2026-04-18T08:55:01.282Z</time></trkpt><trkpt lat="43.7547217" lon="11.1934867"><ele>45.0</ele><time>2026-04-18T08:55:02.28Z</time></trkpt><trkpt lat="43.754785" lon="11.19362"><ele>44.5</ele><time>2026-04-18T08:55:03.282Z</time></trkpt><trkpt lat="43.754845" lon="11.1937567"><ele>44.0</ele><time>2026-04-18T08:55:04.281Z</time></trkpt><trkpt lat="43.7549133" lon="11.1938917"><ele>44.25</ele><time>2026-04-18T08:55:05.28Z</time></trkpt><trkpt lat="43.754975" lon="11.194025"><ele>44.5</ele><time>2026-04-18T08:55:06.28Z</time></trkpt><trkpt lat="43.755045" lon="11.1941567"><ele>44.75</ele><time>2026-04-18T08:55:07.282Z</time></trkpt><trkpt lat="43.7551183" lon="11.1942867"><ele>45.0</ele><time>2026-04-18T08:55:08.282Z</time></trkpt><trkpt lat="43.7551967" lon="11.1944217"><ele>45.0</ele><time>2026-04-18T08:55:09.281Z</time></trkpt><trkpt lat="43.7552767" lon="11.19455"><ele>45.0</ele><time>2026-04-18T08:55:10.282Z</time></trkpt><trkpt lat="43.755355" lon="11.19468"><ele>45.0</ele><time>2026-04-18T08:55:11.282Z</time></trkpt><trkpt lat="43.7554183" lon="11.1948267"><ele>45.0</ele><time>2026-04-18T08:55:12.282Z</time></trkpt><trkpt lat="43.7554817" lon="11.1949783"><ele>45.0</ele><time>2026-04-18T08:55:13.281Z</time></trkpt><trkpt lat="43.7555483" lon="11.1951333"><ele>45.0</ele><time>2026-04-18T08:55:14.281Z</time></trkpt><trkpt lat="43.755615" lon="11.19529"><ele>45.0</ele><time>2026-04-18T08:55:15.283Z</time></trkpt><trkpt lat="43.7556833" lon="11.1954433"><ele>45.0</ele><time>2026-04-18T08:55:16.283Z</time></trkpt><trkpt lat="43.7557433" lon="11.1955967"><ele>45.0</ele><time>2026-04-18T08:55:17.283Z</time></trkpt><trkpt lat="43.7557933" lon="11.195745"><ele>45.0</ele><time>2026-04-18T08:55:18.282Z</time></trkpt><trkpt lat="43.75584" lon="11.1958867"><ele>45.0</ele><time>2026-04-18T08:55:19.282Z</time></trkpt><trkpt lat="43.75588" lon="11.1960333"><ele>45.0</ele><time>2026-04-18T08:55:20.281Z</time></trkpt><trkpt lat="43.75592" lon="11.1961733"><ele>45.0</ele><time>2026-04-18T08:55:21.282Z</time></trkpt><trkpt lat="43.755965" lon="11.1963083"><ele>45.0</ele><time>2026-04-18T08:55:22.283Z</time></trkpt><trkpt lat="43.7560033" lon="11.1964483"><ele>45.0</ele><time>2026-04-18T08:55:23.283Z</time></trkpt><trkpt lat="43.756045" lon="11.1965783"><ele>45.0</ele><time>2026-04-18T08:55:24.282Z</time></trkpt><trkpt lat="43.75609" lon="11.1967133"><ele>45.0</ele><time>2026-04-18T08:55:25.28Z</time></trkpt><trkpt lat="43.7561333" lon="11.1968433"><ele>45.0</ele><time>2026-04-18T08:55:26.281Z</time></trkpt><trkpt lat="43.7561733" lon="11.196975"><ele>45.0</ele><time>2026-04-18T08:55:27.283Z</time></trkpt><trkpt lat="43.756225" lon="11.1970883"><ele>45.0</ele><time>2026-04-18T08:55:28.282Z</time></trkpt><trkpt lat="43.756275" lon="11.1971933"><ele>45.0</ele><time>2026-04-18T08:55:29.281Z</time></trkpt><trkpt lat="43.756315" lon="11.1972933"><ele>45.0</ele><time>2026-04-18T08:55:30.281Z</time></trkpt><trkpt lat="43.75635" lon="11.1973783"><ele>45.0</ele><time>2026-04-18T08:55:31.284Z</time></trkpt><trkpt lat="43.7563833" lon="11.197455"><ele>45.8</ele><time>2026-04-18T08:55:32.284Z</time></trkpt><trkpt lat="43.7564467" lon="11.1975867"><ele>46.6</ele><time>2026-04-18T08:55:34.281Z</time></trkpt><trkpt lat="43.756515" lon="11.197695"><ele>47.400000000000006</ele><time>2026-04-18T08:55:36.282Z</time></trkpt><trkpt lat="43.75657" lon="11.19781"><ele>48.2</ele><time>2026-04-18T08:55:38.284Z</time></trkpt><trkpt lat="43.756635" lon="11.19793"><ele>49.0</ele><time>2026-04-18T08:55:40.284Z</time></trkpt><trkpt lat="43.7567083" lon="11.1980633"><ele>48.99999999999999</ele><time>2026-04-18T08:55:42.283Z</time></trkpt><trkpt lat="43.7567467" lon="11.1981417"><ele>49.0</ele><time>2026-04-18T08:55:43.284Z</time></trkpt><trkpt lat="43.756785" lon="11.1982183"><ele>49.0</ele><time>2026-04-18T08:55:44.284Z</time></trkpt><trkpt lat="43.7568217" lon="11.1982933"><ele>49.0</ele><time>2026-04-18T08:55:45.284Z</time></trkpt><trkpt lat="43.7568883" lon="11.1984317"><ele>48.99999999999999</ele><time>2026-04-18T08:55:47.282Z</time></trkpt><trkpt lat="43.7569517" lon="11.1985633"><ele>49.0</ele><time>2026-04-18T08:55:49.281Z</time></trkpt><trkpt lat="43.7570183" lon="11.1987033"><ele>48.83333333333333</ele><time>2026-04-18T08:55:51.281Z</time></trkpt><trkpt lat="43.7570533" lon="11.1987833"><ele>48.666666666666664</ele><time>2026-04-18T08:55:52.282Z</time></trkpt><trkpt lat="43.7570967" lon="11.1988667"><ele>48.5</ele><time>2026-04-18T08:55:53.28Z</time></trkpt><trkpt lat="43.7571383" lon="11.1989533"><ele>48.33333333333333</ele><time>2026-04-18T08:55:54.28Z</time></trkpt><trkpt lat="43.7571767" lon="11.1990483"><ele>48.166666666666664</ele><time>2026-04-18T08:55:55.281Z</time></trkpt><trkpt lat="43.7572133" lon="11.19915"><ele>48.0</ele><time>2026-04-18T08:55:56.28Z</time></trkpt><trkpt lat="43.7572567" lon="11.199255"><ele>47.833333333333336</ele><time>2026-04-18T08:55:57.278Z</time></trkpt><trkpt lat="43.7573067" lon="11.1993583"><ele>47.666666666666664</ele><time>2026-04-18T08:55:58.282Z</time></trkpt><trkpt lat="43.757355" lon="11.1994633"><ele>47.5</ele><time>2026-04-18T08:55:59.28Z</time></trkpt><trkpt lat="43.7574067" lon="11.1995633"><ele>47.33333333333333</ele><time>2026-04-18T08:56:00.283Z</time></trkpt><trkpt lat="43.75746" lon="11.19965"><ele>47.166666666666664</ele><time>2026-04-18T08:56:01.281Z</time></trkpt><trkpt lat="43.757505" lon="11.1997267"><ele>47.0</ele><time>2026-04-18T08:56:02.282Z</time></trkpt><trkpt lat="43.75756" lon="11.19983"><ele>46.83333333333333</ele><time>2026-04-18T08:56:04.281Z</time></trkpt><trkpt lat="43.7576117" lon="11.1999367"><ele>46.666666666666664</ele><time>2026-04-18T08:56:07.28Z</time></trkpt><trkpt lat="43.75766" lon="11.2000383"><ele>46.5</ele><time>2026-04-18T08:56:09.28Z</time></trkpt><trkpt lat="43.7577183" lon="11.20017"><ele>46.333333333333336</ele><time>2026-04-18T08:56:11.28Z</time></trkpt><trkpt lat="43.7577567" lon="11.200245"><ele>46.16666666666667</ele><time>2026-04-18T08:56:12.281Z</time></trkpt><trkpt lat="43.757795" lon="11.20033"><ele>46.0</ele><time>2026-04-18T08:56:13.279Z</time></trkpt><trkpt lat="43.7578333" lon="11.2004133"><ele>46.0</ele><time>2026-04-18T08:56:14.282Z</time></trkpt><trkpt lat="43.75787" lon="11.2005017"><ele>46.0</ele><time>2026-04-18T08:56:15.28Z</time></trkpt><trkpt lat="43.7579083" lon="11.2005933"><ele>46.0</ele><time>2026-04-18T08:56:16.281Z</time></trkpt><trkpt lat="43.7579467" lon="11.2006833"><ele>46.0</ele><time>2026-04-18T08:56:17.281Z</time></trkpt><trkpt lat="43.757985" lon="11.2007767"><ele>46.0</ele><time>2026-04-18T08:56:18.281Z</time></trkpt><trkpt lat="43.7580283" lon="11.2008683"><ele>46.0</ele><time>2026-04-18T08:56:19.282Z</time></trkpt><trkpt lat="43.7580667" lon="11.200965"><ele>46.16666666666667</ele><time>2026-04-18T08:56:20.281Z</time></trkpt><trkpt lat="43.7581083" lon="11.2010633"><ele>46.333333333333336</ele><time>2026-04-18T08:56:21.28Z</time></trkpt><trkpt lat="43.7581517" lon="11.20116"><ele>46.5</ele><time>2026-04-18T08:56:22.281Z</time></trkpt><trkpt lat="43.758195" lon="11.2012583"><ele>46.666666666666664</ele><time>2026-04-18T08:56:23.282Z</time></trkpt><trkpt lat="43.7582383" lon="11.201355"><ele>46.83333333333333</ele><time>2026-04-18T08:56:24.282Z</time></trkpt><trkpt lat="43.7582783" lon="11.2014517"><ele>47.0</ele><time>2026-04-18T08:56:25.282Z</time></trkpt><trkpt lat="43.7583233" lon="11.2015517"><ele>47.0</ele><time>2026-04-18T08:56:26.283Z</time></trkpt><trkpt lat="43.75837" lon="11.2016517"><ele>47.0</ele><time>2026-04-18T08:56:27.282Z</time></trkpt><trkpt lat="43.7584183" lon="11.2017517"><ele>47.0</ele><time>2026-04-18T08:56:28.281Z</time></trkpt><trkpt lat="43.75846" lon="11.201855"><ele>47.0</ele><time>2026-04-18T08:56:29.28Z</time></trkpt><trkpt lat="43.75851" lon="11.2019567"><ele>47.0</ele><time>2026-04-18T08:56:30.281Z</time></trkpt><trkpt lat="43.7585583" lon="11.2020583"><ele>47.0</ele><time>2026-04-18T08:56:31.281Z</time></trkpt><trkpt lat="43.7586017" lon="11.2021483"><ele>47.0</ele><time>2026-04-18T08:56:32.282Z</time></trkpt><trkpt lat="43.758645" lon="11.2022317"><ele>47.0</ele><time>2026-04-18T08:56:33.28Z</time></trkpt><trkpt lat="43.7586833" lon="11.2023133"><ele>47.0</ele><time>2026-04-18T08:56:34.28Z</time></trkpt><trkpt lat="43.7587183" lon="11.2023983"><ele>47.0</ele><time>2026-04-18T08:56:35.28Z</time></trkpt><trkpt lat="43.7587517" lon="11.2024767"><ele>47.0</ele><time>2026-04-18T08:56:36.279Z</time></trkpt><trkpt lat="43.7587967" lon="11.2026083"><ele>47.0</ele><time>2026-04-18T08:56:38.28Z</time></trkpt><trkpt lat="43.75884" lon="11.2027017"><ele>47.0</ele><time>2026-04-18T08:56:40.279Z</time></trkpt><trkpt lat="43.758875" lon="11.20279"><ele>47.0</ele><time>2026-04-18T08:56:43.282Z</time></trkpt><trkpt lat="43.7589183" lon="11.20291"><ele>47.0</ele><time>2026-04-18T08:56:46.28Z</time></trkpt><trkpt lat="43.7589467" lon="11.203035"><ele>47.0</ele><time>2026-04-18T08:56:48.282Z</time></trkpt><trkpt lat="43.7589717" lon="11.2031417"><ele>47.0</ele><time>2026-04-18T08:56:50.28Z</time></trkpt><trkpt lat="43.7590283" lon="11.20324"><ele>47.0</ele><time>2026-04-18T08:56:52.279Z</time></trkpt><trkpt lat="43.75908" lon="11.2033"><ele>47.0</ele><time>2026-04-18T08:56:53.281Z</time></trkpt><trkpt lat="43.7591417" lon="11.2033733"><ele>47.0</ele><time>2026-04-18T08:56:54.281Z</time></trkpt><trkpt lat="43.7592133" lon="11.2034617"><ele>47.0</ele><time>2026-04-18T08:56:55.28Z</time></trkpt><trkpt lat="43.7592817" lon="11.2035617"><ele>47.0</ele><time>2026-04-18T08:56:56.282Z</time></trkpt><trkpt lat="43.759355" lon="11.2036733"><ele>47.0</ele><time>2026-04-18T08:56:57.28Z</time></trkpt><trkpt lat="43.759435" lon="11.2038117"><ele>46.0</ele><time>2026-04-18T08:56:58.281Z</time></trkpt><trkpt lat="43.759525" lon="11.2039733"><ele>45.0</ele><time>2026-04-18T08:56:59.281Z</time></trkpt><trkpt lat="43.7596283" lon="11.2041583"><ele>44.0</ele><time>2026-04-18T08:57:00.28Z</time></trkpt><trkpt lat="43.75974" lon="11.2043467"><ele>44.0</ele><time>2026-04-18T08:57:01.282Z</time></trkpt><trkpt lat="43.7598533" lon="11.2045317"><ele>44.0</ele><time>2026-04-18T08:57:02.282Z</time></trkpt><trkpt lat="43.759965" lon="11.204705"><ele>44.0</ele><time>2026-04-18T08:57:03.282Z</time></trkpt><trkpt lat="43.7600817" lon="11.2048683"><ele>43.33333333333333</ele><time>2026-04-18T08:57:04.281Z</time></trkpt><trkpt lat="43.7602017" lon="11.2050217"><ele>42.666666666666664</ele><time>2026-04-18T08:57:05.282Z</time></trkpt><trkpt lat="43.760325" lon="11.2051733"><ele>42.0</ele><time>2026-04-18T08:57:06.281Z</time></trkpt><trkpt lat="43.7604517" lon="11.2053283"><ele>42.0</ele><time>2026-04-18T08:57:07.28Z</time></trkpt><trkpt lat="43.760575" lon="11.20549"><ele>42.0</ele><time>2026-04-18T08:57:08.28Z</time></trkpt><trkpt lat="43.7607" lon="11.20565"><ele>42.0</ele><time>2026-04-18T08:57:09.28Z</time></trkpt><trkpt lat="43.760825" lon="11.2058117"><ele>42.333333333333336</ele><time>2026-04-18T08:57:10.282Z</time></trkpt><trkpt lat="43.76095" lon="11.2059733"><ele>42.66666666666667</ele><time>2026-04-18T08:57:11.281Z</time></trkpt><trkpt lat="43.761065" lon="11.2061383"><ele>43.0</ele><time>2026-04-18T08:57:12.279Z</time></trkpt><trkpt lat="43.7611767" lon="11.206295"><ele>42.75</ele><time>2026-04-18T08:57:13.281Z</time></trkpt><trkpt lat="43.7612867" lon="11.2064367"><ele>42.5</ele><time>2026-04-18T08:57:14.281Z</time></trkpt><trkpt lat="43.7614067" lon="11.2065433"><ele>42.25</ele><time>2026-04-18T08:57:15.282Z</time></trkpt><trkpt lat="43.761525" lon="11.2066333"><ele>42.0</ele><time>2026-04-18T08:57:16.28Z</time></trkpt><trkpt lat="43.76165" lon="11.2067133"><ele>42.0</ele><time>2026-04-18T08:57:17.28Z</time></trkpt><trkpt lat="43.761775" lon="11.2067883"><ele>42.0</ele><time>2026-04-18T08:57:18.278Z</time></trkpt><trkpt lat="43.7618983" lon="11.2068633"><ele>42.0</ele><time>2026-04-18T08:57:19.281Z</time></trkpt><trkpt lat="43.7620117" lon="11.206945"><ele>42.0</ele><time>2026-04-18T08:57:20.281Z</time></trkpt><trkpt lat="43.7621233" lon="11.2070267"><ele>42.0</ele><time>2026-04-18T08:57:21.28Z</time></trkpt><trkpt lat="43.762235" lon="11.2071083"><ele>42.0</ele><time>2026-04-18T08:57:22.281Z</time></trkpt><trkpt lat="43.76235" lon="11.2071917"><ele>42.0</ele><time>2026-04-18T08:57:23.279Z</time></trkpt><trkpt lat="43.76247" lon="11.207275"><ele>42.0</ele><time>2026-04-18T08:57:24.279Z</time></trkpt><trkpt lat="43.7625933" lon="11.2073683"><ele>42.333333333333336</ele><time>2026-04-18T08:57:25.281Z</time></trkpt><trkpt lat="43.7627167" lon="11.2074683"><ele>42.66666666666667</ele><time>2026-04-18T08:57:26.281Z</time></trkpt><trkpt lat="43.7628567" lon="11.20757"><ele>43.0</ele><time>2026-04-18T08:57:27.282Z</time></trkpt><trkpt lat="43.763" lon="11.2076683"><ele>43.0</ele><time>2026-04-18T08:57:28.278Z</time></trkpt><trkpt lat="43.7631417" lon="11.2077683"><ele>43.0</ele><time>2026-04-18T08:57:29.28Z</time></trkpt><trkpt lat="43.7632633" lon="11.2078817"><ele>43.0</ele><time>2026-04-18T08:57:30.282Z</time></trkpt><trkpt lat="43.76338" lon="11.2079933"><ele>43.0</ele><time>2026-04-18T08:57:31.281Z</time></trkpt><trkpt lat="43.7634867" lon="11.2081083"><ele>42.25</ele><time>2026-04-18T08:57:32.281Z</time></trkpt><trkpt lat="43.76359" lon="11.208225"><ele>41.5</ele><time>2026-04-18T08:57:33.28Z</time></trkpt><trkpt lat="43.763685" lon="11.2083517"><ele>40.75</ele><time>2026-04-18T08:57:34.281Z</time></trkpt><trkpt lat="43.763785" lon="11.20848"><ele>40.0</ele><time>2026-04-18T08:57:35.282Z</time></trkpt><trkpt lat="43.7638767" lon="11.2086"><ele>40.0</ele><time>2026-04-18T08:57:36.28Z</time></trkpt><trkpt lat="43.76396" lon="11.2087167"><ele>40.0</ele><time>2026-04-18T08:57:37.282Z</time></trkpt><trkpt lat="43.764035" lon="11.2088233"><ele>40.0</ele><time>2026-04-18T08:57:38.282Z</time></trkpt><trkpt lat="43.7641" lon="11.208925"><ele>40.0</ele><time>2026-04-18T08:57:39.281Z</time></trkpt><trkpt lat="43.764155" lon="11.209015"><ele>40.0</ele><time>2026-04-18T08:57:40.282Z</time></trkpt><trkpt lat="43.764195" lon="11.2090917"><ele>40.4</ele><time>2026-04-18T08:57:41.279Z</time></trkpt><trkpt lat="43.7642617" lon="11.2092083"><ele>40.8</ele><time>2026-04-18T08:57:43.282Z</time></trkpt><trkpt lat="43.7643167" lon="11.2093067"><ele>41.2</ele><time>2026-04-18T08:57:45.281Z</time></trkpt><trkpt lat="43.7643817" lon="11.2094233"><ele>41.6</ele><time>2026-04-18T08:57:47.28Z</time></trkpt><trkpt lat="43.7644517" lon="11.2095617"><ele>42.0</ele><time>2026-04-18T08:57:49.281Z</time></trkpt><trkpt lat="43.7645117" lon="11.2096917"><ele>42.0</ele><time>2026-04-18T08:57:51.281Z</time></trkpt><trkpt lat="43.7645883" lon="11.2098233"><ele>42.0</ele><time>2026-04-18T08:57:53.281Z</time></trkpt><trkpt lat="43.7646317" lon="11.20989"><ele>42.0</ele><time>2026-04-18T08:57:54.282Z</time></trkpt><trkpt lat="43.7646733" lon="11.2099583"><ele>42.0</ele><time>2026-04-18T08:57:55.281Z</time></trkpt><trkpt lat="43.7647483" lon="11.2100867"><ele>42.0</ele><time>2026-04-18T08:57:57.282Z</time></trkpt><trkpt lat="43.7648233" lon="11.21019"><ele>42.2</ele><time>2026-04-18T08:57:59.282Z</time></trkpt><trkpt lat="43.7649167" lon="11.2102133"><ele>42.400000000000006</ele><time>2026-04-18T08:58:01.28Z</time></trkpt><trkpt lat="43.76504" lon="11.2101267"><ele>42.599999999999994</ele><time>2026-04-18T08:58:03.281Z</time></trkpt><trkpt lat="43.7651033" lon="11.2100533"><ele>42.8</ele><time>2026-04-18T08:58:04.281Z</time></trkpt><trkpt lat="43.7651717" lon="11.209975"><ele>43.0</ele><time>2026-04-18T08:58:05.281Z</time></trkpt><trkpt lat="43.7652433" lon="11.2099033"><ele>42.8</ele><time>2026-04-18T08:58:06.28Z</time></trkpt><trkpt lat="43.7653117" lon="11.2098167"><ele>42.599999999999994</ele><time>2026-04-18T08:58:07.28Z</time></trkpt><trkpt lat="43.7653817" lon="11.2097233"><ele>42.400000000000006</ele><time>2026-04-18T08:58:08.28Z</time></trkpt><trkpt lat="43.7654433" lon="11.2096167"><ele>42.2</ele><time>2026-04-18T08:58:09.281Z</time></trkpt><trkpt lat="43.7655083" lon="11.209515"><ele>42.0</ele><time>2026-04-18T08:58:10.281Z</time></trkpt><trkpt lat="43.7655767" lon="11.20941"><ele>42.0</ele><time>2026-04-18T08:58:11.281Z</time></trkpt><trkpt lat="43.7656517" lon="11.2093117"><ele>42.0</ele><time>2026-04-18T08:58:12.282Z</time></trkpt><trkpt lat="43.7657333" lon="11.2092267"><ele>42.0</ele><time>2026-04-18T08:58:13.281Z</time></trkpt><trkpt lat="43.7658183" lon="11.2091517"><ele>42.0</ele><time>2026-04-18T08:58:14.282Z</time></trkpt><trkpt lat="43.76591" lon="11.20908"><ele>42.0</ele><time>2026-04-18T08:58:15.28Z</time></trkpt><trkpt lat="43.7660033" lon="11.2090217"><ele>41.833333333333336</ele><time>2026-04-18T08:58:16.28Z</time></trkpt><trkpt lat="43.7660967" lon="11.20897"><ele>41.666666666666664</ele><time>2026-04-18T08:58:17.28Z</time></trkpt><trkpt lat="43.76619" lon="11.208925"><ele>41.5</ele><time>2026-04-18T08:58:18.28Z</time></trkpt><trkpt lat="43.7662783" lon="11.2088817"><ele>41.33333333333333</ele><time>2026-04-18T08:58:19.281Z</time></trkpt><trkpt lat="43.7663567" lon="11.2088333"><ele>41.166666666666664</ele><time>2026-04-18T08:58:20.281Z</time></trkpt><trkpt lat="43.7664233" lon="11.2088017"><ele>41.0</ele><time>2026-04-18T08:58:21.28Z</time></trkpt><trkpt lat="43.766505" lon="11.20874"><ele>41.0</ele><time>2026-04-18T08:58:23.28Z</time></trkpt><trkpt lat="43.76659" lon="11.2086883"><ele>41.0</ele><time>2026-04-18T08:58:30.282Z</time></trkpt><trkpt lat="43.766655" lon="11.2086567"><ele>41.0</ele><time>2026-04-18T08:58:32.281Z</time></trkpt><trkpt lat="43.76673" lon="11.2086367"><ele>41.0</ele><time>2026-04-18T08:58:34.28Z</time></trkpt><trkpt lat="43.7667917" lon="11.208675"><ele>41.0</ele><time>2026-04-18T08:58:35.28Z</time></trkpt><trkpt lat="43.7668717" lon="11.2087417"><ele>41.0</ele><time>2026-04-18T08:58:36.281Z</time></trkpt><trkpt lat="43.7669567" lon="11.20883"><ele>41.25</ele><time>2026-04-18T08:58:37.28Z</time></trkpt><trkpt lat="43.767065" lon="11.2089617"><ele>41.5</ele><time>2026-04-18T08:58:38.28Z</time></trkpt><trkpt lat="43.7671567" lon="11.209095"><ele>41.75</ele><time>2026-04-18T08:58:39.28Z</time></trkpt><trkpt lat="43.7672367" lon="11.209215"><ele>42.0</ele><time>2026-04-18T08:58:40.281Z</time></trkpt><trkpt lat="43.7673117" lon="11.2093167"><ele>42.0</ele><time>2026-04-18T08:58:41.281Z</time></trkpt><trkpt lat="43.767385" lon="11.2093933"><ele>42.0</ele><time>2026-04-18T08:58:42.28Z</time></trkpt><trkpt lat="43.7674483" lon="11.209445"><ele>42.0</ele><time>2026-04-18T08:58:43.281Z</time></trkpt><trkpt lat="43.7675117" lon="11.2094783"><ele>42.0</ele><time>2026-04-18T08:58:44.279Z</time></trkpt><trkpt lat="43.7676033" lon="11.209505"><ele>42.0</ele><time>2026-04-18T08:58:46.28Z</time></trkpt><trkpt lat="43.7673417" lon="11.2094817"><ele>42.0</ele><time>2026-04-18T08:58:58.636Z</time></trkpt><trkpt lat="43.7675017" lon="11.20954"><ele>42.0</ele><time>2026-04-18T08:59:02.284Z</time></trkpt><trkpt lat="43.7675633" lon="11.2094983"><ele>42.0</ele><time>2026-04-18T08:59:10.279Z</time></trkpt><trkpt lat="43.7676483" lon="11.2094817"><ele>42.0</ele><time>2026-04-18T08:59:47.281Z</time></trkpt><trkpt lat="43.7676817" lon="11.209385"><ele>42.0</ele><time>2026-04-18T08:59:49.282Z</time></trkpt><trkpt lat="43.7676617" lon="11.20929"><ele>42.0</ele><time>2026-04-18T08:59:50.281Z</time></trkpt><trkpt lat="43.7676283" lon="11.20917"><ele>42.0</ele><time>2026-04-18T08:59:51.283Z</time></trkpt><trkpt lat="43.767585" lon="11.209065"><ele>42.0</ele><time>2026-04-18T08:59:52.279Z</time></trkpt><trkpt lat="43.767485" lon="11.2089767"><ele>42.0</ele><time>2026-04-18T08:59:53.281Z</time></trkpt><trkpt lat="43.7673633" lon="11.2089067"><ele>42.0</ele><time>2026-04-18T08:59:54.282Z</time></trkpt><trkpt lat="43.7672217" lon="11.2088283"><ele>42.0</ele><time>2026-04-18T08:59:55.28Z</time></trkpt><trkpt lat="43.7670767" lon="11.2087233"><ele>42.0</ele><time>2026-04-18T08:59:56.279Z</time></trkpt><trkpt lat="43.7669367" lon="11.2085867"><ele>42.0</ele><time>2026-04-18T08:59:57.279Z</time></trkpt><trkpt lat="43.76681" lon="11.2084333"><ele>42.0</ele><time>2026-04-18T08:59:58.281Z</time></trkpt><trkpt lat="43.7666833" lon="11.2082767"><ele>42.0</ele><time>2026-04-18T08:59:59.279Z</time></trkpt><trkpt lat="43.7665617" lon="11.2081267"><ele>42.0</ele><time>2026-04-18T09:00:00.279Z</time></trkpt><trkpt lat="43.7664433" lon="11.2079867"><ele>42.0</ele><time>2026-04-18T09:00:01.279Z</time></trkpt><trkpt lat="43.7663333" lon="11.2078483"><ele>42.0</ele><time>2026-04-18T09:00:02.28Z</time></trkpt><trkpt lat="43.76623" lon="11.2077183"><ele>42.0</ele><time>2026-04-18T09:00:03.281Z</time></trkpt><trkpt lat="43.766145" lon="11.2075917"><ele>42.0</ele><time>2026-04-18T09:00:04.28Z</time></trkpt><trkpt lat="43.7660883" lon="11.2074717"><ele>42.0</ele><time>2026-04-18T09:00:05.281Z</time></trkpt><trkpt lat="43.7660433" lon="11.2073583"><ele>42.0</ele><time>2026-04-18T09:00:06.282Z</time></trkpt><trkpt lat="43.7660083" lon="11.2072483"><ele>42.0</ele><time>2026-04-18T09:00:07.281Z</time></trkpt><trkpt lat="43.765975" lon="11.207155"><ele>42.0</ele><time>2026-04-18T09:00:08.281Z</time></trkpt><trkpt lat="43.7659283" lon="11.20703"><ele>42.0</ele><time>2026-04-18T09:00:10.281Z</time></trkpt><trkpt lat="43.765885" lon="11.20694"><ele>42.0</ele><time>2026-04-18T09:00:12.281Z</time></trkpt><trkpt lat="43.7657159" lon="11.2067011"><ele>41.666666666666664</ele><time>2026-04-18T09:03:09.28Z</time></trkpt><trkpt lat="43.765668" lon="11.2066399"><ele>41.333333333333336</ele><time>2026-04-18T09:03:10.28Z</time></trkpt><trkpt lat="43.765567" lon="11.2065494"><ele>41.0</ele><time>2026-04-18T09:03:12.28Z</time></trkpt><trkpt lat="43.7655058" lon="11.2064879"><ele>40.66666666666667</ele><time>2026-04-18T09:03:13.28Z</time></trkpt><trkpt lat="43.7654418" lon="11.2064089"><ele>40.333333333333336</ele><time>2026-04-18T09:03:14.28Z</time></trkpt><trkpt lat="43.7653843" lon="11.2063051"><ele>40.0</ele><time>2026-04-18T09:03:15.281Z</time></trkpt><trkpt lat="43.7653307" lon="11.206186"><ele>40.0</ele><time>2026-04-18T09:03:16.28Z</time></trkpt><trkpt lat="43.7652759" lon="11.2060508"><ele>40.0</ele><time>2026-04-18T09:03:17.28Z</time></trkpt><trkpt lat="43.7652223" lon="11.2059023"><ele>40.0</ele><time>2026-04-18T09:03:18.282Z</time></trkpt><trkpt lat="43.7651753" lon="11.2057383"><ele>40.0</ele><time>2026-04-18T09:03:19.281Z</time></trkpt><trkpt lat="43.7651311" lon="11.2055751"><ele>40.0</ele><time>2026-04-18T09:03:20.281Z</time></trkpt><trkpt lat="43.7650939" lon="11.205405"><ele>40.0</ele><time>2026-04-18T09:03:21.28Z</time></trkpt><trkpt lat="43.7650624" lon="11.2052217"><ele>40.0</ele><time>2026-04-18T09:03:22.28Z</time></trkpt><trkpt lat="43.7650314" lon="11.2050335"><ele>40.0</ele><time>2026-04-18T09:03:23.281Z</time></trkpt><trkpt lat="43.7650041" lon="11.2048375"><ele>40.5</ele><time>2026-04-18T09:03:24.28Z</time></trkpt><trkpt lat="43.7649774" lon="11.2046374"><ele>41.0</ele><time>2026-04-18T09:03:25.28Z</time></trkpt><trkpt lat="43.7649475" lon="11.2044415"><ele>41.5</ele><time>2026-04-18T09:03:26.28Z</time></trkpt><trkpt lat="43.7649164" lon="11.2042446"><ele>42.0</ele><time>2026-04-18T09:03:27.281Z</time></trkpt><trkpt lat="43.7648851" lon="11.2040595"><ele>41.8</ele><time>2026-04-18T09:03:28.281Z</time></trkpt><trkpt lat="43.7648574" lon="11.2038833"><ele>41.6</ele><time>2026-04-18T09:03:29.281Z</time></trkpt><trkpt lat="43.7648366" lon="11.2037237"><ele>41.4</ele><time>2026-04-18T09:03:30.281Z</time></trkpt><trkpt lat="43.7648238" lon="11.2035788"><ele>41.199999999999996</ele><time>2026-04-18T09:03:31.281Z</time></trkpt><trkpt lat="43.764814" lon="11.2034474"><ele>41.0</ele><time>2026-04-18T09:03:32.28Z</time></trkpt><trkpt lat="43.7648049" lon="11.2033344"><ele>41.0</ele><time>2026-04-18T09:03:33.28Z</time></trkpt><trkpt lat="43.7647981" lon="11.2032339"><ele>41.0</ele><time>2026-04-18T09:03:34.279Z</time></trkpt><trkpt lat="43.7647918" lon="11.2031299"><ele>41.0</ele><time>2026-04-18T09:03:35.282Z</time></trkpt><trkpt lat="43.7647874" lon="11.2030074"><ele>41.0</ele><time>2026-04-18T09:03:36.28Z</time></trkpt><trkpt lat="43.7647817" lon="11.202862"><ele>41.0</ele><time>2026-04-18T09:03:37.28Z</time></trkpt><trkpt lat="43.7647747" lon="11.2027033"><ele>41.0</ele><time>2026-04-18T09:03:38.28Z</time></trkpt><trkpt lat="43.7647626" lon="11.2025363"><ele>41.0</ele><time>2026-04-18T09:03:39.28Z</time></trkpt><trkpt lat="43.7647505" lon="11.2023572"><ele>41.0</ele><time>2026-04-18T09:03:40.279Z</time></trkpt><trkpt lat="43.7647357" lon="11.2021729"><ele>41.0</ele><time>2026-04-18T09:03:41.281Z</time></trkpt><trkpt lat="43.764723" lon="11.2019878"><ele>40.75</ele><time>2026-04-18T09:03:42.281Z</time></trkpt><trkpt lat="43.764711" lon="11.2017989"><ele>40.5</ele><time>2026-04-18T09:03:43.28Z</time></trkpt><trkpt lat="43.7647004" lon="11.201613"><ele>40.25</ele><time>2026-04-18T09:03:44.281Z</time></trkpt><trkpt lat="43.7646908" lon="11.2014305"><ele>40.0</ele><time>2026-04-18T09:03:45.279Z</time></trkpt><trkpt lat="43.7646809" lon="11.201253"><ele>40.25</ele><time>2026-04-18T09:03:46.278Z</time></trkpt><trkpt lat="43.7646684" lon="11.2010807"><ele>40.5</ele><time>2026-04-18T09:03:47.279Z</time></trkpt><trkpt lat="43.7646549" lon="11.2009122"><ele>40.75</ele><time>2026-04-18T09:03:48.283Z</time></trkpt><trkpt lat="43.7646385" lon="11.2007503"><ele>41.0</ele><time>2026-04-18T09:03:49.279Z</time></trkpt><trkpt lat="43.7646212" lon="11.2006038"><ele>41.0</ele><time>2026-04-18T09:03:50.282Z</time></trkpt><trkpt lat="43.7646013" lon="11.2004697"><ele>41.0</ele><time>2026-04-18T09:03:51.28Z</time></trkpt><trkpt lat="43.7645877" lon="11.2003501"><ele>41.0</ele><time>2026-04-18T09:03:52.28Z</time></trkpt><trkpt lat="43.7645858" lon="11.2002432"><ele>41.0</ele><time>2026-04-18T09:03:53.28Z</time></trkpt><trkpt lat="43.7645912" lon="11.2001372"><ele>41.0</ele><time>2026-04-18T09:03:54.28Z</time></trkpt><trkpt lat="43.7646133" lon="11.20003"><ele>41.0</ele><time>2026-04-18T09:03:55.281Z</time></trkpt><trkpt lat="43.764645" lon="11.199915"><ele>40.599999999999994</ele><time>2026-04-18T09:03:56.282Z</time></trkpt><trkpt lat="43.764685" lon="11.1997883"><ele>40.199999999999996</ele><time>2026-04-18T09:03:57.28Z</time></trkpt><trkpt lat="43.7647167" lon="11.199655"><ele>39.8</ele><time>2026-04-18T09:03:58.281Z</time></trkpt><trkpt lat="43.7647367" lon="11.1995183"><ele>39.4</ele><time>2026-04-18T09:03:59.28Z</time></trkpt><trkpt lat="43.7647367" lon="11.1993867"><ele>39.0</ele><time>2026-04-18T09:04:00.281Z</time></trkpt><trkpt lat="43.7647067" lon="11.19926"><ele>39.0</ele><time>2026-04-18T09:04:01.28Z</time></trkpt><trkpt lat="43.764655" lon="11.19914"><ele>39.0</ele><time>2026-04-18T09:04:02.28Z</time></trkpt><trkpt lat="43.7646" lon="11.19902"><ele>39.0</ele><time>2026-04-18T09:04:03.28Z</time></trkpt><trkpt lat="43.7645467" lon="11.1988917"><ele>39.0</ele><time>2026-04-18T09:04:04.281Z</time></trkpt><trkpt lat="43.7644983" lon="11.1987633"><ele>39.0</ele><time>2026-04-18T09:04:05.281Z</time></trkpt><trkpt lat="43.7644533" lon="11.198625"><ele>39.0</ele><time>2026-04-18T09:04:06.281Z</time></trkpt><trkpt lat="43.764415" lon="11.1984783"><ele>39.0</ele><time>2026-04-18T09:04:07.281Z</time></trkpt><trkpt lat="43.764375" lon="11.1983333"><ele>39.0</ele><time>2026-04-18T09:04:08.281Z</time></trkpt><trkpt lat="43.764335" lon="11.198185"><ele>39.0</ele><time>2026-04-18T09:04:09.282Z</time></trkpt><trkpt lat="43.7643" lon="11.1980333"><ele>39.0</ele><time>2026-04-18T09:04:10.282Z</time></trkpt><trkpt lat="43.7642667" lon="11.1978783"><ele>39.0</ele><time>2026-04-18T09:04:11.282Z</time></trkpt><trkpt lat="43.764235" lon="11.19772"><ele>39.0</ele><time>2026-04-18T09:04:12.283Z</time></trkpt><trkpt lat="43.764205" lon="11.1975633"><ele>39.0</ele><time>2026-04-18T09:04:13.282Z</time></trkpt><trkpt lat="43.7641733" lon="11.197415"><ele>39.0</ele><time>2026-04-18T09:04:14.281Z</time></trkpt><trkpt lat="43.7641433" lon="11.1972683"><ele>39.0</ele><time>2026-04-18T09:04:15.281Z</time></trkpt><trkpt lat="43.7641183" lon="11.1971183"><ele>39.0</ele><time>2026-04-18T09:04:16.282Z</time></trkpt><trkpt lat="43.7640983" lon="11.196965"><ele>39.0</ele><time>2026-04-18T09:04:17.281Z</time></trkpt><trkpt lat="43.7640733" lon="11.19681"><ele>39.0</ele><time>2026-04-18T09:04:18.28Z</time></trkpt><trkpt lat="43.7640483" lon="11.1966567"><ele>39.0</ele><time>2026-04-18T09:04:19.283Z</time></trkpt><trkpt lat="43.764015" lon="11.1965167"><ele>39.0</ele><time>2026-04-18T09:04:20.282Z</time></trkpt><trkpt lat="43.7639817" lon="11.1963783"><ele>39.0</ele><time>2026-04-18T09:04:21.28Z</time></trkpt><trkpt lat="43.7639433" lon="11.1962333"><ele>39.0</ele><time>2026-04-18T09:04:22.281Z</time></trkpt><trkpt lat="43.7639133" lon="11.1960767"><ele>39.0</ele><time>2026-04-18T09:04:23.28Z</time></trkpt><trkpt lat="43.7638983" lon="11.1959083"><ele>39.25</ele><time>2026-04-18T09:04:24.279Z</time></trkpt><trkpt lat="43.7638917" lon="11.1957367"><ele>39.5</ele><time>2026-04-18T09:04:25.28Z</time></trkpt><trkpt lat="43.7638933" lon="11.1955633"><ele>39.75</ele><time>2026-04-18T09:04:26.279Z</time></trkpt><trkpt lat="43.763905" lon="11.1953917"><ele>40.0</ele><time>2026-04-18T09:04:27.28Z</time></trkpt><trkpt lat="43.7639233" lon="11.1952217"><ele>40.5</ele><time>2026-04-18T09:04:28.279Z</time></trkpt><trkpt lat="43.7639517" lon="11.1950583"><ele>41.0</ele><time>2026-04-18T09:04:29.279Z</time></trkpt><trkpt lat="43.7639983" lon="11.1949067"><ele>41.5</ele><time>2026-04-18T09:04:30.28Z</time></trkpt><trkpt lat="43.7640567" lon="11.1947583"><ele>42.0</ele><time>2026-04-18T09:04:31.28Z</time></trkpt><trkpt lat="43.76412" lon="11.1946067"><ele>42.0</ele><time>2026-04-18T09:04:32.285Z</time></trkpt><trkpt lat="43.7641833" lon="11.1944517"><ele>42.0</ele><time>2026-04-18T09:04:33.28Z</time></trkpt><trkpt lat="43.7642483" lon="11.19429"><ele>42.0</ele><time>2026-04-18T09:04:34.279Z</time></trkpt><trkpt lat="43.7643117" lon="11.1941283"><ele>42.0</ele><time>2026-04-18T09:04:35.28Z</time></trkpt><trkpt lat="43.764375" lon="11.1939717"><ele>43.0</ele><time>2026-04-18T09:04:36.28Z</time></trkpt><trkpt lat="43.764435" lon="11.193825"><ele>44.0</ele><time>2026-04-18T09:04:37.279Z</time></trkpt><trkpt lat="43.7644917" lon="11.1936883"><ele>45.0</ele><time>2026-04-18T09:04:38.281Z</time></trkpt><trkpt lat="43.76456" lon="11.19357"><ele>46.0</ele><time>2026-04-18T09:04:39.279Z</time></trkpt><trkpt lat="43.7646383" lon="11.1934717"><ele>46.0</ele><time>2026-04-18T09:04:40.28Z</time></trkpt><trkpt lat="43.76471" lon="11.193385"><ele>46.0</ele><time>2026-04-18T09:04:41.281Z</time></trkpt><trkpt lat="43.7647717" lon="11.1933067"><ele>46.0</ele><time>2026-04-18T09:04:42.281Z</time></trkpt><trkpt lat="43.7648267" lon="11.1932383"><ele>46.0</ele><time>2026-04-18T09:04:43.28Z</time></trkpt><trkpt lat="43.764875" lon="11.19318"><ele>46.0</ele><time>2026-04-18T09:04:44.28Z</time></trkpt><trkpt lat="43.7649483" lon="11.1930533"><ele>46.0</ele><time>2026-04-18T09:04:46.281Z</time></trkpt><trkpt lat="43.7649967" lon="11.19288"><ele>46.199999999999996</ele><time>2026-04-18T09:04:48.28Z</time></trkpt><trkpt lat="43.7650283" lon="11.1927783"><ele>46.4</ele><time>2026-04-18T09:04:49.281Z</time></trkpt><trkpt lat="43.7650733" lon="11.1926667"><ele>46.6</ele><time>2026-04-18T09:04:50.281Z</time></trkpt><trkpt lat="43.7651283" lon="11.192555"><ele>46.8</ele><time>2026-04-18T09:04:51.281Z</time></trkpt><trkpt lat="43.7651933" lon="11.1924533"><ele>47.0</ele><time>2026-04-18T09:04:52.282Z</time></trkpt><trkpt lat="43.765265" lon="11.1923567"><ele>46.2</ele><time>2026-04-18T09:04:53.281Z</time></trkpt><trkpt lat="43.765335" lon="11.1922617"><ele>45.400000000000006</ele><time>2026-04-18T09:04:54.281Z</time></trkpt><trkpt lat="43.76541" lon="11.1921733"><ele>44.599999999999994</ele><time>2026-04-18T09:04:55.281Z</time></trkpt><trkpt lat="43.7654817" lon="11.1920833"><ele>43.8</ele><time>2026-04-18T09:04:56.28Z</time></trkpt><trkpt lat="43.7655533" lon="11.1919983"><ele>43.0</ele><time>2026-04-18T09:04:57.28Z</time></trkpt><trkpt lat="43.76562" lon="11.1919083"><ele>43.0</ele><time>2026-04-18T09:04:58.28Z</time></trkpt><trkpt lat="43.7656917" lon="11.1918233"><ele>43.0</ele><time>2026-04-18T09:04:59.281Z</time></trkpt><trkpt lat="43.7657617" lon="11.1917467"><ele>43.0</ele><time>2026-04-18T09:05:00.282Z</time></trkpt><trkpt lat="43.7658367" lon="11.19168"><ele>43.0</ele><time>2026-04-18T09:05:01.281Z</time></trkpt><trkpt lat="43.7659067" lon="11.191625"><ele>43.0</ele><time>2026-04-18T09:05:02.28Z</time></trkpt><trkpt lat="43.7659717" lon="11.191575"><ele>43.0</ele><time>2026-04-18T09:05:03.28Z</time></trkpt><trkpt lat="43.7660383" lon="11.1915333"><ele>42.833333333333336</ele><time>2026-04-18T09:05:04.281Z</time></trkpt><trkpt lat="43.7661" lon="11.1915067"><ele>42.66666666666667</ele><time>2026-04-18T09:05:05.28Z</time></trkpt><trkpt lat="43.766175" lon="11.1914983"><ele>42.5</ele><time>2026-04-18T09:05:06.28Z</time></trkpt><trkpt lat="43.7662467" lon="11.191495"><ele>42.333333333333336</ele><time>2026-04-18T09:05:07.28Z</time></trkpt><trkpt lat="43.7663133" lon="11.1914983"><ele>42.166666666666664</ele><time>2026-04-18T09:05:08.281Z</time></trkpt><trkpt lat="43.766425" lon="11.1915417"><ele>42.0</ele><time>2026-04-18T09:05:10.281Z</time></trkpt><trkpt lat="43.7665033" lon="11.1915767"><ele>42.0</ele><time>2026-04-18T09:05:12.281Z</time></trkpt><trkpt lat="43.7665817" lon="11.1916"><ele>42.0</ele><time>2026-04-18T09:05:15.28Z</time></trkpt><trkpt lat="43.7666617" lon="11.19157"><ele>42.0</ele><time>2026-04-18T09:05:18.28Z</time></trkpt><trkpt lat="43.7666983" lon="11.191485"><ele>42.0</ele><time>2026-04-18T09:05:20.28Z</time></trkpt><trkpt lat="43.7667433" lon="11.191405"><ele>42.0</ele><time>2026-04-18T09:05:21.28Z</time></trkpt><trkpt lat="43.766805" lon="11.191265"><ele>42.0</ele><time>2026-04-18T09:05:22.281Z</time></trkpt><trkpt lat="43.7668633" lon="11.19117"><ele>42.0</ele><time>2026-04-18T09:05:23.281Z</time></trkpt><trkpt lat="43.7669183" lon="11.1910733"><ele>42.0</ele><time>2026-04-18T09:05:24.28Z</time></trkpt><trkpt lat="43.766965" lon="11.190985"><ele>42.0</ele><time>2026-04-18T09:05:25.281Z</time></trkpt><trkpt lat="43.7670067" lon="11.1908883"><ele>42.0</ele><time>2026-04-18T09:05:26.28Z</time></trkpt><trkpt lat="43.767065" lon="11.1907983"><ele>42.0</ele><time>2026-04-18T09:05:27.28Z</time></trkpt><trkpt lat="43.7671283" lon="11.1907083"><ele>42.0</ele><time>2026-04-18T09:05:28.28Z</time></trkpt><trkpt lat="43.7671933" lon="11.190625"><ele>41.833333333333336</ele><time>2026-04-18T09:05:29.282Z</time></trkpt><trkpt lat="43.7672433" lon="11.19055"><ele>41.666666666666664</ele><time>2026-04-18T09:05:30.28Z</time></trkpt><trkpt lat="43.7672883" lon="11.190475"><ele>41.5</ele><time>2026-04-18T09:05:31.281Z</time></trkpt><trkpt lat="43.76735" lon="11.1903683"><ele>41.33333333333333</ele><time>2026-04-18T09:05:33.281Z</time></trkpt><trkpt lat="43.7674317" lon="11.19028"><ele>41.166666666666664</ele><time>2026-04-18T09:05:44.282Z</time></trkpt><trkpt lat="43.76751" lon="11.19032"><ele>41.0</ele><time>2026-04-18T09:05:47.281Z</time></trkpt><trkpt lat="43.7675567" lon="11.1904333"><ele>41.0</ele><time>2026-04-18T09:05:49.282Z</time></trkpt><trkpt lat="43.7676017" lon="11.1905583"><ele>41.0</ele><time>2026-04-18T09:05:51.281Z</time></trkpt><trkpt lat="43.7676683" lon="11.1906683"><ele>41.0</ele><time>2026-04-18T09:05:53.281Z</time></trkpt><trkpt lat="43.76773" lon="11.1907633"><ele>41.0</ele><time>2026-04-18T09:05:55.283Z</time></trkpt><trkpt lat="43.76778" lon="11.190855"><ele>41.0</ele><time>2026-04-18T09:05:57.283Z</time></trkpt><trkpt lat="43.7678167" lon="11.19093"><ele>41.0</ele><time>2026-04-18T09:05:59.284Z</time></trkpt><trkpt lat="43.76786" lon="11.191025"><ele>41.166666666666664</ele><time>2026-04-18T09:06:02.282Z</time></trkpt><trkpt lat="43.7679083" lon="11.1911"><ele>41.33333333333333</ele><time>2026-04-18T09:06:05.281Z</time></trkpt><trkpt lat="43.7679583" lon="11.1912017"><ele>41.5</ele><time>2026-04-18T09:06:08.28Z</time></trkpt><trkpt lat="43.76803" lon="11.1912717"><ele>41.666666666666664</ele><time>2026-04-18T09:06:10.282Z</time></trkpt><trkpt lat="43.7680833" lon="11.191355"><ele>41.833333333333336</ele><time>2026-04-18T09:06:12.282Z</time></trkpt><trkpt lat="43.7681267" lon="11.1914383"><ele>42.0</ele><time>2026-04-18T09:06:14.281Z</time></trkpt><trkpt lat="43.7681667" lon="11.1915117"><ele>42.0</ele><time>2026-04-18T09:06:16.282Z</time></trkpt><trkpt lat="43.7682083" lon="11.1915933"><ele>42.0</ele><time>2026-04-18T09:06:18.281Z</time></trkpt><trkpt lat="43.76825" lon="11.1916767"><ele>42.0</ele><time>2026-04-18T09:06:20.282Z</time></trkpt><trkpt lat="43.7683133" lon="11.1917517"><ele>42.0</ele><time>2026-04-18T09:06:29.281Z</time></trkpt><trkpt lat="43.7683617" lon="11.1918217"><ele>42.0</ele><time>2026-04-18T09:06:32.281Z</time></trkpt><trkpt lat="43.7684067" lon="11.1919117"><ele>42.0</ele><time>2026-04-18T09:06:35.28Z</time></trkpt><trkpt lat="43.7684883" lon="11.1919867"><ele>42.0</ele><time>2026-04-18T09:06:38.282Z</time></trkpt><trkpt lat="43.768525" lon="11.1920833"><ele>42.0</ele><time>2026-04-18T09:06:40.28Z</time></trkpt><trkpt lat="43.7685817" lon="11.192165"><ele>42.0</ele><time>2026-04-18T09:06:43.279Z</time></trkpt><trkpt lat="43.7686367" lon="11.1922533"><ele>42.0</ele><time>2026-04-18T09:06:46.28Z</time></trkpt><trkpt lat="43.7686983" lon="11.192225"><ele>42.0</ele><time>2026-04-18T09:06:48.279Z</time></trkpt><trkpt lat="43.7687717" lon="11.19216"><ele>42.0</ele><time>2026-04-18T09:06:50.279Z</time></trkpt><trkpt lat="43.7688367" lon="11.1920917"><ele>42.0</ele><time>2026-04-18T09:06:53.28Z</time></trkpt><trkpt lat="43.76891" lon="11.19208"><ele>42.0</ele><time>2026-04-18T09:07:52.282Z</time></trkpt><trkpt lat="43.768975" lon="11.1920117"><ele>42.0</ele><time>2026-04-18T09:07:54.282Z</time></trkpt><trkpt lat="43.769045" lon="11.1918733"><ele>42.0</ele><time>2026-04-18T09:07:56.282Z</time></trkpt><trkpt lat="43.7690617" lon="11.1917867"><ele>42.0</ele><time>2026-04-18T09:07:57.28Z</time></trkpt><trkpt lat="43.7690683" lon="11.1916767"><ele>42.0</ele><time>2026-04-18T09:07:58.279Z</time></trkpt><trkpt lat="43.769065" lon="11.19155"><ele>42.0</ele><time>2026-04-18T09:07:59.281Z</time></trkpt><trkpt lat="43.76905" lon="11.1914067"><ele>42.0</ele><time>2026-04-18T09:08:00.281Z</time></trkpt><trkpt lat="43.7690383" lon="11.1912717"><ele>42.0</ele><time>2026-04-18T09:08:01.283Z</time></trkpt><trkpt lat="43.7690217" lon="11.191145"><ele>42.0</ele><time>2026-04-18T09:08:02.28Z</time></trkpt><trkpt lat="43.76901" lon="11.1910367"><ele>42.0</ele><time>2026-04-18T09:08:03.281Z</time></trkpt><trkpt lat="43.7689933" lon="11.1909433"><ele>42.0</ele><time>2026-04-18T09:08:04.28Z</time></trkpt><trkpt lat="43.7689833" lon="11.19085"><ele>42.0</ele><time>2026-04-18T09:08:05.282Z</time></trkpt><trkpt lat="43.7689817" lon="11.1907533"><ele>42.0</ele><time>2026-04-18T09:08:06.279Z</time></trkpt><trkpt lat="43.7689883" lon="11.1906583"><ele>42.0</ele><time>2026-04-18T09:08:07.28Z</time></trkpt><trkpt lat="43.7690133" lon="11.1905633"><ele>42.0</ele><time>2026-04-18T09:08:08.281Z</time></trkpt><trkpt lat="43.7690517" lon="11.190455"><ele>42.0</ele><time>2026-04-18T09:08:09.28Z</time></trkpt><trkpt lat="43.7691117" lon="11.190345"><ele>42.0</ele><time>2026-04-18T09:08:10.282Z</time></trkpt><trkpt lat="43.7691767" lon="11.1902167"><ele>41.8</ele><time>2026-04-18T09:08:11.281Z</time></trkpt><trkpt lat="43.7692217" lon="11.190075"><ele>41.6</ele><time>2026-04-18T09:08:12.281Z</time></trkpt><trkpt lat="43.76924" lon="11.1899317"><ele>41.4</ele><time>2026-04-18T09:08:13.282Z</time></trkpt><trkpt lat="43.7692433" lon="11.1898033"><ele>41.199999999999996</ele><time>2026-04-18T09:08:14.282Z</time></trkpt><trkpt lat="43.769255" lon="11.18968"><ele>41.0</ele><time>2026-04-18T09:08:15.281Z</time></trkpt><trkpt lat="43.76927" lon="11.18957"><ele>40.8</ele><time>2026-04-18T09:08:16.279Z</time></trkpt><trkpt lat="43.7692917" lon="11.1894583"><ele>40.599999999999994</ele><time>2026-04-18T09:08:17.28Z</time></trkpt><trkpt lat="43.7693117" lon="11.1893383"><ele>40.4</ele><time>2026-04-18T09:08:18.283Z</time></trkpt><trkpt lat="43.7693383" lon="11.1892067"><ele>40.2</ele><time>2026-04-18T09:08:19.28Z</time></trkpt><trkpt lat="43.769375" lon="11.1890467"><ele>40.0</ele><time>2026-04-18T09:08:20.281Z</time></trkpt><trkpt lat="43.76942" lon="11.1888767"><ele>39.25</ele><time>2026-04-18T09:08:21.281Z</time></trkpt><trkpt lat="43.769485" lon="11.1887117"><ele>38.5</ele><time>2026-04-18T09:08:22.282Z</time></trkpt><trkpt lat="43.769585" lon="11.18856"><ele>37.75</ele><time>2026-04-18T09:08:23.281Z</time></trkpt><trkpt lat="43.769715" lon="11.1884367"><ele>37.0</ele><time>2026-04-18T09:08:24.282Z</time></trkpt><trkpt lat="43.7698617" lon="11.1883283"><ele>37.0</ele><time>2026-04-18T09:08:25.281Z</time></trkpt><trkpt lat="43.770005" lon="11.1882317"><ele>37.0</ele><time>2026-04-18T09:08:26.281Z</time></trkpt><trkpt lat="43.7701583" lon="11.18813"><ele>37.0</ele><time>2026-04-18T09:08:27.281Z</time></trkpt><trkpt lat="43.770315" lon="11.1880167"><ele>37.333333333333336</ele><time>2026-04-18T09:08:28.281Z</time></trkpt><trkpt lat="43.77047" lon="11.1878867"><ele>37.666666666666664</ele><time>2026-04-18T09:08:29.28Z</time></trkpt><trkpt lat="43.77063" lon="11.1877483"><ele>38.0</ele><time>2026-04-18T09:08:30.281Z</time></trkpt><trkpt lat="43.77079" lon="11.1876283"><ele>38.0</ele><time>2026-04-18T09:08:31.282Z</time></trkpt><trkpt lat="43.77096" lon="11.1875317"><ele>38.0</ele><time>2026-04-18T09:08:32.28Z</time></trkpt><trkpt lat="43.7711267" lon="11.1874817"><ele>38.0</ele><time>2026-04-18T09:08:33.28Z</time></trkpt><trkpt lat="43.7712983" lon="11.1874367"><ele>37.666666666666664</ele><time>2026-04-18T09:08:34.281Z</time></trkpt><trkpt lat="43.7714783" lon="11.1873817"><ele>37.333333333333336</ele><time>2026-04-18T09:08:35.281Z</time></trkpt><trkpt lat="43.7716583" lon="11.1872867"><ele>37.0</ele><time>2026-04-18T09:08:36.28Z</time></trkpt><trkpt lat="43.7718383" lon="11.1871833"><ele>37.333333333333336</ele><time>2026-04-18T09:08:37.281Z</time></trkpt><trkpt lat="43.7720183" lon="11.1870783"><ele>37.666666666666664</ele><time>2026-04-18T09:08:38.282Z</time></trkpt><trkpt lat="43.7722033" lon="11.18697"><ele>38.0</ele><time>2026-04-18T09:08:39.279Z</time></trkpt><trkpt lat="43.77239" lon="11.1868683"><ele>38.0</ele><time>2026-04-18T09:08:40.281Z</time></trkpt><trkpt lat="43.77257" lon="11.18676"><ele>38.0</ele><time>2026-04-18T09:08:41.279Z</time></trkpt><trkpt lat="43.7727583" lon="11.1866683"><ele>38.0</ele><time>2026-04-18T09:08:42.282Z</time></trkpt><trkpt lat="43.772955" lon="11.186615"><ele>37.666666666666664</ele><time>2026-04-18T09:08:43.282Z</time></trkpt><trkpt lat="43.77316" lon="11.1865967"><ele>37.333333333333336</ele><time>2026-04-18T09:08:44.282Z</time></trkpt><trkpt lat="43.7733717" lon="11.1866017"><ele>37.0</ele><time>2026-04-18T09:08:45.282Z</time></trkpt><trkpt lat="43.773585" lon="11.186615"><ele>37.0</ele><time>2026-04-18T09:08:46.281Z</time></trkpt><trkpt lat="43.7737967" lon="11.1866333"><ele>37.0</ele><time>2026-04-18T09:08:47.281Z</time></trkpt><trkpt lat="43.7740083" lon="11.1866633"><ele>37.0</ele><time>2026-04-18T09:08:48.281Z</time></trkpt><trkpt lat="43.774215" lon="11.18669"><ele>37.0</ele><time>2026-04-18T09:08:49.28Z</time></trkpt><trkpt lat="43.7744233" lon="11.1867133"><ele>37.0</ele><time>2026-04-18T09:08:50.282Z</time></trkpt><trkpt lat="43.7746333" lon="11.1867317"><ele>37.0</ele><time>2026-04-18T09:08:51.28Z</time></trkpt><trkpt lat="43.774845" lon="11.18675"><ele>37.0</ele><time>2026-04-18T09:08:52.281Z</time></trkpt><trkpt lat="43.775055" lon="11.1867633"><ele>37.0</ele><time>2026-04-18T09:08:53.282Z</time></trkpt><trkpt lat="43.775265" lon="11.18678"><ele>37.0</ele><time>2026-04-18T09:08:54.283Z</time></trkpt><trkpt lat="43.7754767" lon="11.1868"><ele>37.0</ele><time>2026-04-18T09:08:55.281Z</time></trkpt><trkpt lat="43.77569" lon="11.1868167"><ele>37.0</ele><time>2026-04-18T09:08:56.281Z</time></trkpt><trkpt lat="43.775905" lon="11.1868417"><ele>37.0</ele><time>2026-04-18T09:08:57.281Z</time></trkpt><trkpt lat="43.77612" lon="11.1868533"><ele>36.333333333333336</ele><time>2026-04-18T09:08:58.281Z</time></trkpt><trkpt lat="43.7763367" lon="11.18686"><ele>35.666666666666664</ele><time>2026-04-18T09:08:59.279Z</time></trkpt><trkpt lat="43.7765483" lon="11.1868533"><ele>35.0</ele><time>2026-04-18T09:09:00.28Z</time></trkpt><trkpt lat="43.7767617" lon="11.1868367"><ele>36.0</ele><time>2026-04-18T09:09:01.28Z</time></trkpt><trkpt lat="43.77698" lon="11.1867983"><ele>37.0</ele><time>2026-04-18T09:09:02.281Z</time></trkpt><trkpt lat="43.7771983" lon="11.1867467"><ele>38.0</ele><time>2026-04-18T09:09:03.282Z</time></trkpt><trkpt lat="43.77741" lon="11.18668"><ele>38.0</ele><time>2026-04-18T09:09:04.281Z</time></trkpt><trkpt lat="43.7776233" lon="11.1865867"><ele>38.0</ele><time>2026-04-18T09:09:05.279Z</time></trkpt><trkpt lat="43.7778283" lon="11.18647"><ele>38.0</ele><time>2026-04-18T09:09:06.28Z</time></trkpt><trkpt lat="43.77803" lon="11.186345"><ele>37.666666666666664</ele><time>2026-04-18T09:09:07.28Z</time></trkpt><trkpt lat="43.7782267" lon="11.1862183"><ele>37.333333333333336</ele><time>2026-04-18T09:09:08.278Z</time></trkpt><trkpt lat="43.7784233" lon="11.1860967"><ele>37.0</ele><time>2026-04-18T09:09:09.279Z</time></trkpt><trkpt lat="43.77862" lon="11.1859883"><ele>37.0</ele><time>2026-04-18T09:09:10.28Z</time></trkpt><trkpt lat="43.77881" lon="11.1858967"><ele>37.0</ele><time>2026-04-18T09:09:11.282Z</time></trkpt><trkpt lat="43.7790017" lon="11.18582"><ele>37.0</ele><time>2026-04-18T09:09:12.279Z</time></trkpt><trkpt lat="43.7792017" lon="11.185765"><ele>38.0</ele><time>2026-04-18T09:09:13.281Z</time></trkpt><trkpt lat="43.7794033" lon="11.18574"><ele>39.0</ele><time>2026-04-18T09:09:14.279Z</time></trkpt><trkpt lat="43.7796033" lon="11.1857433"><ele>40.0</ele><time>2026-04-18T09:09:15.28Z</time></trkpt><trkpt lat="43.7798033" lon="11.1857767"><ele>40.0</ele><time>2026-04-18T09:09:16.281Z</time></trkpt><trkpt lat="43.7799983" lon="11.18583"><ele>40.0</ele><time>2026-04-18T09:09:17.28Z</time></trkpt><trkpt lat="43.7801867" lon="11.185905"><ele>40.0</ele><time>2026-04-18T09:09:18.28Z</time></trkpt><trkpt lat="43.7803717" lon="11.1860033"><ele>39.333333333333336</ele><time>2026-04-18T09:09:19.279Z</time></trkpt><trkpt lat="43.780555" lon="11.1861233"><ele>38.666666666666664</ele><time>2026-04-18T09:09:20.281Z</time></trkpt><trkpt lat="43.7807317" lon="11.186255"><ele>38.0</ele><time>2026-04-18T09:09:21.282Z</time></trkpt><trkpt lat="43.7809083" lon="11.186395"><ele>38.33333333333333</ele><time>2026-04-18T09:09:22.282Z</time></trkpt><trkpt lat="43.781085" lon="11.18654"><ele>38.666666666666664</ele><time>2026-04-18T09:09:23.282Z</time></trkpt><trkpt lat="43.781265" lon="11.1866817"><ele>39.0</ele><time>2026-04-18T09:09:24.28Z</time></trkpt><trkpt lat="43.7814517" lon="11.18683"><ele>39.0</ele><time>2026-04-18T09:09:25.279Z</time></trkpt><trkpt lat="43.7816383" lon="11.1869817"><ele>39.0</ele><time>2026-04-18T09:09:26.281Z</time></trkpt><trkpt lat="43.78183" lon="11.1871333"><ele>39.0</ele><time>2026-04-18T09:09:27.281Z</time></trkpt><trkpt lat="43.7820233" lon="11.18729"><ele>39.333333333333336</ele><time>2026-04-18T09:09:28.282Z</time></trkpt><trkpt lat="43.782215" lon="11.18745"><ele>39.66666666666667</ele><time>2026-04-18T09:09:29.281Z</time></trkpt><trkpt lat="43.7824033" lon="11.1876133"><ele>40.0</ele><time>2026-04-18T09:09:30.28Z</time></trkpt><trkpt lat="43.78259" lon="11.1877817"><ele>40.333333333333336</ele><time>2026-04-18T09:09:31.282Z</time></trkpt><trkpt lat="43.7827717" lon="11.187945"><ele>40.666666666666664</ele><time>2026-04-18T09:09:32.283Z</time></trkpt><trkpt lat="43.7829533" lon="11.1881017"><ele>41.0</ele><time>2026-04-18T09:09:33.281Z</time></trkpt><trkpt lat="43.7831367" lon="11.188255"><ele>41.33333333333333</ele><time>2026-04-18T09:09:34.28Z</time></trkpt><trkpt lat="43.78332" lon="11.18841"><ele>41.666666666666664</ele><time>2026-04-18T09:09:35.281Z</time></trkpt><trkpt lat="43.7835" lon="11.1885683"><ele>42.0</ele><time>2026-04-18T09:09:36.281Z</time></trkpt><trkpt lat="43.783675" lon="11.1887383"><ele>42.0</ele><time>2026-04-18T09:09:37.281Z</time></trkpt><trkpt lat="43.7838433" lon="11.1889183"><ele>42.0</ele><time>2026-04-18T09:09:38.28Z</time></trkpt><trkpt lat="43.7840033" lon="11.1891183"><ele>42.0</ele><time>2026-04-18T09:09:39.28Z</time></trkpt><trkpt lat="43.7841533" lon="11.1893267"><ele>41.666666666666664</ele><time>2026-04-18T09:09:40.282Z</time></trkpt><trkpt lat="43.784285" lon="11.1895567"><ele>41.33333333333333</ele><time>2026-04-18T09:09:41.283Z</time></trkpt><trkpt lat="43.7844067" lon="11.1897967"><ele>41.0</ele><time>2026-04-18T09:09:42.281Z</time></trkpt><trkpt lat="43.7845167" lon="11.19004"><ele>40.33333333333333</ele><time>2026-04-18T09:09:43.281Z</time></trkpt><trkpt lat="43.784625" lon="11.19028"><ele>39.666666666666664</ele><time>2026-04-18T09:09:44.282Z</time></trkpt><trkpt lat="43.7847283" lon="11.1905233"><ele>39.0</ele><time>2026-04-18T09:09:45.282Z</time></trkpt><trkpt lat="43.7848317" lon="11.1907683"><ele>39.0</ele><time>2026-04-18T09:09:46.282Z</time></trkpt><trkpt lat="43.784935" lon="11.1910217"><ele>39.0</ele><time>2026-04-18T09:09:47.283Z</time></trkpt><trkpt lat="43.7850383" lon="11.1912767"><ele>39.0</ele><time>2026-04-18T09:09:48.283Z</time></trkpt><trkpt lat="43.7851433" lon="11.1915283"><ele>39.0</ele><time>2026-04-18T09:09:49.281Z</time></trkpt><trkpt lat="43.7852533" lon="11.191795"><ele>39.0</ele><time>2026-04-18T09:09:50.282Z</time></trkpt><trkpt lat="43.7853717" lon="11.192035"><ele>39.0</ele><time>2026-04-18T09:09:51.281Z</time></trkpt><trkpt lat="43.7855033" lon="11.192265"><ele>39.0</ele><time>2026-04-18T09:09:52.282Z</time></trkpt><trkpt lat="43.7856417" lon="11.19249"><ele>39.0</ele><time>2026-04-18T09:09:53.282Z</time></trkpt><trkpt lat="43.78579" lon="11.1927083"><ele>39.0</ele><time>2026-04-18T09:09:54.282Z</time></trkpt><trkpt lat="43.785945" lon="11.19292"><ele>39.0</ele><time>2026-04-18T09:09:55.284Z</time></trkpt><trkpt lat="43.7861033" lon="11.19312"><ele>39.0</ele><time>2026-04-18T09:09:56.281Z</time></trkpt><trkpt lat="43.786265" lon="11.19331"><ele>39.0</ele><time>2026-04-18T09:09:57.282Z</time></trkpt><trkpt lat="43.7864317" lon="11.19349"><ele>38.666666666666664</ele><time>2026-04-18T09:09:58.283Z</time></trkpt><trkpt lat="43.786605" lon="11.1936617"><ele>38.33333333333333</ele><time>2026-04-18T09:09:59.282Z</time></trkpt><trkpt lat="43.7867817" lon="11.19382"><ele>38.0</ele><time>2026-04-18T09:10:00.281Z</time></trkpt><trkpt lat="43.78696" lon="11.19397"><ele>38.0</ele><time>2026-04-18T09:10:01.281Z</time></trkpt><trkpt lat="43.7871433" lon="11.1940967"><ele>38.0</ele><time>2026-04-18T09:10:02.28Z</time></trkpt><trkpt lat="43.7873233" lon="11.1942167"><ele>38.0</ele><time>2026-04-18T09:10:03.28Z</time></trkpt><trkpt lat="43.7875033" lon="11.1943417"><ele>38.33333333333333</ele><time>2026-04-18T09:10:04.28Z</time></trkpt><trkpt lat="43.78768" lon="11.19447"><ele>38.666666666666664</ele><time>2026-04-18T09:10:05.282Z</time></trkpt><trkpt lat="43.787855" lon="11.1946017"><ele>39.0</ele><time>2026-04-18T09:10:06.282Z</time></trkpt><trkpt lat="43.7880283" lon="11.1947383"><ele>39.666666666666664</ele><time>2026-04-18T09:10:07.28Z</time></trkpt><trkpt lat="43.7882033" lon="11.194875"><ele>40.33333333333333</ele><time>2026-04-18T09:10:08.282Z</time></trkpt><trkpt lat="43.78838" lon="11.1950083"><ele>41.0</ele><time>2026-04-18T09:10:09.281Z</time></trkpt><trkpt lat="43.788555" lon="11.1951317"><ele>41.0</ele><time>2026-04-18T09:10:10.28Z</time></trkpt><trkpt lat="43.7887267" lon="11.19526"><ele>41.0</ele><time>2026-04-18T09:10:11.28Z</time></trkpt><trkpt lat="43.78889" lon="11.1953833"><ele>41.0</ele><time>2026-04-18T09:10:12.28Z</time></trkpt><trkpt lat="43.7890467" lon="11.19551"><ele>41.0</ele><time>2026-04-18T09:10:13.281Z</time></trkpt><trkpt lat="43.7892" lon="11.1956317"><ele>41.0</ele><time>2026-04-18T09:10:14.28Z</time></trkpt><trkpt lat="43.7893467" lon="11.1957417"><ele>41.0</ele><time>2026-04-18T09:10:15.282Z</time></trkpt><trkpt lat="43.7894933" lon="11.195845"><ele>36.666666666666664</ele><time>2026-04-18T09:10:16.28Z</time></trkpt><trkpt lat="43.7896417" lon="11.19595"><ele>32.333333333333336</ele><time>2026-04-18T09:10:17.282Z</time></trkpt><trkpt lat="43.7897917" lon="11.1960533"><ele>28.0</ele><time>2026-04-18T09:10:18.281Z</time></trkpt><trkpt lat="43.7899383" lon="11.1961483"><ele>28.0</ele><time>2026-04-18T09:10:19.28Z</time></trkpt><trkpt lat="43.7900767" lon="11.19624"><ele>28.0</ele><time>2026-04-18T09:10:20.281Z</time></trkpt><trkpt lat="43.7902117" lon="11.1963233"><ele>28.0</ele><time>2026-04-18T09:10:21.28Z</time></trkpt><trkpt lat="43.79034" lon="11.1964217"><ele>28.0</ele><time>2026-04-18T09:10:22.279Z</time></trkpt><trkpt lat="43.7904683" lon="11.196515"><ele>28.75</ele><time>2026-04-18T09:10:23.281Z</time></trkpt><trkpt lat="43.7905983" lon="11.1966117"><ele>29.5</ele><time>2026-04-18T09:10:24.281Z</time></trkpt><trkpt lat="43.7907283" lon="11.1967117"><ele>30.25</ele><time>2026-04-18T09:10:25.281Z</time></trkpt><trkpt lat="43.79086" lon="11.19681"><ele>31.0</ele><time>2026-04-18T09:10:26.282Z</time></trkpt><trkpt lat="43.790995" lon="11.19691"><ele>33.0</ele><time>2026-04-18T09:10:27.281Z</time></trkpt><trkpt lat="43.79113" lon="11.1970117"><ele>35.0</ele><time>2026-04-18T09:10:28.281Z</time></trkpt><trkpt lat="43.7912633" lon="11.1971067"><ele>37.0</ele><time>2026-04-18T09:10:29.283Z</time></trkpt><trkpt lat="43.7913867" lon="11.1971933"><ele>39.0</ele><time>2026-04-18T09:10:30.281Z</time></trkpt><trkpt lat="43.7915067" lon="11.1972833"><ele>39.0</ele><time>2026-04-18T09:10:31.282Z</time></trkpt><trkpt lat="43.7916217" lon="11.1973683"><ele>39.0</ele><time>2026-04-18T09:10:32.28Z</time></trkpt><trkpt lat="43.7917317" lon="11.1974517"><ele>39.0</ele><time>2026-04-18T09:10:33.281Z</time></trkpt><trkpt lat="43.791845" lon="11.19753"><ele>39.0</ele><time>2026-04-18T09:10:34.28Z</time></trkpt><trkpt lat="43.791955" lon="11.1976017"><ele>39.6</ele><time>2026-04-18T09:10:35.281Z</time></trkpt><trkpt lat="43.7920583" lon="11.197675"><ele>40.2</ele><time>2026-04-18T09:10:36.282Z</time></trkpt><trkpt lat="43.79216" lon="11.197745"><ele>40.800000000000004</ele><time>2026-04-18T09:10:37.281Z</time></trkpt><trkpt lat="43.7922533" lon="11.1978117"><ele>41.4</ele><time>2026-04-18T09:10:38.282Z</time></trkpt><trkpt lat="43.7923483" lon="11.1978817"><ele>42.0</ele><time>2026-04-18T09:10:39.282Z</time></trkpt><trkpt lat="43.792455" lon="11.19796"><ele>42.0</ele><time>2026-04-18T09:10:40.282Z</time></trkpt><trkpt lat="43.7925717" lon="11.1980433"><ele>42.0</ele><time>2026-04-18T09:10:41.28Z</time></trkpt><trkpt lat="43.7927033" lon="11.1981367"><ele>42.0</ele><time>2026-04-18T09:10:42.281Z</time></trkpt><trkpt lat="43.7928433" lon="11.1982417"><ele>42.0</ele><time>2026-04-18T09:10:43.281Z</time></trkpt><trkpt lat="43.7929883" lon="11.198355"><ele>41.333333333333336</ele><time>2026-04-18T09:10:44.279Z</time></trkpt><trkpt lat="43.793145" lon="11.1984767"><ele>40.66666666666667</ele><time>2026-04-18T09:10:45.28Z</time></trkpt><trkpt lat="43.7933067" lon="11.1986"><ele>40.0</ele><time>2026-04-18T09:10:46.281Z</time></trkpt><trkpt lat="43.793475" lon="11.1987267"><ele>39.66666666666667</ele><time>2026-04-18T09:10:47.281Z</time></trkpt><trkpt lat="43.7936417" lon="11.1988633"><ele>39.333333333333336</ele><time>2026-04-18T09:10:48.28Z</time></trkpt><trkpt lat="43.793805" lon="11.1990167"><ele>39.0</ele><time>2026-04-18T09:10:49.281Z</time></trkpt><trkpt lat="43.793965" lon="11.1991833"><ele>39.0</ele><time>2026-04-18T09:10:50.281Z</time></trkpt><trkpt lat="43.7941167" lon="11.1993617"><ele>39.0</ele><time>2026-04-18T09:10:51.281Z</time></trkpt><trkpt lat="43.7942583" lon="11.1995517"><ele>39.0</ele><time>2026-04-18T09:10:52.28Z</time></trkpt><trkpt lat="43.79439" lon="11.1997567"><ele>40.333333333333336</ele><time>2026-04-18T09:10:53.282Z</time></trkpt><trkpt lat="43.79451" lon="11.1999683"><ele>41.66666666666667</ele><time>2026-04-18T09:10:54.281Z</time></trkpt><trkpt lat="43.7946233" lon="11.200185"><ele>43.0</ele><time>2026-04-18T09:10:55.282Z</time></trkpt><trkpt lat="43.7947317" lon="11.2004033"><ele>43.0</ele><time>2026-04-18T09:10:56.28Z</time></trkpt><trkpt lat="43.7948417" lon="11.2006167"><ele>43.0</ele><time>2026-04-18T09:10:57.279Z</time></trkpt><trkpt lat="43.7949517" lon="11.20083"><ele>43.0</ele><time>2026-04-18T09:10:58.282Z</time></trkpt><trkpt lat="43.7950583" lon="11.2010383"><ele>43.0</ele><time>2026-04-18T09:10:59.282Z</time></trkpt><trkpt lat="43.7951617" lon="11.2012417"><ele>43.0</ele><time>2026-04-18T09:11:00.279Z</time></trkpt><trkpt lat="43.7952667" lon="11.2014417"><ele>43.0</ele><time>2026-04-18T09:11:01.281Z</time></trkpt><trkpt lat="43.79537" lon="11.201635"><ele>42.0</ele><time>2026-04-18T09:11:02.281Z</time></trkpt><trkpt lat="43.7954717" lon="11.2018283"><ele>41.0</ele><time>2026-04-18T09:11:03.28Z</time></trkpt><trkpt lat="43.7955683" lon="11.2020267"><ele>40.0</ele><time>2026-04-18T09:11:04.281Z</time></trkpt><trkpt lat="43.79566" lon="11.2022167"><ele>40.333333333333336</ele><time>2026-04-18T09:11:05.282Z</time></trkpt><trkpt lat="43.79575" lon="11.2023983"><ele>40.666666666666664</ele><time>2026-04-18T09:11:06.283Z</time></trkpt><trkpt lat="43.79584" lon="11.2025733"><ele>41.0</ele><time>2026-04-18T09:11:07.281Z</time></trkpt><trkpt lat="43.795935" lon="11.2027383"><ele>40.666666666666664</ele><time>2026-04-18T09:11:08.282Z</time></trkpt><trkpt lat="43.7960383" lon="11.2028883"><ele>40.333333333333336</ele><time>2026-04-18T09:11:09.282Z</time></trkpt><trkpt lat="43.7961567" lon="11.2030183"><ele>40.0</ele><time>2026-04-18T09:11:10.28Z</time></trkpt><trkpt lat="43.796285" lon="11.2031383"><ele>40.25</ele><time>2026-04-18T09:11:11.281Z</time></trkpt><trkpt lat="43.7964233" lon="11.20322"><ele>40.5</ele><time>2026-04-18T09:11:12.282Z</time></trkpt><trkpt lat="43.7965667" lon="11.2032883"><ele>40.75</ele><time>2026-04-18T09:11:13.28Z</time></trkpt><trkpt lat="43.7967067" lon="11.2033517"><ele>41.0</ele><time>2026-04-18T09:11:14.282Z</time></trkpt><trkpt lat="43.7968483" lon="11.2034133"><ele>40.5</ele><time>2026-04-18T09:11:15.281Z</time></trkpt><trkpt lat="43.7969817" lon="11.2034667"><ele>40.0</ele><time>2026-04-18T09:11:16.282Z</time></trkpt><trkpt lat="43.797105" lon="11.2035217"><ele>39.5</ele><time>2026-04-18T09:11:17.282Z</time></trkpt><trkpt lat="43.797215" lon="11.20357"><ele>39.0</ele><time>2026-04-18T09:11:18.281Z</time></trkpt><trkpt lat="43.7973133" lon="11.2036283"><ele>39.0</ele><time>2026-04-18T09:11:19.282Z</time></trkpt><trkpt lat="43.797405" lon="11.203695"><ele>39.0</ele><time>2026-04-18T09:11:20.282Z</time></trkpt><trkpt lat="43.7974933" lon="11.2037617"><ele>39.0</ele><time>2026-04-18T09:11:21.282Z</time></trkpt><trkpt lat="43.7975833" lon="11.2038367"><ele>39.0</ele><time>2026-04-18T09:11:22.282Z</time></trkpt><trkpt lat="43.7976733" lon="11.203915"><ele>39.0</ele><time>2026-04-18T09:11:23.284Z</time></trkpt><trkpt lat="43.7977667" lon="11.2039933"><ele>39.4</ele><time>2026-04-18T09:11:24.282Z</time></trkpt><trkpt lat="43.7978617" lon="11.2040733"><ele>39.8</ele><time>2026-04-18T09:11:25.281Z</time></trkpt><trkpt lat="43.79795" lon="11.2041483"><ele>40.199999999999996</ele><time>2026-04-18T09:11:26.284Z</time></trkpt><trkpt lat="43.7980317" lon="11.204225"><ele>40.599999999999994</ele><time>2026-04-18T09:11:27.281Z</time></trkpt><trkpt lat="43.7981133" lon="11.2043"><ele>41.0</ele><time>2026-04-18T09:11:28.283Z</time></trkpt><trkpt lat="43.798195" lon="11.2043633"><ele>41.0</ele><time>2026-04-18T09:11:29.281Z</time></trkpt><trkpt lat="43.79828" lon="11.2044067"><ele>41.0</ele><time>2026-04-18T09:11:30.282Z</time></trkpt><trkpt lat="43.79836" lon="11.204425"><ele>41.0</ele><time>2026-04-18T09:11:31.282Z</time></trkpt><trkpt lat="43.7984333" lon="11.204425"><ele>41.0</ele><time>2026-04-18T09:11:32.28Z</time></trkpt><trkpt lat="43.7984967" lon="11.20441"><ele>41.0</ele><time>2026-04-18T09:11:33.281Z</time></trkpt><trkpt lat="43.798595" lon="11.2043717"><ele>41.0</ele><time>2026-04-18T09:11:35.28Z</time></trkpt><trkpt lat="43.7986667" lon="11.2043533"><ele>40.83333333333333</ele><time>2026-04-18T09:11:37.28Z</time></trkpt><trkpt lat="43.7987333" lon="11.2042983"><ele>40.666666666666664</ele><time>2026-04-18T09:11:47.284Z</time></trkpt><trkpt lat="43.7988333" lon="11.2042617"><ele>40.5</ele><time>2026-04-18T09:11:49.28Z</time></trkpt><trkpt lat="43.798905" lon="11.204235"><ele>40.333333333333336</ele><time>2026-04-18T09:11:50.281Z</time></trkpt><trkpt lat="43.7989883" lon="11.20421"><ele>40.16666666666667</ele><time>2026-04-18T09:11:51.28Z</time></trkpt><trkpt lat="43.799085" lon="11.2041667"><ele>40.0</ele><time>2026-04-18T09:11:52.281Z</time></trkpt><trkpt lat="43.7991933" lon="11.204115"><ele>40.0</ele><time>2026-04-18T09:11:53.281Z</time></trkpt><trkpt lat="43.7993033" lon="11.2040483"><ele>40.0</ele><time>2026-04-18T09:11:54.281Z</time></trkpt><trkpt lat="43.7994117" lon="11.2039767"><ele>40.0</ele><time>2026-04-18T09:11:55.281Z</time></trkpt><trkpt lat="43.79952" lon="11.2039067"><ele>40.0</ele><time>2026-04-18T09:11:56.281Z</time></trkpt><trkpt lat="43.799625" lon="11.2038383"><ele>39.6</ele><time>2026-04-18T09:11:57.281Z</time></trkpt><trkpt lat="43.79972" lon="11.2037767"><ele>39.2</ele><time>2026-04-18T09:11:58.282Z</time></trkpt><trkpt lat="43.7998067" lon="11.203725"><ele>38.8</ele><time>2026-04-18T09:11:59.281Z</time></trkpt><trkpt lat="43.7999" lon="11.2037017"><ele>38.4</ele><time>2026-04-18T09:12:00.281Z</time></trkpt><trkpt lat="43.7999867" lon="11.2037083"><ele>38.0</ele><time>2026-04-18T09:12:01.28Z</time></trkpt><trkpt lat="43.8000667" lon="11.2037417"><ele>38.0</ele><time>2026-04-18T09:12:02.28Z</time></trkpt><trkpt lat="43.8001333" lon="11.2037817"><ele>38.0</ele><time>2026-04-18T09:12:03.281Z</time></trkpt><trkpt lat="43.8001917" lon="11.2038767"><ele>38.0</ele><time>2026-04-18T09:12:05.28Z</time></trkpt><trkpt lat="43.8002" lon="11.204045"><ele>38.0</ele><time>2026-04-18T09:12:07.281Z</time></trkpt><trkpt lat="43.8002133" lon="11.20421"><ele>38.0</ele><time>2026-04-18T09:12:08.283Z</time></trkpt><trkpt lat="43.8002267" lon="11.2043983"><ele>38.666666666666664</ele><time>2026-04-18T09:12:09.28Z</time></trkpt><trkpt lat="43.8002417" lon="11.2046167"><ele>39.333333333333336</ele><time>2026-04-18T09:12:10.281Z</time></trkpt><trkpt lat="43.800255" lon="11.2048417"><ele>40.0</ele><time>2026-04-18T09:12:11.281Z</time></trkpt><trkpt lat="43.8002683" lon="11.20508"><ele>40.0</ele><time>2026-04-18T09:12:12.282Z</time></trkpt><trkpt lat="43.80028" lon="11.2053283"><ele>40.0</ele><time>2026-04-18T09:12:13.28Z</time></trkpt><trkpt lat="43.80029" lon="11.205565"><ele>40.0</ele><time>2026-04-18T09:12:14.28Z</time></trkpt><trkpt lat="43.8002967" lon="11.2057983"><ele>39.0</ele><time>2026-04-18T09:12:15.288Z</time></trkpt><trkpt lat="43.8002983" lon="11.206015"><ele>38.0</ele><time>2026-04-18T09:12:16.28Z</time></trkpt><trkpt lat="43.8002833" lon="11.2062067"><ele>37.0</ele><time>2026-04-18T09:12:17.28Z</time></trkpt><trkpt lat="43.800255" lon="11.2063917"><ele>36.0</ele><time>2026-04-18T09:12:18.28Z</time></trkpt><trkpt lat="43.8002167" lon="11.2065633"><ele>36.0</ele><time>2026-04-18T09:12:19.279Z</time></trkpt><trkpt lat="43.8001733" lon="11.2067283"><ele>36.0</ele><time>2026-04-18T09:12:20.281Z</time></trkpt><trkpt lat="43.8001217" lon="11.2068933"><ele>36.0</ele><time>2026-04-18T09:12:21.279Z</time></trkpt><trkpt lat="43.8000633" lon="11.2070583"><ele>36.0</ele><time>2026-04-18T09:12:22.281Z</time></trkpt><trkpt lat="43.8" lon="11.207225"><ele>36.5</ele><time>2026-04-18T09:12:23.28Z</time></trkpt><trkpt lat="43.7999367" lon="11.2073967"><ele>37.0</ele><time>2026-04-18T09:12:24.28Z</time></trkpt><trkpt lat="43.7998667" lon="11.2075683"><ele>37.5</ele><time>2026-04-18T09:12:25.282Z</time></trkpt><trkpt lat="43.7998" lon="11.2077417"><ele>38.0</ele><time>2026-04-18T09:12:26.28Z</time></trkpt><trkpt lat="43.79973" lon="11.20792"><ele>38.0</ele><time>2026-04-18T09:12:27.281Z</time></trkpt><trkpt lat="43.7996583" lon="11.2081017"><ele>38.0</ele><time>2026-04-18T09:12:28.279Z</time></trkpt><trkpt lat="43.7995983" lon="11.2082883"><ele>38.0</ele><time>2026-04-18T09:12:29.279Z</time></trkpt><trkpt lat="43.7995283" lon="11.2084767"><ele>38.0</ele><time>2026-04-18T09:12:30.281Z</time></trkpt><trkpt lat="43.799465" lon="11.2086667"><ele>38.0</ele><time>2026-04-18T09:12:31.28Z</time></trkpt><trkpt lat="43.799405" lon="11.2088333"><ele>38.0</ele><time>2026-04-18T09:12:32.281Z</time></trkpt><trkpt lat="43.7993483" lon="11.20899"><ele>38.0</ele><time>2026-04-18T09:12:33.28Z</time></trkpt><trkpt lat="43.7992967" lon="11.20913"><ele>38.166666666666664</ele><time>2026-04-18T09:12:34.282Z</time></trkpt><trkpt lat="43.7992483" lon="11.2092583"><ele>38.33333333333333</ele><time>2026-04-18T09:12:35.282Z</time></trkpt><trkpt lat="43.7992083" lon="11.209375"><ele>38.5</ele><time>2026-04-18T09:12:36.283Z</time></trkpt><trkpt lat="43.79917" lon="11.209485"><ele>38.666666666666664</ele><time>2026-04-18T09:12:37.28Z</time></trkpt><trkpt lat="43.7991467" lon="11.2095867"><ele>38.833333333333336</ele><time>2026-04-18T09:12:38.281Z</time></trkpt><trkpt lat="43.799135" lon="11.2096817"><ele>39.0</ele><time>2026-04-18T09:12:39.281Z</time></trkpt><trkpt lat="43.7991417" lon="11.2097767"><ele>38.8</ele><time>2026-04-18T09:12:40.282Z</time></trkpt><trkpt lat="43.79916" lon="11.209875"><ele>38.599999999999994</ele><time>2026-04-18T09:12:41.281Z</time></trkpt><trkpt lat="43.7992" lon="11.2099783"><ele>38.4</ele><time>2026-04-18T09:12:42.282Z</time></trkpt><trkpt lat="43.7992733" lon="11.2100917"><ele>38.199999999999996</ele><time>2026-04-18T09:12:43.281Z</time></trkpt><trkpt lat="43.7993617" lon="11.2101867"><ele>38.0</ele><time>2026-04-18T09:12:44.282Z</time></trkpt><trkpt lat="43.79946" lon="11.2102817"><ele>37.75</ele><time>2026-04-18T09:12:45.281Z</time></trkpt><trkpt lat="43.799565" lon="11.2103833"><ele>37.5</ele><time>2026-04-18T09:12:46.281Z</time></trkpt><trkpt lat="43.7996717" lon="11.2104767"><ele>37.25</ele><time>2026-04-18T09:12:47.28Z</time></trkpt><trkpt lat="43.7997833" lon="11.2105767"><ele>37.0</ele><time>2026-04-18T09:12:48.281Z</time></trkpt><trkpt lat="43.7999" lon="11.21069"><ele>37.0</ele><time>2026-04-18T09:12:49.282Z</time></trkpt><trkpt lat="43.8000267" lon="11.2108017"><ele>37.0</ele><time>2026-04-18T09:12:50.282Z</time></trkpt><trkpt lat="43.80016" lon="11.2109233"><ele>37.0</ele><time>2026-04-18T09:12:51.279Z</time></trkpt><trkpt lat="43.8002967" lon="11.2110567"><ele>37.333333333333336</ele><time>2026-04-18T09:12:52.28Z</time></trkpt><trkpt lat="43.8004333" lon="11.2111917"><ele>37.666666666666664</ele><time>2026-04-18T09:12:53.28Z</time></trkpt><trkpt lat="43.800565" lon="11.2113283"><ele>38.0</ele><time>2026-04-18T09:12:54.282Z</time></trkpt><trkpt lat="43.8006933" lon="11.2114517"><ele>38.0</ele><time>2026-04-18T09:12:55.28Z</time></trkpt><trkpt lat="43.8008167" lon="11.2115483"><ele>38.0</ele><time>2026-04-18T09:12:56.28Z</time></trkpt><trkpt lat="43.8009433" lon="11.2115983"><ele>38.0</ele><time>2026-04-18T09:12:57.281Z</time></trkpt><trkpt lat="43.8010683" lon="11.2116167"><ele>38.0</ele><time>2026-04-18T09:12:58.281Z</time></trkpt><trkpt lat="43.8011883" lon="11.2115867"><ele>38.0</ele><time>2026-04-18T09:12:59.281Z</time></trkpt><trkpt lat="43.80129" lon="11.2115017"><ele>38.0</ele><time>2026-04-18T09:13:00.279Z</time></trkpt><trkpt lat="43.80139" lon="11.211415"><ele>38.0</ele><time>2026-04-18T09:13:01.281Z</time></trkpt><trkpt lat="43.801455" lon="11.2113017"><ele>38.0</ele><time>2026-04-18T09:13:02.282Z</time></trkpt><trkpt lat="43.801495" lon="11.21115"><ele>37.666666666666664</ele><time>2026-04-18T09:13:03.28Z</time></trkpt><trkpt lat="43.801455" lon="11.210915"><ele>37.333333333333336</ele><time>2026-04-18T09:13:04.279Z</time></trkpt><trkpt lat="43.8014017" lon="11.2106683"><ele>37.0</ele><time>2026-04-18T09:13:05.28Z</time></trkpt><trkpt lat="43.8013417" lon="11.2104133"><ele>38.0</ele><time>2026-04-18T09:13:06.281Z</time></trkpt><trkpt lat="43.80129" lon="11.21016"><ele>39.0</ele><time>2026-04-18T09:13:07.281Z</time></trkpt><trkpt lat="43.8012383" lon="11.2099"><ele>40.0</ele><time>2026-04-18T09:13:08.281Z</time></trkpt><trkpt lat="43.8011967" lon="11.2096267"><ele>40.0</ele><time>2026-04-18T09:13:09.279Z</time></trkpt><trkpt lat="43.80116" lon="11.2093467"><ele>40.0</ele><time>2026-04-18T09:13:10.281Z</time></trkpt><trkpt lat="43.80113" lon="11.2090683"><ele>40.0</ele><time>2026-04-18T09:13:11.281Z</time></trkpt><trkpt lat="43.80111" lon="11.2087917"><ele>40.333333333333336</ele><time>2026-04-18T09:13:12.281Z</time></trkpt><trkpt lat="43.8010967" lon="11.20851"><ele>40.666666666666664</ele><time>2026-04-18T09:13:13.282Z</time></trkpt><trkpt lat="43.8010833" lon="11.2082267"><ele>41.0</ele><time>2026-04-18T09:13:14.281Z</time></trkpt><trkpt lat="43.80107" lon="11.2079467"><ele>41.0</ele><time>2026-04-18T09:13:15.281Z</time></trkpt><trkpt lat="43.8010533" lon="11.2076617"><ele>41.0</ele><time>2026-04-18T09:13:16.281Z</time></trkpt><trkpt lat="43.8010383" lon="11.207375"><ele>41.0</ele><time>2026-04-18T09:13:17.282Z</time></trkpt><trkpt lat="43.8010183" lon="11.20709"><ele>39.33333333333333</ele><time>2026-04-18T09:13:18.282Z</time></trkpt><trkpt lat="43.8009983" lon="11.20681"><ele>37.666666666666664</ele><time>2026-04-18T09:13:19.28Z</time></trkpt><trkpt lat="43.8009817" lon="11.20654"><ele>36.0</ele><time>2026-04-18T09:13:20.28Z</time></trkpt><trkpt lat="43.8009683" lon="11.2062783"><ele>36.0</ele><time>2026-04-18T09:13:21.281Z</time></trkpt><trkpt lat="43.8009683" lon="11.2060267"><ele>36.0</ele><time>2026-04-18T09:13:22.282Z</time></trkpt><trkpt lat="43.8009733" lon="11.2057783"><ele>36.0</ele><time>2026-04-18T09:13:23.282Z</time></trkpt><trkpt lat="43.8009883" lon="11.2055467"><ele>37.333333333333336</ele><time>2026-04-18T09:13:24.281Z</time></trkpt><trkpt lat="43.801" lon="11.2053233"><ele>38.66666666666667</ele><time>2026-04-18T09:13:25.28Z</time></trkpt><trkpt lat="43.8010083" lon="11.2051067"><ele>40.0</ele><time>2026-04-18T09:13:26.281Z</time></trkpt><trkpt lat="43.801015" lon="11.204895"><ele>39.75</ele><time>2026-04-18T09:13:27.281Z</time></trkpt><trkpt lat="43.801015" lon="11.204685"><ele>39.5</ele><time>2026-04-18T09:13:28.281Z</time></trkpt><trkpt lat="43.80101" lon="11.2044783"><ele>39.25</ele><time>2026-04-18T09:13:29.282Z</time></trkpt><trkpt lat="43.8010067" lon="11.2042783"><ele>39.0</ele><time>2026-04-18T09:13:30.281Z</time></trkpt><trkpt lat="43.8010067" lon="11.20408"><ele>38.75</ele><time>2026-04-18T09:13:31.283Z</time></trkpt><trkpt lat="43.8010067" lon="11.203885"><ele>38.5</ele><time>2026-04-18T09:13:32.281Z</time></trkpt><trkpt lat="43.8010083" lon="11.2036967"><ele>38.25</ele><time>2026-04-18T09:13:33.282Z</time></trkpt><trkpt lat="43.8010017" lon="11.2035183"><ele>38.0</ele><time>2026-04-18T09:13:34.281Z</time></trkpt><trkpt lat="43.8009983" lon="11.2033617"><ele>38.0</ele><time>2026-04-18T09:13:35.28Z</time></trkpt><trkpt lat="43.8009933" lon="11.2032283"><ele>38.0</ele><time>2026-04-18T09:13:36.281Z</time></trkpt><trkpt lat="43.8009917" lon="11.203125"><ele>38.0</ele><time>2026-04-18T09:13:37.281Z</time></trkpt><trkpt lat="43.8009883" lon="11.2029583"><ele>38.0</ele><time>2026-04-18T09:13:39.281Z</time></trkpt><trkpt lat="43.800995" lon="11.2027733"><ele>38.0</ele><time>2026-04-18T09:13:41.281Z</time></trkpt><trkpt lat="43.8009967" lon="11.20265"><ele>38.0</ele><time>2026-04-18T09:13:42.28Z</time></trkpt><trkpt lat="43.801" lon="11.2025133"><ele>38.0</ele><time>2026-04-18T09:13:43.28Z</time></trkpt><trkpt lat="43.800995" lon="11.2023517"><ele>38.0</ele><time>2026-04-18T09:13:44.283Z</time></trkpt><trkpt lat="43.8009833" lon="11.2021767"><ele>38.0</ele><time>2026-04-18T09:13:45.28Z</time></trkpt><trkpt lat="43.8009717" lon="11.20199"><ele>38.0</ele><time>2026-04-18T09:13:46.281Z</time></trkpt><trkpt lat="43.80097" lon="11.201785"><ele>38.0</ele><time>2026-04-18T09:13:47.279Z</time></trkpt><trkpt lat="43.80097" lon="11.201575"><ele>38.0</ele><time>2026-04-18T09:13:48.282Z</time></trkpt><trkpt lat="43.8009867" lon="11.2013567"><ele>38.0</ele><time>2026-04-18T09:13:49.281Z</time></trkpt><trkpt lat="43.801025" lon="11.2011433"><ele>38.0</ele><time>2026-04-18T09:13:50.281Z</time></trkpt><trkpt lat="43.8010917" lon="11.2009467"><ele>38.0</ele><time>2026-04-18T09:13:51.281Z</time></trkpt><trkpt lat="43.8011833" lon="11.200755"><ele>38.0</ele><time>2026-04-18T09:13:52.281Z</time></trkpt><trkpt lat="43.801295" lon="11.200565"><ele>38.0</ele><time>2026-04-18T09:13:53.282Z</time></trkpt><trkpt lat="43.8014183" lon="11.2003683"><ele>38.0</ele><time>2026-04-18T09:13:54.28Z</time></trkpt><trkpt lat="43.8015483" lon="11.2001683"><ele>38.0</ele><time>2026-04-18T09:13:55.282Z</time></trkpt><trkpt lat="43.8016767" lon="11.1999633"><ele>38.0</ele><time>2026-04-18T09:13:56.281Z</time></trkpt><trkpt lat="43.8018033" lon="11.1997567"><ele>38.0</ele><time>2026-04-18T09:13:57.282Z</time></trkpt><trkpt lat="43.8019367" lon="11.1995467"><ele>38.33333333333333</ele><time>2026-04-18T09:13:58.28Z</time></trkpt><trkpt lat="43.802075" lon="11.1993233"><ele>38.666666666666664</ele><time>2026-04-18T09:13:59.28Z</time></trkpt><trkpt lat="43.8022167" lon="11.1990967"><ele>39.0</ele><time>2026-04-18T09:14:00.281Z</time></trkpt><trkpt lat="43.80236" lon="11.19887"><ele>38.666666666666664</ele><time>2026-04-18T09:14:01.282Z</time></trkpt><trkpt lat="43.8025083" lon="11.1986417"><ele>38.33333333333333</ele><time>2026-04-18T09:14:02.281Z</time></trkpt><trkpt lat="43.80266" lon="11.19841"><ele>38.0</ele><time>2026-04-18T09:14:03.282Z</time></trkpt><trkpt lat="43.8028117" lon="11.19818"><ele>37.5</ele><time>2026-04-18T09:14:04.281Z</time></trkpt><trkpt lat="43.8029633" lon="11.1979467"><ele>37.0</ele><time>2026-04-18T09:14:05.281Z</time></trkpt><trkpt lat="43.803115" lon="11.197715"><ele>37.0</ele><time>2026-04-18T09:14:06.281Z</time></trkpt><trkpt lat="43.8032617" lon="11.1974883"><ele>37.0</ele><time>2026-04-18T09:14:07.281Z</time></trkpt><trkpt lat="43.8034083" lon="11.1972633"><ele>37.0</ele><time>2026-04-18T09:14:08.281Z</time></trkpt><trkpt lat="43.803555" lon="11.197035"><ele>37.333333333333336</ele><time>2026-04-18T09:14:09.281Z</time></trkpt><trkpt lat="43.8036983" lon="11.1968033"><ele>37.666666666666664</ele><time>2026-04-18T09:14:10.281Z</time></trkpt><trkpt lat="43.8038467" lon="11.1965667"><ele>38.0</ele><time>2026-04-18T09:14:11.281Z</time></trkpt><trkpt lat="43.803995" lon="11.1963217"><ele>38.0</ele><time>2026-04-18T09:14:12.28Z</time></trkpt><trkpt lat="43.8041483" lon="11.19607"><ele>38.0</ele><time>2026-04-18T09:14:13.28Z</time></trkpt><trkpt lat="43.8043083" lon="11.1958117"><ele>36.5</ele><time>2026-04-18T09:14:14.28Z</time></trkpt><trkpt lat="43.8044733" lon="11.19555"><ele>35.0</ele><time>2026-04-18T09:14:15.28Z</time></trkpt><trkpt lat="43.8046417" lon="11.1952883"><ele>35.0</ele><time>2026-04-18T09:14:16.28Z</time></trkpt><trkpt lat="43.8048133" lon="11.1950267"><ele>35.0</ele><time>2026-04-18T09:14:17.279Z</time></trkpt><trkpt lat="43.8049883" lon="11.1947683"><ele>35.5</ele><time>2026-04-18T09:14:18.28Z</time></trkpt><trkpt lat="43.8051633" lon="11.1945117"><ele>36.0</ele><time>2026-04-18T09:14:19.28Z</time></trkpt><trkpt lat="43.8053383" lon="11.1942567"><ele>36.0</ele><time>2026-04-18T09:14:20.28Z</time></trkpt><trkpt lat="43.8055067" lon="11.1940033"><ele>36.0</ele><time>2026-04-18T09:14:21.28Z</time></trkpt><trkpt lat="43.8056733" lon="11.1937533"><ele>36.0</ele><time>2026-04-18T09:14:22.28Z</time></trkpt><trkpt lat="43.80584" lon="11.1935033"><ele>36.0</ele><time>2026-04-18T09:14:23.282Z</time></trkpt><trkpt lat="43.8060017" lon="11.1932533"><ele>36.0</ele><time>2026-04-18T09:14:24.28Z</time></trkpt><trkpt lat="43.8061633" lon="11.1930083"><ele>36.0</ele><time>2026-04-18T09:14:25.281Z</time></trkpt><trkpt lat="43.8063233" lon="11.1927633"><ele>36.0</ele><time>2026-04-18T09:14:26.28Z</time></trkpt><trkpt lat="43.8064817" lon="11.1925233"><ele>36.0</ele><time>2026-04-18T09:14:27.282Z</time></trkpt><trkpt lat="43.8066367" lon="11.1922817"><ele>36.0</ele><time>2026-04-18T09:14:28.28Z</time></trkpt><trkpt lat="43.80679" lon="11.1920433"><ele>36.0</ele><time>2026-04-18T09:14:29.281Z</time></trkpt><trkpt lat="43.8069517" lon="11.1918"><ele>36.0</ele><time>2026-04-18T09:14:30.28Z</time></trkpt><trkpt lat="43.8071083" lon="11.191555"><ele>36.0</ele><time>2026-04-18T09:14:31.279Z</time></trkpt><trkpt lat="43.8072683" lon="11.1913083"><ele>37.0</ele><time>2026-04-18T09:14:32.28Z</time></trkpt><trkpt lat="43.8074283" lon="11.19106"><ele>38.0</ele><time>2026-04-18T09:14:33.281Z</time></trkpt><trkpt lat="43.80759" lon="11.1908083"><ele>38.0</ele><time>2026-04-18T09:14:34.279Z</time></trkpt><trkpt lat="43.8077533" lon="11.1905567"><ele>38.0</ele><time>2026-04-18T09:14:35.282Z</time></trkpt><trkpt lat="43.807915" lon="11.1903017"><ele>38.0</ele><time>2026-04-18T09:14:36.281Z</time></trkpt><trkpt lat="43.8080783" lon="11.1900483"><ele>38.0</ele><time>2026-04-18T09:14:37.281Z</time></trkpt><trkpt lat="43.8082417" lon="11.18979"><ele>37.0</ele><time>2026-04-18T09:14:38.281Z</time></trkpt><trkpt lat="43.8084083" lon="11.1895317"><ele>36.0</ele><time>2026-04-18T09:14:39.28Z</time></trkpt><trkpt lat="43.8085717" lon="11.1892767"><ele>36.0</ele><time>2026-04-18T09:14:40.281Z</time></trkpt><trkpt lat="43.8087333" lon="11.18902"><ele>36.0</ele><time>2026-04-18T09:14:41.282Z</time></trkpt><trkpt lat="43.8089" lon="11.1887667"><ele>37.0</ele><time>2026-04-18T09:14:42.28Z</time></trkpt><trkpt lat="43.8090667" lon="11.18852"><ele>38.0</ele><time>2026-04-18T09:14:43.283Z</time></trkpt><trkpt lat="43.8092317" lon="11.1882733"><ele>36.5</ele><time>2026-04-18T09:14:44.281Z</time></trkpt><trkpt lat="43.809395" lon="11.1880267"><ele>35.0</ele><time>2026-04-18T09:14:45.282Z</time></trkpt><trkpt lat="43.80956" lon="11.1877883"><ele>35.0</ele><time>2026-04-18T09:14:46.279Z</time></trkpt><trkpt lat="43.80972" lon="11.18755"><ele>35.0</ele><time>2026-04-18T09:14:47.281Z</time></trkpt><trkpt lat="43.80988" lon="11.187315"><ele>34.666666666666664</ele><time>2026-04-18T09:14:48.281Z</time></trkpt><trkpt lat="43.8100317" lon="11.18709"><ele>34.333333333333336</ele><time>2026-04-18T09:14:49.281Z</time></trkpt><trkpt lat="43.810185" lon="11.18687"><ele>34.0</ele><time>2026-04-18T09:14:50.281Z</time></trkpt><trkpt lat="43.8103333" lon="11.1866517"><ele>34.66666666666667</ele><time>2026-04-18T09:14:51.28Z</time></trkpt><trkpt lat="43.8104783" lon="11.18644"><ele>35.333333333333336</ele><time>2026-04-18T09:14:52.279Z</time></trkpt><trkpt lat="43.8106267" lon="11.1862417"><ele>36.0</ele><time>2026-04-18T09:14:53.28Z</time></trkpt><trkpt lat="43.8107783" lon="11.1860667"><ele>36.0</ele><time>2026-04-18T09:14:54.278Z</time></trkpt><trkpt lat="43.8109367" lon="11.1859183"><ele>36.0</ele><time>2026-04-18T09:14:55.279Z</time></trkpt><trkpt lat="43.8111017" lon="11.1857983"><ele>36.0</ele><time>2026-04-18T09:14:56.281Z</time></trkpt><trkpt lat="43.8112733" lon="11.1857083"><ele>35.666666666666664</ele><time>2026-04-18T09:14:57.281Z</time></trkpt><trkpt lat="43.81145" lon="11.18565"><ele>35.33333333333333</ele><time>2026-04-18T09:14:58.279Z</time></trkpt><trkpt lat="43.8116283" lon="11.1856183"><ele>35.0</ele><time>2026-04-18T09:14:59.281Z</time></trkpt><trkpt lat="43.8118017" lon="11.1856183"><ele>35.0</ele><time>2026-04-18T09:15:00.279Z</time></trkpt><trkpt lat="43.811965" lon="11.18564"><ele>35.0</ele><time>2026-04-18T09:15:01.28Z</time></trkpt><trkpt lat="43.8121233" lon="11.1856767"><ele>35.0</ele><time>2026-04-18T09:15:02.281Z</time></trkpt><trkpt lat="43.8122733" lon="11.1857233"><ele>34.75</ele><time>2026-04-18T09:15:03.281Z</time></trkpt><trkpt lat="43.81241" lon="11.1857717"><ele>34.5</ele><time>2026-04-18T09:15:04.28Z</time></trkpt><trkpt lat="43.8125417" lon="11.1858167"><ele>34.25</ele><time>2026-04-18T09:15:05.281Z</time></trkpt><trkpt lat="43.812665" lon="11.1858583"><ele>34.0</ele><time>2026-04-18T09:15:06.28Z</time></trkpt><trkpt lat="43.8127817" lon="11.1858983"><ele>34.8</ele><time>2026-04-18T09:15:07.281Z</time></trkpt><trkpt lat="43.812895" lon="11.185935"><ele>35.599999999999994</ele><time>2026-04-18T09:15:08.28Z</time></trkpt><trkpt lat="43.8130017" lon="11.185975"><ele>36.4</ele><time>2026-04-18T09:15:09.28Z</time></trkpt><trkpt lat="43.8131083" lon="11.186015"><ele>37.199999999999996</ele><time>2026-04-18T09:15:10.279Z</time></trkpt><trkpt lat="43.8132133" lon="11.186065"><ele>38.0</ele><time>2026-04-18T09:15:11.28Z</time></trkpt><trkpt lat="43.8133167" lon="11.186115"><ele>38.0</ele><time>2026-04-18T09:15:12.28Z</time></trkpt><trkpt lat="43.8134217" lon="11.18617"><ele>38.0</ele><time>2026-04-18T09:15:13.281Z</time></trkpt><trkpt lat="43.8135233" lon="11.1862317"><ele>38.0</ele><time>2026-04-18T09:15:14.28Z</time></trkpt><trkpt lat="43.8136217" lon="11.186295"><ele>38.0</ele><time>2026-04-18T09:15:15.281Z</time></trkpt><trkpt lat="43.8137133" lon="11.18636"><ele>38.0</ele><time>2026-04-18T09:15:16.281Z</time></trkpt><trkpt lat="43.8137983" lon="11.1864267"><ele>38.33333333333333</ele><time>2026-04-18T09:15:17.282Z</time></trkpt><trkpt lat="43.8138767" lon="11.1864883"><ele>38.666666666666664</ele><time>2026-04-18T09:15:18.28Z</time></trkpt><trkpt lat="43.8139483" lon="11.18655"><ele>39.0</ele><time>2026-04-18T09:15:19.281Z</time></trkpt><trkpt lat="43.8140183" lon="11.1866067"><ele>39.333333333333336</ele><time>2026-04-18T09:15:20.28Z</time></trkpt><trkpt lat="43.8140767" lon="11.1866583"><ele>39.66666666666667</ele><time>2026-04-18T09:15:21.281Z</time></trkpt><trkpt lat="43.8141667" lon="11.1867267"><ele>40.0</ele><time>2026-04-18T09:15:23.281Z</time></trkpt><trkpt lat="43.8142317" lon="11.1867767"><ele>40.0</ele><time>2026-04-18T09:15:25.28Z</time></trkpt><trkpt lat="43.814295" lon="11.18683"><ele>40.0</ele><time>2026-04-18T09:15:27.28Z</time></trkpt><trkpt lat="43.814395" lon="11.1869017"><ele>40.0</ele><time>2026-04-18T09:15:29.279Z</time></trkpt><trkpt lat="43.8144667" lon="11.1869383"><ele>40.0</ele><time>2026-04-18T09:15:30.281Z</time></trkpt><trkpt lat="43.8145467" lon="11.18698"><ele>40.0</ele><time>2026-04-18T09:15:31.281Z</time></trkpt><trkpt lat="43.8146317" lon="11.1870217"><ele>40.0</ele><time>2026-04-18T09:15:32.28Z</time></trkpt><trkpt lat="43.8147267" lon="11.1870667"><ele>40.0</ele><time>2026-04-18T09:15:33.28Z</time></trkpt><trkpt lat="43.8148283" lon="11.1871083"><ele>40.0</ele><time>2026-04-18T09:15:34.28Z</time></trkpt><trkpt lat="43.8149283" lon="11.1871383"><ele>40.0</ele><time>2026-04-18T09:15:35.28Z</time></trkpt><trkpt lat="43.8150283" lon="11.1871517"><ele>40.0</ele><time>2026-04-18T09:15:36.28Z</time></trkpt><trkpt lat="43.8151233" lon="11.187155"><ele>40.0</ele><time>2026-04-18T09:15:37.281Z</time></trkpt><trkpt lat="43.815215" lon="11.1871483"><ele>40.0</ele><time>2026-04-18T09:15:38.281Z</time></trkpt><trkpt lat="43.815305" lon="11.1871283"><ele>40.0</ele><time>2026-04-18T09:15:39.28Z</time></trkpt><trkpt lat="43.8153983" lon="11.1871033"><ele>40.0</ele><time>2026-04-18T09:15:40.279Z</time></trkpt><trkpt lat="43.815495" lon="11.1870667"><ele>40.0</ele><time>2026-04-18T09:15:41.281Z</time></trkpt><trkpt lat="43.8156" lon="11.18703"><ele>40.0</ele><time>2026-04-18T09:15:42.281Z</time></trkpt><trkpt lat="43.8157033" lon="11.1869917"><ele>40.0</ele><time>2026-04-18T09:15:43.281Z</time></trkpt><trkpt lat="43.81581" lon="11.1869583"><ele>40.0</ele><time>2026-04-18T09:15:44.281Z</time></trkpt><trkpt lat="43.8159167" lon="11.18692"><ele>40.0</ele><time>2026-04-18T09:15:45.28Z</time></trkpt><trkpt lat="43.8160317" lon="11.186895"><ele>40.0</ele><time>2026-04-18T09:15:46.28Z</time></trkpt><trkpt lat="43.8161467" lon="11.186865"><ele>39.5</ele><time>2026-04-18T09:15:47.281Z</time></trkpt><trkpt lat="43.8162683" lon="11.18686"><ele>39.0</ele><time>2026-04-18T09:15:48.281Z</time></trkpt><trkpt lat="43.8163867" lon="11.1868683"><ele>38.5</ele><time>2026-04-18T09:15:49.28Z</time></trkpt><trkpt lat="43.8165067" lon="11.1868867"><ele>38.0</ele><time>2026-04-18T09:15:50.28Z</time></trkpt><trkpt lat="43.8166167" lon="11.186915"><ele>38.0</ele><time>2026-04-18T09:15:51.28Z</time></trkpt><trkpt lat="43.81672" lon="11.18695"><ele>38.0</ele><time>2026-04-18T09:15:52.281Z</time></trkpt><trkpt lat="43.81683" lon="11.1869983"><ele>38.0</ele><time>2026-04-18T09:15:53.28Z</time></trkpt><trkpt lat="43.8169383" lon="11.1870567"><ele>38.0</ele><time>2026-04-18T09:15:54.281Z</time></trkpt><trkpt lat="43.8170433" lon="11.1871283"><ele>37.75</ele><time>2026-04-18T09:15:55.28Z</time></trkpt><trkpt lat="43.8171417" lon="11.1872083"><ele>37.5</ele><time>2026-04-18T09:15:56.28Z</time></trkpt><trkpt lat="43.81724" lon="11.1872883"><ele>37.25</ele><time>2026-04-18T09:15:57.281Z</time></trkpt><trkpt lat="43.8173367" lon="11.1873767"><ele>37.0</ele><time>2026-04-18T09:15:58.28Z</time></trkpt><trkpt lat="43.8174333" lon="11.1874633"><ele>36.75</ele><time>2026-04-18T09:15:59.28Z</time></trkpt><trkpt lat="43.81753" lon="11.1875483"><ele>36.5</ele><time>2026-04-18T09:16:00.281Z</time></trkpt><trkpt lat="43.8176267" lon="11.1876317"><ele>36.25</ele><time>2026-04-18T09:16:01.281Z</time></trkpt><trkpt lat="43.81772" lon="11.1877167"><ele>36.0</ele><time>2026-04-18T09:16:02.28Z</time></trkpt><trkpt lat="43.817815" lon="11.1877967"><ele>36.0</ele><time>2026-04-18T09:16:03.281Z</time></trkpt><trkpt lat="43.8179117" lon="11.1878817"><ele>36.0</ele><time>2026-04-18T09:16:04.28Z</time></trkpt><trkpt lat="43.81801" lon="11.1879667"><ele>36.0</ele><time>2026-04-18T09:16:05.28Z</time></trkpt><trkpt lat="43.8181067" lon="11.18805"><ele>36.0</ele><time>2026-04-18T09:16:06.281Z</time></trkpt><trkpt lat="43.8182017" lon="11.1881317"><ele>36.4</ele><time>2026-04-18T09:16:07.28Z</time></trkpt><trkpt lat="43.8182933" lon="11.18822"><ele>36.8</ele><time>2026-04-18T09:16:08.28Z</time></trkpt><trkpt lat="43.8183833" lon="11.1883067"><ele>37.199999999999996</ele><time>2026-04-18T09:16:09.28Z</time></trkpt><trkpt lat="43.81847" lon="11.1883867"><ele>37.6</ele><time>2026-04-18T09:16:10.28Z</time></trkpt><trkpt lat="43.81855" lon="11.188455"><ele>38.0</ele><time>2026-04-18T09:16:11.281Z</time></trkpt><trkpt lat="43.818625" lon="11.1885183"><ele>38.0</ele><time>2026-04-18T09:16:12.28Z</time></trkpt><trkpt lat="43.8186917" lon="11.18858"><ele>38.0</ele><time>2026-04-18T09:16:13.28Z</time></trkpt><trkpt lat="43.8187617" lon="11.188645"><ele>38.0</ele><time>2026-04-18T09:16:14.281Z</time></trkpt><trkpt lat="43.8188317" lon="11.1887083"><ele>38.0</ele><time>2026-04-18T09:16:15.283Z</time></trkpt><trkpt lat="43.8189017" lon="11.1887683"><ele>38.0</ele><time>2026-04-18T09:16:16.28Z</time></trkpt><trkpt lat="43.8189683" lon="11.1888283"><ele>38.0</ele><time>2026-04-18T09:16:17.282Z</time></trkpt><trkpt lat="43.8190283" lon="11.1888783"><ele>38.0</ele><time>2026-04-18T09:16:18.281Z</time></trkpt><trkpt lat="43.8191133" lon="11.18895"><ele>38.0</ele><time>2026-04-18T09:16:20.282Z</time></trkpt><trkpt lat="43.819185" lon="11.1889767"><ele>38.0</ele><time>2026-04-18T09:16:24.279Z</time></trkpt><trkpt lat="43.819255" lon="11.1890283"><ele>38.0</ele><time>2026-04-18T09:16:27.282Z</time></trkpt><trkpt lat="43.81933" lon="11.1890983"><ele>38.0</ele><time>2026-04-18T09:16:29.279Z</time></trkpt><trkpt lat="43.8194367" lon="11.1891967"><ele>38.166666666666664</ele><time>2026-04-18T09:16:31.281Z</time></trkpt><trkpt lat="43.8195" lon="11.189255"><ele>38.33333333333333</ele><time>2026-04-18T09:16:32.282Z</time></trkpt><trkpt lat="43.8195683" lon="11.1893117"><ele>38.5</ele><time>2026-04-18T09:16:33.28Z</time></trkpt><trkpt lat="43.8196383" lon="11.1893683"><ele>38.666666666666664</ele><time>2026-04-18T09:16:34.281Z</time></trkpt><trkpt lat="43.8197117" lon="11.18943"><ele>38.833333333333336</ele><time>2026-04-18T09:16:35.281Z</time></trkpt><trkpt lat="43.81979" lon="11.1895017"><ele>39.0</ele><time>2026-04-18T09:16:36.281Z</time></trkpt><trkpt lat="43.8198667" lon="11.1895717"><ele>39.0</ele><time>2026-04-18T09:16:37.28Z</time></trkpt><trkpt lat="43.8199417" lon="11.189635"><ele>39.0</ele><time>2026-04-18T09:16:38.28Z</time></trkpt><trkpt lat="43.8200133" lon="11.1897017"><ele>39.0</ele><time>2026-04-18T09:16:39.281Z</time></trkpt><trkpt lat="43.8200833" lon="11.1897633"><ele>39.0</ele><time>2026-04-18T09:16:40.28Z</time></trkpt><trkpt lat="43.820155" lon="11.1898283"><ele>39.0</ele><time>2026-04-18T09:16:41.281Z</time></trkpt><trkpt lat="43.8202283" lon="11.1898933"><ele>39.0</ele><time>2026-04-18T09:16:42.28Z</time></trkpt><trkpt lat="43.8203017" lon="11.1899567"><ele>39.333333333333336</ele><time>2026-04-18T09:16:43.282Z</time></trkpt><trkpt lat="43.820375" lon="11.1900233"><ele>39.666666666666664</ele><time>2026-04-18T09:16:44.28Z</time></trkpt><trkpt lat="43.82045" lon="11.1900883"><ele>40.0</ele><time>2026-04-18T09:16:45.281Z</time></trkpt><trkpt lat="43.820525" lon="11.19016"><ele>40.33333333333333</ele><time>2026-04-18T09:16:46.281Z</time></trkpt><trkpt lat="43.8206" lon="11.1902233"><ele>40.666666666666664</ele><time>2026-04-18T09:16:47.28Z</time></trkpt><trkpt lat="43.8206733" lon="11.1902867"><ele>41.0</ele><time>2026-04-18T09:16:48.282Z</time></trkpt><trkpt lat="43.8207483" lon="11.1903533"><ele>41.0</ele><time>2026-04-18T09:16:49.279Z</time></trkpt><trkpt lat="43.8208217" lon="11.1904183"><ele>41.0</ele><time>2026-04-18T09:16:50.281Z</time></trkpt><trkpt lat="43.820895" lon="11.1904817"><ele>41.0</ele><time>2026-04-18T09:16:51.281Z</time></trkpt><trkpt lat="43.8209683" lon="11.1905367"><ele>41.0</ele><time>2026-04-18T09:16:52.28Z</time></trkpt><trkpt lat="43.8210417" lon="11.1906033"><ele>41.0</ele><time>2026-04-18T09:16:53.28Z</time></trkpt><trkpt lat="43.821115" lon="11.19067"><ele>41.0</ele><time>2026-04-18T09:16:54.281Z</time></trkpt><trkpt lat="43.8211933" lon="11.1907367"><ele>40.4</ele><time>2026-04-18T09:16:55.281Z</time></trkpt><trkpt lat="43.8212767" lon="11.1908033"><ele>39.8</ele><time>2026-04-18T09:16:56.28Z</time></trkpt><trkpt lat="43.8213633" lon="11.19087"><ele>39.199999999999996</ele><time>2026-04-18T09:16:57.28Z</time></trkpt><trkpt lat="43.82145" lon="11.190945"><ele>38.599999999999994</ele><time>2026-04-18T09:16:58.28Z</time></trkpt><trkpt lat="43.821535" lon="11.1910217"><ele>38.0</ele><time>2026-04-18T09:16:59.281Z</time></trkpt><trkpt lat="43.8216217" lon="11.1910967"><ele>38.0</ele><time>2026-04-18T09:17:00.28Z</time></trkpt><trkpt lat="43.8217083" lon="11.1911733"><ele>38.0</ele><time>2026-04-18T09:17:01.281Z</time></trkpt><trkpt lat="43.8217933" lon="11.1912467"><ele>38.0</ele><time>2026-04-18T09:17:02.282Z</time></trkpt><trkpt lat="43.8218783" lon="11.1913167"><ele>38.0</ele><time>2026-04-18T09:17:03.281Z</time></trkpt><trkpt lat="43.821965" lon="11.1913817"><ele>38.0</ele><time>2026-04-18T09:17:04.28Z</time></trkpt><trkpt lat="43.82205" lon="11.191455"><ele>38.599999999999994</ele><time>2026-04-18T09:17:05.28Z</time></trkpt><trkpt lat="43.8221367" lon="11.191525"><ele>39.199999999999996</ele><time>2026-04-18T09:17:06.281Z</time></trkpt><trkpt lat="43.822225" lon="11.1916017"><ele>39.8</ele><time>2026-04-18T09:17:07.281Z</time></trkpt><trkpt lat="43.82231" lon="11.1916783"><ele>40.4</ele><time>2026-04-18T09:17:08.281Z</time></trkpt><trkpt lat="43.822395" lon="11.19175"><ele>41.0</ele><time>2026-04-18T09:17:09.28Z</time></trkpt><trkpt lat="43.8224817" lon="11.1918217"><ele>41.0</ele><time>2026-04-18T09:17:10.28Z</time></trkpt><trkpt lat="43.822565" lon="11.1918917"><ele>41.0</ele><time>2026-04-18T09:17:11.28Z</time></trkpt><trkpt lat="43.82265" lon="11.1919633"><ele>41.0</ele><time>2026-04-18T09:17:12.281Z</time></trkpt><trkpt lat="43.8227383" lon="11.1920367"><ele>41.0</ele><time>2026-04-18T09:17:13.281Z</time></trkpt><trkpt lat="43.82283" lon="11.19211"><ele>41.0</ele><time>2026-04-18T09:17:14.281Z</time></trkpt><trkpt lat="43.8229267" lon="11.192185"><ele>40.75</ele><time>2026-04-18T09:17:15.28Z</time></trkpt><trkpt lat="43.8230283" lon="11.1922533"><ele>40.5</ele><time>2026-04-18T09:17:16.281Z</time></trkpt><trkpt lat="43.8231333" lon="11.192315"><ele>40.25</ele><time>2026-04-18T09:17:17.282Z</time></trkpt><trkpt lat="43.823245" lon="11.1923717"><ele>40.0</ele><time>2026-04-18T09:17:18.281Z</time></trkpt><trkpt lat="43.8233583" lon="11.19241"><ele>40.0</ele><time>2026-04-18T09:17:19.282Z</time></trkpt><trkpt lat="43.8234667" lon="11.192445"><ele>40.0</ele><time>2026-04-18T09:17:20.281Z</time></trkpt><trkpt lat="43.8235667" lon="11.19248"><ele>40.0</ele><time>2026-04-18T09:17:21.281Z</time></trkpt><trkpt lat="43.8236533" lon="11.1925133"><ele>40.0</ele><time>2026-04-18T09:17:22.281Z</time></trkpt><trkpt lat="43.8237267" lon="11.1925467"><ele>40.0</ele><time>2026-04-18T09:17:23.28Z</time></trkpt><trkpt lat="43.8238" lon="11.1925983"><ele>39.833333333333336</ele><time>2026-04-18T09:17:24.28Z</time></trkpt><trkpt lat="43.8238733" lon="11.1926783"><ele>39.66666666666667</ele><time>2026-04-18T09:17:25.281Z</time></trkpt><trkpt lat="43.8239333" lon="11.192775"><ele>39.5</ele><time>2026-04-18T09:17:26.28Z</time></trkpt><trkpt lat="43.82401" lon="11.19285"><ele>39.333333333333336</ele><time>2026-04-18T09:17:27.281Z</time></trkpt><trkpt lat="43.82409" lon="11.1928817"><ele>39.166666666666664</ele><time>2026-04-18T09:17:28.28Z</time></trkpt><trkpt lat="43.8241717" lon="11.1928967"><ele>39.0</ele><time>2026-04-18T09:17:29.281Z</time></trkpt><trkpt lat="43.82425" lon="11.1928767"><ele>39.0</ele><time>2026-04-18T09:17:30.281Z</time></trkpt><trkpt lat="43.8243133" lon="11.1928183"><ele>39.0</ele><time>2026-04-18T09:17:31.28Z</time></trkpt><trkpt lat="43.8243383" lon="11.1927033"><ele>39.0</ele><time>2026-04-18T09:17:32.283Z</time></trkpt><trkpt lat="43.8243633" lon="11.1926017"><ele>39.0</ele><time>2026-04-18T09:17:33.281Z</time></trkpt><trkpt lat="43.8243783" lon="11.19248"><ele>39.0</ele><time>2026-04-18T09:17:34.281Z</time></trkpt><trkpt lat="43.824395" lon="11.192345"><ele>39.0</ele><time>2026-04-18T09:17:35.28Z</time></trkpt><trkpt lat="43.8244217" lon="11.1921983"><ele>39.0</ele><time>2026-04-18T09:17:36.281Z</time></trkpt><trkpt lat="43.8244583" lon="11.1920467"><ele>39.0</ele><time>2026-04-18T09:17:37.28Z</time></trkpt><trkpt lat="43.8245133" lon="11.1919"><ele>39.0</ele><time>2026-04-18T09:17:38.28Z</time></trkpt><trkpt lat="43.8245783" lon="11.1917533"><ele>39.0</ele><time>2026-04-18T09:17:39.281Z</time></trkpt><trkpt lat="43.8246517" lon="11.1916083"><ele>38.75</ele><time>2026-04-18T09:17:40.281Z</time></trkpt><trkpt lat="43.82473" lon="11.1914567"><ele>38.5</ele><time>2026-04-18T09:17:41.281Z</time></trkpt><trkpt lat="43.8248117" lon="11.1912967"><ele>38.25</ele><time>2026-04-18T09:17:42.28Z</time></trkpt><trkpt lat="43.8248933" lon="11.191135"><ele>38.0</ele><time>2026-04-18T09:17:43.281Z</time></trkpt><trkpt lat="43.824975" lon="11.190965"><ele>38.0</ele><time>2026-04-18T09:17:44.28Z</time></trkpt><trkpt lat="43.8250567" lon="11.1907883"><ele>38.0</ele><time>2026-04-18T09:17:45.282Z</time></trkpt><trkpt lat="43.8251333" lon="11.190605"><ele>38.0</ele><time>2026-04-18T09:17:46.281Z</time></trkpt><trkpt lat="43.82521" lon="11.19042"><ele>38.666666666666664</ele><time>2026-04-18T09:17:47.281Z</time></trkpt><trkpt lat="43.8252833" lon="11.1902367"><ele>39.333333333333336</ele><time>2026-04-18T09:17:48.281Z</time></trkpt><trkpt lat="43.8253583" lon="11.1900567"><ele>40.0</ele><time>2026-04-18T09:17:49.281Z</time></trkpt><trkpt lat="43.825435" lon="11.189875"><ele>39.333333333333336</ele><time>2026-04-18T09:17:50.282Z</time></trkpt><trkpt lat="43.8255133" lon="11.1896883"><ele>38.666666666666664</ele><time>2026-04-18T09:17:51.282Z</time></trkpt><trkpt lat="43.8255917" lon="11.189495"><ele>38.0</ele><time>2026-04-18T09:17:52.281Z</time></trkpt><trkpt lat="43.825675" lon="11.1893017"><ele>38.0</ele><time>2026-04-18T09:17:53.282Z</time></trkpt><trkpt lat="43.8257583" lon="11.18911"><ele>38.0</ele><time>2026-04-18T09:17:54.28Z</time></trkpt><trkpt lat="43.8258417" lon="11.188915"><ele>38.0</ele><time>2026-04-18T09:17:55.281Z</time></trkpt><trkpt lat="43.825925" lon="11.18872"><ele>38.0</ele><time>2026-04-18T09:17:56.282Z</time></trkpt><trkpt lat="43.8260133" lon="11.1885217"><ele>38.0</ele><time>2026-04-18T09:17:57.28Z</time></trkpt><trkpt lat="43.8261" lon="11.188325"><ele>38.0</ele><time>2026-04-18T09:17:58.278Z</time></trkpt><trkpt lat="43.826185" lon="11.1881283"><ele>38.0</ele><time>2026-04-18T09:17:59.279Z</time></trkpt><trkpt lat="43.8262667" lon="11.1879267"><ele>38.0</ele><time>2026-04-18T09:18:00.28Z</time></trkpt><trkpt lat="43.82635" lon="11.18773"><ele>38.0</ele><time>2026-04-18T09:18:01.279Z</time></trkpt><trkpt lat="43.82643" lon="11.1875333"><ele>38.0</ele><time>2026-04-18T09:18:02.281Z</time></trkpt><trkpt lat="43.8265117" lon="11.187335"><ele>38.0</ele><time>2026-04-18T09:18:03.28Z</time></trkpt><trkpt lat="43.8265917" lon="11.1871383"><ele>38.0</ele><time>2026-04-18T09:18:04.281Z</time></trkpt><trkpt lat="43.826675" lon="11.1869433"><ele>38.0</ele><time>2026-04-18T09:18:05.282Z</time></trkpt><trkpt lat="43.826755" lon="11.1867533"><ele>38.0</ele><time>2026-04-18T09:18:06.28Z</time></trkpt><trkpt lat="43.8268317" lon="11.1865683"><ele>38.0</ele><time>2026-04-18T09:18:07.28Z</time></trkpt><trkpt lat="43.8269083" lon="11.1863867"><ele>37.666666666666664</ele><time>2026-04-18T09:18:08.282Z</time></trkpt><trkpt lat="43.826985" lon="11.186205"><ele>37.333333333333336</ele><time>2026-04-18T09:18:09.28Z</time></trkpt><trkpt lat="43.8270583" lon="11.1860233"><ele>37.0</ele><time>2026-04-18T09:18:10.281Z</time></trkpt><trkpt lat="43.827135" lon="11.1858417"><ele>37.66666666666667</ele><time>2026-04-18T09:18:11.279Z</time></trkpt><trkpt lat="43.8272133" lon="11.18566"><ele>38.333333333333336</ele><time>2026-04-18T09:18:12.28Z</time></trkpt><trkpt lat="43.82729" lon="11.1854767"><ele>39.0</ele><time>2026-04-18T09:18:13.281Z</time></trkpt><trkpt lat="43.8273683" lon="11.1852917"><ele>39.0</ele><time>2026-04-18T09:18:14.28Z</time></trkpt><trkpt lat="43.8274517" lon="11.1851083"><ele>39.0</ele><time>2026-04-18T09:18:15.28Z</time></trkpt><trkpt lat="43.8275333" lon="11.1849217"><ele>39.0</ele><time>2026-04-18T09:18:16.281Z</time></trkpt><trkpt lat="43.8276133" lon="11.1847283"><ele>38.666666666666664</ele><time>2026-04-18T09:18:17.279Z</time></trkpt><trkpt lat="43.82769" lon="11.184535"><ele>38.33333333333333</ele><time>2026-04-18T09:18:18.28Z</time></trkpt><trkpt lat="43.8277667" lon="11.1843467"><ele>38.0</ele><time>2026-04-18T09:18:19.279Z</time></trkpt><trkpt lat="43.8278417" lon="11.1841683"><ele>38.0</ele><time>2026-04-18T09:18:20.279Z</time></trkpt><trkpt lat="43.8279117" lon="11.1840017"><ele>38.0</ele><time>2026-04-18T09:18:21.279Z</time></trkpt><trkpt lat="43.8279833" lon="11.18384"><ele>38.0</ele><time>2026-04-18T09:18:22.28Z</time></trkpt><trkpt lat="43.828055" lon="11.183685"><ele>38.0</ele><time>2026-04-18T09:18:23.279Z</time></trkpt><trkpt lat="43.8281217" lon="11.1835383"><ele>38.0</ele><time>2026-04-18T09:18:24.282Z</time></trkpt><trkpt lat="43.8281933" lon="11.1833983"><ele>38.0</ele><time>2026-04-18T09:18:25.28Z</time></trkpt><trkpt lat="43.8282633" lon="11.1832683"><ele>38.0</ele><time>2026-04-18T09:18:26.281Z</time></trkpt><trkpt lat="43.8283283" lon="11.1831567"><ele>38.0</ele><time>2026-04-18T09:18:27.28Z</time></trkpt><trkpt lat="43.8284017" lon="11.1830617"><ele>38.0</ele><time>2026-04-18T09:18:28.282Z</time></trkpt><trkpt lat="43.8284883" lon="11.1829817"><ele>38.4</ele><time>2026-04-18T09:18:29.282Z</time></trkpt><trkpt lat="43.8285833" lon="11.1829133"><ele>38.8</ele><time>2026-04-18T09:18:30.282Z</time></trkpt><trkpt lat="43.8286583" lon="11.1828417"><ele>39.2</ele><time>2026-04-18T09:18:31.282Z</time></trkpt><trkpt lat="43.8287183" lon="11.1827617"><ele>39.6</ele><time>2026-04-18T09:18:32.282Z</time></trkpt><trkpt lat="43.82876" lon="11.1826533"><ele>40.0</ele><time>2026-04-18T09:18:33.28Z</time></trkpt><trkpt lat="43.8287933" lon="11.1825367"><ele>40.0</ele><time>2026-04-18T09:18:34.281Z</time></trkpt><trkpt lat="43.8288383" lon="11.1824267"><ele>40.0</ele><time>2026-04-18T09:18:35.281Z</time></trkpt><trkpt lat="43.8288917" lon="11.18232"><ele>40.0</ele><time>2026-04-18T09:18:36.279Z</time></trkpt><trkpt lat="43.8289467" lon="11.1822267"><ele>40.0</ele><time>2026-04-18T09:18:37.279Z</time></trkpt><trkpt lat="43.829" lon="11.1821467"><ele>40.0</ele><time>2026-04-18T09:18:38.28Z</time></trkpt><trkpt lat="43.8290583" lon="11.1820683"><ele>40.0</ele><time>2026-04-18T09:18:39.28Z</time></trkpt><trkpt lat="43.8291217" lon="11.1819833"><ele>39.8</ele><time>2026-04-18T09:18:40.279Z</time></trkpt><trkpt lat="43.8291883" lon="11.18189"><ele>39.6</ele><time>2026-04-18T09:18:41.28Z</time></trkpt><trkpt lat="43.82927" lon="11.1817917"><ele>39.4</ele><time>2026-04-18T09:18:42.279Z</time></trkpt><trkpt lat="43.8293467" lon="11.1816817"><ele>39.2</ele><time>2026-04-18T09:18:43.279Z</time></trkpt><trkpt lat="43.8294333" lon="11.181575"><ele>39.0</ele><time>2026-04-18T09:18:44.28Z</time></trkpt><trkpt lat="43.82952" lon="11.1814617"><ele>38.75</ele><time>2026-04-18T09:18:45.281Z</time></trkpt><trkpt lat="43.8296083" lon="11.1813433"><ele>38.5</ele><time>2026-04-18T09:18:46.279Z</time></trkpt><trkpt lat="43.8296983" lon="11.18122"><ele>38.25</ele><time>2026-04-18T09:18:47.279Z</time></trkpt><trkpt lat="43.8297883" lon="11.1811017"><ele>38.0</ele><time>2026-04-18T09:18:48.281Z</time></trkpt><trkpt lat="43.8298817" lon="11.1809833"><ele>38.0</ele><time>2026-04-18T09:18:49.281Z</time></trkpt><trkpt lat="43.8299767" lon="11.180865"><ele>38.0</ele><time>2026-04-18T09:18:50.281Z</time></trkpt><trkpt lat="43.8300717" lon="11.1807467"><ele>38.0</ele><time>2026-04-18T09:18:51.28Z</time></trkpt><trkpt lat="43.83017" lon="11.1806233"><ele>38.0</ele><time>2026-04-18T09:18:52.28Z</time></trkpt><trkpt lat="43.8302717" lon="11.180495"><ele>37.75</ele><time>2026-04-18T09:18:53.28Z</time></trkpt><trkpt lat="43.8303767" lon="11.1803617"><ele>37.5</ele><time>2026-04-18T09:18:54.28Z</time></trkpt><trkpt lat="43.830485" lon="11.1802267"><ele>37.25</ele><time>2026-04-18T09:18:55.281Z</time></trkpt><trkpt lat="43.8306" lon="11.1800833"><ele>37.0</ele><time>2026-04-18T09:18:56.279Z</time></trkpt><trkpt lat="43.8307083" lon="11.1799317"><ele>37.0</ele><time>2026-04-18T09:18:57.279Z</time></trkpt><trkpt lat="43.8308283" lon="11.1797783"><ele>37.0</ele><time>2026-04-18T09:18:58.28Z</time></trkpt><trkpt lat="43.8309517" lon="11.1796167"><ele>37.0</ele><time>2026-04-18T09:18:59.28Z</time></trkpt><trkpt lat="43.83107" lon="11.17945"><ele>37.333333333333336</ele><time>2026-04-18T09:19:00.279Z</time></trkpt><trkpt lat="43.8311917" lon="11.1792817"><ele>37.666666666666664</ele><time>2026-04-18T09:19:01.279Z</time></trkpt><trkpt lat="43.831315" lon="11.17912"><ele>38.0</ele><time>2026-04-18T09:19:02.281Z</time></trkpt><trkpt lat="43.8314383" lon="11.1789617"><ele>38.0</ele><time>2026-04-18T09:19:03.28Z</time></trkpt><trkpt lat="43.8315633" lon="11.1788033"><ele>38.0</ele><time>2026-04-18T09:19:04.281Z</time></trkpt><trkpt lat="43.83169" lon="11.178645"><ele>38.0</ele><time>2026-04-18T09:19:05.28Z</time></trkpt><trkpt lat="43.8318183" lon="11.1784867"><ele>38.0</ele><time>2026-04-18T09:19:06.279Z</time></trkpt><trkpt lat="43.8319417" lon="11.1783267"><ele>38.0</ele><time>2026-04-18T09:19:07.279Z</time></trkpt><trkpt lat="43.8320633" lon="11.1781667"><ele>38.0</ele><time>2026-04-18T09:19:08.28Z</time></trkpt><trkpt lat="43.8321833" lon="11.1780083"><ele>38.0</ele><time>2026-04-18T09:19:09.281Z</time></trkpt><trkpt lat="43.83231" lon="11.177855"><ele>38.0</ele><time>2026-04-18T09:19:10.279Z</time></trkpt><trkpt lat="43.8324317" lon="11.177705"><ele>38.0</ele><time>2026-04-18T09:19:11.28Z</time></trkpt><trkpt lat="43.8325517" lon="11.1775533"><ele>38.0</ele><time>2026-04-18T09:19:12.28Z</time></trkpt><trkpt lat="43.83267" lon="11.1774033"><ele>38.0</ele><time>2026-04-18T09:19:13.28Z</time></trkpt><trkpt lat="43.8327883" lon="11.1772567"><ele>38.0</ele><time>2026-04-18T09:19:14.281Z</time></trkpt><trkpt lat="43.8329017" lon="11.1771083"><ele>38.0</ele><time>2026-04-18T09:19:15.28Z</time></trkpt><trkpt lat="43.8330333" lon="11.1769683"><ele>38.0</ele><time>2026-04-18T09:19:16.279Z</time></trkpt><trkpt lat="43.8331433" lon="11.1768217"><ele>38.0</ele><time>2026-04-18T09:19:17.28Z</time></trkpt><trkpt lat="43.83325" lon="11.1766667"><ele>38.33333333333333</ele><time>2026-04-18T09:19:18.28Z</time></trkpt><trkpt lat="43.8333583" lon="11.176515"><ele>38.666666666666664</ele><time>2026-04-18T09:19:19.279Z</time></trkpt><trkpt lat="43.83347" lon="11.17637"><ele>39.0</ele><time>2026-04-18T09:19:20.281Z</time></trkpt><trkpt lat="43.8335867" lon="11.1762217"><ele>38.333333333333336</ele><time>2026-04-18T09:19:21.278Z</time></trkpt><trkpt lat="43.833705" lon="11.1760717"><ele>37.66666666666667</ele><time>2026-04-18T09:19:22.28Z</time></trkpt><trkpt lat="43.8338233" lon="11.1759233"><ele>37.0</ele><time>2026-04-18T09:19:23.279Z</time></trkpt><trkpt lat="43.8339467" lon="11.1757733"><ele>37.66666666666667</ele><time>2026-04-18T09:19:24.279Z</time></trkpt><trkpt lat="43.8340733" lon="11.1756217"><ele>38.333333333333336</ele><time>2026-04-18T09:19:25.28Z</time></trkpt><trkpt lat="43.8341983" lon="11.17547"><ele>39.0</ele><time>2026-04-18T09:19:26.28Z</time></trkpt><trkpt lat="43.83432" lon="11.1753183"><ele>39.0</ele><time>2026-04-18T09:19:27.28Z</time></trkpt><trkpt lat="43.83444" lon="11.1751717"><ele>39.0</ele><time>2026-04-18T09:19:28.28Z</time></trkpt><trkpt lat="43.83456" lon="11.1750317"><ele>39.0</ele><time>2026-04-18T09:19:29.28Z</time></trkpt><trkpt lat="43.83468" lon="11.1748917"><ele>39.5</ele><time>2026-04-18T09:19:30.28Z</time></trkpt><trkpt lat="43.834795" lon="11.1747617"><ele>40.0</ele><time>2026-04-18T09:19:31.28Z</time></trkpt><trkpt lat="43.83491" lon="11.1746283"><ele>40.5</ele><time>2026-04-18T09:19:32.281Z</time></trkpt><trkpt lat="43.8350217" lon="11.174495"><ele>41.0</ele><time>2026-04-18T09:19:33.281Z</time></trkpt><trkpt lat="43.835135" lon="11.174365"><ele>40.75</ele><time>2026-04-18T09:19:34.281Z</time></trkpt><trkpt lat="43.835245" lon="11.1742383"><ele>40.5</ele><time>2026-04-18T09:19:35.281Z</time></trkpt><trkpt lat="43.83535" lon="11.17411"><ele>40.25</ele><time>2026-04-18T09:19:36.28Z</time></trkpt><trkpt lat="43.8354517" lon="11.1739817"><ele>40.0</ele><time>2026-04-18T09:19:37.28Z</time></trkpt><trkpt lat="43.83555" lon="11.1738617"><ele>39.75</ele><time>2026-04-18T09:19:38.28Z</time></trkpt><trkpt lat="43.8356417" lon="11.173745"><ele>39.5</ele><time>2026-04-18T09:19:39.281Z</time></trkpt><trkpt lat="43.835725" lon="11.1736267"><ele>39.25</ele><time>2026-04-18T09:19:40.28Z</time></trkpt><trkpt lat="43.8357983" lon="11.1735083"><ele>39.0</ele><time>2026-04-18T09:19:41.281Z</time></trkpt><trkpt lat="43.8358583" lon="11.1733933"><ele>39.0</ele><time>2026-04-18T09:19:42.281Z</time></trkpt><trkpt lat="43.8359167" lon="11.1732833"><ele>39.0</ele><time>2026-04-18T09:19:43.28Z</time></trkpt><trkpt lat="43.835975" lon="11.1731817"><ele>39.0</ele><time>2026-04-18T09:19:44.28Z</time></trkpt><trkpt lat="43.836035" lon="11.1730883"><ele>39.0</ele><time>2026-04-18T09:19:45.279Z</time></trkpt><trkpt lat="43.836095" lon="11.17301"><ele>39.0</ele><time>2026-04-18T09:19:46.281Z</time></trkpt><trkpt lat="43.83615" lon="11.1729517"><ele>39.0</ele><time>2026-04-18T09:19:47.279Z</time></trkpt><trkpt lat="43.836215" lon="11.1729083"><ele>39.0</ele><time>2026-04-18T09:19:48.28Z</time></trkpt><trkpt lat="43.8362917" lon="11.1728767"><ele>39.0</ele><time>2026-04-18T09:19:49.28Z</time></trkpt><trkpt lat="43.8363783" lon="11.1728533"><ele>39.0</ele><time>2026-04-18T09:19:50.282Z</time></trkpt><trkpt lat="43.8364733" lon="11.1728433"><ele>39.0</ele><time>2026-04-18T09:19:51.281Z</time></trkpt><trkpt lat="43.83657" lon="11.17286"><ele>39.0</ele><time>2026-04-18T09:19:52.281Z</time></trkpt><trkpt lat="43.836675" lon="11.1729"><ele>39.0</ele><time>2026-04-18T09:19:53.281Z</time></trkpt><trkpt lat="43.836775" lon="11.1729583"><ele>39.0</ele><time>2026-04-18T09:19:54.281Z</time></trkpt><trkpt lat="43.8368767" lon="11.17303"><ele>39.0</ele><time>2026-04-18T09:19:55.28Z</time></trkpt><trkpt lat="43.836975" lon="11.1731"><ele>39.0</ele><time>2026-04-18T09:19:56.28Z</time></trkpt><trkpt lat="43.8370767" lon="11.1731783"><ele>39.0</ele><time>2026-04-18T09:19:57.281Z</time></trkpt><trkpt lat="43.8371817" lon="11.1732633"><ele>39.5</ele><time>2026-04-18T09:19:58.282Z</time></trkpt><trkpt lat="43.83729" lon="11.17335"><ele>40.0</ele><time>2026-04-18T09:19:59.281Z</time></trkpt><trkpt lat="43.8373983" lon="11.173435"><ele>40.5</ele><time>2026-04-18T09:20:00.28Z</time></trkpt><trkpt lat="43.8375067" lon="11.1735233"><ele>41.0</ele><time>2026-04-18T09:20:01.281Z</time></trkpt><trkpt lat="43.837615" lon="11.173615"><ele>41.25</ele><time>2026-04-18T09:20:02.282Z</time></trkpt><trkpt lat="43.8377267" lon="11.17371"><ele>41.5</ele><time>2026-04-18T09:20:03.28Z</time></trkpt><trkpt lat="43.8378383" lon="11.1738117"><ele>41.75</ele><time>2026-04-18T09:20:04.282Z</time></trkpt><trkpt lat="43.8379517" lon="11.1739067"><ele>42.0</ele><time>2026-04-18T09:20:05.282Z</time></trkpt><trkpt lat="43.8380683" lon="11.174005"><ele>42.25</ele><time>2026-04-18T09:20:06.282Z</time></trkpt><trkpt lat="43.8381833" lon="11.1741083"><ele>42.5</ele><time>2026-04-18T09:20:07.281Z</time></trkpt><trkpt lat="43.8382983" lon="11.174205"><ele>42.75</ele><time>2026-04-18T09:20:08.28Z</time></trkpt><trkpt lat="43.838415" lon="11.1743017"><ele>43.0</ele><time>2026-04-18T09:20:09.282Z</time></trkpt><trkpt lat="43.8385267" lon="11.1743917"><ele>43.25</ele><time>2026-04-18T09:20:10.28Z</time></trkpt><trkpt lat="43.8386317" lon="11.1744833"><ele>43.5</ele><time>2026-04-18T09:20:11.281Z</time></trkpt><trkpt lat="43.8387317" lon="11.1745617"><ele>43.75</ele><time>2026-04-18T09:20:12.281Z</time></trkpt><trkpt lat="43.8388267" lon="11.1746533"><ele>44.0</ele><time>2026-04-18T09:20:13.281Z</time></trkpt><trkpt lat="43.8389117" lon="11.1747383"><ele>44.0</ele><time>2026-04-18T09:20:14.283Z</time></trkpt><trkpt lat="43.838995" lon="11.1748183"><ele>44.0</ele><time>2026-04-18T09:20:15.281Z</time></trkpt><trkpt lat="43.8390717" lon="11.1749083"><ele>44.0</ele><time>2026-04-18T09:20:16.283Z</time></trkpt><trkpt lat="43.839145" lon="11.174995"><ele>44.0</ele><time>2026-04-18T09:20:17.28Z</time></trkpt><trkpt lat="43.8392117" lon="11.1750767"><ele>44.0</ele><time>2026-04-18T09:20:18.282Z</time></trkpt><trkpt lat="43.83927" lon="11.1751667"><ele>44.0</ele><time>2026-04-18T09:20:19.28Z</time></trkpt><trkpt lat="43.83932" lon="11.175255"><ele>44.0</ele><time>2026-04-18T09:20:20.28Z</time></trkpt><trkpt lat="43.8393667" lon="11.1753417"><ele>44.0</ele><time>2026-04-18T09:20:21.279Z</time></trkpt><trkpt lat="43.8394217" lon="11.17543"><ele>44.0</ele><time>2026-04-18T09:20:22.281Z</time></trkpt><trkpt lat="43.8394817" lon="11.175505"><ele>44.0</ele><time>2026-04-18T09:20:23.281Z</time></trkpt><trkpt lat="43.8395633" lon="11.1755617"><ele>44.0</ele><time>2026-04-18T09:20:24.281Z</time></trkpt><trkpt lat="43.8396583" lon="11.1756"><ele>44.0</ele><time>2026-04-18T09:20:25.281Z</time></trkpt><trkpt lat="43.8397733" lon="11.175625"><ele>44.0</ele><time>2026-04-18T09:20:26.281Z</time></trkpt><trkpt lat="43.8398883" lon="11.17568"><ele>44.0</ele><time>2026-04-18T09:20:27.28Z</time></trkpt><trkpt lat="43.8400083" lon="11.1757633"><ele>44.0</ele><time>2026-04-18T09:20:28.28Z</time></trkpt><trkpt lat="43.840125" lon="11.1758533"><ele>44.0</ele><time>2026-04-18T09:20:29.28Z</time></trkpt><trkpt lat="43.84024" lon="11.17595"><ele>44.0</ele><time>2026-04-18T09:20:30.28Z</time></trkpt><trkpt lat="43.8403533" lon="11.1760483"><ele>44.0</ele><time>2026-04-18T09:20:31.282Z</time></trkpt><trkpt lat="43.8404683" lon="11.176145"><ele>44.0</ele><time>2026-04-18T09:20:32.28Z</time></trkpt><trkpt lat="43.84058" lon="11.17624"><ele>44.0</ele><time>2026-04-18T09:20:33.282Z</time></trkpt><trkpt lat="43.8406867" lon="11.1763433"><ele>44.0</ele><time>2026-04-18T09:20:34.28Z</time></trkpt><trkpt lat="43.8407883" lon="11.1764333"><ele>44.0</ele><time>2026-04-18T09:20:35.28Z</time></trkpt><trkpt lat="43.8408917" lon="11.17651"><ele>44.0</ele><time>2026-04-18T09:20:36.282Z</time></trkpt><trkpt lat="43.8409867" lon="11.176585"><ele>44.400000000000006</ele><time>2026-04-18T09:20:37.281Z</time></trkpt><trkpt lat="43.841075" lon="11.17668"><ele>44.8</ele><time>2026-04-18T09:20:38.282Z</time></trkpt><trkpt lat="43.8411517" lon="11.1767883"><ele>45.2</ele><time>2026-04-18T09:20:39.28Z</time></trkpt><trkpt lat="43.841215" lon="11.17691"><ele>45.599999999999994</ele><time>2026-04-18T09:20:40.28Z</time></trkpt><trkpt lat="43.8412717" lon="11.17705"><ele>46.0</ele><time>2026-04-18T09:20:41.281Z</time></trkpt><trkpt lat="43.841305" lon="11.1772033"><ele>45.75</ele><time>2026-04-18T09:20:42.282Z</time></trkpt><trkpt lat="43.8413233" lon="11.17737"><ele>45.5</ele><time>2026-04-18T09:20:43.282Z</time></trkpt><trkpt lat="43.8413383" lon="11.17755"><ele>45.25</ele><time>2026-04-18T09:20:44.282Z</time></trkpt><trkpt lat="43.8413517" lon="11.1777267"><ele>45.0</ele><time>2026-04-18T09:20:45.281Z</time></trkpt><trkpt lat="43.8413783" lon="11.1778983"><ele>45.0</ele><time>2026-04-18T09:20:46.281Z</time></trkpt><trkpt lat="43.8414233" lon="11.1780517"><ele>45.0</ele><time>2026-04-18T09:20:47.282Z</time></trkpt><trkpt lat="43.8414817" lon="11.1781917"><ele>45.0</ele><time>2026-04-18T09:20:48.28Z</time></trkpt><trkpt lat="43.8415633" lon="11.1783167"><ele>45.0</ele><time>2026-04-18T09:20:49.28Z</time></trkpt><trkpt lat="43.841655" lon="11.178425"><ele>45.75</ele><time>2026-04-18T09:20:50.28Z</time></trkpt><trkpt lat="43.841755" lon="11.1785233"><ele>46.5</ele><time>2026-04-18T09:20:51.28Z</time></trkpt><trkpt lat="43.84185" lon="11.1786183"><ele>47.25</ele><time>2026-04-18T09:20:52.28Z</time></trkpt><trkpt lat="43.8419433" lon="11.1787117"><ele>48.0</ele><time>2026-04-18T09:20:53.281Z</time></trkpt><trkpt lat="43.8420267" lon="11.1787883"><ele>48.0</ele><time>2026-04-18T09:20:54.281Z</time></trkpt><trkpt lat="43.8421467" lon="11.1788567"><ele>48.0</ele><time>2026-04-18T09:20:55.279Z</time></trkpt><trkpt lat="43.842255" lon="11.1789383"><ele>48.0</ele><time>2026-04-18T09:20:56.28Z</time></trkpt><trkpt lat="43.8423567" lon="11.17903"><ele>48.0</ele><time>2026-04-18T09:20:57.279Z</time></trkpt><trkpt lat="43.8424567" lon="11.1791183"><ele>48.0</ele><time>2026-04-18T09:20:58.281Z</time></trkpt><trkpt lat="43.8425617" lon="11.1792083"><ele>48.0</ele><time>2026-04-18T09:20:59.281Z</time></trkpt><trkpt lat="43.8426667" lon="11.1792917"><ele>48.0</ele><time>2026-04-18T09:21:00.281Z</time></trkpt><trkpt lat="43.8427667" lon="11.1793833"><ele>48.0</ele><time>2026-04-18T09:21:01.286Z</time></trkpt><trkpt lat="43.8428667" lon="11.1794633"><ele>48.25</ele><time>2026-04-18T09:21:02.281Z</time></trkpt><trkpt lat="43.8429683" lon="11.179545"><ele>48.5</ele><time>2026-04-18T09:21:03.281Z</time></trkpt><trkpt lat="43.8430667" lon="11.17963"><ele>48.75</ele><time>2026-04-18T09:21:04.279Z</time></trkpt><trkpt lat="43.8431633" lon="11.1797133"><ele>49.0</ele><time>2026-04-18T09:21:05.28Z</time></trkpt><trkpt lat="43.84326" lon="11.1797983"><ele>49.0</ele><time>2026-04-18T09:21:06.281Z</time></trkpt><trkpt lat="43.8433533" lon="11.179875"><ele>49.0</ele><time>2026-04-18T09:21:07.281Z</time></trkpt><trkpt lat="43.8434367" lon="11.1799517"><ele>49.0</ele><time>2026-04-18T09:21:08.281Z</time></trkpt><trkpt lat="43.8435133" lon="11.1800233"><ele>49.0</ele><time>2026-04-18T09:21:09.281Z</time></trkpt><trkpt lat="43.843585" lon="11.18009"><ele>49.0</ele><time>2026-04-18T09:21:10.282Z</time></trkpt><trkpt lat="43.8436517" lon="11.180165"><ele>49.166666666666664</ele><time>2026-04-18T09:21:11.279Z</time></trkpt><trkpt lat="43.8437117" lon="11.1802533"><ele>49.33333333333333</ele><time>2026-04-18T09:21:12.281Z</time></trkpt><trkpt lat="43.8437617" lon="11.1803617"><ele>49.5</ele><time>2026-04-18T09:21:13.281Z</time></trkpt><trkpt lat="43.843795" lon="11.1804767"><ele>49.66666666666667</ele><time>2026-04-18T09:21:14.282Z</time></trkpt><trkpt lat="43.8438133" lon="11.1805833"><ele>49.833333333333336</ele><time>2026-04-18T09:21:15.281Z</time></trkpt><trkpt lat="43.8438267" lon="11.18069"><ele>50.0</ele><time>2026-04-18T09:21:16.281Z</time></trkpt><trkpt lat="43.843835" lon="11.1808067"><ele>50.16666666666667</ele><time>2026-04-18T09:21:17.28Z</time></trkpt><trkpt lat="43.84385" lon="11.1809333"><ele>50.333333333333336</ele><time>2026-04-18T09:21:18.28Z</time></trkpt><trkpt lat="43.8438767" lon="11.1810467"><ele>50.5</ele><time>2026-04-18T09:21:19.28Z</time></trkpt><trkpt lat="43.8439133" lon="11.181145"><ele>50.66666666666667</ele><time>2026-04-18T09:21:20.281Z</time></trkpt><trkpt lat="43.8439783" lon="11.1811967"><ele>50.833333333333336</ele><time>2026-04-18T09:21:21.28Z</time></trkpt><trkpt lat="43.8440383" lon="11.1812383"><ele>51.0</ele><time>2026-04-18T09:21:22.281Z</time></trkpt><trkpt lat="43.84412" lon="11.18117"><ele>51.0</ele><time>2026-04-18T09:21:23.281Z</time></trkpt><trkpt lat="43.8442" lon="11.1811017"><ele>51.0</ele><time>2026-04-18T09:21:24.281Z</time></trkpt><trkpt lat="43.8442767" lon="11.1810067"><ele>51.0</ele><time>2026-04-18T09:21:25.28Z</time></trkpt><trkpt lat="43.844345" lon="11.1809133"><ele>51.0</ele><time>2026-04-18T09:21:26.281Z</time></trkpt><trkpt lat="43.8444083" lon="11.1808233"><ele>51.0</ele><time>2026-04-18T09:21:27.28Z</time></trkpt><trkpt lat="43.84447" lon="11.180735"><ele>51.166666666666664</ele><time>2026-04-18T09:21:28.28Z</time></trkpt><trkpt lat="43.8445317" lon="11.1806667"><ele>51.33333333333333</ele><time>2026-04-18T09:21:29.281Z</time></trkpt><trkpt lat="43.8446067" lon="11.180615"><ele>51.5</ele><time>2026-04-18T09:21:30.281Z</time></trkpt><trkpt lat="43.8446817" lon="11.1805867"><ele>51.666666666666664</ele><time>2026-04-18T09:21:31.281Z</time></trkpt><trkpt lat="43.8447617" lon="11.1805733"><ele>51.83333333333333</ele><time>2026-04-18T09:21:32.28Z</time></trkpt><trkpt lat="43.8448533" lon="11.1805533"><ele>52.0</ele><time>2026-04-18T09:21:33.28Z</time></trkpt><trkpt lat="43.844935" lon="11.18051"><ele>52.0</ele><time>2026-04-18T09:21:34.28Z</time></trkpt><trkpt lat="43.8450217" lon="11.1804517"><ele>52.0</ele><time>2026-04-18T09:21:35.28Z</time></trkpt><trkpt lat="43.845105" lon="11.1803883"><ele>52.0</ele><time>2026-04-18T09:21:36.281Z</time></trkpt><trkpt lat="43.8452017" lon="11.1803367"><ele>52.0</ele><time>2026-04-18T09:21:37.28Z</time></trkpt><trkpt lat="43.8453" lon="11.1803067"><ele>52.0</ele><time>2026-04-18T09:21:38.281Z</time></trkpt><trkpt lat="43.8454" lon="11.180285"><ele>52.2</ele><time>2026-04-18T09:21:39.281Z</time></trkpt><trkpt lat="43.8454983" lon="11.1802567"><ele>52.400000000000006</ele><time>2026-04-18T09:21:40.28Z</time></trkpt><trkpt lat="43.8456067" lon="11.180235"><ele>52.599999999999994</ele><time>2026-04-18T09:21:41.28Z</time></trkpt><trkpt lat="43.8457167" lon="11.1802117"><ele>52.8</ele><time>2026-04-18T09:21:42.282Z</time></trkpt><trkpt lat="43.8458283" lon="11.1801917"><ele>53.0</ele><time>2026-04-18T09:21:43.281Z</time></trkpt><trkpt lat="43.8459367" lon="11.1801767"><ele>53.25</ele><time>2026-04-18T09:21:44.28Z</time></trkpt><trkpt lat="43.84605" lon="11.1801617"><ele>53.5</ele><time>2026-04-18T09:21:45.28Z</time></trkpt><trkpt lat="43.8461633" lon="11.1801467"><ele>53.75</ele><time>2026-04-18T09:21:46.281Z</time></trkpt><trkpt lat="43.8462767" lon="11.1801317"><ele>54.0</ele><time>2026-04-18T09:21:47.281Z</time></trkpt><trkpt lat="43.8463933" lon="11.1801217"><ele>54.0</ele><time>2026-04-18T09:21:48.281Z</time></trkpt><trkpt lat="43.8465133" lon="11.180115"><ele>54.0</ele><time>2026-04-18T09:21:49.281Z</time></trkpt><trkpt lat="43.846635" lon="11.1801017"><ele>54.0</ele><time>2026-04-18T09:21:50.281Z</time></trkpt><trkpt lat="43.8467533" lon="11.18008"><ele>54.0</ele><time>2026-04-18T09:21:51.28Z</time></trkpt><trkpt lat="43.846865" lon="11.1800717"><ele>54.2</ele><time>2026-04-18T09:21:52.281Z</time></trkpt><trkpt lat="43.8469733" lon="11.1800633"><ele>54.400000000000006</ele><time>2026-04-18T09:21:53.28Z</time></trkpt><trkpt lat="43.8470817" lon="11.180055"><ele>54.6</ele><time>2026-04-18T09:21:54.281Z</time></trkpt><trkpt lat="43.84719" lon="11.1800467"><ele>54.8</ele><time>2026-04-18T09:21:55.28Z</time></trkpt><trkpt lat="43.8473033" lon="11.1800367"><ele>55.0</ele><time>2026-04-18T09:21:56.28Z</time></trkpt><trkpt lat="43.8474133" lon="11.180025"><ele>55.0</ele><time>2026-04-18T09:21:57.281Z</time></trkpt><trkpt lat="43.84752" lon="11.1800117"><ele>55.0</ele><time>2026-04-18T09:21:58.282Z</time></trkpt><trkpt lat="43.8476283" lon="11.18"><ele>55.0</ele><time>2026-04-18T09:21:59.28Z</time></trkpt><trkpt lat="43.8477383" lon="11.1799867"><ele>55.0</ele><time>2026-04-18T09:22:00.28Z</time></trkpt><trkpt lat="43.847845" lon="11.1799767"><ele>55.0</ele><time>2026-04-18T09:22:01.28Z</time></trkpt><trkpt lat="43.8479583" lon="11.17996"><ele>55.0</ele><time>2026-04-18T09:22:02.281Z</time></trkpt><trkpt lat="43.8480717" lon="11.1799417"><ele>55.0</ele><time>2026-04-18T09:22:03.281Z</time></trkpt><trkpt lat="43.8481833" lon="11.1799217"><ele>55.0</ele><time>2026-04-18T09:22:04.282Z</time></trkpt><trkpt lat="43.8482917" lon="11.179905"><ele>55.0</ele><time>2026-04-18T09:22:05.28Z</time></trkpt><trkpt lat="43.8483833" lon="11.1798983"><ele>55.0</ele><time>2026-04-18T09:22:06.282Z</time></trkpt><trkpt lat="43.8484667" lon="11.1798833"><ele>55.166666666666664</ele><time>2026-04-18T09:22:07.281Z</time></trkpt><trkpt lat="43.84854" lon="11.1798667"><ele>55.33333333333333</ele><time>2026-04-18T09:22:08.281Z</time></trkpt><trkpt lat="43.848615" lon="11.1798583"><ele>55.5</ele><time>2026-04-18T09:22:09.281Z</time></trkpt><trkpt lat="43.84869" lon="11.17985"><ele>55.66666666666667</ele><time>2026-04-18T09:22:10.281Z</time></trkpt><trkpt lat="43.8488" lon="11.1798367"><ele>55.833333333333336</ele><time>2026-04-18T09:22:12.281Z</time></trkpt><trkpt lat="43.84889" lon="11.1798333"><ele>56.0</ele><time>2026-04-18T09:22:14.282Z</time></trkpt><trkpt lat="43.8489767" lon="11.1798317"><ele>56.0</ele><time>2026-04-18T09:22:16.28Z</time></trkpt><trkpt lat="43.8490517" lon="11.17983"><ele>55.99999999999999</ele><time>2026-04-18T09:22:18.28Z</time></trkpt><trkpt lat="43.8491517" lon="11.1798267"><ele>55.99999999999999</ele><time>2026-04-18T09:22:20.281Z</time></trkpt><trkpt lat="43.8492683" lon="11.179805"><ele>56.0</ele><time>2026-04-18T09:22:22.28Z</time></trkpt><trkpt lat="43.8493817" lon="11.1797883"><ele>56.0</ele><time>2026-04-18T09:22:24.281Z</time></trkpt><trkpt lat="43.8494733" lon="11.1797917"><ele>56.199999999999996</ele><time>2026-04-18T09:22:26.282Z</time></trkpt><trkpt lat="43.8495567" lon="11.1797967"><ele>56.39999999999999</ele><time>2026-04-18T09:22:28.28Z</time></trkpt><trkpt lat="43.8496717" lon="11.1798117"><ele>56.6</ele><time>2026-04-18T09:22:30.28Z</time></trkpt><trkpt lat="43.849795" lon="11.1797917"><ele>56.8</ele><time>2026-04-18T09:22:32.283Z</time></trkpt><trkpt lat="43.84986" lon="11.17976"><ele>57.0</ele><time>2026-04-18T09:22:33.28Z</time></trkpt><trkpt lat="43.8499267" lon="11.17973"><ele>57.0</ele><time>2026-04-18T09:22:34.281Z</time></trkpt><trkpt lat="43.8500017" lon="11.1797017"><ele>57.0</ele><time>2026-04-18T09:22:35.28Z</time></trkpt><trkpt lat="43.8500833" lon="11.1796717"><ele>57.0</ele><time>2026-04-18T09:22:36.28Z</time></trkpt><trkpt lat="43.850165" lon="11.179645"><ele>57.0</ele><time>2026-04-18T09:22:37.281Z</time></trkpt><trkpt lat="43.8502583" lon="11.1796317"><ele>57.0</ele><time>2026-04-18T09:22:38.28Z</time></trkpt><trkpt lat="43.8503533" lon="11.1796217"><ele>57.0</ele><time>2026-04-18T09:22:39.28Z</time></trkpt><trkpt lat="43.850445" lon="11.1796183"><ele>57.8</ele><time>2026-04-18T09:22:40.279Z</time></trkpt><trkpt lat="43.850535" lon="11.1796217"><ele>58.6</ele><time>2026-04-18T09:22:41.28Z</time></trkpt><trkpt lat="43.8506233" lon="11.1796167"><ele>59.39999999999999</ele><time>2026-04-18T09:22:42.28Z</time></trkpt><trkpt lat="43.85071" lon="11.1796017"><ele>60.199999999999996</ele><time>2026-04-18T09:22:43.28Z</time></trkpt><trkpt lat="43.8508017" lon="11.179585"><ele>61.0</ele><time>2026-04-18T09:22:44.279Z</time></trkpt><trkpt lat="43.850895" lon="11.1795583"><ele>61.8</ele><time>2026-04-18T09:22:45.279Z</time></trkpt><trkpt lat="43.8509917" lon="11.1795433"><ele>62.599999999999994</ele><time>2026-04-18T09:22:46.279Z</time></trkpt><trkpt lat="43.8510933" lon="11.179535"><ele>63.4</ele><time>2026-04-18T09:22:47.281Z</time></trkpt><trkpt lat="43.851195" lon="11.1795267"><ele>64.2</ele><time>2026-04-18T09:22:48.279Z</time></trkpt><trkpt lat="43.85129" lon="11.1795133"><ele>65.0</ele><time>2026-04-18T09:22:49.281Z</time></trkpt><trkpt lat="43.8513833" lon="11.1795033"><ele>65.0</ele><time>2026-04-18T09:22:50.279Z</time></trkpt><trkpt lat="43.851475" lon="11.1794933"><ele>65.0</ele><time>2026-04-18T09:22:51.28Z</time></trkpt><trkpt lat="43.8515633" lon="11.17949"><ele>65.0</ele><time>2026-04-18T09:22:52.28Z</time></trkpt><trkpt lat="43.85165" lon="11.1794867"><ele>65.0</ele><time>2026-04-18T09:22:53.28Z</time></trkpt><trkpt lat="43.8517433" lon="11.1794767"><ele>65.0</ele><time>2026-04-18T09:22:54.279Z</time></trkpt><trkpt lat="43.8518367" lon="11.1794667"><ele>65.4</ele><time>2026-04-18T09:22:55.279Z</time></trkpt><trkpt lat="43.851935" lon="11.1794567"><ele>65.8</ele><time>2026-04-18T09:22:56.28Z</time></trkpt><trkpt lat="43.85204" lon="11.1794433"><ele>66.2</ele><time>2026-04-18T09:22:57.279Z</time></trkpt><trkpt lat="43.8521467" lon="11.17943"><ele>66.6</ele><time>2026-04-18T09:22:58.28Z</time></trkpt><trkpt lat="43.8522517" lon="11.1794167"><ele>67.0</ele><time>2026-04-18T09:22:59.28Z</time></trkpt><trkpt lat="43.8523583" lon="11.1794017"><ele>67.0</ele><time>2026-04-18T09:23:00.28Z</time></trkpt><trkpt lat="43.8524633" lon="11.17939"><ele>67.0</ele><time>2026-04-18T09:23:01.279Z</time></trkpt><trkpt lat="43.8525733" lon="11.1793783"><ele>67.0</ele><time>2026-04-18T09:23:02.279Z</time></trkpt><trkpt lat="43.8526817" lon="11.1793633"><ele>67.0</ele><time>2026-04-18T09:23:03.279Z</time></trkpt><trkpt lat="43.8527883" lon="11.1793417"><ele>67.0</ele><time>2026-04-18T09:23:04.28Z</time></trkpt><trkpt lat="43.8528967" lon="11.1793233"><ele>67.5</ele><time>2026-04-18T09:23:05.28Z</time></trkpt><trkpt lat="43.8530083" lon="11.1793133"><ele>68.0</ele><time>2026-04-18T09:23:06.279Z</time></trkpt><trkpt lat="43.85312" lon="11.179305"><ele>68.5</ele><time>2026-04-18T09:23:07.28Z</time></trkpt><trkpt lat="43.853235" lon="11.1792917"><ele>69.0</ele><time>2026-04-18T09:23:08.281Z</time></trkpt><trkpt lat="43.85335" lon="11.179275"><ele>70.0</ele><time>2026-04-18T09:23:09.28Z</time></trkpt><trkpt lat="43.8534683" lon="11.1792633"><ele>71.0</ele><time>2026-04-18T09:23:10.28Z</time></trkpt><trkpt lat="43.8535867" lon="11.17925"><ele>72.0</ele><time>2026-04-18T09:23:11.279Z</time></trkpt><trkpt lat="43.853705" lon="11.1792433"><ele>73.0</ele><time>2026-04-18T09:23:12.28Z</time></trkpt><trkpt lat="43.8538233" lon="11.1792383"><ele>73.0</ele><time>2026-04-18T09:23:13.28Z</time></trkpt><trkpt lat="43.8539317" lon="11.1792267"><ele>73.0</ele><time>2026-04-18T09:23:14.281Z</time></trkpt><trkpt lat="43.8540417" lon="11.17921"><ele>73.0</ele><time>2026-04-18T09:23:15.28Z</time></trkpt><trkpt lat="43.8541533" lon="11.1791917"><ele>73.0</ele><time>2026-04-18T09:23:16.279Z</time></trkpt><trkpt lat="43.854265" lon="11.17918"><ele>73.0</ele><time>2026-04-18T09:23:17.28Z</time></trkpt><trkpt lat="43.8543783" lon="11.1791717"><ele>73.0</ele><time>2026-04-18T09:23:18.281Z</time></trkpt><trkpt lat="43.8544933" lon="11.1791683"><ele>73.0</ele><time>2026-04-18T09:23:19.281Z</time></trkpt><trkpt lat="43.854595" lon="11.1791533"><ele>73.0</ele><time>2026-04-18T09:23:20.28Z</time></trkpt><trkpt lat="43.8546883" lon="11.1791583"><ele>73.0</ele><time>2026-04-18T09:23:21.279Z</time></trkpt><trkpt lat="43.8547767" lon="11.1791717"><ele>73.0</ele><time>2026-04-18T09:23:22.279Z</time></trkpt><trkpt lat="43.854865" lon="11.1791917"><ele>73.0</ele><time>2026-04-18T09:23:23.28Z</time></trkpt><trkpt lat="43.8549567" lon="11.1792083"><ele>73.0</ele><time>2026-04-18T09:23:24.28Z</time></trkpt><trkpt lat="43.8550533" lon="11.1792133"><ele>73.0</ele><time>2026-04-18T09:23:25.278Z</time></trkpt><trkpt lat="43.8551533" lon="11.1792133"><ele>73.0</ele><time>2026-04-18T09:23:26.282Z</time></trkpt><trkpt lat="43.8552583" lon="11.179205"><ele>73.0</ele><time>2026-04-18T09:23:27.281Z</time></trkpt><trkpt lat="43.8553667" lon="11.17919"><ele>73.2</ele><time>2026-04-18T09:23:28.282Z</time></trkpt><trkpt lat="43.8554767" lon="11.1791767"><ele>73.4</ele><time>2026-04-18T09:23:29.282Z</time></trkpt><trkpt lat="43.855585" lon="11.1791483"><ele>73.60000000000001</ele><time>2026-04-18T09:23:30.281Z</time></trkpt><trkpt lat="43.855695" lon="11.1791133"><ele>73.8</ele><time>2026-04-18T09:23:31.281Z</time></trkpt><trkpt lat="43.8558017" lon="11.179075"><ele>74.0</ele><time>2026-04-18T09:23:32.282Z</time></trkpt><trkpt lat="43.8559133" lon="11.179045"><ele>74.0</ele><time>2026-04-18T09:23:33.28Z</time></trkpt><trkpt lat="43.8560233" lon="11.1790083"><ele>74.0</ele><time>2026-04-18T09:23:34.283Z</time></trkpt><trkpt lat="43.85614" lon="11.17897"><ele>74.0</ele><time>2026-04-18T09:23:35.281Z</time></trkpt><trkpt lat="43.85626" lon="11.1789383"><ele>74.0</ele><time>2026-04-18T09:23:36.281Z</time></trkpt><trkpt lat="43.8563783" lon="11.178895"><ele>74.0</ele><time>2026-04-18T09:23:37.28Z</time></trkpt><trkpt lat="43.8564867" lon="11.1788367"><ele>74.0</ele><time>2026-04-18T09:23:38.28Z</time></trkpt><trkpt lat="43.856605" lon="11.17879"><ele>74.0</ele><time>2026-04-18T09:23:39.281Z</time></trkpt><trkpt lat="43.856725" lon="11.1787433"><ele>74.0</ele><time>2026-04-18T09:23:40.281Z</time></trkpt><trkpt lat="43.8568517" lon="11.1787067"><ele>74.5</ele><time>2026-04-18T09:23:41.281Z</time></trkpt><trkpt lat="43.856975" lon="11.1786717"><ele>75.0</ele><time>2026-04-18T09:23:42.28Z</time></trkpt><trkpt lat="43.8570967" lon="11.1786317"><ele>75.5</ele><time>2026-04-18T09:23:43.28Z</time></trkpt><trkpt lat="43.8572167" lon="11.1785967"><ele>76.0</ele><time>2026-04-18T09:23:44.28Z</time></trkpt><trkpt lat="43.8573333" lon="11.17856"><ele>76.0</ele><time>2026-04-18T09:23:45.279Z</time></trkpt><trkpt lat="43.8574433" lon="11.178505"><ele>76.0</ele><time>2026-04-18T09:23:46.279Z</time></trkpt><trkpt lat="43.85755" lon="11.1784383"><ele>76.0</ele><time>2026-04-18T09:23:47.28Z</time></trkpt><trkpt lat="43.85765" lon="11.17836"><ele>76.0</ele><time>2026-04-18T09:23:48.282Z</time></trkpt><trkpt lat="43.857745" lon="11.1782667"><ele>76.25</ele><time>2026-04-18T09:23:49.28Z</time></trkpt><trkpt lat="43.857835" lon="11.1781633"><ele>76.5</ele><time>2026-04-18T09:23:50.28Z</time></trkpt><trkpt lat="43.8579017" lon="11.178045"><ele>76.75</ele><time>2026-04-18T09:23:51.279Z</time></trkpt><trkpt lat="43.8579683" lon="11.17791"><ele>77.0</ele><time>2026-04-18T09:23:52.28Z</time></trkpt><trkpt lat="43.8580217" lon="11.177765"><ele>77.0</ele><time>2026-04-18T09:23:53.281Z</time></trkpt><trkpt lat="43.858075" lon="11.1776133"><ele>77.0</ele><time>2026-04-18T09:23:54.279Z</time></trkpt><trkpt lat="43.8581333" lon="11.17746"><ele>77.0</ele><time>2026-04-18T09:23:55.28Z</time></trkpt><trkpt lat="43.8581867" lon="11.177305"><ele>77.0</ele><time>2026-04-18T09:23:56.28Z</time></trkpt><trkpt lat="43.8582433" lon="11.1771583"><ele>77.0</ele><time>2026-04-18T09:23:57.28Z</time></trkpt><trkpt lat="43.85829" lon="11.177015"><ele>77.0</ele><time>2026-04-18T09:23:58.279Z</time></trkpt><trkpt lat="43.85834" lon="11.1768767"><ele>77.0</ele><time>2026-04-18T09:23:59.28Z</time></trkpt><trkpt lat="43.8583867" lon="11.176745"><ele>77.0</ele><time>2026-04-18T09:24:00.281Z</time></trkpt><trkpt lat="43.8584333" lon="11.1766217"><ele>77.0</ele><time>2026-04-18T09:24:01.279Z</time></trkpt><trkpt lat="43.8584767" lon="11.1765067"><ele>77.0</ele><time>2026-04-18T09:24:02.281Z</time></trkpt><trkpt lat="43.858515" lon="11.176395"><ele>77.0</ele><time>2026-04-18T09:24:03.279Z</time></trkpt><trkpt lat="43.8585567" lon="11.1762917"><ele>77.0</ele><time>2026-04-18T09:24:04.281Z</time></trkpt><trkpt lat="43.8585967" lon="11.17619"><ele>77.0</ele><time>2026-04-18T09:24:05.281Z</time></trkpt><trkpt lat="43.8586333" lon="11.1760983"><ele>77.0</ele><time>2026-04-18T09:24:06.281Z</time></trkpt><trkpt lat="43.85867" lon="11.1760217"><ele>77.0</ele><time>2026-04-18T09:24:07.279Z</time></trkpt><trkpt lat="43.8587283" lon="11.1759717"><ele>77.0</ele><time>2026-04-18T09:24:08.28Z</time></trkpt><trkpt lat="43.858805" lon="11.1759483"><ele>77.0</ele><time>2026-04-18T09:24:09.279Z</time></trkpt><trkpt lat="43.858905" lon="11.1759417"><ele>77.0</ele><time>2026-04-18T09:24:10.279Z</time></trkpt><trkpt lat="43.8590183" lon="11.1759433"><ele>77.0</ele><time>2026-04-18T09:24:11.28Z</time></trkpt><trkpt lat="43.8591333" lon="11.1759467"><ele>77.0</ele><time>2026-04-18T09:24:12.281Z</time></trkpt><trkpt lat="43.8592517" lon="11.175955"><ele>77.5</ele><time>2026-04-18T09:24:13.281Z</time></trkpt><trkpt lat="43.8593717" lon="11.1759633"><ele>78.0</ele><time>2026-04-18T09:24:14.279Z</time></trkpt><trkpt lat="43.859495" lon="11.1759733"><ele>78.5</ele><time>2026-04-18T09:24:15.281Z</time></trkpt><trkpt lat="43.8596217" lon="11.1759817"><ele>79.0</ele><time>2026-04-18T09:24:16.28Z</time></trkpt><trkpt lat="43.85975" lon="11.175985"><ele>79.0</ele><time>2026-04-18T09:24:17.282Z</time></trkpt><trkpt lat="43.85988" lon="11.17598"><ele>79.0</ele><time>2026-04-18T09:24:18.28Z</time></trkpt><trkpt lat="43.8600167" lon="11.1759783"><ele>79.0</ele><time>2026-04-18T09:24:19.28Z</time></trkpt><trkpt lat="43.8601517" lon="11.175965"><ele>79.0</ele><time>2026-04-18T09:24:20.281Z</time></trkpt><trkpt lat="43.8602833" lon="11.1759433"><ele>78.75</ele><time>2026-04-18T09:24:21.281Z</time></trkpt><trkpt lat="43.86042" lon="11.1759217"><ele>78.5</ele><time>2026-04-18T09:24:22.281Z</time></trkpt><trkpt lat="43.8605483" lon="11.1758983"><ele>78.25</ele><time>2026-04-18T09:24:23.281Z</time></trkpt><trkpt lat="43.8606683" lon="11.1758717"><ele>78.0</ele><time>2026-04-18T09:24:24.281Z</time></trkpt><trkpt lat="43.8607983" lon="11.175845"><ele>78.0</ele><time>2026-04-18T09:24:25.285Z</time></trkpt><trkpt lat="43.86093" lon="11.175825"><ele>78.0</ele><time>2026-04-18T09:24:26.28Z</time></trkpt><trkpt lat="43.8610617" lon="11.1758067"><ele>78.0</ele><time>2026-04-18T09:24:27.279Z</time></trkpt><trkpt lat="43.8611883" lon="11.175785"><ele>78.0</ele><time>2026-04-18T09:24:28.279Z</time></trkpt><trkpt lat="43.8613033" lon="11.1757683"><ele>77.8</ele><time>2026-04-18T09:24:29.281Z</time></trkpt><trkpt lat="43.8614167" lon="11.1757517"><ele>77.6</ele><time>2026-04-18T09:24:30.28Z</time></trkpt><trkpt lat="43.8615183" lon="11.175725"><ele>77.4</ele><time>2026-04-18T09:24:31.279Z</time></trkpt><trkpt lat="43.8616133" lon="11.1756883"><ele>77.2</ele><time>2026-04-18T09:24:32.28Z</time></trkpt><trkpt lat="43.861695" lon="11.1756233"><ele>77.0</ele><time>2026-04-18T09:24:33.28Z</time></trkpt><trkpt lat="43.86177" lon="11.1755617"><ele>76.83333333333334</ele><time>2026-04-18T09:24:34.281Z</time></trkpt><trkpt lat="43.86183" lon="11.1754833"><ele>76.66666666666667</ele><time>2026-04-18T09:24:35.28Z</time></trkpt><trkpt lat="43.8618783" lon="11.1754117"><ele>76.5</ele><time>2026-04-18T09:24:36.279Z</time></trkpt><trkpt lat="43.8619683" lon="11.1753583"><ele>76.33333333333333</ele><time>2026-04-18T09:24:38.281Z</time></trkpt><trkpt lat="43.86207" lon="11.1754217"><ele>76.16666666666666</ele><time>2026-04-18T09:24:40.279Z</time></trkpt><trkpt lat="43.8621333" lon="11.175475"><ele>76.0</ele><time>2026-04-18T09:24:41.28Z</time></trkpt><trkpt lat="43.8622117" lon="11.1755467"><ele>76.0</ele><time>2026-04-18T09:24:42.28Z</time></trkpt><trkpt lat="43.8623167" lon="11.1756517"><ele>76.0</ele><time>2026-04-18T09:24:43.28Z</time></trkpt><trkpt lat="43.862405" lon="11.1757417"><ele>76.0</ele><time>2026-04-18T09:24:44.281Z</time></trkpt><trkpt lat="43.8624917" lon="11.175825"><ele>76.0</ele><time>2026-04-18T09:24:45.281Z</time></trkpt><trkpt lat="43.8625783" lon="11.1759033"><ele>76.0</ele><time>2026-04-18T09:24:46.281Z</time></trkpt><trkpt lat="43.86266" lon="11.1759767"><ele>76.5</ele><time>2026-04-18T09:24:47.28Z</time></trkpt><trkpt lat="43.8627283" lon="11.17606"><ele>77.0</ele><time>2026-04-18T09:24:48.279Z</time></trkpt><trkpt lat="43.8627867" lon="11.1761517"><ele>77.5</ele><time>2026-04-18T09:24:49.28Z</time></trkpt><trkpt lat="43.862845" lon="11.176225"><ele>78.0</ele><time>2026-04-18T09:24:50.281Z</time></trkpt><trkpt lat="43.8629183" lon="11.17627"><ele>78.5</ele><time>2026-04-18T09:24:51.279Z</time></trkpt><trkpt lat="43.863005" lon="11.1762833"><ele>79.0</ele><time>2026-04-18T09:24:52.28Z</time></trkpt><trkpt lat="43.86311" lon="11.1762583"><ele>79.0</ele><time>2026-04-18T09:24:53.279Z</time></trkpt><trkpt lat="43.8632333" lon="11.17622"><ele>79.0</ele><time>2026-04-18T09:24:54.28Z</time></trkpt><trkpt lat="43.86336" lon="11.1761967"><ele>79.0</ele><time>2026-04-18T09:24:55.28Z</time></trkpt><trkpt lat="43.8634983" lon="11.1761783"><ele>79.0</ele><time>2026-04-18T09:24:56.281Z</time></trkpt><trkpt lat="43.863635" lon="11.1761467"><ele>80.0</ele><time>2026-04-18T09:24:57.281Z</time></trkpt><trkpt lat="43.8637783" lon="11.1761"><ele>81.0</ele><time>2026-04-18T09:24:58.28Z</time></trkpt><trkpt lat="43.8639283" lon="11.1760467"><ele>82.0</ele><time>2026-04-18T09:24:59.282Z</time></trkpt><trkpt lat="43.8640833" lon="11.1759933"><ele>82.0</ele><time>2026-04-18T09:25:00.282Z</time></trkpt><trkpt lat="43.8642367" lon="11.1759367"><ele>82.0</ele><time>2026-04-18T09:25:01.28Z</time></trkpt><trkpt lat="43.8643933" lon="11.175875"><ele>82.0</ele><time>2026-04-18T09:25:02.281Z</time></trkpt><trkpt lat="43.864545" lon="11.175795"><ele>81.66666666666666</ele><time>2026-04-18T09:25:03.28Z</time></trkpt><trkpt lat="43.8647033" lon="11.17572"><ele>81.33333333333333</ele><time>2026-04-18T09:25:04.282Z</time></trkpt><trkpt lat="43.86487" lon="11.1756517"><ele>81.0</ele><time>2026-04-18T09:25:05.282Z</time></trkpt><trkpt lat="43.865035" lon="11.1755933"><ele>82.0</ele><time>2026-04-18T09:25:06.281Z</time></trkpt><trkpt lat="43.8652033" lon="11.1755283"><ele>83.0</ele><time>2026-04-18T09:25:07.28Z</time></trkpt><trkpt lat="43.8653717" lon="11.17546"><ele>84.0</ele><time>2026-04-18T09:25:08.28Z</time></trkpt><trkpt lat="43.86554" lon="11.175375"><ele>84.0</ele><time>2026-04-18T09:25:09.282Z</time></trkpt><trkpt lat="43.8657067" lon="11.175285"><ele>84.0</ele><time>2026-04-18T09:25:10.281Z</time></trkpt><trkpt lat="43.865875" lon="11.1752"><ele>84.0</ele><time>2026-04-18T09:25:11.282Z</time></trkpt><trkpt lat="43.8660367" lon="11.1751133"><ele>86.33333333333333</ele><time>2026-04-18T09:25:12.281Z</time></trkpt><trkpt lat="43.8662033" lon="11.1750267"><ele>88.66666666666666</ele><time>2026-04-18T09:25:13.282Z</time></trkpt><trkpt lat="43.8663717" lon="11.1749417"><ele>91.0</ele><time>2026-04-18T09:25:14.283Z</time></trkpt><trkpt lat="43.8665433" lon="11.17486"><ele>92.33333333333333</ele><time>2026-04-18T09:25:15.281Z</time></trkpt><trkpt lat="43.8667217" lon="11.174785"><ele>93.66666666666667</ele><time>2026-04-18T09:25:16.282Z</time></trkpt><trkpt lat="43.8669083" lon="11.1747167"><ele>95.0</ele><time>2026-04-18T09:25:17.28Z</time></trkpt><trkpt lat="43.86709" lon="11.1746433"><ele>101.33333333333334</ele><time>2026-04-18T09:25:18.281Z</time></trkpt><trkpt lat="43.86727" lon="11.17457"><ele>107.66666666666667</ele><time>2026-04-18T09:25:19.282Z</time></trkpt><trkpt lat="43.867455" lon="11.1744733"><ele>114.0</ele><time>2026-04-18T09:25:20.28Z</time></trkpt><trkpt lat="43.8676433" lon="11.1743633"><ele>116.66666666666666</ele><time>2026-04-18T09:25:21.28Z</time></trkpt><trkpt lat="43.8678383" lon="11.17424"><ele>119.33333333333333</ele><time>2026-04-18T09:25:22.281Z</time></trkpt><trkpt lat="43.8680533" lon="11.1742167"><ele>122.0</ele><time>2026-04-18T09:25:23.281Z</time></trkpt><trkpt lat="43.8682683" lon="11.174235"><ele>87.0</ele><time>2026-04-18T09:25:24.282Z</time></trkpt><trkpt lat="43.870325" lon="11.1721"><ele>87.0</ele><time>2026-04-18T09:25:39.281Z</time></trkpt><trkpt lat="43.870605" lon="11.172035"><ele>87.0</ele><time>2026-04-18T09:25:40.28Z</time></trkpt><trkpt lat="43.8707217" lon="11.1718467"><ele>87.0</ele><time>2026-04-18T09:25:41.28Z</time></trkpt><trkpt lat="43.8708533" lon="11.17167"><ele>87.0</ele><time>2026-04-18T09:25:42.281Z</time></trkpt><trkpt lat="43.8709883" lon="11.1715"><ele>87.0</ele><time>2026-04-18T09:25:43.279Z</time></trkpt><trkpt lat="43.8711033" lon="11.1713383"><ele>84.33333333333333</ele><time>2026-04-18T09:25:44.279Z</time></trkpt><trkpt lat="43.8712083" lon="11.1711317"><ele>81.66666666666666</ele><time>2026-04-18T09:25:45.279Z</time></trkpt><trkpt lat="43.871305" lon="11.1709533"><ele>79.0</ele><time>2026-04-18T09:25:46.279Z</time></trkpt><trkpt lat="43.8714117" lon="11.1708"><ele>79.0</ele><time>2026-04-18T09:25:47.279Z</time></trkpt><trkpt lat="43.8714983" lon="11.1706417"><ele>79.0</ele><time>2026-04-18T09:25:48.279Z</time></trkpt><trkpt lat="43.8715817" lon="11.17049"><ele>79.0</ele><time>2026-04-18T09:25:49.28Z</time></trkpt><trkpt lat="43.8716383" lon="11.170385"><ele>79.0</ele><time>2026-04-18T09:25:50.281Z</time></trkpt><trkpt lat="43.8716967" lon="11.1702717"><ele>79.0</ele><time>2026-04-18T09:25:51.281Z</time></trkpt><trkpt lat="43.8717617" lon="11.170175"><ele>79.0</ele><time>2026-04-18T09:25:52.279Z</time></trkpt><trkpt lat="43.8718217" lon="11.1700883"><ele>79.0</ele><time>2026-04-18T09:25:53.281Z</time></trkpt><trkpt lat="43.8718967" lon="11.1700417"><ele>79.0</ele><time>2026-04-18T09:25:54.28Z</time></trkpt><trkpt lat="43.871995" lon="11.1700767"><ele>79.0</ele><time>2026-04-18T09:25:55.28Z</time></trkpt><trkpt lat="43.872085" lon="11.17012"><ele>78.25</ele><time>2026-04-18T09:25:56.279Z</time></trkpt><trkpt lat="43.87218" lon="11.1702583"><ele>77.5</ele><time>2026-04-18T09:25:57.278Z</time></trkpt><trkpt lat="43.8722767" lon="11.1704167"><ele>76.75</ele><time>2026-04-18T09:25:58.28Z</time></trkpt><trkpt lat="43.8723767" lon="11.1705767"><ele>76.0</ele><time>2026-04-18T09:25:59.278Z</time></trkpt><trkpt lat="43.8724783" lon="11.17075"><ele>76.0</ele><time>2026-04-18T09:26:00.28Z</time></trkpt><trkpt lat="43.87259" lon="11.1709317"><ele>76.0</ele><time>2026-04-18T09:26:01.282Z</time></trkpt><trkpt lat="43.8726983" lon="11.1711167"><ele>76.0</ele><time>2026-04-18T09:26:02.281Z</time></trkpt><trkpt lat="43.87281" lon="11.1713017"><ele>75.66666666666666</ele><time>2026-04-18T09:26:03.281Z</time></trkpt><trkpt lat="43.8729233" lon="11.1714833"><ele>75.33333333333333</ele><time>2026-04-18T09:26:04.282Z</time></trkpt><trkpt lat="43.873035" lon="11.1716567"><ele>75.0</ele><time>2026-04-18T09:26:05.282Z</time></trkpt><trkpt lat="43.87314" lon="11.1718267"><ele>75.0</ele><time>2026-04-18T09:26:06.282Z</time></trkpt><trkpt lat="43.87324" lon="11.1719883"><ele>75.0</ele><time>2026-04-18T09:26:07.282Z</time></trkpt><trkpt lat="43.87334" lon="11.1721433"><ele>75.0</ele><time>2026-04-18T09:26:08.28Z</time></trkpt><trkpt lat="43.8734383" lon="11.172295"><ele>76.0</ele><time>2026-04-18T09:26:09.281Z</time></trkpt><trkpt lat="43.87354" lon="11.172435"><ele>77.0</ele><time>2026-04-18T09:26:10.28Z</time></trkpt><trkpt lat="43.8736517" lon="11.1725517"><ele>78.0</ele><time>2026-04-18T09:26:11.28Z</time></trkpt><trkpt lat="43.8737633" lon="11.1726533"><ele>79.0</ele><time>2026-04-18T09:26:12.282Z</time></trkpt><trkpt lat="43.87387" lon="11.1727383"><ele>79.0</ele><time>2026-04-18T09:26:13.283Z</time></trkpt><trkpt lat="43.8739667" lon="11.1728117"><ele>79.0</ele><time>2026-04-18T09:26:14.28Z</time></trkpt><trkpt lat="43.87406" lon="11.17288"><ele>79.0</ele><time>2026-04-18T09:26:15.28Z</time></trkpt><trkpt lat="43.8741533" lon="11.1729517"><ele>79.0</ele><time>2026-04-18T09:26:16.28Z</time></trkpt><trkpt lat="43.8742483" lon="11.1730217"><ele>79.0</ele><time>2026-04-18T09:26:17.281Z</time></trkpt><trkpt lat="43.874345" lon="11.1731"><ele>78.5</ele><time>2026-04-18T09:26:18.28Z</time></trkpt><trkpt lat="43.8744467" lon="11.1731783"><ele>78.0</ele><time>2026-04-18T09:26:19.281Z</time></trkpt><trkpt lat="43.8745483" lon="11.1732567"><ele>77.5</ele><time>2026-04-18T09:26:20.281Z</time></trkpt><trkpt lat="43.8746533" lon="11.1733483"><ele>77.0</ele><time>2026-04-18T09:26:21.279Z</time></trkpt><trkpt lat="43.8747617" lon="11.1734617"><ele>77.25</ele><time>2026-04-18T09:26:22.281Z</time></trkpt><trkpt lat="43.8748683" lon="11.1735433"><ele>77.5</ele><time>2026-04-18T09:26:23.279Z</time></trkpt><trkpt lat="43.87497" lon="11.17363"><ele>77.75</ele><time>2026-04-18T09:26:24.28Z</time></trkpt><trkpt lat="43.8750717" lon="11.1737217"><ele>78.0</ele><time>2026-04-18T09:26:25.281Z</time></trkpt><trkpt lat="43.8751717" lon="11.1738183"><ele>78.0</ele><time>2026-04-18T09:26:26.283Z</time></trkpt><trkpt lat="43.8752683" lon="11.173915"><ele>78.0</ele><time>2026-04-18T09:26:27.28Z</time></trkpt><trkpt lat="43.8753683" lon="11.1740067"><ele>78.0</ele><time>2026-04-18T09:26:28.281Z</time></trkpt><trkpt lat="43.8754683" lon="11.1740967"><ele>78.0</ele><time>2026-04-18T09:26:29.281Z</time></trkpt><trkpt lat="43.8755667" lon="11.1742067"><ele>78.5</ele><time>2026-04-18T09:26:30.28Z</time></trkpt><trkpt lat="43.8756683" lon="11.1743133"><ele>79.0</ele><time>2026-04-18T09:26:31.281Z</time></trkpt><trkpt lat="43.8757767" lon="11.1744217"><ele>79.5</ele><time>2026-04-18T09:26:32.283Z</time></trkpt><trkpt lat="43.8759" lon="11.17454"><ele>80.0</ele><time>2026-04-18T09:26:33.28Z</time></trkpt><trkpt lat="43.8760333" lon="11.1746667"><ele>80.0</ele><time>2026-04-18T09:26:34.28Z</time></trkpt><trkpt lat="43.8761683" lon="11.1747783"><ele>80.0</ele><time>2026-04-18T09:26:35.28Z</time></trkpt><trkpt lat="43.8763017" lon="11.1748767"><ele>80.0</ele><time>2026-04-18T09:26:36.281Z</time></trkpt><trkpt lat="43.8764483" lon="11.1749917"><ele>80.33333333333334</ele><time>2026-04-18T09:26:37.281Z</time></trkpt><trkpt lat="43.8766067" lon="11.1751067"><ele>80.66666666666667</ele><time>2026-04-18T09:26:38.281Z</time></trkpt><trkpt lat="43.8767633" lon="11.1752417"><ele>81.0</ele><time>2026-04-18T09:26:39.282Z</time></trkpt><trkpt lat="43.876925" lon="11.175385"><ele>81.0</ele><time>2026-04-18T09:26:40.282Z</time></trkpt><trkpt lat="43.87709" lon="11.175535"><ele>81.0</ele><time>2026-04-18T09:26:41.283Z</time></trkpt><trkpt lat="43.8772617" lon="11.1756783"><ele>81.0</ele><time>2026-04-18T09:26:42.282Z</time></trkpt><trkpt lat="43.877435" lon="11.1758217"><ele>81.33333333333333</ele><time>2026-04-18T09:26:43.283Z</time></trkpt><trkpt lat="43.8776017" lon="11.1759733"><ele>81.66666666666666</ele><time>2026-04-18T09:26:44.281Z</time></trkpt><trkpt lat="43.8777583" lon="11.1761033"><ele>82.0</ele><time>2026-04-18T09:26:45.279Z</time></trkpt><trkpt lat="43.8779033" lon="11.1762317"><ele>82.0</ele><time>2026-04-18T09:26:46.281Z</time></trkpt><trkpt lat="43.8780333" lon="11.1763533"><ele>82.0</ele><time>2026-04-18T09:26:47.283Z</time></trkpt><trkpt lat="43.87815" lon="11.17648"><ele>82.0</ele><time>2026-04-18T09:26:48.281Z</time></trkpt><trkpt lat="43.87827" lon="11.1766167"><ele>81.33333333333333</ele><time>2026-04-18T09:26:49.282Z</time></trkpt><trkpt lat="43.8783917" lon="11.1767667"><ele>80.66666666666667</ele><time>2026-04-18T09:26:50.281Z</time></trkpt><trkpt lat="43.8785133" lon="11.176945"><ele>80.0</ele><time>2026-04-18T09:26:51.282Z</time></trkpt><trkpt lat="43.8786367" lon="11.1771333"><ele>80.0</ele><time>2026-04-18T09:26:52.281Z</time></trkpt><trkpt lat="43.8787633" lon="11.1773217"><ele>80.0</ele><time>2026-04-18T09:26:53.281Z</time></trkpt><trkpt lat="43.87889" lon="11.1775167"><ele>80.0</ele><time>2026-04-18T09:26:54.281Z</time></trkpt><trkpt lat="43.8790133" lon="11.1777183"><ele>80.66666666666667</ele><time>2026-04-18T09:26:55.282Z</time></trkpt><trkpt lat="43.8791333" lon="11.1779317"><ele>81.33333333333333</ele><time>2026-04-18T09:26:56.282Z</time></trkpt><trkpt lat="43.87925" lon="11.1781467"><ele>82.0</ele><time>2026-04-18T09:26:57.282Z</time></trkpt><trkpt lat="43.87936" lon="11.17836"><ele>82.0</ele><time>2026-04-18T09:26:58.283Z</time></trkpt><trkpt lat="43.8794633" lon="11.17858"><ele>82.0</ele><time>2026-04-18T09:26:59.283Z</time></trkpt><trkpt lat="43.8795633" lon="11.1788"><ele>82.0</ele><time>2026-04-18T09:27:00.281Z</time></trkpt><trkpt lat="43.8796633" lon="11.1790217"><ele>83.66666666666666</ele><time>2026-04-18T09:27:01.281Z</time></trkpt><trkpt lat="43.8797633" lon="11.1792333"><ele>85.33333333333333</ele><time>2026-04-18T09:27:02.281Z</time></trkpt><trkpt lat="43.879865" lon="11.17945"><ele>87.0</ele><time>2026-04-18T09:27:03.281Z</time></trkpt><trkpt lat="43.8799767" lon="11.1796267"><ele>87.0</ele><time>2026-04-18T09:27:04.281Z</time></trkpt><trkpt lat="43.8800883" lon="11.1798283"><ele>87.0</ele><time>2026-04-18T09:27:05.282Z</time></trkpt><trkpt lat="43.8802117" lon="11.1800133"><ele>87.0</ele><time>2026-04-18T09:27:06.282Z</time></trkpt><trkpt lat="43.8803467" lon="11.1801733"><ele>87.0</ele><time>2026-04-18T09:27:07.282Z</time></trkpt><trkpt lat="43.8805033" lon="11.1803133"><ele>87.0</ele><time>2026-04-18T09:27:08.28Z</time></trkpt><trkpt lat="43.8806633" lon="11.1804267"><ele>87.0</ele><time>2026-04-18T09:27:09.282Z</time></trkpt><trkpt lat="43.88083" lon="11.1805"><ele>87.33333333333333</ele><time>2026-04-18T09:27:10.281Z</time></trkpt><trkpt lat="43.8809983" lon="11.1805483"><ele>87.66666666666666</ele><time>2026-04-18T09:27:11.279Z</time></trkpt><trkpt lat="43.8811583" lon="11.1805567"><ele>88.0</ele><time>2026-04-18T09:27:12.283Z</time></trkpt><trkpt lat="43.881305" lon="11.1805517"><ele>88.0</ele><time>2026-04-18T09:27:13.28Z</time></trkpt><trkpt lat="43.881435" lon="11.1805233"><ele>88.0</ele><time>2026-04-18T09:27:14.28Z</time></trkpt><trkpt lat="43.8815517" lon="11.1804917"><ele>88.0</ele><time>2026-04-18T09:27:15.28Z</time></trkpt><trkpt lat="43.88165" lon="11.18048"><ele>88.0</ele><time>2026-04-18T09:27:16.28Z</time></trkpt><trkpt lat="43.8817433" lon="11.1804833"><ele>88.0</ele><time>2026-04-18T09:27:17.282Z</time></trkpt><trkpt lat="43.88184" lon="11.1804583"><ele>88.75</ele><time>2026-04-18T09:27:18.282Z</time></trkpt><trkpt lat="43.8819417" lon="11.180395"><ele>89.5</ele><time>2026-04-18T09:27:19.28Z</time></trkpt><trkpt lat="43.8820533" lon="11.1803483"><ele>90.25</ele><time>2026-04-18T09:27:20.28Z</time></trkpt><trkpt lat="43.8821783" lon="11.18033"><ele>91.0</ele><time>2026-04-18T09:27:21.28Z</time></trkpt><trkpt lat="43.882305" lon="11.1803417"><ele>91.0</ele><time>2026-04-18T09:27:22.28Z</time></trkpt><trkpt lat="43.8824233" lon="11.180375"><ele>91.0</ele><time>2026-04-18T09:27:23.281Z</time></trkpt><trkpt lat="43.8825333" lon="11.1804167"><ele>91.0</ele><time>2026-04-18T09:27:24.28Z</time></trkpt><trkpt lat="43.8826367" lon="11.1804583"><ele>91.0</ele><time>2026-04-18T09:27:25.28Z</time></trkpt><trkpt lat="43.8827433" lon="11.180505"><ele>91.0</ele><time>2026-04-18T09:27:26.28Z</time></trkpt><trkpt lat="43.88285" lon="11.1805433"><ele>91.0</ele><time>2026-04-18T09:27:27.28Z</time></trkpt><trkpt lat="43.8829467" lon="11.1805817"><ele>91.0</ele><time>2026-04-18T09:27:28.282Z</time></trkpt><trkpt lat="43.883035" lon="11.180625"><ele>91.0</ele><time>2026-04-18T09:27:29.28Z</time></trkpt><trkpt lat="43.88311" lon="11.1806617"><ele>91.0</ele><time>2026-04-18T09:27:30.281Z</time></trkpt><trkpt lat="43.8831733" lon="11.1806883"><ele>91.0</ele><time>2026-04-18T09:27:31.28Z</time></trkpt><trkpt lat="43.8832367" lon="11.180715"><ele>91.0</ele><time>2026-04-18T09:27:32.28Z</time></trkpt><trkpt lat="43.8833" lon="11.1807617"><ele>91.0</ele><time>2026-04-18T09:27:33.281Z</time></trkpt><trkpt lat="43.88336" lon="11.1808183"><ele>91.0</ele><time>2026-04-18T09:27:34.28Z</time></trkpt><trkpt lat="43.8834117" lon="11.180895"><ele>91.0</ele><time>2026-04-18T09:27:35.28Z</time></trkpt><trkpt lat="43.8834667" lon="11.1809667"><ele>91.0</ele><time>2026-04-18T09:27:36.281Z</time></trkpt><trkpt lat="43.8835283" lon="11.1810017"><ele>91.0</ele><time>2026-04-18T09:27:37.281Z</time></trkpt><trkpt lat="43.8836017" lon="11.1810017"><ele>91.0</ele><time>2026-04-18T09:27:38.282Z</time></trkpt><trkpt lat="43.8836767" lon="11.1809867"><ele>91.0</ele><time>2026-04-18T09:27:39.281Z</time></trkpt><trkpt lat="43.8837633" lon="11.1809533"><ele>91.0</ele><time>2026-04-18T09:27:40.281Z</time></trkpt><trkpt lat="43.88386" lon="11.1809283"><ele>91.0</ele><time>2026-04-18T09:27:41.282Z</time></trkpt><trkpt lat="43.88399" lon="11.180935"><ele>91.0</ele><time>2026-04-18T09:27:42.281Z</time></trkpt><trkpt lat="43.884125" lon="11.1809367"><ele>91.0</ele><time>2026-04-18T09:27:43.281Z</time></trkpt><trkpt lat="43.88427" lon="11.1809433"><ele>91.0</ele><time>2026-04-18T09:27:44.282Z</time></trkpt><trkpt lat="43.884425" lon="11.18095"><ele>91.0</ele><time>2026-04-18T09:27:45.281Z</time></trkpt><trkpt lat="43.8845817" lon="11.1809617"><ele>91.0</ele><time>2026-04-18T09:27:46.28Z</time></trkpt><trkpt lat="43.8847517" lon="11.1809683"><ele>91.0</ele><time>2026-04-18T09:27:47.28Z</time></trkpt><trkpt lat="43.88493" lon="11.1809917"><ele>91.0</ele><time>2026-04-18T09:27:48.282Z</time></trkpt><trkpt lat="43.88511" lon="11.1810317"><ele>91.0</ele><time>2026-04-18T09:27:49.282Z</time></trkpt><trkpt lat="43.8852883" lon="11.1810833"><ele>91.0</ele><time>2026-04-18T09:27:50.281Z</time></trkpt><trkpt lat="43.8854767" lon="11.1811467"><ele>91.0</ele><time>2026-04-18T09:27:51.281Z</time></trkpt><trkpt lat="43.8856533" lon="11.18122"><ele>91.0</ele><time>2026-04-18T09:27:52.279Z</time></trkpt><trkpt lat="43.8858267" lon="11.1813117"><ele>91.0</ele><time>2026-04-18T09:27:53.28Z</time></trkpt><trkpt lat="43.8859917" lon="11.18142"><ele>91.0</ele><time>2026-04-18T09:27:54.279Z</time></trkpt><trkpt lat="43.88614" lon="11.181525"><ele>92.0</ele><time>2026-04-18T09:27:55.281Z</time></trkpt><trkpt lat="43.886275" lon="11.1816283"><ele>93.0</ele><time>2026-04-18T09:27:56.279Z</time></trkpt><trkpt lat="43.8864133" lon="11.1817183"><ele>94.0</ele><time>2026-04-18T09:27:57.282Z</time></trkpt><trkpt lat="43.8865617" lon="11.1818183"><ele>94.0</ele><time>2026-04-18T09:27:58.281Z</time></trkpt><trkpt lat="43.8867167" lon="11.1819233"><ele>94.0</ele><time>2026-04-18T09:27:59.281Z</time></trkpt><trkpt lat="43.8868733" lon="11.1820083"><ele>94.0</ele><time>2026-04-18T09:28:00.28Z</time></trkpt><trkpt lat="43.8870367" lon="11.1820667"><ele>94.0</ele><time>2026-04-18T09:28:01.279Z</time></trkpt><trkpt lat="43.8872117" lon="11.1821"><ele>94.0</ele><time>2026-04-18T09:28:02.28Z</time></trkpt><trkpt lat="43.887395" lon="11.1821267"><ele>94.0</ele><time>2026-04-18T09:28:03.28Z</time></trkpt><trkpt lat="43.8875933" lon="11.182165"><ele>94.0</ele><time>2026-04-18T09:28:04.279Z</time></trkpt><trkpt lat="43.8877933" lon="11.18221"><ele>94.0</ele><time>2026-04-18T09:28:05.279Z</time></trkpt><trkpt lat="43.8879833" lon="11.18226"><ele>94.0</ele><time>2026-04-18T09:28:06.281Z</time></trkpt><trkpt lat="43.888165" lon="11.1823067"><ele>94.0</ele><time>2026-04-18T09:28:07.281Z</time></trkpt><trkpt lat="43.8883333" lon="11.1823467"><ele>94.0</ele><time>2026-04-18T09:28:08.278Z</time></trkpt><trkpt lat="43.8884883" lon="11.1823833"><ele>94.0</ele><time>2026-04-18T09:28:09.28Z</time></trkpt><trkpt lat="43.8886317" lon="11.1824167"><ele>96.25</ele><time>2026-04-18T09:28:10.281Z</time></trkpt><trkpt lat="43.8887667" lon="11.1824383"><ele>98.5</ele><time>2026-04-18T09:28:11.281Z</time></trkpt><trkpt lat="43.8889067" lon="11.1824483"><ele>100.75</ele><time>2026-04-18T09:28:12.282Z</time></trkpt><trkpt lat="43.8890667" lon="11.1824533"><ele>103.0</ele><time>2026-04-18T09:28:13.28Z</time></trkpt><trkpt lat="43.8892483" lon="11.1824583"><ele>102.33333333333334</ele><time>2026-04-18T09:28:14.28Z</time></trkpt><trkpt lat="43.8894483" lon="11.1824783"><ele>101.66666666666666</ele><time>2026-04-18T09:28:15.28Z</time></trkpt><trkpt lat="43.889655" lon="11.1825033"><ele>101.0</ele><time>2026-04-18T09:28:16.28Z</time></trkpt><trkpt lat="43.88986" lon="11.18253"><ele>101.0</ele><time>2026-04-18T09:28:17.28Z</time></trkpt><trkpt lat="43.8900583" lon="11.182555"><ele>101.0</ele><time>2026-04-18T09:28:18.28Z</time></trkpt><trkpt lat="43.8902383" lon="11.18258"><ele>101.0</ele><time>2026-04-18T09:28:19.279Z</time></trkpt><trkpt lat="43.8904017" lon="11.1826083"><ele>101.5</ele><time>2026-04-18T09:28:20.28Z</time></trkpt><trkpt lat="43.89055" lon="11.1826283"><ele>102.0</ele><time>2026-04-18T09:28:21.281Z</time></trkpt><trkpt lat="43.8906783" lon="11.1826467"><ele>102.5</ele><time>2026-04-18T09:28:22.281Z</time></trkpt><trkpt lat="43.89079" lon="11.182665"><ele>103.0</ele><time>2026-04-18T09:28:23.28Z</time></trkpt><trkpt lat="43.890895" lon="11.1826717"><ele>103.2</ele><time>2026-04-18T09:28:24.283Z</time></trkpt><trkpt lat="43.8909983" lon="11.182695"><ele>103.4</ele><time>2026-04-18T09:28:25.281Z</time></trkpt><trkpt lat="43.8911017" lon="11.1827267"><ele>103.60000000000001</ele><time>2026-04-18T09:28:26.279Z</time></trkpt><trkpt lat="43.8911967" lon="11.182755"><ele>103.80000000000001</ele><time>2026-04-18T09:28:27.279Z</time></trkpt><trkpt lat="43.8912883" lon="11.1827867"><ele>104.0</ele><time>2026-04-18T09:28:28.28Z</time></trkpt><trkpt lat="43.891375" lon="11.18282"><ele>103.99999999999999</ele><time>2026-04-18T09:28:29.279Z</time></trkpt><trkpt lat="43.8914583" lon="11.1828517"><ele>104.0</ele><time>2026-04-18T09:28:30.28Z</time></trkpt><trkpt lat="43.8915333" lon="11.1828833"><ele>104.0</ele><time>2026-04-18T09:28:31.28Z</time></trkpt><trkpt lat="43.8916033" lon="11.1829133"><ele>104.0</ele><time>2026-04-18T09:28:32.282Z</time></trkpt><trkpt lat="43.8916667" lon="11.1829483"><ele>103.99999999999999</ele><time>2026-04-18T09:28:33.281Z</time></trkpt><trkpt lat="43.8917283" lon="11.1829817"><ele>104.0</ele><time>2026-04-18T09:28:34.281Z</time></trkpt><trkpt lat="43.8918383" lon="11.1830433"><ele>104.0</ele><time>2026-04-18T09:28:36.279Z</time></trkpt><trkpt lat="43.8919367" lon="11.183125"><ele>104.0</ele><time>2026-04-18T09:28:38.279Z</time></trkpt><trkpt lat="43.8920033" lon="11.18325"><ele>104.0</ele><time>2026-04-18T09:28:40.281Z</time></trkpt><trkpt lat="43.8920717" lon="11.1833633"><ele>104.0</ele><time>2026-04-18T09:28:42.28Z</time></trkpt><trkpt lat="43.8921567" lon="11.1834667"><ele>104.0</ele><time>2026-04-18T09:28:44.281Z</time></trkpt><trkpt lat="43.8922867" lon="11.1834783"><ele>104.0</ele><time>2026-04-18T09:28:46.28Z</time></trkpt><trkpt lat="43.8923717" lon="11.1834917"><ele>104.0</ele><time>2026-04-18T09:28:47.282Z</time></trkpt><trkpt lat="43.8924683" lon="11.1835333"><ele>104.0</ele><time>2026-04-18T09:28:48.28Z</time></trkpt><trkpt lat="43.8925717" lon="11.1836017"><ele>104.0</ele><time>2026-04-18T09:28:49.281Z</time></trkpt><trkpt lat="43.8926617" lon="11.18369"><ele>104.0</ele><time>2026-04-18T09:28:50.28Z</time></trkpt><trkpt lat="43.8927383" lon="11.1837783"><ele>104.0</ele><time>2026-04-18T09:28:51.281Z</time></trkpt><trkpt lat="43.8928067" lon="11.1838683"><ele>104.0</ele><time>2026-04-18T09:28:52.279Z</time></trkpt><trkpt lat="43.8928717" lon="11.1839567"><ele>104.0</ele><time>2026-04-18T09:28:53.28Z</time></trkpt><trkpt lat="43.8929367" lon="11.1840467"><ele>104.0</ele><time>2026-04-18T09:28:54.28Z</time></trkpt><trkpt lat="43.8930033" lon="11.1841467"><ele>104.0</ele><time>2026-04-18T09:28:55.281Z</time></trkpt><trkpt lat="43.8930717" lon="11.1842533"><ele>106.33333333333333</ele><time>2026-04-18T09:28:56.28Z</time></trkpt><trkpt lat="43.8931517" lon="11.1843817"><ele>108.66666666666666</ele><time>2026-04-18T09:28:57.28Z</time></trkpt><trkpt lat="43.893255" lon="11.1845367"><ele>111.0</ele><time>2026-04-18T09:28:58.279Z</time></trkpt><trkpt lat="43.89338" lon="11.184735"><ele>112.5</ele><time>2026-04-18T09:28:59.28Z</time></trkpt><trkpt lat="43.8935183" lon="11.184975"><ele>114.0</ele><time>2026-04-18T09:29:00.28Z</time></trkpt><trkpt lat="43.8936717" lon="11.1852367"><ele>114.0</ele><time>2026-04-18T09:29:01.28Z</time></trkpt><trkpt lat="43.8938433" lon="11.1855217"><ele>114.0</ele><time>2026-04-18T09:29:02.28Z</time></trkpt><trkpt lat="43.8940117" lon="11.1857933"><ele>115.5</ele><time>2026-04-18T09:29:03.278Z</time></trkpt><trkpt lat="43.89417" lon="11.1860433"><ele>117.0</ele><time>2026-04-18T09:29:04.28Z</time></trkpt><trkpt lat="43.8943167" lon="11.1862667"><ele>117.0</ele><time>2026-04-18T09:29:05.279Z</time></trkpt><trkpt lat="43.8944567" lon="11.1864717"><ele>117.0</ele><time>2026-04-18T09:29:06.28Z</time></trkpt><trkpt lat="43.8945983" lon="11.1866617"><ele>117.0</ele><time>2026-04-18T09:29:07.28Z</time></trkpt><trkpt lat="43.8947433" lon="11.1868367"><ele>117.33333333333334</ele><time>2026-04-18T09:29:08.282Z</time></trkpt><trkpt lat="43.8948967" lon="11.1869967"><ele>117.66666666666667</ele><time>2026-04-18T09:29:09.282Z</time></trkpt><trkpt lat="43.8950483" lon="11.1871433"><ele>118.0</ele><time>2026-04-18T09:29:10.279Z</time></trkpt><trkpt lat="43.895195" lon="11.187275"><ele>121.33333333333334</ele><time>2026-04-18T09:29:11.28Z</time></trkpt><trkpt lat="43.89534" lon="11.1873883"><ele>124.66666666666666</ele><time>2026-04-18T09:29:12.279Z</time></trkpt><trkpt lat="43.895495" lon="11.1875"><ele>128.0</ele><time>2026-04-18T09:29:13.28Z</time></trkpt><trkpt lat="43.8956617" lon="11.187605"><ele>128.0</ele><time>2026-04-18T09:29:14.283Z</time></trkpt><trkpt lat="43.895835" lon="11.1877083"><ele>128.0</ele><time>2026-04-18T09:29:15.28Z</time></trkpt><trkpt lat="43.8960133" lon="11.1878"><ele>128.0</ele><time>2026-04-18T09:29:16.281Z</time></trkpt><trkpt lat="43.8962" lon="11.1878833"><ele>125.66666666666666</ele><time>2026-04-18T09:29:17.281Z</time></trkpt><trkpt lat="43.8963967" lon="11.187965"><ele>123.33333333333334</ele><time>2026-04-18T09:29:18.281Z</time></trkpt><trkpt lat="43.8965967" lon="11.18803"><ele>121.0</ele><time>2026-04-18T09:29:19.279Z</time></trkpt><trkpt lat="43.896805" lon="11.18809"><ele>120.0</ele><time>2026-04-18T09:29:20.282Z</time></trkpt><trkpt lat="43.8970167" lon="11.1881483"><ele>119.0</ele><time>2026-04-18T09:29:21.28Z</time></trkpt><trkpt lat="43.8972283" lon="11.1882033"><ele>118.0</ele><time>2026-04-18T09:29:22.282Z</time></trkpt><trkpt lat="43.8974367" lon="11.188255"><ele>119.66666666666667</ele><time>2026-04-18T09:29:23.282Z</time></trkpt><trkpt lat="43.8976417" lon="11.1883"><ele>121.33333333333334</ele><time>2026-04-18T09:29:24.281Z</time></trkpt><trkpt lat="43.8978417" lon="11.1883267"><ele>123.0</ele><time>2026-04-18T09:29:25.281Z</time></trkpt><trkpt lat="43.89804" lon="11.1883383"><ele>123.0</ele><time>2026-04-18T09:29:26.282Z</time></trkpt><trkpt lat="43.8982217" lon="11.1883083"><ele>123.0</ele><time>2026-04-18T09:29:27.28Z</time></trkpt><trkpt lat="43.8983867" lon="11.1882583"><ele>123.0</ele><time>2026-04-18T09:29:28.28Z</time></trkpt><trkpt lat="43.8985283" lon="11.1881967"><ele>121.60000000000001</ele><time>2026-04-18T09:29:29.282Z</time></trkpt><trkpt lat="43.898645" lon="11.188135"><ele>120.20000000000002</ele><time>2026-04-18T09:29:30.281Z</time></trkpt><trkpt lat="43.898745" lon="11.188095"><ele>118.8</ele><time>2026-04-18T09:29:31.281Z</time></trkpt><trkpt lat="43.8988517" lon="11.1880983"><ele>117.4</ele><time>2026-04-18T09:29:32.279Z</time></trkpt><trkpt lat="43.898955" lon="11.1880933"><ele>116.0</ele><time>2026-04-18T09:29:33.279Z</time></trkpt><trkpt lat="43.89904" lon="11.188025"><ele>116.0</ele><time>2026-04-18T09:29:34.28Z</time></trkpt><trkpt lat="43.8991317" lon="11.1879767"><ele>116.0</ele><time>2026-04-18T09:29:35.28Z</time></trkpt><trkpt lat="43.8992267" lon="11.1879533"><ele>116.0</ele><time>2026-04-18T09:29:36.281Z</time></trkpt><trkpt lat="43.8993383" lon="11.187975"><ele>116.0</ele><time>2026-04-18T09:29:37.281Z</time></trkpt><trkpt lat="43.8994517" lon="11.1880317"><ele>116.0</ele><time>2026-04-18T09:29:38.281Z</time></trkpt><trkpt lat="43.8995833" lon="11.1881283"><ele>117.33333333333333</ele><time>2026-04-18T09:29:39.28Z</time></trkpt><trkpt lat="43.8997233" lon="11.1882483"><ele>118.66666666666666</ele><time>2026-04-18T09:29:40.279Z</time></trkpt><trkpt lat="43.8998633" lon="11.1883617"><ele>120.0</ele><time>2026-04-18T09:29:41.28Z</time></trkpt><trkpt lat="43.9000067" lon="11.1884783"><ele>120.33333333333334</ele><time>2026-04-18T09:29:42.28Z</time></trkpt><trkpt lat="43.90015" lon="11.1885967"><ele>120.66666666666667</ele><time>2026-04-18T09:29:43.28Z</time></trkpt><trkpt lat="43.900295" lon="11.18871"><ele>121.0</ele><time>2026-04-18T09:29:44.28Z</time></trkpt><trkpt lat="43.900445" lon="11.1888183"><ele>121.0</ele><time>2026-04-18T09:29:45.281Z</time></trkpt><trkpt lat="43.900605" lon="11.1889117"><ele>121.0</ele><time>2026-04-18T09:29:46.279Z</time></trkpt><trkpt lat="43.9007767" lon="11.1889783"><ele>121.0</ele><time>2026-04-18T09:29:47.282Z</time></trkpt><trkpt lat="43.9009583" lon="11.1890317"><ele>121.33333333333334</ele><time>2026-04-18T09:29:48.28Z</time></trkpt><trkpt lat="43.9011433" lon="11.1890767"><ele>121.66666666666666</ele><time>2026-04-18T09:29:49.28Z</time></trkpt><trkpt lat="43.901335" lon="11.1891183"><ele>122.0</ele><time>2026-04-18T09:29:50.281Z</time></trkpt><trkpt lat="43.9015283" lon="11.189155"><ele>122.0</ele><time>2026-04-18T09:29:51.281Z</time></trkpt><trkpt lat="43.901725" lon="11.1891683"><ele>122.0</ele><time>2026-04-18T09:29:52.28Z</time></trkpt><trkpt lat="43.9019233" lon="11.18917"><ele>122.0</ele><time>2026-04-18T09:29:53.281Z</time></trkpt><trkpt lat="43.902125" lon="11.1891717"><ele>122.33333333333333</ele><time>2026-04-18T09:29:54.281Z</time></trkpt><trkpt lat="43.9023283" lon="11.18918"><ele>122.66666666666666</ele><time>2026-04-18T09:29:55.28Z</time></trkpt><trkpt lat="43.9025333" lon="11.1891917"><ele>123.0</ele><time>2026-04-18T09:29:56.282Z</time></trkpt><trkpt lat="43.902735" lon="11.1892033"><ele>123.66666666666666</ele><time>2026-04-18T09:29:57.28Z</time></trkpt><trkpt lat="43.90294" lon="11.189215"><ele>124.33333333333333</ele><time>2026-04-18T09:29:58.279Z</time></trkpt><trkpt lat="43.9031433" lon="11.1892183"><ele>125.0</ele><time>2026-04-18T09:29:59.281Z</time></trkpt><trkpt lat="43.903345" lon="11.189225"><ele>126.0</ele><time>2026-04-18T09:30:00.281Z</time></trkpt><trkpt lat="43.9035483" lon="11.1892367"><ele>127.0</ele><time>2026-04-18T09:30:01.28Z</time></trkpt><trkpt lat="43.9037433" lon="11.1892367"><ele>128.0</ele><time>2026-04-18T09:30:02.281Z</time></trkpt><trkpt lat="43.9039467" lon="11.1892567"><ele>128.0</ele><time>2026-04-18T09:30:03.28Z</time></trkpt><trkpt lat="43.9041383" lon="11.1892583"><ele>128.0</ele><time>2026-04-18T09:30:04.281Z</time></trkpt><trkpt lat="43.90433" lon="11.1892767"><ele>128.0</ele><time>2026-04-18T09:30:05.28Z</time></trkpt><trkpt lat="43.904505" lon="11.189325"><ele>128.0</ele><time>2026-04-18T09:30:06.28Z</time></trkpt><trkpt lat="43.904675" lon="11.189415"><ele>128.0</ele><time>2026-04-18T09:30:07.279Z</time></trkpt><trkpt lat="43.90484" lon="11.1895333"><ele>128.0</ele><time>2026-04-18T09:30:08.281Z</time></trkpt><trkpt lat="43.905005" lon="11.1896717"><ele>128.66666666666666</ele><time>2026-04-18T09:30:09.279Z</time></trkpt><trkpt lat="43.905175" lon="11.1898117"><ele>129.33333333333334</ele><time>2026-04-18T09:30:10.281Z</time></trkpt><trkpt lat="43.9053467" lon="11.18996"><ele>130.0</ele><time>2026-04-18T09:30:11.281Z</time></trkpt><trkpt lat="43.9055167" lon="11.1901067"><ele>130.33333333333334</ele><time>2026-04-18T09:30:12.281Z</time></trkpt><trkpt lat="43.90569" lon="11.190255"><ele>130.66666666666666</ele><time>2026-04-18T09:30:13.28Z</time></trkpt><trkpt lat="43.9058633" lon="11.1904"><ele>131.0</ele><time>2026-04-18T09:30:14.281Z</time></trkpt><trkpt lat="43.9060383" lon="11.1905467"><ele>132.33333333333331</ele><time>2026-04-18T09:30:15.28Z</time></trkpt><trkpt lat="43.906215" lon="11.1906817"><ele>133.66666666666666</ele><time>2026-04-18T09:30:16.279Z</time></trkpt><trkpt lat="43.9063933" lon="11.1908033"><ele>135.0</ele><time>2026-04-18T09:30:17.279Z</time></trkpt><trkpt lat="43.9065717" lon="11.1908917"><ele>135.66666666666666</ele><time>2026-04-18T09:30:18.281Z</time></trkpt><trkpt lat="43.9067467" lon="11.1909767"><ele>136.33333333333331</ele><time>2026-04-18T09:30:19.28Z</time></trkpt><trkpt lat="43.9069167" lon="11.1910867"><ele>137.0</ele><time>2026-04-18T09:30:20.28Z</time></trkpt><trkpt lat="43.9070867" lon="11.191225"><ele>137.0</ele><time>2026-04-18T09:30:21.28Z</time></trkpt><trkpt lat="43.9072633" lon="11.1913733"><ele>137.0</ele><time>2026-04-18T09:30:22.279Z</time></trkpt><trkpt lat="43.9074483" lon="11.1915267"><ele>137.0</ele><time>2026-04-18T09:30:23.28Z</time></trkpt><trkpt lat="43.9076367" lon="11.191685"><ele>138.33333333333331</ele><time>2026-04-18T09:30:24.28Z</time></trkpt><trkpt lat="43.9078283" lon="11.1918383"><ele>139.66666666666666</ele><time>2026-04-18T09:30:25.281Z</time></trkpt><trkpt lat="43.9080217" lon="11.191975"><ele>141.0</ele><time>2026-04-18T09:30:26.28Z</time></trkpt><trkpt lat="43.90822" lon="11.1920733"><ele>141.33333333333334</ele><time>2026-04-18T09:30:27.281Z</time></trkpt><trkpt lat="43.9084267" lon="11.1921483"><ele>141.66666666666669</ele><time>2026-04-18T09:30:28.281Z</time></trkpt><trkpt lat="43.908635" lon="11.1922033"><ele>142.0</ele><time>2026-04-18T09:30:29.28Z</time></trkpt><trkpt lat="43.9088433" lon="11.1922467"><ele>142.0</ele><time>2026-04-18T09:30:30.281Z</time></trkpt><trkpt lat="43.9090467" lon="11.1923017"><ele>142.0</ele><time>2026-04-18T09:30:31.28Z</time></trkpt><trkpt lat="43.909245" lon="11.1923867"><ele>142.0</ele><time>2026-04-18T09:30:32.281Z</time></trkpt><trkpt lat="43.90944" lon="11.1924967"><ele>142.66666666666669</ele><time>2026-04-18T09:30:33.281Z</time></trkpt><trkpt lat="43.90963" lon="11.192615"><ele>143.33333333333334</ele><time>2026-04-18T09:30:34.278Z</time></trkpt><trkpt lat="43.9098233" lon="11.19275"><ele>144.0</ele><time>2026-04-18T09:30:35.281Z</time></trkpt><trkpt lat="43.9100167" lon="11.19288"><ele>145.0</ele><time>2026-04-18T09:30:36.281Z</time></trkpt><trkpt lat="43.9102117" lon="11.1930033"><ele>146.0</ele><time>2026-04-18T09:30:37.281Z</time></trkpt><trkpt lat="43.91041" lon="11.193145"><ele>147.0</ele><time>2026-04-18T09:30:38.28Z</time></trkpt><trkpt lat="43.9106117" lon="11.193285"><ele>148.5</ele><time>2026-04-18T09:30:39.281Z</time></trkpt><trkpt lat="43.910815" lon="11.19342"><ele>150.0</ele><time>2026-04-18T09:30:40.28Z</time></trkpt><trkpt lat="43.91102" lon="11.1935517"><ele>150.0</ele><time>2026-04-18T09:30:41.279Z</time></trkpt><trkpt lat="43.9112283" lon="11.1936883"><ele>150.0</ele><time>2026-04-18T09:30:42.28Z</time></trkpt><trkpt lat="43.911435" lon="11.1938283"><ele>150.0</ele><time>2026-04-18T09:30:43.28Z</time></trkpt><trkpt lat="43.91164" lon="11.19397"><ele>150.0</ele><time>2026-04-18T09:30:44.282Z</time></trkpt><trkpt lat="43.911845" lon="11.1941217"><ele>151.0</ele><time>2026-04-18T09:30:45.281Z</time></trkpt><trkpt lat="43.91205" lon="11.1942633"><ele>152.0</ele><time>2026-04-18T09:30:46.279Z</time></trkpt><trkpt lat="43.912255" lon="11.1944067"><ele>152.0</ele><time>2026-04-18T09:30:47.282Z</time></trkpt><trkpt lat="43.9124567" lon="11.1945583"><ele>152.0</ele><time>2026-04-18T09:30:48.28Z</time></trkpt><trkpt lat="43.9126567" lon="11.19471"><ele>155.0</ele><time>2026-04-18T09:30:49.281Z</time></trkpt><trkpt lat="43.9128583" lon="11.19486"><ele>158.0</ele><time>2026-04-18T09:30:50.28Z</time></trkpt><trkpt lat="43.9130617" lon="11.1950083"><ele>158.0</ele><time>2026-04-18T09:30:51.279Z</time></trkpt><trkpt lat="43.91326" lon="11.195155"><ele>158.0</ele><time>2026-04-18T09:30:52.281Z</time></trkpt><trkpt lat="43.9134433" lon="11.1953033"><ele>158.0</ele><time>2026-04-18T09:30:53.281Z</time></trkpt><trkpt lat="43.913615" lon="11.1954883"><ele>158.33333333333331</ele><time>2026-04-18T09:30:54.279Z</time></trkpt><trkpt lat="43.91377" lon="11.195695"><ele>158.66666666666666</ele><time>2026-04-18T09:30:55.28Z</time></trkpt><trkpt lat="43.91392" lon="11.1959017"><ele>159.0</ele><time>2026-04-18T09:30:56.281Z</time></trkpt><trkpt lat="43.91407" lon="11.1961"><ele>159.0</ele><time>2026-04-18T09:30:57.281Z</time></trkpt><trkpt lat="43.9142283" lon="11.1962783"><ele>159.0</ele><time>2026-04-18T09:30:58.28Z</time></trkpt><trkpt lat="43.914395" lon="11.1964433"><ele>159.0</ele><time>2026-04-18T09:30:59.28Z</time></trkpt><trkpt lat="43.9145833" lon="11.1965783"><ele>159.66666666666666</ele><time>2026-04-18T09:31:00.28Z</time></trkpt><trkpt lat="43.91477" lon="11.196725"><ele>160.33333333333331</ele><time>2026-04-18T09:31:01.282Z</time></trkpt><trkpt lat="43.9149583" lon="11.19685"><ele>161.0</ele><time>2026-04-18T09:31:02.281Z</time></trkpt><trkpt lat="43.9151517" lon="11.1969833"><ele>161.0</ele><time>2026-04-18T09:31:03.281Z</time></trkpt><trkpt lat="43.9153417" lon="11.1971117"><ele>161.0</ele><time>2026-04-18T09:31:04.28Z</time></trkpt><trkpt lat="43.9155333" lon="11.1972433"><ele>161.0</ele><time>2026-04-18T09:31:05.279Z</time></trkpt><trkpt lat="43.9157317" lon="11.1973667"><ele>163.0</ele><time>2026-04-18T09:31:06.281Z</time></trkpt><trkpt lat="43.9159333" lon="11.1974833"><ele>165.0</ele><time>2026-04-18T09:31:07.279Z</time></trkpt><trkpt lat="43.9161383" lon="11.1976033"><ele>167.0</ele><time>2026-04-18T09:31:08.279Z</time></trkpt><trkpt lat="43.9163433" lon="11.19772"><ele>167.0</ele><time>2026-04-18T09:31:09.28Z</time></trkpt><trkpt lat="43.9165433" lon="11.1978367"><ele>167.0</ele><time>2026-04-18T09:31:10.281Z</time></trkpt><trkpt lat="43.9167433" lon="11.1979617"><ele>167.0</ele><time>2026-04-18T09:31:11.28Z</time></trkpt><trkpt lat="43.9169383" lon="11.1980967"><ele>169.33333333333331</ele><time>2026-04-18T09:31:12.279Z</time></trkpt><trkpt lat="43.9171317" lon="11.1982267"><ele>171.66666666666666</ele><time>2026-04-18T09:31:13.28Z</time></trkpt><trkpt lat="43.9173267" lon="11.198365"><ele>174.0</ele><time>2026-04-18T09:31:14.281Z</time></trkpt><trkpt lat="43.9175167" lon="11.198495"><ele>173.0</ele><time>2026-04-18T09:31:15.282Z</time></trkpt><trkpt lat="43.9177067" lon="11.1986133"><ele>172.0</ele><time>2026-04-18T09:31:16.282Z</time></trkpt><trkpt lat="43.917895" lon="11.1987467"><ele>171.0</ele><time>2026-04-18T09:31:17.282Z</time></trkpt><trkpt lat="43.9180767" lon="11.1988867"><ele>171.66666666666666</ele><time>2026-04-18T09:31:18.281Z</time></trkpt><trkpt lat="43.91824" lon="11.1990283"><ele>172.33333333333331</ele><time>2026-04-18T09:31:19.28Z</time></trkpt><trkpt lat="43.918385" lon="11.1991967"><ele>173.0</ele><time>2026-04-18T09:31:20.281Z</time></trkpt><trkpt lat="43.9184983" lon="11.199385"><ele>173.0</ele><time>2026-04-18T09:31:21.28Z</time></trkpt><trkpt lat="43.91861" lon="11.199575"><ele>173.0</ele><time>2026-04-18T09:31:22.281Z</time></trkpt><trkpt lat="43.918725" lon="11.1997833"><ele>173.0</ele><time>2026-04-18T09:31:23.281Z</time></trkpt><trkpt lat="43.9188433" lon="11.1999883"><ele>176.33333333333331</ele><time>2026-04-18T09:31:24.281Z</time></trkpt><trkpt lat="43.9189633" lon="11.2001983"><ele>179.66666666666666</ele><time>2026-04-18T09:31:25.28Z</time></trkpt><trkpt lat="43.9190917" lon="11.2003833"><ele>183.0</ele><time>2026-04-18T09:31:26.28Z</time></trkpt><trkpt lat="43.9192217" lon="11.2005533"><ele>183.66666666666666</ele><time>2026-04-18T09:31:27.281Z</time></trkpt><trkpt lat="43.91935" lon="11.20073"><ele>184.33333333333331</ele><time>2026-04-18T09:31:28.279Z</time></trkpt><trkpt lat="43.9194717" lon="11.2009133"><ele>185.0</ele><time>2026-04-18T09:31:29.28Z</time></trkpt><trkpt lat="43.9195883" lon="11.2011033"><ele>185.0</ele><time>2026-04-18T09:31:30.281Z</time></trkpt><trkpt lat="43.919705" lon="11.20127"><ele>185.0</ele><time>2026-04-18T09:31:31.281Z</time></trkpt><trkpt lat="43.91981" lon="11.201435"><ele>185.0</ele><time>2026-04-18T09:31:32.278Z</time></trkpt><trkpt lat="43.919915" lon="11.2015833"><ele>185.5</ele><time>2026-04-18T09:31:33.281Z</time></trkpt><trkpt lat="43.92001" lon="11.201735"><ele>186.0</ele><time>2026-04-18T09:31:34.28Z</time></trkpt><trkpt lat="43.9200933" lon="11.2018817"><ele>186.5</ele><time>2026-04-18T09:31:35.282Z</time></trkpt><trkpt lat="43.920165" lon="11.2020267"><ele>187.0</ele><time>2026-04-18T09:31:36.28Z</time></trkpt><trkpt lat="43.92023" lon="11.2021817"><ele>189.39999999999998</ele><time>2026-04-18T09:31:37.28Z</time></trkpt><trkpt lat="43.920285" lon="11.202335"><ele>191.79999999999998</ele><time>2026-04-18T09:31:38.281Z</time></trkpt><trkpt lat="43.92034" lon="11.20248"><ele>194.2</ele><time>2026-04-18T09:31:39.28Z</time></trkpt><trkpt lat="43.92039" lon="11.20261"><ele>196.6</ele><time>2026-04-18T09:31:40.282Z</time></trkpt><trkpt lat="43.9204367" lon="11.2027283"><ele>199.0</ele><time>2026-04-18T09:31:41.282Z</time></trkpt><trkpt lat="43.92049" lon="11.2028533"><ele>199.0</ele><time>2026-04-18T09:31:42.281Z</time></trkpt><trkpt lat="43.9205567" lon="11.2029983"><ele>199.0</ele><time>2026-04-18T09:31:43.281Z</time></trkpt><trkpt lat="43.92065" lon="11.2031467"><ele>199.0</ele><time>2026-04-18T09:31:44.281Z</time></trkpt><trkpt lat="43.92077" lon="11.2032967"><ele>199.0</ele><time>2026-04-18T09:31:45.279Z</time></trkpt><trkpt lat="43.9209" lon="11.20344"><ele>198.0</ele><time>2026-04-18T09:31:46.28Z</time></trkpt><trkpt lat="43.921045" lon="11.203565"><ele>197.0</ele><time>2026-04-18T09:31:47.281Z</time></trkpt><trkpt lat="43.9212017" lon="11.203685"><ele>196.0</ele><time>2026-04-18T09:31:48.28Z</time></trkpt><trkpt lat="43.9213633" lon="11.2037933"><ele>196.0</ele><time>2026-04-18T09:31:49.28Z</time></trkpt><trkpt lat="43.9215167" lon="11.2039167"><ele>196.0</ele><time>2026-04-18T09:31:50.279Z</time></trkpt><trkpt lat="43.9216583" lon="11.2040733"><ele>196.0</ele><time>2026-04-18T09:31:51.28Z</time></trkpt><trkpt lat="43.9217733" lon="11.2042467"><ele>194.66666666666666</ele><time>2026-04-18T09:31:52.28Z</time></trkpt><trkpt lat="43.9218733" lon="11.2044217"><ele>193.33333333333331</ele><time>2026-04-18T09:31:53.278Z</time></trkpt><trkpt lat="43.9219617" lon="11.204615"><ele>192.0</ele><time>2026-04-18T09:31:54.281Z</time></trkpt><trkpt lat="43.92204" lon="11.2048117"><ele>194.0</ele><time>2026-04-18T09:31:55.28Z</time></trkpt><trkpt lat="43.9221117" lon="11.2050083"><ele>196.0</ele><time>2026-04-18T09:31:56.281Z</time></trkpt><trkpt lat="43.9221783" lon="11.2052017"><ele>198.0</ele><time>2026-04-18T09:31:57.281Z</time></trkpt><trkpt lat="43.9222417" lon="11.2053917"><ele>198.0</ele><time>2026-04-18T09:31:58.281Z</time></trkpt><trkpt lat="43.9223117" lon="11.20558"><ele>198.0</ele><time>2026-04-18T09:31:59.281Z</time></trkpt><trkpt lat="43.9223817" lon="11.2057733"><ele>198.0</ele><time>2026-04-18T09:32:00.282Z</time></trkpt><trkpt lat="43.9224483" lon="11.20597"><ele>200.0</ele><time>2026-04-18T09:32:01.28Z</time></trkpt><trkpt lat="43.922515" lon="11.2061633"><ele>202.0</ele><time>2026-04-18T09:32:02.28Z</time></trkpt><trkpt lat="43.92259" lon="11.20636"><ele>204.0</ele><time>2026-04-18T09:32:03.281Z</time></trkpt><trkpt lat="43.9226633" lon="11.2065533"><ele>200.0</ele><time>2026-04-18T09:32:04.28Z</time></trkpt><trkpt lat="43.92274" lon="11.2067333"><ele>196.0</ele><time>2026-04-18T09:32:05.279Z</time></trkpt><trkpt lat="43.922835" lon="11.20692"><ele>192.0</ele><time>2026-04-18T09:32:06.282Z</time></trkpt><trkpt lat="43.9229433" lon="11.20711"><ele>192.0</ele><time>2026-04-18T09:32:07.281Z</time></trkpt><trkpt lat="43.92306" lon="11.2072983"><ele>192.0</ele><time>2026-04-18T09:32:08.28Z</time></trkpt><trkpt lat="43.92318" lon="11.2074817"><ele>192.0</ele><time>2026-04-18T09:32:09.28Z</time></trkpt><trkpt lat="43.9233017" lon="11.20768"><ele>193.0</ele><time>2026-04-18T09:32:10.281Z</time></trkpt><trkpt lat="43.9234283" lon="11.2078767"><ele>194.0</ele><time>2026-04-18T09:32:11.279Z</time></trkpt><trkpt lat="43.9235517" lon="11.2080533"><ele>195.0</ele><time>2026-04-18T09:32:12.28Z</time></trkpt><trkpt lat="43.9236783" lon="11.2082167"><ele>197.33333333333331</ele><time>2026-04-18T09:32:13.28Z</time></trkpt><trkpt lat="43.9238117" lon="11.2083533"><ele>199.66666666666666</ele><time>2026-04-18T09:32:14.281Z</time></trkpt><trkpt lat="43.9239633" lon="11.20845"><ele>202.0</ele><time>2026-04-18T09:32:15.281Z</time></trkpt><trkpt lat="43.9241283" lon="11.2084983"><ele>209.33333333333331</ele><time>2026-04-18T09:32:16.282Z</time></trkpt><trkpt lat="43.9243067" lon="11.2084983"><ele>216.66666666666669</ele><time>2026-04-18T09:32:17.281Z</time></trkpt><trkpt lat="43.9244917" lon="11.2084217"><ele>224.0</ele><time>2026-04-18T09:32:18.281Z</time></trkpt><trkpt lat="43.92467" lon="11.208305"><ele>224.0</ele><time>2026-04-18T09:32:19.282Z</time></trkpt><trkpt lat="43.92483" lon="11.2081633"><ele>224.0</ele><time>2026-04-18T09:32:20.282Z</time></trkpt><trkpt lat="43.92498" lon="11.20802"><ele>224.0</ele><time>2026-04-18T09:32:21.282Z</time></trkpt><trkpt lat="43.9251317" lon="11.20791"><ele>221.0</ele><time>2026-04-18T09:32:22.281Z</time></trkpt><trkpt lat="43.9252917" lon="11.207815"><ele>218.0</ele><time>2026-04-18T09:32:23.28Z</time></trkpt><trkpt lat="43.9254583" lon="11.2077317"><ele>215.0</ele><time>2026-04-18T09:32:24.283Z</time></trkpt><trkpt lat="43.9256483" lon="11.2077217"><ele>215.0</ele><time>2026-04-18T09:32:25.281Z</time></trkpt><trkpt lat="43.9258467" lon="11.20775"><ele>215.0</ele><time>2026-04-18T09:32:26.281Z</time></trkpt><trkpt lat="43.9260483" lon="11.2077783"><ele>215.0</ele><time>2026-04-18T09:32:27.282Z</time></trkpt><trkpt lat="43.9262533" lon="11.2078367"><ele>216.0</ele><time>2026-04-18T09:32:28.28Z</time></trkpt><trkpt lat="43.9264767" lon="11.2079533"><ele>217.0</ele><time>2026-04-18T09:32:29.282Z</time></trkpt><trkpt lat="43.9267" lon="11.20804"><ele>218.0</ele><time>2026-04-18T09:32:30.279Z</time></trkpt><trkpt lat="43.92692" lon="11.2080617"><ele>219.0</ele><time>2026-04-18T09:32:31.279Z</time></trkpt><trkpt lat="43.92713" lon="11.2080933"><ele>220.0</ele><time>2026-04-18T09:32:32.279Z</time></trkpt><trkpt lat="43.927315" lon="11.2081033"><ele>220.0</ele><time>2026-04-18T09:32:33.28Z</time></trkpt><trkpt lat="43.9274833" lon="11.2081133"><ele>220.0</ele><time>2026-04-18T09:32:34.28Z</time></trkpt><trkpt lat="43.927635" lon="11.2081333"><ele>220.0</ele><time>2026-04-18T09:32:35.281Z</time></trkpt><trkpt lat="43.9277817" lon="11.2081533"><ele>224.75</ele><time>2026-04-18T09:32:36.28Z</time></trkpt><trkpt lat="43.9279117" lon="11.2081883"><ele>229.5</ele><time>2026-04-18T09:32:37.28Z</time></trkpt><trkpt lat="43.9280467" lon="11.20826"><ele>234.25</ele><time>2026-04-18T09:32:38.28Z</time></trkpt><trkpt lat="43.9282017" lon="11.2083617"><ele>239.0</ele><time>2026-04-18T09:32:39.28Z</time></trkpt><trkpt lat="43.9283633" lon="11.2084633"><ele>235.66666666666669</ele><time>2026-04-18T09:32:40.279Z</time></trkpt><trkpt lat="43.9285133" lon="11.2085767"><ele>232.33333333333331</ele><time>2026-04-18T09:32:41.279Z</time></trkpt><trkpt lat="43.9286633" lon="11.208695"><ele>229.0</ele><time>2026-04-18T09:32:42.28Z</time></trkpt><trkpt lat="43.9288083" lon="11.2088367"><ele>229.0</ele><time>2026-04-18T09:32:43.281Z</time></trkpt><trkpt lat="43.9289533" lon="11.20897"><ele>229.0</ele><time>2026-04-18T09:32:44.281Z</time></trkpt><trkpt lat="43.9291083" lon="11.2091267"><ele>229.0</ele><time>2026-04-18T09:32:45.281Z</time></trkpt><trkpt lat="43.9292733" lon="11.2093033"><ele>232.0</ele><time>2026-04-18T09:32:46.28Z</time></trkpt><trkpt lat="43.92943" lon="11.2094867"><ele>235.0</ele><time>2026-04-18T09:32:47.28Z</time></trkpt><trkpt lat="43.9295633" lon="11.2096283"><ele>238.0</ele><time>2026-04-18T09:32:48.28Z</time></trkpt><trkpt lat="43.9296783" lon="11.2098167"><ele>241.0</ele><time>2026-04-18T09:32:49.281Z</time></trkpt><trkpt lat="43.9297733" lon="11.2099583"><ele>244.0</ele><time>2026-04-18T09:32:50.281Z</time></trkpt><trkpt lat="43.9298583" lon="11.2100833"><ele>247.0</ele><time>2026-04-18T09:32:51.282Z</time></trkpt><trkpt lat="43.9299483" lon="11.210195"><ele>250.0</ele><time>2026-04-18T09:32:52.28Z</time></trkpt><trkpt lat="43.9300617" lon="11.210305"><ele>250.0</ele><time>2026-04-18T09:32:53.281Z</time></trkpt><trkpt lat="43.9302" lon="11.2104183"><ele>250.0</ele><time>2026-04-18T09:32:54.28Z</time></trkpt><trkpt lat="43.9303617" lon="11.21054"><ele>250.0</ele><time>2026-04-18T09:32:55.282Z</time></trkpt><trkpt lat="43.93054" lon="11.210665"><ele>254.66666666666666</ele><time>2026-04-18T09:32:56.28Z</time></trkpt><trkpt lat="43.93072" lon="11.210785"><ele>259.3333333333333</ele><time>2026-04-18T09:32:57.28Z</time></trkpt><trkpt lat="43.9308983" lon="11.2109117"><ele>264.0</ele><time>2026-04-18T09:32:58.281Z</time></trkpt><trkpt lat="43.9310733" lon="11.2110567"><ele>264.0</ele><time>2026-04-18T09:32:59.281Z</time></trkpt><trkpt lat="43.9312417" lon="11.2112083"><ele>264.0</ele><time>2026-04-18T09:33:00.28Z</time></trkpt><trkpt lat="43.9314" lon="11.2113333"><ele>264.0</ele><time>2026-04-18T09:33:01.28Z</time></trkpt><trkpt lat="43.93155" lon="11.211455"><ele>268.6666666666667</ele><time>2026-04-18T09:33:02.282Z</time></trkpt><trkpt lat="43.9316867" lon="11.2115767"><ele>273.33333333333337</ele><time>2026-04-18T09:33:03.281Z</time></trkpt><trkpt lat="43.931815" lon="11.211685"><ele>278.0</ele><time>2026-04-18T09:33:04.281Z</time></trkpt><trkpt lat="43.931935" lon="11.211785"><ele>278.0</ele><time>2026-04-18T09:33:05.281Z</time></trkpt><trkpt lat="43.93205" lon="11.2118967"><ele>278.0</ele><time>2026-04-18T09:33:06.28Z</time></trkpt><trkpt lat="43.9321617" lon="11.212025"><ele>278.0</ele><time>2026-04-18T09:33:07.281Z</time></trkpt><trkpt lat="43.9322567" lon="11.2121633"><ele>278.0</ele><time>2026-04-18T09:33:08.28Z</time></trkpt><trkpt lat="43.9323367" lon="11.2123017"><ele>282.6</ele><time>2026-04-18T09:33:09.279Z</time></trkpt><trkpt lat="43.9324167" lon="11.2124167"><ele>287.20000000000005</ele><time>2026-04-18T09:33:10.28Z</time></trkpt><trkpt lat="43.9325117" lon="11.212505"><ele>291.8</ele><time>2026-04-18T09:33:11.279Z</time></trkpt><trkpt lat="43.9326133" lon="11.21255"><ele>296.40000000000003</ele><time>2026-04-18T09:33:12.279Z</time></trkpt><trkpt lat="43.9327017" lon="11.2125617"><ele>301.0</ele><time>2026-04-18T09:33:13.28Z</time></trkpt><trkpt lat="43.9328033" lon="11.2125617"><ele>301.0</ele><time>2026-04-18T09:33:14.279Z</time></trkpt><trkpt lat="43.9329117" lon="11.2125483"><ele>301.0</ele><time>2026-04-18T09:33:15.28Z</time></trkpt><trkpt lat="43.933025" lon="11.2125617"><ele>301.0</ele><time>2026-04-18T09:33:16.28Z</time></trkpt><trkpt lat="43.9331317" lon="11.2126217"><ele>301.0</ele><time>2026-04-18T09:33:17.279Z</time></trkpt><trkpt lat="43.9332333" lon="11.2127133"><ele>301.0</ele><time>2026-04-18T09:33:18.28Z</time></trkpt><trkpt lat="43.9333383" lon="11.2128183"><ele>301.0</ele><time>2026-04-18T09:33:19.277Z</time></trkpt><trkpt lat="43.9334433" lon="11.2129383"><ele>301.0</ele><time>2026-04-18T09:33:20.279Z</time></trkpt><trkpt lat="43.9335467" lon="11.2130483"><ele>301.0</ele><time>2026-04-18T09:33:21.279Z</time></trkpt><trkpt lat="43.9336667" lon="11.213155"><ele>305.25</ele><time>2026-04-18T09:33:22.28Z</time></trkpt><trkpt lat="43.9337833" lon="11.213255"><ele>309.5</ele><time>2026-04-18T09:33:23.278Z</time></trkpt><trkpt lat="43.93391" lon="11.21334"><ele>313.75</ele><time>2026-04-18T09:33:24.28Z</time></trkpt><trkpt lat="43.9340483" lon="11.21342"><ele>318.0</ele><time>2026-04-18T09:33:25.279Z</time></trkpt><trkpt lat="43.9342067" lon="11.2134733"><ele>316.6666666666667</ele><time>2026-04-18T09:33:26.279Z</time></trkpt><trkpt lat="43.9343817" lon="11.2135267"><ele>315.33333333333337</ele><time>2026-04-18T09:33:27.28Z</time></trkpt><trkpt lat="43.9345867" lon="11.2135967"><ele>314.0</ele><time>2026-04-18T09:33:28.28Z</time></trkpt><trkpt lat="43.9348" lon="11.21367"><ele>314.0</ele><time>2026-04-18T09:33:29.278Z</time></trkpt><trkpt lat="43.935" lon="11.21375"><ele>314.0</ele><time>2026-04-18T09:33:30.279Z</time></trkpt><trkpt lat="43.9351783" lon="11.2138483"><ele>314.0</ele><time>2026-04-18T09:33:31.28Z</time></trkpt><trkpt lat="43.9353383" lon="11.213955"><ele>321.0</ele><time>2026-04-18T09:33:32.281Z</time></trkpt><trkpt lat="43.9354883" lon="11.21407"><ele>328.0</ele><time>2026-04-18T09:33:33.28Z</time></trkpt><trkpt lat="43.9356283" lon="11.2141983"><ele>335.0</ele><time>2026-04-18T09:33:34.279Z</time></trkpt><trkpt lat="43.9357583" lon="11.2143133"><ele>335.0</ele><time>2026-04-18T09:33:35.278Z</time></trkpt><trkpt lat="43.9358767" lon="11.2143783"><ele>335.0</ele><time>2026-04-18T09:33:36.279Z</time></trkpt><trkpt lat="43.9360217" lon="11.214435"><ele>335.0</ele><time>2026-04-18T09:33:37.278Z</time></trkpt><trkpt lat="43.9361967" lon="11.21446"><ele>335.33333333333337</ele><time>2026-04-18T09:33:38.279Z</time></trkpt><trkpt lat="43.93639" lon="11.21447"><ele>335.6666666666667</ele><time>2026-04-18T09:33:39.279Z</time></trkpt><trkpt lat="43.9365633" lon="11.21447"><ele>336.0</ele><time>2026-04-18T09:33:40.281Z</time></trkpt><trkpt lat="43.9367183" lon="11.2144783"><ele>334.3333333333333</ele><time>2026-04-18T09:33:41.279Z</time></trkpt><trkpt lat="43.936855" lon="11.2145367"><ele>332.66666666666663</ele><time>2026-04-18T09:33:42.28Z</time></trkpt><trkpt lat="43.9369717" lon="11.214665"><ele>331.0</ele><time>2026-04-18T09:33:43.279Z</time></trkpt><trkpt lat="43.9370883" lon="11.2148183"><ele>338.0</ele><time>2026-04-18T09:33:44.279Z</time></trkpt><trkpt lat="43.93722" lon="11.21495"><ele>345.0</ele><time>2026-04-18T09:33:45.279Z</time></trkpt><trkpt lat="43.9373617" lon="11.2150533"><ele>352.0</ele><time>2026-04-18T09:33:46.28Z</time></trkpt><trkpt lat="43.9375217" lon="11.2151083"><ele>351.3333333333333</ele><time>2026-04-18T09:33:47.279Z</time></trkpt><trkpt lat="43.9376983" lon="11.21515"><ele>350.6666666666667</ele><time>2026-04-18T09:33:48.281Z</time></trkpt><trkpt lat="43.9378933" lon="11.2152067"><ele>350.0</ele><time>2026-04-18T09:33:49.279Z</time></trkpt><trkpt lat="43.9380917" lon="11.2152733"><ele>350.0</ele><time>2026-04-18T09:33:50.28Z</time></trkpt><trkpt lat="43.93829" lon="11.215355"><ele>350.0</ele><time>2026-04-18T09:33:51.279Z</time></trkpt><trkpt lat="43.93849" lon="11.2154433"><ele>350.0</ele><time>2026-04-18T09:33:52.279Z</time></trkpt><trkpt lat="43.9386883" lon="11.21554"><ele>351.33333333333337</ele><time>2026-04-18T09:33:53.278Z</time></trkpt><trkpt lat="43.9388683" lon="11.215635"><ele>352.6666666666667</ele><time>2026-04-18T09:33:54.28Z</time></trkpt><trkpt lat="43.9390417" lon="11.2157317"><ele>354.0</ele><time>2026-04-18T09:33:55.281Z</time></trkpt><trkpt lat="43.9392033" lon="11.2158433"><ele>360.0</ele><time>2026-04-18T09:33:56.278Z</time></trkpt><trkpt lat="43.93935" lon="11.215945"><ele>366.0</ele><time>2026-04-18T09:33:57.278Z</time></trkpt><trkpt lat="43.93949" lon="11.2159833"><ele>372.0</ele><time>2026-04-18T09:33:58.278Z</time></trkpt><trkpt lat="43.9396383" lon="11.2159783"><ele>372.0</ele><time>2026-04-18T09:33:59.279Z</time></trkpt><trkpt lat="43.939775" lon="11.215955"><ele>372.0</ele><time>2026-04-18T09:34:00.28Z</time></trkpt><trkpt lat="43.9399033" lon="11.2159267"><ele>372.0</ele><time>2026-04-18T09:34:01.28Z</time></trkpt><trkpt lat="43.9400317" lon="11.2158833"><ele>372.0</ele><time>2026-04-18T09:34:02.28Z</time></trkpt><trkpt lat="43.9401667" lon="11.2158383"><ele>374.6666666666667</ele><time>2026-04-18T09:34:03.28Z</time></trkpt><trkpt lat="43.9403117" lon="11.2157883"><ele>377.33333333333337</ele><time>2026-04-18T09:34:04.279Z</time></trkpt><trkpt lat="43.9404717" lon="11.2157367"><ele>380.0</ele><time>2026-04-18T09:34:05.279Z</time></trkpt><trkpt lat="43.9406367" lon="11.2156633"><ele>381.0</ele><time>2026-04-18T09:34:06.281Z</time></trkpt><trkpt lat="43.940815" lon="11.2155767"><ele>382.0</ele><time>2026-04-18T09:34:07.28Z</time></trkpt><trkpt lat="43.9410033" lon="11.2154933"><ele>383.0</ele><time>2026-04-18T09:34:08.281Z</time></trkpt><trkpt lat="43.9411917" lon="11.2154083"><ele>383.0</ele><time>2026-04-18T09:34:09.28Z</time></trkpt><trkpt lat="43.9413733" lon="11.2153283"><ele>383.0</ele><time>2026-04-18T09:34:10.28Z</time></trkpt><trkpt lat="43.94154" lon="11.21525"><ele>383.0</ele><time>2026-04-18T09:34:11.279Z</time></trkpt><trkpt lat="43.9416867" lon="11.215185"><ele>385.4</ele><time>2026-04-18T09:34:12.28Z</time></trkpt><trkpt lat="43.9418183" lon="11.2151683"><ele>387.79999999999995</ele><time>2026-04-18T09:34:13.281Z</time></trkpt><trkpt lat="43.9419267" lon="11.215205"><ele>390.2</ele><time>2026-04-18T09:34:14.28Z</time></trkpt><trkpt lat="43.9420067" lon="11.2152867"><ele>392.6</ele><time>2026-04-18T09:34:15.279Z</time></trkpt><trkpt lat="43.942065" lon="11.2153933"><ele>395.0</ele><time>2026-04-18T09:34:16.277Z</time></trkpt><trkpt lat="43.9420883" lon="11.215525"><ele>394.25</ele><time>2026-04-18T09:34:17.278Z</time></trkpt><trkpt lat="43.9420333" lon="11.215665"><ele>393.5</ele><time>2026-04-18T09:34:18.28Z</time></trkpt><trkpt lat="43.9419383" lon="11.2157617"><ele>392.75</ele><time>2026-04-18T09:34:19.279Z</time></trkpt><trkpt lat="43.9418283" lon="11.2158583"><ele>392.0</ele><time>2026-04-18T09:34:20.279Z</time></trkpt><trkpt lat="43.9416967" lon="11.2159917"><ele>392.0</ele><time>2026-04-18T09:34:21.279Z</time></trkpt><trkpt lat="43.9416" lon="11.2161517"><ele>392.0</ele><time>2026-04-18T09:34:22.279Z</time></trkpt><trkpt lat="43.9414967" lon="11.216345"><ele>392.0</ele><time>2026-04-18T09:34:23.279Z</time></trkpt><trkpt lat="43.94143" lon="11.2165367"><ele>393.5</ele><time>2026-04-18T09:34:24.28Z</time></trkpt><trkpt lat="43.941385" lon="11.21672"><ele>395.0</ele><time>2026-04-18T09:34:25.28Z</time></trkpt><trkpt lat="43.941355" lon="11.2169017"><ele>396.5</ele><time>2026-04-18T09:34:26.279Z</time></trkpt><trkpt lat="43.94138" lon="11.2170517"><ele>398.0</ele><time>2026-04-18T09:34:27.28Z</time></trkpt><trkpt lat="43.9414467" lon="11.2172"><ele>398.0</ele><time>2026-04-18T09:34:28.28Z</time></trkpt><trkpt lat="43.9414683" lon="11.2172967"><ele>398.0</ele><time>2026-04-18T09:34:29.28Z</time></trkpt><trkpt lat="43.941785" lon="11.2169917"><ele>404.0</ele><time>2026-04-18T09:34:30.278Z</time></trkpt><trkpt lat="43.942" lon="11.21677"><ele>410.0</ele><time>2026-04-18T09:34:31.279Z</time></trkpt><trkpt lat="43.9421283" lon="11.2165683"><ele>411.3333333333333</ele><time>2026-04-18T09:34:32.281Z</time></trkpt><trkpt lat="43.9422567" lon="11.216385"><ele>412.66666666666663</ele><time>2026-04-18T09:34:33.279Z</time></trkpt><trkpt lat="43.9424133" lon="11.2162383"><ele>414.0</ele><time>2026-04-18T09:34:34.279Z</time></trkpt><trkpt lat="43.9425867" lon="11.2161233"><ele>414.0</ele><time>2026-04-18T09:34:35.28Z</time></trkpt><trkpt lat="43.942775" lon="11.216025"><ele>414.0</ele><time>2026-04-18T09:34:36.279Z</time></trkpt><trkpt lat="43.9429633" lon="11.215935"><ele>414.0</ele><time>2026-04-18T09:34:37.279Z</time></trkpt><trkpt lat="43.9431433" lon="11.2158617"><ele>414.0</ele><time>2026-04-18T09:34:38.279Z</time></trkpt><trkpt lat="43.943315" lon="11.2158017"><ele>414.0</ele><time>2026-04-18T09:34:39.279Z</time></trkpt><trkpt lat="43.9434717" lon="11.21573"><ele>414.0</ele><time>2026-04-18T09:34:40.279Z</time></trkpt><trkpt lat="43.943615" lon="11.2156267"><ele>416.33333333333337</ele><time>2026-04-18T09:34:41.279Z</time></trkpt><trkpt lat="43.9437433" lon="11.2154933"><ele>418.6666666666667</ele><time>2026-04-18T09:34:42.28Z</time></trkpt><trkpt lat="43.9438567" lon="11.2153367"><ele>421.0</ele><time>2026-04-18T09:34:43.28Z</time></trkpt><trkpt lat="43.94395" lon="11.21518"><ele>421.0</ele><time>2026-04-18T09:34:44.281Z</time></trkpt><trkpt lat="43.9440367" lon="11.2150383"><ele>421.0</ele><time>2026-04-18T09:34:45.279Z</time></trkpt><trkpt lat="43.944115" lon="11.214905"><ele>421.0</ele><time>2026-04-18T09:34:46.28Z</time></trkpt><trkpt lat="43.944185" lon="11.21476"><ele>421.0</ele><time>2026-04-18T09:34:47.28Z</time></trkpt><trkpt lat="43.9442617" lon="11.21463"><ele>422.20000000000005</ele><time>2026-04-18T09:34:48.28Z</time></trkpt><trkpt lat="43.9443417" lon="11.2145083"><ele>423.40000000000003</ele><time>2026-04-18T09:34:49.279Z</time></trkpt><trkpt lat="43.94442" lon="11.2143833"><ele>424.6</ele><time>2026-04-18T09:34:50.28Z</time></trkpt><trkpt lat="43.9444917" lon="11.2142583"><ele>425.8</ele><time>2026-04-18T09:34:51.28Z</time></trkpt><trkpt lat="43.9445567" lon="11.2141617"><ele>427.0</ele><time>2026-04-18T09:34:52.28Z</time></trkpt><trkpt lat="43.9446033" lon="11.21409"><ele>426.33333333333337</ele><time>2026-04-18T09:34:53.278Z</time></trkpt><trkpt lat="43.9446567" lon="11.2139667"><ele>425.6666666666667</ele><time>2026-04-18T09:34:55.279Z</time></trkpt><trkpt lat="43.9446983" lon="11.2138967"><ele>425.0</ele><time>2026-04-18T09:34:56.28Z</time></trkpt><trkpt lat="43.9447583" lon="11.213825"><ele>424.33333333333337</ele><time>2026-04-18T09:34:57.279Z</time></trkpt><trkpt lat="43.9448267" lon="11.21376"><ele>423.6666666666667</ele><time>2026-04-18T09:34:58.28Z</time></trkpt><trkpt lat="43.94491" lon="11.21372"><ele>423.0</ele><time>2026-04-18T09:34:59.282Z</time></trkpt><trkpt lat="43.945025" lon="11.2137017"><ele>424.5</ele><time>2026-04-18T09:35:00.28Z</time></trkpt><trkpt lat="43.9451617" lon="11.2136967"><ele>426.0</ele><time>2026-04-18T09:35:01.282Z</time></trkpt><trkpt lat="43.9452967" lon="11.2136717"><ele>427.5</ele><time>2026-04-18T09:35:02.283Z</time></trkpt><trkpt lat="43.9454267" lon="11.213625"><ele>429.0</ele><time>2026-04-18T09:35:03.278Z</time></trkpt><trkpt lat="43.9455583" lon="11.2135683"><ele>429.0</ele><time>2026-04-18T09:35:04.282Z</time></trkpt><trkpt lat="43.9456933" lon="11.2134867"><ele>429.0</ele><time>2026-04-18T09:35:05.282Z</time></trkpt><trkpt lat="43.94583" lon="11.2134017"><ele>429.0</ele><time>2026-04-18T09:35:06.28Z</time></trkpt><trkpt lat="43.94598" lon="11.2133233"><ele>429.75</ele><time>2026-04-18T09:35:07.281Z</time></trkpt><trkpt lat="43.9461267" lon="11.213255"><ele>430.5</ele><time>2026-04-18T09:35:08.282Z</time></trkpt><trkpt lat="43.9462683" lon="11.213205"><ele>431.25</ele><time>2026-04-18T09:35:09.28Z</time></trkpt><trkpt lat="43.9464033" lon="11.2131633"><ele>432.0</ele><time>2026-04-18T09:35:10.282Z</time></trkpt><trkpt lat="43.9465317" lon="11.21313"><ele>432.0</ele><time>2026-04-18T09:35:11.278Z</time></trkpt><trkpt lat="43.9466467" lon="11.2130983"><ele>432.00000000000006</ele><time>2026-04-18T09:35:12.279Z</time></trkpt><trkpt lat="43.946745" lon="11.213055"><ele>432.00000000000006</ele><time>2026-04-18T09:35:13.28Z</time></trkpt><trkpt lat="43.9468433" lon="11.2130083"><ele>432.0</ele><time>2026-04-18T09:35:14.281Z</time></trkpt><trkpt lat="43.94693" lon="11.2129267"><ele>432.0</ele><time>2026-04-18T09:35:15.281Z</time></trkpt><trkpt lat="43.9470067" lon="11.2128183"><ele>426.33333333333337</ele><time>2026-04-18T09:35:16.282Z</time></trkpt><trkpt lat="43.9470933" lon="11.212665"><ele>420.6666666666667</ele><time>2026-04-18T09:35:17.28Z</time></trkpt><trkpt lat="43.947185" lon="11.2124733"><ele>415.0</ele><time>2026-04-18T09:35:18.282Z</time></trkpt><trkpt lat="43.94729" lon="11.2122867"><ele>415.0</ele><time>2026-04-18T09:35:19.282Z</time></trkpt><trkpt lat="43.9474167" lon="11.212135"><ele>415.0</ele><time>2026-04-18T09:35:20.282Z</time></trkpt><trkpt lat="43.9475483" lon="11.212015"><ele>415.0</ele><time>2026-04-18T09:35:21.28Z</time></trkpt><trkpt lat="43.9476667" lon="11.2118783"><ele>410.33333333333337</ele><time>2026-04-18T09:35:22.281Z</time></trkpt><trkpt lat="43.9477717" lon="11.2117083"><ele>405.66666666666663</ele><time>2026-04-18T09:35:23.28Z</time></trkpt><trkpt lat="43.9478433" lon="11.211505"><ele>401.0</ele><time>2026-04-18T09:35:24.28Z</time></trkpt><trkpt lat="43.9478783" lon="11.2112683"><ele>401.0</ele><time>2026-04-18T09:35:25.28Z</time></trkpt><trkpt lat="43.94791" lon="11.2110433"><ele>401.0</ele><time>2026-04-18T09:35:26.282Z</time></trkpt><trkpt lat="43.9479567" lon="11.210835"><ele>401.0</ele><time>2026-04-18T09:35:27.279Z</time></trkpt><trkpt lat="43.9480333" lon="11.2106583"><ele>405.66666666666663</ele><time>2026-04-18T09:35:28.278Z</time></trkpt><trkpt lat="43.948145" lon="11.21053"><ele>410.33333333333337</ele><time>2026-04-18T09:35:29.28Z</time></trkpt><trkpt lat="43.9482933" lon="11.210465"><ele>415.0</ele><time>2026-04-18T09:35:30.279Z</time></trkpt><trkpt lat="43.9484483" lon="11.2104667"><ele>417.0</ele><time>2026-04-18T09:35:31.281Z</time></trkpt><trkpt lat="43.9486133" lon="11.2105467"><ele>419.0</ele><time>2026-04-18T09:35:32.282Z</time></trkpt><trkpt lat="43.948775" lon="11.2106483"><ele>421.0</ele><time>2026-04-18T09:35:33.281Z</time></trkpt><trkpt lat="43.9489433" lon="11.21074"><ele>414.6666666666667</ele><time>2026-04-18T09:35:34.279Z</time></trkpt><trkpt lat="43.94912" lon="11.2107967"><ele>408.33333333333337</ele><time>2026-04-18T09:35:35.279Z</time></trkpt><trkpt lat="43.949305" lon="11.2108017"><ele>402.0</ele><time>2026-04-18T09:35:36.279Z</time></trkpt><trkpt lat="43.9494817" lon="11.2107367"><ele>402.33333333333337</ele><time>2026-04-18T09:35:37.279Z</time></trkpt><trkpt lat="43.94964" lon="11.210605"><ele>402.6666666666667</ele><time>2026-04-18T09:35:38.28Z</time></trkpt><trkpt lat="43.9497833" lon="11.210435"><ele>403.0</ele><time>2026-04-18T09:35:39.28Z</time></trkpt><trkpt lat="43.949895" lon="11.210195"><ele>403.0</ele><time>2026-04-18T09:35:40.278Z</time></trkpt><trkpt lat="43.9499717" lon="11.2099333"><ele>403.0</ele><time>2026-04-18T09:35:41.279Z</time></trkpt><trkpt lat="43.950035" lon="11.2097"><ele>403.0</ele><time>2026-04-18T09:35:42.281Z</time></trkpt><trkpt lat="43.950105" lon="11.209505"><ele>403.25</ele><time>2026-04-18T09:35:43.28Z</time></trkpt><trkpt lat="43.950195" lon="11.209355"><ele>403.5</ele><time>2026-04-18T09:35:44.281Z</time></trkpt><trkpt lat="43.95031" lon="11.2092767"><ele>403.75</ele><time>2026-04-18T09:35:45.282Z</time></trkpt><trkpt lat="43.95043" lon="11.209275"><ele>404.0</ele><time>2026-04-18T09:35:46.279Z</time></trkpt><trkpt lat="43.95054" lon="11.2093467"><ele>404.0</ele><time>2026-04-18T09:35:47.279Z</time></trkpt><trkpt lat="43.950615" lon="11.20948"><ele>404.0</ele><time>2026-04-18T09:35:48.278Z</time></trkpt><trkpt lat="43.9506717" lon="11.2096583"><ele>404.0</ele><time>2026-04-18T09:35:49.278Z</time></trkpt><trkpt lat="43.9507133" lon="11.2098817"><ele>404.0</ele><time>2026-04-18T09:35:50.28Z</time></trkpt><trkpt lat="43.9507567" lon="11.21013"><ele>402.0</ele><time>2026-04-18T09:35:51.281Z</time></trkpt><trkpt lat="43.9508017" lon="11.2103917"><ele>400.0</ele><time>2026-04-18T09:35:52.279Z</time></trkpt><trkpt lat="43.9508467" lon="11.21064"><ele>398.0</ele><time>2026-04-18T09:35:53.282Z</time></trkpt><trkpt lat="43.9508933" lon="11.21089"><ele>398.66666666666663</ele><time>2026-04-18T09:35:54.28Z</time></trkpt><trkpt lat="43.950965" lon="11.2111283"><ele>399.33333333333337</ele><time>2026-04-18T09:35:55.281Z</time></trkpt><trkpt lat="43.951065" lon="11.211345"><ele>400.0</ele><time>2026-04-18T09:35:56.282Z</time></trkpt><trkpt lat="43.9511917" lon="11.2115483"><ele>400.0</ele><time>2026-04-18T09:35:57.28Z</time></trkpt><trkpt lat="43.9513333" lon="11.21176"><ele>400.0</ele><time>2026-04-18T09:35:58.281Z</time></trkpt><trkpt lat="43.9514817" lon="11.2119733"><ele>400.0</ele><time>2026-04-18T09:35:59.28Z</time></trkpt><trkpt lat="43.9516233" lon="11.2121817"><ele>395.6666666666667</ele><time>2026-04-18T09:36:00.281Z</time></trkpt><trkpt lat="43.9517667" lon="11.21238"><ele>391.33333333333337</ele><time>2026-04-18T09:36:01.28Z</time></trkpt><trkpt lat="43.9519183" lon="11.21256"><ele>387.0</ele><time>2026-04-18T09:36:02.282Z</time></trkpt><trkpt lat="43.9520783" lon="11.2127217"><ele>387.0</ele><time>2026-04-18T09:36:03.281Z</time></trkpt><trkpt lat="43.9522483" lon="11.21287"><ele>387.0</ele><time>2026-04-18T09:36:04.28Z</time></trkpt><trkpt lat="43.9524133" lon="11.2130117"><ele>387.0</ele><time>2026-04-18T09:36:05.282Z</time></trkpt><trkpt lat="43.9525767" lon="11.2131417"><ele>383.3333333333333</ele><time>2026-04-18T09:36:06.281Z</time></trkpt><trkpt lat="43.9527433" lon="11.21325"><ele>379.66666666666663</ele><time>2026-04-18T09:36:07.281Z</time></trkpt><trkpt lat="43.95292" lon="11.2133283"><ele>376.0</ele><time>2026-04-18T09:36:08.281Z</time></trkpt><trkpt lat="43.9531017" lon="11.2133733"><ele>376.0</ele><time>2026-04-18T09:36:09.28Z</time></trkpt><trkpt lat="43.95328" lon="11.2133867"><ele>376.0</ele><time>2026-04-18T09:36:10.283Z</time></trkpt><trkpt lat="43.953455" lon="11.2133767"><ele>376.0</ele><time>2026-04-18T09:36:11.281Z</time></trkpt><trkpt lat="43.9536183" lon="11.2133517"><ele>376.66666666666663</ele><time>2026-04-18T09:36:12.282Z</time></trkpt><trkpt lat="43.9537683" lon="11.2133417"><ele>377.3333333333333</ele><time>2026-04-18T09:36:13.281Z</time></trkpt><trkpt lat="43.953925" lon="11.21338"><ele>378.0</ele><time>2026-04-18T09:36:14.282Z</time></trkpt><trkpt lat="43.9540833" lon="11.213455"><ele>374.6666666666667</ele><time>2026-04-18T09:36:15.282Z</time></trkpt><trkpt lat="43.9542467" lon="11.213535"><ele>371.33333333333337</ele><time>2026-04-18T09:36:16.282Z</time></trkpt><trkpt lat="43.9544083" lon="11.21357"><ele>368.0</ele><time>2026-04-18T09:36:17.279Z</time></trkpt><trkpt lat="43.954575" lon="11.213565"><ele>368.0</ele><time>2026-04-18T09:36:18.281Z</time></trkpt><trkpt lat="43.9547417" lon="11.2135267"><ele>368.0</ele><time>2026-04-18T09:36:19.282Z</time></trkpt><trkpt lat="43.9549067" lon="11.213465"><ele>368.0</ele><time>2026-04-18T09:36:20.282Z</time></trkpt><trkpt lat="43.9550733" lon="11.2134083"><ele>363.6666666666667</ele><time>2026-04-18T09:36:21.282Z</time></trkpt><trkpt lat="43.955235" lon="11.2133633"><ele>359.3333333333333</ele><time>2026-04-18T09:36:22.28Z</time></trkpt><trkpt lat="43.9553967" lon="11.21332"><ele>355.0</ele><time>2026-04-18T09:36:23.281Z</time></trkpt><trkpt lat="43.9555567" lon="11.2132767"><ele>355.0</ele><time>2026-04-18T09:36:24.283Z</time></trkpt><trkpt lat="43.9557183" lon="11.2132567"><ele>355.0</ele><time>2026-04-18T09:36:25.282Z</time></trkpt><trkpt lat="43.95588" lon="11.2132567"><ele>355.0</ele><time>2026-04-18T09:36:26.281Z</time></trkpt><trkpt lat="43.95604" lon="11.21328"><ele>352.0</ele><time>2026-04-18T09:36:27.281Z</time></trkpt><trkpt lat="43.956205" lon="11.21331"><ele>349.0</ele><time>2026-04-18T09:36:28.281Z</time></trkpt><trkpt lat="43.956365" lon="11.2133233"><ele>346.0</ele><time>2026-04-18T09:36:29.281Z</time></trkpt><trkpt lat="43.9565217" lon="11.2133433"><ele>346.0</ele><time>2026-04-18T09:36:30.283Z</time></trkpt><trkpt lat="43.9566817" lon="11.21338"><ele>346.0</ele><time>2026-04-18T09:36:31.282Z</time></trkpt><trkpt lat="43.9568367" lon="11.2133983"><ele>346.0</ele><time>2026-04-18T09:36:32.279Z</time></trkpt><trkpt lat="43.9569867" lon="11.2134033"><ele>343.0</ele><time>2026-04-18T09:36:33.279Z</time></trkpt><trkpt lat="43.9571383" lon="11.21341"><ele>340.0</ele><time>2026-04-18T09:36:34.282Z</time></trkpt><trkpt lat="43.957285" lon="11.21341"><ele>337.0</ele><time>2026-04-18T09:36:35.28Z</time></trkpt><trkpt lat="43.957425" lon="11.21341"><ele>334.0</ele><time>2026-04-18T09:36:36.283Z</time></trkpt><trkpt lat="43.9575633" lon="11.2134083"><ele>330.5</ele><time>2026-04-18T09:36:37.282Z</time></trkpt><trkpt lat="43.9576983" lon="11.2134367"><ele>327.0</ele><time>2026-04-18T09:36:38.282Z</time></trkpt><trkpt lat="43.9578217" lon="11.2135"><ele>323.5</ele><time>2026-04-18T09:36:39.279Z</time></trkpt><trkpt lat="43.957935" lon="11.2135917"><ele>320.0</ele><time>2026-04-18T09:36:40.279Z</time></trkpt><trkpt lat="43.9580517" lon="11.213685"><ele>320.0</ele><time>2026-04-18T09:36:41.281Z</time></trkpt><trkpt lat="43.9581817" lon="11.2137717"><ele>320.0</ele><time>2026-04-18T09:36:42.281Z</time></trkpt><trkpt lat="43.958315" lon="11.2138733"><ele>320.0</ele><time>2026-04-18T09:36:43.281Z</time></trkpt><trkpt lat="43.95844" lon="11.21398"><ele>320.0</ele><time>2026-04-18T09:36:44.282Z</time></trkpt><trkpt lat="43.95856" lon="11.21409"><ele>318.75</ele><time>2026-04-18T09:36:45.282Z</time></trkpt><trkpt lat="43.95868" lon="11.2141967"><ele>317.5</ele><time>2026-04-18T09:36:46.28Z</time></trkpt><trkpt lat="43.9587933" lon="11.2142817"><ele>316.25</ele><time>2026-04-18T09:36:47.282Z</time></trkpt><trkpt lat="43.9588933" lon="11.21435"><ele>315.0</ele><time>2026-04-18T09:36:48.282Z</time></trkpt><trkpt lat="43.9589867" lon="11.2144067"><ele>315.0</ele><time>2026-04-18T09:36:49.283Z</time></trkpt><trkpt lat="43.959085" lon="11.2144433"><ele>315.0</ele><time>2026-04-18T09:36:50.281Z</time></trkpt><trkpt lat="43.9592" lon="11.214485"><ele>315.0</ele><time>2026-04-18T09:36:51.28Z</time></trkpt><trkpt lat="43.9593283" lon="11.214495"><ele>315.0</ele><time>2026-04-18T09:36:52.279Z</time></trkpt><trkpt lat="43.9594733" lon="11.2144933"><ele>313.6666666666667</ele><time>2026-04-18T09:36:53.282Z</time></trkpt><trkpt lat="43.9596233" lon="11.2144933"><ele>312.33333333333337</ele><time>2026-04-18T09:36:54.279Z</time></trkpt><trkpt lat="43.9597767" lon="11.2144817"><ele>311.0</ele><time>2026-04-18T09:36:55.28Z</time></trkpt><trkpt lat="43.9599267" lon="11.21447"><ele>309.6666666666667</ele><time>2026-04-18T09:36:56.281Z</time></trkpt><trkpt lat="43.960075" lon="11.2144667"><ele>308.3333333333333</ele><time>2026-04-18T09:36:57.279Z</time></trkpt><trkpt lat="43.960225" lon="11.2144867"><ele>307.0</ele><time>2026-04-18T09:36:58.28Z</time></trkpt><trkpt lat="43.960375" lon="11.21454"><ele>307.0</ele><time>2026-04-18T09:36:59.279Z</time></trkpt><trkpt lat="43.9605217" lon="11.21462"><ele>307.0</ele><time>2026-04-18T09:37:00.278Z</time></trkpt><trkpt lat="43.9606733" lon="11.214715"><ele>307.0</ele><time>2026-04-18T09:37:01.278Z</time></trkpt><trkpt lat="43.96083" lon="11.2148167"><ele>306.66666666666663</ele><time>2026-04-18T09:37:02.281Z</time></trkpt><trkpt lat="43.9609867" lon="11.21492"><ele>306.3333333333333</ele><time>2026-04-18T09:37:03.279Z</time></trkpt><trkpt lat="43.9611483" lon="11.2150333"><ele>306.0</ele><time>2026-04-18T09:37:04.28Z</time></trkpt><trkpt lat="43.9613167" lon="11.2151533"><ele>306.0</ele><time>2026-04-18T09:37:05.281Z</time></trkpt><trkpt lat="43.9614867" lon="11.2152767"><ele>306.0</ele><time>2026-04-18T09:37:06.279Z</time></trkpt><trkpt lat="43.9616583" lon="11.21541"><ele>306.0</ele><time>2026-04-18T09:37:07.28Z</time></trkpt><trkpt lat="43.9618333" lon="11.21554"><ele>306.0</ele><time>2026-04-18T09:37:08.28Z</time></trkpt><trkpt lat="43.9620083" lon="11.2156817"><ele>306.0</ele><time>2026-04-18T09:37:09.28Z</time></trkpt><trkpt lat="43.9621833" lon="11.2158267"><ele>306.0</ele><time>2026-04-18T09:37:10.281Z</time></trkpt><trkpt lat="43.9623617" lon="11.2159717"><ele>308.6666666666667</ele><time>2026-04-18T09:37:11.281Z</time></trkpt><trkpt lat="43.9625417" lon="11.21611"><ele>311.33333333333337</ele><time>2026-04-18T09:37:12.279Z</time></trkpt><trkpt lat="43.9627183" lon="11.2162517"><ele>314.0</ele><time>2026-04-18T09:37:13.281Z</time></trkpt><trkpt lat="43.96289" lon="11.2163967"><ele>310.33333333333337</ele><time>2026-04-18T09:37:14.281Z</time></trkpt><trkpt lat="43.96305" lon="11.216515"><ele>306.6666666666667</ele><time>2026-04-18T09:37:15.279Z</time></trkpt><trkpt lat="43.963215" lon="11.2166183"><ele>303.0</ele><time>2026-04-18T09:37:16.281Z</time></trkpt><trkpt lat="43.963385" lon="11.2166867"><ele>303.0</ele><time>2026-04-18T09:37:17.279Z</time></trkpt><trkpt lat="43.96356" lon="11.2167217"><ele>303.0</ele><time>2026-04-18T09:37:18.281Z</time></trkpt><trkpt lat="43.9637483" lon="11.2167033"><ele>303.0</ele><time>2026-04-18T09:37:19.28Z</time></trkpt><trkpt lat="43.963935" lon="11.2166483"><ele>303.0</ele><time>2026-04-18T09:37:20.281Z</time></trkpt><trkpt lat="43.9641183" lon="11.216575"><ele>303.0</ele><time>2026-04-18T09:37:21.281Z</time></trkpt><trkpt lat="43.9643" lon="11.21653"><ele>303.0</ele><time>2026-04-18T09:37:22.279Z</time></trkpt><trkpt lat="43.964485" lon="11.2165183"><ele>301.6666666666667</ele><time>2026-04-18T09:37:23.281Z</time></trkpt><trkpt lat="43.9646833" lon="11.2165517"><ele>300.33333333333337</ele><time>2026-04-18T09:37:24.281Z</time></trkpt><trkpt lat="43.9648883" lon="11.2166167"><ele>299.0</ele><time>2026-04-18T09:37:25.28Z</time></trkpt><trkpt lat="43.9651" lon="11.2166767"><ele>297.0</ele><time>2026-04-18T09:37:26.281Z</time></trkpt><trkpt lat="43.9653283" lon="11.2167317"><ele>295.0</ele><time>2026-04-18T09:37:27.281Z</time></trkpt><trkpt lat="43.9655517" lon="11.2167683"><ele>295.0</ele><time>2026-04-18T09:37:28.278Z</time></trkpt><trkpt lat="43.9657733" lon="11.21677"><ele>295.0</ele><time>2026-04-18T09:37:29.279Z</time></trkpt><trkpt lat="43.9659983" lon="11.216735"><ele>295.0</ele><time>2026-04-18T09:37:30.282Z</time></trkpt><trkpt lat="43.966225" lon="11.2166667"><ele>295.0</ele><time>2026-04-18T09:37:31.28Z</time></trkpt><trkpt lat="43.966435" lon="11.2166"><ele>295.0</ele><time>2026-04-18T09:37:32.281Z</time></trkpt><trkpt lat="43.9666333" lon="11.21655"><ele>295.0</ele><time>2026-04-18T09:37:33.281Z</time></trkpt><trkpt lat="43.9668233" lon="11.2165217"><ele>296.0</ele><time>2026-04-18T09:37:34.282Z</time></trkpt><trkpt lat="43.9670083" lon="11.2165317"><ele>297.0</ele><time>2026-04-18T09:37:35.281Z</time></trkpt><trkpt lat="43.967195" lon="11.216595"><ele>298.0</ele><time>2026-04-18T09:37:36.282Z</time></trkpt><trkpt lat="43.9673733" lon="11.2166917"><ele>300.66666666666663</ele><time>2026-04-18T09:37:37.28Z</time></trkpt><trkpt lat="43.9675583" lon="11.2168333"><ele>303.3333333333333</ele><time>2026-04-18T09:37:38.278Z</time></trkpt><trkpt lat="43.9677267" lon="11.2169733"><ele>306.0</ele><time>2026-04-18T09:37:39.28Z</time></trkpt><trkpt lat="43.9678933" lon="11.217065"><ele>306.0</ele><time>2026-04-18T09:37:40.28Z</time></trkpt><trkpt lat="43.968065" lon="11.2171067"><ele>306.0</ele><time>2026-04-18T09:37:41.281Z</time></trkpt><trkpt lat="43.968235" lon="11.217105"><ele>306.0</ele><time>2026-04-18T09:37:42.282Z</time></trkpt><trkpt lat="43.96842" lon="11.2170683"><ele>309.3333333333333</ele><time>2026-04-18T09:37:43.284Z</time></trkpt><trkpt lat="43.96862" lon="11.21704"><ele>312.66666666666663</ele><time>2026-04-18T09:37:44.283Z</time></trkpt><trkpt lat="43.9688317" lon="11.2170267"><ele>316.0</ele><time>2026-04-18T09:37:45.283Z</time></trkpt><trkpt lat="43.9690417" lon="11.2170283"><ele>318.3333333333333</ele><time>2026-04-18T09:37:46.282Z</time></trkpt><trkpt lat="43.969255" lon="11.2170633"><ele>320.6666666666667</ele><time>2026-04-18T09:37:47.281Z</time></trkpt><trkpt lat="43.9694767" lon="11.2171233"><ele>323.0</ele><time>2026-04-18T09:37:48.28Z</time></trkpt><trkpt lat="43.9697017" lon="11.2171833"><ele>323.0</ele><time>2026-04-18T09:37:49.28Z</time></trkpt><trkpt lat="43.9699117" lon="11.2172367"><ele>323.0</ele><time>2026-04-18T09:37:50.28Z</time></trkpt><trkpt lat="43.97011" lon="11.2172733"><ele>323.0</ele><time>2026-04-18T09:37:51.28Z</time></trkpt><trkpt lat="43.9702917" lon="11.2172667"><ele>322.6666666666667</ele><time>2026-04-18T09:37:52.279Z</time></trkpt><trkpt lat="43.9704633" lon="11.2172083"><ele>322.3333333333333</ele><time>2026-04-18T09:37:53.28Z</time></trkpt><trkpt lat="43.9706217" lon="11.2170967"><ele>322.0</ele><time>2026-04-18T09:37:54.28Z</time></trkpt><trkpt lat="43.9707733" lon="11.2169883"><ele>320.0</ele><time>2026-04-18T09:37:55.279Z</time></trkpt><trkpt lat="43.97093" lon="11.2169217"><ele>318.0</ele><time>2026-04-18T09:37:56.28Z</time></trkpt><trkpt lat="43.9710967" lon="11.216905"><ele>316.0</ele><time>2026-04-18T09:37:57.278Z</time></trkpt><trkpt lat="43.971275" lon="11.216925"><ele>316.0</ele><time>2026-04-18T09:37:58.279Z</time></trkpt><trkpt lat="43.97147" lon="11.2169383"><ele>316.0</ele><time>2026-04-18T09:37:59.28Z</time></trkpt><trkpt lat="43.9716867" lon="11.21691"><ele>316.0</ele><time>2026-04-18T09:38:00.281Z</time></trkpt><trkpt lat="43.9719117" lon="11.2168517"><ele>313.0</ele><time>2026-04-18T09:38:01.28Z</time></trkpt><trkpt lat="43.9721283" lon="11.2168017"><ele>310.0</ele><time>2026-04-18T09:38:02.28Z</time></trkpt><trkpt lat="43.9723283" lon="11.2167867"><ele>307.0</ele><time>2026-04-18T09:38:03.281Z</time></trkpt><trkpt lat="43.9725117" lon="11.2167933"><ele>307.0</ele><time>2026-04-18T09:38:04.28Z</time></trkpt><trkpt lat="43.9726883" lon="11.2168467"><ele>307.0</ele><time>2026-04-18T09:38:05.281Z</time></trkpt><trkpt lat="43.9728667" lon="11.2169517"><ele>307.0</ele><time>2026-04-18T09:38:06.281Z</time></trkpt><trkpt lat="43.9730533" lon="11.2170683"><ele>307.0</ele><time>2026-04-18T09:38:07.28Z</time></trkpt><trkpt lat="43.97324" lon="11.217225"><ele>307.0</ele><time>2026-04-18T09:38:08.281Z</time></trkpt><trkpt lat="43.9734167" lon="11.2173783"><ele>307.0</ele><time>2026-04-18T09:38:09.278Z</time></trkpt><trkpt lat="43.9735867" lon="11.217555"><ele>307.66666666666663</ele><time>2026-04-18T09:38:10.279Z</time></trkpt><trkpt lat="43.97375" lon="11.2177283"><ele>308.3333333333333</ele><time>2026-04-18T09:38:11.281Z</time></trkpt><trkpt lat="43.9739" lon="11.2179033"><ele>309.0</ele><time>2026-04-18T09:38:12.28Z</time></trkpt><trkpt lat="43.9740417" lon="11.2180467"><ele>307.0</ele><time>2026-04-18T09:38:13.281Z</time></trkpt><trkpt lat="43.9741717" lon="11.218165"><ele>305.0</ele><time>2026-04-18T09:38:14.28Z</time></trkpt><trkpt lat="43.9743" lon="11.2182633"><ele>303.0</ele><time>2026-04-18T09:38:15.28Z</time></trkpt><trkpt lat="43.9744317" lon="11.218325"><ele>301.0</ele><time>2026-04-18T09:38:16.281Z</time></trkpt><trkpt lat="43.9745583" lon="11.2183833"><ele>301.0</ele><time>2026-04-18T09:38:17.28Z</time></trkpt><trkpt lat="43.97469" lon="11.2184567"><ele>301.0</ele><time>2026-04-18T09:38:18.28Z</time></trkpt><trkpt lat="43.9748233" lon="11.218545"><ele>301.0</ele><time>2026-04-18T09:38:19.278Z</time></trkpt><trkpt lat="43.9749567" lon="11.218655"><ele>301.0</ele><time>2026-04-18T09:38:20.281Z</time></trkpt><trkpt lat="43.9750867" lon="11.21878"><ele>300.0</ele><time>2026-04-18T09:38:21.281Z</time></trkpt><trkpt lat="43.9752067" lon="11.2189383"><ele>299.0</ele><time>2026-04-18T09:38:22.28Z</time></trkpt><trkpt lat="43.9753133" lon="11.2191167"><ele>298.0</ele><time>2026-04-18T09:38:23.281Z</time></trkpt><trkpt lat="43.9754133" lon="11.21932"><ele>298.0</ele><time>2026-04-18T09:38:24.28Z</time></trkpt><trkpt lat="43.9755183" lon="11.2195317"><ele>298.0</ele><time>2026-04-18T09:38:25.281Z</time></trkpt><trkpt lat="43.9756267" lon="11.2197367"><ele>298.0</ele><time>2026-04-18T09:38:26.281Z</time></trkpt><trkpt lat="43.9757333" lon="11.219945"><ele>300.0</ele><time>2026-04-18T09:38:27.28Z</time></trkpt><trkpt lat="43.97584" lon="11.22014"><ele>302.0</ele><time>2026-04-18T09:38:28.281Z</time></trkpt><trkpt lat="43.9759417" lon="11.2203233"><ele>304.0</ele><time>2026-04-18T09:38:29.279Z</time></trkpt><trkpt lat="43.9760317" lon="11.2205083"><ele>301.66666666666663</ele><time>2026-04-18T09:38:30.281Z</time></trkpt><trkpt lat="43.976105" lon="11.2207133"><ele>299.3333333333333</ele><time>2026-04-18T09:38:31.28Z</time></trkpt><trkpt lat="43.9761567" lon="11.220945"><ele>297.0</ele><time>2026-04-18T09:38:32.28Z</time></trkpt><trkpt lat="43.9761783" lon="11.22118"><ele>297.0</ele><time>2026-04-18T09:38:33.28Z</time></trkpt><trkpt lat="43.976175" lon="11.22143"><ele>297.0</ele><time>2026-04-18T09:38:34.28Z</time></trkpt><trkpt lat="43.9761633" lon="11.2216867"><ele>297.0</ele><time>2026-04-18T09:38:35.28Z</time></trkpt><trkpt lat="43.976155" lon="11.22195"><ele>296.6666666666667</ele><time>2026-04-18T09:38:36.28Z</time></trkpt><trkpt lat="43.976145" lon="11.2222167"><ele>296.33333333333337</ele><time>2026-04-18T09:38:37.28Z</time></trkpt><trkpt lat="43.9761333" lon="11.2224833"><ele>296.0</ele><time>2026-04-18T09:38:38.281Z</time></trkpt><trkpt lat="43.9761233" lon="11.2227517"><ele>296.0</ele><time>2026-04-18T09:38:39.28Z</time></trkpt><trkpt lat="43.97611" lon="11.2230033"><ele>296.0</ele><time>2026-04-18T09:38:40.278Z</time></trkpt><trkpt lat="43.9760967" lon="11.2232367"><ele>296.0</ele><time>2026-04-18T09:38:41.278Z</time></trkpt><trkpt lat="43.9760883" lon="11.223455"><ele>294.75</ele><time>2026-04-18T09:38:42.28Z</time></trkpt><trkpt lat="43.9761017" lon="11.2236517"><ele>293.5</ele><time>2026-04-18T09:38:43.278Z</time></trkpt><trkpt lat="43.9761517" lon="11.2238367"><ele>292.25</ele><time>2026-04-18T09:38:44.279Z</time></trkpt><trkpt lat="43.9762333" lon="11.2240017"><ele>291.0</ele><time>2026-04-18T09:38:45.28Z</time></trkpt><trkpt lat="43.9763367" lon="11.2241417"><ele>287.0</ele><time>2026-04-18T09:38:46.28Z</time></trkpt><trkpt lat="43.976475" lon="11.224235"><ele>283.0</ele><time>2026-04-18T09:38:47.279Z</time></trkpt><trkpt lat="43.97664" lon="11.2243017"><ele>279.0</ele><time>2026-04-18T09:38:48.28Z</time></trkpt><trkpt lat="43.97681" lon="11.2243833"><ele>279.0</ele><time>2026-04-18T09:38:49.279Z</time></trkpt><trkpt lat="43.97699" lon="11.2244583"><ele>279.0</ele><time>2026-04-18T09:38:50.28Z</time></trkpt><trkpt lat="43.97717" lon="11.2245317"><ele>279.0</ele><time>2026-04-18T09:38:51.28Z</time></trkpt><trkpt lat="43.97735" lon="11.224605"><ele>276.6666666666667</ele><time>2026-04-18T09:38:52.279Z</time></trkpt><trkpt lat="43.97753" lon="11.2246767"><ele>274.33333333333337</ele><time>2026-04-18T09:38:53.28Z</time></trkpt><trkpt lat="43.9777083" lon="11.224745"><ele>272.0</ele><time>2026-04-18T09:38:54.281Z</time></trkpt><trkpt lat="43.9778883" lon="11.22482"><ele>270.0</ele><time>2026-04-18T09:38:55.28Z</time></trkpt><trkpt lat="43.9780633" lon="11.2248917"><ele>268.0</ele><time>2026-04-18T09:38:56.282Z</time></trkpt><trkpt lat="43.9782283" lon="11.224965"><ele>266.0</ele><time>2026-04-18T09:38:57.28Z</time></trkpt><trkpt lat="43.9783817" lon="11.225035"><ele>264.6666666666667</ele><time>2026-04-18T09:38:58.281Z</time></trkpt><trkpt lat="43.9785333" lon="11.2251017"><ele>263.3333333333333</ele><time>2026-04-18T09:38:59.28Z</time></trkpt><trkpt lat="43.9786817" lon="11.2251683"><ele>262.0</ele><time>2026-04-18T09:39:00.281Z</time></trkpt><trkpt lat="43.97883" lon="11.22523"><ele>262.0</ele><time>2026-04-18T09:39:01.281Z</time></trkpt><trkpt lat="43.9789783" lon="11.2252967"><ele>262.0</ele><time>2026-04-18T09:39:02.28Z</time></trkpt><trkpt lat="43.9791267" lon="11.225375"><ele>262.0</ele><time>2026-04-18T09:39:03.281Z</time></trkpt><trkpt lat="43.97927" lon="11.2254533"><ele>261.5</ele><time>2026-04-18T09:39:04.279Z</time></trkpt><trkpt lat="43.9794117" lon="11.22553"><ele>261.0</ele><time>2026-04-18T09:39:05.281Z</time></trkpt><trkpt lat="43.9795433" lon="11.2256133"><ele>260.5</ele><time>2026-04-18T09:39:06.28Z</time></trkpt><trkpt lat="43.9796683" lon="11.22569"><ele>260.0</ele><time>2026-04-18T09:39:07.282Z</time></trkpt><trkpt lat="43.979785" lon="11.2257667"><ele>260.0</ele><time>2026-04-18T09:39:08.28Z</time></trkpt><trkpt lat="43.9798933" lon="11.225845"><ele>260.0</ele><time>2026-04-18T09:39:09.28Z</time></trkpt><trkpt lat="43.979985" lon="11.2259267"><ele>260.0</ele><time>2026-04-18T09:39:10.277Z</time></trkpt><trkpt lat="43.980065" lon="11.2260267"><ele>260.0</ele><time>2026-04-18T09:39:11.278Z</time></trkpt><trkpt lat="43.980135" lon="11.2261317"><ele>260.0</ele><time>2026-04-18T09:39:12.278Z</time></trkpt><trkpt lat="43.98019" lon="11.2262567"><ele>260.0</ele><time>2026-04-18T09:39:13.278Z</time></trkpt><trkpt lat="43.9802417" lon="11.2263767"><ele>260.0</ele><time>2026-04-18T09:39:14.279Z</time></trkpt><trkpt lat="43.9802883" lon="11.2264983"><ele>260.0</ele><time>2026-04-18T09:39:15.278Z</time></trkpt><trkpt lat="43.9803517" lon="11.2265967"><ele>260.0</ele><time>2026-04-18T09:39:16.278Z</time></trkpt><trkpt lat="43.980435" lon="11.2266733"><ele>260.0</ele><time>2026-04-18T09:39:17.278Z</time></trkpt><trkpt lat="43.9805283" lon="11.2267167"><ele>259.8</ele><time>2026-04-18T09:39:18.278Z</time></trkpt><trkpt lat="43.9806183" lon="11.22676"><ele>259.6</ele><time>2026-04-18T09:39:19.279Z</time></trkpt><trkpt lat="43.9806883" lon="11.226845"><ele>259.4</ele><time>2026-04-18T09:39:20.281Z</time></trkpt><trkpt lat="43.9807333" lon="11.2269883"><ele>259.2</ele><time>2026-04-18T09:39:21.277Z</time></trkpt><trkpt lat="43.9807617" lon="11.2271517"><ele>259.0</ele><time>2026-04-18T09:39:22.279Z</time></trkpt><trkpt lat="43.980785" lon="11.227335"><ele>259.75</ele><time>2026-04-18T09:39:23.279Z</time></trkpt><trkpt lat="43.980795" lon="11.2275233"><ele>260.5</ele><time>2026-04-18T09:39:24.279Z</time></trkpt><trkpt lat="43.9807917" lon="11.2276933"><ele>261.25</ele><time>2026-04-18T09:39:25.28Z</time></trkpt><trkpt lat="43.9807783" lon="11.2278533"><ele>262.0</ele><time>2026-04-18T09:39:26.279Z</time></trkpt><trkpt lat="43.9807583" lon="11.2279933"><ele>262.0</ele><time>2026-04-18T09:39:27.277Z</time></trkpt><trkpt lat="43.9807333" lon="11.2281267"><ele>262.0</ele><time>2026-04-18T09:39:28.278Z</time></trkpt><trkpt lat="43.9807083" lon="11.2282667"><ele>262.0</ele><time>2026-04-18T09:39:29.278Z</time></trkpt><trkpt lat="43.9806817" lon="11.2284167"><ele>262.0</ele><time>2026-04-18T09:39:30.279Z</time></trkpt><trkpt lat="43.9806617" lon="11.2285683"><ele>262.0</ele><time>2026-04-18T09:39:31.278Z</time></trkpt><trkpt lat="43.9806467" lon="11.2287183"><ele>262.75</ele><time>2026-04-18T09:39:32.279Z</time></trkpt><trkpt lat="43.98064" lon="11.2288733"><ele>263.5</ele><time>2026-04-18T09:39:33.279Z</time></trkpt><trkpt lat="43.9806333" lon="11.22903"><ele>264.25</ele><time>2026-04-18T09:39:34.279Z</time></trkpt><trkpt lat="43.9806317" lon="11.2291917"><ele>265.0</ele><time>2026-04-18T09:39:35.278Z</time></trkpt><trkpt lat="43.9806317" lon="11.2293583"><ele>265.5</ele><time>2026-04-18T09:39:36.278Z</time></trkpt><trkpt lat="43.9806433" lon="11.229535"><ele>266.0</ele><time>2026-04-18T09:39:37.279Z</time></trkpt><trkpt lat="43.9806517" lon="11.2297033"><ele>266.5</ele><time>2026-04-18T09:39:38.278Z</time></trkpt><trkpt lat="43.980675" lon="11.22986"><ele>267.0</ele><time>2026-04-18T09:39:39.278Z</time></trkpt><trkpt lat="43.980695" lon="11.2300083"><ele>267.0</ele><time>2026-04-18T09:39:40.279Z</time></trkpt><trkpt lat="43.9807183" lon="11.230155"><ele>267.0</ele><time>2026-04-18T09:39:41.279Z</time></trkpt><trkpt lat="43.980745" lon="11.2303033"><ele>267.0</ele><time>2026-04-18T09:39:42.279Z</time></trkpt><trkpt lat="43.9807717" lon="11.230455"><ele>267.0</ele><time>2026-04-18T09:39:43.281Z</time></trkpt><trkpt lat="43.9808" lon="11.2306083"><ele>267.0</ele><time>2026-04-18T09:39:44.279Z</time></trkpt><trkpt lat="43.9808283" lon="11.2307667"><ele>268.5</ele><time>2026-04-18T09:39:45.278Z</time></trkpt><trkpt lat="43.9808583" lon="11.2309333"><ele>270.0</ele><time>2026-04-18T09:39:46.278Z</time></trkpt><trkpt lat="43.98089" lon="11.2311067"><ele>271.5</ele><time>2026-04-18T09:39:47.281Z</time></trkpt><trkpt lat="43.9809183" lon="11.2312767"><ele>273.0</ele><time>2026-04-18T09:39:48.278Z</time></trkpt><trkpt lat="43.9809483" lon="11.23144"><ele>272.0</ele><time>2026-04-18T09:39:49.278Z</time></trkpt><trkpt lat="43.9809817" lon="11.2316017"><ele>271.0</ele><time>2026-04-18T09:39:50.279Z</time></trkpt><trkpt lat="43.98102" lon="11.2317583"><ele>270.0</ele><time>2026-04-18T09:39:51.278Z</time></trkpt><trkpt lat="43.9810633" lon="11.2319117"><ele>269.0</ele><time>2026-04-18T09:39:52.279Z</time></trkpt><trkpt lat="43.98111" lon="11.2320517"><ele>269.0</ele><time>2026-04-18T09:39:53.278Z</time></trkpt><trkpt lat="43.9811483" lon="11.2321767"><ele>269.0</ele><time>2026-04-18T09:39:54.279Z</time></trkpt><trkpt lat="43.981195" lon="11.2322767"><ele>269.0</ele><time>2026-04-18T09:39:55.278Z</time></trkpt><trkpt lat="43.9812433" lon="11.23237"><ele>269.0</ele><time>2026-04-18T09:39:56.279Z</time></trkpt><trkpt lat="43.9812967" lon="11.2324433"><ele>269.0</ele><time>2026-04-18T09:39:57.279Z</time></trkpt><trkpt lat="43.9813533" lon="11.2325083"><ele>269.0</ele><time>2026-04-18T09:39:58.278Z</time></trkpt><trkpt lat="43.981445" lon="11.2325883"><ele>268.59999999999997</ele><time>2026-04-18T09:40:00.278Z</time></trkpt><trkpt lat="43.9815117" lon="11.23258"><ele>268.2</ele><time>2026-04-18T09:40:01.279Z</time></trkpt><trkpt lat="43.9815983" lon="11.232545"><ele>267.79999999999995</ele><time>2026-04-18T09:40:02.28Z</time></trkpt><trkpt lat="43.9817217" lon="11.2325133"><ele>267.4</ele><time>2026-04-18T09:40:03.279Z</time></trkpt><trkpt lat="43.9818533" lon="11.2325017"><ele>267.0</ele><time>2026-04-18T09:40:04.278Z</time></trkpt><trkpt lat="43.981985" lon="11.2325067"><ele>267.0</ele><time>2026-04-18T09:40:05.279Z</time></trkpt><trkpt lat="43.9821167" lon="11.2325283"><ele>267.0</ele><time>2026-04-18T09:40:06.279Z</time></trkpt><trkpt lat="43.982245" lon="11.2325533"><ele>267.0</ele><time>2026-04-18T09:40:07.279Z</time></trkpt><trkpt lat="43.9823733" lon="11.2325833"><ele>267.0</ele><time>2026-04-18T09:40:08.278Z</time></trkpt><trkpt lat="43.9824917" lon="11.232615"><ele>267.25</ele><time>2026-04-18T09:40:09.278Z</time></trkpt><trkpt lat="43.9826083" lon="11.23264"><ele>267.5</ele><time>2026-04-18T09:40:10.279Z</time></trkpt><trkpt lat="43.98272" lon="11.2326667"><ele>267.75</ele><time>2026-04-18T09:40:11.279Z</time></trkpt><trkpt lat="43.9828333" lon="11.2326933"><ele>268.0</ele><time>2026-04-18T09:40:12.279Z</time></trkpt><trkpt lat="43.9829417" lon="11.2327183"><ele>268.0</ele><time>2026-04-18T09:40:13.278Z</time></trkpt><trkpt lat="43.983045" lon="11.23274"><ele>268.0</ele><time>2026-04-18T09:40:14.279Z</time></trkpt><trkpt lat="43.983145" lon="11.23276"><ele>268.0</ele><time>2026-04-18T09:40:15.279Z</time></trkpt><trkpt lat="43.9832433" lon="11.2327733"><ele>268.0</ele><time>2026-04-18T09:40:16.278Z</time></trkpt><trkpt lat="43.9833433" lon="11.2327883"><ele>268.0</ele><time>2026-04-18T09:40:17.282Z</time></trkpt><trkpt lat="43.9834467" lon="11.2328183"><ele>268.4</ele><time>2026-04-18T09:40:18.279Z</time></trkpt><trkpt lat="43.9835467" lon="11.232845"><ele>268.8</ele><time>2026-04-18T09:40:19.281Z</time></trkpt><trkpt lat="43.9836417" lon="11.2328717"><ele>269.2</ele><time>2026-04-18T09:40:20.28Z</time></trkpt><trkpt lat="43.9837383" lon="11.2328983"><ele>269.6</ele><time>2026-04-18T09:40:21.281Z</time></trkpt><trkpt lat="43.9838233" lon="11.2329267"><ele>270.0</ele><time>2026-04-18T09:40:22.28Z</time></trkpt><trkpt lat="43.9839067" lon="11.2329617"><ele>270.0</ele><time>2026-04-18T09:40:23.28Z</time></trkpt><trkpt lat="43.9839967" lon="11.232995"><ele>270.0</ele><time>2026-04-18T09:40:24.281Z</time></trkpt><trkpt lat="43.9840917" lon="11.2330283"><ele>270.0</ele><time>2026-04-18T09:40:25.28Z</time></trkpt><trkpt lat="43.984185" lon="11.2330633"><ele>270.0</ele><time>2026-04-18T09:40:26.279Z</time></trkpt><trkpt lat="43.984275" lon="11.2331017"><ele>270.0</ele><time>2026-04-18T09:40:27.279Z</time></trkpt><trkpt lat="43.98438" lon="11.2331167"><ele>270.6</ele><time>2026-04-18T09:40:28.278Z</time></trkpt><trkpt lat="43.98448" lon="11.2331383"><ele>271.2</ele><time>2026-04-18T09:40:29.279Z</time></trkpt><trkpt lat="43.9845733" lon="11.2331617"><ele>271.8</ele><time>2026-04-18T09:40:30.279Z</time></trkpt><trkpt lat="43.9846667" lon="11.2331783"><ele>272.4</ele><time>2026-04-18T09:40:31.279Z</time></trkpt><trkpt lat="43.9847633" lon="11.2331833"><ele>273.0</ele><time>2026-04-18T09:40:32.279Z</time></trkpt><trkpt lat="43.9848567" lon="11.2331917"><ele>273.0</ele><time>2026-04-18T09:40:33.278Z</time></trkpt><trkpt lat="43.9849567" lon="11.233205"><ele>273.0</ele><time>2026-04-18T09:40:34.279Z</time></trkpt><trkpt lat="43.98506" lon="11.2332183"><ele>273.0</ele><time>2026-04-18T09:40:35.279Z</time></trkpt><trkpt lat="43.9851667" lon="11.2332433"><ele>273.0</ele><time>2026-04-18T09:40:36.279Z</time></trkpt><trkpt lat="43.9852683" lon="11.2332583"><ele>273.0</ele><time>2026-04-18T09:40:37.279Z</time></trkpt><trkpt lat="43.9853617" lon="11.2332717"><ele>271.0</ele><time>2026-04-18T09:40:38.281Z</time></trkpt><trkpt lat="43.985455" lon="11.23327"><ele>269.0</ele><time>2026-04-18T09:40:39.278Z</time></trkpt><trkpt lat="43.98555" lon="11.233255"><ele>267.0</ele><time>2026-04-18T09:40:40.279Z</time></trkpt><trkpt lat="43.9856533" lon="11.233225"><ele>265.0</ele><time>2026-04-18T09:40:41.279Z</time></trkpt><trkpt lat="43.98577" lon="11.2331783"><ele>263.0</ele><time>2026-04-18T09:40:42.28Z</time></trkpt><trkpt lat="43.985905" lon="11.23312"><ele>263.0</ele><time>2026-04-18T09:40:43.281Z</time></trkpt><trkpt lat="43.9860333" lon="11.2330583"><ele>263.0</ele><time>2026-04-18T09:40:44.281Z</time></trkpt><trkpt lat="43.9861783" lon="11.2330033"><ele>263.0</ele><time>2026-04-18T09:40:45.278Z</time></trkpt><trkpt lat="43.98631" lon="11.23294"><ele>263.0</ele><time>2026-04-18T09:40:46.279Z</time></trkpt><trkpt lat="43.9864517" lon="11.232895"><ele>263.0</ele><time>2026-04-18T09:40:47.281Z</time></trkpt><trkpt lat="43.986595" lon="11.23288"><ele>263.0</ele><time>2026-04-18T09:40:48.282Z</time></trkpt><trkpt lat="43.9867367" lon="11.2328817"><ele>263.0</ele><time>2026-04-18T09:40:49.28Z</time></trkpt><trkpt lat="43.9868833" lon="11.232905"><ele>263.0</ele><time>2026-04-18T09:40:50.281Z</time></trkpt><trkpt lat="43.9870283" lon="11.23293"><ele>262.25</ele><time>2026-04-18T09:40:51.28Z</time></trkpt><trkpt lat="43.9871683" lon="11.2329417"><ele>261.5</ele><time>2026-04-18T09:40:52.279Z</time></trkpt><trkpt lat="43.9873067" lon="11.2329533"><ele>260.75</ele><time>2026-04-18T09:40:53.281Z</time></trkpt><trkpt lat="43.9874467" lon="11.2329683"><ele>260.0</ele><time>2026-04-18T09:40:54.28Z</time></trkpt><trkpt lat="43.9875833" lon="11.2329867"><ele>259.5</ele><time>2026-04-18T09:40:55.281Z</time></trkpt><trkpt lat="43.9877233" lon="11.23302"><ele>259.0</ele><time>2026-04-18T09:40:56.283Z</time></trkpt><trkpt lat="43.9878583" lon="11.233065"><ele>258.5</ele><time>2026-04-18T09:40:57.281Z</time></trkpt><trkpt lat="43.9879883" lon="11.2331367"><ele>258.0</ele><time>2026-04-18T09:40:58.28Z</time></trkpt><trkpt lat="43.9881217" lon="11.233225"><ele>257.6666666666667</ele><time>2026-04-18T09:40:59.28Z</time></trkpt><trkpt lat="43.988245" lon="11.2333333"><ele>257.33333333333337</ele><time>2026-04-18T09:41:00.278Z</time></trkpt><trkpt lat="43.9883683" lon="11.23346"><ele>257.0</ele><time>2026-04-18T09:41:01.28Z</time></trkpt><trkpt lat="43.9884867" lon="11.23359"><ele>257.0</ele><time>2026-04-18T09:41:02.281Z</time></trkpt><trkpt lat="43.988605" lon="11.2337167"><ele>257.0</ele><time>2026-04-18T09:41:03.279Z</time></trkpt><trkpt lat="43.9887233" lon="11.2338467"><ele>257.0</ele><time>2026-04-18T09:41:04.28Z</time></trkpt><trkpt lat="43.988845" lon="11.2339683"><ele>257.33333333333337</ele><time>2026-04-18T09:41:05.279Z</time></trkpt><trkpt lat="43.9889717" lon="11.2340817"><ele>257.6666666666667</ele><time>2026-04-18T09:41:06.28Z</time></trkpt><trkpt lat="43.9891033" lon="11.234185"><ele>258.0</ele><time>2026-04-18T09:41:07.279Z</time></trkpt><trkpt lat="43.98924" lon="11.234285"><ele>258.6666666666667</ele><time>2026-04-18T09:41:08.281Z</time></trkpt><trkpt lat="43.9893817" lon="11.2343817"><ele>259.33333333333337</ele><time>2026-04-18T09:41:09.279Z</time></trkpt><trkpt lat="43.989525" lon="11.2344683"><ele>260.0</ele><time>2026-04-18T09:41:10.278Z</time></trkpt><trkpt lat="43.9896633" lon="11.234545"><ele>260.0</ele><time>2026-04-18T09:41:11.281Z</time></trkpt><trkpt lat="43.9898067" lon="11.2346233"><ele>260.0</ele><time>2026-04-18T09:41:12.281Z</time></trkpt><trkpt lat="43.9899517" lon="11.2347"><ele>260.0</ele><time>2026-04-18T09:41:13.28Z</time></trkpt><trkpt lat="43.9900933" lon="11.2347733"><ele>260.25</ele><time>2026-04-18T09:41:14.28Z</time></trkpt><trkpt lat="43.9902317" lon="11.2348433"><ele>260.5</ele><time>2026-04-18T09:41:15.28Z</time></trkpt><trkpt lat="43.9903683" lon="11.234915"><ele>260.75</ele><time>2026-04-18T09:41:16.278Z</time></trkpt><trkpt lat="43.9905" lon="11.234985"><ele>261.0</ele><time>2026-04-18T09:41:17.28Z</time></trkpt><trkpt lat="43.99063" lon="11.2350567"><ele>261.0</ele><time>2026-04-18T09:41:18.28Z</time></trkpt><trkpt lat="43.9907517" lon="11.2351217"><ele>261.0</ele><time>2026-04-18T09:41:19.279Z</time></trkpt><trkpt lat="43.9908733" lon="11.2351883"><ele>261.0</ele><time>2026-04-18T09:41:20.28Z</time></trkpt><trkpt lat="43.9909883" lon="11.2352533"><ele>261.0</ele><time>2026-04-18T09:41:21.279Z</time></trkpt><trkpt lat="43.99109" lon="11.2353133"><ele>261.1666666666667</ele><time>2026-04-18T09:41:22.28Z</time></trkpt><trkpt lat="43.9911833" lon="11.2353733"><ele>261.3333333333333</ele><time>2026-04-18T09:41:23.279Z</time></trkpt><trkpt lat="43.9912667" lon="11.235435"><ele>261.5</ele><time>2026-04-18T09:41:24.28Z</time></trkpt><trkpt lat="43.9913367" lon="11.235495"><ele>261.66666666666663</ele><time>2026-04-18T09:41:25.279Z</time></trkpt><trkpt lat="43.9913917" lon="11.235565"><ele>261.8333333333333</ele><time>2026-04-18T09:41:26.28Z</time></trkpt><trkpt lat="43.9914333" lon="11.2356533"><ele>262.0</ele><time>2026-04-18T09:41:27.279Z</time></trkpt><trkpt lat="43.9914717" lon="11.23576"><ele>262.0</ele><time>2026-04-18T09:41:28.281Z</time></trkpt><trkpt lat="43.991515" lon="11.2358633"><ele>262.0</ele><time>2026-04-18T09:41:29.28Z</time></trkpt><trkpt lat="43.9915783" lon="11.2359633"><ele>262.0</ele><time>2026-04-18T09:41:30.281Z</time></trkpt><trkpt lat="43.991655" lon="11.23606"><ele>262.0</ele><time>2026-04-18T09:41:31.28Z</time></trkpt><trkpt lat="43.9917333" lon="11.2361833"><ele>262.0</ele><time>2026-04-18T09:41:32.28Z</time></trkpt><trkpt lat="43.9918033" lon="11.2363317"><ele>262.25</ele><time>2026-04-18T09:41:33.281Z</time></trkpt><trkpt lat="43.991865" lon="11.23649"><ele>262.5</ele><time>2026-04-18T09:41:34.279Z</time></trkpt><trkpt lat="43.991925" lon="11.236665"><ele>262.75</ele><time>2026-04-18T09:41:35.281Z</time></trkpt><trkpt lat="43.9919867" lon="11.2368367"><ele>263.0</ele><time>2026-04-18T09:41:36.279Z</time></trkpt><trkpt lat="43.9920483" lon="11.2370117"><ele>263.0</ele><time>2026-04-18T09:41:37.279Z</time></trkpt><trkpt lat="43.9921083" lon="11.2371883"><ele>263.0</ele><time>2026-04-18T09:41:38.281Z</time></trkpt><trkpt lat="43.99217" lon="11.2373617"><ele>263.0</ele><time>2026-04-18T09:41:39.28Z</time></trkpt><trkpt lat="43.9922317" lon="11.2375317"><ele>263.0</ele><time>2026-04-18T09:41:40.28Z</time></trkpt><trkpt lat="43.992295" lon="11.2376983"><ele>263.0</ele><time>2026-04-18T09:41:41.28Z</time></trkpt><trkpt lat="43.9923517" lon="11.23786"><ele>263.0</ele><time>2026-04-18T09:41:42.279Z</time></trkpt><trkpt lat="43.992405" lon="11.23802"><ele>263.0</ele><time>2026-04-18T09:41:43.28Z</time></trkpt><trkpt lat="43.9924583" lon="11.2381733"><ele>263.0</ele><time>2026-04-18T09:41:44.281Z</time></trkpt><trkpt lat="43.99251" lon="11.23833"><ele>263.0</ele><time>2026-04-18T09:41:45.281Z</time></trkpt><trkpt lat="43.9925633" lon="11.2384933"><ele>263.0</ele><time>2026-04-18T09:41:46.279Z</time></trkpt><trkpt lat="43.9926217" lon="11.238645"><ele>263.0</ele><time>2026-04-18T09:41:47.28Z</time></trkpt><trkpt lat="43.992675" lon="11.238805"><ele>263.0</ele><time>2026-04-18T09:41:48.281Z</time></trkpt><trkpt lat="43.9927283" lon="11.23896"><ele>263.0</ele><time>2026-04-18T09:41:49.28Z</time></trkpt><trkpt lat="43.9927867" lon="11.239115"><ele>263.0</ele><time>2026-04-18T09:41:50.281Z</time></trkpt><trkpt lat="43.9928383" lon="11.239265"><ele>263.0</ele><time>2026-04-18T09:41:51.28Z</time></trkpt><trkpt lat="43.992885" lon="11.239415"><ele>263.0</ele><time>2026-04-18T09:41:52.281Z</time></trkpt><trkpt lat="43.99293" lon="11.2395567"><ele>263.0</ele><time>2026-04-18T09:41:53.281Z</time></trkpt><trkpt lat="43.9929667" lon="11.2396767"><ele>263.0</ele><time>2026-04-18T09:41:54.281Z</time></trkpt><trkpt lat="43.993" lon="11.2397733"><ele>263.0</ele><time>2026-04-18T09:41:55.279Z</time></trkpt><trkpt lat="43.9930333" lon="11.2398517"><ele>263.0</ele><time>2026-04-18T09:41:56.281Z</time></trkpt><trkpt lat="43.9930883" lon="11.24"><ele>263.0</ele><time>2026-04-18T09:41:58.28Z</time></trkpt><trkpt lat="43.993115" lon="11.24013"><ele>263.0</ele><time>2026-04-18T09:42:00.28Z</time></trkpt><trkpt lat="43.99313" lon="11.2402567"><ele>263.0</ele><time>2026-04-18T09:42:02.281Z</time></trkpt><trkpt lat="43.993165" lon="11.2404067"><ele>263.0</ele><time>2026-04-18T09:42:04.281Z</time></trkpt><trkpt lat="43.9932217" lon="11.2405467"><ele>263.0</ele><time>2026-04-18T09:42:06.28Z</time></trkpt><trkpt lat="43.993345" lon="11.2405567"><ele>263.0</ele><time>2026-04-18T09:42:08.281Z</time></trkpt><trkpt lat="43.9934233" lon="11.24054"><ele>263.0</ele><time>2026-04-18T09:42:09.28Z</time></trkpt><trkpt lat="43.9935333" lon="11.2404883"><ele>263.0</ele><time>2026-04-18T09:42:10.281Z</time></trkpt><trkpt lat="43.9936483" lon="11.2404517"><ele>263.0</ele><time>2026-04-18T09:42:11.28Z</time></trkpt><trkpt lat="43.993755" lon="11.2404217"><ele>263.0</ele><time>2026-04-18T09:42:12.281Z</time></trkpt><trkpt lat="43.9938617" lon="11.2403967"><ele>263.0</ele><time>2026-04-18T09:42:13.28Z</time></trkpt><trkpt lat="43.9939667" lon="11.2403767"><ele>263.0</ele><time>2026-04-18T09:42:14.281Z</time></trkpt><trkpt lat="43.9940733" lon="11.2403583"><ele>263.0</ele><time>2026-04-18T09:42:15.28Z</time></trkpt><trkpt lat="43.9941817" lon="11.2403483"><ele>263.0</ele><time>2026-04-18T09:42:16.281Z</time></trkpt><trkpt lat="43.994285" lon="11.2403367"><ele>263.0</ele><time>2026-04-18T09:42:17.281Z</time></trkpt><trkpt lat="43.9943883" lon="11.2403217"><ele>263.4</ele><time>2026-04-18T09:42:18.28Z</time></trkpt><trkpt lat="43.9944867" lon="11.24031"><ele>263.8</ele><time>2026-04-18T09:42:19.28Z</time></trkpt><trkpt lat="43.9945833" lon="11.2403017"><ele>264.2</ele><time>2026-04-18T09:42:20.28Z</time></trkpt><trkpt lat="43.994675" lon="11.2402817"><ele>264.6</ele><time>2026-04-18T09:42:21.281Z</time></trkpt><trkpt lat="43.99476" lon="11.240265"><ele>265.0</ele><time>2026-04-18T09:42:22.28Z</time></trkpt><trkpt lat="43.994835" lon="11.2402467"><ele>265.0</ele><time>2026-04-18T09:42:23.281Z</time></trkpt><trkpt lat="43.994915" lon="11.2402217"><ele>265.0</ele><time>2026-04-18T09:42:24.282Z</time></trkpt><trkpt lat="43.99501" lon="11.2402083"><ele>265.0</ele><time>2026-04-18T09:42:25.281Z</time></trkpt><trkpt lat="43.9951133" lon="11.2401983"><ele>265.0</ele><time>2026-04-18T09:42:26.281Z</time></trkpt><trkpt lat="43.9952267" lon="11.2401917"><ele>265.0</ele><time>2026-04-18T09:42:27.281Z</time></trkpt><trkpt lat="43.99535" lon="11.240185"><ele>265.0</ele><time>2026-04-18T09:42:28.28Z</time></trkpt><trkpt lat="43.9954783" lon="11.24018"><ele>265.0</ele><time>2026-04-18T09:42:29.279Z</time></trkpt><trkpt lat="43.995605" lon="11.2401667"><ele>265.0</ele><time>2026-04-18T09:42:30.281Z</time></trkpt><trkpt lat="43.995725" lon="11.2401583"><ele>265.0</ele><time>2026-04-18T09:42:31.28Z</time></trkpt><trkpt lat="43.99583" lon="11.240155"><ele>264.8333333333333</ele><time>2026-04-18T09:42:32.28Z</time></trkpt><trkpt lat="43.9959183" lon="11.2401483"><ele>264.66666666666663</ele><time>2026-04-18T09:42:33.28Z</time></trkpt><trkpt lat="43.9960017" lon="11.2401583"><ele>264.5</ele><time>2026-04-18T09:42:34.279Z</time></trkpt><trkpt lat="43.9960733" lon="11.240195"><ele>264.3333333333333</ele><time>2026-04-18T09:42:35.28Z</time></trkpt><trkpt lat="43.9961333" lon="11.2402533"><ele>264.1666666666667</ele><time>2026-04-18T09:42:36.279Z</time></trkpt><trkpt lat="43.99618" lon="11.2403567"><ele>264.0</ele><time>2026-04-18T09:42:37.28Z</time></trkpt><trkpt lat="43.99621" lon="11.2405383"><ele>263.25</ele><time>2026-04-18T09:42:38.28Z</time></trkpt><trkpt lat="43.996255" lon="11.2407267"><ele>262.5</ele><time>2026-04-18T09:42:39.281Z</time></trkpt><trkpt lat="43.9963017" lon="11.240915"><ele>261.75</ele><time>2026-04-18T09:42:40.279Z</time></trkpt><trkpt lat="43.9963517" lon="11.2411"><ele>261.0</ele><time>2026-04-18T09:42:41.28Z</time></trkpt><trkpt lat="43.9963983" lon="11.24127"><ele>261.0</ele><time>2026-04-18T09:42:42.28Z</time></trkpt><trkpt lat="43.9964433" lon="11.24143"><ele>261.0</ele><time>2026-04-18T09:42:43.279Z</time></trkpt><trkpt lat="43.9964967" lon="11.2415767"><ele>261.0</ele><time>2026-04-18T09:42:44.282Z</time></trkpt><trkpt lat="43.9965667" lon="11.2416867"><ele>261.0</ele><time>2026-04-18T09:42:45.281Z</time></trkpt><trkpt lat="43.9966617" lon="11.2417683"><ele>261.75</ele><time>2026-04-18T09:42:46.279Z</time></trkpt><trkpt lat="43.9967717" lon="11.241835"><ele>262.5</ele><time>2026-04-18T09:42:47.278Z</time></trkpt><trkpt lat="43.99688" lon="11.2418917"><ele>263.25</ele><time>2026-04-18T09:42:48.28Z</time></trkpt><trkpt lat="43.99699" lon="11.24194"><ele>264.0</ele><time>2026-04-18T09:42:49.28Z</time></trkpt><trkpt lat="43.9970883" lon="11.2419767"><ele>264.0</ele><time>2026-04-18T09:42:50.281Z</time></trkpt><trkpt lat="43.997175" lon="11.2420267"><ele>264.0</ele><time>2026-04-18T09:42:51.281Z</time></trkpt><trkpt lat="43.9972483" lon="11.2420833"><ele>264.0</ele><time>2026-04-18T09:42:52.281Z</time></trkpt><trkpt lat="43.99732" lon="11.2421283"><ele>264.0</ele><time>2026-04-18T09:42:53.28Z</time></trkpt><trkpt lat="43.997395" lon="11.2421733"><ele>264.0</ele><time>2026-04-18T09:42:54.281Z</time></trkpt><trkpt lat="43.9974817" lon="11.2422133"><ele>264.0</ele><time>2026-04-18T09:42:55.28Z</time></trkpt><trkpt lat="43.99759" lon="11.2422533"><ele>264.0</ele><time>2026-04-18T09:42:56.281Z</time></trkpt><trkpt lat="43.9977117" lon="11.24229"><ele>264.0</ele><time>2026-04-18T09:42:57.281Z</time></trkpt><trkpt lat="43.9978417" lon="11.2423333"><ele>264.0</ele><time>2026-04-18T09:42:58.281Z</time></trkpt><trkpt lat="43.9979717" lon="11.24238"><ele>264.0</ele><time>2026-04-18T09:42:59.279Z</time></trkpt><trkpt lat="43.9981067" lon="11.242435"><ele>264.0</ele><time>2026-04-18T09:43:00.281Z</time></trkpt><trkpt lat="43.9982367" lon="11.24249"><ele>264.0</ele><time>2026-04-18T09:43:01.281Z</time></trkpt><trkpt lat="43.9983633" lon="11.2425533"><ele>264.0</ele><time>2026-04-18T09:43:02.281Z</time></trkpt><trkpt lat="43.9985" lon="11.2426233"><ele>264.0</ele><time>2026-04-18T09:43:03.279Z</time></trkpt><trkpt lat="43.9986367" lon="11.242685"><ele>265.0</ele><time>2026-04-18T09:43:04.281Z</time></trkpt><trkpt lat="43.9987783" lon="11.2427517"><ele>266.0</ele><time>2026-04-18T09:43:05.28Z</time></trkpt><trkpt lat="43.99892" lon="11.2428133"><ele>267.0</ele><time>2026-04-18T09:43:06.281Z</time></trkpt><trkpt lat="43.9990633" lon="11.2428717"><ele>268.0</ele><time>2026-04-18T09:43:07.281Z</time></trkpt><trkpt lat="43.9992033" lon="11.2429367"><ele>268.0</ele><time>2026-04-18T09:43:08.281Z</time></trkpt><trkpt lat="43.999325" lon="11.2429767"><ele>268.0</ele><time>2026-04-18T09:43:09.281Z</time></trkpt><trkpt lat="43.9994267" lon="11.24302"><ele>268.0</ele><time>2026-04-18T09:43:10.281Z</time></trkpt><trkpt lat="43.99952" lon="11.243065"><ele>268.0</ele><time>2026-04-18T09:43:11.282Z</time></trkpt><trkpt lat="43.9995967" lon="11.2431283"><ele>268.0</ele><time>2026-04-18T09:43:12.28Z</time></trkpt><trkpt lat="43.9996617" lon="11.2432067"><ele>268.2</ele><time>2026-04-18T09:43:13.281Z</time></trkpt><trkpt lat="43.9997267" lon="11.2432967"><ele>268.4</ele><time>2026-04-18T09:43:14.28Z</time></trkpt><trkpt lat="43.99979" lon="11.2433567"><ele>268.59999999999997</ele><time>2026-04-18T09:43:15.28Z</time></trkpt><trkpt lat="43.9998667" lon="11.24338"><ele>268.8</ele><time>2026-04-18T09:43:16.28Z</time></trkpt><trkpt lat="43.9999733" lon="11.2433733"><ele>269.0</ele><time>2026-04-18T09:43:17.279Z</time></trkpt><trkpt lat="44.000085" lon="11.2433967"><ele>269.0</ele><time>2026-04-18T09:43:18.281Z</time></trkpt><trkpt lat="44.0002183" lon="11.243445"><ele>269.0</ele><time>2026-04-18T09:43:19.278Z</time></trkpt><trkpt lat="44.000375" lon="11.2435067"><ele>269.0</ele><time>2026-04-18T09:43:20.28Z</time></trkpt><trkpt lat="44.000545" lon="11.2435617"><ele>269.0</ele><time>2026-04-18T09:43:21.281Z</time></trkpt><trkpt lat="44.0007317" lon="11.24359"><ele>269.0</ele><time>2026-04-18T09:43:22.281Z</time></trkpt><trkpt lat="44.00092" lon="11.243585"><ele>269.0</ele><time>2026-04-18T09:43:23.28Z</time></trkpt><trkpt lat="44.0011033" lon="11.2435533"><ele>270.0</ele><time>2026-04-18T09:43:24.282Z</time></trkpt><trkpt lat="44.0012833" lon="11.2434967"><ele>271.0</ele><time>2026-04-18T09:43:25.283Z</time></trkpt><trkpt lat="44.0014533" lon="11.2434033"><ele>272.0</ele><time>2026-04-18T09:43:26.28Z</time></trkpt><trkpt lat="44.0016233" lon="11.2433033"><ele>271.0</ele><time>2026-04-18T09:43:27.28Z</time></trkpt><trkpt lat="44.001785" lon="11.2431917"><ele>270.0</ele><time>2026-04-18T09:43:28.279Z</time></trkpt><trkpt lat="44.0019433" lon="11.24308"><ele>269.0</ele><time>2026-04-18T09:43:29.28Z</time></trkpt><trkpt lat="44.0021017" lon="11.242965"><ele>269.0</ele><time>2026-04-18T09:43:30.281Z</time></trkpt><trkpt lat="44.00226" lon="11.24286"><ele>269.0</ele><time>2026-04-18T09:43:31.28Z</time></trkpt><trkpt lat="44.0024167" lon="11.2427467"><ele>269.0</ele><time>2026-04-18T09:43:32.281Z</time></trkpt><trkpt lat="44.002575" lon="11.242645"><ele>271.0</ele><time>2026-04-18T09:43:33.28Z</time></trkpt><trkpt lat="44.0027367" lon="11.2425417"><ele>273.0</ele><time>2026-04-18T09:43:34.281Z</time></trkpt><trkpt lat="44.0029017" lon="11.2424317"><ele>275.0</ele><time>2026-04-18T09:43:35.279Z</time></trkpt><trkpt lat="44.003065" lon="11.2423133"><ele>275.0</ele><time>2026-04-18T09:43:36.281Z</time></trkpt><trkpt lat="44.003225" lon="11.242185"><ele>275.0</ele><time>2026-04-18T09:43:37.279Z</time></trkpt><trkpt lat="44.0033767" lon="11.2420433"><ele>275.0</ele><time>2026-04-18T09:43:38.282Z</time></trkpt><trkpt lat="44.0035267" lon="11.2418683"><ele>275.0</ele><time>2026-04-18T09:43:39.281Z</time></trkpt><trkpt lat="44.0036633" lon="11.24166"><ele>275.0</ele><time>2026-04-18T09:43:40.283Z</time></trkpt><trkpt lat="44.003795" lon="11.2414433"><ele>275.0</ele><time>2026-04-18T09:43:41.281Z</time></trkpt><trkpt lat="44.0039233" lon="11.2412317"><ele>274.6666666666667</ele><time>2026-04-18T09:43:42.281Z</time></trkpt><trkpt lat="44.004045" lon="11.2410333"><ele>274.3333333333333</ele><time>2026-04-18T09:43:43.281Z</time></trkpt><trkpt lat="44.0041717" lon="11.2408433"><ele>274.0</ele><time>2026-04-18T09:43:44.284Z</time></trkpt><trkpt lat="44.0042967" lon="11.24066"><ele>274.3333333333333</ele><time>2026-04-18T09:43:45.28Z</time></trkpt><trkpt lat="44.004425" lon="11.2405"><ele>274.6666666666667</ele><time>2026-04-18T09:43:46.28Z</time></trkpt><trkpt lat="44.004565" lon="11.2403583"><ele>275.0</ele><time>2026-04-18T09:43:47.28Z</time></trkpt><trkpt lat="44.0047133" lon="11.240245"><ele>275.0</ele><time>2026-04-18T09:43:48.278Z</time></trkpt><trkpt lat="44.0048783" lon="11.2401567"><ele>275.0</ele><time>2026-04-18T09:43:49.28Z</time></trkpt><trkpt lat="44.0050517" lon="11.2400933"><ele>275.0</ele><time>2026-04-18T09:43:50.279Z</time></trkpt><trkpt lat="44.0052317" lon="11.2400517"><ele>276.0</ele><time>2026-04-18T09:43:51.279Z</time></trkpt><trkpt lat="44.005415" lon="11.2400383"><ele>277.0</ele><time>2026-04-18T09:43:52.278Z</time></trkpt><trkpt lat="44.0056017" lon="11.240055"><ele>278.0</ele><time>2026-04-18T09:43:53.279Z</time></trkpt><trkpt lat="44.0057917" lon="11.2400867"><ele>278.6666666666667</ele><time>2026-04-18T09:43:54.279Z</time></trkpt><trkpt lat="44.00598" lon="11.2401217"><ele>279.3333333333333</ele><time>2026-04-18T09:43:55.278Z</time></trkpt><trkpt lat="44.006165" lon="11.240155"><ele>280.0</ele><time>2026-04-18T09:43:56.282Z</time></trkpt><trkpt lat="44.0063467" lon="11.2401917"><ele>280.0</ele><time>2026-04-18T09:43:57.279Z</time></trkpt><trkpt lat="44.0065283" lon="11.2402383"><ele>280.0</ele><time>2026-04-18T09:43:58.28Z</time></trkpt><trkpt lat="44.0067067" lon="11.24028"><ele>280.0</ele><time>2026-04-18T09:43:59.28Z</time></trkpt><trkpt lat="44.0068767" lon="11.240315"><ele>279.0</ele><time>2026-04-18T09:44:00.28Z</time></trkpt><trkpt lat="44.007045" lon="11.2403467"><ele>278.0</ele><time>2026-04-18T09:44:01.281Z</time></trkpt><trkpt lat="44.00721" lon="11.2403817"><ele>277.0</ele><time>2026-04-18T09:44:02.281Z</time></trkpt><trkpt lat="44.0073733" lon="11.24042"><ele>277.66666666666663</ele><time>2026-04-18T09:44:03.279Z</time></trkpt><trkpt lat="44.0075367" lon="11.2404617"><ele>278.3333333333333</ele><time>2026-04-18T09:44:04.28Z</time></trkpt><trkpt lat="44.0077017" lon="11.2404917"><ele>279.0</ele><time>2026-04-18T09:44:05.279Z</time></trkpt><trkpt lat="44.0078717" lon="11.240505"><ele>279.0</ele><time>2026-04-18T09:44:06.281Z</time></trkpt><trkpt lat="44.0080483" lon="11.2405"><ele>279.0</ele><time>2026-04-18T09:44:07.28Z</time></trkpt><trkpt lat="44.0082283" lon="11.2404733"><ele>279.0</ele><time>2026-04-18T09:44:08.279Z</time></trkpt><trkpt lat="44.0084167" lon="11.2404233"><ele>279.0</ele><time>2026-04-18T09:44:09.28Z</time></trkpt><trkpt lat="44.008615" lon="11.2403633"><ele>279.0</ele><time>2026-04-18T09:44:10.28Z</time></trkpt><trkpt lat="44.00881" lon="11.2402933"><ele>279.0</ele><time>2026-04-18T09:44:11.28Z</time></trkpt><trkpt lat="44.0089967" lon="11.240185"><ele>279.3333333333333</ele><time>2026-04-18T09:44:12.28Z</time></trkpt><trkpt lat="44.0091783" lon="11.2400633"><ele>279.66666666666663</ele><time>2026-04-18T09:44:13.279Z</time></trkpt><trkpt lat="44.0093533" lon="11.2399233"><ele>280.0</ele><time>2026-04-18T09:44:14.279Z</time></trkpt><trkpt lat="44.0095217" lon="11.2397733"><ele>280.0</ele><time>2026-04-18T09:44:15.28Z</time></trkpt><trkpt lat="44.009685" lon="11.2396017"><ele>280.0</ele><time>2026-04-18T09:44:16.278Z</time></trkpt><trkpt lat="44.0098417" lon="11.2394233"><ele>280.0</ele><time>2026-04-18T09:44:17.28Z</time></trkpt><trkpt lat="44.0099983" lon="11.2392517"><ele>280.0</ele><time>2026-04-18T09:44:18.281Z</time></trkpt><trkpt lat="44.0101533" lon="11.23908"><ele>280.0</ele><time>2026-04-18T09:44:19.281Z</time></trkpt><trkpt lat="44.0103067" lon="11.238905"><ele>280.0</ele><time>2026-04-18T09:44:20.279Z</time></trkpt><trkpt lat="44.010455" lon="11.238735"><ele>280.0</ele><time>2026-04-18T09:44:21.279Z</time></trkpt><trkpt lat="44.010595" lon="11.2385783"><ele>280.0</ele><time>2026-04-18T09:44:22.278Z</time></trkpt><trkpt lat="44.0107217" lon="11.2384317"><ele>280.0</ele><time>2026-04-18T09:44:23.279Z</time></trkpt><trkpt lat="44.0108483" lon="11.238295"><ele>280.5</ele><time>2026-04-18T09:44:24.28Z</time></trkpt><trkpt lat="44.0109733" lon="11.23817"><ele>281.0</ele><time>2026-04-18T09:44:25.279Z</time></trkpt><trkpt lat="44.0110817" lon="11.2380517"><ele>281.5</ele><time>2026-04-18T09:44:26.279Z</time></trkpt><trkpt lat="44.0111883" lon="11.2379467"><ele>282.0</ele><time>2026-04-18T09:44:27.28Z</time></trkpt><trkpt lat="44.0112833" lon="11.2378583"><ele>282.2</ele><time>2026-04-18T09:44:28.281Z</time></trkpt><trkpt lat="44.011365" lon="11.2377883"><ele>282.4</ele><time>2026-04-18T09:44:29.28Z</time></trkpt><trkpt lat="44.01144" lon="11.2377267"><ele>282.6</ele><time>2026-04-18T09:44:30.28Z</time></trkpt><trkpt lat="44.0115217" lon="11.2376717"><ele>282.8</ele><time>2026-04-18T09:44:31.281Z</time></trkpt><trkpt lat="44.0116033" lon="11.2376117"><ele>283.0</ele><time>2026-04-18T09:44:32.28Z</time></trkpt><trkpt lat="44.0117083" lon="11.237535"><ele>283.3333333333333</ele><time>2026-04-18T09:44:33.28Z</time></trkpt><trkpt lat="44.0118467" lon="11.2374217"><ele>283.6666666666667</ele><time>2026-04-18T09:44:34.28Z</time></trkpt><trkpt lat="44.0120067" lon="11.2373033"><ele>284.0</ele><time>2026-04-18T09:44:35.281Z</time></trkpt><trkpt lat="44.0121633" lon="11.23719"><ele>284.0</ele><time>2026-04-18T09:44:36.283Z</time></trkpt><trkpt lat="44.012325" lon="11.23708"><ele>284.0</ele><time>2026-04-18T09:44:37.28Z</time></trkpt><trkpt lat="44.0124983" lon="11.2369683"><ele>284.0</ele><time>2026-04-18T09:44:38.28Z</time></trkpt><trkpt lat="44.0126867" lon="11.2368617"><ele>284.6666666666667</ele><time>2026-04-18T09:44:39.279Z</time></trkpt><trkpt lat="44.0128967" lon="11.2367667"><ele>285.3333333333333</ele><time>2026-04-18T09:44:40.28Z</time></trkpt><trkpt lat="44.0131067" lon="11.2366667"><ele>286.0</ele><time>2026-04-18T09:44:41.281Z</time></trkpt><trkpt lat="44.0133233" lon="11.236555"><ele>286.0</ele><time>2026-04-18T09:44:42.28Z</time></trkpt><trkpt lat="44.0135233" lon="11.2364267"><ele>286.0</ele><time>2026-04-18T09:44:43.279Z</time></trkpt><trkpt lat="44.0137017" lon="11.236305"><ele>286.0</ele><time>2026-04-18T09:44:44.282Z</time></trkpt><trkpt lat="44.01388" lon="11.2362017"><ele>286.0</ele><time>2026-04-18T09:44:45.28Z</time></trkpt><trkpt lat="44.0140667" lon="11.2361283"><ele>286.0</ele><time>2026-04-18T09:44:46.28Z</time></trkpt><trkpt lat="44.014265" lon="11.236075"><ele>286.0</ele><time>2026-04-18T09:44:47.279Z</time></trkpt><trkpt lat="44.0144733" lon="11.2360333"><ele>287.0</ele><time>2026-04-18T09:44:48.28Z</time></trkpt><trkpt lat="44.014685" lon="11.2359967"><ele>288.0</ele><time>2026-04-18T09:44:49.28Z</time></trkpt><trkpt lat="44.0149017" lon="11.2359767"><ele>289.0</ele><time>2026-04-18T09:44:50.279Z</time></trkpt><trkpt lat="44.015125" lon="11.2359583"><ele>291.3333333333333</ele><time>2026-04-18T09:44:51.279Z</time></trkpt><trkpt lat="44.0153417" lon="11.2359783"><ele>293.6666666666667</ele><time>2026-04-18T09:44:52.279Z</time></trkpt><trkpt lat="44.0155433" lon="11.2360033"><ele>296.0</ele><time>2026-04-18T09:44:53.281Z</time></trkpt><trkpt lat="44.0157283" lon="11.23605"><ele>296.0</ele><time>2026-04-18T09:44:54.281Z</time></trkpt><trkpt lat="44.0158867" lon="11.2361067"><ele>296.0</ele><time>2026-04-18T09:44:55.279Z</time></trkpt><trkpt lat="44.016015" lon="11.2361817"><ele>296.0</ele><time>2026-04-18T09:44:56.281Z</time></trkpt><trkpt lat="44.01612" lon="11.23629"><ele>296.0</ele><time>2026-04-18T09:44:57.28Z</time></trkpt><trkpt lat="44.016205" lon="11.23643"><ele>302.0</ele><time>2026-04-18T09:44:58.28Z</time></trkpt><trkpt lat="44.0162967" lon="11.2365833"><ele>308.0</ele><time>2026-04-18T09:44:59.28Z</time></trkpt><trkpt lat="44.016405" lon="11.2367417"><ele>314.0</ele><time>2026-04-18T09:45:00.28Z</time></trkpt><trkpt lat="44.0165517" lon="11.23688"><ele>309.6666666666667</ele><time>2026-04-18T09:45:01.281Z</time></trkpt><trkpt lat="44.0167367" lon="11.2369817"><ele>305.3333333333333</ele><time>2026-04-18T09:45:02.28Z</time></trkpt><trkpt lat="44.0169417" lon="11.237085"><ele>301.0</ele><time>2026-04-18T09:45:03.281Z</time></trkpt><trkpt lat="44.0171533" lon="11.2371883"><ele>301.0</ele><time>2026-04-18T09:45:04.28Z</time></trkpt><trkpt lat="44.0173633" lon="11.2372833"><ele>301.0</ele><time>2026-04-18T09:45:05.279Z</time></trkpt><trkpt lat="44.0175617" lon="11.2373783"><ele>301.0</ele><time>2026-04-18T09:45:06.28Z</time></trkpt><trkpt lat="44.01775" lon="11.2374733"><ele>305.5</ele><time>2026-04-18T09:45:07.279Z</time></trkpt><trkpt lat="44.0178933" lon="11.2375483"><ele>310.0</ele><time>2026-04-18T09:45:08.28Z</time></trkpt><trkpt lat="44.0180083" lon="11.237615"><ele>314.5</ele><time>2026-04-18T09:45:09.28Z</time></trkpt><trkpt lat="44.0180867" lon="11.2377067"><ele>319.0</ele><time>2026-04-18T09:45:10.28Z</time></trkpt><trkpt lat="44.0181383" lon="11.237825"><ele>319.0</ele><time>2026-04-18T09:45:11.281Z</time></trkpt><trkpt lat="44.01816" lon="11.2379717"><ele>319.0</ele><time>2026-04-18T09:45:12.28Z</time></trkpt><trkpt lat="44.0181633" lon="11.2381483"><ele>319.0</ele><time>2026-04-18T09:45:13.279Z</time></trkpt><trkpt lat="44.0181517" lon="11.2383333"><ele>319.0</ele><time>2026-04-18T09:45:14.28Z</time></trkpt><trkpt lat="44.0181667" lon="11.2385333"><ele>320.25</ele><time>2026-04-18T09:45:15.279Z</time></trkpt><trkpt lat="44.0182083" lon="11.238715"><ele>321.5</ele><time>2026-04-18T09:45:16.281Z</time></trkpt><trkpt lat="44.0182617" lon="11.23888"><ele>322.75</ele><time>2026-04-18T09:45:17.281Z</time></trkpt><trkpt lat="44.01834" lon="11.2390233"><ele>324.0</ele><time>2026-04-18T09:45:18.28Z</time></trkpt><trkpt lat="44.0184517" lon="11.2391367"><ele>324.0</ele><time>2026-04-18T09:45:19.279Z</time></trkpt><trkpt lat="44.0186017" lon="11.239205"><ele>324.0</ele><time>2026-04-18T09:45:20.282Z</time></trkpt><trkpt lat="44.0187317" lon="11.239265"><ele>324.0</ele><time>2026-04-18T09:45:21.28Z</time></trkpt><trkpt lat="44.0188583" lon="11.2392917"><ele>324.0</ele><time>2026-04-18T09:45:22.279Z</time></trkpt><trkpt lat="44.0189867" lon="11.2392767"><ele>324.0</ele><time>2026-04-18T09:45:23.28Z</time></trkpt><trkpt lat="44.0191" lon="11.2392417"><ele>324.0</ele><time>2026-04-18T09:45:24.282Z</time></trkpt><trkpt lat="44.019205" lon="11.239195"><ele>324.0</ele><time>2026-04-18T09:45:25.28Z</time></trkpt><trkpt lat="44.0192933" lon="11.2390217"><ele>324.0</ele><time>2026-04-18T09:45:26.281Z</time></trkpt><trkpt lat="44.019375" lon="11.2388717"><ele>322.0</ele><time>2026-04-18T09:45:27.279Z</time></trkpt><trkpt lat="44.019455" lon="11.2387117"><ele>320.0</ele><time>2026-04-18T09:45:28.281Z</time></trkpt><trkpt lat="44.0195683" lon="11.2385967"><ele>318.0</ele><time>2026-04-18T09:45:29.28Z</time></trkpt><trkpt lat="44.01969" lon="11.2385267"><ele>316.0</ele><time>2026-04-18T09:45:30.279Z</time></trkpt><trkpt lat="44.0198033" lon="11.2384867"><ele>316.0</ele><time>2026-04-18T09:45:31.28Z</time></trkpt><trkpt lat="44.0199083" lon="11.23847"><ele>316.0</ele><time>2026-04-18T09:45:32.28Z</time></trkpt><trkpt lat="44.0199967" lon="11.238445"><ele>316.0</ele><time>2026-04-18T09:45:33.278Z</time></trkpt><trkpt lat="44.020075" lon="11.2384217"><ele>316.0</ele><time>2026-04-18T09:45:34.28Z</time></trkpt><trkpt lat="44.0201417" lon="11.2383717"><ele>316.0</ele><time>2026-04-18T09:45:35.28Z</time></trkpt><trkpt lat="44.0202083" lon="11.238325"><ele>316.0</ele><time>2026-04-18T09:45:36.279Z</time></trkpt><trkpt lat="44.0202717" lon="11.238275"><ele>315.16666666666663</ele><time>2026-04-18T09:45:37.28Z</time></trkpt><trkpt lat="44.02033" lon="11.238215"><ele>314.3333333333333</ele><time>2026-04-18T09:45:38.284Z</time></trkpt><trkpt lat="44.020385" lon="11.23816"><ele>313.5</ele><time>2026-04-18T09:45:39.279Z</time></trkpt><trkpt lat="44.0204617" lon="11.2380583"><ele>312.6666666666667</ele><time>2026-04-18T09:45:41.28Z</time></trkpt><trkpt lat="44.0205217" lon="11.23797"><ele>311.83333333333337</ele><time>2026-04-18T09:45:44.282Z</time></trkpt><trkpt lat="44.02061" lon="11.2379"><ele>311.0</ele><time>2026-04-18T09:45:46.281Z</time></trkpt><trkpt lat="44.020695" lon="11.23787"><ele>311.0</ele><time>2026-04-18T09:45:47.279Z</time></trkpt><trkpt lat="44.0207917" lon="11.23789"><ele>311.0</ele><time>2026-04-18T09:45:48.279Z</time></trkpt><trkpt lat="44.0208883" lon="11.237975"><ele>311.0</ele><time>2026-04-18T09:45:49.279Z</time></trkpt><trkpt lat="44.0209783" lon="11.2380833"><ele>311.0</ele><time>2026-04-18T09:45:50.281Z</time></trkpt><trkpt lat="44.0210783" lon="11.2382167"><ele>318.0</ele><time>2026-04-18T09:45:51.28Z</time></trkpt><trkpt lat="44.021195" lon="11.2383383"><ele>325.0</ele><time>2026-04-18T09:45:52.28Z</time></trkpt><trkpt lat="44.02132" lon="11.2384067"><ele>332.0</ele><time>2026-04-18T09:45:53.279Z</time></trkpt><trkpt lat="44.021455" lon="11.2384633"><ele>339.0</ele><time>2026-04-18T09:45:54.282Z</time></trkpt><trkpt lat="44.02159" lon="11.238485"><ele>339.25</ele><time>2026-04-18T09:45:55.281Z</time></trkpt><trkpt lat="44.021715" lon="11.238525"><ele>339.5</ele><time>2026-04-18T09:45:56.278Z</time></trkpt><trkpt lat="44.02184" lon="11.2385833"><ele>339.75</ele><time>2026-04-18T09:45:57.278Z</time></trkpt><trkpt lat="44.0219833" lon="11.2386267"><ele>340.0</ele><time>2026-04-18T09:45:58.281Z</time></trkpt><trkpt lat="44.0221133" lon="11.2386233"><ele>340.0</ele><time>2026-04-18T09:45:59.28Z</time></trkpt><trkpt lat="44.0222517" lon="11.2385517"><ele>340.0</ele><time>2026-04-18T09:46:00.281Z</time></trkpt><trkpt lat="44.022385" lon="11.2384717"><ele>340.0</ele><time>2026-04-18T09:46:01.279Z</time></trkpt><trkpt lat="44.022535" lon="11.2384183"><ele>340.0</ele><time>2026-04-18T09:46:02.281Z</time></trkpt><trkpt lat="44.022695" lon="11.2384283"><ele>340.0</ele><time>2026-04-18T09:46:03.281Z</time></trkpt><trkpt lat="44.0228617" lon="11.2384917"><ele>340.0</ele><time>2026-04-18T09:46:04.279Z</time></trkpt><trkpt lat="44.02303" lon="11.2385783"><ele>340.0</ele><time>2026-04-18T09:46:05.28Z</time></trkpt><trkpt lat="44.023185" lon="11.238685"><ele>343.25</ele><time>2026-04-18T09:46:06.28Z</time></trkpt><trkpt lat="44.0233167" lon="11.2387967"><ele>346.5</ele><time>2026-04-18T09:46:07.282Z</time></trkpt><trkpt lat="44.023415" lon="11.2389483"><ele>349.75</ele><time>2026-04-18T09:46:08.281Z</time></trkpt><trkpt lat="44.0235083" lon="11.2390933"><ele>353.0</ele><time>2026-04-18T09:46:09.281Z</time></trkpt><trkpt lat="44.0236067" lon="11.2392283"><ele>353.0</ele><time>2026-04-18T09:46:10.282Z</time></trkpt><trkpt lat="44.0237083" lon="11.23932"><ele>353.0</ele><time>2026-04-18T09:46:11.28Z</time></trkpt><trkpt lat="44.02385" lon="11.2393567"><ele>353.0</ele><time>2026-04-18T09:46:12.281Z</time></trkpt><trkpt lat="44.023995" lon="11.2394167"><ele>353.0</ele><time>2026-04-18T09:46:13.281Z</time></trkpt><trkpt lat="44.024145" lon="11.2395317"><ele>348.6666666666667</ele><time>2026-04-18T09:46:14.279Z</time></trkpt><trkpt lat="44.0243017" lon="11.2396833"><ele>344.3333333333333</ele><time>2026-04-18T09:46:15.279Z</time></trkpt><trkpt lat="44.024485" lon="11.23984"><ele>340.0</ele><time>2026-04-18T09:46:16.28Z</time></trkpt><trkpt lat="44.0246733" lon="11.2399867"><ele>343.3333333333333</ele><time>2026-04-18T09:46:17.28Z</time></trkpt><trkpt lat="44.0248383" lon="11.2401433"><ele>346.6666666666667</ele><time>2026-04-18T09:46:18.28Z</time></trkpt><trkpt lat="44.0249767" lon="11.2403233"><ele>350.0</ele><time>2026-04-18T09:46:19.28Z</time></trkpt><trkpt lat="44.0250817" lon="11.240545"><ele>359.6666666666667</ele><time>2026-04-18T09:46:20.28Z</time></trkpt><trkpt lat="44.0251683" lon="11.2407683"><ele>369.3333333333333</ele><time>2026-04-18T09:46:21.28Z</time></trkpt><trkpt lat="44.0252367" lon="11.240955"><ele>379.0</ele><time>2026-04-18T09:46:22.278Z</time></trkpt><trkpt lat="44.0253" lon="11.2411"><ele>379.0</ele><time>2026-04-18T09:46:23.28Z</time></trkpt><trkpt lat="44.025375" lon="11.2412083"><ele>379.0</ele><time>2026-04-18T09:46:24.28Z</time></trkpt><trkpt lat="44.02545" lon="11.2412783"><ele>379.0</ele><time>2026-04-18T09:46:25.281Z</time></trkpt><trkpt lat="44.025555" lon="11.2412683"><ele>379.0</ele><time>2026-04-18T09:46:26.281Z</time></trkpt><trkpt lat="44.0256617" lon="11.241205"><ele>379.0</ele><time>2026-04-18T09:46:27.278Z</time></trkpt><trkpt lat="44.025765" lon="11.241015"><ele>374.75</ele><time>2026-04-18T09:46:28.281Z</time></trkpt><trkpt lat="44.025875" lon="11.2408683"><ele>370.5</ele><time>2026-04-18T09:46:29.282Z</time></trkpt><trkpt lat="44.0260117" lon="11.2407783"><ele>366.25</ele><time>2026-04-18T09:46:30.281Z</time></trkpt><trkpt lat="44.026155" lon="11.2407633"><ele>362.0</ele><time>2026-04-18T09:46:31.28Z</time></trkpt><trkpt lat="44.0263267" lon="11.2407833"><ele>362.0</ele><time>2026-04-18T09:46:32.282Z</time></trkpt><trkpt lat="44.0265117" lon="11.240815"><ele>362.0</ele><time>2026-04-18T09:46:33.283Z</time></trkpt><trkpt lat="44.02669" lon="11.240855"><ele>362.0</ele><time>2026-04-18T09:46:34.28Z</time></trkpt><trkpt lat="44.0268633" lon="11.2409383"><ele>362.33333333333337</ele><time>2026-04-18T09:46:35.281Z</time></trkpt><trkpt lat="44.02702" lon="11.2410583"><ele>362.6666666666667</ele><time>2026-04-18T09:46:36.279Z</time></trkpt><trkpt lat="44.02715" lon="11.2412233"><ele>363.0</ele><time>2026-04-18T09:46:37.281Z</time></trkpt><trkpt lat="44.02727" lon="11.2414033"><ele>365.0</ele><time>2026-04-18T09:46:38.282Z</time></trkpt><trkpt lat="44.0273767" lon="11.241645"><ele>367.0</ele><time>2026-04-18T09:46:39.28Z</time></trkpt><trkpt lat="44.027495" lon="11.2419"><ele>369.0</ele><time>2026-04-18T09:46:40.282Z</time></trkpt><trkpt lat="44.02761" lon="11.24216"><ele>374.0</ele><time>2026-04-18T09:46:41.281Z</time></trkpt><trkpt lat="44.0277133" lon="11.2424133"><ele>379.0</ele><time>2026-04-18T09:46:42.281Z</time></trkpt><trkpt lat="44.0277933" lon="11.242655"><ele>384.0</ele><time>2026-04-18T09:46:43.281Z</time></trkpt><trkpt lat="44.0278533" lon="11.2428783"><ele>384.0</ele><time>2026-04-18T09:46:44.283Z</time></trkpt><trkpt lat="44.027905" lon="11.2430617"><ele>384.0</ele><time>2026-04-18T09:46:45.281Z</time></trkpt><trkpt lat="44.027965" lon="11.24319"><ele>384.0</ele><time>2026-04-18T09:46:46.28Z</time></trkpt><trkpt lat="44.028055" lon="11.2432317"><ele>384.0</ele><time>2026-04-18T09:46:47.28Z</time></trkpt><trkpt lat="44.0281733" lon="11.24326"><ele>382.5</ele><time>2026-04-18T09:46:48.281Z</time></trkpt><trkpt lat="44.0282867" lon="11.2433567"><ele>381.0</ele><time>2026-04-18T09:46:49.282Z</time></trkpt><trkpt lat="44.0283933" lon="11.2435"><ele>379.5</ele><time>2026-04-18T09:46:50.281Z</time></trkpt><trkpt lat="44.0284833" lon="11.2436867"><ele>378.0</ele><time>2026-04-18T09:46:51.281Z</time></trkpt><trkpt lat="44.0285383" lon="11.2439267"><ele>385.0</ele><time>2026-04-18T09:46:52.281Z</time></trkpt><trkpt lat="44.0285883" lon="11.2441717"><ele>392.0</ele><time>2026-04-18T09:46:53.281Z</time></trkpt><trkpt lat="44.028635" lon="11.2444183"><ele>399.0</ele><time>2026-04-18T09:46:54.281Z</time></trkpt><trkpt lat="44.028695" lon="11.2446417"><ele>403.5</ele><time>2026-04-18T09:46:55.281Z</time></trkpt><trkpt lat="44.0287533" lon="11.244835"><ele>408.0</ele><time>2026-04-18T09:46:56.282Z</time></trkpt><trkpt lat="44.0288383" lon="11.24499"><ele>412.5</ele><time>2026-04-18T09:46:57.28Z</time></trkpt><trkpt lat="44.0289383" lon="11.2450817"><ele>417.0</ele><time>2026-04-18T09:46:58.281Z</time></trkpt><trkpt lat="44.02906" lon="11.2451117"><ele>412.0</ele><time>2026-04-18T09:46:59.281Z</time></trkpt><trkpt lat="44.02922" lon="11.245095"><ele>407.0</ele><time>2026-04-18T09:47:00.283Z</time></trkpt><trkpt lat="44.0293617" lon="11.24499"><ele>402.0</ele><time>2026-04-18T09:47:01.283Z</time></trkpt><trkpt lat="44.0295" lon="11.2446533"><ele>394.6666666666667</ele><time>2026-04-18T09:47:02.282Z</time></trkpt><trkpt lat="44.0296183" lon="11.2444033"><ele>387.33333333333337</ele><time>2026-04-18T09:47:03.282Z</time></trkpt><trkpt lat="44.0297233" lon="11.24418"><ele>380.0</ele><time>2026-04-18T09:47:04.281Z</time></trkpt><trkpt lat="44.0298333" lon="11.2440167"><ele>376.25</ele><time>2026-04-18T09:47:05.279Z</time></trkpt><trkpt lat="44.029945" lon="11.2439433"><ele>372.5</ele><time>2026-04-18T09:47:06.28Z</time></trkpt><trkpt lat="44.0300733" lon="11.2439467"><ele>368.75</ele><time>2026-04-18T09:47:07.281Z</time></trkpt><trkpt lat="44.03021" lon="11.2440033"><ele>365.0</ele><time>2026-04-18T09:47:08.282Z</time></trkpt><trkpt lat="44.0303483" lon="11.244075"><ele>372.0</ele><time>2026-04-18T09:47:09.279Z</time></trkpt><trkpt lat="44.0305083" lon="11.2442083"><ele>379.0</ele><time>2026-04-18T09:47:10.281Z</time></trkpt><trkpt lat="44.030715" lon="11.2443717"><ele>386.0</ele><time>2026-04-18T09:47:11.281Z</time></trkpt><trkpt lat="44.0309067" lon="11.244485"><ele>386.0</ele><time>2026-04-18T09:47:12.281Z</time></trkpt><trkpt lat="44.03107" lon="11.2446283"><ele>386.0</ele><time>2026-04-18T09:47:13.279Z</time></trkpt><trkpt lat="44.0312033" lon="11.2448033"><ele>386.0</ele><time>2026-04-18T09:47:14.281Z</time></trkpt><trkpt lat="44.0313" lon="11.2449633"><ele>390.25</ele><time>2026-04-18T09:47:15.28Z</time></trkpt><trkpt lat="44.03138" lon="11.2451017"><ele>394.5</ele><time>2026-04-18T09:47:16.278Z</time></trkpt><trkpt lat="44.0314683" lon="11.2451933"><ele>398.75</ele><time>2026-04-18T09:47:17.279Z</time></trkpt><trkpt lat="44.0315633" lon="11.2451967"><ele>403.0</ele><time>2026-04-18T09:47:18.283Z</time></trkpt><trkpt lat="44.031685" lon="11.245115"><ele>403.0</ele><time>2026-04-18T09:47:19.28Z</time></trkpt><trkpt lat="44.0318133" lon="11.2450217"><ele>403.0</ele><time>2026-04-18T09:47:20.28Z</time></trkpt><trkpt lat="44.0319433" lon="11.2449733"><ele>403.0</ele><time>2026-04-18T09:47:21.281Z</time></trkpt><trkpt lat="44.0320833" lon="11.244995"><ele>403.0</ele><time>2026-04-18T09:47:22.279Z</time></trkpt><trkpt lat="44.0322283" lon="11.245085"><ele>403.0</ele><time>2026-04-18T09:47:23.282Z</time></trkpt><trkpt lat="44.0323667" lon="11.2452417"><ele>403.0</ele><time>2026-04-18T09:47:24.28Z</time></trkpt><trkpt lat="44.0324967" lon="11.24544"><ele>403.0</ele><time>2026-04-18T09:47:25.28Z</time></trkpt><trkpt lat="44.0326233" lon="11.245635"><ele>408.6666666666667</ele><time>2026-04-18T09:47:26.279Z</time></trkpt><trkpt lat="44.0327483" lon="11.245835"><ele>414.33333333333337</ele><time>2026-04-18T09:47:27.281Z</time></trkpt><trkpt lat="44.032885" lon="11.2459833"><ele>420.0</ele><time>2026-04-18T09:47:28.28Z</time></trkpt><trkpt lat="44.0330167" lon="11.2460583"><ele>420.0</ele><time>2026-04-18T09:47:29.281Z</time></trkpt><trkpt lat="44.0331217" lon="11.2461067"><ele>420.0</ele><time>2026-04-18T09:47:30.279Z</time></trkpt><trkpt lat="44.033215" lon="11.2462083"><ele>420.0</ele><time>2026-04-18T09:47:31.282Z</time></trkpt><trkpt lat="44.0332967" lon="11.246345"><ele>420.0</ele><time>2026-04-18T09:47:32.279Z</time></trkpt><trkpt lat="44.03336" lon="11.246515"><ele>418.25</ele><time>2026-04-18T09:47:33.279Z</time></trkpt><trkpt lat="44.0334367" lon="11.2466683"><ele>416.5</ele><time>2026-04-18T09:47:34.279Z</time></trkpt><trkpt lat="44.03354" lon="11.246785"><ele>414.75</ele><time>2026-04-18T09:47:35.28Z</time></trkpt><trkpt lat="44.033675" lon="11.2469017"><ele>413.0</ele><time>2026-04-18T09:47:36.281Z</time></trkpt><trkpt lat="44.0338317" lon="11.2470283"><ele>413.0</ele><time>2026-04-18T09:47:37.279Z</time></trkpt><trkpt lat="44.0339933" lon="11.247135"><ele>413.0</ele><time>2026-04-18T09:47:38.279Z</time></trkpt><trkpt lat="44.0341467" lon="11.247215"><ele>413.0</ele><time>2026-04-18T09:47:39.279Z</time></trkpt><trkpt lat="44.0342783" lon="11.2472817"><ele>415.25</ele><time>2026-04-18T09:47:40.28Z</time></trkpt><trkpt lat="44.0343867" lon="11.24736"><ele>417.5</ele><time>2026-04-18T09:47:41.281Z</time></trkpt><trkpt lat="44.0344767" lon="11.247465"><ele>419.75</ele><time>2026-04-18T09:47:42.281Z</time></trkpt><trkpt lat="44.0345433" lon="11.2476017"><ele>422.0</ele><time>2026-04-18T09:47:43.28Z</time></trkpt><trkpt lat="44.0345967" lon="11.24774"><ele>422.0</ele><time>2026-04-18T09:47:44.281Z</time></trkpt><trkpt lat="44.0346417" lon="11.2478833"><ele>422.0</ele><time>2026-04-18T09:47:45.281Z</time></trkpt><trkpt lat="44.0346933" lon="11.2480133"><ele>422.0</ele><time>2026-04-18T09:47:46.28Z</time></trkpt><trkpt lat="44.03476" lon="11.24813"><ele>422.0</ele><time>2026-04-18T09:47:47.282Z</time></trkpt><trkpt lat="44.0348417" lon="11.2482233"><ele>422.0</ele><time>2026-04-18T09:47:48.28Z</time></trkpt><trkpt lat="44.0349183" lon="11.2482917"><ele>422.20000000000005</ele><time>2026-04-18T09:47:49.28Z</time></trkpt><trkpt lat="44.0350067" lon="11.2483383"><ele>422.4</ele><time>2026-04-18T09:47:50.28Z</time></trkpt><trkpt lat="44.0351017" lon="11.2483417"><ele>422.6</ele><time>2026-04-18T09:47:51.279Z</time></trkpt><trkpt lat="44.035205" lon="11.2483133"><ele>422.79999999999995</ele><time>2026-04-18T09:47:52.28Z</time></trkpt><trkpt lat="44.0353117" lon="11.2482767"><ele>423.0</ele><time>2026-04-18T09:47:53.279Z</time></trkpt><trkpt lat="44.035415" lon="11.248255"><ele>423.0</ele><time>2026-04-18T09:47:54.28Z</time></trkpt><trkpt lat="44.0355233" lon="11.2482583"><ele>423.0</ele><time>2026-04-18T09:47:55.282Z</time></trkpt><trkpt lat="44.0356317" lon="11.248285"><ele>423.0</ele><time>2026-04-18T09:47:56.281Z</time></trkpt><trkpt lat="44.0357367" lon="11.2483217"><ele>423.0</ele><time>2026-04-18T09:47:57.28Z</time></trkpt><trkpt lat="44.0358417" lon="11.2483617"><ele>423.0</ele><time>2026-04-18T09:47:58.281Z</time></trkpt><trkpt lat="44.0359483" lon="11.2484233"><ele>421.75</ele><time>2026-04-18T09:47:59.281Z</time></trkpt><trkpt lat="44.03605" lon="11.2485083"><ele>420.5</ele><time>2026-04-18T09:48:00.28Z</time></trkpt><trkpt lat="44.0361417" lon="11.248635"><ele>419.25</ele><time>2026-04-18T09:48:01.281Z</time></trkpt><trkpt lat="44.0362183" lon="11.2487683"><ele>418.0</ele><time>2026-04-18T09:48:02.28Z</time></trkpt><trkpt lat="44.0362817" lon="11.2488983"><ele>421.79999999999995</ele><time>2026-04-18T09:48:03.281Z</time></trkpt><trkpt lat="44.0363217" lon="11.2490283"><ele>425.6</ele><time>2026-04-18T09:48:04.281Z</time></trkpt><trkpt lat="44.0363383" lon="11.2491683"><ele>429.40000000000003</ele><time>2026-04-18T09:48:05.279Z</time></trkpt><trkpt lat="44.036345" lon="11.2493167"><ele>433.20000000000005</ele><time>2026-04-18T09:48:06.281Z</time></trkpt><trkpt lat="44.0363483" lon="11.2494783"><ele>437.0</ele><time>2026-04-18T09:48:07.279Z</time></trkpt><trkpt lat="44.03635" lon="11.24964"><ele>440.5</ele><time>2026-04-18T09:48:08.281Z</time></trkpt><trkpt lat="44.0363583" lon="11.2498133"><ele>444.0</ele><time>2026-04-18T09:48:09.28Z</time></trkpt><trkpt lat="44.0363767" lon="11.24998"><ele>447.5</ele><time>2026-04-18T09:48:10.278Z</time></trkpt><trkpt lat="44.036395" lon="11.25014"><ele>451.0</ele><time>2026-04-18T09:48:11.281Z</time></trkpt><trkpt lat="44.0364317" lon="11.25028"><ele>451.0</ele><time>2026-04-18T09:48:12.281Z</time></trkpt><trkpt lat="44.036475" lon="11.2504167"><ele>451.0</ele><time>2026-04-18T09:48:13.281Z</time></trkpt><trkpt lat="44.0365483" lon="11.2505167"><ele>451.0</ele><time>2026-04-18T09:48:14.281Z</time></trkpt><trkpt lat="44.0366467" lon="11.2505883"><ele>451.0</ele><time>2026-04-18T09:48:15.279Z</time></trkpt><trkpt lat="44.03676" lon="11.25061"><ele>451.0</ele><time>2026-04-18T09:48:16.281Z</time></trkpt><trkpt lat="44.0369133" lon="11.2506367"><ele>451.0</ele><time>2026-04-18T09:48:17.281Z</time></trkpt><trkpt lat="44.03709" lon="11.2506483"><ele>451.0</ele><time>2026-04-18T09:48:18.279Z</time></trkpt><trkpt lat="44.037255" lon="11.2506617"><ele>451.0</ele><time>2026-04-18T09:48:19.28Z</time></trkpt><trkpt lat="44.0374183" lon="11.2506067"><ele>442.25</ele><time>2026-04-18T09:48:20.281Z</time></trkpt><trkpt lat="44.037555" lon="11.2505417"><ele>433.5</ele><time>2026-04-18T09:48:21.28Z</time></trkpt><trkpt lat="44.0376767" lon="11.2505167"><ele>424.75</ele><time>2026-04-18T09:48:22.281Z</time></trkpt><trkpt lat="44.0377783" lon="11.2505383"><ele>416.0</ele><time>2026-04-18T09:48:23.28Z</time></trkpt><trkpt lat="44.0378433" lon="11.2506217"><ele>421.5</ele><time>2026-04-18T09:48:24.281Z</time></trkpt><trkpt lat="44.037865" lon="11.25074"><ele>427.0</ele><time>2026-04-18T09:48:25.28Z</time></trkpt><trkpt lat="44.037845" lon="11.2509"><ele>432.5</ele><time>2026-04-18T09:48:26.28Z</time></trkpt><trkpt lat="44.0378183" lon="11.2510833"><ele>438.0</ele><time>2026-04-18T09:48:27.28Z</time></trkpt><trkpt lat="44.0377667" lon="11.2512933"><ele>441.0</ele><time>2026-04-18T09:48:28.279Z</time></trkpt><trkpt lat="44.0376233" lon="11.2516067"><ele>444.0</ele><time>2026-04-18T09:48:29.281Z</time></trkpt><trkpt lat="44.0375367" lon="11.2518517"><ele>451.0</ele><time>2026-04-18T09:48:30.28Z</time></trkpt><trkpt lat="44.037445" lon="11.2520783"><ele>458.0</ele><time>2026-04-18T09:48:31.279Z</time></trkpt><trkpt lat="44.0373467" lon="11.2523233"><ele>465.0</ele><time>2026-04-18T09:48:32.281Z</time></trkpt><trkpt lat="44.0372833" lon="11.25255"><ele>465.0</ele><time>2026-04-18T09:48:33.279Z</time></trkpt><trkpt lat="44.0372667" lon="11.2527933"><ele>465.0</ele><time>2026-04-18T09:48:34.279Z</time></trkpt><trkpt lat="44.0373017" lon="11.2530533"><ele>465.0</ele><time>2026-04-18T09:48:35.281Z</time></trkpt><trkpt lat="44.0373583" lon="11.2533183"><ele>462.66666666666663</ele><time>2026-04-18T09:48:36.28Z</time></trkpt><trkpt lat="44.037385" lon="11.2535683"><ele>460.3333333333333</ele><time>2026-04-18T09:48:37.281Z</time></trkpt><trkpt lat="44.0373933" lon="11.25381"><ele>458.0</ele><time>2026-04-18T09:48:38.28Z</time></trkpt><trkpt lat="44.0374417" lon="11.2540083"><ele>454.66666666666663</ele><time>2026-04-18T09:48:39.28Z</time></trkpt><trkpt lat="44.0375267" lon="11.254195"><ele>451.33333333333337</ele><time>2026-04-18T09:48:40.279Z</time></trkpt><trkpt lat="44.0375883" lon="11.2543833"><ele>448.0</ele><time>2026-04-18T09:48:41.281Z</time></trkpt><trkpt lat="44.0376167" lon="11.2545817"><ele>451.6666666666667</ele><time>2026-04-18T09:48:42.282Z</time></trkpt><trkpt lat="44.0376183" lon="11.254795"><ele>455.33333333333337</ele><time>2026-04-18T09:48:43.28Z</time></trkpt><trkpt lat="44.0376367" lon="11.2550167"><ele>459.0</ele><time>2026-04-18T09:48:44.281Z</time></trkpt><trkpt lat="44.03769" lon="11.2552383"><ele>459.0</ele><time>2026-04-18T09:48:45.278Z</time></trkpt><trkpt lat="44.0377667" lon="11.255465"><ele>459.0</ele><time>2026-04-18T09:48:46.281Z</time></trkpt><trkpt lat="44.0378933" lon="11.2556533"><ele>459.0</ele><time>2026-04-18T09:48:47.282Z</time></trkpt><trkpt lat="44.03804" lon="11.2557767"><ele>460.0</ele><time>2026-04-18T09:48:48.283Z</time></trkpt><trkpt lat="44.0382017" lon="11.2558717"><ele>461.0</ele><time>2026-04-18T09:48:49.283Z</time></trkpt><trkpt lat="44.0383533" lon="11.25596"><ele>462.0</ele><time>2026-04-18T09:48:50.281Z</time></trkpt><trkpt lat="44.0385017" lon="11.2558933"><ele>462.0</ele><time>2026-04-18T09:48:51.28Z</time></trkpt><trkpt lat="44.0386367" lon="11.2558133"><ele>462.0</ele><time>2026-04-18T09:48:52.28Z</time></trkpt><trkpt lat="44.0387683" lon="11.2557433"><ele>462.0</ele><time>2026-04-18T09:48:53.283Z</time></trkpt><trkpt lat="44.038905" lon="11.2555683"><ele>457.5</ele><time>2026-04-18T09:48:54.283Z</time></trkpt><trkpt lat="44.03905" lon="11.2553567"><ele>453.0</ele><time>2026-04-18T09:48:55.281Z</time></trkpt><trkpt lat="44.0392067" lon="11.255075"><ele>453.0</ele><time>2026-04-18T09:48:56.282Z</time></trkpt><trkpt lat="44.0393567" lon="11.2548917"><ele>453.0</ele><time>2026-04-18T09:48:57.281Z</time></trkpt><trkpt lat="44.039495" lon="11.2548217"><ele>453.0</ele><time>2026-04-18T09:48:58.28Z</time></trkpt><trkpt lat="44.0396367" lon="11.2548417"><ele>453.0</ele><time>2026-04-18T09:48:59.282Z</time></trkpt><trkpt lat="44.0397767" lon="11.254925"><ele>453.0</ele><time>2026-04-18T09:49:00.28Z</time></trkpt><trkpt lat="44.0399017" lon="11.2550267"><ele>453.0</ele><time>2026-04-18T09:49:01.28Z</time></trkpt><trkpt lat="44.0400217" lon="11.2550767"><ele>453.0</ele><time>2026-04-18T09:49:02.282Z</time></trkpt><trkpt lat="44.0401583" lon="11.25509"><ele>449.33333333333337</ele><time>2026-04-18T09:49:03.279Z</time></trkpt><trkpt lat="44.040295" lon="11.2550167"><ele>445.6666666666667</ele><time>2026-04-18T09:49:04.279Z</time></trkpt><trkpt lat="44.04043" lon="11.2548767"><ele>442.0</ele><time>2026-04-18T09:49:05.279Z</time></trkpt><trkpt lat="44.04056" lon="11.254745"><ele>442.0</ele><time>2026-04-18T09:49:06.279Z</time></trkpt><trkpt lat="44.0406717" lon="11.25463"><ele>442.00000000000006</ele><time>2026-04-18T09:49:07.279Z</time></trkpt><trkpt lat="44.040775" lon="11.2545817"><ele>442.00000000000006</ele><time>2026-04-18T09:49:08.277Z</time></trkpt><trkpt lat="44.040865" lon="11.2546"><ele>442.0</ele><time>2026-04-18T09:49:09.278Z</time></trkpt><trkpt lat="44.0409317" lon="11.2546883"><ele>442.0</ele><time>2026-04-18T09:49:10.279Z</time></trkpt><trkpt lat="44.0409433" lon="11.2548283"><ele>450.33333333333337</ele><time>2026-04-18T09:49:11.278Z</time></trkpt><trkpt lat="44.0409083" lon="11.25498"><ele>458.66666666666663</ele><time>2026-04-18T09:49:12.278Z</time></trkpt><trkpt lat="44.0408367" lon="11.2551783"><ele>467.0</ele><time>2026-04-18T09:49:13.278Z</time></trkpt><trkpt lat="44.0407333" lon="11.2553767"><ele>467.0</ele><time>2026-04-18T09:49:14.279Z</time></trkpt><trkpt lat="44.0406183" lon="11.25559"><ele>467.0</ele><time>2026-04-18T09:49:15.277Z</time></trkpt><trkpt lat="44.040515" lon="11.255805"><ele>467.0</ele><time>2026-04-18T09:49:16.277Z</time></trkpt><trkpt lat="44.040415" lon="11.2560133"><ele>471.25</ele><time>2026-04-18T09:49:17.278Z</time></trkpt><trkpt lat="44.0403433" lon="11.2562167"><ele>475.5</ele><time>2026-04-18T09:49:18.279Z</time></trkpt><trkpt lat="44.0403283" lon="11.2564167"><ele>479.75</ele><time>2026-04-18T09:49:19.278Z</time></trkpt><trkpt lat="44.0403583" lon="11.256605"><ele>484.0</ele><time>2026-04-18T09:49:20.279Z</time></trkpt><trkpt lat="44.04042" lon="11.2567933"><ele>486.0</ele><time>2026-04-18T09:49:21.278Z</time></trkpt><trkpt lat="44.0404633" lon="11.2569933"><ele>488.0</ele><time>2026-04-18T09:49:22.278Z</time></trkpt><trkpt lat="44.040485" lon="11.2572333"><ele>490.0</ele><time>2026-04-18T09:49:23.278Z</time></trkpt><trkpt lat="44.0404983" lon="11.2574817"><ele>490.33333333333337</ele><time>2026-04-18T09:49:24.279Z</time></trkpt><trkpt lat="44.040535" lon="11.2577067"><ele>490.66666666666663</ele><time>2026-04-18T09:49:25.279Z</time></trkpt><trkpt lat="44.0406167" lon="11.2579083"><ele>491.0</ele><time>2026-04-18T09:49:26.279Z</time></trkpt><trkpt lat="44.0407567" lon="11.2581067"><ele>490.3333333333333</ele><time>2026-04-18T09:49:27.278Z</time></trkpt><trkpt lat="44.040925" lon="11.2582817"><ele>489.66666666666663</ele><time>2026-04-18T09:49:28.278Z</time></trkpt><trkpt lat="44.0411" lon="11.2584217"><ele>489.0</ele><time>2026-04-18T09:49:29.278Z</time></trkpt><trkpt lat="44.041285" lon="11.25852"><ele>489.0</ele><time>2026-04-18T09:49:30.278Z</time></trkpt><trkpt lat="44.041475" lon="11.2586233"><ele>489.0</ele><time>2026-04-18T09:49:31.278Z</time></trkpt><trkpt lat="44.0416517" lon="11.2587117"><ele>489.0</ele><time>2026-04-18T09:49:32.278Z</time></trkpt><trkpt lat="44.0418117" lon="11.258785"><ele>488.5</ele><time>2026-04-18T09:49:33.278Z</time></trkpt><trkpt lat="44.04196" lon="11.258835"><ele>488.0</ele><time>2026-04-18T09:49:34.278Z</time></trkpt><trkpt lat="44.0420917" lon="11.25888"><ele>487.5</ele><time>2026-04-18T09:49:35.279Z</time></trkpt><trkpt lat="44.0422083" lon="11.25892"><ele>487.0</ele><time>2026-04-18T09:49:36.278Z</time></trkpt><trkpt lat="44.04231" lon="11.2589633"><ele>488.00000000000006</ele><time>2026-04-18T09:49:37.278Z</time></trkpt><trkpt lat="44.0423917" lon="11.2590067"><ele>489.0</ele><time>2026-04-18T09:49:38.28Z</time></trkpt><trkpt lat="44.0424567" lon="11.259045"><ele>490.0</ele><time>2026-04-18T09:49:39.278Z</time></trkpt><trkpt lat="44.0425217" lon="11.2590883"><ele>491.0</ele><time>2026-04-18T09:49:41.279Z</time></trkpt><trkpt lat="44.0426483" lon="11.2591217"><ele>492.00000000000006</ele><time>2026-04-18T09:49:44.279Z</time></trkpt><trkpt lat="44.0427367" lon="11.25913"><ele>493.0</ele><time>2026-04-18T09:49:45.278Z</time></trkpt><trkpt lat="44.0428333" lon="11.2591317"><ele>493.0</ele><time>2026-04-18T09:49:46.279Z</time></trkpt><trkpt lat="44.042955" lon="11.2591233"><ele>493.0</ele><time>2026-04-18T09:49:47.279Z</time></trkpt><trkpt lat="44.0430933" lon="11.259105"><ele>493.0</ele><time>2026-04-18T09:49:48.279Z</time></trkpt><trkpt lat="44.043225" lon="11.2590467"><ele>493.0</ele><time>2026-04-18T09:49:49.279Z</time></trkpt><trkpt lat="44.0433733" lon="11.25903"><ele>492.6666666666667</ele><time>2026-04-18T09:49:50.28Z</time></trkpt><trkpt lat="44.0435267" lon="11.2590067"><ele>492.33333333333337</ele><time>2026-04-18T09:49:51.277Z</time></trkpt><trkpt lat="44.0436917" lon="11.25899"><ele>492.0</ele><time>2026-04-18T09:49:52.279Z</time></trkpt><trkpt lat="44.04386" lon="11.2589567"><ele>492.0</ele><time>2026-04-18T09:49:53.281Z</time></trkpt><trkpt lat="44.0440333" lon="11.25891"><ele>492.0</ele><time>2026-04-18T09:49:54.281Z</time></trkpt><trkpt lat="44.04422" lon="11.2588667"><ele>492.0</ele><time>2026-04-18T09:49:55.283Z</time></trkpt><trkpt lat="44.044405" lon="11.2588067"><ele>492.0</ele><time>2026-04-18T09:49:56.28Z</time></trkpt><trkpt lat="44.0445833" lon="11.2587517"><ele>492.0</ele><time>2026-04-18T09:49:57.281Z</time></trkpt><trkpt lat="44.0447617" lon="11.2586967"><ele>492.0</ele><time>2026-04-18T09:49:58.28Z</time></trkpt><trkpt lat="44.0449383" lon="11.2586467"><ele>495.66666666666663</ele><time>2026-04-18T09:49:59.281Z</time></trkpt><trkpt lat="44.0451117" lon="11.2585967"><ele>499.3333333333333</ele><time>2026-04-18T09:50:00.28Z</time></trkpt><trkpt lat="44.0452917" lon="11.2585467"><ele>503.0</ele><time>2026-04-18T09:50:01.28Z</time></trkpt><trkpt lat="44.0454833" lon="11.2585033"><ele>503.0</ele><time>2026-04-18T09:50:02.281Z</time></trkpt><trkpt lat="44.045665" lon="11.25843"><ele>503.0</ele><time>2026-04-18T09:50:03.28Z</time></trkpt><trkpt lat="44.0458233" lon="11.25834"><ele>503.0</ele><time>2026-04-18T09:50:04.28Z</time></trkpt><trkpt lat="44.045975" lon="11.2582817"><ele>504.75</ele><time>2026-04-18T09:50:05.28Z</time></trkpt><trkpt lat="44.0461133" lon="11.258245"><ele>506.5</ele><time>2026-04-18T09:50:06.28Z</time></trkpt><trkpt lat="44.0462283" lon="11.2582233"><ele>508.25</ele><time>2026-04-18T09:50:07.28Z</time></trkpt><trkpt lat="44.0463483" lon="11.258275"><ele>510.0</ele><time>2026-04-18T09:50:08.28Z</time></trkpt><trkpt lat="44.046475" lon="11.2583867"><ele>510.0</ele><time>2026-04-18T09:50:09.281Z</time></trkpt><trkpt lat="44.0465983" lon="11.258535"><ele>510.0</ele><time>2026-04-18T09:50:10.278Z</time></trkpt><trkpt lat="44.046735" lon="11.258705"><ele>510.0</ele><time>2026-04-18T09:50:11.279Z</time></trkpt><trkpt lat="44.0468917" lon="11.2588767"><ele>513.0</ele><time>2026-04-18T09:50:12.28Z</time></trkpt><trkpt lat="44.0470567" lon="11.2590583"><ele>516.0</ele><time>2026-04-18T09:50:13.281Z</time></trkpt><trkpt lat="44.047225" lon="11.2592267"><ele>519.0</ele><time>2026-04-18T09:50:14.283Z</time></trkpt><trkpt lat="44.047395" lon="11.2593967"><ele>516.3333333333334</ele><time>2026-04-18T09:50:15.279Z</time></trkpt><trkpt lat="44.04756" lon="11.259565"><ele>513.6666666666667</ele><time>2026-04-18T09:50:16.28Z</time></trkpt><trkpt lat="44.0477233" lon="11.25973"><ele>511.0</ele><time>2026-04-18T09:50:17.281Z</time></trkpt><trkpt lat="44.0478767" lon="11.2598867"><ele>511.0</ele><time>2026-04-18T09:50:18.281Z</time></trkpt><trkpt lat="44.0480033" lon="11.2600417"><ele>511.0</ele><time>2026-04-18T09:50:19.281Z</time></trkpt><trkpt lat="44.0481167" lon="11.2602017"><ele>511.0</ele><time>2026-04-18T09:50:20.28Z</time></trkpt><trkpt lat="44.0482267" lon="11.2603583"><ele>510.6666666666667</ele><time>2026-04-18T09:50:21.28Z</time></trkpt><trkpt lat="44.0483417" lon="11.2605017"><ele>510.33333333333337</ele><time>2026-04-18T09:50:22.279Z</time></trkpt><trkpt lat="44.0484583" lon="11.260635"><ele>510.0</ele><time>2026-04-18T09:50:23.278Z</time></trkpt><trkpt lat="44.0485767" lon="11.260765"><ele>512.0</ele><time>2026-04-18T09:50:24.279Z</time></trkpt><trkpt lat="44.04869" lon="11.260875"><ele>514.0</ele><time>2026-04-18T09:50:25.279Z</time></trkpt><trkpt lat="44.0488067" lon="11.2609883"><ele>516.0</ele><time>2026-04-18T09:50:26.282Z</time></trkpt><trkpt lat="44.04892" lon="11.26107"><ele>518.0</ele><time>2026-04-18T09:50:27.28Z</time></trkpt><trkpt lat="44.0490383" lon="11.261135"><ele>517.0</ele><time>2026-04-18T09:50:28.279Z</time></trkpt><trkpt lat="44.0491783" lon="11.261185"><ele>516.0</ele><time>2026-04-18T09:50:29.281Z</time></trkpt><trkpt lat="44.0493217" lon="11.2612283"><ele>515.0</ele><time>2026-04-18T09:50:30.281Z</time></trkpt><trkpt lat="44.0494683" lon="11.2612683"><ele>514.0</ele><time>2026-04-18T09:50:31.281Z</time></trkpt><trkpt lat="44.04961" lon="11.2613067"><ele>514.0</ele><time>2026-04-18T09:50:32.28Z</time></trkpt><trkpt lat="44.049755" lon="11.2613283"><ele>514.0</ele><time>2026-04-18T09:50:33.278Z</time></trkpt><trkpt lat="44.049895" lon="11.26134"><ele>514.0</ele><time>2026-04-18T09:50:34.28Z</time></trkpt><trkpt lat="44.0500383" lon="11.26134"><ele>514.0</ele><time>2026-04-18T09:50:35.279Z</time></trkpt><trkpt lat="44.0501767" lon="11.2613317"><ele>514.5</ele><time>2026-04-18T09:50:36.282Z</time></trkpt><trkpt lat="44.050315" lon="11.26132"><ele>515.0</ele><time>2026-04-18T09:50:37.279Z</time></trkpt><trkpt lat="44.050455" lon="11.2613"><ele>515.5</ele><time>2026-04-18T09:50:38.28Z</time></trkpt><trkpt lat="44.0505817" lon="11.2612667"><ele>516.0</ele><time>2026-04-18T09:50:39.28Z</time></trkpt><trkpt lat="44.0507017" lon="11.2612317"><ele>516.5</ele><time>2026-04-18T09:50:40.279Z</time></trkpt><trkpt lat="44.0508217" lon="11.2611967"><ele>517.0</ele><time>2026-04-18T09:50:41.281Z</time></trkpt><trkpt lat="44.0509417" lon="11.2611467"><ele>517.5</ele><time>2026-04-18T09:50:42.279Z</time></trkpt><trkpt lat="44.0510517" lon="11.26109"><ele>518.0</ele><time>2026-04-18T09:50:43.28Z</time></trkpt><trkpt lat="44.051155" lon="11.26104"><ele>518.0</ele><time>2026-04-18T09:50:44.279Z</time></trkpt><trkpt lat="44.0512583" lon="11.26099"><ele>518.0</ele><time>2026-04-18T09:50:45.284Z</time></trkpt><trkpt lat="44.0513633" lon="11.260945"><ele>518.0</ele><time>2026-04-18T09:50:46.281Z</time></trkpt><trkpt lat="44.0514717" lon="11.2608983"><ele>518.0</ele><time>2026-04-18T09:50:47.282Z</time></trkpt><trkpt lat="44.0515917" lon="11.2608533"><ele>518.75</ele><time>2026-04-18T09:50:48.28Z</time></trkpt><trkpt lat="44.0517167" lon="11.2608117"><ele>519.5</ele><time>2026-04-18T09:50:49.281Z</time></trkpt><trkpt lat="44.0518517" lon="11.2607867"><ele>520.25</ele><time>2026-04-18T09:50:50.282Z</time></trkpt><trkpt lat="44.0519783" lon="11.2607467"><ele>521.0</ele><time>2026-04-18T09:50:51.281Z</time></trkpt><trkpt lat="44.0521067" lon="11.2607033"><ele>521.0</ele><time>2026-04-18T09:50:52.281Z</time></trkpt><trkpt lat="44.0522333" lon="11.26067"><ele>521.0</ele><time>2026-04-18T09:50:53.28Z</time></trkpt><trkpt lat="44.05236" lon="11.26065"><ele>521.0</ele><time>2026-04-18T09:50:54.281Z</time></trkpt><trkpt lat="44.0524867" lon="11.2606233"><ele>521.0</ele><time>2026-04-18T09:50:55.281Z</time></trkpt><trkpt lat="44.052605" lon="11.260625"><ele>523.3333333333333</ele><time>2026-04-18T09:50:56.281Z</time></trkpt><trkpt lat="44.052715" lon="11.26064"><ele>525.6666666666666</ele><time>2026-04-18T09:50:57.28Z</time></trkpt><trkpt lat="44.05284" lon="11.260705"><ele>528.0</ele><time>2026-04-18T09:50:58.281Z</time></trkpt><trkpt lat="44.0531167" lon="11.260905"><ele>528.0</ele><time>2026-04-18T09:51:00.28Z</time></trkpt><trkpt lat="44.0532683" lon="11.2610333"><ele>528.0</ele><time>2026-04-18T09:51:01.28Z</time></trkpt><trkpt lat="44.0534233" lon="11.2611683"><ele>528.0</ele><time>2026-04-18T09:51:02.28Z</time></trkpt><trkpt lat="44.053585" lon="11.2613"><ele>527.6666666666666</ele><time>2026-04-18T09:51:03.281Z</time></trkpt><trkpt lat="44.05376" lon="11.2614317"><ele>527.3333333333333</ele><time>2026-04-18T09:51:04.28Z</time></trkpt><trkpt lat="44.05394" lon="11.2615283"><ele>527.0</ele><time>2026-04-18T09:51:05.281Z</time></trkpt><trkpt lat="44.054125" lon="11.2616067"><ele>529.3333333333333</ele><time>2026-04-18T09:51:06.281Z</time></trkpt><trkpt lat="44.0543167" lon="11.2616983"><ele>531.6666666666666</ele><time>2026-04-18T09:51:07.281Z</time></trkpt><trkpt lat="44.0545133" lon="11.2617983"><ele>534.0</ele><time>2026-04-18T09:51:08.28Z</time></trkpt><trkpt lat="44.054715" lon="11.2618833"><ele>534.0</ele><time>2026-04-18T09:51:09.279Z</time></trkpt><trkpt lat="44.0549217" lon="11.2619617"><ele>534.0</ele><time>2026-04-18T09:51:10.281Z</time></trkpt><trkpt lat="44.0551317" lon="11.2620317"><ele>534.0</ele><time>2026-04-18T09:51:11.281Z</time></trkpt><trkpt lat="44.0553417" lon="11.2621017"><ele>532.6666666666666</ele><time>2026-04-18T09:51:12.282Z</time></trkpt><trkpt lat="44.0555583" lon="11.26218"><ele>531.3333333333333</ele><time>2026-04-18T09:51:13.281Z</time></trkpt><trkpt lat="44.055775" lon="11.262265"><ele>530.0</ele><time>2026-04-18T09:51:14.281Z</time></trkpt><trkpt lat="44.0559833" lon="11.262355"><ele>533.0</ele><time>2026-04-18T09:51:15.281Z</time></trkpt><trkpt lat="44.0561667" lon="11.2624667"><ele>536.0</ele><time>2026-04-18T09:51:16.282Z</time></trkpt><trkpt lat="44.05632" lon="11.262595"><ele>539.0</ele><time>2026-04-18T09:51:17.281Z</time></trkpt><trkpt lat="44.0564517" lon="11.2627167"><ele>539.0</ele><time>2026-04-18T09:51:18.282Z</time></trkpt><trkpt lat="44.0565783" lon="11.262805"><ele>539.0</ele><time>2026-04-18T09:51:19.281Z</time></trkpt><trkpt lat="44.05671" lon="11.26283"><ele>539.0</ele><time>2026-04-18T09:51:20.282Z</time></trkpt><trkpt lat="44.0568517" lon="11.262765"><ele>539.0</ele><time>2026-04-18T09:51:21.28Z</time></trkpt><trkpt lat="44.05701" lon="11.2626567"><ele>542.0</ele><time>2026-04-18T09:51:22.28Z</time></trkpt><trkpt lat="44.0571617" lon="11.262555"><ele>545.0</ele><time>2026-04-18T09:51:23.281Z</time></trkpt><trkpt lat="44.0573117" lon="11.262495"><ele>548.0</ele><time>2026-04-18T09:51:24.28Z</time></trkpt><trkpt lat="44.05747" lon="11.262485"><ele>550.3333333333333</ele><time>2026-04-18T09:51:25.281Z</time></trkpt><trkpt lat="44.05761" lon="11.26252"><ele>552.6666666666666</ele><time>2026-04-18T09:51:26.283Z</time></trkpt><trkpt lat="44.05778" lon="11.26261"><ele>555.0</ele><time>2026-04-18T09:51:27.281Z</time></trkpt><trkpt lat="44.0579483" lon="11.2627383"><ele>555.0</ele><time>2026-04-18T09:51:28.281Z</time></trkpt><trkpt lat="44.0581217" lon="11.2628767"><ele>555.0</ele><time>2026-04-18T09:51:29.282Z</time></trkpt><trkpt lat="44.0582933" lon="11.2629917"><ele>555.0</ele><time>2026-04-18T09:51:30.283Z</time></trkpt><trkpt lat="44.058475" lon="11.263055"><ele>556.0</ele><time>2026-04-18T09:51:31.281Z</time></trkpt><trkpt lat="44.0586667" lon="11.2630617"><ele>557.0</ele><time>2026-04-18T09:51:32.282Z</time></trkpt><trkpt lat="44.05886" lon="11.2630533"><ele>558.0</ele><time>2026-04-18T09:51:33.282Z</time></trkpt><trkpt lat="44.0590517" lon="11.26305"><ele>560.0</ele><time>2026-04-18T09:51:34.281Z</time></trkpt><trkpt lat="44.0592467" lon="11.2630433"><ele>562.0</ele><time>2026-04-18T09:51:35.281Z</time></trkpt><trkpt lat="44.0594517" lon="11.263045"><ele>564.0</ele><time>2026-04-18T09:51:36.281Z</time></trkpt><trkpt lat="44.0596633" lon="11.2630433"><ele>564.0</ele><time>2026-04-18T09:51:37.282Z</time></trkpt><trkpt lat="44.0598767" lon="11.2630433"><ele>564.0</ele><time>2026-04-18T09:51:38.281Z</time></trkpt><trkpt lat="44.0601" lon="11.2630467"><ele>564.0</ele><time>2026-04-18T09:51:39.281Z</time></trkpt><trkpt lat="44.0603267" lon="11.26306"><ele>565.3333333333334</ele><time>2026-04-18T09:51:40.283Z</time></trkpt><trkpt lat="44.0605467" lon="11.26308"><ele>566.6666666666667</ele><time>2026-04-18T09:51:41.282Z</time></trkpt><trkpt lat="44.06077" lon="11.2631217"><ele>568.0</ele><time>2026-04-18T09:51:42.279Z</time></trkpt><trkpt lat="44.0609833" lon="11.2631867"><ele>570.0</ele><time>2026-04-18T09:51:43.278Z</time></trkpt><trkpt lat="44.061195" lon="11.263295"><ele>572.0</ele><time>2026-04-18T09:51:44.28Z</time></trkpt><trkpt lat="44.061405" lon="11.2634283"><ele>572.0</ele><time>2026-04-18T09:51:45.281Z</time></trkpt><trkpt lat="44.0616133" lon="11.2635683"><ele>572.0</ele><time>2026-04-18T09:51:46.28Z</time></trkpt><trkpt lat="44.06183" lon="11.2637133"><ele>574.5</ele><time>2026-04-18T09:51:47.279Z</time></trkpt><trkpt lat="44.0620533" lon="11.2638533"><ele>577.0</ele><time>2026-04-18T09:51:48.28Z</time></trkpt><trkpt lat="44.0622717" lon="11.2639733"><ele>581.0</ele><time>2026-04-18T09:51:49.28Z</time></trkpt><trkpt lat="44.0624817" lon="11.2641017"><ele>585.0</ele><time>2026-04-18T09:51:50.282Z</time></trkpt><trkpt lat="44.062675" lon="11.26423"><ele>589.0</ele><time>2026-04-18T09:51:51.279Z</time></trkpt><trkpt lat="44.0628517" lon="11.2643583"><ele>589.0</ele><time>2026-04-18T09:51:52.279Z</time></trkpt><trkpt lat="44.0630067" lon="11.264515"><ele>589.0</ele><time>2026-04-18T09:51:53.282Z</time></trkpt><trkpt lat="44.0631433" lon="11.2647"><ele>589.0</ele><time>2026-04-18T09:51:54.281Z</time></trkpt><trkpt lat="44.06326" lon="11.2649133"><ele>593.0</ele><time>2026-04-18T09:51:55.281Z</time></trkpt><trkpt lat="44.06336" lon="11.2651667"><ele>597.0</ele><time>2026-04-18T09:51:56.28Z</time></trkpt><trkpt lat="44.0634617" lon="11.2654333"><ele>601.0</ele><time>2026-04-18T09:51:57.281Z</time></trkpt><trkpt lat="44.063585" lon="11.2657067"><ele>601.0</ele><time>2026-04-18T09:51:58.28Z</time></trkpt><trkpt lat="44.06373" lon="11.2659767"><ele>601.0</ele><time>2026-04-18T09:51:59.28Z</time></trkpt><trkpt lat="44.0638867" lon="11.2662333"><ele>600.3333333333334</ele><time>2026-04-18T09:52:00.282Z</time></trkpt><trkpt lat="44.0640367" lon="11.2664667"><ele>599.6666666666666</ele><time>2026-04-18T09:52:01.281Z</time></trkpt><trkpt lat="44.0641717" lon="11.266675"><ele>599.0</ele><time>2026-04-18T09:52:02.281Z</time></trkpt><trkpt lat="44.0642933" lon="11.26684"><ele>604.6666666666666</ele><time>2026-04-18T09:52:03.282Z</time></trkpt><trkpt lat="44.0644117" lon="11.2669667"><ele>610.3333333333334</ele><time>2026-04-18T09:52:04.278Z</time></trkpt><trkpt lat="44.0645483" lon="11.2670567"><ele>616.0</ele><time>2026-04-18T09:52:05.282Z</time></trkpt><trkpt lat="44.0647267" lon="11.2671"><ele>616.0</ele><time>2026-04-18T09:52:06.281Z</time></trkpt><trkpt lat="44.0649317" lon="11.2670817"><ele>616.0</ele><time>2026-04-18T09:52:07.28Z</time></trkpt><trkpt lat="44.0651467" lon="11.26714"><ele>616.0</ele><time>2026-04-18T09:52:08.28Z</time></trkpt><trkpt lat="44.065365" lon="11.267225"><ele>614.5</ele><time>2026-04-18T09:52:09.28Z</time></trkpt><trkpt lat="44.0655883" lon="11.2673167"><ele>613.0</ele><time>2026-04-18T09:52:10.28Z</time></trkpt><trkpt lat="44.0658133" lon="11.26738"><ele>617.0</ele><time>2026-04-18T09:52:11.282Z</time></trkpt><trkpt lat="44.0660317" lon="11.2674283"><ele>621.0</ele><time>2026-04-18T09:52:12.281Z</time></trkpt><trkpt lat="44.0662383" lon="11.2674683"><ele>625.0</ele><time>2026-04-18T09:52:13.281Z</time></trkpt><trkpt lat="44.0664267" lon="11.26753"><ele>625.0</ele><time>2026-04-18T09:52:14.279Z</time></trkpt><trkpt lat="44.0665983" lon="11.2676317"><ele>625.0</ele><time>2026-04-18T09:52:15.279Z</time></trkpt><trkpt lat="44.0667617" lon="11.2677783"><ele>625.0</ele><time>2026-04-18T09:52:16.28Z</time></trkpt><trkpt lat="44.06692" lon="11.2679367"><ele>625.3333333333334</ele><time>2026-04-18T09:52:17.278Z</time></trkpt><trkpt lat="44.067085" lon="11.2680583"><ele>625.6666666666666</ele><time>2026-04-18T09:52:18.28Z</time></trkpt><trkpt lat="44.0672567" lon="11.2681317"><ele>626.0</ele><time>2026-04-18T09:52:19.279Z</time></trkpt><trkpt lat="44.06742" lon="11.2681967"><ele>630.0</ele><time>2026-04-18T09:52:20.28Z</time></trkpt><trkpt lat="44.06757" lon="11.2682717"><ele>634.0</ele><time>2026-04-18T09:52:21.28Z</time></trkpt><trkpt lat="44.0676967" lon="11.26839"><ele>638.0</ele><time>2026-04-18T09:52:22.28Z</time></trkpt><trkpt lat="44.067795" lon="11.2685533"><ele>638.0</ele><time>2026-04-18T09:52:23.28Z</time></trkpt><trkpt lat="44.06786" lon="11.2687983"><ele>638.0</ele><time>2026-04-18T09:52:24.28Z</time></trkpt><trkpt lat="44.0679267" lon="11.26906"><ele>638.0</ele><time>2026-04-18T09:52:25.281Z</time></trkpt><trkpt lat="44.0679967" lon="11.2692967"><ele>637.0</ele><time>2026-04-18T09:52:26.28Z</time></trkpt><trkpt lat="44.0680767" lon="11.2695067"><ele>636.0</ele><time>2026-04-18T09:52:27.28Z</time></trkpt><trkpt lat="44.0681617" lon="11.26969"><ele>635.0</ele><time>2026-04-18T09:52:28.281Z</time></trkpt><trkpt lat="44.0682633" lon="11.26985"><ele>639.6666666666666</ele><time>2026-04-18T09:52:29.28Z</time></trkpt><trkpt lat="44.068395" lon="11.2700033"><ele>644.3333333333334</ele><time>2026-04-18T09:52:30.28Z</time></trkpt><trkpt lat="44.0685567" lon="11.270115"><ele>649.0</ele><time>2026-04-18T09:52:31.28Z</time></trkpt><trkpt lat="44.0687367" lon="11.2701683"><ele>649.0</ele><time>2026-04-18T09:52:32.28Z</time></trkpt><trkpt lat="44.068915" lon="11.270185"><ele>649.0</ele><time>2026-04-18T09:52:33.28Z</time></trkpt><trkpt lat="44.0690867" lon="11.270175"><ele>649.0</ele><time>2026-04-18T09:52:34.281Z</time></trkpt><trkpt lat="44.0692617" lon="11.2701567"><ele>653.3333333333334</ele><time>2026-04-18T09:52:35.28Z</time></trkpt><trkpt lat="44.0694417" lon="11.2701317"><ele>657.6666666666666</ele><time>2026-04-18T09:52:36.281Z</time></trkpt><trkpt lat="44.0696183" lon="11.2701017"><ele>662.0</ele><time>2026-04-18T09:52:37.281Z</time></trkpt><trkpt lat="44.069795" lon="11.2700583"><ele>664.0</ele><time>2026-04-18T09:52:38.281Z</time></trkpt><trkpt lat="44.0699617" lon="11.27001"><ele>666.0</ele><time>2026-04-18T09:52:39.28Z</time></trkpt><trkpt lat="44.0701233" lon="11.2699517"><ele>668.0</ele><time>2026-04-18T09:52:40.281Z</time></trkpt><trkpt lat="44.070275" lon="11.2698917"><ele>668.0</ele><time>2026-04-18T09:52:41.281Z</time></trkpt><trkpt lat="44.0704217" lon="11.2698667"><ele>668.0</ele><time>2026-04-18T09:52:42.28Z</time></trkpt><trkpt lat="44.0705667" lon="11.2699017"><ele>668.0</ele><time>2026-04-18T09:52:43.281Z</time></trkpt><trkpt lat="44.07071" lon="11.2699783"><ele>668.0</ele><time>2026-04-18T09:52:44.281Z</time></trkpt><trkpt lat="44.0708517" lon="11.2700633"><ele>670.0</ele><time>2026-04-18T09:52:45.281Z</time></trkpt><trkpt lat="44.070995" lon="11.2701583"><ele>672.0</ele><time>2026-04-18T09:52:46.281Z</time></trkpt><trkpt lat="44.071135" lon="11.27026"><ele>674.0</ele><time>2026-04-18T09:52:47.28Z</time></trkpt><trkpt lat="44.0712633" lon="11.2703767"><ele>674.0</ele><time>2026-04-18T09:52:48.281Z</time></trkpt><trkpt lat="44.07138" lon="11.270515"><ele>674.0</ele><time>2026-04-18T09:52:49.28Z</time></trkpt><trkpt lat="44.0714867" lon="11.2706733"><ele>674.0</ele><time>2026-04-18T09:52:50.282Z</time></trkpt><trkpt lat="44.0715917" lon="11.270845"><ele>678.0</ele><time>2026-04-18T09:52:51.281Z</time></trkpt><trkpt lat="44.0717017" lon="11.2710083"><ele>682.0</ele><time>2026-04-18T09:52:52.281Z</time></trkpt><trkpt lat="44.0718267" lon="11.2711533"><ele>686.0</ele><time>2026-04-18T09:52:53.28Z</time></trkpt><trkpt lat="44.0719633" lon="11.27128"><ele>686.0</ele><time>2026-04-18T09:52:54.279Z</time></trkpt><trkpt lat="44.0720933" lon="11.2714"><ele>686.0</ele><time>2026-04-18T09:52:55.28Z</time></trkpt><trkpt lat="44.072205" lon="11.2714883"><ele>686.0</ele><time>2026-04-18T09:52:56.28Z</time></trkpt><trkpt lat="44.0723133" lon="11.2715733"><ele>686.0</ele><time>2026-04-18T09:52:57.28Z</time></trkpt><trkpt lat="44.072415" lon="11.2716433"><ele>687.0</ele><time>2026-04-18T09:52:58.281Z</time></trkpt><trkpt lat="44.0725217" lon="11.2716783"><ele>688.0</ele><time>2026-04-18T09:52:59.279Z</time></trkpt><trkpt lat="44.0726317" lon="11.2716717"><ele>689.0</ele><time>2026-04-18T09:53:00.28Z</time></trkpt><trkpt lat="44.0727417" lon="11.27165"><ele>690.0</ele><time>2026-04-18T09:53:01.279Z</time></trkpt><trkpt lat="44.07283" lon="11.2715967"><ele>691.0</ele><time>2026-04-18T09:53:02.279Z</time></trkpt><trkpt lat="44.0728833" lon="11.2714967"><ele>693.25</ele><time>2026-04-18T09:53:03.28Z</time></trkpt><trkpt lat="44.0729167" lon="11.2713583"><ele>695.5</ele><time>2026-04-18T09:53:04.28Z</time></trkpt><trkpt lat="44.0729133" lon="11.2711833"><ele>697.75</ele><time>2026-04-18T09:53:05.28Z</time></trkpt><trkpt lat="44.0729033" lon="11.2710017"><ele>700.0</ele><time>2026-04-18T09:53:06.281Z</time></trkpt><trkpt lat="44.07289" lon="11.2708367"><ele>700.0</ele><time>2026-04-18T09:53:07.28Z</time></trkpt><trkpt lat="44.07289" lon="11.2706867"><ele>700.0</ele><time>2026-04-18T09:53:08.28Z</time></trkpt><trkpt lat="44.0728917" lon="11.2705233"><ele>700.0</ele><time>2026-04-18T09:53:09.281Z</time></trkpt><trkpt lat="44.072865" lon="11.2703817"><ele>700.0</ele><time>2026-04-18T09:53:10.281Z</time></trkpt><trkpt lat="44.0728567" lon="11.2702483"><ele>700.0</ele><time>2026-04-18T09:53:11.281Z</time></trkpt><trkpt lat="44.0728667" lon="11.2701333"><ele>699.1666666666667</ele><time>2026-04-18T09:53:12.281Z</time></trkpt><trkpt lat="44.0728933" lon="11.2700417"><ele>698.3333333333334</ele><time>2026-04-18T09:53:13.28Z</time></trkpt><trkpt lat="44.0729583" lon="11.2699833"><ele>697.5</ele><time>2026-04-18T09:53:15.28Z</time></trkpt><trkpt lat="44.0730467" lon="11.2699417"><ele>696.6666666666666</ele><time>2026-04-18T09:53:17.28Z</time></trkpt><trkpt lat="44.0731167" lon="11.2699367"><ele>695.8333333333333</ele><time>2026-04-18T09:53:18.28Z</time></trkpt><trkpt lat="44.073185" lon="11.2699483"><ele>695.0</ele><time>2026-04-18T09:53:19.279Z</time></trkpt><trkpt lat="44.07326" lon="11.2699817"><ele>697.0</ele><time>2026-04-18T09:53:20.281Z</time></trkpt><trkpt lat="44.07335" lon="11.2700467"><ele>699.0</ele><time>2026-04-18T09:53:21.28Z</time></trkpt><trkpt lat="44.0734717" lon="11.2701767"><ele>701.0</ele><time>2026-04-18T09:53:22.279Z</time></trkpt><trkpt lat="44.073585" lon="11.2703283"><ele>703.0</ele><time>2026-04-18T09:53:23.28Z</time></trkpt><trkpt lat="44.073685" lon="11.270475"><ele>703.3333333333334</ele><time>2026-04-18T09:53:24.281Z</time></trkpt><trkpt lat="44.07377" lon="11.27065"><ele>703.6666666666666</ele><time>2026-04-18T09:53:25.281Z</time></trkpt><trkpt lat="44.073845" lon="11.2708467"><ele>704.0</ele><time>2026-04-18T09:53:26.281Z</time></trkpt><trkpt lat="44.0739083" lon="11.27106"><ele>704.0</ele><time>2026-04-18T09:53:27.28Z</time></trkpt><trkpt lat="44.0739567" lon="11.27128"><ele>704.0</ele><time>2026-04-18T09:53:28.281Z</time></trkpt><trkpt lat="44.0740017" lon="11.27151"><ele>704.0</ele><time>2026-04-18T09:53:29.28Z</time></trkpt><trkpt lat="44.0740383" lon="11.2717683"><ele>703.3333333333333</ele><time>2026-04-18T09:53:30.281Z</time></trkpt><trkpt lat="44.0740617" lon="11.27201"><ele>702.6666666666666</ele><time>2026-04-18T09:53:31.28Z</time></trkpt><trkpt lat="44.0740867" lon="11.2722483"><ele>702.0</ele><time>2026-04-18T09:53:32.28Z</time></trkpt><trkpt lat="44.07411" lon="11.2724767"><ele>705.25</ele><time>2026-04-18T09:53:33.28Z</time></trkpt><trkpt lat="44.07412" lon="11.2726817"><ele>708.5</ele><time>2026-04-18T09:53:34.28Z</time></trkpt><trkpt lat="44.0741283" lon="11.2728833"><ele>711.75</ele><time>2026-04-18T09:53:35.28Z</time></trkpt><trkpt lat="44.0741167" lon="11.2730817"><ele>715.0</ele><time>2026-04-18T09:53:36.281Z</time></trkpt><trkpt lat="44.0740867" lon="11.2732733"><ele>715.0</ele><time>2026-04-18T09:53:37.281Z</time></trkpt><trkpt lat="44.0740283" lon="11.273465"><ele>715.0</ele><time>2026-04-18T09:53:38.283Z</time></trkpt><trkpt lat="44.0739767" lon="11.2736433"><ele>715.0</ele><time>2026-04-18T09:53:39.281Z</time></trkpt><trkpt lat="44.07394" lon="11.2738283"><ele>715.0</ele><time>2026-04-18T09:53:40.28Z</time></trkpt><trkpt lat="44.0739267" lon="11.2740117"><ele>716.0</ele><time>2026-04-18T09:53:41.281Z</time></trkpt><trkpt lat="44.07395" lon="11.2742017"><ele>717.0</ele><time>2026-04-18T09:53:42.281Z</time></trkpt><trkpt lat="44.07403" lon="11.2743783"><ele>718.0</ele><time>2026-04-18T09:53:43.28Z</time></trkpt><trkpt lat="44.0741133" lon="11.2745617"><ele>719.0</ele><time>2026-04-18T09:53:44.281Z</time></trkpt><trkpt lat="44.0742" lon="11.2747417"><ele>723.6666666666666</ele><time>2026-04-18T09:53:45.28Z</time></trkpt><trkpt lat="44.0742917" lon="11.2749133"><ele>728.3333333333334</ele><time>2026-04-18T09:53:46.281Z</time></trkpt><trkpt lat="44.0744283" lon="11.2750617"><ele>733.0</ele><time>2026-04-18T09:53:47.28Z</time></trkpt><trkpt lat="44.0745667" lon="11.2751883"><ele>733.0</ele><time>2026-04-18T09:53:48.28Z</time></trkpt><trkpt lat="44.0747683" lon="11.2752767"><ele>733.0</ele><time>2026-04-18T09:53:49.28Z</time></trkpt><trkpt lat="44.0749117" lon="11.2753933"><ele>733.0</ele><time>2026-04-18T09:53:50.28Z</time></trkpt><trkpt lat="44.0750517" lon="11.27555"><ele>737.0</ele><time>2026-04-18T09:53:51.28Z</time></trkpt><trkpt lat="44.0751783" lon="11.2757367"><ele>741.0</ele><time>2026-04-18T09:53:52.28Z</time></trkpt><trkpt lat="44.0753017" lon="11.2759583"><ele>745.0</ele><time>2026-04-18T09:53:53.28Z</time></trkpt><trkpt lat="44.0754383" lon="11.2761917"><ele>745.0</ele><time>2026-04-18T09:53:54.28Z</time></trkpt><trkpt lat="44.0755917" lon="11.276435"><ele>745.0</ele><time>2026-04-18T09:53:55.279Z</time></trkpt><trkpt lat="44.075745" lon="11.276635"><ele>745.0</ele><time>2026-04-18T09:53:56.279Z</time></trkpt><trkpt lat="44.075845" lon="11.2768217"><ele>750.5</ele><time>2026-04-18T09:53:57.28Z</time></trkpt><trkpt lat="44.0758967" lon="11.276995"><ele>756.0</ele><time>2026-04-18T09:53:58.281Z</time></trkpt><trkpt lat="44.075915" lon="11.27718"><ele>761.5</ele><time>2026-04-18T09:53:59.282Z</time></trkpt><trkpt lat="44.0759267" lon="11.2773767"><ele>767.0</ele><time>2026-04-18T09:54:00.28Z</time></trkpt><trkpt lat="44.0759217" lon="11.2775667"><ele>767.0</ele><time>2026-04-18T09:54:01.283Z</time></trkpt><trkpt lat="44.07592" lon="11.277755"><ele>767.0</ele><time>2026-04-18T09:54:02.281Z</time></trkpt><trkpt lat="44.0759367" lon="11.2779717"><ele>767.0</ele><time>2026-04-18T09:54:03.281Z</time></trkpt><trkpt lat="44.0759483" lon="11.278205"><ele>767.0</ele><time>2026-04-18T09:54:04.279Z</time></trkpt><trkpt lat="44.0759383" lon="11.2784583"><ele>767.0</ele><time>2026-04-18T09:54:05.28Z</time></trkpt><trkpt lat="44.0759283" lon="11.278735"><ele>767.0</ele><time>2026-04-18T09:54:06.28Z</time></trkpt><trkpt lat="44.0759083" lon="11.279015"><ele>766.6666666666666</ele><time>2026-04-18T09:54:07.278Z</time></trkpt><trkpt lat="44.0758767" lon="11.27929"><ele>766.3333333333334</ele><time>2026-04-18T09:54:08.281Z</time></trkpt><trkpt lat="44.075845" lon="11.2795783"><ele>766.0</ele><time>2026-04-18T09:54:09.28Z</time></trkpt><trkpt lat="44.0758383" lon="11.2798417"><ele>765.6666666666667</ele><time>2026-04-18T09:54:10.282Z</time></trkpt><trkpt lat="44.07583" lon="11.280085"><ele>765.3333333333334</ele><time>2026-04-18T09:54:11.28Z</time></trkpt><trkpt lat="44.0758283" lon="11.2803117"><ele>765.0</ele><time>2026-04-18T09:54:12.281Z</time></trkpt><trkpt lat="44.075865" lon="11.2805267"><ele>761.3333333333334</ele><time>2026-04-18T09:54:13.279Z</time></trkpt><trkpt lat="44.0759333" lon="11.2807283"><ele>757.6666666666667</ele><time>2026-04-18T09:54:14.279Z</time></trkpt><trkpt lat="44.07601" lon="11.28091"><ele>754.0</ele><time>2026-04-18T09:54:15.279Z</time></trkpt><trkpt lat="44.07618" lon="11.2809683"><ele>754.0</ele><time>2026-04-18T09:54:16.279Z</time></trkpt><trkpt lat="44.0764167" lon="11.280935"><ele>754.0</ele><time>2026-04-18T09:54:17.278Z</time></trkpt><trkpt lat="44.0765883" lon="11.2809833"><ele>754.0</ele><time>2026-04-18T09:54:18.279Z</time></trkpt><trkpt lat="44.0767383" lon="11.2810383"><ele>753.5</ele><time>2026-04-18T09:54:19.279Z</time></trkpt><trkpt lat="44.0768683" lon="11.2811517"><ele>753.0</ele><time>2026-04-18T09:54:20.28Z</time></trkpt><trkpt lat="44.0769883" lon="11.2812633"><ele>752.5</ele><time>2026-04-18T09:54:21.279Z</time></trkpt><trkpt lat="44.07712" lon="11.2813517"><ele>752.0</ele><time>2026-04-18T09:54:22.28Z</time></trkpt><trkpt lat="44.0772617" lon="11.281435"><ele>752.0</ele><time>2026-04-18T09:54:23.279Z</time></trkpt><trkpt lat="44.0774133" lon="11.2815"><ele>752.0</ele><time>2026-04-18T09:54:24.279Z</time></trkpt><trkpt lat="44.0775667" lon="11.2815583"><ele>752.0</ele><time>2026-04-18T09:54:25.28Z</time></trkpt><trkpt lat="44.0777317" lon="11.2816283"><ele>756.0</ele><time>2026-04-18T09:54:26.279Z</time></trkpt><trkpt lat="44.0778983" lon="11.2817133"><ele>760.0</ele><time>2026-04-18T09:54:27.28Z</time></trkpt><trkpt lat="44.078075" lon="11.2817967"><ele>764.0</ele><time>2026-04-18T09:54:28.28Z</time></trkpt><trkpt lat="44.0782533" lon="11.28187"><ele>767.3333333333333</ele><time>2026-04-18T09:54:29.279Z</time></trkpt><trkpt lat="44.07843" lon="11.281955"><ele>770.6666666666666</ele><time>2026-04-18T09:54:30.279Z</time></trkpt><trkpt lat="44.078615" lon="11.2820383"><ele>774.0</ele><time>2026-04-18T09:54:31.28Z</time></trkpt><trkpt lat="44.07881" lon="11.2821033"><ele>774.0</ele><time>2026-04-18T09:54:32.28Z</time></trkpt><trkpt lat="44.079015" lon="11.2821417"><ele>774.0</ele><time>2026-04-18T09:54:33.278Z</time></trkpt><trkpt lat="44.07922" lon="11.282155"><ele>774.0</ele><time>2026-04-18T09:54:34.279Z</time></trkpt><trkpt lat="44.0794267" lon="11.282155"><ele>780.0</ele><time>2026-04-18T09:54:35.28Z</time></trkpt><trkpt lat="44.0796317" lon="11.282135"><ele>786.0</ele><time>2026-04-18T09:54:36.279Z</time></trkpt><trkpt lat="44.0798317" lon="11.282065"><ele>792.0</ele><time>2026-04-18T09:54:37.28Z</time></trkpt><trkpt lat="44.0800583" lon="11.2820617"><ele>796.6666666666667</ele><time>2026-04-18T09:54:38.279Z</time></trkpt><trkpt lat="44.0802767" lon="11.2820417"><ele>801.3333333333334</ele><time>2026-04-18T09:54:39.279Z</time></trkpt><trkpt lat="44.0804933" lon="11.2820133"><ele>806.0</ele><time>2026-04-18T09:54:40.28Z</time></trkpt><trkpt lat="44.080715" lon="11.2819683"><ele>807.0</ele><time>2026-04-18T09:54:41.279Z</time></trkpt><trkpt lat="44.0809333" lon="11.28192"><ele>808.0</ele><time>2026-04-18T09:54:42.279Z</time></trkpt><trkpt lat="44.081135" lon="11.2818667"><ele>809.0</ele><time>2026-04-18T09:54:43.279Z</time></trkpt><trkpt lat="44.0813317" lon="11.2818117"><ele>809.0</ele><time>2026-04-18T09:54:44.279Z</time></trkpt><trkpt lat="44.081515" lon="11.2817383"><ele>809.0</ele><time>2026-04-18T09:54:45.278Z</time></trkpt><trkpt lat="44.0817067" lon="11.2816467"><ele>809.0</ele><time>2026-04-18T09:54:46.279Z</time></trkpt><trkpt lat="44.0818733" lon="11.28153"><ele>813.0</ele><time>2026-04-18T09:54:47.281Z</time></trkpt><trkpt lat="44.0819817" lon="11.281365"><ele>817.0</ele><time>2026-04-18T09:54:48.28Z</time></trkpt><trkpt lat="44.08207" lon="11.281235"><ele>821.0</ele><time>2026-04-18T09:54:49.279Z</time></trkpt><trkpt lat="44.0821633" lon="11.2811367"><ele>825.0</ele><time>2026-04-18T09:54:50.281Z</time></trkpt><trkpt lat="44.0822417" lon="11.2810217"><ele>825.0</ele><time>2026-04-18T09:54:51.279Z</time></trkpt><trkpt lat="44.082365" lon="11.2809483"><ele>825.0</ele><time>2026-04-18T09:54:52.279Z</time></trkpt><trkpt lat="44.08246" lon="11.2809467"><ele>825.0</ele><time>2026-04-18T09:54:53.279Z</time></trkpt><trkpt lat="44.0825183" lon="11.2810633"><ele>825.0</ele><time>2026-04-18T09:54:55.281Z</time></trkpt><trkpt lat="44.0825433" lon="11.28115"><ele>825.0</ele><time>2026-04-18T09:54:56.28Z</time></trkpt><trkpt lat="44.08256" lon="11.2812533"><ele>823.3333333333333</ele><time>2026-04-18T09:54:57.278Z</time></trkpt><trkpt lat="44.0826" lon="11.2814267"><ele>821.6666666666666</ele><time>2026-04-18T09:54:58.28Z</time></trkpt><trkpt lat="44.0826267" lon="11.2816583"><ele>820.0</ele><time>2026-04-18T09:54:59.28Z</time></trkpt><trkpt lat="44.0826933" lon="11.2819583"><ele>820.0</ele><time>2026-04-18T09:55:00.279Z</time></trkpt><trkpt lat="44.0827567" lon="11.282205"><ele>820.0</ele><time>2026-04-18T09:55:01.279Z</time></trkpt><trkpt lat="44.0828567" lon="11.2824733"><ele>820.0</ele><time>2026-04-18T09:55:02.28Z</time></trkpt><trkpt lat="44.08292" lon="11.28276"><ele>820.2</ele><time>2026-04-18T09:55:03.279Z</time></trkpt><trkpt lat="44.082985" lon="11.2829417"><ele>820.4</ele><time>2026-04-18T09:55:04.278Z</time></trkpt><trkpt lat="44.0830433" lon="11.28304"><ele>820.5999999999999</ele><time>2026-04-18T09:55:05.279Z</time></trkpt><trkpt lat="44.08309" lon="11.28313"><ele>820.8</ele><time>2026-04-18T09:55:06.28Z</time></trkpt><trkpt lat="44.0831467" lon="11.2832267"><ele>821.0</ele><time>2026-04-18T09:55:07.28Z</time></trkpt><trkpt lat="44.0830867" lon="11.2831333"><ele>821.0</ele><time>2026-04-18T09:55:10.279Z</time></trkpt><trkpt lat="44.0829633" lon="11.2829117"><ele>821.0</ele><time>2026-04-18T09:55:11.279Z</time></trkpt><trkpt lat="44.0828783" lon="11.282665"><ele>821.0</ele><time>2026-04-18T09:55:12.28Z</time></trkpt><trkpt lat="44.0828367" lon="11.282415"><ele>820.75</ele><time>2026-04-18T09:55:13.28Z</time></trkpt><trkpt lat="44.0828183" lon="11.2822067"><ele>820.5</ele><time>2026-04-18T09:55:14.28Z</time></trkpt><trkpt lat="44.082845" lon="11.2820517"><ele>820.25</ele><time>2026-04-18T09:55:15.279Z</time></trkpt><trkpt lat="44.0828867" lon="11.2819067"><ele>820.0</ele><time>2026-04-18T09:55:16.279Z</time></trkpt><trkpt lat="44.0829467" lon="11.28175"><ele>820.0</ele><time>2026-04-18T09:55:17.279Z</time></trkpt><trkpt lat="44.0830317" lon="11.2816233"><ele>820.0</ele><time>2026-04-18T09:55:18.28Z</time></trkpt><trkpt lat="44.0830983" lon="11.2814883"><ele>820.0</ele><time>2026-04-18T09:55:19.279Z</time></trkpt><trkpt lat="44.083125" lon="11.2813333"><ele>820.0</ele><time>2026-04-18T09:55:20.282Z</time></trkpt><trkpt lat="44.0831667" lon="11.28123"><ele>820.0</ele><time>2026-04-18T09:55:21.279Z</time></trkpt><trkpt lat="44.0832267" lon="11.2811417"><ele>822.4</ele><time>2026-04-18T09:55:22.278Z</time></trkpt><trkpt lat="44.0832967" lon="11.281065"><ele>824.8</ele><time>2026-04-18T09:55:23.28Z</time></trkpt><trkpt lat="44.08337" lon="11.2810233"><ele>827.2</ele><time>2026-04-18T09:55:24.281Z</time></trkpt><trkpt lat="44.0834717" lon="11.2809917"><ele>829.6</ele><time>2026-04-18T09:55:25.279Z</time></trkpt><trkpt lat="44.0836483" lon="11.2810083"><ele>832.0</ele><time>2026-04-18T09:55:26.28Z</time></trkpt><trkpt lat="44.0838283" lon="11.2810833"><ele>832.0</ele><time>2026-04-18T09:55:27.279Z</time></trkpt><trkpt lat="44.0839683" lon="11.28118"><ele>832.0</ele><time>2026-04-18T09:55:28.278Z</time></trkpt><trkpt lat="44.08408" lon="11.2813083"><ele>832.0</ele><time>2026-04-18T09:55:29.279Z</time></trkpt><trkpt lat="44.08417" lon="11.2813833"><ele>832.0</ele><time>2026-04-18T09:55:30.28Z</time></trkpt><trkpt lat="44.0842733" lon="11.28147"><ele>833.6</ele><time>2026-04-18T09:55:31.28Z</time></trkpt><trkpt lat="44.0843583" lon="11.2815167"><ele>835.2</ele><time>2026-04-18T09:55:32.279Z</time></trkpt><trkpt lat="44.084445" lon="11.281565"><ele>836.8</ele><time>2026-04-18T09:55:33.28Z</time></trkpt><trkpt lat="44.084465" lon="11.2814533"><ele>838.4</ele><time>2026-04-18T09:55:34.279Z</time></trkpt><trkpt lat="44.084525" lon="11.2813733"><ele>840.0</ele><time>2026-04-18T09:55:35.28Z</time></trkpt><trkpt lat="44.0845883" lon="11.2812667"><ele>840.0</ele><time>2026-04-18T09:55:36.28Z</time></trkpt><trkpt lat="44.0846767" lon="11.28117"><ele>840.0</ele><time>2026-04-18T09:55:37.279Z</time></trkpt><trkpt lat="44.0847783" lon="11.2811167"><ele>840.0</ele><time>2026-04-18T09:55:38.279Z</time></trkpt><trkpt lat="44.0848783" lon="11.2811183"><ele>840.0</ele><time>2026-04-18T09:55:39.278Z</time></trkpt><trkpt lat="44.0849683" lon="11.2811433"><ele>840.0</ele><time>2026-04-18T09:55:40.279Z</time></trkpt><trkpt lat="44.0850417" lon="11.2812383"><ele>842.0</ele><time>2026-04-18T09:55:41.279Z</time></trkpt><trkpt lat="44.0851083" lon="11.2813267"><ele>844.0</ele><time>2026-04-18T09:55:42.28Z</time></trkpt><trkpt lat="44.0851833" lon="11.281405"><ele>846.0</ele><time>2026-04-18T09:55:43.28Z</time></trkpt><trkpt lat="44.0852733" lon="11.281465"><ele>848.0</ele><time>2026-04-18T09:55:44.278Z</time></trkpt><trkpt lat="44.085395" lon="11.2815033"><ele>850.0</ele><time>2026-04-18T09:55:45.28Z</time></trkpt><trkpt lat="44.0854967" lon="11.281525"><ele>853.4</ele><time>2026-04-18T09:55:46.28Z</time></trkpt><trkpt lat="44.085595" lon="11.2815567"><ele>856.8</ele><time>2026-04-18T09:55:47.279Z</time></trkpt><trkpt lat="44.0856867" lon="11.2815983"><ele>860.2</ele><time>2026-04-18T09:55:48.281Z</time></trkpt><trkpt lat="44.08578" lon="11.2816817"><ele>863.6</ele><time>2026-04-18T09:55:49.28Z</time></trkpt><trkpt lat="44.0858533" lon="11.2817583"><ele>867.0</ele><time>2026-04-18T09:55:50.28Z</time></trkpt><trkpt lat="44.085915" lon="11.2818283"><ele>868.0</ele><time>2026-04-18T09:55:51.28Z</time></trkpt><trkpt lat="44.0859767" lon="11.2818967"><ele>869.0</ele><time>2026-04-18T09:55:52.279Z</time></trkpt><trkpt lat="44.0860367" lon="11.2819533"><ele>870.0</ele><time>2026-04-18T09:55:53.281Z</time></trkpt><trkpt lat="44.086135" lon="11.28199"><ele>871.0</ele><time>2026-04-18T09:55:55.28Z</time></trkpt><trkpt lat="44.0861483" lon="11.2818967"><ele>872.0</ele><time>2026-04-18T09:55:56.281Z</time></trkpt><trkpt lat="44.0861583" lon="11.2817917"><ele>873.0</ele><time>2026-04-18T09:55:57.279Z</time></trkpt><trkpt lat="44.0861917" lon="11.2816433"><ele>873.0</ele><time>2026-04-18T09:55:59.28Z</time></trkpt><trkpt lat="44.0862483" lon="11.281555"><ele>873.0</ele><time>2026-04-18T09:56:00.28Z</time></trkpt><trkpt lat="44.0863317" lon="11.2814833"><ele>873.0</ele><time>2026-04-18T09:56:01.281Z</time></trkpt><trkpt lat="44.0864133" lon="11.2814983"><ele>873.0</ele><time>2026-04-18T09:56:02.28Z</time></trkpt><trkpt lat="44.0864783" lon="11.28152"><ele>873.0</ele><time>2026-04-18T09:56:03.278Z</time></trkpt><trkpt lat="44.0865333" lon="11.2815667"><ele>873.0</ele><time>2026-04-18T09:56:04.281Z</time></trkpt><trkpt lat="44.0866533" lon="11.2816167"><ele>874.5</ele><time>2026-04-18T09:56:06.279Z</time></trkpt><trkpt lat="44.0867233" lon="11.2816267"><ele>876.0</ele><time>2026-04-18T09:56:07.281Z</time></trkpt><trkpt lat="44.0867967" lon="11.281625"><ele>877.5</ele><time>2026-04-18T09:56:08.282Z</time></trkpt><trkpt lat="44.0868417" lon="11.281545"><ele>879.0</ele><time>2026-04-18T09:56:09.28Z</time></trkpt><trkpt lat="44.0868833" lon="11.2814633"><ele>880.5</ele><time>2026-04-18T09:56:10.279Z</time></trkpt><trkpt lat="44.086905" lon="11.2812817"><ele>882.0</ele><time>2026-04-18T09:56:12.279Z</time></trkpt><trkpt lat="44.0869" lon="11.2811767"><ele>882.0</ele><time>2026-04-18T09:56:13.28Z</time></trkpt><trkpt lat="44.0869067" lon="11.2810633"><ele>882.0</ele><time>2026-04-18T09:56:14.279Z</time></trkpt><trkpt lat="44.0869233" lon="11.280945"><ele>882.0</ele><time>2026-04-18T09:56:15.28Z</time></trkpt><trkpt lat="44.0869783" lon="11.280835"><ele>882.0</ele><time>2026-04-18T09:56:16.279Z</time></trkpt><trkpt lat="44.0870367" lon="11.2807283"><ele>882.0</ele><time>2026-04-18T09:56:17.281Z</time></trkpt><trkpt lat="44.087105" lon="11.2806383"><ele>880.6666666666666</ele><time>2026-04-18T09:56:18.28Z</time></trkpt><trkpt lat="44.0871717" lon="11.2805633"><ele>879.3333333333333</ele><time>2026-04-18T09:56:19.281Z</time></trkpt><trkpt lat="44.0872183" lon="11.2804883"><ele>878.0</ele><time>2026-04-18T09:56:20.28Z</time></trkpt><trkpt lat="44.0872917" lon="11.2804367"><ele>876.6666666666666</ele><time>2026-04-18T09:56:21.281Z</time></trkpt><trkpt lat="44.08737" lon="11.2804033"><ele>875.3333333333333</ele><time>2026-04-18T09:56:22.279Z</time></trkpt><trkpt lat="44.08745" lon="11.2804117"><ele>874.0</ele><time>2026-04-18T09:56:23.28Z</time></trkpt><trkpt lat="44.0875367" lon="11.2804367"><ele>873.25</ele><time>2026-04-18T09:56:24.28Z</time></trkpt><trkpt lat="44.0876317" lon="11.2805067"><ele>872.5</ele><time>2026-04-18T09:56:25.28Z</time></trkpt><trkpt lat="44.0877117" lon="11.280615"><ele>871.75</ele><time>2026-04-18T09:56:26.281Z</time></trkpt><trkpt lat="44.0877967" lon="11.2807417"><ele>871.0</ele><time>2026-04-18T09:56:27.279Z</time></trkpt><trkpt lat="44.0878883" lon="11.2808483"><ele>874.25</ele><time>2026-04-18T09:56:28.281Z</time></trkpt><trkpt lat="44.0880267" lon="11.281035"><ele>877.5</ele><time>2026-04-18T09:56:29.28Z</time></trkpt><trkpt lat="44.0881467" lon="11.28105"><ele>880.75</ele><time>2026-04-18T09:56:30.281Z</time></trkpt><trkpt lat="44.0882633" lon="11.2810783"><ele>884.0</ele><time>2026-04-18T09:56:31.28Z</time></trkpt><trkpt lat="44.088415" lon="11.28112"><ele>884.0</ele><time>2026-04-18T09:56:32.281Z</time></trkpt><trkpt lat="44.08858" lon="11.28115"><ele>884.0</ele><time>2026-04-18T09:56:33.28Z</time></trkpt><trkpt lat="44.0887533" lon="11.2812117"><ele>884.0</ele><time>2026-04-18T09:56:34.279Z</time></trkpt><trkpt lat="44.0889517" lon="11.2812767"><ele>886.3333333333334</ele><time>2026-04-18T09:56:35.28Z</time></trkpt><trkpt lat="44.0891317" lon="11.281295"><ele>888.6666666666667</ele><time>2026-04-18T09:56:36.28Z</time></trkpt><trkpt lat="44.0893167" lon="11.2812783"><ele>891.0</ele><time>2026-04-18T09:56:37.279Z</time></trkpt><trkpt lat="44.08949" lon="11.2812117"><ele>891.0</ele><time>2026-04-18T09:56:38.281Z</time></trkpt><trkpt lat="44.0896583" lon="11.2811367"><ele>891.0</ele><time>2026-04-18T09:56:39.281Z</time></trkpt><trkpt lat="44.089825" lon="11.2810667"><ele>891.0</ele><time>2026-04-18T09:56:40.279Z</time></trkpt><trkpt lat="44.08999" lon="11.2810117"><ele>892.0</ele><time>2026-04-18T09:56:41.281Z</time></trkpt><trkpt lat="44.0901533" lon="11.280995"><ele>893.0</ele><time>2026-04-18T09:56:42.28Z</time></trkpt><trkpt lat="44.090305" lon="11.28101"><ele>894.0</ele><time>2026-04-18T09:56:43.28Z</time></trkpt><trkpt lat="44.0904483" lon="11.281015"><ele>894.0</ele><time>2026-04-18T09:56:44.28Z</time></trkpt><trkpt lat="44.0905933" lon="11.2810083"><ele>894.0</ele><time>2026-04-18T09:56:45.28Z</time></trkpt><trkpt lat="44.090735" lon="11.2809467"><ele>894.0</ele><time>2026-04-18T09:56:46.281Z</time></trkpt><trkpt lat="44.0908767" lon="11.2808233"><ele>894.6666666666667</ele><time>2026-04-18T09:56:47.281Z</time></trkpt><trkpt lat="44.09102" lon="11.28069"><ele>895.3333333333334</ele><time>2026-04-18T09:56:48.28Z</time></trkpt><trkpt lat="44.09117" lon="11.2805533"><ele>896.0</ele><time>2026-04-18T09:56:49.279Z</time></trkpt><trkpt lat="44.0913383" lon="11.2804183"><ele>892.6666666666667</ele><time>2026-04-18T09:56:50.28Z</time></trkpt><trkpt lat="44.091515" lon="11.2802967"><ele>889.3333333333333</ele><time>2026-04-18T09:56:51.279Z</time></trkpt><trkpt lat="44.091695" lon="11.2801933"><ele>886.0</ele><time>2026-04-18T09:56:52.28Z</time></trkpt><trkpt lat="44.0918717" lon="11.2800933"><ele>886.0</ele><time>2026-04-18T09:56:53.281Z</time></trkpt><trkpt lat="44.0920317" lon="11.2800033"><ele>886.0</ele><time>2026-04-18T09:56:54.28Z</time></trkpt><trkpt lat="44.0921783" lon="11.27989"><ele>886.0</ele><time>2026-04-18T09:56:55.28Z</time></trkpt><trkpt lat="44.092295" lon="11.2797333"><ele>882.6666666666666</ele><time>2026-04-18T09:56:56.279Z</time></trkpt><trkpt lat="44.0923917" lon="11.2795267"><ele>879.3333333333333</ele><time>2026-04-18T09:56:57.279Z</time></trkpt><trkpt lat="44.0924733" lon="11.279295"><ele>876.0</ele><time>2026-04-18T09:56:58.278Z</time></trkpt><trkpt lat="44.09254" lon="11.2790567"><ele>881.0</ele><time>2026-04-18T09:56:59.281Z</time></trkpt><trkpt lat="44.092605" lon="11.278825"><ele>886.0</ele><time>2026-04-18T09:57:00.28Z</time></trkpt><trkpt lat="44.0926817" lon="11.27863"><ele>891.0</ele><time>2026-04-18T09:57:01.281Z</time></trkpt><trkpt lat="44.09278" lon="11.27849"><ele>891.0</ele><time>2026-04-18T09:57:02.279Z</time></trkpt><trkpt lat="44.0929017" lon="11.2783867"><ele>891.0</ele><time>2026-04-18T09:57:03.282Z</time></trkpt><trkpt lat="44.0930333" lon="11.2783067"><ele>891.0</ele><time>2026-04-18T09:57:04.281Z</time></trkpt><trkpt lat="44.09317" lon="11.2782417"><ele>891.0</ele><time>2026-04-18T09:57:05.281Z</time></trkpt><trkpt lat="44.093315" lon="11.2781617"><ele>893.0</ele><time>2026-04-18T09:57:06.282Z</time></trkpt><trkpt lat="44.09344" lon="11.2780483"><ele>895.0</ele><time>2026-04-18T09:57:07.28Z</time></trkpt><trkpt lat="44.0935717" lon="11.277925"><ele>897.0</ele><time>2026-04-18T09:57:08.282Z</time></trkpt><trkpt lat="44.0936983" lon="11.2777717"><ele>897.0</ele><time>2026-04-18T09:57:09.282Z</time></trkpt><trkpt lat="44.0938067" lon="11.2775883"><ele>897.0</ele><time>2026-04-18T09:57:10.281Z</time></trkpt><trkpt lat="44.0939033" lon="11.2774033"><ele>897.0</ele><time>2026-04-18T09:57:11.282Z</time></trkpt><trkpt lat="44.0939867" lon="11.2772217"><ele>895.75</ele><time>2026-04-18T09:57:12.282Z</time></trkpt><trkpt lat="44.0940533" lon="11.2770567"><ele>894.5</ele><time>2026-04-18T09:57:13.281Z</time></trkpt><trkpt lat="44.0941017" lon="11.276905"><ele>893.25</ele><time>2026-04-18T09:57:14.282Z</time></trkpt><trkpt lat="44.0941467" lon="11.2767533"><ele>892.0</ele><time>2026-04-18T09:57:15.282Z</time></trkpt><trkpt lat="44.0942033" lon="11.2766017"><ele>895.0</ele><time>2026-04-18T09:57:16.28Z</time></trkpt><trkpt lat="44.0942717" lon="11.27645"><ele>898.0</ele><time>2026-04-18T09:57:17.28Z</time></trkpt><trkpt lat="44.09435" lon="11.276295"><ele>901.0</ele><time>2026-04-18T09:57:18.282Z</time></trkpt><trkpt lat="44.0944317" lon="11.27613"><ele>904.0</ele><time>2026-04-18T09:57:19.281Z</time></trkpt><trkpt lat="44.0945233" lon="11.27596"><ele>904.0</ele><time>2026-04-18T09:57:20.282Z</time></trkpt><trkpt lat="44.094615" lon="11.2757983"><ele>904.0</ele><time>2026-04-18T09:57:21.282Z</time></trkpt><trkpt lat="44.0947167" lon="11.2756583"><ele>904.0</ele><time>2026-04-18T09:57:22.284Z</time></trkpt><trkpt lat="44.09482" lon="11.2755417"><ele>904.0</ele><time>2026-04-18T09:57:23.282Z</time></trkpt><trkpt lat="44.0949233" lon="11.2754517"><ele>906.2</ele><time>2026-04-18T09:57:24.281Z</time></trkpt><trkpt lat="44.0950367" lon="11.2753833"><ele>908.4000000000001</ele><time>2026-04-18T09:57:25.282Z</time></trkpt><trkpt lat="44.0951417" lon="11.27534"><ele>910.6</ele><time>2026-04-18T09:57:26.281Z</time></trkpt><trkpt lat="44.0952367" lon="11.2753083"><ele>912.8</ele><time>2026-04-18T09:57:27.28Z</time></trkpt><trkpt lat="44.0953167" lon="11.2752933"><ele>915.0</ele><time>2026-04-18T09:57:28.282Z</time></trkpt><trkpt lat="44.09539" lon="11.2752817"><ele>915.0</ele><time>2026-04-18T09:57:29.28Z</time></trkpt><trkpt lat="44.0954617" lon="11.2752667"><ele>915.0</ele><time>2026-04-18T09:57:30.281Z</time></trkpt><trkpt lat="44.0955483" lon="11.2752667"><ele>915.0</ele><time>2026-04-18T09:57:31.281Z</time></trkpt><trkpt lat="44.0956517" lon="11.275265"><ele>915.0</ele><time>2026-04-18T09:57:32.282Z</time></trkpt><trkpt lat="44.095785" lon="11.27526"><ele>915.0</ele><time>2026-04-18T09:57:33.282Z</time></trkpt><trkpt lat="44.0959267" lon="11.2752433"><ele>916.3333333333333</ele><time>2026-04-18T09:57:34.281Z</time></trkpt><trkpt lat="44.0960817" lon="11.275205"><ele>917.6666666666666</ele><time>2026-04-18T09:57:35.281Z</time></trkpt><trkpt lat="44.096245" lon="11.2751483"><ele>919.0</ele><time>2026-04-18T09:57:36.282Z</time></trkpt><trkpt lat="44.0964217" lon="11.2751"><ele>919.6666666666666</ele><time>2026-04-18T09:57:37.281Z</time></trkpt><trkpt lat="44.096595" lon="11.2750417"><ele>920.3333333333333</ele><time>2026-04-18T09:57:38.283Z</time></trkpt><trkpt lat="44.096775" lon="11.2749783"><ele>921.0</ele><time>2026-04-18T09:57:39.281Z</time></trkpt><trkpt lat="44.0969633" lon="11.2749283"><ele>921.0</ele><time>2026-04-18T09:57:40.281Z</time></trkpt><trkpt lat="44.097155" lon="11.274905"><ele>921.0</ele><time>2026-04-18T09:57:41.282Z</time></trkpt><trkpt lat="44.097355" lon="11.2749117"><ele>921.0</ele><time>2026-04-18T09:57:42.282Z</time></trkpt><trkpt lat="44.097565" lon="11.2749517"><ele>918.6666666666667</ele><time>2026-04-18T09:57:43.282Z</time></trkpt><trkpt lat="44.09777" lon="11.2750017"><ele>916.3333333333334</ele><time>2026-04-18T09:57:44.281Z</time></trkpt><trkpt lat="44.0979667" lon="11.275065"><ele>914.0</ele><time>2026-04-18T09:57:45.281Z</time></trkpt><trkpt lat="44.098155" lon="11.275135"><ele>913.3333333333334</ele><time>2026-04-18T09:57:46.28Z</time></trkpt><trkpt lat="44.0983333" lon="11.275205"><ele>912.6666666666667</ele><time>2026-04-18T09:57:47.282Z</time></trkpt><trkpt lat="44.0984867" lon="11.275265"><ele>912.0</ele><time>2026-04-18T09:57:48.282Z</time></trkpt><trkpt lat="44.0986367" lon="11.2753083"><ele>912.0</ele><time>2026-04-18T09:57:49.282Z</time></trkpt><trkpt lat="44.0987883" lon="11.275325"><ele>912.0</ele><time>2026-04-18T09:57:50.283Z</time></trkpt><trkpt lat="44.09895" lon="11.2752617"><ele>912.0</ele><time>2026-04-18T09:57:51.281Z</time></trkpt><trkpt lat="44.0991317" lon="11.2752267"><ele>909.3333333333333</ele><time>2026-04-18T09:57:52.279Z</time></trkpt><trkpt lat="44.0993333" lon="11.2751717"><ele>906.6666666666666</ele><time>2026-04-18T09:57:53.28Z</time></trkpt><trkpt lat="44.0995117" lon="11.275155"><ele>904.0</ele><time>2026-04-18T09:57:54.281Z</time></trkpt><trkpt lat="44.0996767" lon="11.2751283"><ele>904.0</ele><time>2026-04-18T09:57:55.28Z</time></trkpt><trkpt lat="44.0998467" lon="11.275115"><ele>904.0</ele><time>2026-04-18T09:57:56.281Z</time></trkpt><trkpt lat="44.1000183" lon="11.27511"><ele>904.0</ele><time>2026-04-18T09:57:57.281Z</time></trkpt><trkpt lat="44.10018" lon="11.2751817"><ele>902.6666666666666</ele><time>2026-04-18T09:57:58.282Z</time></trkpt><trkpt lat="44.1003383" lon="11.2753217"><ele>901.3333333333333</ele><time>2026-04-18T09:57:59.282Z</time></trkpt><trkpt lat="44.1004783" lon="11.2755033"><ele>900.0</ele><time>2026-04-18T09:58:00.281Z</time></trkpt><trkpt lat="44.1006067" lon="11.2756967"><ele>898.3333333333333</ele><time>2026-04-18T09:58:01.282Z</time></trkpt><trkpt lat="44.100725" lon="11.2758667"><ele>896.6666666666666</ele><time>2026-04-18T09:58:02.282Z</time></trkpt><trkpt lat="44.1008467" lon="11.2759883"><ele>895.0</ele><time>2026-04-18T09:58:03.281Z</time></trkpt><trkpt lat="44.1009633" lon="11.2760833"><ele>895.0</ele><time>2026-04-18T09:58:04.281Z</time></trkpt><trkpt lat="44.10109" lon="11.276155"><ele>895.0</ele><time>2026-04-18T09:58:05.282Z</time></trkpt><trkpt lat="44.1012533" lon="11.2761733"><ele>895.0</ele><time>2026-04-18T09:58:06.28Z</time></trkpt><trkpt lat="44.1014117" lon="11.2761733"><ele>895.0</ele><time>2026-04-18T09:58:07.28Z</time></trkpt><trkpt lat="44.1015633" lon="11.27615"><ele>895.0</ele><time>2026-04-18T09:58:08.28Z</time></trkpt><trkpt lat="44.1017033" lon="11.2761433"><ele>895.0</ele><time>2026-04-18T09:58:09.281Z</time></trkpt><trkpt lat="44.1018467" lon="11.2762033"><ele>895.0</ele><time>2026-04-18T09:58:10.282Z</time></trkpt><trkpt lat="44.1019867" lon="11.2763267"><ele>892.3333333333333</ele><time>2026-04-18T09:58:11.281Z</time></trkpt><trkpt lat="44.1021067" lon="11.2764617"><ele>889.6666666666667</ele><time>2026-04-18T09:58:12.28Z</time></trkpt><trkpt lat="44.1022017" lon="11.2766333"><ele>887.0</ele><time>2026-04-18T09:58:13.28Z</time></trkpt><trkpt lat="44.1022633" lon="11.2768633"><ele>887.0</ele><time>2026-04-18T09:58:14.282Z</time></trkpt><trkpt lat="44.1023217" lon="11.2771167"><ele>887.0</ele><time>2026-04-18T09:58:15.282Z</time></trkpt><trkpt lat="44.1023583" lon="11.2773583"><ele>887.0</ele><time>2026-04-18T09:58:16.281Z</time></trkpt><trkpt lat="44.102415" lon="11.2775817"><ele>885.6666666666667</ele><time>2026-04-18T09:58:17.281Z</time></trkpt><trkpt lat="44.102445" lon="11.2778683"><ele>884.3333333333333</ele><time>2026-04-18T09:58:18.281Z</time></trkpt><trkpt lat="44.10248" lon="11.2780867"><ele>883.0</ele><time>2026-04-18T09:58:19.282Z</time></trkpt><trkpt lat="44.1025533" lon="11.2782817"><ele>883.0</ele><time>2026-04-18T09:58:20.281Z</time></trkpt><trkpt lat="44.1027167" lon="11.2784233"><ele>883.0</ele><time>2026-04-18T09:58:21.282Z</time></trkpt><trkpt lat="44.1028933" lon="11.2785917"><ele>883.0</ele><time>2026-04-18T09:58:22.281Z</time></trkpt><trkpt lat="44.1030683" lon="11.2787783"><ele>882.6666666666666</ele><time>2026-04-18T09:58:23.282Z</time></trkpt><trkpt lat="44.10324" lon="11.2789783"><ele>882.3333333333333</ele><time>2026-04-18T09:58:24.282Z</time></trkpt><trkpt lat="44.1034" lon="11.27919"><ele>882.0</ele><time>2026-04-18T09:58:25.282Z</time></trkpt><trkpt lat="44.103555" lon="11.27943"><ele>882.0</ele><time>2026-04-18T09:58:26.282Z</time></trkpt><trkpt lat="44.1037133" lon="11.2796817"><ele>882.0</ele><time>2026-04-18T09:58:27.281Z</time></trkpt><trkpt lat="44.10388" lon="11.2799333"><ele>883.0</ele><time>2026-04-18T09:58:28.281Z</time></trkpt><trkpt lat="44.1040567" lon="11.28018"><ele>884.0</ele><time>2026-04-18T09:58:29.281Z</time></trkpt><trkpt lat="44.1042433" lon="11.2804283"><ele>881.0</ele><time>2026-04-18T09:58:30.28Z</time></trkpt><trkpt lat="44.1044283" lon="11.2806617"><ele>878.0</ele><time>2026-04-18T09:58:31.281Z</time></trkpt><trkpt lat="44.1046033" lon="11.2808883"><ele>878.0</ele><time>2026-04-18T09:58:32.282Z</time></trkpt><trkpt lat="44.10477" lon="11.2810967"><ele>878.0</ele><time>2026-04-18T09:58:33.283Z</time></trkpt><trkpt lat="44.10493" lon="11.2812983"><ele>878.0</ele><time>2026-04-18T09:58:34.282Z</time></trkpt><trkpt lat="44.1050917" lon="11.28151"><ele>879.0</ele><time>2026-04-18T09:58:35.282Z</time></trkpt><trkpt lat="44.105255" lon="11.281735"><ele>880.0</ele><time>2026-04-18T09:58:36.283Z</time></trkpt><trkpt lat="44.1054183" lon="11.28196"><ele>880.0</ele><time>2026-04-18T09:58:37.281Z</time></trkpt><trkpt lat="44.10558" lon="11.282185"><ele>880.0</ele><time>2026-04-18T09:58:38.282Z</time></trkpt><trkpt lat="44.105735" lon="11.282415"><ele>879.6666666666666</ele><time>2026-04-18T09:58:39.282Z</time></trkpt><trkpt lat="44.10588" lon="11.2826417"><ele>879.3333333333333</ele><time>2026-04-18T09:58:40.282Z</time></trkpt><trkpt lat="44.106015" lon="11.282865"><ele>879.0</ele><time>2026-04-18T09:58:41.283Z</time></trkpt><trkpt lat="44.1061383" lon="11.283075"><ele>875.6666666666667</ele><time>2026-04-18T09:58:42.282Z</time></trkpt><trkpt lat="44.10626" lon="11.2832783"><ele>872.3333333333334</ele><time>2026-04-18T09:58:43.282Z</time></trkpt><trkpt lat="44.106385" lon="11.2834667"><ele>869.0</ele><time>2026-04-18T09:58:44.282Z</time></trkpt><trkpt lat="44.10651" lon="11.2836217"><ele>867.3333333333334</ele><time>2026-04-18T09:58:45.281Z</time></trkpt><trkpt lat="44.106645" lon="11.2837483"><ele>865.6666666666667</ele><time>2026-04-18T09:58:46.28Z</time></trkpt><trkpt lat="44.1067867" lon="11.2838617"><ele>864.0</ele><time>2026-04-18T09:58:47.281Z</time></trkpt><trkpt lat="44.1069417" lon="11.2839417"><ele>864.0</ele><time>2026-04-18T09:58:48.283Z</time></trkpt><trkpt lat="44.107105" lon="11.2839833"><ele>864.0</ele><time>2026-04-18T09:58:49.282Z</time></trkpt><trkpt lat="44.107275" lon="11.2839917"><ele>864.0</ele><time>2026-04-18T09:58:50.282Z</time></trkpt><trkpt lat="44.1074483" lon="11.2839767"><ele>863.3333333333333</ele><time>2026-04-18T09:58:51.282Z</time></trkpt><trkpt lat="44.1076167" lon="11.2839617"><ele>862.6666666666666</ele><time>2026-04-18T09:58:52.281Z</time></trkpt><trkpt lat="44.107785" lon="11.2839383"><ele>862.0</ele><time>2026-04-18T09:58:53.281Z</time></trkpt><trkpt lat="44.1079367" lon="11.2839067"><ele>862.5</ele><time>2026-04-18T09:58:54.281Z</time></trkpt><trkpt lat="44.1080817" lon="11.2838617"><ele>863.0</ele><time>2026-04-18T09:58:55.281Z</time></trkpt><trkpt lat="44.10822" lon="11.2837983"><ele>863.5</ele><time>2026-04-18T09:58:56.282Z</time></trkpt><trkpt lat="44.1083533" lon="11.28372"><ele>864.0</ele><time>2026-04-18T09:58:57.283Z</time></trkpt><trkpt lat="44.1084633" lon="11.28362"><ele>864.0</ele><time>2026-04-18T09:58:58.282Z</time></trkpt><trkpt lat="44.1085867" lon="11.283565"><ele>864.0</ele><time>2026-04-18T09:58:59.28Z</time></trkpt><trkpt lat="44.1087083" lon="11.2835233"><ele>864.0</ele><time>2026-04-18T09:59:00.282Z</time></trkpt><trkpt lat="44.1088333" lon="11.2835"><ele>864.0</ele><time>2026-04-18T09:59:01.282Z</time></trkpt><trkpt lat="44.1089633" lon="11.2834917"><ele>863.0</ele><time>2026-04-18T09:59:02.283Z</time></trkpt><trkpt lat="44.1090933" lon="11.2835017"><ele>862.0</ele><time>2026-04-18T09:59:03.282Z</time></trkpt><trkpt lat="44.109225" lon="11.2835283"><ele>861.0</ele><time>2026-04-18T09:59:04.281Z</time></trkpt><trkpt lat="44.1093483" lon="11.2835583"><ele>860.0</ele><time>2026-04-18T09:59:05.28Z</time></trkpt><trkpt lat="44.1094883" lon="11.2835933"><ele>860.0</ele><time>2026-04-18T09:59:06.281Z</time></trkpt><trkpt lat="44.10963" lon="11.28364"><ele>860.0</ele><time>2026-04-18T09:59:07.28Z</time></trkpt><trkpt lat="44.1097617" lon="11.2837033"><ele>860.0</ele><time>2026-04-18T09:59:08.279Z</time></trkpt><trkpt lat="44.10989" lon="11.2837783"><ele>860.0</ele><time>2026-04-18T09:59:09.279Z</time></trkpt><trkpt lat="44.1100183" lon="11.283875"><ele>857.0</ele><time>2026-04-18T09:59:10.278Z</time></trkpt><trkpt lat="44.1101533" lon="11.2839867"><ele>854.0</ele><time>2026-04-18T09:59:11.279Z</time></trkpt><trkpt lat="44.110285" lon="11.284105"><ele>851.0</ele><time>2026-04-18T09:59:12.28Z</time></trkpt><trkpt lat="44.1104217" lon="11.28422"><ele>851.0</ele><time>2026-04-18T09:59:13.279Z</time></trkpt><trkpt lat="44.110555" lon="11.2843267"><ele>851.0</ele><time>2026-04-18T09:59:14.28Z</time></trkpt><trkpt lat="44.11069" lon="11.28443"><ele>851.0</ele><time>2026-04-18T09:59:15.28Z</time></trkpt><trkpt lat="44.110825" lon="11.2845367"><ele>851.5</ele><time>2026-04-18T09:59:16.279Z</time></trkpt><trkpt lat="44.1109567" lon="11.28464"><ele>852.0</ele><time>2026-04-18T09:59:17.28Z</time></trkpt><trkpt lat="44.1110883" lon="11.2847417"><ele>852.5</ele><time>2026-04-18T09:59:18.281Z</time></trkpt><trkpt lat="44.1112167" lon="11.2848417"><ele>853.0</ele><time>2026-04-18T09:59:19.279Z</time></trkpt><trkpt lat="44.1113467" lon="11.28494"><ele>852.6666666666666</ele><time>2026-04-18T09:59:20.279Z</time></trkpt><trkpt lat="44.1114767" lon="11.2850133"><ele>852.3333333333333</ele><time>2026-04-18T09:59:21.28Z</time></trkpt><trkpt lat="44.1116183" lon="11.2850783"><ele>852.0</ele><time>2026-04-18T09:59:22.28Z</time></trkpt><trkpt lat="44.1117783" lon="11.2851183"><ele>852.0</ele><time>2026-04-18T09:59:23.279Z</time></trkpt><trkpt lat="44.1119567" lon="11.2851417"><ele>852.0</ele><time>2026-04-18T09:59:24.279Z</time></trkpt><trkpt lat="44.1121333" lon="11.2851633"><ele>852.0</ele><time>2026-04-18T09:59:25.279Z</time></trkpt><trkpt lat="44.1123067" lon="11.2851883"><ele>853.0</ele><time>2026-04-18T09:59:26.28Z</time></trkpt><trkpt lat="44.1124567" lon="11.2852117"><ele>854.0</ele><time>2026-04-18T09:59:27.279Z</time></trkpt><trkpt lat="44.1126283" lon="11.285295"><ele>855.0</ele><time>2026-04-18T09:59:28.28Z</time></trkpt><trkpt lat="44.1128033" lon="11.2854033"><ele>855.0</ele><time>2026-04-18T09:59:29.28Z</time></trkpt><trkpt lat="44.1129833" lon="11.285525"><ele>855.0</ele><time>2026-04-18T09:59:30.279Z</time></trkpt><trkpt lat="44.1131667" lon="11.2856533"><ele>855.0</ele><time>2026-04-18T09:59:31.279Z</time></trkpt><trkpt lat="44.11335" lon="11.2857783"><ele>853.6666666666667</ele><time>2026-04-18T09:59:32.28Z</time></trkpt><trkpt lat="44.113545" lon="11.285905"><ele>852.3333333333334</ele><time>2026-04-18T09:59:33.28Z</time></trkpt><trkpt lat="44.1137417" lon="11.2860533"><ele>851.0</ele><time>2026-04-18T09:59:34.28Z</time></trkpt><trkpt lat="44.1139283" lon="11.2861517"><ele>854.6666666666667</ele><time>2026-04-18T09:59:35.281Z</time></trkpt><trkpt lat="44.1141183" lon="11.2862383"><ele>858.3333333333333</ele><time>2026-04-18T09:59:36.28Z</time></trkpt><trkpt lat="44.1143267" lon="11.2863367"><ele>862.0</ele><time>2026-04-18T09:59:37.282Z</time></trkpt><trkpt lat="44.11453" lon="11.2864033"><ele>862.0</ele><time>2026-04-18T09:59:38.28Z</time></trkpt><trkpt lat="44.1147167" lon="11.2864517"><ele>862.0</ele><time>2026-04-18T09:59:39.279Z</time></trkpt><trkpt lat="44.114885" lon="11.2865233"><ele>862.0</ele><time>2026-04-18T09:59:40.278Z</time></trkpt><trkpt lat="44.1150483" lon="11.2866567"><ele>862.0</ele><time>2026-04-18T09:59:41.279Z</time></trkpt><trkpt lat="44.11519" lon="11.2868533"><ele>862.0</ele><time>2026-04-18T09:59:42.28Z</time></trkpt><trkpt lat="44.1153217" lon="11.287075"><ele>862.0</ele><time>2026-04-18T09:59:43.278Z</time></trkpt><trkpt lat="44.1154317" lon="11.2873367"><ele>859.6666666666666</ele><time>2026-04-18T09:59:44.28Z</time></trkpt><trkpt lat="44.1155217" lon="11.2875783"><ele>857.3333333333333</ele><time>2026-04-18T09:59:45.278Z</time></trkpt><trkpt lat="44.115595" lon="11.2878233"><ele>855.0</ele><time>2026-04-18T09:59:46.279Z</time></trkpt><trkpt lat="44.1156833" lon="11.288065"><ele>857.3333333333333</ele><time>2026-04-18T09:59:47.279Z</time></trkpt><trkpt lat="44.1157833" lon="11.2882717"><ele>859.6666666666666</ele><time>2026-04-18T09:59:48.279Z</time></trkpt><trkpt lat="44.1159033" lon="11.2884217"><ele>862.0</ele><time>2026-04-18T09:59:49.28Z</time></trkpt><trkpt lat="44.1160317" lon="11.2885233"><ele>862.0</ele><time>2026-04-18T09:59:50.279Z</time></trkpt><trkpt lat="44.1161717" lon="11.288595"><ele>862.0</ele><time>2026-04-18T09:59:51.279Z</time></trkpt><trkpt lat="44.1163583" lon="11.288375"><ele>862.0</ele><time>2026-04-18T09:59:52.28Z</time></trkpt><trkpt lat="44.1164817" lon="11.2881767"><ele>863.0</ele><time>2026-04-18T09:59:53.28Z</time></trkpt><trkpt lat="44.1165583" lon="11.2879183"><ele>864.0</ele><time>2026-04-18T09:59:54.28Z</time></trkpt><trkpt lat="44.116655" lon="11.287655"><ele>865.0</ele><time>2026-04-18T09:59:55.28Z</time></trkpt><trkpt lat="44.116715" lon="11.2873117"><ele>869.3333333333333</ele><time>2026-04-18T09:59:56.279Z</time></trkpt><trkpt lat="44.1168033" lon="11.2870767"><ele>873.6666666666667</ele><time>2026-04-18T09:59:57.279Z</time></trkpt><trkpt lat="44.116885" lon="11.2868533"><ele>878.0</ele><time>2026-04-18T09:59:58.279Z</time></trkpt><trkpt lat="44.1169717" lon="11.28668"><ele>878.0</ele><time>2026-04-18T09:59:59.278Z</time></trkpt><trkpt lat="44.117085" lon="11.2866117"><ele>878.0</ele><time>2026-04-18T10:00:00.28Z</time></trkpt><trkpt lat="44.117215" lon="11.2866133"><ele>878.0</ele><time>2026-04-18T10:00:01.28Z</time></trkpt><trkpt lat="44.1173383" lon="11.2866667"><ele>878.0</ele><time>2026-04-18T10:00:02.28Z</time></trkpt><trkpt lat="44.1174383" lon="11.2868067"><ele>873.6666666666667</ele><time>2026-04-18T10:00:03.28Z</time></trkpt><trkpt lat="44.117515" lon="11.2870183"><ele>869.3333333333333</ele><time>2026-04-18T10:00:04.278Z</time></trkpt><trkpt lat="44.1175683" lon="11.2873417"><ele>865.0</ele><time>2026-04-18T10:00:05.28Z</time></trkpt><trkpt lat="44.11761" lon="11.2876183"><ele>863.3333333333333</ele><time>2026-04-18T10:00:06.279Z</time></trkpt><trkpt lat="44.1176533" lon="11.28789"><ele>861.6666666666667</ele><time>2026-04-18T10:00:07.28Z</time></trkpt><trkpt lat="44.1177283" lon="11.288115"><ele>860.0</ele><time>2026-04-18T10:00:08.28Z</time></trkpt><trkpt lat="44.1178233" lon="11.2883217"><ele>859.6666666666667</ele><time>2026-04-18T10:00:09.28Z</time></trkpt><trkpt lat="44.1179567" lon="11.28849"><ele>859.3333333333333</ele><time>2026-04-18T10:00:10.279Z</time></trkpt><trkpt lat="44.118115" lon="11.2886333"><ele>859.0</ele><time>2026-04-18T10:00:11.278Z</time></trkpt><trkpt lat="44.1182767" lon="11.2887883"><ele>862.3333333333333</ele><time>2026-04-18T10:00:12.279Z</time></trkpt><trkpt lat="44.1184533" lon="11.2889617"><ele>865.6666666666667</ele><time>2026-04-18T10:00:13.279Z</time></trkpt><trkpt lat="44.1186283" lon="11.289075"><ele>869.0</ele><time>2026-04-18T10:00:14.279Z</time></trkpt><trkpt lat="44.11878" lon="11.2892017"><ele>869.0</ele><time>2026-04-18T10:00:15.279Z</time></trkpt><trkpt lat="44.1189117" lon="11.289325"><ele>869.0</ele><time>2026-04-18T10:00:16.279Z</time></trkpt><trkpt lat="44.1190333" lon="11.2894683"><ele>869.0</ele><time>2026-04-18T10:00:17.279Z</time></trkpt><trkpt lat="44.1191367" lon="11.2896483"><ele>869.3333333333334</ele><time>2026-04-18T10:00:18.279Z</time></trkpt><trkpt lat="44.11921" lon="11.2898933"><ele>869.6666666666667</ele><time>2026-04-18T10:00:19.279Z</time></trkpt><trkpt lat="44.11924" lon="11.2901817"><ele>870.0</ele><time>2026-04-18T10:00:20.28Z</time></trkpt><trkpt lat="44.1192233" lon="11.2905033"><ele>867.0</ele><time>2026-04-18T10:00:21.279Z</time></trkpt><trkpt lat="44.119215" lon="11.2908317"><ele>864.0</ele><time>2026-04-18T10:00:22.278Z</time></trkpt><trkpt lat="44.1192067" lon="11.29115"><ele>863.3333333333333</ele><time>2026-04-18T10:00:23.28Z</time></trkpt><trkpt lat="44.1192033" lon="11.291435"><ele>862.6666666666666</ele><time>2026-04-18T10:00:24.279Z</time></trkpt><trkpt lat="44.1192183" lon="11.2917083"><ele>862.0</ele><time>2026-04-18T10:00:25.279Z</time></trkpt><trkpt lat="44.1192567" lon="11.2919717"><ele>862.0</ele><time>2026-04-18T10:00:26.279Z</time></trkpt><trkpt lat="44.119325" lon="11.29221"><ele>862.0</ele><time>2026-04-18T10:00:27.278Z</time></trkpt><trkpt lat="44.119415" lon="11.2924283"><ele>862.0</ele><time>2026-04-18T10:00:28.28Z</time></trkpt><trkpt lat="44.1195517" lon="11.29263"><ele>861.6666666666666</ele><time>2026-04-18T10:00:29.279Z</time></trkpt><trkpt lat="44.1197167" lon="11.292825"><ele>861.3333333333333</ele><time>2026-04-18T10:00:30.278Z</time></trkpt><trkpt lat="44.1198917" lon="11.2930183"><ele>861.0</ele><time>2026-04-18T10:00:31.28Z</time></trkpt><trkpt lat="44.1200767" lon="11.2932317"><ele>861.0</ele><time>2026-04-18T10:00:32.28Z</time></trkpt><trkpt lat="44.1202667" lon="11.2934483"><ele>861.0</ele><time>2026-04-18T10:00:33.28Z</time></trkpt><trkpt lat="44.1204367" lon="11.29366"><ele>861.0</ele><time>2026-04-18T10:00:34.28Z</time></trkpt><trkpt lat="44.120605" lon="11.2938883"><ele>861.0</ele><time>2026-04-18T10:00:35.278Z</time></trkpt><trkpt lat="44.1207533" lon="11.2941233"><ele>862.6666666666667</ele><time>2026-04-18T10:00:36.278Z</time></trkpt><trkpt lat="44.1208817" lon="11.2943817"><ele>864.3333333333334</ele><time>2026-04-18T10:00:37.279Z</time></trkpt><trkpt lat="44.12099" lon="11.294645"><ele>866.0</ele><time>2026-04-18T10:00:38.28Z</time></trkpt><trkpt lat="44.12111" lon="11.2949033"><ele>866.0</ele><time>2026-04-18T10:00:39.28Z</time></trkpt><trkpt lat="44.12124" lon="11.29515"><ele>866.0</ele><time>2026-04-18T10:00:40.279Z</time></trkpt><trkpt lat="44.121365" lon="11.2953867"><ele>866.0</ele><time>2026-04-18T10:00:41.279Z</time></trkpt><trkpt lat="44.1214883" lon="11.2955867"><ele>872.6666666666667</ele><time>2026-04-18T10:00:42.28Z</time></trkpt><trkpt lat="44.1216367" lon="11.2957433"><ele>879.3333333333333</ele><time>2026-04-18T10:00:43.28Z</time></trkpt><trkpt lat="44.121785" lon="11.295875"><ele>886.0</ele><time>2026-04-18T10:00:44.279Z</time></trkpt><trkpt lat="44.1219133" lon="11.2959967"><ele>886.0</ele><time>2026-04-18T10:00:45.278Z</time></trkpt><trkpt lat="44.122015" lon="11.2961433"><ele>886.0</ele><time>2026-04-18T10:00:46.28Z</time></trkpt><trkpt lat="44.1220917" lon="11.29633"><ele>886.0</ele><time>2026-04-18T10:00:47.28Z</time></trkpt><trkpt lat="44.1221117" lon="11.296565"><ele>886.0</ele><time>2026-04-18T10:00:48.279Z</time></trkpt><trkpt lat="44.1221033" lon="11.2968433"><ele>886.0</ele><time>2026-04-18T10:00:49.281Z</time></trkpt><trkpt lat="44.1220883" lon="11.2971467"><ele>886.0</ele><time>2026-04-18T10:00:50.28Z</time></trkpt><trkpt lat="44.1220733" lon="11.2974617"><ele>886.0</ele><time>2026-04-18T10:00:51.28Z</time></trkpt><trkpt lat="44.1220683" lon="11.297775"><ele>886.0</ele><time>2026-04-18T10:00:52.278Z</time></trkpt><trkpt lat="44.1220633" lon="11.29808"><ele>886.0</ele><time>2026-04-18T10:00:53.278Z</time></trkpt><trkpt lat="44.122075" lon="11.2983683"><ele>885.6666666666666</ele><time>2026-04-18T10:00:54.28Z</time></trkpt><trkpt lat="44.1221017" lon="11.29865"><ele>885.3333333333333</ele><time>2026-04-18T10:00:55.28Z</time></trkpt><trkpt lat="44.1221867" lon="11.298915"><ele>885.0</ele><time>2026-04-18T10:00:56.28Z</time></trkpt><trkpt lat="44.1222883" lon="11.2991917"><ele>892.0</ele><time>2026-04-18T10:00:57.278Z</time></trkpt><trkpt lat="44.1224033" lon="11.2994733"><ele>899.0</ele><time>2026-04-18T10:00:58.279Z</time></trkpt><trkpt lat="44.1225183" lon="11.2997583"><ele>899.0</ele><time>2026-04-18T10:00:59.28Z</time></trkpt><trkpt lat="44.1226317" lon="11.300025"><ele>899.0</ele><time>2026-04-18T10:01:00.279Z</time></trkpt><trkpt lat="44.1227383" lon="11.3002717"><ele>899.0</ele><time>2026-04-18T10:01:01.279Z</time></trkpt><trkpt lat="44.1228467" lon="11.300485"><ele>899.0</ele><time>2026-04-18T10:01:02.282Z</time></trkpt><trkpt lat="44.1229517" lon="11.3006717"><ele>899.0</ele><time>2026-04-18T10:01:03.282Z</time></trkpt><trkpt lat="44.1230933" lon="11.3008017"><ele>899.0</ele><time>2026-04-18T10:01:04.279Z</time></trkpt><trkpt lat="44.12326" lon="11.3008783"><ele>904.0</ele><time>2026-04-18T10:01:05.278Z</time></trkpt><trkpt lat="44.1234517" lon="11.3009283"><ele>909.0</ele><time>2026-04-18T10:01:06.28Z</time></trkpt><trkpt lat="44.12365" lon="11.3009717"><ele>914.0</ele><time>2026-04-18T10:01:07.28Z</time></trkpt><trkpt lat="44.1238467" lon="11.3009967"><ele>914.0</ele><time>2026-04-18T10:01:08.281Z</time></trkpt><trkpt lat="44.1240567" lon="11.30101"><ele>914.0</ele><time>2026-04-18T10:01:09.279Z</time></trkpt><trkpt lat="44.1242683" lon="11.300965"><ele>914.0</ele><time>2026-04-18T10:01:10.277Z</time></trkpt><trkpt lat="44.1244833" lon="11.3009"><ele>913.6666666666667</ele><time>2026-04-18T10:01:11.281Z</time></trkpt><trkpt lat="44.1246983" lon="11.30084"><ele>913.3333333333333</ele><time>2026-04-18T10:01:12.281Z</time></trkpt><trkpt lat="44.1248833" lon="11.30072"><ele>913.0</ele><time>2026-04-18T10:01:13.279Z</time></trkpt><trkpt lat="44.1250933" lon="11.3006767"><ele>912.6666666666666</ele><time>2026-04-18T10:01:14.28Z</time></trkpt><trkpt lat="44.12531" lon="11.3006967"><ele>912.3333333333333</ele><time>2026-04-18T10:01:15.28Z</time></trkpt><trkpt lat="44.1255367" lon="11.3007167"><ele>912.0</ele><time>2026-04-18T10:01:16.28Z</time></trkpt><trkpt lat="44.1257517" lon="11.30074"><ele>914.6666666666667</ele><time>2026-04-18T10:01:17.279Z</time></trkpt><trkpt lat="44.1259467" lon="11.30074"><ele>917.3333333333334</ele><time>2026-04-18T10:01:18.281Z</time></trkpt><trkpt lat="44.126135" lon="11.3007433"><ele>920.0</ele><time>2026-04-18T10:01:19.278Z</time></trkpt><trkpt lat="44.1263183" lon="11.3008033"><ele>920.0</ele><time>2026-04-18T10:01:20.279Z</time></trkpt><trkpt lat="44.126495" lon="11.3008967"><ele>920.0</ele><time>2026-04-18T10:01:21.279Z</time></trkpt><trkpt lat="44.1266617" lon="11.301005"><ele>920.0</ele><time>2026-04-18T10:01:22.28Z</time></trkpt><trkpt lat="44.126835" lon="11.3011233"><ele>918.6666666666667</ele><time>2026-04-18T10:01:23.28Z</time></trkpt><trkpt lat="44.1270017" lon="11.3012933"><ele>917.3333333333333</ele><time>2026-04-18T10:01:24.281Z</time></trkpt><trkpt lat="44.127165" lon="11.3014733"><ele>916.0</ele><time>2026-04-18T10:01:25.278Z</time></trkpt><trkpt lat="44.1273333" lon="11.30167"><ele>920.6666666666666</ele><time>2026-04-18T10:01:26.28Z</time></trkpt><trkpt lat="44.1275" lon="11.3018583"><ele>925.3333333333333</ele><time>2026-04-18T10:01:27.279Z</time></trkpt><trkpt lat="44.127665" lon="11.302025"><ele>930.0</ele><time>2026-04-18T10:01:28.278Z</time></trkpt><trkpt lat="44.1278433" lon="11.3021683"><ele>928.3333333333333</ele><time>2026-04-18T10:01:29.279Z</time></trkpt><trkpt lat="44.128035" lon="11.3023"><ele>926.6666666666666</ele><time>2026-04-18T10:01:30.279Z</time></trkpt><trkpt lat="44.1282267" lon="11.3024267"><ele>925.0</ele><time>2026-04-18T10:01:31.278Z</time></trkpt><trkpt lat="44.1284283" lon="11.3025433"><ele>925.0</ele><time>2026-04-18T10:01:32.279Z</time></trkpt><trkpt lat="44.1286033" lon="11.30268"><ele>925.0</ele><time>2026-04-18T10:01:33.28Z</time></trkpt><trkpt lat="44.1287567" lon="11.3028467"><ele>925.0</ele><time>2026-04-18T10:01:34.28Z</time></trkpt><trkpt lat="44.1288633" lon="11.3030317"><ele>923.25</ele><time>2026-04-18T10:01:35.28Z</time></trkpt><trkpt lat="44.1289517" lon="11.3032283"><ele>921.5</ele><time>2026-04-18T10:01:36.279Z</time></trkpt><trkpt lat="44.1290117" lon="11.3034167"><ele>919.75</ele><time>2026-04-18T10:01:37.279Z</time></trkpt><trkpt lat="44.12907" lon="11.3035817"><ele>918.0</ele><time>2026-04-18T10:01:38.28Z</time></trkpt><trkpt lat="44.1291367" lon="11.3037117"><ele>918.0</ele><time>2026-04-18T10:01:39.28Z</time></trkpt><trkpt lat="44.1292317" lon="11.303775"><ele>918.0</ele><time>2026-04-18T10:01:40.278Z</time></trkpt><trkpt lat="44.1293933" lon="11.303745"><ele>918.0</ele><time>2026-04-18T10:01:41.281Z</time></trkpt><trkpt lat="44.1295533" lon="11.30377"><ele>918.0</ele><time>2026-04-18T10:01:42.28Z</time></trkpt><trkpt lat="44.1297067" lon="11.3038217"><ele>918.0</ele><time>2026-04-18T10:01:43.279Z</time></trkpt><trkpt lat="44.1298583" lon="11.303885"><ele>918.0</ele><time>2026-04-18T10:01:44.279Z</time></trkpt><trkpt lat="44.13001" lon="11.3039417"><ele>918.0</ele><time>2026-04-18T10:01:45.28Z</time></trkpt><trkpt lat="44.13016" lon="11.3040017"><ele>914.0</ele><time>2026-04-18T10:01:46.28Z</time></trkpt><trkpt lat="44.1303067" lon="11.3040633"><ele>910.0</ele><time>2026-04-18T10:01:47.279Z</time></trkpt><trkpt lat="44.1304467" lon="11.3041083"><ele>906.0</ele><time>2026-04-18T10:01:48.28Z</time></trkpt><trkpt lat="44.1305933" lon="11.30414"><ele>902.0</ele><time>2026-04-18T10:01:49.279Z</time></trkpt><trkpt lat="44.1307517" lon="11.3041617"><ele>902.0</ele><time>2026-04-18T10:01:50.279Z</time></trkpt><trkpt lat="44.1309" lon="11.3042033"><ele>902.0</ele><time>2026-04-18T10:01:51.278Z</time></trkpt><trkpt lat="44.13104" lon="11.3042433"><ele>902.0</ele><time>2026-04-18T10:01:52.28Z</time></trkpt><trkpt lat="44.13117" lon="11.3042833"><ele>902.0</ele><time>2026-04-18T10:01:53.279Z</time></trkpt><trkpt lat="44.1312967" lon="11.3043233"><ele>902.0</ele><time>2026-04-18T10:01:54.279Z</time></trkpt><trkpt lat="44.13141" lon="11.3043633"><ele>902.0</ele><time>2026-04-18T10:01:55.279Z</time></trkpt><trkpt lat="44.1315367" lon="11.30445"><ele>902.0</ele><time>2026-04-18T10:01:56.279Z</time></trkpt><trkpt lat="44.131665" lon="11.3045567"><ele>902.0</ele><time>2026-04-18T10:01:57.279Z</time></trkpt><trkpt lat="44.1317917" lon="11.3046683"><ele>898.25</ele><time>2026-04-18T10:01:58.279Z</time></trkpt><trkpt lat="44.1319217" lon="11.3047783"><ele>894.5</ele><time>2026-04-18T10:01:59.28Z</time></trkpt><trkpt lat="44.132045" lon="11.3048667"><ele>890.75</ele><time>2026-04-18T10:02:00.28Z</time></trkpt><trkpt lat="44.1321667" lon="11.3049417"><ele>887.0</ele><time>2026-04-18T10:02:01.279Z</time></trkpt><trkpt lat="44.1323033" lon="11.3050017"><ele>889.6666666666667</ele><time>2026-04-18T10:02:02.281Z</time></trkpt><trkpt lat="44.1324517" lon="11.305025"><ele>892.3333333333333</ele><time>2026-04-18T10:02:03.278Z</time></trkpt><trkpt lat="44.1326117" lon="11.305045"><ele>895.0</ele><time>2026-04-18T10:02:04.278Z</time></trkpt><trkpt lat="44.1327567" lon="11.305035"><ele>895.0</ele><time>2026-04-18T10:02:05.279Z</time></trkpt><trkpt lat="44.1329" lon="11.3050067"><ele>895.0</ele><time>2026-04-18T10:02:06.279Z</time></trkpt><trkpt lat="44.133035" lon="11.3049667"><ele>895.0</ele><time>2026-04-18T10:02:07.279Z</time></trkpt><trkpt lat="44.1332017" lon="11.30492"><ele>893.25</ele><time>2026-04-18T10:02:08.281Z</time></trkpt><trkpt lat="44.1333333" lon="11.3048583"><ele>891.5</ele><time>2026-04-18T10:02:09.28Z</time></trkpt><trkpt lat="44.1334417" lon="11.3047917"><ele>889.75</ele><time>2026-04-18T10:02:10.28Z</time></trkpt><trkpt lat="44.1335483" lon="11.304735"><ele>888.0</ele><time>2026-04-18T10:02:11.28Z</time></trkpt><trkpt lat="44.1336467" lon="11.3047317"><ele>888.0</ele><time>2026-04-18T10:02:12.282Z</time></trkpt><trkpt lat="44.13373" lon="11.3047767"><ele>888.0</ele><time>2026-04-18T10:02:13.281Z</time></trkpt><trkpt lat="44.133805" lon="11.304845"><ele>888.0</ele><time>2026-04-18T10:02:14.281Z</time></trkpt><trkpt lat="44.13386" lon="11.304945"><ele>888.0</ele><time>2026-04-18T10:02:15.282Z</time></trkpt><trkpt lat="44.13389" lon="11.305065"><ele>888.0</ele><time>2026-04-18T10:02:16.28Z</time></trkpt><trkpt lat="44.13391" lon="11.3051767"><ele>888.0</ele><time>2026-04-18T10:02:17.281Z</time></trkpt><trkpt lat="44.1339317" lon="11.3052833"><ele>888.0</ele><time>2026-04-18T10:02:18.282Z</time></trkpt><trkpt lat="44.1339717" lon="11.30538"><ele>888.0</ele><time>2026-04-18T10:02:19.279Z</time></trkpt><trkpt lat="44.1340133" lon="11.3054617"><ele>888.0</ele><time>2026-04-18T10:02:20.281Z</time></trkpt><trkpt lat="44.1340633" lon="11.3055333"><ele>888.0</ele><time>2026-04-18T10:02:21.28Z</time></trkpt><trkpt lat="44.13412" lon="11.3056033"><ele>888.0</ele><time>2026-04-18T10:02:22.279Z</time></trkpt><trkpt lat="44.1341833" lon="11.3056733"><ele>888.0</ele><time>2026-04-18T10:02:23.28Z</time></trkpt><trkpt lat="44.1342567" lon="11.3057483"><ele>884.5999999999999</ele><time>2026-04-18T10:02:24.281Z</time></trkpt><trkpt lat="44.1343333" lon="11.3058117"><ele>881.1999999999999</ele><time>2026-04-18T10:02:25.281Z</time></trkpt><trkpt lat="44.134425" lon="11.3058717"><ele>877.8</ele><time>2026-04-18T10:02:26.281Z</time></trkpt><trkpt lat="44.1345183" lon="11.3059083"><ele>874.4</ele><time>2026-04-18T10:02:27.282Z</time></trkpt><trkpt lat="44.1346117" lon="11.3059467"><ele>871.0</ele><time>2026-04-18T10:02:28.279Z</time></trkpt><trkpt lat="44.13471" lon="11.30598"><ele>871.0</ele><time>2026-04-18T10:02:29.281Z</time></trkpt><trkpt lat="44.1348017" lon="11.305995"><ele>870.9999999999999</ele><time>2026-04-18T10:02:30.28Z</time></trkpt><trkpt lat="44.1348983" lon="11.306025"><ele>870.9999999999999</ele><time>2026-04-18T10:02:31.28Z</time></trkpt><trkpt lat="44.1349983" lon="11.3060533"><ele>871.0</ele><time>2026-04-18T10:02:32.281Z</time></trkpt><trkpt lat="44.135095" lon="11.3060767"><ele>871.0</ele><time>2026-04-18T10:02:33.28Z</time></trkpt><trkpt lat="44.1351967" lon="11.3061017"><ele>873.4</ele><time>2026-04-18T10:02:34.281Z</time></trkpt><trkpt lat="44.1353017" lon="11.30613"><ele>875.8</ele><time>2026-04-18T10:02:35.284Z</time></trkpt><trkpt lat="44.1354017" lon="11.306155"><ele>878.1999999999999</ele><time>2026-04-18T10:02:36.28Z</time></trkpt><trkpt lat="44.135495" lon="11.3061833"><ele>880.5999999999999</ele><time>2026-04-18T10:02:37.282Z</time></trkpt><trkpt lat="44.1355817" lon="11.30621"><ele>883.0</ele><time>2026-04-18T10:02:38.282Z</time></trkpt><trkpt lat="44.1356583" lon="11.30624"><ele>882.4</ele><time>2026-04-18T10:02:39.282Z</time></trkpt><trkpt lat="44.1357367" lon="11.3062917"><ele>881.8</ele><time>2026-04-18T10:02:40.281Z</time></trkpt><trkpt lat="44.13581" lon="11.3063667"><ele>881.2</ele><time>2026-04-18T10:02:41.28Z</time></trkpt><trkpt lat="44.1358833" lon="11.3064633"><ele>880.6</ele><time>2026-04-18T10:02:42.281Z</time></trkpt><trkpt lat="44.1359483" lon="11.306555"><ele>880.0</ele><time>2026-04-18T10:02:43.28Z</time></trkpt><trkpt lat="44.1360067" lon="11.30664"><ele>876.6</ele><time>2026-04-18T10:02:44.283Z</time></trkpt><trkpt lat="44.1360667" lon="11.3067317"><ele>873.2</ele><time>2026-04-18T10:02:45.283Z</time></trkpt><trkpt lat="44.1361133" lon="11.3068367"><ele>869.8</ele><time>2026-04-18T10:02:46.28Z</time></trkpt><trkpt lat="44.136155" lon="11.3069517"><ele>866.4</ele><time>2026-04-18T10:02:47.28Z</time></trkpt><trkpt lat="44.1361867" lon="11.30708"><ele>863.0</ele><time>2026-04-18T10:02:48.282Z</time></trkpt><trkpt lat="44.1362217" lon="11.3072183"><ele>861.25</ele><time>2026-04-18T10:02:49.282Z</time></trkpt><trkpt lat="44.136265" lon="11.30737"><ele>859.5</ele><time>2026-04-18T10:02:50.283Z</time></trkpt><trkpt lat="44.136315" lon="11.3075133"><ele>857.75</ele><time>2026-04-18T10:02:51.281Z</time></trkpt><trkpt lat="44.1363667" lon="11.3076567"><ele>856.0</ele><time>2026-04-18T10:02:52.28Z</time></trkpt><trkpt lat="44.1364183" lon="11.307785"><ele>856.0</ele><time>2026-04-18T10:02:53.282Z</time></trkpt><trkpt lat="44.1364733" lon="11.3079067"><ele>855.9999999999999</ele><time>2026-04-18T10:02:54.281Z</time></trkpt><trkpt lat="44.1365283" lon="11.308015"><ele>855.9999999999999</ele><time>2026-04-18T10:02:55.281Z</time></trkpt><trkpt lat="44.136575" lon="11.3081233"><ele>856.0</ele><time>2026-04-18T10:02:56.281Z</time></trkpt><trkpt lat="44.1366317" lon="11.308225"><ele>856.0</ele><time>2026-04-18T10:02:57.282Z</time></trkpt><trkpt lat="44.1366983" lon="11.3083183"><ele>856.75</ele><time>2026-04-18T10:02:58.281Z</time></trkpt><trkpt lat="44.1367867" lon="11.30841"><ele>857.5</ele><time>2026-04-18T10:02:59.282Z</time></trkpt><trkpt lat="44.1368733" lon="11.3084917"><ele>858.25</ele><time>2026-04-18T10:03:00.282Z</time></trkpt><trkpt lat="44.13698" lon="11.3085683"><ele>859.0</ele><time>2026-04-18T10:03:01.28Z</time></trkpt><trkpt lat="44.1370833" lon="11.3086417"><ele>859.0</ele><time>2026-04-18T10:03:02.279Z</time></trkpt><trkpt lat="44.1372" lon="11.3087283"><ele>859.0</ele><time>2026-04-18T10:03:03.281Z</time></trkpt><trkpt lat="44.1373133" lon="11.3088117"><ele>859.0</ele><time>2026-04-18T10:03:04.28Z</time></trkpt><trkpt lat="44.1374217" lon="11.3088783"><ele>859.0</ele><time>2026-04-18T10:03:05.281Z</time></trkpt><trkpt lat="44.1375267" lon="11.3089517"><ele>858.2</ele><time>2026-04-18T10:03:06.281Z</time></trkpt><trkpt lat="44.13762" lon="11.30902"><ele>857.4000000000001</ele><time>2026-04-18T10:03:07.281Z</time></trkpt><trkpt lat="44.13771" lon="11.309105"><ele>856.6</ele><time>2026-04-18T10:03:08.282Z</time></trkpt><trkpt lat="44.1377833" lon="11.3092117"><ele>855.8</ele><time>2026-04-18T10:03:09.28Z</time></trkpt><trkpt lat="44.1378417" lon="11.3093433"><ele>855.0</ele><time>2026-04-18T10:03:10.282Z</time></trkpt><trkpt lat="44.1378767" lon="11.3094767"><ele>855.0</ele><time>2026-04-18T10:03:11.281Z</time></trkpt><trkpt lat="44.1379117" lon="11.30963"><ele>855.0</ele><time>2026-04-18T10:03:12.283Z</time></trkpt><trkpt lat="44.1379417" lon="11.3097817"><ele>855.0</ele><time>2026-04-18T10:03:13.282Z</time></trkpt><trkpt lat="44.1379767" lon="11.3099483"><ele>855.0</ele><time>2026-04-18T10:03:14.282Z</time></trkpt><trkpt lat="44.1380283" lon="11.31016"><ele>853.6666666666667</ele><time>2026-04-18T10:03:15.283Z</time></trkpt><trkpt lat="44.1380883" lon="11.31037"><ele>852.3333333333334</ele><time>2026-04-18T10:03:16.283Z</time></trkpt><trkpt lat="44.13815" lon="11.3105983"><ele>851.0</ele><time>2026-04-18T10:03:17.282Z</time></trkpt><trkpt lat="44.13821" lon="11.3108183"><ele>851.0</ele><time>2026-04-18T10:03:18.281Z</time></trkpt><trkpt lat="44.1382817" lon="11.3110217"><ele>851.0</ele><time>2026-04-18T10:03:19.282Z</time></trkpt><trkpt lat="44.1383133" lon="11.3112167"><ele>851.0</ele><time>2026-04-18T10:03:20.281Z</time></trkpt><trkpt lat="44.138325" lon="11.311435"><ele>851.0</ele><time>2026-04-18T10:03:21.281Z</time></trkpt><trkpt lat="44.1383133" lon="11.3116467"><ele>851.0</ele><time>2026-04-18T10:03:22.282Z</time></trkpt><trkpt lat="44.1382883" lon="11.3118467"><ele>851.0</ele><time>2026-04-18T10:03:23.281Z</time></trkpt><trkpt lat="44.1382633" lon="11.3120317"><ele>851.0</ele><time>2026-04-18T10:03:24.282Z</time></trkpt><trkpt lat="44.13828" lon="11.3122017"><ele>848.25</ele><time>2026-04-18T10:03:25.282Z</time></trkpt><trkpt lat="44.1383167" lon="11.3123667"><ele>845.5</ele><time>2026-04-18T10:03:26.282Z</time></trkpt><trkpt lat="44.13837" lon="11.3125217"><ele>842.75</ele><time>2026-04-18T10:03:27.281Z</time></trkpt><trkpt lat="44.13844" lon="11.3126883"><ele>840.0</ele><time>2026-04-18T10:03:28.28Z</time></trkpt><trkpt lat="44.1384817" lon="11.3128883"><ele>838.6666666666667</ele><time>2026-04-18T10:03:29.281Z</time></trkpt><trkpt lat="44.1385" lon="11.3131317"><ele>837.3333333333334</ele><time>2026-04-18T10:03:30.282Z</time></trkpt><trkpt lat="44.1384983" lon="11.3133983"><ele>836.0</ele><time>2026-04-18T10:03:31.28Z</time></trkpt><trkpt lat="44.1384783" lon="11.31369"><ele>836.0</ele><time>2026-04-18T10:03:32.28Z</time></trkpt><trkpt lat="44.1384533" lon="11.31398"><ele>836.0</ele><time>2026-04-18T10:03:33.28Z</time></trkpt><trkpt lat="44.1384467" lon="11.31429"><ele>836.0</ele><time>2026-04-18T10:03:34.28Z</time></trkpt><trkpt lat="44.1384317" lon="11.31462"><ele>836.5</ele><time>2026-04-18T10:03:35.282Z</time></trkpt><trkpt lat="44.1384333" lon="11.3149517"><ele>837.0</ele><time>2026-04-18T10:03:36.281Z</time></trkpt><trkpt lat="44.1384333" lon="11.3152717"><ele>836.0</ele><time>2026-04-18T10:03:37.281Z</time></trkpt><trkpt lat="44.138445" lon="11.3155833"><ele>835.0</ele><time>2026-04-18T10:03:38.283Z</time></trkpt><trkpt lat="44.13847" lon="11.3158817"><ele>834.0</ele><time>2026-04-18T10:03:39.281Z</time></trkpt><trkpt lat="44.1384983" lon="11.3161633"><ele>833.3333333333333</ele><time>2026-04-18T10:03:40.281Z</time></trkpt><trkpt lat="44.13854" lon="11.316425"><ele>832.6666666666666</ele><time>2026-04-18T10:03:41.281Z</time></trkpt><trkpt lat="44.1385917" lon="11.3166883"><ele>832.0</ele><time>2026-04-18T10:03:42.281Z</time></trkpt><trkpt lat="44.1386567" lon="11.31695"><ele>832.0</ele><time>2026-04-18T10:03:43.281Z</time></trkpt><trkpt lat="44.1387167" lon="11.317205"><ele>832.0</ele><time>2026-04-18T10:03:44.281Z</time></trkpt><trkpt lat="44.1387767" lon="11.3174483"><ele>832.0</ele><time>2026-04-18T10:03:45.28Z</time></trkpt><trkpt lat="44.1388217" lon="11.31769"><ele>828.6666666666666</ele><time>2026-04-18T10:03:46.28Z</time></trkpt><trkpt lat="44.1388417" lon="11.3179367"><ele>825.3333333333333</ele><time>2026-04-18T10:03:47.281Z</time></trkpt><trkpt lat="44.138835" lon="11.31819"><ele>822.0</ele><time>2026-04-18T10:03:48.282Z</time></trkpt><trkpt lat="44.138825" lon="11.3184433"><ele>820.6666666666667</ele><time>2026-04-18T10:03:49.282Z</time></trkpt><trkpt lat="44.1388183" lon="11.3187017"><ele>819.3333333333334</ele><time>2026-04-18T10:03:50.282Z</time></trkpt><trkpt lat="44.1387933" lon="11.3189483"><ele>818.0</ele><time>2026-04-18T10:03:51.281Z</time></trkpt><trkpt lat="44.1387783" lon="11.3191967"><ele>818.0</ele><time>2026-04-18T10:03:52.282Z</time></trkpt><trkpt lat="44.1387567" lon="11.31944"><ele>818.0</ele><time>2026-04-18T10:03:53.281Z</time></trkpt><trkpt lat="44.1387333" lon="11.31967"><ele>818.0</ele><time>2026-04-18T10:03:54.281Z</time></trkpt><trkpt lat="44.1387117" lon="11.3198783"><ele>819.25</ele><time>2026-04-18T10:03:55.282Z</time></trkpt><trkpt lat="44.1386983" lon="11.3200733"><ele>820.5</ele><time>2026-04-18T10:03:56.28Z</time></trkpt><trkpt lat="44.1387117" lon="11.3202417"><ele>821.75</ele><time>2026-04-18T10:03:57.28Z</time></trkpt><trkpt lat="44.1387417" lon="11.3204067"><ele>823.0</ele><time>2026-04-18T10:03:58.281Z</time></trkpt><trkpt lat="44.138785" lon="11.3205517"><ele>825.3333333333333</ele><time>2026-04-18T10:03:59.281Z</time></trkpt><trkpt lat="44.1389033" lon="11.3206483"><ele>827.6666666666667</ele><time>2026-04-18T10:04:00.281Z</time></trkpt><trkpt lat="44.139085" lon="11.3207633"><ele>830.0</ele><time>2026-04-18T10:04:01.281Z</time></trkpt><trkpt lat="44.1392583" lon="11.3209317"><ele>830.0</ele><time>2026-04-18T10:04:02.281Z</time></trkpt><trkpt lat="44.139435" lon="11.3211367"><ele>830.0</ele><time>2026-04-18T10:04:03.281Z</time></trkpt><trkpt lat="44.139595" lon="11.3213433"><ele>830.0</ele><time>2026-04-18T10:04:04.279Z</time></trkpt><trkpt lat="44.1397467" lon="11.3215217"><ele>832.6666666666667</ele><time>2026-04-18T10:04:05.281Z</time></trkpt><trkpt lat="44.139915" lon="11.321645"><ele>835.3333333333333</ele><time>2026-04-18T10:04:06.281Z</time></trkpt><trkpt lat="44.1400933" lon="11.3217217"><ele>838.0</ele><time>2026-04-18T10:04:07.28Z</time></trkpt><trkpt lat="44.1402683" lon="11.3217733"><ele>838.0</ele><time>2026-04-18T10:04:08.28Z</time></trkpt><trkpt lat="44.140425" lon="11.3218217"><ele>838.0</ele><time>2026-04-18T10:04:09.281Z</time></trkpt><trkpt lat="44.1405517" lon="11.3219067"><ele>838.0</ele><time>2026-04-18T10:04:10.28Z</time></trkpt><trkpt lat="44.1406533" lon="11.3220383"><ele>838.0</ele><time>2026-04-18T10:04:11.281Z</time></trkpt><trkpt lat="44.1407317" lon="11.322235"><ele>840.3333333333333</ele><time>2026-04-18T10:04:12.278Z</time></trkpt><trkpt lat="44.1408133" lon="11.3224767"><ele>842.6666666666667</ele><time>2026-04-18T10:04:13.279Z</time></trkpt><trkpt lat="44.1409083" lon="11.3227367"><ele>845.0</ele><time>2026-04-18T10:04:14.28Z</time></trkpt><trkpt lat="44.1410133" lon="11.3230083"><ele>843.6666666666667</ele><time>2026-04-18T10:04:15.281Z</time></trkpt><trkpt lat="44.1411133" lon="11.3232717"><ele>842.3333333333333</ele><time>2026-04-18T10:04:16.28Z</time></trkpt><trkpt lat="44.1411933" lon="11.3235183"><ele>841.0</ele><time>2026-04-18T10:04:17.279Z</time></trkpt><trkpt lat="44.1412383" lon="11.3237733"><ele>841.0</ele><time>2026-04-18T10:04:18.281Z</time></trkpt><trkpt lat="44.1412517" lon="11.3240367"><ele>841.0</ele><time>2026-04-18T10:04:19.28Z</time></trkpt><trkpt lat="44.1412383" lon="11.3243017"><ele>841.0</ele><time>2026-04-18T10:04:20.278Z</time></trkpt><trkpt lat="44.1412117" lon="11.32455"><ele>842.0</ele><time>2026-04-18T10:04:21.279Z</time></trkpt><trkpt lat="44.1411783" lon="11.3247867"><ele>843.0</ele><time>2026-04-18T10:04:22.279Z</time></trkpt><trkpt lat="44.1411367" lon="11.3250067"><ele>844.0</ele><time>2026-04-18T10:04:23.28Z</time></trkpt><trkpt lat="44.1410933" lon="11.3252"><ele>844.0</ele><time>2026-04-18T10:04:24.281Z</time></trkpt><trkpt lat="44.1410733" lon="11.3253867"><ele>844.0</ele><time>2026-04-18T10:04:25.281Z</time></trkpt><trkpt lat="44.141075" lon="11.3255767"><ele>844.0</ele><time>2026-04-18T10:04:26.28Z</time></trkpt><trkpt lat="44.1411017" lon="11.3257817"><ele>844.0</ele><time>2026-04-18T10:04:27.282Z</time></trkpt><trkpt lat="44.1411683" lon="11.3260167"><ele>844.6666666666666</ele><time>2026-04-18T10:04:28.281Z</time></trkpt><trkpt lat="44.141235" lon="11.3262633"><ele>845.3333333333333</ele><time>2026-04-18T10:04:29.278Z</time></trkpt><trkpt lat="44.1412717" lon="11.3265017"><ele>846.0</ele><time>2026-04-18T10:04:30.281Z</time></trkpt><trkpt lat="44.1412617" lon="11.3267283"><ele>846.0</ele><time>2026-04-18T10:04:31.279Z</time></trkpt><trkpt lat="44.1411967" lon="11.326925"><ele>846.0</ele><time>2026-04-18T10:04:32.28Z</time></trkpt><trkpt lat="44.1410967" lon="11.3270883"><ele>846.0</ele><time>2026-04-18T10:04:33.28Z</time></trkpt><trkpt lat="44.1409333" lon="11.327235"><ele>845.3333333333333</ele><time>2026-04-18T10:04:34.281Z</time></trkpt><trkpt lat="44.1407717" lon="11.3273683"><ele>844.6666666666666</ele><time>2026-04-18T10:04:35.282Z</time></trkpt><trkpt lat="44.140625" lon="11.3275"><ele>844.0</ele><time>2026-04-18T10:04:36.281Z</time></trkpt><trkpt lat="44.14051" lon="11.3276417"><ele>844.0</ele><time>2026-04-18T10:04:37.28Z</time></trkpt><trkpt lat="44.1404183" lon="11.3277917"><ele>844.0</ele><time>2026-04-18T10:04:38.28Z</time></trkpt><trkpt lat="44.14033" lon="11.3279517"><ele>844.0</ele><time>2026-04-18T10:04:39.28Z</time></trkpt><trkpt lat="44.1402533" lon="11.3281067"><ele>844.0</ele><time>2026-04-18T10:04:40.279Z</time></trkpt><trkpt lat="44.1401933" lon="11.3282633"><ele>844.0</ele><time>2026-04-18T10:04:41.279Z</time></trkpt><trkpt lat="44.14015" lon="11.32842"><ele>844.0</ele><time>2026-04-18T10:04:42.281Z</time></trkpt><trkpt lat="44.140295" lon="11.3286133"><ele>844.0</ele><time>2026-04-18T10:04:43.278Z</time></trkpt><trkpt lat="44.1405783" lon="11.328595"><ele>849.0</ele><time>2026-04-18T10:04:44.28Z</time></trkpt><trkpt lat="44.140755" lon="11.3286117"><ele>854.0</ele><time>2026-04-18T10:04:45.279Z</time></trkpt><trkpt lat="44.1409183" lon="11.3286117"><ele>859.0</ele><time>2026-04-18T10:04:46.278Z</time></trkpt><trkpt lat="44.141105" lon="11.3285167"><ele>859.0</ele><time>2026-04-18T10:04:47.277Z</time></trkpt><trkpt lat="44.14131" lon="11.328345"><ele>859.0</ele><time>2026-04-18T10:04:48.28Z</time></trkpt><trkpt lat="44.14161" lon="11.3280283"><ele>861.0</ele><time>2026-04-18T10:04:49.278Z</time></trkpt><trkpt lat="44.1417967" lon="11.3278533"><ele>863.0</ele><time>2026-04-18T10:04:50.278Z</time></trkpt><trkpt lat="44.1419833" lon="11.3276917"><ele>865.0</ele><time>2026-04-18T10:04:51.28Z</time></trkpt><trkpt lat="44.14217" lon="11.3275417"><ele>865.0</ele><time>2026-04-18T10:04:52.279Z</time></trkpt><trkpt lat="44.1423683" lon="11.32741"><ele>865.0</ele><time>2026-04-18T10:04:53.28Z</time></trkpt><trkpt lat="44.1425817" lon="11.3273067"><ele>865.0</ele><time>2026-04-18T10:04:54.279Z</time></trkpt><trkpt lat="44.1428017" lon="11.3272267"><ele>868.5</ele><time>2026-04-18T10:04:55.279Z</time></trkpt><trkpt lat="44.14303" lon="11.3271833"><ele>872.0</ele><time>2026-04-18T10:04:56.279Z</time></trkpt><trkpt lat="44.1432683" lon="11.3271767"><ele>869.0</ele><time>2026-04-18T10:04:57.279Z</time></trkpt><trkpt lat="44.1434983" lon="11.3271983"><ele>866.0</ele><time>2026-04-18T10:04:58.28Z</time></trkpt><trkpt lat="44.1437183" lon="11.3272567"><ele>866.0</ele><time>2026-04-18T10:04:59.28Z</time></trkpt><trkpt lat="44.1439233" lon="11.327345"><ele>866.0</ele><time>2026-04-18T10:05:00.279Z</time></trkpt><trkpt lat="44.14411" lon="11.3274317"><ele>866.0</ele><time>2026-04-18T10:05:01.28Z</time></trkpt><trkpt lat="44.1442783" lon="11.3275033"><ele>867.6666666666667</ele><time>2026-04-18T10:05:02.28Z</time></trkpt><trkpt lat="44.1444317" lon="11.32753"><ele>869.3333333333333</ele><time>2026-04-18T10:05:03.28Z</time></trkpt><trkpt lat="44.144585" lon="11.3275067"><ele>871.0</ele><time>2026-04-18T10:05:04.279Z</time></trkpt><trkpt lat="44.1447217" lon="11.3274333"><ele>874.3333333333333</ele><time>2026-04-18T10:05:05.28Z</time></trkpt><trkpt lat="44.144825" lon="11.327225"><ele>877.6666666666667</ele><time>2026-04-18T10:05:06.281Z</time></trkpt><trkpt lat="44.1449317" lon="11.327"><ele>881.0</ele><time>2026-04-18T10:05:07.28Z</time></trkpt><trkpt lat="44.14507" lon="11.3268167"><ele>881.0</ele><time>2026-04-18T10:05:08.281Z</time></trkpt><trkpt lat="44.1452417" lon="11.326695"><ele>881.0</ele><time>2026-04-18T10:05:09.28Z</time></trkpt><trkpt lat="44.1454383" lon="11.326635"><ele>881.0</ele><time>2026-04-18T10:05:10.279Z</time></trkpt><trkpt lat="44.14565" lon="11.3266333"><ele>880.3333333333334</ele><time>2026-04-18T10:05:11.279Z</time></trkpt><trkpt lat="44.14586" lon="11.3266933"><ele>879.6666666666667</ele><time>2026-04-18T10:05:12.28Z</time></trkpt><trkpt lat="44.1460667" lon="11.3267983"><ele>879.0</ele><time>2026-04-18T10:05:13.28Z</time></trkpt><trkpt lat="44.14627" lon="11.32693"><ele>879.0</ele><time>2026-04-18T10:05:14.281Z</time></trkpt><trkpt lat="44.1464717" lon="11.32706"><ele>879.0</ele><time>2026-04-18T10:05:15.281Z</time></trkpt><trkpt lat="44.14665" lon="11.3271417"><ele>879.0</ele><time>2026-04-18T10:05:16.278Z</time></trkpt><trkpt lat="44.1468617" lon="11.3272033"><ele>883.0</ele><time>2026-04-18T10:05:17.28Z</time></trkpt><trkpt lat="44.147065" lon="11.32722"><ele>887.0</ele><time>2026-04-18T10:05:18.281Z</time></trkpt><trkpt lat="44.1472583" lon="11.3272183"><ele>891.0</ele><time>2026-04-18T10:05:19.279Z</time></trkpt><trkpt lat="44.1474533" lon="11.327225"><ele>889.3333333333333</ele><time>2026-04-18T10:05:20.28Z</time></trkpt><trkpt lat="44.14763" lon="11.3272783"><ele>887.6666666666666</ele><time>2026-04-18T10:05:21.279Z</time></trkpt><trkpt lat="44.1477983" lon="11.3273583"><ele>886.0</ele><time>2026-04-18T10:05:22.28Z</time></trkpt><trkpt lat="44.1479433" lon="11.3274367"><ele>886.0</ele><time>2026-04-18T10:05:23.28Z</time></trkpt><trkpt lat="44.1480783" lon="11.3274917"><ele>886.0</ele><time>2026-04-18T10:05:24.281Z</time></trkpt><trkpt lat="44.1482133" lon="11.327505"><ele>886.0</ele><time>2026-04-18T10:05:25.28Z</time></trkpt><trkpt lat="44.1483433" lon="11.3274333"><ele>886.0</ele><time>2026-04-18T10:05:26.28Z</time></trkpt><trkpt lat="44.148485" lon="11.327285"><ele>892.3333333333333</ele><time>2026-04-18T10:05:27.28Z</time></trkpt><trkpt lat="44.14862" lon="11.32709"><ele>898.6666666666667</ele><time>2026-04-18T10:05:28.28Z</time></trkpt><trkpt lat="44.1487683" lon="11.3268633"><ele>905.0</ele><time>2026-04-18T10:05:29.28Z</time></trkpt><trkpt lat="44.14891" lon="11.3266667"><ele>906.0</ele><time>2026-04-18T10:05:30.281Z</time></trkpt><trkpt lat="44.1490567" lon="11.32647"><ele>907.0</ele><time>2026-04-18T10:05:31.28Z</time></trkpt><trkpt lat="44.1491983" lon="11.3262683"><ele>908.0</ele><time>2026-04-18T10:05:32.28Z</time></trkpt><trkpt lat="44.1493417" lon="11.32609"><ele>908.0</ele><time>2026-04-18T10:05:33.279Z</time></trkpt><trkpt lat="44.1495167" lon="11.3259533"><ele>908.0</ele><time>2026-04-18T10:05:34.279Z</time></trkpt><trkpt lat="44.149685" lon="11.32585"><ele>908.0</ele><time>2026-04-18T10:05:35.281Z</time></trkpt><trkpt lat="44.1498667" lon="11.3258067"><ele>904.0</ele><time>2026-04-18T10:05:36.281Z</time></trkpt><trkpt lat="44.1500667" lon="11.3258167"><ele>900.0</ele><time>2026-04-18T10:05:37.279Z</time></trkpt><trkpt lat="44.1502867" lon="11.3258433"><ele>896.0</ele><time>2026-04-18T10:05:38.28Z</time></trkpt><trkpt lat="44.1505067" lon="11.32585"><ele>893.0</ele><time>2026-04-18T10:05:39.281Z</time></trkpt><trkpt lat="44.1507133" lon="11.32583"><ele>890.0</ele><time>2026-04-18T10:05:40.281Z</time></trkpt><trkpt lat="44.1509167" lon="11.3258033"><ele>887.0</ele><time>2026-04-18T10:05:41.279Z</time></trkpt><trkpt lat="44.1511133" lon="11.3257517"><ele>887.0</ele><time>2026-04-18T10:05:42.278Z</time></trkpt><trkpt lat="44.151315" lon="11.3256683"><ele>887.0</ele><time>2026-04-18T10:05:43.28Z</time></trkpt><trkpt lat="44.151505" lon="11.3255617"><ele>887.0</ele><time>2026-04-18T10:05:44.281Z</time></trkpt><trkpt lat="44.1516833" lon="11.3254267"><ele>891.0</ele><time>2026-04-18T10:05:45.28Z</time></trkpt><trkpt lat="44.151855" lon="11.3252867"><ele>895.0</ele><time>2026-04-18T10:05:46.279Z</time></trkpt><trkpt lat="44.1520267" lon="11.3251433"><ele>899.0</ele><time>2026-04-18T10:05:47.279Z</time></trkpt><trkpt lat="44.15219" lon="11.325005"><ele>899.0</ele><time>2026-04-18T10:05:48.279Z</time></trkpt><trkpt lat="44.1523483" lon="11.3248733"><ele>899.0</ele><time>2026-04-18T10:05:49.279Z</time></trkpt><trkpt lat="44.1524933" lon="11.3247467"><ele>899.0</ele><time>2026-04-18T10:05:50.279Z</time></trkpt><trkpt lat="44.1526317" lon="11.3246183"><ele>900.6666666666667</ele><time>2026-04-18T10:05:51.28Z</time></trkpt><trkpt lat="44.1527867" lon="11.324505"><ele>902.3333333333333</ele><time>2026-04-18T10:05:52.28Z</time></trkpt><trkpt lat="44.1529383" lon="11.3244317"><ele>904.0</ele><time>2026-04-18T10:05:53.279Z</time></trkpt><trkpt lat="44.1531033" lon="11.3244167"><ele>901.3333333333333</ele><time>2026-04-18T10:05:54.279Z</time></trkpt><trkpt lat="44.15328" lon="11.324455"><ele>898.6666666666667</ele><time>2026-04-18T10:05:55.278Z</time></trkpt><trkpt lat="44.1534717" lon="11.324605"><ele>896.0</ele><time>2026-04-18T10:05:56.279Z</time></trkpt><trkpt lat="44.1536417" lon="11.3247483"><ele>894.3333333333334</ele><time>2026-04-18T10:05:57.281Z</time></trkpt><trkpt lat="44.1538017" lon="11.3248833"><ele>892.6666666666667</ele><time>2026-04-18T10:05:58.28Z</time></trkpt><trkpt lat="44.1539667" lon="11.324995"><ele>891.0</ele><time>2026-04-18T10:05:59.28Z</time></trkpt><trkpt lat="44.1541533" lon="11.325085"><ele>891.0</ele><time>2026-04-18T10:06:00.279Z</time></trkpt><trkpt lat="44.1543267" lon="11.3251417"><ele>891.0</ele><time>2026-04-18T10:06:01.28Z</time></trkpt><trkpt lat="44.1544783" lon="11.3251433"><ele>891.0</ele><time>2026-04-18T10:06:02.281Z</time></trkpt><trkpt lat="44.1546133" lon="11.325075"><ele>891.0</ele><time>2026-04-18T10:06:03.279Z</time></trkpt><trkpt lat="44.154725" lon="11.3249383"><ele>891.0</ele><time>2026-04-18T10:06:04.282Z</time></trkpt><trkpt lat="44.1548267" lon="11.3247283"><ele>891.0</ele><time>2026-04-18T10:06:05.281Z</time></trkpt><trkpt lat="44.1549617" lon="11.3245367"><ele>892.3333333333333</ele><time>2026-04-18T10:06:06.28Z</time></trkpt><trkpt lat="44.1551117" lon="11.3243567"><ele>893.6666666666666</ele><time>2026-04-18T10:06:07.279Z</time></trkpt><trkpt lat="44.1552817" lon="11.3241667"><ele>895.0</ele><time>2026-04-18T10:06:08.279Z</time></trkpt><trkpt lat="44.155435" lon="11.3239567"><ele>896.3333333333333</ele><time>2026-04-18T10:06:09.281Z</time></trkpt><trkpt lat="44.1555667" lon="11.3237367"><ele>897.6666666666667</ele><time>2026-04-18T10:06:10.28Z</time></trkpt><trkpt lat="44.1556867" lon="11.323525"><ele>899.0</ele><time>2026-04-18T10:06:11.28Z</time></trkpt><trkpt lat="44.155815" lon="11.3233517"><ele>899.0</ele><time>2026-04-18T10:06:12.28Z</time></trkpt><trkpt lat="44.15596" lon="11.3232117"><ele>899.0</ele><time>2026-04-18T10:06:13.281Z</time></trkpt><trkpt lat="44.1561217" lon="11.323125"><ele>899.0</ele><time>2026-04-18T10:06:14.281Z</time></trkpt><trkpt lat="44.1563067" lon="11.3230933"><ele>899.0</ele><time>2026-04-18T10:06:15.279Z</time></trkpt><trkpt lat="44.156495" lon="11.3231333"><ele>899.0</ele><time>2026-04-18T10:06:16.279Z</time></trkpt><trkpt lat="44.15667" lon="11.3231967"><ele>899.0</ele><time>2026-04-18T10:06:17.28Z</time></trkpt><trkpt lat="44.1568417" lon="11.3232617"><ele>899.6666666666667</ele><time>2026-04-18T10:06:18.281Z</time></trkpt><trkpt lat="44.15701" lon="11.32331"><ele>900.3333333333333</ele><time>2026-04-18T10:06:19.28Z</time></trkpt><trkpt lat="44.15719" lon="11.3233017"><ele>901.0</ele><time>2026-04-18T10:06:20.281Z</time></trkpt><trkpt lat="44.1573783" lon="11.323225"><ele>901.0</ele><time>2026-04-18T10:06:21.281Z</time></trkpt><trkpt lat="44.1575583" lon="11.3231"><ele>901.0</ele><time>2026-04-18T10:06:22.279Z</time></trkpt><trkpt lat="44.15772" lon="11.3229617"><ele>901.0</ele><time>2026-04-18T10:06:23.281Z</time></trkpt><trkpt lat="44.1578667" lon="11.3228067"><ele>902.3333333333333</ele><time>2026-04-18T10:06:24.28Z</time></trkpt><trkpt lat="44.1580283" lon="11.3227183"><ele>903.6666666666667</ele><time>2026-04-18T10:06:25.279Z</time></trkpt><trkpt lat="44.158205" lon="11.3226867"><ele>905.0</ele><time>2026-04-18T10:06:26.281Z</time></trkpt><trkpt lat="44.158375" lon="11.32273"><ele>905.0</ele><time>2026-04-18T10:06:27.279Z</time></trkpt><trkpt lat="44.15854" lon="11.322825"><ele>905.0</ele><time>2026-04-18T10:06:28.282Z</time></trkpt><trkpt lat="44.1586983" lon="11.32296"><ele>905.0</ele><time>2026-04-18T10:06:29.279Z</time></trkpt><trkpt lat="44.1588433" lon="11.3231117"><ele>903.0</ele><time>2026-04-18T10:06:30.28Z</time></trkpt><trkpt lat="44.15899" lon="11.32326"><ele>901.0</ele><time>2026-04-18T10:06:31.281Z</time></trkpt><trkpt lat="44.1591517" lon="11.3234017"><ele>899.0</ele><time>2026-04-18T10:06:32.28Z</time></trkpt><trkpt lat="44.159325" lon="11.3235283"><ele>899.0</ele><time>2026-04-18T10:06:33.28Z</time></trkpt><trkpt lat="44.1595017" lon="11.323665"><ele>899.0</ele><time>2026-04-18T10:06:34.279Z</time></trkpt><trkpt lat="44.159665" lon="11.323835"><ele>899.0</ele><time>2026-04-18T10:06:35.28Z</time></trkpt><trkpt lat="44.159805" lon="11.324035"><ele>899.0</ele><time>2026-04-18T10:06:36.28Z</time></trkpt><trkpt lat="44.1599133" lon="11.3242583"><ele>899.0</ele><time>2026-04-18T10:06:37.281Z</time></trkpt><trkpt lat="44.1599933" lon="11.3245167"><ele>899.0</ele><time>2026-04-18T10:06:38.28Z</time></trkpt><trkpt lat="44.160075" lon="11.3248117"><ele>894.5</ele><time>2026-04-18T10:06:39.28Z</time></trkpt><trkpt lat="44.1601517" lon="11.32511"><ele>890.0</ele><time>2026-04-18T10:06:40.279Z</time></trkpt><trkpt lat="44.16024" lon="11.325415"><ele>887.3333333333334</ele><time>2026-04-18T10:06:41.279Z</time></trkpt><trkpt lat="44.1603267" lon="11.3256933"><ele>884.6666666666667</ele><time>2026-04-18T10:06:42.281Z</time></trkpt><trkpt lat="44.1604233" lon="11.3259717"><ele>882.0</ele><time>2026-04-18T10:06:43.279Z</time></trkpt><trkpt lat="44.16052" lon="11.326255"><ele>879.0</ele><time>2026-04-18T10:06:44.281Z</time></trkpt><trkpt lat="44.1606217" lon="11.3265417"><ele>876.0</ele><time>2026-04-18T10:06:45.279Z</time></trkpt><trkpt lat="44.1607567" lon="11.3268317"><ele>878.3333333333333</ele><time>2026-04-18T10:06:46.28Z</time></trkpt><trkpt lat="44.160875" lon="11.3271033"><ele>880.6666666666666</ele><time>2026-04-18T10:06:47.279Z</time></trkpt><trkpt lat="44.1609883" lon="11.3273683"><ele>883.0</ele><time>2026-04-18T10:06:48.28Z</time></trkpt><trkpt lat="44.1610733" lon="11.3276333"><ele>883.0</ele><time>2026-04-18T10:06:49.28Z</time></trkpt><trkpt lat="44.16115" lon="11.3278983"><ele>883.0</ele><time>2026-04-18T10:06:50.28Z</time></trkpt><trkpt lat="44.161215" lon="11.328165"><ele>883.0</ele><time>2026-04-18T10:06:51.281Z</time></trkpt><trkpt lat="44.161265" lon="11.3284317"><ele>882.6666666666666</ele><time>2026-04-18T10:06:52.281Z</time></trkpt><trkpt lat="44.1613117" lon="11.32869"><ele>882.3333333333333</ele><time>2026-04-18T10:06:53.281Z</time></trkpt><trkpt lat="44.1613467" lon="11.32893"><ele>882.0</ele><time>2026-04-18T10:06:54.28Z</time></trkpt><trkpt lat="44.1613817" lon="11.3291033"><ele>881.75</ele><time>2026-04-18T10:06:55.28Z</time></trkpt><trkpt lat="44.1614333" lon="11.329275"><ele>881.5</ele><time>2026-04-18T10:06:56.281Z</time></trkpt><trkpt lat="44.1615067" lon="11.329395"><ele>881.25</ele><time>2026-04-18T10:06:57.28Z</time></trkpt><trkpt lat="44.1616267" lon="11.3294983"><ele>881.0</ele><time>2026-04-18T10:06:58.279Z</time></trkpt><trkpt lat="44.1617417" lon="11.3295817"><ele>881.0</ele><time>2026-04-18T10:06:59.282Z</time></trkpt><trkpt lat="44.1618717" lon="11.3296217"><ele>881.0</ele><time>2026-04-18T10:07:00.279Z</time></trkpt><trkpt lat="44.16201" lon="11.3296483"><ele>881.0</ele><time>2026-04-18T10:07:01.28Z</time></trkpt><trkpt lat="44.1621467" lon="11.32964"><ele>881.0</ele><time>2026-04-18T10:07:02.28Z</time></trkpt><trkpt lat="44.1622833" lon="11.3296183"><ele>881.0</ele><time>2026-04-18T10:07:03.28Z</time></trkpt><trkpt lat="44.16241" lon="11.3296367"><ele>881.0</ele><time>2026-04-18T10:07:04.28Z</time></trkpt><trkpt lat="44.1625233" lon="11.3296933"><ele>881.0</ele><time>2026-04-18T10:07:05.28Z</time></trkpt><trkpt lat="44.1626433" lon="11.329805"><ele>881.0</ele><time>2026-04-18T10:07:06.279Z</time></trkpt><trkpt lat="44.1627517" lon="11.3299567"><ele>875.6666666666667</ele><time>2026-04-18T10:07:07.281Z</time></trkpt><trkpt lat="44.1628633" lon="11.33015"><ele>870.3333333333333</ele><time>2026-04-18T10:07:08.28Z</time></trkpt><trkpt lat="44.1629283" lon="11.3303283"><ele>865.0</ele><time>2026-04-18T10:07:09.279Z</time></trkpt><trkpt lat="44.162895" lon="11.33056"><ele>862.25</ele><time>2026-04-18T10:07:10.279Z</time></trkpt><trkpt lat="44.16287" lon="11.3307683"><ele>859.5</ele><time>2026-04-18T10:07:11.28Z</time></trkpt><trkpt lat="44.162875" lon="11.330935"><ele>856.75</ele><time>2026-04-18T10:07:12.281Z</time></trkpt><trkpt lat="44.1629" lon="11.3310983"><ele>854.0</ele><time>2026-04-18T10:07:13.281Z</time></trkpt><trkpt lat="44.1629667" lon="11.33122"><ele>854.0</ele><time>2026-04-18T10:07:14.281Z</time></trkpt><trkpt lat="44.1630583" lon="11.33131"><ele>854.0</ele><time>2026-04-18T10:07:15.28Z</time></trkpt><trkpt lat="44.1631567" lon="11.3313917"><ele>854.0</ele><time>2026-04-18T10:07:16.28Z</time></trkpt><trkpt lat="44.163265" lon="11.331485"><ele>854.0</ele><time>2026-04-18T10:07:17.281Z</time></trkpt><trkpt lat="44.1633883" lon="11.3315833"><ele>853.25</ele><time>2026-04-18T10:07:18.28Z</time></trkpt><trkpt lat="44.1635083" lon="11.3316883"><ele>852.5</ele><time>2026-04-18T10:07:19.281Z</time></trkpt><trkpt lat="44.1636283" lon="11.3318067"><ele>851.75</ele><time>2026-04-18T10:07:20.283Z</time></trkpt><trkpt lat="44.1637367" lon="11.3319367"><ele>851.0</ele><time>2026-04-18T10:07:21.28Z</time></trkpt><trkpt lat="44.16383" lon="11.3320767"><ele>851.5</ele><time>2026-04-18T10:07:22.28Z</time></trkpt><trkpt lat="44.1639133" lon="11.3322267"><ele>852.0</ele><time>2026-04-18T10:07:23.28Z</time></trkpt><trkpt lat="44.1639967" lon="11.3323833"><ele>852.5</ele><time>2026-04-18T10:07:24.281Z</time></trkpt><trkpt lat="44.16408" lon="11.33254"><ele>853.0</ele><time>2026-04-18T10:07:25.279Z</time></trkpt><trkpt lat="44.1641683" lon="11.3326983"><ele>853.0</ele><time>2026-04-18T10:07:26.281Z</time></trkpt><trkpt lat="44.16425" lon="11.3328183"><ele>853.0</ele><time>2026-04-18T10:07:27.279Z</time></trkpt><trkpt lat="44.1643283" lon="11.3329317"><ele>853.0</ele><time>2026-04-18T10:07:28.28Z</time></trkpt><trkpt lat="44.1644083" lon="11.3330467"><ele>853.0</ele><time>2026-04-18T10:07:29.279Z</time></trkpt><trkpt lat="44.1644767" lon="11.3331583"><ele>851.8</ele><time>2026-04-18T10:07:30.28Z</time></trkpt><trkpt lat="44.1645333" lon="11.3332767"><ele>850.5999999999999</ele><time>2026-04-18T10:07:31.28Z</time></trkpt><trkpt lat="44.16458" lon="11.33342"><ele>849.4000000000001</ele><time>2026-04-18T10:07:32.28Z</time></trkpt><trkpt lat="44.1646283" lon="11.3335767"><ele>848.2</ele><time>2026-04-18T10:07:33.28Z</time></trkpt><trkpt lat="44.1646683" lon="11.3337117"><ele>847.0</ele><time>2026-04-18T10:07:34.28Z</time></trkpt><trkpt lat="44.1647217" lon="11.33386"><ele>847.4000000000001</ele><time>2026-04-18T10:07:35.281Z</time></trkpt><trkpt lat="44.1647733" lon="11.33399"><ele>847.8000000000001</ele><time>2026-04-18T10:07:36.279Z</time></trkpt><trkpt lat="44.164835" lon="11.3340933"><ele>848.2</ele><time>2026-04-18T10:07:37.279Z</time></trkpt><trkpt lat="44.1648983" lon="11.3342083"><ele>848.6</ele><time>2026-04-18T10:07:38.281Z</time></trkpt><trkpt lat="44.164975" lon="11.3343283"><ele>849.0</ele><time>2026-04-18T10:07:39.279Z</time></trkpt><trkpt lat="44.1650567" lon="11.33446"><ele>849.5</ele><time>2026-04-18T10:07:40.282Z</time></trkpt><trkpt lat="44.1651417" lon="11.3345967"><ele>850.0</ele><time>2026-04-18T10:07:41.28Z</time></trkpt><trkpt lat="44.16522" lon="11.3347383"><ele>850.5</ele><time>2026-04-18T10:07:42.28Z</time></trkpt><trkpt lat="44.165295" lon="11.3348767"><ele>851.0</ele><time>2026-04-18T10:07:43.28Z</time></trkpt><trkpt lat="44.165355" lon="11.3350183"><ele>851.0</ele><time>2026-04-18T10:07:44.28Z</time></trkpt><trkpt lat="44.1654033" lon="11.335175"><ele>851.0</ele><time>2026-04-18T10:07:45.28Z</time></trkpt><trkpt lat="44.1654333" lon="11.3353417"><ele>851.0</ele><time>2026-04-18T10:07:46.279Z</time></trkpt><trkpt lat="44.16546" lon="11.3355033"><ele>851.0</ele><time>2026-04-18T10:07:47.281Z</time></trkpt><trkpt lat="44.1654883" lon="11.33566"><ele>851.1666666666667</ele><time>2026-04-18T10:07:48.281Z</time></trkpt><trkpt lat="44.165505" lon="11.335805"><ele>851.3333333333334</ele><time>2026-04-18T10:07:49.28Z</time></trkpt><trkpt lat="44.1655117" lon="11.3359333"><ele>851.5</ele><time>2026-04-18T10:07:50.281Z</time></trkpt><trkpt lat="44.1655317" lon="11.336045"><ele>851.6666666666667</ele><time>2026-04-18T10:07:51.28Z</time></trkpt><trkpt lat="44.1655883" lon="11.336125"><ele>851.8333333333334</ele><time>2026-04-18T10:07:52.28Z</time></trkpt><trkpt lat="44.1656583" lon="11.3361517"><ele>852.0</ele><time>2026-04-18T10:07:53.28Z</time></trkpt><trkpt lat="44.16575" lon="11.3361467"><ele>854.5</ele><time>2026-04-18T10:07:54.281Z</time></trkpt><trkpt lat="44.1658483" lon="11.3361117"><ele>857.0</ele><time>2026-04-18T10:07:55.281Z</time></trkpt><trkpt lat="44.1659633" lon="11.336045"><ele>859.5</ele><time>2026-04-18T10:07:56.282Z</time></trkpt><trkpt lat="44.166065" lon="11.335975"><ele>862.0</ele><time>2026-04-18T10:07:57.281Z</time></trkpt><trkpt lat="44.166165" lon="11.3358817"><ele>862.0</ele><time>2026-04-18T10:07:58.281Z</time></trkpt><trkpt lat="44.1662717" lon="11.3357833"><ele>862.0</ele><time>2026-04-18T10:07:59.28Z</time></trkpt><trkpt lat="44.1663883" lon="11.3356667"><ele>862.0</ele><time>2026-04-18T10:08:00.281Z</time></trkpt><trkpt lat="44.1665167" lon="11.33555"><ele>862.0</ele><time>2026-04-18T10:08:01.281Z</time></trkpt><trkpt lat="44.16664" lon="11.3354233"><ele>863.5</ele><time>2026-04-18T10:08:02.28Z</time></trkpt><trkpt lat="44.1667567" lon="11.3353117"><ele>865.0</ele><time>2026-04-18T10:08:03.28Z</time></trkpt><trkpt lat="44.1668783" lon="11.3352017"><ele>866.5</ele><time>2026-04-18T10:08:04.281Z</time></trkpt><trkpt lat="44.1669983" lon="11.3350917"><ele>868.0</ele><time>2026-04-18T10:08:05.28Z</time></trkpt><trkpt lat="44.1671233" lon="11.3349817"><ele>868.0</ele><time>2026-04-18T10:08:06.28Z</time></trkpt><trkpt lat="44.16724" lon="11.3348833"><ele>868.0</ele><time>2026-04-18T10:08:07.281Z</time></trkpt><trkpt lat="44.1673467" lon="11.334785"><ele>868.0</ele><time>2026-04-18T10:08:08.28Z</time></trkpt><trkpt lat="44.1674433" lon="11.3346833"><ele>868.0</ele><time>2026-04-18T10:08:09.279Z</time></trkpt><trkpt lat="44.1675083" lon="11.3345917"><ele>870.4</ele><time>2026-04-18T10:08:10.28Z</time></trkpt><trkpt lat="44.16754" lon="11.3345"><ele>872.8</ele><time>2026-04-18T10:08:11.279Z</time></trkpt><trkpt lat="44.1675717" lon="11.3344067"><ele>875.2</ele><time>2026-04-18T10:08:12.28Z</time></trkpt><trkpt lat="44.16755" lon="11.3342617"><ele>877.6</ele><time>2026-04-18T10:08:14.28Z</time></trkpt><trkpt lat="44.1675233" lon="11.3341717"><ele>880.0</ele><time>2026-04-18T10:08:15.28Z</time></trkpt><trkpt lat="44.1674483" lon="11.3340217"><ele>880.25</ele><time>2026-04-18T10:08:16.28Z</time></trkpt><trkpt lat="44.1673767" lon="11.3338533"><ele>880.5</ele><time>2026-04-18T10:08:17.28Z</time></trkpt><trkpt lat="44.1673367" lon="11.33366"><ele>880.75</ele><time>2026-04-18T10:08:18.281Z</time></trkpt><trkpt lat="44.167315" lon="11.3334917"><ele>881.0</ele><time>2026-04-18T10:08:19.28Z</time></trkpt><trkpt lat="44.16733" lon="11.33334"><ele>883.0</ele><time>2026-04-18T10:08:20.28Z</time></trkpt><trkpt lat="44.1673733" lon="11.3332067"><ele>885.0</ele><time>2026-04-18T10:08:21.28Z</time></trkpt><trkpt lat="44.1674917" lon="11.3329967"><ele>887.0</ele><time>2026-04-18T10:08:22.281Z</time></trkpt><trkpt lat="44.1676183" lon="11.3328067"><ele>888.3333333333334</ele><time>2026-04-18T10:08:23.279Z</time></trkpt><trkpt lat="44.1677183" lon="11.332675"><ele>889.6666666666667</ele><time>2026-04-18T10:08:24.28Z</time></trkpt><trkpt lat="44.16786" lon="11.3325633"><ele>891.0</ele><time>2026-04-18T10:08:25.281Z</time></trkpt><trkpt lat="44.167995" lon="11.3324633"><ele>891.0</ele><time>2026-04-18T10:08:26.281Z</time></trkpt><trkpt lat="44.168145" lon="11.3324433"><ele>891.0</ele><time>2026-04-18T10:08:27.28Z</time></trkpt><trkpt lat="44.168285" lon="11.3324067"><ele>891.0</ele><time>2026-04-18T10:08:28.281Z</time></trkpt><trkpt lat="44.1684483" lon="11.332435"><ele>896.3333333333333</ele><time>2026-04-18T10:08:29.281Z</time></trkpt><trkpt lat="44.16864" lon="11.3325"><ele>901.6666666666666</ele><time>2026-04-18T10:08:30.28Z</time></trkpt><trkpt lat="44.1688683" lon="11.3325967"><ele>907.0</ele><time>2026-04-18T10:08:31.279Z</time></trkpt><trkpt lat="44.1690933" lon="11.3327367"><ele>910.6666666666666</ele><time>2026-04-18T10:08:32.282Z</time></trkpt><trkpt lat="44.1692917" lon="11.3327717"><ele>914.3333333333333</ele><time>2026-04-18T10:08:33.283Z</time></trkpt><trkpt lat="44.1695" lon="11.3327283"><ele>918.0</ele><time>2026-04-18T10:08:34.28Z</time></trkpt><trkpt lat="44.169715" lon="11.3326433"><ele>920.3333333333333</ele><time>2026-04-18T10:08:35.28Z</time></trkpt><trkpt lat="44.1699233" lon="11.3325567"><ele>922.6666666666666</ele><time>2026-04-18T10:08:36.279Z</time></trkpt><trkpt lat="44.1701117" lon="11.332485"><ele>925.0</ele><time>2026-04-18T10:08:37.28Z</time></trkpt><trkpt lat="44.1702767" lon="11.3324367"><ele>925.0</ele><time>2026-04-18T10:08:38.281Z</time></trkpt><trkpt lat="44.1704117" lon="11.3324533"><ele>925.0</ele><time>2026-04-18T10:08:39.281Z</time></trkpt><trkpt lat="44.1705317" lon="11.332485"><ele>925.0</ele><time>2026-04-18T10:08:40.28Z</time></trkpt><trkpt lat="44.17062" lon="11.3325767"><ele>925.0</ele><time>2026-04-18T10:08:41.279Z</time></trkpt><trkpt lat="44.1706833" lon="11.332735"><ele>925.3333333333333</ele><time>2026-04-18T10:08:42.282Z</time></trkpt><trkpt lat="44.170735" lon="11.33296"><ele>925.6666666666667</ele><time>2026-04-18T10:08:43.281Z</time></trkpt><trkpt lat="44.1707933" lon="11.33322"><ele>926.0</ele><time>2026-04-18T10:08:44.281Z</time></trkpt><trkpt lat="44.1708283" lon="11.3334567"><ele>926.0</ele><time>2026-04-18T10:08:45.281Z</time></trkpt><trkpt lat="44.1708467" lon="11.3336733"><ele>926.0</ele><time>2026-04-18T10:08:46.28Z</time></trkpt><trkpt lat="44.1708917" lon="11.3339"><ele>926.0</ele><time>2026-04-18T10:08:47.281Z</time></trkpt><trkpt lat="44.1709683" lon="11.3341233"><ele>925.6666666666667</ele><time>2026-04-18T10:08:48.282Z</time></trkpt><trkpt lat="44.1710783" lon="11.334315"><ele>925.3333333333333</ele><time>2026-04-18T10:08:49.281Z</time></trkpt><trkpt lat="44.1712" lon="11.3344983"><ele>925.0</ele><time>2026-04-18T10:08:50.281Z</time></trkpt><trkpt lat="44.1713133" lon="11.3346833"><ele>924.3333333333333</ele><time>2026-04-18T10:08:51.28Z</time></trkpt><trkpt lat="44.1714233" lon="11.3348717"><ele>923.6666666666667</ele><time>2026-04-18T10:08:52.28Z</time></trkpt><trkpt lat="44.1715283" lon="11.3350667"><ele>923.0</ele><time>2026-04-18T10:08:53.281Z</time></trkpt><trkpt lat="44.1716317" lon="11.3352867"><ele>928.6666666666667</ele><time>2026-04-18T10:08:54.28Z</time></trkpt><trkpt lat="44.17173" lon="11.33551"><ele>934.3333333333333</ele><time>2026-04-18T10:08:55.281Z</time></trkpt><trkpt lat="44.1718233" lon="11.3357367"><ele>940.0</ele><time>2026-04-18T10:08:56.281Z</time></trkpt><trkpt lat="44.171915" lon="11.3359533"><ele>940.0</ele><time>2026-04-18T10:08:57.281Z</time></trkpt><trkpt lat="44.1720083" lon="11.3361633"><ele>940.0</ele><time>2026-04-18T10:08:58.28Z</time></trkpt><trkpt lat="44.1720933" lon="11.336365"><ele>940.0</ele><time>2026-04-18T10:08:59.281Z</time></trkpt><trkpt lat="44.1721567" lon="11.3365683"><ele>939.5</ele><time>2026-04-18T10:09:00.281Z</time></trkpt><trkpt lat="44.1722033" lon="11.3367717"><ele>939.0</ele><time>2026-04-18T10:09:01.281Z</time></trkpt><trkpt lat="44.17223" lon="11.3369783"><ele>938.5</ele><time>2026-04-18T10:09:02.281Z</time></trkpt><trkpt lat="44.17225" lon="11.3371767"><ele>938.0</ele><time>2026-04-18T10:09:03.28Z</time></trkpt><trkpt lat="44.1723" lon="11.3373633"><ele>943.75</ele><time>2026-04-18T10:09:04.28Z</time></trkpt><trkpt lat="44.1723567" lon="11.337545"><ele>949.5</ele><time>2026-04-18T10:09:05.281Z</time></trkpt><trkpt lat="44.1724233" lon="11.3377233"><ele>955.25</ele><time>2026-04-18T10:09:06.28Z</time></trkpt><trkpt lat="44.17249" lon="11.33789"><ele>961.0</ele><time>2026-04-18T10:09:07.28Z</time></trkpt><trkpt lat="44.1725533" lon="11.3380383"><ele>960.9999999999999</ele><time>2026-04-18T10:09:08.28Z</time></trkpt><trkpt lat="44.1726067" lon="11.3381667"><ele>961.0</ele><time>2026-04-18T10:09:09.28Z</time></trkpt><trkpt lat="44.1726517" lon="11.3382667"><ele>961.0</ele><time>2026-04-18T10:09:10.281Z</time></trkpt><trkpt lat="44.1726933" lon="11.3383517"><ele>961.0</ele><time>2026-04-18T10:09:11.281Z</time></trkpt><trkpt lat="44.172735" lon="11.3384317"><ele>960.9999999999999</ele><time>2026-04-18T10:09:12.28Z</time></trkpt><trkpt lat="44.172775" lon="11.3385033"><ele>961.0</ele><time>2026-04-18T10:09:13.28Z</time></trkpt><trkpt lat="44.17285" lon="11.3386217"><ele>961.0</ele><time>2026-04-18T10:09:15.28Z</time></trkpt><trkpt lat="44.172905" lon="11.3387033"><ele>960.9999999999999</ele><time>2026-04-18T10:09:17.28Z</time></trkpt><trkpt lat="44.1729817" lon="11.3388017"><ele>960.9999999999999</ele><time>2026-04-18T10:09:20.28Z</time></trkpt><trkpt lat="44.173045" lon="11.3389483"><ele>961.0</ele><time>2026-04-18T10:09:22.281Z</time></trkpt><trkpt lat="44.17309" lon="11.3390583"><ele>961.0</ele><time>2026-04-18T10:09:23.281Z</time></trkpt><trkpt lat="44.1731433" lon="11.339175"><ele>961.5</ele><time>2026-04-18T10:09:24.28Z</time></trkpt><trkpt lat="44.1732117" lon="11.3393217"><ele>962.0</ele><time>2026-04-18T10:09:25.28Z</time></trkpt><trkpt lat="44.1732833" lon="11.3394633"><ele>962.5</ele><time>2026-04-18T10:09:26.28Z</time></trkpt><trkpt lat="44.1733583" lon="11.3396133"><ele>963.0</ele><time>2026-04-18T10:09:27.281Z</time></trkpt><trkpt lat="44.17343" lon="11.33976"><ele>964.25</ele><time>2026-04-18T10:09:28.28Z</time></trkpt><trkpt lat="44.1735033" lon="11.3398833"><ele>965.5</ele><time>2026-04-18T10:09:29.28Z</time></trkpt><trkpt lat="44.1735867" lon="11.3399967"><ele>966.75</ele><time>2026-04-18T10:09:30.282Z</time></trkpt><trkpt lat="44.173675" lon="11.3401167"><ele>968.0</ele><time>2026-04-18T10:09:31.28Z</time></trkpt><trkpt lat="44.1737617" lon="11.3402417"><ele>968.0</ele><time>2026-04-18T10:09:32.28Z</time></trkpt><trkpt lat="44.1738267" lon="11.34038"><ele>968.0</ele><time>2026-04-18T10:09:33.281Z</time></trkpt><trkpt lat="44.173885" lon="11.3405567"><ele>968.0</ele><time>2026-04-18T10:09:34.28Z</time></trkpt><trkpt lat="44.1739217" lon="11.3407217"><ele>968.0</ele><time>2026-04-18T10:09:35.28Z</time></trkpt><trkpt lat="44.1739267" lon="11.340885"><ele>967.75</ele><time>2026-04-18T10:09:36.28Z</time></trkpt><trkpt lat="44.173895" lon="11.3410517"><ele>967.5</ele><time>2026-04-18T10:09:37.28Z</time></trkpt><trkpt lat="44.1738483" lon="11.34121"><ele>967.25</ele><time>2026-04-18T10:09:38.281Z</time></trkpt><trkpt lat="44.1737783" lon="11.341345"><ele>967.0</ele><time>2026-04-18T10:09:39.281Z</time></trkpt><trkpt lat="44.17368" lon="11.3414783"><ele>963.75</ele><time>2026-04-18T10:09:40.28Z</time></trkpt><trkpt lat="44.1735733" lon="11.3416033"><ele>960.5</ele><time>2026-04-18T10:09:41.281Z</time></trkpt><trkpt lat="44.1734867" lon="11.3417467"><ele>957.25</ele><time>2026-04-18T10:09:42.28Z</time></trkpt><trkpt lat="44.1734117" lon="11.3418933"><ele>954.0</ele><time>2026-04-18T10:09:43.28Z</time></trkpt><trkpt lat="44.1733583" lon="11.3420567"><ele>954.0</ele><time>2026-04-18T10:09:44.281Z</time></trkpt><trkpt lat="44.1733217" lon="11.342225"><ele>954.0</ele><time>2026-04-18T10:09:45.28Z</time></trkpt><trkpt lat="44.1733317" lon="11.3424067"><ele>954.0</ele><time>2026-04-18T10:09:46.28Z</time></trkpt><trkpt lat="44.1733867" lon="11.3426"><ele>954.0</ele><time>2026-04-18T10:09:47.282Z</time></trkpt><trkpt lat="44.1734817" lon="11.3428167"><ele>954.0</ele><time>2026-04-18T10:09:48.28Z</time></trkpt><trkpt lat="44.1735933" lon="11.34303"><ele>954.0</ele><time>2026-04-18T10:09:49.28Z</time></trkpt><trkpt lat="44.1736967" lon="11.343235"><ele>954.0</ele><time>2026-04-18T10:09:50.281Z</time></trkpt><trkpt lat="44.1738083" lon="11.3434417"><ele>955.0</ele><time>2026-04-18T10:09:51.281Z</time></trkpt><trkpt lat="44.173945" lon="11.3436383"><ele>956.0</ele><time>2026-04-18T10:09:52.279Z</time></trkpt><trkpt lat="44.1741067" lon="11.3438017"><ele>957.0</ele><time>2026-04-18T10:09:53.282Z</time></trkpt><trkpt lat="44.17427" lon="11.3439317"><ele>953.3333333333333</ele><time>2026-04-18T10:09:54.282Z</time></trkpt><trkpt lat="44.1744483" lon="11.344025"><ele>949.6666666666666</ele><time>2026-04-18T10:09:55.28Z</time></trkpt><trkpt lat="44.1746367" lon="11.3441"><ele>946.0</ele><time>2026-04-18T10:09:56.281Z</time></trkpt><trkpt lat="44.1748367" lon="11.3441533"><ele>942.6666666666666</ele><time>2026-04-18T10:09:57.282Z</time></trkpt><trkpt lat="44.17504" lon="11.3442033"><ele>939.3333333333333</ele><time>2026-04-18T10:09:58.279Z</time></trkpt><trkpt lat="44.1752417" lon="11.34425"><ele>936.0</ele><time>2026-04-18T10:09:59.281Z</time></trkpt><trkpt lat="44.1754383" lon="11.34431"><ele>936.0</ele><time>2026-04-18T10:10:00.282Z</time></trkpt><trkpt lat="44.1756267" lon="11.3443567"><ele>936.0</ele><time>2026-04-18T10:10:01.279Z</time></trkpt><trkpt lat="44.1758083" lon="11.344425"><ele>936.0</ele><time>2026-04-18T10:10:02.281Z</time></trkpt><trkpt lat="44.1759983" lon="11.34453"><ele>937.3333333333333</ele><time>2026-04-18T10:10:03.281Z</time></trkpt><trkpt lat="44.17618" lon="11.3446367"><ele>938.6666666666666</ele><time>2026-04-18T10:10:04.282Z</time></trkpt><trkpt lat="44.1763617" lon="11.344755"><ele>940.0</ele><time>2026-04-18T10:10:05.282Z</time></trkpt><trkpt lat="44.1765283" lon="11.3448783"><ele>935.6666666666666</ele><time>2026-04-18T10:10:06.281Z</time></trkpt><trkpt lat="44.176685" lon="11.3450033"><ele>931.3333333333333</ele><time>2026-04-18T10:10:07.282Z</time></trkpt><trkpt lat="44.1768333" lon="11.3451483"><ele>927.0</ele><time>2026-04-18T10:10:08.279Z</time></trkpt><trkpt lat="44.176965" lon="11.3453"><ele>927.0</ele><time>2026-04-18T10:10:09.28Z</time></trkpt><trkpt lat="44.177085" lon="11.3454517"><ele>927.0</ele><time>2026-04-18T10:10:10.281Z</time></trkpt><trkpt lat="44.1772017" lon="11.3456017"><ele>927.0</ele><time>2026-04-18T10:10:11.281Z</time></trkpt><trkpt lat="44.1773267" lon="11.3457367"><ele>924.6666666666667</ele><time>2026-04-18T10:10:12.28Z</time></trkpt><trkpt lat="44.1774617" lon="11.345835"><ele>922.3333333333334</ele><time>2026-04-18T10:10:13.281Z</time></trkpt><trkpt lat="44.1776133" lon="11.3458983"><ele>920.0</ele><time>2026-04-18T10:10:14.282Z</time></trkpt><trkpt lat="44.1777783" lon="11.345925"><ele>920.0</ele><time>2026-04-18T10:10:15.281Z</time></trkpt><trkpt lat="44.1779417" lon="11.3459433"><ele>920.0</ele><time>2026-04-18T10:10:16.283Z</time></trkpt><trkpt lat="44.1780817" lon="11.3459717"><ele>920.0</ele><time>2026-04-18T10:10:17.281Z</time></trkpt><trkpt lat="44.1782" lon="11.3460217"><ele>920.0</ele><time>2026-04-18T10:10:18.281Z</time></trkpt><trkpt lat="44.1783" lon="11.3461017"><ele>919.5</ele><time>2026-04-18T10:10:19.28Z</time></trkpt><trkpt lat="44.17838" lon="11.3462233"><ele>919.0</ele><time>2026-04-18T10:10:20.282Z</time></trkpt><trkpt lat="44.1784333" lon="11.3463833"><ele>918.5</ele><time>2026-04-18T10:10:21.28Z</time></trkpt><trkpt lat="44.1784767" lon="11.3465533"><ele>918.0</ele><time>2026-04-18T10:10:22.28Z</time></trkpt><trkpt lat="44.178525" lon="11.346685"><ele>918.0</ele><time>2026-04-18T10:10:23.28Z</time></trkpt><trkpt lat="44.1786" lon="11.34681"><ele>918.0</ele><time>2026-04-18T10:10:24.281Z</time></trkpt><trkpt lat="44.17872" lon="11.346885"><ele>918.0</ele><time>2026-04-18T10:10:25.281Z</time></trkpt><trkpt lat="44.17887" lon="11.3469133"><ele>918.0</ele><time>2026-04-18T10:10:26.282Z</time></trkpt><trkpt lat="44.179035" lon="11.34693"><ele>914.0</ele><time>2026-04-18T10:10:27.28Z</time></trkpt><trkpt lat="44.1791983" lon="11.3469433"><ele>910.0</ele><time>2026-04-18T10:10:28.279Z</time></trkpt><trkpt lat="44.1793383" lon="11.3469567"><ele>906.0</ele><time>2026-04-18T10:10:29.28Z</time></trkpt><trkpt lat="44.1794617" lon="11.3470167"><ele>902.0</ele><time>2026-04-18T10:10:30.28Z</time></trkpt><trkpt lat="44.1795633" lon="11.3471267"><ele>901.0</ele><time>2026-04-18T10:10:31.281Z</time></trkpt><trkpt lat="44.179635" lon="11.34727"><ele>900.0</ele><time>2026-04-18T10:10:32.282Z</time></trkpt><trkpt lat="44.1797" lon="11.3474217"><ele>899.0</ele><time>2026-04-18T10:10:33.28Z</time></trkpt><trkpt lat="44.17978" lon="11.3475583"><ele>898.0</ele><time>2026-04-18T10:10:34.282Z</time></trkpt><trkpt lat="44.1798783" lon="11.3476733"><ele>898.0</ele><time>2026-04-18T10:10:35.28Z</time></trkpt><trkpt lat="44.1799933" lon="11.3477717"><ele>898.0</ele><time>2026-04-18T10:10:36.283Z</time></trkpt><trkpt lat="44.1801517" lon="11.3477733"><ele>898.0</ele><time>2026-04-18T10:10:37.281Z</time></trkpt><trkpt lat="44.18033" lon="11.3477533"><ele>898.0</ele><time>2026-04-18T10:10:38.282Z</time></trkpt><trkpt lat="44.180505" lon="11.3477433"><ele>898.0</ele><time>2026-04-18T10:10:39.28Z</time></trkpt><trkpt lat="44.18067" lon="11.34775"><ele>898.0</ele><time>2026-04-18T10:10:40.28Z</time></trkpt><trkpt lat="44.1808283" lon="11.3477983"><ele>901.3333333333333</ele><time>2026-04-18T10:10:41.28Z</time></trkpt><trkpt lat="44.1809883" lon="11.3478733"><ele>904.6666666666667</ele><time>2026-04-18T10:10:42.281Z</time></trkpt><trkpt lat="44.1811467" lon="11.3479767"><ele>908.0</ele><time>2026-04-18T10:10:43.28Z</time></trkpt><trkpt lat="44.181305" lon="11.3481"><ele>908.0</ele><time>2026-04-18T10:10:44.281Z</time></trkpt><trkpt lat="44.1814667" lon="11.3482267"><ele>908.0</ele><time>2026-04-18T10:10:45.28Z</time></trkpt><trkpt lat="44.1816267" lon="11.348355"><ele>908.0</ele><time>2026-04-18T10:10:46.28Z</time></trkpt><trkpt lat="44.181775" lon="11.3484817"><ele>907.6666666666667</ele><time>2026-04-18T10:10:47.28Z</time></trkpt><trkpt lat="44.18191" lon="11.3486333"><ele>907.3333333333333</ele><time>2026-04-18T10:10:48.282Z</time></trkpt><trkpt lat="44.182025" lon="11.348805"><ele>907.0</ele><time>2026-04-18T10:10:49.28Z</time></trkpt><trkpt lat="44.182095" lon="11.3489583"><ele>907.0</ele><time>2026-04-18T10:10:50.28Z</time></trkpt><trkpt lat="44.1821467" lon="11.3491033"><ele>907.0</ele><time>2026-04-18T10:10:51.28Z</time></trkpt><trkpt lat="44.1821917" lon="11.3492317"><ele>907.0</ele><time>2026-04-18T10:10:52.28Z</time></trkpt><trkpt lat="44.1822567" lon="11.3493467"><ele>907.0</ele><time>2026-04-18T10:10:53.281Z</time></trkpt><trkpt lat="44.182335" lon="11.3494683"><ele>907.0</ele><time>2026-04-18T10:10:54.281Z</time></trkpt><trkpt lat="44.1824217" lon="11.3496133"><ele>902.0</ele><time>2026-04-18T10:10:55.28Z</time></trkpt><trkpt lat="44.1825083" lon="11.3497783"><ele>897.0</ele><time>2026-04-18T10:10:56.282Z</time></trkpt><trkpt lat="44.182605" lon="11.349935"><ele>892.0</ele><time>2026-04-18T10:10:57.28Z</time></trkpt><trkpt lat="44.1827067" lon="11.35008"><ele>887.0</ele><time>2026-04-18T10:10:58.28Z</time></trkpt><trkpt lat="44.1828283" lon="11.3502233"><ele>887.0</ele><time>2026-04-18T10:10:59.28Z</time></trkpt><trkpt lat="44.18296" lon="11.350365"><ele>887.0</ele><time>2026-04-18T10:11:00.28Z</time></trkpt><trkpt lat="44.1830967" lon="11.350505"><ele>887.0</ele><time>2026-04-18T10:11:01.279Z</time></trkpt><trkpt lat="44.1832367" lon="11.35066"><ele>884.0</ele><time>2026-04-18T10:11:02.281Z</time></trkpt><trkpt lat="44.1833767" lon="11.35082"><ele>881.0</ele><time>2026-04-18T10:11:03.281Z</time></trkpt><trkpt lat="44.18352" lon="11.35099"><ele>878.0</ele><time>2026-04-18T10:11:04.279Z</time></trkpt><trkpt lat="44.1836683" lon="11.351155"><ele>878.0</ele><time>2026-04-18T10:11:05.281Z</time></trkpt><trkpt lat="44.183825" lon="11.3513167"><ele>878.0</ele><time>2026-04-18T10:11:06.28Z</time></trkpt><trkpt lat="44.1839833" lon="11.3514467"><ele>878.0</ele><time>2026-04-18T10:11:07.281Z</time></trkpt><trkpt lat="44.1841467" lon="11.3515683"><ele>876.0</ele><time>2026-04-18T10:11:08.281Z</time></trkpt><trkpt lat="44.1843017" lon="11.35168"><ele>874.0</ele><time>2026-04-18T10:11:09.28Z</time></trkpt><trkpt lat="44.18443" lon="11.3517933"><ele>872.0</ele><time>2026-04-18T10:11:10.279Z</time></trkpt><trkpt lat="44.1845583" lon="11.3519567"><ele>872.0</ele><time>2026-04-18T10:11:11.281Z</time></trkpt><trkpt lat="44.184655" lon="11.35215"><ele>872.0</ele><time>2026-04-18T10:11:12.28Z</time></trkpt><trkpt lat="44.18474" lon="11.3523383"><ele>872.0</ele><time>2026-04-18T10:11:13.28Z</time></trkpt><trkpt lat="44.184855" lon="11.3525067"><ele>870.0</ele><time>2026-04-18T10:11:14.282Z</time></trkpt><trkpt lat="44.1849867" lon="11.3526517"><ele>868.0</ele><time>2026-04-18T10:11:15.28Z</time></trkpt><trkpt lat="44.1851267" lon="11.35278"><ele>866.0</ele><time>2026-04-18T10:11:16.281Z</time></trkpt><trkpt lat="44.18528" lon="11.3528983"><ele>866.0</ele><time>2026-04-18T10:11:17.28Z</time></trkpt><trkpt lat="44.18544" lon="11.3529617"><ele>866.0</ele><time>2026-04-18T10:11:18.279Z</time></trkpt><trkpt lat="44.1856133" lon="11.3529867"><ele>866.0</ele><time>2026-04-18T10:11:19.28Z</time></trkpt><trkpt lat="44.1857967" lon="11.3529833"><ele>863.0</ele><time>2026-04-18T10:11:20.281Z</time></trkpt><trkpt lat="44.185985" lon="11.35296"><ele>860.0</ele><time>2026-04-18T10:11:21.281Z</time></trkpt><trkpt lat="44.186185" lon="11.3529233"><ele>857.0</ele><time>2026-04-18T10:11:22.28Z</time></trkpt><trkpt lat="44.186385" lon="11.35289"><ele>854.6666666666667</ele><time>2026-04-18T10:11:23.28Z</time></trkpt><trkpt lat="44.1865833" lon="11.3528517"><ele>852.3333333333333</ele><time>2026-04-18T10:11:24.282Z</time></trkpt><trkpt lat="44.1867767" lon="11.3528167"><ele>850.0</ele><time>2026-04-18T10:11:25.28Z</time></trkpt><trkpt lat="44.1869633" lon="11.3527817"><ele>850.0</ele><time>2026-04-18T10:11:26.278Z</time></trkpt><trkpt lat="44.1871333" lon="11.3527633"><ele>850.0</ele><time>2026-04-18T10:11:27.28Z</time></trkpt><trkpt lat="44.18729" lon="11.3527683"><ele>850.0</ele><time>2026-04-18T10:11:28.279Z</time></trkpt><trkpt lat="44.1874283" lon="11.35281"><ele>850.25</ele><time>2026-04-18T10:11:29.28Z</time></trkpt><trkpt lat="44.1875617" lon="11.35291"><ele>850.5</ele><time>2026-04-18T10:11:30.281Z</time></trkpt><trkpt lat="44.1876683" lon="11.3530117"><ele>850.75</ele><time>2026-04-18T10:11:31.28Z</time></trkpt><trkpt lat="44.18775" lon="11.3531533"><ele>851.0</ele><time>2026-04-18T10:11:32.281Z</time></trkpt><trkpt lat="44.1878167" lon="11.3533183"><ele>851.0</ele><time>2026-04-18T10:11:33.279Z</time></trkpt><trkpt lat="44.1878683" lon="11.3535017"><ele>851.0</ele><time>2026-04-18T10:11:34.28Z</time></trkpt><trkpt lat="44.1879117" lon="11.353715"><ele>851.0</ele><time>2026-04-18T10:11:35.281Z</time></trkpt><trkpt lat="44.1879483" lon="11.3539483"><ele>851.0</ele><time>2026-04-18T10:11:36.28Z</time></trkpt><trkpt lat="44.1879783" lon="11.35418"><ele>851.0</ele><time>2026-04-18T10:11:37.28Z</time></trkpt><trkpt lat="44.188015" lon="11.3544083"><ele>851.0</ele><time>2026-04-18T10:11:38.282Z</time></trkpt><trkpt lat="44.1880633" lon="11.3546167"><ele>851.6666666666667</ele><time>2026-04-18T10:11:39.283Z</time></trkpt><trkpt lat="44.1881383" lon="11.354795"><ele>852.3333333333333</ele><time>2026-04-18T10:11:40.28Z</time></trkpt><trkpt lat="44.1882417" lon="11.3549517"><ele>853.0</ele><time>2026-04-18T10:11:41.279Z</time></trkpt><trkpt lat="44.188365" lon="11.3550867"><ele>848.6666666666666</ele><time>2026-04-18T10:11:42.281Z</time></trkpt><trkpt lat="44.1885117" lon="11.355215"><ele>844.3333333333333</ele><time>2026-04-18T10:11:43.281Z</time></trkpt><trkpt lat="44.1886517" lon="11.3553417"><ele>840.0</ele><time>2026-04-18T10:11:44.28Z</time></trkpt><trkpt lat="44.1887767" lon="11.3554617"><ele>841.25</ele><time>2026-04-18T10:11:45.279Z</time></trkpt><trkpt lat="44.1888783" lon="11.3556017"><ele>842.5</ele><time>2026-04-18T10:11:46.281Z</time></trkpt><trkpt lat="44.1889517" lon="11.3557567"><ele>843.75</ele><time>2026-04-18T10:11:47.279Z</time></trkpt><trkpt lat="44.1889933" lon="11.3559283"><ele>845.0</ele><time>2026-04-18T10:11:48.28Z</time></trkpt><trkpt lat="44.1890033" lon="11.3561167"><ele>845.0</ele><time>2026-04-18T10:11:49.279Z</time></trkpt><trkpt lat="44.188995" lon="11.3563333"><ele>845.0</ele><time>2026-04-18T10:11:50.28Z</time></trkpt><trkpt lat="44.188975" lon="11.3565617"><ele>845.0</ele><time>2026-04-18T10:11:51.278Z</time></trkpt><trkpt lat="44.1889483" lon="11.3568017"><ele>844.0</ele><time>2026-04-18T10:11:52.279Z</time></trkpt><trkpt lat="44.1889267" lon="11.3570533"><ele>843.0</ele><time>2026-04-18T10:11:53.28Z</time></trkpt><trkpt lat="44.1889" lon="11.3573133"><ele>842.0</ele><time>2026-04-18T10:11:54.28Z</time></trkpt><trkpt lat="44.1888917" lon="11.3575867"><ele>839.6666666666667</ele><time>2026-04-18T10:11:55.28Z</time></trkpt><trkpt lat="44.18889" lon="11.3578667"><ele>837.3333333333333</ele><time>2026-04-18T10:11:56.282Z</time></trkpt><trkpt lat="44.1889" lon="11.358145"><ele>835.0</ele><time>2026-04-18T10:11:57.281Z</time></trkpt><trkpt lat="44.1888967" lon="11.3584017"><ele>834.0</ele><time>2026-04-18T10:11:58.281Z</time></trkpt><trkpt lat="44.1889033" lon="11.358635"><ele>833.0</ele><time>2026-04-18T10:11:59.281Z</time></trkpt><trkpt lat="44.1889233" lon="11.3588583"><ele>832.0</ele><time>2026-04-18T10:12:00.279Z</time></trkpt><trkpt lat="44.18897" lon="11.3590583"><ele>826.3333333333333</ele><time>2026-04-18T10:12:01.28Z</time></trkpt><trkpt lat="44.189045" lon="11.359255"><ele>820.6666666666667</ele><time>2026-04-18T10:12:02.28Z</time></trkpt><trkpt lat="44.1891483" lon="11.35944"><ele>815.0</ele><time>2026-04-18T10:12:03.279Z</time></trkpt><trkpt lat="44.18927" lon="11.35963"><ele>816.0</ele><time>2026-04-18T10:12:04.279Z</time></trkpt><trkpt lat="44.1893967" lon="11.35983"><ele>817.0</ele><time>2026-04-18T10:12:05.279Z</time></trkpt><trkpt lat="44.1895267" lon="11.36004"><ele>818.0</ele><time>2026-04-18T10:12:06.282Z</time></trkpt><trkpt lat="44.1896567" lon="11.36025"><ele>818.0</ele><time>2026-04-18T10:12:07.282Z</time></trkpt><trkpt lat="44.1897817" lon="11.3604467"><ele>818.0</ele><time>2026-04-18T10:12:08.281Z</time></trkpt><trkpt lat="44.1899017" lon="11.36062"><ele>818.0</ele><time>2026-04-18T10:12:09.279Z</time></trkpt><trkpt lat="44.190015" lon="11.3607767"><ele>815.5</ele><time>2026-04-18T10:12:10.281Z</time></trkpt><trkpt lat="44.1901267" lon="11.3609117"><ele>813.0</ele><time>2026-04-18T10:12:11.28Z</time></trkpt><trkpt lat="44.190245" lon="11.3610133"><ele>810.5</ele><time>2026-04-18T10:12:12.28Z</time></trkpt><trkpt lat="44.19037" lon="11.361085"><ele>808.0</ele><time>2026-04-18T10:12:13.28Z</time></trkpt><trkpt lat="44.190505" lon="11.36111"><ele>808.0</ele><time>2026-04-18T10:12:14.28Z</time></trkpt><trkpt lat="44.190645" lon="11.361095"><ele>808.0</ele><time>2026-04-18T10:12:15.282Z</time></trkpt><trkpt lat="44.1907867" lon="11.361055"><ele>808.0</ele><time>2026-04-18T10:12:16.28Z</time></trkpt><trkpt lat="44.1909233" lon="11.3609733"><ele>808.0</ele><time>2026-04-18T10:12:17.281Z</time></trkpt><trkpt lat="44.1910283" lon="11.3608033"><ele>806.0</ele><time>2026-04-18T10:12:18.282Z</time></trkpt><trkpt lat="44.1911333" lon="11.3606233"><ele>804.0</ele><time>2026-04-18T10:12:19.281Z</time></trkpt><trkpt lat="44.1912417" lon="11.3604517"><ele>802.0</ele><time>2026-04-18T10:12:20.281Z</time></trkpt><trkpt lat="44.19136" lon="11.36032"><ele>800.0</ele><time>2026-04-18T10:12:21.281Z</time></trkpt><trkpt lat="44.1914933" lon="11.360205"><ele>798.0</ele><time>2026-04-18T10:12:22.28Z</time></trkpt><trkpt lat="44.19164" lon="11.360105"><ele>796.0</ele><time>2026-04-18T10:12:23.28Z</time></trkpt><trkpt lat="44.1917967" lon="11.3600283"><ele>794.3333333333333</ele><time>2026-04-18T10:12:24.281Z</time></trkpt><trkpt lat="44.191965" lon="11.35997"><ele>792.6666666666667</ele><time>2026-04-18T10:12:25.279Z</time></trkpt><trkpt lat="44.1921417" lon="11.3599283"><ele>791.0</ele><time>2026-04-18T10:12:26.28Z</time></trkpt><trkpt lat="44.1923233" lon="11.359885"><ele>790.6666666666667</ele><time>2026-04-18T10:12:27.282Z</time></trkpt><trkpt lat="44.1925017" lon="11.35984"><ele>790.3333333333333</ele><time>2026-04-18T10:12:28.281Z</time></trkpt><trkpt lat="44.192685" lon="11.3597967"><ele>790.0</ele><time>2026-04-18T10:12:29.28Z</time></trkpt><trkpt lat="44.192865" lon="11.3597417"><ele>786.3333333333333</ele><time>2026-04-18T10:12:30.28Z</time></trkpt><trkpt lat="44.1930533" lon="11.3596833"><ele>782.6666666666667</ele><time>2026-04-18T10:12:31.28Z</time></trkpt><trkpt lat="44.19324" lon="11.3596233"><ele>779.0</ele><time>2026-04-18T10:12:32.28Z</time></trkpt><trkpt lat="44.1934283" lon="11.3595667"><ele>778.0</ele><time>2026-04-18T10:12:33.28Z</time></trkpt><trkpt lat="44.19362" lon="11.35949"><ele>777.0</ele><time>2026-04-18T10:12:34.28Z</time></trkpt><trkpt lat="44.1938083" lon="11.3593933"><ele>776.0</ele><time>2026-04-18T10:12:35.28Z</time></trkpt><trkpt lat="44.193995" lon="11.359285"><ele>776.0</ele><time>2026-04-18T10:12:36.279Z</time></trkpt><trkpt lat="44.1941783" lon="11.3591767"><ele>776.0</ele><time>2026-04-18T10:12:37.281Z</time></trkpt><trkpt lat="44.1943583" lon="11.3590767"><ele>776.0</ele><time>2026-04-18T10:12:38.279Z</time></trkpt><trkpt lat="44.1945283" lon="11.35898"><ele>776.0</ele><time>2026-04-18T10:12:39.28Z</time></trkpt><trkpt lat="44.194695" lon="11.3588867"><ele>776.0</ele><time>2026-04-18T10:12:40.279Z</time></trkpt><trkpt lat="44.19486" lon="11.358795"><ele>776.0</ele><time>2026-04-18T10:12:41.279Z</time></trkpt><trkpt lat="44.1950217" lon="11.3587117"><ele>773.0</ele><time>2026-04-18T10:12:42.28Z</time></trkpt><trkpt lat="44.1951683" lon="11.3586317"><ele>770.0</ele><time>2026-04-18T10:12:43.279Z</time></trkpt><trkpt lat="44.1953" lon="11.3585567"><ele>767.0</ele><time>2026-04-18T10:12:44.28Z</time></trkpt><trkpt lat="44.1954267" lon="11.3585083"><ele>764.0</ele><time>2026-04-18T10:12:45.28Z</time></trkpt><trkpt lat="44.1955417" lon="11.3585"><ele>764.0</ele><time>2026-04-18T10:12:46.28Z</time></trkpt><trkpt lat="44.195655" lon="11.3585267"><ele>764.0</ele><time>2026-04-18T10:12:47.28Z</time></trkpt><trkpt lat="44.1957717" lon="11.35859"><ele>764.0</ele><time>2026-04-18T10:12:48.279Z</time></trkpt><trkpt lat="44.1958967" lon="11.358685"><ele>764.0</ele><time>2026-04-18T10:12:49.28Z</time></trkpt><trkpt lat="44.1960317" lon="11.3588133"><ele>766.6666666666666</ele><time>2026-04-18T10:12:50.283Z</time></trkpt><trkpt lat="44.1961767" lon="11.3589633"><ele>769.3333333333333</ele><time>2026-04-18T10:12:51.28Z</time></trkpt><trkpt lat="44.1963267" lon="11.3591167"><ele>772.0</ele><time>2026-04-18T10:12:52.28Z</time></trkpt><trkpt lat="44.1964867" lon="11.3592817"><ele>770.6666666666666</ele><time>2026-04-18T10:12:53.282Z</time></trkpt><trkpt lat="44.19664" lon="11.359435"><ele>769.3333333333333</ele><time>2026-04-18T10:12:54.279Z</time></trkpt><trkpt lat="44.1968033" lon="11.359595"><ele>768.0</ele><time>2026-04-18T10:12:55.279Z</time></trkpt><trkpt lat="44.1969767" lon="11.3597633"><ele>768.0</ele><time>2026-04-18T10:12:56.281Z</time></trkpt><trkpt lat="44.197135" lon="11.3599167"><ele>768.0</ele><time>2026-04-18T10:12:57.28Z</time></trkpt><trkpt lat="44.19729" lon="11.3600783"><ele>768.0</ele><time>2026-04-18T10:12:58.278Z</time></trkpt><trkpt lat="44.1974383" lon="11.3602417"><ele>765.6666666666666</ele><time>2026-04-18T10:12:59.281Z</time></trkpt><trkpt lat="44.19758" lon="11.360395"><ele>763.3333333333333</ele><time>2026-04-18T10:13:00.282Z</time></trkpt><trkpt lat="44.1977167" lon="11.3605317"><ele>761.0</ele><time>2026-04-18T10:13:01.28Z</time></trkpt><trkpt lat="44.1978583" lon="11.3606433"><ele>761.0</ele><time>2026-04-18T10:13:02.281Z</time></trkpt><trkpt lat="44.198" lon="11.3607167"><ele>761.0</ele><time>2026-04-18T10:13:03.279Z</time></trkpt><trkpt lat="44.1981433" lon="11.360735"><ele>761.0</ele><time>2026-04-18T10:13:04.28Z</time></trkpt><trkpt lat="44.1982917" lon="11.360735"><ele>761.0</ele><time>2026-04-18T10:13:05.281Z</time></trkpt><trkpt lat="44.1984533" lon="11.3607017"><ele>759.6666666666666</ele><time>2026-04-18T10:13:06.28Z</time></trkpt><trkpt lat="44.1986283" lon="11.3606633"><ele>758.3333333333334</ele><time>2026-04-18T10:13:07.279Z</time></trkpt><trkpt lat="44.1988133" lon="11.3606217"><ele>757.0</ele><time>2026-04-18T10:13:08.279Z</time></trkpt><trkpt lat="44.198995" lon="11.36059"><ele>754.3333333333334</ele><time>2026-04-18T10:13:09.281Z</time></trkpt><trkpt lat="44.1991533" lon="11.360515"><ele>751.6666666666666</ele><time>2026-04-18T10:13:10.28Z</time></trkpt><trkpt lat="44.1993167" lon="11.3604767"><ele>749.0</ele><time>2026-04-18T10:13:11.28Z</time></trkpt><trkpt lat="44.1994733" lon="11.3604783"><ele>749.0</ele><time>2026-04-18T10:13:12.28Z</time></trkpt><trkpt lat="44.199625" lon="11.36053"><ele>749.0</ele><time>2026-04-18T10:13:13.279Z</time></trkpt><trkpt lat="44.1997467" lon="11.360595"><ele>749.0</ele><time>2026-04-18T10:13:14.28Z</time></trkpt><trkpt lat="44.1998667" lon="11.3607017"><ele>749.0</ele><time>2026-04-18T10:13:15.28Z</time></trkpt><trkpt lat="44.19999" lon="11.3608317"><ele>749.25</ele><time>2026-04-18T10:13:16.28Z</time></trkpt><trkpt lat="44.200105" lon="11.3609383"><ele>749.5</ele><time>2026-04-18T10:13:17.281Z</time></trkpt><trkpt lat="44.20023" lon="11.3610233"><ele>749.75</ele><time>2026-04-18T10:13:18.282Z</time></trkpt><trkpt lat="44.2003517" lon="11.3610683"><ele>750.0</ele><time>2026-04-18T10:13:19.279Z</time></trkpt><trkpt lat="44.2004883" lon="11.36108"><ele>750.0</ele><time>2026-04-18T10:13:20.282Z</time></trkpt><trkpt lat="44.2006167" lon="11.3610283"><ele>750.0</ele><time>2026-04-18T10:13:21.279Z</time></trkpt><trkpt lat="44.2007367" lon="11.3609483"><ele>750.0</ele><time>2026-04-18T10:13:22.278Z</time></trkpt><trkpt lat="44.2008617" lon="11.3608383"><ele>750.0</ele><time>2026-04-18T10:13:23.281Z</time></trkpt><trkpt lat="44.200975" lon="11.3606883"><ele>749.0</ele><time>2026-04-18T10:13:24.279Z</time></trkpt><trkpt lat="44.2011133" lon="11.3605967"><ele>748.0</ele><time>2026-04-18T10:13:25.281Z</time></trkpt><trkpt lat="44.20127" lon="11.360535"><ele>747.0</ele><time>2026-04-18T10:13:26.28Z</time></trkpt><trkpt lat="44.2014333" lon="11.3604833"><ele>745.6666666666666</ele><time>2026-04-18T10:13:27.279Z</time></trkpt><trkpt lat="44.2016133" lon="11.3604583"><ele>744.3333333333333</ele><time>2026-04-18T10:13:28.28Z</time></trkpt><trkpt lat="44.201785" lon="11.3604433"><ele>743.0</ele><time>2026-04-18T10:13:29.279Z</time></trkpt><trkpt lat="44.201945" lon="11.3604333"><ele>743.0</ele><time>2026-04-18T10:13:30.28Z</time></trkpt><trkpt lat="44.2020917" lon="11.360405"><ele>743.0</ele><time>2026-04-18T10:13:31.28Z</time></trkpt><trkpt lat="44.2022267" lon="11.3603333"><ele>743.0</ele><time>2026-04-18T10:13:32.28Z</time></trkpt><trkpt lat="44.2023567" lon="11.3602183"><ele>743.0</ele><time>2026-04-18T10:13:33.28Z</time></trkpt><trkpt lat="44.2024683" lon="11.3600583"><ele>743.3333333333333</ele><time>2026-04-18T10:13:34.28Z</time></trkpt><trkpt lat="44.202585" lon="11.35988"><ele>743.6666666666666</ele><time>2026-04-18T10:13:35.28Z</time></trkpt><trkpt lat="44.2027017" lon="11.35969"><ele>744.0</ele><time>2026-04-18T10:13:36.279Z</time></trkpt><trkpt lat="44.20282" lon="11.3595"><ele>741.0</ele><time>2026-04-18T10:13:37.278Z</time></trkpt><trkpt lat="44.2029467" lon="11.3593033"><ele>738.0</ele><time>2026-04-18T10:13:38.281Z</time></trkpt><trkpt lat="44.2030817" lon="11.3591"><ele>735.0</ele><time>2026-04-18T10:13:39.279Z</time></trkpt><trkpt lat="44.203215" lon="11.3588983"><ele>731.3333333333334</ele><time>2026-04-18T10:13:40.281Z</time></trkpt><trkpt lat="44.2033517" lon="11.3587133"><ele>727.6666666666667</ele><time>2026-04-18T10:13:41.279Z</time></trkpt><trkpt lat="44.2034783" lon="11.35854"><ele>724.0</ele><time>2026-04-18T10:13:42.281Z</time></trkpt><trkpt lat="44.2035933" lon="11.35837"><ele>724.0</ele><time>2026-04-18T10:13:43.28Z</time></trkpt><trkpt lat="44.203705" lon="11.3582033"><ele>724.0</ele><time>2026-04-18T10:13:44.28Z</time></trkpt><trkpt lat="44.2038033" lon="11.358025"><ele>724.0</ele><time>2026-04-18T10:13:45.279Z</time></trkpt><trkpt lat="44.2039017" lon="11.3578633"><ele>723.0</ele><time>2026-04-18T10:13:46.282Z</time></trkpt><trkpt lat="44.2039867" lon="11.3576967"><ele>722.0</ele><time>2026-04-18T10:13:47.281Z</time></trkpt><trkpt lat="44.20407" lon="11.3575483"><ele>721.0</ele><time>2026-04-18T10:13:48.28Z</time></trkpt><trkpt lat="44.2041683" lon="11.357425"><ele>720.0</ele><time>2026-04-18T10:13:49.279Z</time></trkpt><trkpt lat="44.2042717" lon="11.3573117"><ele>720.0</ele><time>2026-04-18T10:13:50.28Z</time></trkpt><trkpt lat="44.2043933" lon="11.357235"><ele>720.0</ele><time>2026-04-18T10:13:51.279Z</time></trkpt><trkpt lat="44.2045267" lon="11.3571783"><ele>720.0</ele><time>2026-04-18T10:13:52.28Z</time></trkpt><trkpt lat="44.2046717" lon="11.3571367"><ele>720.0</ele><time>2026-04-18T10:13:53.281Z</time></trkpt><trkpt lat="44.2048233" lon="11.35712"><ele>719.0</ele><time>2026-04-18T10:13:54.279Z</time></trkpt><trkpt lat="44.204995" lon="11.35714"><ele>718.0</ele><time>2026-04-18T10:13:55.279Z</time></trkpt><trkpt lat="44.2051717" lon="11.3571817"><ele>717.0</ele><time>2026-04-18T10:13:56.28Z</time></trkpt><trkpt lat="44.205355" lon="11.35726"><ele>717.0</ele><time>2026-04-18T10:13:57.279Z</time></trkpt><trkpt lat="44.205525" lon="11.3573533"><ele>717.0</ele><time>2026-04-18T10:13:58.28Z</time></trkpt><trkpt lat="44.205695" lon="11.357455"><ele>717.0</ele><time>2026-04-18T10:13:59.28Z</time></trkpt><trkpt lat="44.2058667" lon="11.3575217"><ele>714.6666666666666</ele><time>2026-04-18T10:14:00.28Z</time></trkpt><trkpt lat="44.2060467" lon="11.3575567"><ele>712.3333333333333</ele><time>2026-04-18T10:14:01.28Z</time></trkpt><trkpt lat="44.20622" lon="11.3575417"><ele>710.0</ele><time>2026-04-18T10:14:02.278Z</time></trkpt><trkpt lat="44.2063883" lon="11.357505"><ele>709.3333333333333</ele><time>2026-04-18T10:14:03.279Z</time></trkpt><trkpt lat="44.20656" lon="11.35749"><ele>708.6666666666666</ele><time>2026-04-18T10:14:04.279Z</time></trkpt><trkpt lat="44.2067217" lon="11.35751"><ele>708.0</ele><time>2026-04-18T10:14:05.28Z</time></trkpt><trkpt lat="44.2068817" lon="11.357555"><ele>708.0</ele><time>2026-04-18T10:14:06.281Z</time></trkpt><trkpt lat="44.2070317" lon="11.3576467"><ele>708.0</ele><time>2026-04-18T10:14:07.281Z</time></trkpt><trkpt lat="44.2071533" lon="11.3578283"><ele>708.0</ele><time>2026-04-18T10:14:08.281Z</time></trkpt><trkpt lat="44.207255" lon="11.35801"><ele>705.3333333333334</ele><time>2026-04-18T10:14:09.281Z</time></trkpt><trkpt lat="44.2073683" lon="11.3582"><ele>702.6666666666667</ele><time>2026-04-18T10:14:10.281Z</time></trkpt><trkpt lat="44.2074817" lon="11.3584"><ele>700.0</ele><time>2026-04-18T10:14:11.281Z</time></trkpt><trkpt lat="44.2076267" lon="11.3585833"><ele>700.0</ele><time>2026-04-18T10:14:12.281Z</time></trkpt><trkpt lat="44.2078017" lon="11.358745"><ele>700.0</ele><time>2026-04-18T10:14:13.28Z</time></trkpt><trkpt lat="44.207975" lon="11.3588933"><ele>700.0</ele><time>2026-04-18T10:14:14.281Z</time></trkpt><trkpt lat="44.20814" lon="11.3590283"><ele>697.6666666666667</ele><time>2026-04-18T10:14:15.278Z</time></trkpt><trkpt lat="44.2083083" lon="11.3591483"><ele>695.3333333333334</ele><time>2026-04-18T10:14:16.28Z</time></trkpt><trkpt lat="44.2084683" lon="11.3592633"><ele>693.0</ele><time>2026-04-18T10:14:17.28Z</time></trkpt><trkpt lat="44.2086317" lon="11.359375"><ele>693.0</ele><time>2026-04-18T10:14:18.28Z</time></trkpt><trkpt lat="44.2087833" lon="11.3594583"><ele>693.0</ele><time>2026-04-18T10:14:19.279Z</time></trkpt><trkpt lat="44.20893" lon="11.3594117"><ele>693.0</ele><time>2026-04-18T10:14:20.28Z</time></trkpt><trkpt lat="44.2090817" lon="11.3592967"><ele>690.3333333333334</ele><time>2026-04-18T10:14:21.28Z</time></trkpt><trkpt lat="44.2092283" lon="11.35917"><ele>687.6666666666667</ele><time>2026-04-18T10:14:22.28Z</time></trkpt><trkpt lat="44.2093833" lon="11.359075"><ele>685.0</ele><time>2026-04-18T10:14:23.281Z</time></trkpt><trkpt lat="44.2095533" lon="11.3590233"><ele>685.0</ele><time>2026-04-18T10:14:24.28Z</time></trkpt><trkpt lat="44.2097317" lon="11.3590167"><ele>685.0</ele><time>2026-04-18T10:14:25.28Z</time></trkpt><trkpt lat="44.2099267" lon="11.359065"><ele>685.0</ele><time>2026-04-18T10:14:26.28Z</time></trkpt><trkpt lat="44.2101233" lon="11.3591283"><ele>684.3333333333334</ele><time>2026-04-18T10:14:27.28Z</time></trkpt><trkpt lat="44.2103067" lon="11.35917"><ele>683.6666666666666</ele><time>2026-04-18T10:14:28.28Z</time></trkpt><trkpt lat="44.2104933" lon="11.3591767"><ele>683.0</ele><time>2026-04-18T10:14:29.28Z</time></trkpt><trkpt lat="44.2106883" lon="11.35915"><ele>680.6666666666666</ele><time>2026-04-18T10:14:30.281Z</time></trkpt><trkpt lat="44.2108983" lon="11.3591167"><ele>678.3333333333334</ele><time>2026-04-18T10:14:31.279Z</time></trkpt><trkpt lat="44.21106" lon="11.3590483"><ele>676.0</ele><time>2026-04-18T10:14:32.282Z</time></trkpt><trkpt lat="44.2112367" lon="11.3589983"><ele>676.0</ele><time>2026-04-18T10:14:33.28Z</time></trkpt><trkpt lat="44.2113883" lon="11.358955"><ele>676.0</ele><time>2026-04-18T10:14:34.28Z</time></trkpt><trkpt lat="44.2115483" lon="11.3590017"><ele>676.0</ele><time>2026-04-18T10:14:35.28Z</time></trkpt><trkpt lat="44.211685" lon="11.35911"><ele>674.3333333333334</ele><time>2026-04-18T10:14:36.281Z</time></trkpt><trkpt lat="44.2118117" lon="11.3592783"><ele>672.6666666666666</ele><time>2026-04-18T10:14:37.279Z</time></trkpt><trkpt lat="44.2119167" lon="11.3594733"><ele>671.0</ele><time>2026-04-18T10:14:38.281Z</time></trkpt><trkpt lat="44.2120183" lon="11.3596417"><ele>669.8</ele><time>2026-04-18T10:14:39.28Z</time></trkpt><trkpt lat="44.2121083" lon="11.3597633"><ele>668.5999999999999</ele><time>2026-04-18T10:14:40.28Z</time></trkpt><trkpt lat="44.2121967" lon="11.3598017"><ele>667.4</ele><time>2026-04-18T10:14:41.281Z</time></trkpt><trkpt lat="44.2122883" lon="11.3598233"><ele>666.2</ele><time>2026-04-18T10:14:42.281Z</time></trkpt><trkpt lat="44.212365" lon="11.3597867"><ele>665.0</ele><time>2026-04-18T10:14:43.281Z</time></trkpt><trkpt lat="44.2124167" lon="11.3597033"><ele>663.25</ele><time>2026-04-18T10:14:44.28Z</time></trkpt><trkpt lat="44.212445" lon="11.3595817"><ele>661.5</ele><time>2026-04-18T10:14:45.279Z</time></trkpt><trkpt lat="44.2124017" lon="11.3594067"><ele>659.75</ele><time>2026-04-18T10:14:46.279Z</time></trkpt><trkpt lat="44.2123833" lon="11.3592467"><ele>658.0</ele><time>2026-04-18T10:14:47.281Z</time></trkpt><trkpt lat="44.2123467" lon="11.3590417"><ele>659.0</ele><time>2026-04-18T10:14:48.279Z</time></trkpt><trkpt lat="44.2122917" lon="11.3588067"><ele>660.0</ele><time>2026-04-18T10:14:49.281Z</time></trkpt><trkpt lat="44.2122033" lon="11.3585317"><ele>661.0</ele><time>2026-04-18T10:14:50.28Z</time></trkpt><trkpt lat="44.2121383" lon="11.3582933"><ele>657.0</ele><time>2026-04-18T10:14:51.28Z</time></trkpt><trkpt lat="44.2119867" lon="11.3580067"><ele>653.0</ele><time>2026-04-18T10:14:52.281Z</time></trkpt><trkpt lat="44.211915" lon="11.357785"><ele>649.0</ele><time>2026-04-18T10:14:53.279Z</time></trkpt><trkpt lat="44.2118267" lon="11.3576317"><ele>649.0</ele><time>2026-04-18T10:14:54.28Z</time></trkpt><trkpt lat="44.2117033" lon="11.3575183"><ele>649.0</ele><time>2026-04-18T10:14:55.281Z</time></trkpt><trkpt lat="44.211555" lon="11.357445"><ele>649.0</ele><time>2026-04-18T10:14:56.281Z</time></trkpt><trkpt lat="44.21133" lon="11.3574767"><ele>649.5</ele><time>2026-04-18T10:14:57.28Z</time></trkpt><trkpt lat="44.211175" lon="11.3574383"><ele>650.0</ele><time>2026-04-18T10:14:58.28Z</time></trkpt><trkpt lat="44.2110383" lon="11.3573767"><ele>650.5</ele><time>2026-04-18T10:14:59.281Z</time></trkpt><trkpt lat="44.210915" lon="11.357275"><ele>651.0</ele><time>2026-04-18T10:15:00.281Z</time></trkpt><trkpt lat="44.210795" lon="11.35715"><ele>650.3333333333334</ele><time>2026-04-18T10:15:01.279Z</time></trkpt><trkpt lat="44.2106933" lon="11.3569483"><ele>649.6666666666667</ele><time>2026-04-18T10:15:02.28Z</time></trkpt><trkpt lat="44.2106117" lon="11.35671"><ele>649.0</ele><time>2026-04-18T10:15:03.28Z</time></trkpt><trkpt lat="44.2105367" lon="11.3564817"><ele>646.3333333333334</ele><time>2026-04-18T10:15:04.279Z</time></trkpt><trkpt lat="44.210475" lon="11.3562133"><ele>643.6666666666666</ele><time>2026-04-18T10:15:05.28Z</time></trkpt><trkpt lat="44.2104283" lon="11.3559567"><ele>641.0</ele><time>2026-04-18T10:15:06.281Z</time></trkpt><trkpt lat="44.2104233" lon="11.3556733"><ele>638.3333333333333</ele><time>2026-04-18T10:15:07.279Z</time></trkpt><trkpt lat="44.2103983" lon="11.3554183"><ele>635.6666666666666</ele><time>2026-04-18T10:15:08.28Z</time></trkpt><trkpt lat="44.210365" lon="11.3551933"><ele>633.0</ele><time>2026-04-18T10:15:09.28Z</time></trkpt><trkpt lat="44.2103133" lon="11.3549767"><ele>633.0</ele><time>2026-04-18T10:15:10.28Z</time></trkpt><trkpt lat="44.2102267" lon="11.354765"><ele>633.0</ele><time>2026-04-18T10:15:11.279Z</time></trkpt><trkpt lat="44.2101083" lon="11.3545583"><ele>633.0</ele><time>2026-04-18T10:15:12.281Z</time></trkpt><trkpt lat="44.2099867" lon="11.3543617"><ele>633.3333333333334</ele><time>2026-04-18T10:15:13.279Z</time></trkpt><trkpt lat="44.209865" lon="11.3541633"><ele>633.6666666666667</ele><time>2026-04-18T10:15:14.281Z</time></trkpt><trkpt lat="44.2097833" lon="11.353975"><ele>634.0</ele><time>2026-04-18T10:15:15.28Z</time></trkpt><trkpt lat="44.20973" lon="11.3537867"><ele>634.0</ele><time>2026-04-18T10:15:16.279Z</time></trkpt><trkpt lat="44.209705" lon="11.35358"><ele>634.0</ele><time>2026-04-18T10:15:17.281Z</time></trkpt><trkpt lat="44.2097183" lon="11.35336"><ele>634.0</ele><time>2026-04-18T10:15:18.281Z</time></trkpt><trkpt lat="44.2097783" lon="11.35316"><ele>630.3333333333334</ele><time>2026-04-18T10:15:19.28Z</time></trkpt><trkpt lat="44.2098917" lon="11.3529967"><ele>626.6666666666666</ele><time>2026-04-18T10:15:20.281Z</time></trkpt><trkpt lat="44.2100333" lon="11.3528583"><ele>623.0</ele><time>2026-04-18T10:15:21.281Z</time></trkpt><trkpt lat="44.210175" lon="11.3527333"><ele>623.0</ele><time>2026-04-18T10:15:22.278Z</time></trkpt><trkpt lat="44.21029" lon="11.3525867"><ele>623.0</ele><time>2026-04-18T10:15:23.281Z</time></trkpt><trkpt lat="44.210375" lon="11.3524217"><ele>623.0</ele><time>2026-04-18T10:15:24.281Z</time></trkpt><trkpt lat="44.2104333" lon="11.3522367"><ele>623.0</ele><time>2026-04-18T10:15:25.281Z</time></trkpt><trkpt lat="44.21045" lon="11.3520217"><ele>621.0</ele><time>2026-04-18T10:15:26.28Z</time></trkpt><trkpt lat="44.210425" lon="11.3518117"><ele>619.0</ele><time>2026-04-18T10:15:27.281Z</time></trkpt><trkpt lat="44.210345" lon="11.3516167"><ele>617.0</ele><time>2026-04-18T10:15:28.278Z</time></trkpt><trkpt lat="44.2102333" lon="11.351455"><ele>611.3333333333333</ele><time>2026-04-18T10:15:29.28Z</time></trkpt><trkpt lat="44.2101067" lon="11.3513167"><ele>605.6666666666666</ele><time>2026-04-18T10:15:30.281Z</time></trkpt><trkpt lat="44.209955" lon="11.35123"><ele>600.0</ele><time>2026-04-18T10:15:31.28Z</time></trkpt><trkpt lat="44.2098067" lon="11.3511667"><ele>600.0</ele><time>2026-04-18T10:15:32.28Z</time></trkpt><trkpt lat="44.2096617" lon="11.3511633"><ele>600.0</ele><time>2026-04-18T10:15:33.28Z</time></trkpt><trkpt lat="44.2094217" lon="11.35128"><ele>600.0</ele><time>2026-04-18T10:15:34.281Z</time></trkpt><trkpt lat="44.2092483" lon="11.3512917"><ele>600.0</ele><time>2026-04-18T10:15:35.281Z</time></trkpt><trkpt lat="44.2090817" lon="11.3512667"><ele>600.0</ele><time>2026-04-18T10:15:36.279Z</time></trkpt><trkpt lat="44.20894" lon="11.3511883"><ele>600.0</ele><time>2026-04-18T10:15:37.28Z</time></trkpt><trkpt lat="44.2088367" lon="11.3510483"><ele>603.6666666666666</ele><time>2026-04-18T10:15:38.28Z</time></trkpt><trkpt lat="44.208755" lon="11.350885"><ele>607.3333333333333</ele><time>2026-04-18T10:15:39.278Z</time></trkpt><trkpt lat="44.2087333" lon="11.3506583"><ele>611.0</ele><time>2026-04-18T10:15:40.282Z</time></trkpt><trkpt lat="44.2087183" lon="11.35046"><ele>611.0</ele><time>2026-04-18T10:15:41.281Z</time></trkpt><trkpt lat="44.208745" lon="11.3502617"><ele>611.0</ele><time>2026-04-18T10:15:42.281Z</time></trkpt><trkpt lat="44.2087567" lon="11.3500583"><ele>611.0</ele><time>2026-04-18T10:15:43.281Z</time></trkpt><trkpt lat="44.2087617" lon="11.3498483"><ele>611.0</ele><time>2026-04-18T10:15:44.281Z</time></trkpt><trkpt lat="44.2087317" lon="11.3496683"><ele>607.5</ele><time>2026-04-18T10:15:45.28Z</time></trkpt><trkpt lat="44.2086767" lon="11.349515"><ele>604.0</ele><time>2026-04-18T10:15:46.281Z</time></trkpt><trkpt lat="44.20859" lon="11.3493767"><ele>600.5</ele><time>2026-04-18T10:15:47.28Z</time></trkpt><trkpt lat="44.2085017" lon="11.3492417"><ele>597.0</ele><time>2026-04-18T10:15:48.281Z</time></trkpt><trkpt lat="44.20838" lon="11.349135"><ele>597.0</ele><time>2026-04-18T10:15:49.281Z</time></trkpt><trkpt lat="44.20821" lon="11.34907"><ele>597.0</ele><time>2026-04-18T10:15:50.281Z</time></trkpt><trkpt lat="44.20806" lon="11.3489967"><ele>597.0</ele><time>2026-04-18T10:15:51.28Z</time></trkpt><trkpt lat="44.20792" lon="11.3489017"><ele>594.3333333333334</ele><time>2026-04-18T10:15:52.279Z</time></trkpt><trkpt lat="44.20777" lon="11.34882"><ele>591.6666666666667</ele><time>2026-04-18T10:15:53.281Z</time></trkpt><trkpt lat="44.2076183" lon="11.3487317"><ele>589.0</ele><time>2026-04-18T10:15:54.28Z</time></trkpt><trkpt lat="44.2074733" lon="11.3486433"><ele>589.0</ele><time>2026-04-18T10:15:55.28Z</time></trkpt><trkpt lat="44.2073283" lon="11.3485617"><ele>589.0</ele><time>2026-04-18T10:15:56.28Z</time></trkpt><trkpt lat="44.2071867" lon="11.3484833"><ele>589.0</ele><time>2026-04-18T10:15:57.28Z</time></trkpt><trkpt lat="44.207045" lon="11.3484133"><ele>589.0</ele><time>2026-04-18T10:15:58.28Z</time></trkpt><trkpt lat="44.206915" lon="11.3483533"><ele>589.0</ele><time>2026-04-18T10:15:59.281Z</time></trkpt><trkpt lat="44.2067833" lon="11.348295"><ele>589.0</ele><time>2026-04-18T10:16:00.281Z</time></trkpt><trkpt lat="44.2066667" lon="11.348235"><ele>589.0</ele><time>2026-04-18T10:16:01.282Z</time></trkpt><trkpt lat="44.206565" lon="11.34817"><ele>589.8333333333334</ele><time>2026-04-18T10:16:02.281Z</time></trkpt><trkpt lat="44.20647" lon="11.3481333"><ele>590.6666666666667</ele><time>2026-04-18T10:16:03.281Z</time></trkpt><trkpt lat="44.2063783" lon="11.3480983"><ele>591.5</ele><time>2026-04-18T10:16:04.28Z</time></trkpt><trkpt lat="44.206295" lon="11.3480967"><ele>592.3333333333334</ele><time>2026-04-18T10:16:05.281Z</time></trkpt><trkpt lat="44.2062083" lon="11.3481333"><ele>593.1666666666666</ele><time>2026-04-18T10:16:06.281Z</time></trkpt><trkpt lat="44.2061317" lon="11.3481733"><ele>594.0</ele><time>2026-04-18T10:16:07.281Z</time></trkpt><trkpt lat="44.2060467" lon="11.3481833"><ele>594.0</ele><time>2026-04-18T10:16:08.281Z</time></trkpt><trkpt lat="44.2059583" lon="11.3481667"><ele>594.0</ele><time>2026-04-18T10:16:09.281Z</time></trkpt><trkpt lat="44.2058767" lon="11.348135"><ele>594.0</ele><time>2026-04-18T10:16:10.28Z</time></trkpt><trkpt lat="44.2057933" lon="11.3480817"><ele>594.0</ele><time>2026-04-18T10:16:11.279Z</time></trkpt><trkpt lat="44.20574" lon="11.3480167"><ele>594.0</ele><time>2026-04-18T10:16:12.281Z</time></trkpt><trkpt lat="44.2056967" lon="11.347945"><ele>594.0</ele><time>2026-04-18T10:16:13.278Z</time></trkpt><trkpt lat="44.2057267" lon="11.3478133"><ele>591.5</ele><time>2026-04-18T10:16:14.28Z</time></trkpt><trkpt lat="44.20577" lon="11.3476917"><ele>589.0</ele><time>2026-04-18T10:16:15.28Z</time></trkpt><trkpt lat="44.2058683" lon="11.3475583"><ele>586.5</ele><time>2026-04-18T10:16:16.282Z</time></trkpt><trkpt lat="44.2059967" lon="11.347495"><ele>584.0</ele><time>2026-04-18T10:16:17.281Z</time></trkpt><trkpt lat="44.206105" lon="11.3474533"><ele>584.0</ele><time>2026-04-18T10:16:18.281Z</time></trkpt><trkpt lat="44.2062233" lon="11.347415"><ele>584.0</ele><time>2026-04-18T10:16:19.281Z</time></trkpt><trkpt lat="44.2063383" lon="11.3473483"><ele>584.0</ele><time>2026-04-18T10:16:20.281Z</time></trkpt><trkpt lat="44.2064283" lon="11.3472567"><ele>584.0</ele><time>2026-04-18T10:16:21.28Z</time></trkpt><trkpt lat="44.2064983" lon="11.347155"><ele>580.25</ele><time>2026-04-18T10:16:22.282Z</time></trkpt><trkpt lat="44.2065733" lon="11.347045"><ele>576.5</ele><time>2026-04-18T10:16:23.282Z</time></trkpt><trkpt lat="44.20665" lon="11.3469283"><ele>572.75</ele><time>2026-04-18T10:16:24.281Z</time></trkpt><trkpt lat="44.2067367" lon="11.3468183"><ele>569.0</ele><time>2026-04-18T10:16:25.283Z</time></trkpt><trkpt lat="44.2068267" lon="11.34673"><ele>569.0</ele><time>2026-04-18T10:16:26.282Z</time></trkpt><trkpt lat="44.2069267" lon="11.3466433"><ele>569.0</ele><time>2026-04-18T10:16:27.281Z</time></trkpt><trkpt lat="44.2070467" lon="11.346565"><ele>569.0</ele><time>2026-04-18T10:16:28.281Z</time></trkpt><trkpt lat="44.20716" lon="11.34653"><ele>569.0</ele><time>2026-04-18T10:16:29.283Z</time></trkpt><trkpt lat="44.2072717" lon="11.346515"><ele>568.5</ele><time>2026-04-18T10:16:30.282Z</time></trkpt><trkpt lat="44.2073733" lon="11.3465117"><ele>568.0</ele><time>2026-04-18T10:16:31.282Z</time></trkpt><trkpt lat="44.2074617" lon="11.34652"><ele>567.5</ele><time>2026-04-18T10:16:32.283Z</time></trkpt><trkpt lat="44.2075483" lon="11.3465367"><ele>567.0</ele><time>2026-04-18T10:16:33.281Z</time></trkpt><trkpt lat="44.2076317" lon="11.3465533"><ele>566.5</ele><time>2026-04-18T10:16:34.281Z</time></trkpt><trkpt lat="44.2077183" lon="11.3465667"><ele>566.0</ele><time>2026-04-18T10:16:35.281Z</time></trkpt><trkpt lat="44.20782" lon="11.3465883"><ele>566.0</ele><time>2026-04-18T10:16:36.282Z</time></trkpt><trkpt lat="44.207925" lon="11.3466067"><ele>566.0</ele><time>2026-04-18T10:16:37.282Z</time></trkpt><trkpt lat="44.2080283" lon="11.346615"><ele>566.0</ele><time>2026-04-18T10:16:38.282Z</time></trkpt><trkpt lat="44.208135" lon="11.346625"><ele>566.0</ele><time>2026-04-18T10:16:39.282Z</time></trkpt><trkpt lat="44.208245" lon="11.3466283"><ele>566.0</ele><time>2026-04-18T10:16:40.282Z</time></trkpt><trkpt lat="44.20836" lon="11.3466133"><ele>564.75</ele><time>2026-04-18T10:16:41.282Z</time></trkpt><trkpt lat="44.2084767" lon="11.3465817"><ele>563.5</ele><time>2026-04-18T10:16:42.281Z</time></trkpt><trkpt lat="44.20859" lon="11.3465417"><ele>562.25</ele><time>2026-04-18T10:16:43.281Z</time></trkpt><trkpt lat="44.2087067" lon="11.3464983"><ele>561.0</ele><time>2026-04-18T10:16:44.282Z</time></trkpt><trkpt lat="44.2088217" lon="11.346455"><ele>561.0</ele><time>2026-04-18T10:16:45.281Z</time></trkpt><trkpt lat="44.2089333" lon="11.34641"><ele>561.0</ele><time>2026-04-18T10:16:46.282Z</time></trkpt><trkpt lat="44.2090367" lon="11.3463733"><ele>561.0</ele><time>2026-04-18T10:16:47.281Z</time></trkpt><trkpt lat="44.2091483" lon="11.34637"><ele>561.0</ele><time>2026-04-18T10:16:48.283Z</time></trkpt><trkpt lat="44.2092533" lon="11.3464"><ele>561.0</ele><time>2026-04-18T10:16:49.282Z</time></trkpt><trkpt lat="44.209355" lon="11.3464683"><ele>560.0</ele><time>2026-04-18T10:16:50.283Z</time></trkpt><trkpt lat="44.2094517" lon="11.3465733"><ele>559.0</ele><time>2026-04-18T10:16:51.281Z</time></trkpt><trkpt lat="44.2095567" lon="11.346685"><ele>558.0</ele><time>2026-04-18T10:16:52.281Z</time></trkpt><trkpt lat="44.2096883" lon="11.34682"><ele>557.0</ele><time>2026-04-18T10:16:53.282Z</time></trkpt><trkpt lat="44.209825" lon="11.34692"><ele>554.0</ele><time>2026-04-18T10:16:54.282Z</time></trkpt><trkpt lat="44.2099683" lon="11.34699"><ele>551.0</ele><time>2026-04-18T10:16:55.282Z</time></trkpt><trkpt lat="44.210115" lon="11.3470333"><ele>548.0</ele><time>2026-04-18T10:16:56.282Z</time></trkpt><trkpt lat="44.2102583" lon="11.3470467"><ele>545.0</ele><time>2026-04-18T10:16:57.282Z</time></trkpt><trkpt lat="44.2104" lon="11.3470517"><ele>545.0</ele><time>2026-04-18T10:16:58.281Z</time></trkpt><trkpt lat="44.2105333" lon="11.3470517"><ele>545.0</ele><time>2026-04-18T10:16:59.282Z</time></trkpt><trkpt lat="44.2106533" lon="11.3470633"><ele>545.0</ele><time>2026-04-18T10:17:00.281Z</time></trkpt><trkpt lat="44.21076" lon="11.3471217"><ele>545.0</ele><time>2026-04-18T10:17:01.28Z</time></trkpt><trkpt lat="44.2108533" lon="11.3472217"><ele>544.0</ele><time>2026-04-18T10:17:02.28Z</time></trkpt><trkpt lat="44.210925" lon="11.3473517"><ele>543.0</ele><time>2026-04-18T10:17:03.281Z</time></trkpt><trkpt lat="44.2109967" lon="11.3475"><ele>542.0</ele><time>2026-04-18T10:17:04.28Z</time></trkpt><trkpt lat="44.2110183" lon="11.347655"><ele>541.0</ele><time>2026-04-18T10:17:05.278Z</time></trkpt><trkpt lat="44.2110417" lon="11.347815"><ele>541.0</ele><time>2026-04-18T10:17:06.28Z</time></trkpt><trkpt lat="44.2110917" lon="11.3479583"><ele>541.0</ele><time>2026-04-18T10:17:07.28Z</time></trkpt><trkpt lat="44.21113" lon="11.3480833"><ele>541.0</ele><time>2026-04-18T10:17:08.281Z</time></trkpt><trkpt lat="44.2112083" lon="11.3481083"><ele>541.0</ele><time>2026-04-18T10:17:09.279Z</time></trkpt><trkpt lat="44.2112933" lon="11.3481267"><ele>541.0</ele><time>2026-04-18T10:17:10.278Z</time></trkpt><trkpt lat="44.21139" lon="11.3481117"><ele>538.0</ele><time>2026-04-18T10:17:11.28Z</time></trkpt><trkpt lat="44.2114917" lon="11.347885"><ele>535.0</ele><time>2026-04-18T10:17:12.28Z</time></trkpt><trkpt lat="44.2115983" lon="11.3477133"><ele>532.0</ele><time>2026-04-18T10:17:13.28Z</time></trkpt><trkpt lat="44.2117267" lon="11.3475883"><ele>532.0</ele><time>2026-04-18T10:17:14.28Z</time></trkpt><trkpt lat="44.211865" lon="11.3474933"><ele>532.0</ele><time>2026-04-18T10:17:15.28Z</time></trkpt><trkpt lat="44.212015" lon="11.3474433"><ele>532.0</ele><time>2026-04-18T10:17:16.28Z</time></trkpt><trkpt lat="44.2121717" lon="11.34744"><ele>531.3333333333334</ele><time>2026-04-18T10:17:17.279Z</time></trkpt><trkpt lat="44.2123317" lon="11.3474483"><ele>530.6666666666666</ele><time>2026-04-18T10:17:18.278Z</time></trkpt><trkpt lat="44.2124917" lon="11.347465"><ele>530.0</ele><time>2026-04-18T10:17:19.28Z</time></trkpt><trkpt lat="44.2126567" lon="11.3474917"><ele>530.0</ele><time>2026-04-18T10:17:20.279Z</time></trkpt><trkpt lat="44.21283" lon="11.3475417"><ele>530.0</ele><time>2026-04-18T10:17:21.28Z</time></trkpt><trkpt lat="44.212995" lon="11.3475867"><ele>530.0</ele><time>2026-04-18T10:17:22.28Z</time></trkpt><trkpt lat="44.2131533" lon="11.3476133"><ele>526.3333333333333</ele><time>2026-04-18T10:17:23.28Z</time></trkpt><trkpt lat="44.2133133" lon="11.347645"><ele>522.6666666666666</ele><time>2026-04-18T10:17:24.28Z</time></trkpt><trkpt lat="44.21347" lon="11.34765"><ele>519.0</ele><time>2026-04-18T10:17:25.28Z</time></trkpt><trkpt lat="44.21362" lon="11.34761"><ele>519.0</ele><time>2026-04-18T10:17:26.28Z</time></trkpt><trkpt lat="44.213765" lon="11.3475333"><ele>519.0</ele><time>2026-04-18T10:17:27.279Z</time></trkpt><trkpt lat="44.213915" lon="11.347465"><ele>519.0</ele><time>2026-04-18T10:17:28.28Z</time></trkpt><trkpt lat="44.2140683" lon="11.3474117"><ele>518.0</ele><time>2026-04-18T10:17:29.279Z</time></trkpt><trkpt lat="44.2142283" lon="11.3473967"><ele>517.0</ele><time>2026-04-18T10:17:30.28Z</time></trkpt><trkpt lat="44.214395" lon="11.3474233"><ele>516.0</ele><time>2026-04-18T10:17:31.279Z</time></trkpt><trkpt lat="44.214565" lon="11.3474817"><ele>516.0</ele><time>2026-04-18T10:17:32.28Z</time></trkpt><trkpt lat="44.2147417" lon="11.3475367"><ele>516.0</ele><time>2026-04-18T10:17:33.279Z</time></trkpt><trkpt lat="44.214915" lon="11.3475367"><ele>516.0</ele><time>2026-04-18T10:17:34.28Z</time></trkpt><trkpt lat="44.2150833" lon="11.34748"><ele>515.0</ele><time>2026-04-18T10:17:35.28Z</time></trkpt><trkpt lat="44.2152417" lon="11.347375"><ele>514.0</ele><time>2026-04-18T10:17:36.28Z</time></trkpt><trkpt lat="44.2153767" lon="11.3472067"><ele>513.0</ele><time>2026-04-18T10:17:37.279Z</time></trkpt><trkpt lat="44.2155183" lon="11.3470633"><ele>509.33333333333337</ele><time>2026-04-18T10:17:38.279Z</time></trkpt><trkpt lat="44.2156483" lon="11.3469233"><ele>505.6666666666667</ele><time>2026-04-18T10:17:39.278Z</time></trkpt><trkpt lat="44.2157767" lon="11.3468133"><ele>502.0</ele><time>2026-04-18T10:17:40.28Z</time></trkpt><trkpt lat="44.2159217" lon="11.34674"><ele>502.0</ele><time>2026-04-18T10:17:41.28Z</time></trkpt><trkpt lat="44.2160767" lon="11.346705"><ele>502.0</ele><time>2026-04-18T10:17:42.28Z</time></trkpt><trkpt lat="44.216235" lon="11.34671"><ele>502.0</ele><time>2026-04-18T10:17:43.28Z</time></trkpt><trkpt lat="44.216405" lon="11.3467567"><ele>501.33333333333337</ele><time>2026-04-18T10:17:44.279Z</time></trkpt><trkpt lat="44.2165767" lon="11.3467933"><ele>500.66666666666663</ele><time>2026-04-18T10:17:45.28Z</time></trkpt><trkpt lat="44.216755" lon="11.3467933"><ele>500.0</ele><time>2026-04-18T10:17:46.279Z</time></trkpt><trkpt lat="44.2169283" lon="11.346785"><ele>500.0</ele><time>2026-04-18T10:17:47.28Z</time></trkpt><trkpt lat="44.2171083" lon="11.3467117"><ele>500.0</ele><time>2026-04-18T10:17:48.28Z</time></trkpt><trkpt lat="44.21729" lon="11.3466717"><ele>500.0</ele><time>2026-04-18T10:17:49.28Z</time></trkpt><trkpt lat="44.217465" lon="11.3466333"><ele>497.3333333333333</ele><time>2026-04-18T10:17:50.279Z</time></trkpt><trkpt lat="44.2176317" lon="11.3466133"><ele>494.66666666666663</ele><time>2026-04-18T10:17:51.279Z</time></trkpt><trkpt lat="44.2177983" lon="11.3466483"><ele>492.0</ele><time>2026-04-18T10:17:52.28Z</time></trkpt><trkpt lat="44.2179533" lon="11.3467233"><ele>492.0</ele><time>2026-04-18T10:17:53.281Z</time></trkpt><trkpt lat="44.2180883" lon="11.3468267"><ele>492.0</ele><time>2026-04-18T10:17:54.278Z</time></trkpt><trkpt lat="44.2182" lon="11.34694"><ele>492.0</ele><time>2026-04-18T10:17:55.28Z</time></trkpt><trkpt lat="44.21828" lon="11.3471233"><ele>492.0</ele><time>2026-04-18T10:17:56.278Z</time></trkpt><trkpt lat="44.2183233" lon="11.3473533"><ele>490.33333333333337</ele><time>2026-04-18T10:17:57.279Z</time></trkpt><trkpt lat="44.218355" lon="11.3476183"><ele>488.6666666666667</ele><time>2026-04-18T10:17:58.281Z</time></trkpt><trkpt lat="44.2183783" lon="11.3478967"><ele>487.0</ele><time>2026-04-18T10:17:59.28Z</time></trkpt><trkpt lat="44.2183983" lon="11.3481733"><ele>486.6666666666667</ele><time>2026-04-18T10:18:00.28Z</time></trkpt><trkpt lat="44.2184167" lon="11.3484567"><ele>486.33333333333337</ele><time>2026-04-18T10:18:01.28Z</time></trkpt><trkpt lat="44.2184283" lon="11.3487433"><ele>486.0</ele><time>2026-04-18T10:18:02.279Z</time></trkpt><trkpt lat="44.2184283" lon="11.3490333"><ele>484.33333333333337</ele><time>2026-04-18T10:18:03.281Z</time></trkpt><trkpt lat="44.2184183" lon="11.349315"><ele>482.6666666666667</ele><time>2026-04-18T10:18:04.278Z</time></trkpt><trkpt lat="44.218415" lon="11.3495783"><ele>481.0</ele><time>2026-04-18T10:18:05.28Z</time></trkpt><trkpt lat="44.2184117" lon="11.3498167"><ele>481.0</ele><time>2026-04-18T10:18:06.28Z</time></trkpt><trkpt lat="44.218425" lon="11.350035"><ele>481.0</ele><time>2026-04-18T10:18:07.278Z</time></trkpt><trkpt lat="44.21845" lon="11.3502533"><ele>481.0</ele><time>2026-04-18T10:18:08.279Z</time></trkpt><trkpt lat="44.2185033" lon="11.35046"><ele>485.33333333333337</ele><time>2026-04-18T10:18:09.278Z</time></trkpt><trkpt lat="44.2185683" lon="11.350655"><ele>489.66666666666663</ele><time>2026-04-18T10:18:10.278Z</time></trkpt><trkpt lat="44.2187017" lon="11.350805"><ele>494.0</ele><time>2026-04-18T10:18:11.279Z</time></trkpt><trkpt lat="44.218845" lon="11.350895"><ele>487.0</ele><time>2026-04-18T10:18:12.279Z</time></trkpt><trkpt lat="44.2190017" lon="11.3509817"><ele>480.0</ele><time>2026-04-18T10:18:13.28Z</time></trkpt><trkpt lat="44.2191983" lon="11.350965"><ele>473.0</ele><time>2026-04-18T10:18:14.28Z</time></trkpt><trkpt lat="44.21939" lon="11.35099"><ele>473.0</ele><time>2026-04-18T10:18:15.281Z</time></trkpt><trkpt lat="44.2195717" lon="11.3510517"><ele>473.0</ele><time>2026-04-18T10:18:16.279Z</time></trkpt><trkpt lat="44.2197167" lon="11.3511767"><ele>473.0</ele><time>2026-04-18T10:18:17.28Z</time></trkpt><trkpt lat="44.2198383" lon="11.3513683"><ele>472.66666666666663</ele><time>2026-04-18T10:18:18.28Z</time></trkpt><trkpt lat="44.21994" lon="11.351575"><ele>472.33333333333337</ele><time>2026-04-18T10:18:19.28Z</time></trkpt><trkpt lat="44.22003" lon="11.3517833"><ele>472.0</ele><time>2026-04-18T10:18:20.281Z</time></trkpt><trkpt lat="44.2201117" lon="11.35199"><ele>472.0</ele><time>2026-04-18T10:18:21.279Z</time></trkpt><trkpt lat="44.220205" lon="11.3521767"><ele>472.0</ele><time>2026-04-18T10:18:22.279Z</time></trkpt><trkpt lat="44.220315" lon="11.352345"><ele>472.0</ele><time>2026-04-18T10:18:23.28Z</time></trkpt><trkpt lat="44.22044" lon="11.3524767"><ele>471.5</ele><time>2026-04-18T10:18:24.281Z</time></trkpt><trkpt lat="44.220565" lon="11.35254"><ele>471.0</ele><time>2026-04-18T10:18:25.279Z</time></trkpt><trkpt lat="44.220705" lon="11.3525417"><ele>470.5</ele><time>2026-04-18T10:18:26.281Z</time></trkpt><trkpt lat="44.220845" lon="11.3524583"><ele>470.0</ele><time>2026-04-18T10:18:27.278Z</time></trkpt><trkpt lat="44.220935" lon="11.3523633"><ele>469.99999999999994</ele><time>2026-04-18T10:18:28.28Z</time></trkpt><trkpt lat="44.2210033" lon="11.35229"><ele>470.0</ele><time>2026-04-18T10:18:29.28Z</time></trkpt><trkpt lat="44.2210833" lon="11.3522133"><ele>470.0</ele><time>2026-04-18T10:18:31.28Z</time></trkpt><trkpt lat="44.22116" lon="11.352235"><ele>470.0</ele><time>2026-04-18T10:19:43.279Z</time></trkpt><trkpt lat="44.2212333" lon="11.352175"><ele>469.99999999999994</ele><time>2026-04-18T10:19:45.279Z</time></trkpt><trkpt lat="44.2213083" lon="11.3521367"><ele>470.0</ele><time>2026-04-18T10:19:46.278Z</time></trkpt><trkpt lat="44.221395" lon="11.3521117"><ele>468.8</ele><time>2026-04-18T10:19:47.279Z</time></trkpt><trkpt lat="44.2214883" lon="11.3521183"><ele>467.6</ele><time>2026-04-18T10:19:48.281Z</time></trkpt><trkpt lat="44.2215783" lon="11.3521317"><ele>466.4</ele><time>2026-04-18T10:19:49.28Z</time></trkpt><trkpt lat="44.2216583" lon="11.3521683"><ele>465.2</ele><time>2026-04-18T10:19:50.28Z</time></trkpt><trkpt lat="44.2217183" lon="11.3522467"><ele>464.0</ele><time>2026-04-18T10:19:51.281Z</time></trkpt><trkpt lat="44.2217783" lon="11.3523667"><ele>464.0</ele><time>2026-04-18T10:19:52.28Z</time></trkpt><trkpt lat="44.2218233" lon="11.3524767"><ele>464.0</ele><time>2026-04-18T10:19:53.28Z</time></trkpt><trkpt lat="44.22186" lon="11.3526017"><ele>464.0</ele><time>2026-04-18T10:19:54.283Z</time></trkpt><trkpt lat="44.2219" lon="11.352725"><ele>464.0</ele><time>2026-04-18T10:19:55.281Z</time></trkpt><trkpt lat="44.2219383" lon="11.35285"><ele>464.0</ele><time>2026-04-18T10:19:56.283Z</time></trkpt><trkpt lat="44.2219817" lon="11.3529717"><ele>464.0</ele><time>2026-04-18T10:19:57.282Z</time></trkpt><trkpt lat="44.2220233" lon="11.3530617"><ele>464.0</ele><time>2026-04-18T10:19:58.281Z</time></trkpt><trkpt lat="44.2220717" lon="11.3531583"><ele>464.0</ele><time>2026-04-18T10:19:59.283Z</time></trkpt><trkpt lat="44.2221267" lon="11.3532433"><ele>464.0</ele><time>2026-04-18T10:20:01.282Z</time></trkpt><trkpt lat="44.2221617" lon="11.3531517"><ele>464.0</ele><time>2026-04-18T10:20:03.28Z</time></trkpt><trkpt lat="44.2221617" lon="11.3529583"><ele>464.0</ele><time>2026-04-18T10:20:06.281Z</time></trkpt><trkpt lat="44.2221467" lon="11.3528267"><ele>464.0</ele><time>2026-04-18T10:20:07.281Z</time></trkpt><trkpt lat="44.2221567" lon="11.352655"><ele>464.0</ele><time>2026-04-18T10:20:08.281Z</time></trkpt><trkpt lat="44.2221617" lon="11.3524783"><ele>464.0</ele><time>2026-04-18T10:20:09.28Z</time></trkpt><trkpt lat="44.2221233" lon="11.3522783"><ele>461.75</ele><time>2026-04-18T10:20:10.278Z</time></trkpt><trkpt lat="44.2220767" lon="11.3520883"><ele>459.5</ele><time>2026-04-18T10:20:11.281Z</time></trkpt><trkpt lat="44.2220483" lon="11.3519067"><ele>457.25</ele><time>2026-04-18T10:20:12.28Z</time></trkpt><trkpt lat="44.2220367" lon="11.3517367"><ele>455.0</ele><time>2026-04-18T10:20:13.279Z</time></trkpt><trkpt lat="44.22204" lon="11.351575"><ele>455.0</ele><time>2026-04-18T10:20:14.28Z</time></trkpt><trkpt lat="44.2220517" lon="11.351425"><ele>455.0</ele><time>2026-04-18T10:20:15.28Z</time></trkpt><trkpt lat="44.2220617" lon="11.3513067"><ele>455.0</ele><time>2026-04-18T10:20:16.28Z</time></trkpt><trkpt lat="44.22207" lon="11.3512067"><ele>455.0</ele><time>2026-04-18T10:20:17.28Z</time></trkpt><trkpt lat="44.2221333" lon="11.3511083"><ele>455.0</ele><time>2026-04-18T10:20:19.278Z</time></trkpt><trkpt lat="44.22218" lon="11.351225"><ele>455.0</ele><time>2026-04-18T10:20:20.28Z</time></trkpt><trkpt lat="44.2222017" lon="11.3513817"><ele>455.0</ele><time>2026-04-18T10:20:21.279Z</time></trkpt><trkpt lat="44.2222367" lon="11.3515583"><ele>455.0</ele><time>2026-04-18T10:20:22.279Z</time></trkpt><trkpt lat="44.2222783" lon="11.35174"><ele>455.0</ele><time>2026-04-18T10:20:23.279Z</time></trkpt><trkpt lat="44.2223467" lon="11.3518817"><ele>452.25</ele><time>2026-04-18T10:20:24.281Z</time></trkpt><trkpt lat="44.2224567" lon="11.3520033"><ele>449.5</ele><time>2026-04-18T10:20:25.281Z</time></trkpt><trkpt lat="44.2225883" lon="11.3520883"><ele>446.75</ele><time>2026-04-18T10:20:26.281Z</time></trkpt><trkpt lat="44.222725" lon="11.3521517"><ele>444.0</ele><time>2026-04-18T10:20:27.279Z</time></trkpt><trkpt lat="44.2228633" lon="11.35221"><ele>444.0</ele><time>2026-04-18T10:20:28.279Z</time></trkpt><trkpt lat="44.22299" lon="11.352285"><ele>444.0</ele><time>2026-04-18T10:20:29.28Z</time></trkpt><trkpt lat="44.223105" lon="11.3523933"><ele>444.0</ele><time>2026-04-18T10:20:30.278Z</time></trkpt><trkpt lat="44.2232083" lon="11.3525083"><ele>444.0</ele><time>2026-04-18T10:20:31.281Z</time></trkpt><trkpt lat="44.2233083" lon="11.3526433"><ele>442.25</ele><time>2026-04-18T10:20:32.279Z</time></trkpt><trkpt lat="44.2234033" lon="11.3527733"><ele>440.5</ele><time>2026-04-18T10:20:33.28Z</time></trkpt><trkpt lat="44.2234883" lon="11.3528933"><ele>438.75</ele><time>2026-04-18T10:20:34.282Z</time></trkpt><trkpt lat="44.2235817" lon="11.3529933"><ele>437.0</ele><time>2026-04-18T10:20:35.283Z</time></trkpt><trkpt lat="44.223675" lon="11.3530883"><ele>437.0</ele><time>2026-04-18T10:20:36.283Z</time></trkpt><trkpt lat="44.223785" lon="11.35312"><ele>437.0</ele><time>2026-04-18T10:20:37.28Z</time></trkpt><trkpt lat="44.2238917" lon="11.3531233"><ele>437.0</ele><time>2026-04-18T10:20:38.28Z</time></trkpt><trkpt lat="44.2240033" lon="11.3530467"><ele>437.0</ele><time>2026-04-18T10:20:39.281Z</time></trkpt><trkpt lat="44.2241" lon="11.3529433"><ele>434.40000000000003</ele><time>2026-04-18T10:20:40.281Z</time></trkpt><trkpt lat="44.2241883" lon="11.3528483"><ele>431.80000000000007</ele><time>2026-04-18T10:20:41.278Z</time></trkpt><trkpt lat="44.224285" lon="11.352795"><ele>429.2</ele><time>2026-04-18T10:20:42.281Z</time></trkpt><trkpt lat="44.224385" lon="11.3528033"><ele>426.6</ele><time>2026-04-18T10:20:43.281Z</time></trkpt><trkpt lat="44.224485" lon="11.3528467"><ele>424.0</ele><time>2026-04-18T10:20:44.28Z</time></trkpt><trkpt lat="44.224605" lon="11.3529417"><ele>424.0</ele><time>2026-04-18T10:20:45.281Z</time></trkpt><trkpt lat="44.2247867" lon="11.35312"><ele>424.0</ele><time>2026-04-18T10:20:46.281Z</time></trkpt><trkpt lat="44.2249417" lon="11.3532583"><ele>424.0</ele><time>2026-04-18T10:20:47.281Z</time></trkpt><trkpt lat="44.2251083" lon="11.3534333"><ele>424.0</ele><time>2026-04-18T10:20:48.28Z</time></trkpt><trkpt lat="44.2252617" lon="11.3536233"><ele>424.0</ele><time>2026-04-18T10:20:49.28Z</time></trkpt><trkpt lat="44.2253967" lon="11.3538333"><ele>424.0</ele><time>2026-04-18T10:20:50.278Z</time></trkpt><trkpt lat="44.225515" lon="11.3540367"><ele>424.0</ele><time>2026-04-18T10:20:51.279Z</time></trkpt><trkpt lat="44.2256283" lon="11.35422"><ele>424.0</ele><time>2026-04-18T10:20:52.28Z</time></trkpt><trkpt lat="44.225745" lon="11.3543433"><ele>424.0</ele><time>2026-04-18T10:20:53.28Z</time></trkpt><trkpt lat="44.2258467" lon="11.3544067"><ele>424.0</ele><time>2026-04-18T10:20:54.281Z</time></trkpt><trkpt lat="44.2259333" lon="11.3544317"><ele>427.0</ele><time>2026-04-18T10:20:55.279Z</time></trkpt><trkpt lat="44.225955" lon="11.3542567"><ele>430.0</ele><time>2026-04-18T10:20:57.279Z</time></trkpt><trkpt lat="44.2259383" lon="11.3541517"><ele>433.0</ele><time>2026-04-18T10:20:58.279Z</time></trkpt><trkpt lat="44.22588" lon="11.3540183"><ele>436.0</ele><time>2026-04-18T10:20:59.278Z</time></trkpt><trkpt lat="44.225815" lon="11.35391"><ele>439.0</ele><time>2026-04-18T10:21:00.28Z</time></trkpt><trkpt lat="44.2257517" lon="11.3537617"><ele>441.25</ele><time>2026-04-18T10:21:01.279Z</time></trkpt><trkpt lat="44.2257167" lon="11.3536083"><ele>443.5</ele><time>2026-04-18T10:21:02.279Z</time></trkpt><trkpt lat="44.22573" lon="11.3534283"><ele>445.75</ele><time>2026-04-18T10:21:03.282Z</time></trkpt><trkpt lat="44.2257833" lon="11.3532767"><ele>448.0</ele><time>2026-04-18T10:21:04.279Z</time></trkpt><trkpt lat="44.2258367" lon="11.35312"><ele>449.33333333333337</ele><time>2026-04-18T10:21:05.281Z</time></trkpt><trkpt lat="44.22588" lon="11.35294"><ele>450.66666666666663</ele><time>2026-04-18T10:21:06.28Z</time></trkpt><trkpt lat="44.2258833" lon="11.35272"><ele>452.0</ele><time>2026-04-18T10:21:07.279Z</time></trkpt><trkpt lat="44.22586" lon="11.3524983"><ele>452.0</ele><time>2026-04-18T10:21:08.28Z</time></trkpt><trkpt lat="44.225835" lon="11.3522633"><ele>452.0</ele><time>2026-04-18T10:21:09.28Z</time></trkpt><trkpt lat="44.2258033" lon="11.35201"><ele>452.0</ele><time>2026-04-18T10:21:10.28Z</time></trkpt><trkpt lat="44.225765" lon="11.3517533"><ele>454.3333333333333</ele><time>2026-04-18T10:21:11.28Z</time></trkpt><trkpt lat="44.2257033" lon="11.3514917"><ele>456.66666666666663</ele><time>2026-04-18T10:21:12.281Z</time></trkpt><trkpt lat="44.2256117" lon="11.3512617"><ele>459.0</ele><time>2026-04-18T10:21:13.281Z</time></trkpt><trkpt lat="44.2254717" lon="11.35106"><ele>460.66666666666663</ele><time>2026-04-18T10:21:14.282Z</time></trkpt><trkpt lat="44.225295" lon="11.3508767"><ele>462.3333333333333</ele><time>2026-04-18T10:21:15.282Z</time></trkpt><trkpt lat="44.225135" lon="11.3506983"><ele>464.0</ele><time>2026-04-18T10:21:16.279Z</time></trkpt><trkpt lat="44.2249817" lon="11.3505417"><ele>463.66666666666663</ele><time>2026-04-18T10:21:17.281Z</time></trkpt><trkpt lat="44.22485" lon="11.3503733"><ele>463.33333333333337</ele><time>2026-04-18T10:21:18.281Z</time></trkpt><trkpt lat="44.2247283" lon="11.3501883"><ele>463.0</ele><time>2026-04-18T10:21:19.279Z</time></trkpt><trkpt lat="44.2246167" lon="11.3499933"><ele>463.0</ele><time>2026-04-18T10:21:20.281Z</time></trkpt><trkpt lat="44.2245133" lon="11.3497983"><ele>463.0</ele><time>2026-04-18T10:21:21.28Z</time></trkpt><trkpt lat="44.2244267" lon="11.3496217"><ele>463.0</ele><time>2026-04-18T10:21:22.28Z</time></trkpt><trkpt lat="44.224375" lon="11.3494433"><ele>467.6666666666667</ele><time>2026-04-18T10:21:23.282Z</time></trkpt><trkpt lat="44.22434" lon="11.34925"><ele>472.33333333333337</ele><time>2026-04-18T10:21:24.281Z</time></trkpt><trkpt lat="44.2243383" lon="11.3490333"><ele>477.0</ele><time>2026-04-18T10:21:25.28Z</time></trkpt><trkpt lat="44.2243317" lon="11.34881"><ele>480.33333333333337</ele><time>2026-04-18T10:21:26.281Z</time></trkpt><trkpt lat="44.2243167" lon="11.34859"><ele>483.6666666666667</ele><time>2026-04-18T10:21:27.281Z</time></trkpt><trkpt lat="44.2242783" lon="11.3483683"><ele>487.0</ele><time>2026-04-18T10:21:28.28Z</time></trkpt><trkpt lat="44.2242233" lon="11.3481467"><ele>490.33333333333337</ele><time>2026-04-18T10:21:29.281Z</time></trkpt><trkpt lat="44.2241683" lon="11.3479367"><ele>493.66666666666663</ele><time>2026-04-18T10:21:30.28Z</time></trkpt><trkpt lat="44.22409" lon="11.3477367"><ele>497.0</ele><time>2026-04-18T10:21:31.281Z</time></trkpt><trkpt lat="44.224015" lon="11.34755"><ele>495.66666666666663</ele><time>2026-04-18T10:21:32.283Z</time></trkpt><trkpt lat="44.223905" lon="11.3473983"><ele>494.33333333333337</ele><time>2026-04-18T10:21:33.28Z</time></trkpt><trkpt lat="44.2237783" lon="11.3472833"><ele>493.0</ele><time>2026-04-18T10:21:34.28Z</time></trkpt><trkpt lat="44.2234767" lon="11.34746"><ele>493.0</ele><time>2026-04-18T10:21:35.28Z</time></trkpt><trkpt lat="44.22334" lon="11.3474433"><ele>492.99999999999994</ele><time>2026-04-18T10:21:36.281Z</time></trkpt><trkpt lat="44.22323" lon="11.34741"><ele>492.99999999999994</ele><time>2026-04-18T10:21:37.281Z</time></trkpt><trkpt lat="44.2231383" lon="11.347395"><ele>493.0</ele><time>2026-04-18T10:21:38.283Z</time></trkpt><trkpt lat="44.2230717" lon="11.347345"><ele>493.0</ele><time>2026-04-18T10:21:39.279Z</time></trkpt><trkpt lat="44.2230967" lon="11.347215"><ele>493.0</ele><time>2026-04-18T10:21:42.282Z</time></trkpt><trkpt lat="44.2234433" lon="11.34718"><ele>493.0</ele><time>2026-04-18T10:21:43.281Z</time></trkpt><trkpt lat="44.22363" lon="11.3472167"><ele>496.6666666666667</ele><time>2026-04-18T10:21:44.281Z</time></trkpt><trkpt lat="44.2238083" lon="11.3472"><ele>500.33333333333337</ele><time>2026-04-18T10:21:45.283Z</time></trkpt><trkpt lat="44.2239833" lon="11.34718"><ele>504.0</ele><time>2026-04-18T10:21:46.28Z</time></trkpt><trkpt lat="44.2241533" lon="11.347155"><ele>502.25</ele><time>2026-04-18T10:21:47.279Z</time></trkpt><trkpt lat="44.2243133" lon="11.3471383"><ele>500.5</ele><time>2026-04-18T10:21:48.281Z</time></trkpt><trkpt lat="44.2244567" lon="11.3471633"><ele>498.75</ele><time>2026-04-18T10:21:49.28Z</time></trkpt><trkpt lat="44.224575" lon="11.3472433"><ele>497.0</ele><time>2026-04-18T10:21:50.28Z</time></trkpt><trkpt lat="44.224665" lon="11.34735"><ele>497.0</ele><time>2026-04-18T10:21:51.279Z</time></trkpt><trkpt lat="44.2247383" lon="11.3474867"><ele>497.0</ele><time>2026-04-18T10:21:52.281Z</time></trkpt><trkpt lat="44.2247583" lon="11.3476617"><ele>497.0</ele><time>2026-04-18T10:21:53.281Z</time></trkpt><trkpt lat="44.22475" lon="11.34786"><ele>497.0</ele><time>2026-04-18T10:21:54.282Z</time></trkpt><trkpt lat="44.22467" lon="11.3480233"><ele>495.0</ele><time>2026-04-18T10:21:55.28Z</time></trkpt><trkpt lat="44.2246583" lon="11.3482167"><ele>493.00000000000006</ele><time>2026-04-18T10:21:56.282Z</time></trkpt><trkpt lat="44.2246883" lon="11.3483817"><ele>491.00000000000006</ele><time>2026-04-18T10:21:57.28Z</time></trkpt><trkpt lat="44.224735" lon="11.3485133"><ele>489.0</ele><time>2026-04-18T10:21:58.28Z</time></trkpt><trkpt lat="44.22479" lon="11.3485883"><ele>487.0</ele><time>2026-04-18T10:21:59.279Z</time></trkpt><trkpt lat="44.224875" lon="11.34863"><ele>494.0</ele><time>2026-04-18T10:22:00.282Z</time></trkpt><trkpt lat="44.225015" lon="11.3485767"><ele>501.0</ele><time>2026-04-18T10:22:01.28Z</time></trkpt><trkpt lat="44.22518" lon="11.3485033"><ele>508.0</ele><time>2026-04-18T10:22:02.282Z</time></trkpt><trkpt lat="44.22536" lon="11.34844"><ele>508.0</ele><time>2026-04-18T10:22:03.28Z</time></trkpt><trkpt lat="44.2255367" lon="11.3484"><ele>508.0</ele><time>2026-04-18T10:22:04.278Z</time></trkpt><trkpt lat="44.2256983" lon="11.3483867"><ele>508.0</ele><time>2026-04-18T10:22:05.279Z</time></trkpt><trkpt lat="44.2259883" lon="11.3484317"><ele>505.75</ele><time>2026-04-18T10:22:07.279Z</time></trkpt><trkpt lat="44.2261133" lon="11.348485"><ele>503.5</ele><time>2026-04-18T10:22:08.28Z</time></trkpt><trkpt lat="44.2262233" lon="11.3485917"><ele>501.25</ele><time>2026-04-18T10:22:09.281Z</time></trkpt><trkpt lat="44.22631" lon="11.3487167"><ele>499.0</ele><time>2026-04-18T10:22:10.281Z</time></trkpt><trkpt lat="44.22635" lon="11.34888"><ele>499.0</ele><time>2026-04-18T10:22:11.28Z</time></trkpt><trkpt lat="44.2263883" lon="11.3490283"><ele>499.0</ele><time>2026-04-18T10:22:12.28Z</time></trkpt><trkpt lat="44.2264567" lon="11.3491167"><ele>499.0</ele><time>2026-04-18T10:22:13.281Z</time></trkpt><trkpt lat="44.2265333" lon="11.349155"><ele>499.0</ele><time>2026-04-18T10:22:14.28Z</time></trkpt><trkpt lat="44.22662" lon="11.3491133"><ele>499.0</ele><time>2026-04-18T10:22:15.281Z</time></trkpt><trkpt lat="44.2266933" lon="11.3490233"><ele>501.79999999999995</ele><time>2026-04-18T10:22:16.281Z</time></trkpt><trkpt lat="44.226755" lon="11.3489067"><ele>504.59999999999997</ele><time>2026-04-18T10:22:17.28Z</time></trkpt><trkpt lat="44.2268267" lon="11.3487867"><ele>507.4</ele><time>2026-04-18T10:22:18.279Z</time></trkpt><trkpt lat="44.2269083" lon="11.3486917"><ele>510.2</ele><time>2026-04-18T10:22:19.282Z</time></trkpt><trkpt lat="44.2269833" lon="11.3486133"><ele>513.0</ele><time>2026-04-18T10:22:20.281Z</time></trkpt><trkpt lat="44.2270783" lon="11.3486033"><ele>514.75</ele><time>2026-04-18T10:22:21.28Z</time></trkpt><trkpt lat="44.2272067" lon="11.3486683"><ele>516.5</ele><time>2026-04-18T10:22:22.278Z</time></trkpt><trkpt lat="44.227355" lon="11.348765"><ele>518.25</ele><time>2026-04-18T10:22:23.279Z</time></trkpt><trkpt lat="44.22749" lon="11.3488433"><ele>520.0</ele><time>2026-04-18T10:22:24.281Z</time></trkpt><trkpt lat="44.2276183" lon="11.3489233"><ele>520.0</ele><time>2026-04-18T10:22:25.28Z</time></trkpt><trkpt lat="44.227735" lon="11.3489767"><ele>520.0</ele><time>2026-04-18T10:22:26.28Z</time></trkpt><trkpt lat="44.2278267" lon="11.34898"><ele>520.0</ele><time>2026-04-18T10:22:27.279Z</time></trkpt><trkpt lat="44.2278933" lon="11.3489133"><ele>520.0</ele><time>2026-04-18T10:22:28.281Z</time></trkpt><trkpt lat="44.2279367" lon="11.3488467"><ele>520.0</ele><time>2026-04-18T10:22:29.281Z</time></trkpt><trkpt lat="44.2278467" lon="11.3487"><ele>523.0</ele><time>2026-04-18T10:22:31.281Z</time></trkpt><trkpt lat="44.227725" lon="11.34862"><ele>526.0</ele><time>2026-04-18T10:22:32.28Z</time></trkpt><trkpt lat="44.2275883" lon="11.34854"><ele>529.0</ele><time>2026-04-18T10:22:33.281Z</time></trkpt><trkpt lat="44.2274483" lon="11.34846"><ele>532.0</ele><time>2026-04-18T10:22:34.281Z</time></trkpt><trkpt lat="44.2273083" lon="11.3483617"><ele>532.0</ele><time>2026-04-18T10:22:35.281Z</time></trkpt><trkpt lat="44.2271833" lon="11.3482417"><ele>532.0</ele><time>2026-04-18T10:22:36.28Z</time></trkpt><trkpt lat="44.2270667" lon="11.34811"><ele>532.0</ele><time>2026-04-18T10:22:37.28Z</time></trkpt><trkpt lat="44.2269583" lon="11.3479717"><ele>532.0</ele><time>2026-04-18T10:22:38.28Z</time></trkpt><trkpt lat="44.2268567" lon="11.3478433"><ele>534.5</ele><time>2026-04-18T10:22:39.28Z</time></trkpt><trkpt lat="44.2267433" lon="11.34777"><ele>537.0</ele><time>2026-04-18T10:22:40.279Z</time></trkpt><trkpt lat="44.22664" lon="11.347725"><ele>539.5</ele><time>2026-04-18T10:22:41.28Z</time></trkpt><trkpt lat="44.226525" lon="11.3477483"><ele>542.0</ele><time>2026-04-18T10:22:42.281Z</time></trkpt><trkpt lat="44.226415" lon="11.3478017"><ele>542.0</ele><time>2026-04-18T10:22:43.28Z</time></trkpt><trkpt lat="44.226305" lon="11.347825"><ele>542.0</ele><time>2026-04-18T10:22:44.281Z</time></trkpt><trkpt lat="44.2262033" lon="11.3478017"><ele>542.0</ele><time>2026-04-18T10:22:45.282Z</time></trkpt><trkpt lat="44.2261183" lon="11.34774"><ele>542.0</ele><time>2026-04-18T10:22:46.281Z</time></trkpt><trkpt lat="44.2260517" lon="11.3476433"><ele>542.0</ele><time>2026-04-18T10:22:47.28Z</time></trkpt><trkpt lat="44.2259983" lon="11.3475517"><ele>542.0</ele><time>2026-04-18T10:22:48.28Z</time></trkpt><trkpt lat="44.2259517" lon="11.34747"><ele>542.0</ele><time>2026-04-18T10:22:49.282Z</time></trkpt><trkpt lat="44.2260533" lon="11.347175"><ele>542.0</ele><time>2026-04-18T10:22:50.28Z</time></trkpt><trkpt lat="44.226085" lon="11.346935"><ele>544.6666666666666</ele><time>2026-04-18T10:22:51.28Z</time></trkpt><trkpt lat="44.226085" lon="11.346705"><ele>547.3333333333334</ele><time>2026-04-18T10:22:52.28Z</time></trkpt><trkpt lat="44.2260633" lon="11.3464733"><ele>550.0</ele><time>2026-04-18T10:22:53.28Z</time></trkpt><trkpt lat="44.22602" lon="11.3462717"><ele>553.0</ele><time>2026-04-18T10:22:54.28Z</time></trkpt><trkpt lat="44.2259583" lon="11.3461033"><ele>556.0</ele><time>2026-04-18T10:22:55.28Z</time></trkpt><trkpt lat="44.2259167" lon="11.3459133"><ele>559.0</ele><time>2026-04-18T10:22:56.281Z</time></trkpt><trkpt lat="44.2258717" lon="11.345695"><ele>562.0</ele><time>2026-04-18T10:22:57.281Z</time></trkpt><trkpt lat="44.2258367" lon="11.34543"><ele>566.3333333333334</ele><time>2026-04-18T10:22:58.28Z</time></trkpt><trkpt lat="44.2257983" lon="11.345155"><ele>570.6666666666666</ele><time>2026-04-18T10:22:59.28Z</time></trkpt><trkpt lat="44.22576" lon="11.3448883"><ele>575.0</ele><time>2026-04-18T10:23:00.281Z</time></trkpt><trkpt lat="44.2256933" lon="11.3446217"><ele>572.0</ele><time>2026-04-18T10:23:01.28Z</time></trkpt><trkpt lat="44.2256217" lon="11.34438"><ele>569.0</ele><time>2026-04-18T10:23:02.287Z</time></trkpt><trkpt lat="44.22552" lon="11.3441767"><ele>566.0</ele><time>2026-04-18T10:23:03.28Z</time></trkpt><trkpt lat="44.2254017" lon="11.3439983"><ele>569.6666666666666</ele><time>2026-04-18T10:23:04.282Z</time></trkpt><trkpt lat="44.225265" lon="11.3438417"><ele>573.3333333333334</ele><time>2026-04-18T10:23:05.28Z</time></trkpt><trkpt lat="44.2251017" lon="11.3437183"><ele>577.0</ele><time>2026-04-18T10:23:06.28Z</time></trkpt><trkpt lat="44.2249317" lon="11.3436333"><ele>575.0</ele><time>2026-04-18T10:23:07.281Z</time></trkpt><trkpt lat="44.2247617" lon="11.3436083"><ele>573.0</ele><time>2026-04-18T10:23:08.28Z</time></trkpt><trkpt lat="44.2245983" lon="11.3435867"><ele>571.0</ele><time>2026-04-18T10:23:09.281Z</time></trkpt><trkpt lat="44.2244567" lon="11.343545"><ele>571.0</ele><time>2026-04-18T10:23:10.281Z</time></trkpt><trkpt lat="44.2243367" lon="11.3434883"><ele>571.0</ele><time>2026-04-18T10:23:11.281Z</time></trkpt><trkpt lat="44.2242283" lon="11.343415"><ele>571.0</ele><time>2026-04-18T10:23:12.282Z</time></trkpt><trkpt lat="44.22412" lon="11.3433167"><ele>571.0</ele><time>2026-04-18T10:23:13.282Z</time></trkpt><trkpt lat="44.2240317" lon="11.3431583"><ele>569.3333333333334</ele><time>2026-04-18T10:23:14.282Z</time></trkpt><trkpt lat="44.2239783" lon="11.3429583"><ele>567.6666666666666</ele><time>2026-04-18T10:23:15.283Z</time></trkpt><trkpt lat="44.223955" lon="11.342705"><ele>566.0</ele><time>2026-04-18T10:23:16.281Z</time></trkpt><trkpt lat="44.22393" lon="11.34245"><ele>572.6666666666666</ele><time>2026-04-18T10:23:17.282Z</time></trkpt><trkpt lat="44.2239033" lon="11.3422017"><ele>579.3333333333334</ele><time>2026-04-18T10:23:18.282Z</time></trkpt><trkpt lat="44.2238567" lon="11.3419733"><ele>586.0</ele><time>2026-04-18T10:23:19.283Z</time></trkpt><trkpt lat="44.2237767" lon="11.3417683"><ele>586.0</ele><time>2026-04-18T10:23:20.283Z</time></trkpt><trkpt lat="44.2236467" lon="11.3415867"><ele>586.0</ele><time>2026-04-18T10:23:21.281Z</time></trkpt><trkpt lat="44.223505" lon="11.3414183"><ele>586.0</ele><time>2026-04-18T10:23:22.282Z</time></trkpt><trkpt lat="44.2233467" lon="11.3412583"><ele>588.3333333333334</ele><time>2026-04-18T10:23:23.281Z</time></trkpt><trkpt lat="44.223195" lon="11.3411283"><ele>590.6666666666666</ele><time>2026-04-18T10:23:24.284Z</time></trkpt><trkpt lat="44.223035" lon="11.3410467"><ele>593.0</ele><time>2026-04-18T10:23:25.282Z</time></trkpt><trkpt lat="44.2228833" lon="11.3409683"><ele>593.0</ele><time>2026-04-18T10:23:26.283Z</time></trkpt><trkpt lat="44.2227467" lon="11.340885"><ele>593.0</ele><time>2026-04-18T10:23:27.281Z</time></trkpt><trkpt lat="44.222635" lon="11.34079"><ele>593.0</ele><time>2026-04-18T10:23:28.283Z</time></trkpt><trkpt lat="44.2225483" lon="11.3406783"><ele>593.0</ele><time>2026-04-18T10:23:29.282Z</time></trkpt><trkpt lat="44.2225017" lon="11.3405717"><ele>595.0</ele><time>2026-04-18T10:23:30.281Z</time></trkpt><trkpt lat="44.222485" lon="11.3404233"><ele>597.0</ele><time>2026-04-18T10:23:31.28Z</time></trkpt><trkpt lat="44.22249" lon="11.340205"><ele>599.0</ele><time>2026-04-18T10:23:32.28Z</time></trkpt><trkpt lat="44.2225067" lon="11.339955"><ele>601.0</ele><time>2026-04-18T10:23:33.279Z</time></trkpt><trkpt lat="44.22253" lon="11.3396867"><ele>603.3333333333334</ele><time>2026-04-18T10:23:34.28Z</time></trkpt><trkpt lat="44.222565" lon="11.3394033"><ele>605.6666666666666</ele><time>2026-04-18T10:23:35.279Z</time></trkpt><trkpt lat="44.2225967" lon="11.3391517"><ele>608.0</ele><time>2026-04-18T10:23:36.28Z</time></trkpt><trkpt lat="44.222615" lon="11.3389267"><ele>613.0</ele><time>2026-04-18T10:23:37.281Z</time></trkpt><trkpt lat="44.222615" lon="11.3387067"><ele>618.0</ele><time>2026-04-18T10:23:38.279Z</time></trkpt><trkpt lat="44.22257" lon="11.338515"><ele>623.0</ele><time>2026-04-18T10:23:39.28Z</time></trkpt><trkpt lat="44.2224583" lon="11.3383433"><ele>622.3333333333333</ele><time>2026-04-18T10:23:40.28Z</time></trkpt><trkpt lat="44.2222983" lon="11.3382"><ele>621.6666666666666</ele><time>2026-04-18T10:23:41.28Z</time></trkpt><trkpt lat="44.222155" lon="11.33806"><ele>621.0</ele><time>2026-04-18T10:23:42.278Z</time></trkpt><trkpt lat="44.2220333" lon="11.3379267"><ele>621.0</ele><time>2026-04-18T10:23:43.281Z</time></trkpt><trkpt lat="44.2219" lon="11.3378317"><ele>621.0</ele><time>2026-04-18T10:23:44.281Z</time></trkpt><trkpt lat="44.22175" lon="11.3377767"><ele>621.0</ele><time>2026-04-18T10:23:45.28Z</time></trkpt><trkpt lat="44.2216367" lon="11.3376383"><ele>620.0</ele><time>2026-04-18T10:23:46.279Z</time></trkpt><trkpt lat="44.22147" lon="11.3376383"><ele>619.0</ele><time>2026-04-18T10:23:47.28Z</time></trkpt><trkpt lat="44.2213133" lon="11.3376317"><ele>618.0</ele><time>2026-04-18T10:23:48.279Z</time></trkpt><trkpt lat="44.221175" lon="11.3375983"><ele>618.0</ele><time>2026-04-18T10:23:49.28Z</time></trkpt><trkpt lat="44.221055" lon="11.3375317"><ele>618.0</ele><time>2026-04-18T10:23:50.28Z</time></trkpt><trkpt lat="44.2209567" lon="11.3373917"><ele>618.0</ele><time>2026-04-18T10:23:51.28Z</time></trkpt><trkpt lat="44.22087" lon="11.3372067"><ele>618.0</ele><time>2026-04-18T10:23:52.28Z</time></trkpt><trkpt lat="44.2207767" lon="11.3370417"><ele>622.25</ele><time>2026-04-18T10:23:53.279Z</time></trkpt><trkpt lat="44.22069" lon="11.3368933"><ele>626.5</ele><time>2026-04-18T10:23:54.279Z</time></trkpt><trkpt lat="44.2206017" lon="11.3367633"><ele>630.75</ele><time>2026-04-18T10:23:55.279Z</time></trkpt><trkpt lat="44.2204817" lon="11.3366983"><ele>635.0</ele><time>2026-04-18T10:23:56.28Z</time></trkpt><trkpt lat="44.2203717" lon="11.336685"><ele>635.0</ele><time>2026-04-18T10:23:57.279Z</time></trkpt><trkpt lat="44.22021" lon="11.3367433"><ele>635.0</ele><time>2026-04-18T10:23:58.282Z</time></trkpt><trkpt lat="44.2200733" lon="11.3367367"><ele>635.0</ele><time>2026-04-18T10:23:59.278Z</time></trkpt><trkpt lat="44.2199533" lon="11.3366867"><ele>635.0</ele><time>2026-04-18T10:24:00.28Z</time></trkpt><trkpt lat="44.2198167" lon="11.3365883"><ele>632.0</ele><time>2026-04-18T10:24:01.278Z</time></trkpt><trkpt lat="44.2197117" lon="11.3364767"><ele>629.0</ele><time>2026-04-18T10:24:02.279Z</time></trkpt><trkpt lat="44.2196833" lon="11.3362383"><ele>626.0</ele><time>2026-04-18T10:24:03.28Z</time></trkpt><trkpt lat="44.2196483" lon="11.335985"><ele>626.0</ele><time>2026-04-18T10:24:04.28Z</time></trkpt><trkpt lat="44.2196267" lon="11.3357367"><ele>626.0</ele><time>2026-04-18T10:24:05.28Z</time></trkpt><trkpt lat="44.2196133" lon="11.3355433"><ele>626.0</ele><time>2026-04-18T10:24:06.279Z</time></trkpt><trkpt lat="44.219645" lon="11.3353583"><ele>625.6666666666666</ele><time>2026-04-18T10:24:07.279Z</time></trkpt><trkpt lat="44.219715" lon="11.33519"><ele>625.3333333333334</ele><time>2026-04-18T10:24:08.279Z</time></trkpt><trkpt lat="44.2198217" lon="11.3350317"><ele>625.0</ele><time>2026-04-18T10:24:09.279Z</time></trkpt><trkpt lat="44.2199417" lon="11.33487"><ele>633.3333333333334</ele><time>2026-04-18T10:24:10.279Z</time></trkpt><trkpt lat="44.2200533" lon="11.3347117"><ele>641.6666666666666</ele><time>2026-04-18T10:24:11.28Z</time></trkpt><trkpt lat="44.220155" lon="11.3345283"><ele>650.0</ele><time>2026-04-18T10:24:12.281Z</time></trkpt><trkpt lat="44.2202117" lon="11.3343583"><ele>650.0</ele><time>2026-04-18T10:24:13.279Z</time></trkpt><trkpt lat="44.2202" lon="11.3342283"><ele>650.0</ele><time>2026-04-18T10:24:14.28Z</time></trkpt><trkpt lat="44.2201683" lon="11.3340583"><ele>650.0</ele><time>2026-04-18T10:24:15.279Z</time></trkpt><trkpt lat="44.2201083" lon="11.333875"><ele>650.0</ele><time>2026-04-18T10:24:16.28Z</time></trkpt><trkpt lat="44.2200433" lon="11.3336883"><ele>654.0</ele><time>2026-04-18T10:24:17.28Z</time></trkpt><trkpt lat="44.22" lon="11.3334917"><ele>658.0</ele><time>2026-04-18T10:24:18.28Z</time></trkpt><trkpt lat="44.21996" lon="11.3332833"><ele>662.0</ele><time>2026-04-18T10:24:19.279Z</time></trkpt><trkpt lat="44.2199467" lon="11.33304"><ele>662.3333333333333</ele><time>2026-04-18T10:24:20.281Z</time></trkpt><trkpt lat="44.2199417" lon="11.3327883"><ele>662.6666666666666</ele><time>2026-04-18T10:24:21.28Z</time></trkpt><trkpt lat="44.21995" lon="11.332555"><ele>663.0</ele><time>2026-04-18T10:24:22.28Z</time></trkpt><trkpt lat="44.21997" lon="11.332335"><ele>661.5</ele><time>2026-04-18T10:24:23.278Z</time></trkpt><trkpt lat="44.2199967" lon="11.332135"><ele>660.0</ele><time>2026-04-18T10:24:24.279Z</time></trkpt><trkpt lat="44.2200333" lon="11.3319317"><ele>658.5</ele><time>2026-04-18T10:24:25.281Z</time></trkpt><trkpt lat="44.22008" lon="11.3317283"><ele>657.0</ele><time>2026-04-18T10:24:26.279Z</time></trkpt><trkpt lat="44.220125" lon="11.331525"><ele>658.3333333333334</ele><time>2026-04-18T10:24:27.28Z</time></trkpt><trkpt lat="44.220155" lon="11.3313033"><ele>659.6666666666667</ele><time>2026-04-18T10:24:28.279Z</time></trkpt><trkpt lat="44.2201517" lon="11.3310683"><ele>661.0</ele><time>2026-04-18T10:24:29.28Z</time></trkpt><trkpt lat="44.2201067" lon="11.3308467"><ele>661.0</ele><time>2026-04-18T10:24:30.279Z</time></trkpt><trkpt lat="44.22005" lon="11.3306267"><ele>661.0</ele><time>2026-04-18T10:24:31.278Z</time></trkpt><trkpt lat="44.2199933" lon="11.3304233"><ele>661.0</ele><time>2026-04-18T10:24:32.28Z</time></trkpt><trkpt lat="44.219965" lon="11.3302217"><ele>663.6666666666667</ele><time>2026-04-18T10:24:33.28Z</time></trkpt><trkpt lat="44.2199683" lon="11.33001"><ele>666.3333333333334</ele><time>2026-04-18T10:24:34.279Z</time></trkpt><trkpt lat="44.2199917" lon="11.3297867"><ele>669.0</ele><time>2026-04-18T10:24:35.28Z</time></trkpt><trkpt lat="44.2200133" lon="11.3295733"><ele>670.0</ele><time>2026-04-18T10:24:36.279Z</time></trkpt><trkpt lat="44.2200167" lon="11.3293817"><ele>671.0</ele><time>2026-04-18T10:24:37.28Z</time></trkpt><trkpt lat="44.219995" lon="11.329205"><ele>672.0</ele><time>2026-04-18T10:24:38.279Z</time></trkpt><trkpt lat="44.219935" lon="11.3290383"><ele>673.0</ele><time>2026-04-18T10:24:39.28Z</time></trkpt><trkpt lat="44.2197933" lon="11.3288917"><ele>667.3333333333334</ele><time>2026-04-18T10:24:40.28Z</time></trkpt><trkpt lat="44.2196617" lon="11.3287517"><ele>661.6666666666666</ele><time>2026-04-18T10:24:41.279Z</time></trkpt><trkpt lat="44.2195517" lon="11.3286033"><ele>656.0</ele><time>2026-04-18T10:24:42.28Z</time></trkpt><trkpt lat="44.2194417" lon="11.32842"><ele>656.0</ele><time>2026-04-18T10:24:43.28Z</time></trkpt><trkpt lat="44.2193383" lon="11.3282133"><ele>656.0</ele><time>2026-04-18T10:24:44.281Z</time></trkpt><trkpt lat="44.2192283" lon="11.3280017"><ele>656.0</ele><time>2026-04-18T10:24:45.279Z</time></trkpt><trkpt lat="44.21911" lon="11.3277883"><ele>659.3333333333333</ele><time>2026-04-18T10:24:46.28Z</time></trkpt><trkpt lat="44.219005" lon="11.327545"><ele>662.6666666666666</ele><time>2026-04-18T10:24:47.28Z</time></trkpt><trkpt lat="44.2188933" lon="11.3273433"><ele>666.0</ele><time>2026-04-18T10:24:48.278Z</time></trkpt><trkpt lat="44.218775" lon="11.32718"><ele>677.0</ele><time>2026-04-18T10:24:49.28Z</time></trkpt><trkpt lat="44.2186483" lon="11.3270617"><ele>688.0</ele><time>2026-04-18T10:24:50.28Z</time></trkpt><trkpt lat="44.2185117" lon="11.3269833"><ele>699.0</ele><time>2026-04-18T10:24:51.281Z</time></trkpt><trkpt lat="44.2183583" lon="11.3269883"><ele>699.0</ele><time>2026-04-18T10:24:52.279Z</time></trkpt><trkpt lat="44.218205" lon="11.3270367"><ele>699.0</ele><time>2026-04-18T10:24:53.28Z</time></trkpt><trkpt lat="44.2180567" lon="11.327135"><ele>699.0</ele><time>2026-04-18T10:24:54.279Z</time></trkpt><trkpt lat="44.2179167" lon="11.3272933"><ele>699.0</ele><time>2026-04-18T10:24:55.28Z</time></trkpt><trkpt lat="44.2177867" lon="11.3274867"><ele>699.0</ele><time>2026-04-18T10:24:56.279Z</time></trkpt><trkpt lat="44.2176633" lon="11.327745"><ele>699.0</ele><time>2026-04-18T10:24:57.279Z</time></trkpt><trkpt lat="44.217535" lon="11.3279733"><ele>700.6666666666666</ele><time>2026-04-18T10:24:58.279Z</time></trkpt><trkpt lat="44.2174083" lon="11.3281417"><ele>702.3333333333333</ele><time>2026-04-18T10:24:59.28Z</time></trkpt><trkpt lat="44.2172733" lon="11.328285"><ele>704.0</ele><time>2026-04-18T10:25:00.28Z</time></trkpt><trkpt lat="44.2171333" lon="11.3284117"><ele>704.0</ele><time>2026-04-18T10:25:01.279Z</time></trkpt><trkpt lat="44.2169983" lon="11.328495"><ele>704.0</ele><time>2026-04-18T10:25:02.281Z</time></trkpt><trkpt lat="44.2168317" lon="11.328535"><ele>704.0</ele><time>2026-04-18T10:25:03.28Z</time></trkpt><trkpt lat="44.21665" lon="11.3285483"><ele>712.0</ele><time>2026-04-18T10:25:04.279Z</time></trkpt><trkpt lat="44.2164833" lon="11.328555"><ele>720.0</ele><time>2026-04-18T10:25:05.279Z</time></trkpt><trkpt lat="44.2163183" lon="11.3285917"><ele>728.0</ele><time>2026-04-18T10:25:06.28Z</time></trkpt><trkpt lat="44.2161783" lon="11.3286583"><ele>728.0</ele><time>2026-04-18T10:25:07.28Z</time></trkpt><trkpt lat="44.2160433" lon="11.3287533"><ele>728.0</ele><time>2026-04-18T10:25:08.28Z</time></trkpt><trkpt lat="44.21591" lon="11.328885"><ele>728.0</ele><time>2026-04-18T10:25:09.28Z</time></trkpt><trkpt lat="44.215795" lon="11.3290567"><ele>726.0</ele><time>2026-04-18T10:25:10.281Z</time></trkpt><trkpt lat="44.2156883" lon="11.3292433"><ele>724.0</ele><time>2026-04-18T10:25:11.279Z</time></trkpt><trkpt lat="44.2156317" lon="11.3294917"><ele>722.0</ele><time>2026-04-18T10:25:12.281Z</time></trkpt><trkpt lat="44.215585" lon="11.32973"><ele>722.0</ele><time>2026-04-18T10:25:13.281Z</time></trkpt><trkpt lat="44.21555" lon="11.3299583"><ele>722.0</ele><time>2026-04-18T10:25:14.282Z</time></trkpt><trkpt lat="44.215515" lon="11.3301417"><ele>722.0</ele><time>2026-04-18T10:25:15.28Z</time></trkpt><trkpt lat="44.215455" lon="11.3302817"><ele>722.0</ele><time>2026-04-18T10:25:16.279Z</time></trkpt><trkpt lat="44.2153733" lon="11.330365"><ele>722.0</ele><time>2026-04-18T10:25:17.281Z</time></trkpt><trkpt lat="44.2152717" lon="11.3304067"><ele>722.0</ele><time>2026-04-18T10:25:18.278Z</time></trkpt><trkpt lat="44.21515" lon="11.3304283"><ele>722.0</ele><time>2026-04-18T10:25:19.28Z</time></trkpt><trkpt lat="44.21503" lon="11.3304633"><ele>722.0</ele><time>2026-04-18T10:25:20.281Z</time></trkpt><trkpt lat="44.21492" lon="11.3305233"><ele>726.5</ele><time>2026-04-18T10:25:21.279Z</time></trkpt><trkpt lat="44.214805" lon="11.3306083"><ele>731.0</ele><time>2026-04-18T10:25:22.28Z</time></trkpt><trkpt lat="44.214695" lon="11.3307033"><ele>735.5</ele><time>2026-04-18T10:25:23.279Z</time></trkpt><trkpt lat="44.2146033" lon="11.33086"><ele>740.0</ele><time>2026-04-18T10:25:24.28Z</time></trkpt><trkpt lat="44.2145233" lon="11.3310483"><ele>740.0</ele><time>2026-04-18T10:25:25.278Z</time></trkpt><trkpt lat="44.2144667" lon="11.3312433"><ele>740.0</ele><time>2026-04-18T10:25:26.281Z</time></trkpt><trkpt lat="44.2143867" lon="11.3314167"><ele>740.0</ele><time>2026-04-18T10:25:27.28Z</time></trkpt><trkpt lat="44.214295" lon="11.3315817"><ele>740.0</ele><time>2026-04-18T10:25:28.279Z</time></trkpt><trkpt lat="44.21421" lon="11.3317617"><ele>737.3333333333333</ele><time>2026-04-18T10:25:29.279Z</time></trkpt><trkpt lat="44.21417" lon="11.331955"><ele>734.6666666666666</ele><time>2026-04-18T10:25:30.281Z</time></trkpt><trkpt lat="44.2141183" lon="11.3322167"><ele>732.0</ele><time>2026-04-18T10:25:31.28Z</time></trkpt><trkpt lat="44.214055" lon="11.3324283"><ele>732.6666666666666</ele><time>2026-04-18T10:25:32.279Z</time></trkpt><trkpt lat="44.2139983" lon="11.3326617"><ele>733.3333333333333</ele><time>2026-04-18T10:25:33.28Z</time></trkpt><trkpt lat="44.2139417" lon="11.3329183"><ele>734.0</ele><time>2026-04-18T10:25:34.281Z</time></trkpt><trkpt lat="44.21388" lon="11.3331533"><ele>734.0</ele><time>2026-04-18T10:25:35.279Z</time></trkpt><trkpt lat="44.2138083" lon="11.3333633"><ele>734.0</ele><time>2026-04-18T10:25:36.278Z</time></trkpt><trkpt lat="44.2138317" lon="11.3335267"><ele>734.0</ele><time>2026-04-18T10:25:37.28Z</time></trkpt><trkpt lat="44.2138083" lon="11.333655"><ele>734.0</ele><time>2026-04-18T10:25:38.28Z</time></trkpt><trkpt lat="44.21372" lon="11.3337433"><ele>734.0</ele><time>2026-04-18T10:25:39.278Z</time></trkpt><trkpt lat="44.2136033" lon="11.33379"><ele>734.0</ele><time>2026-04-18T10:25:40.279Z</time></trkpt><trkpt lat="44.2134783" lon="11.3338183"><ele>734.0</ele><time>2026-04-18T10:25:41.28Z</time></trkpt><trkpt lat="44.2133683" lon="11.3338133"><ele>734.0</ele><time>2026-04-18T10:25:42.281Z</time></trkpt><trkpt lat="44.2132367" lon="11.3337417"><ele>734.0</ele><time>2026-04-18T10:25:43.281Z</time></trkpt><trkpt lat="44.2131" lon="11.3336467"><ele>734.0</ele><time>2026-04-18T10:25:44.281Z</time></trkpt><trkpt lat="44.2129717" lon="11.333535"><ele>734.0</ele><time>2026-04-18T10:25:45.281Z</time></trkpt><trkpt lat="44.2128733" lon="11.3334167"><ele>734.0</ele><time>2026-04-18T10:25:46.281Z</time></trkpt><trkpt lat="44.212795" lon="11.333275"><ele>734.0</ele><time>2026-04-18T10:25:47.282Z</time></trkpt><trkpt lat="44.2127483" lon="11.333105"><ele>734.0</ele><time>2026-04-18T10:25:48.282Z</time></trkpt><trkpt lat="44.2127567" lon="11.3329567"><ele>734.0</ele><time>2026-04-18T10:25:49.281Z</time></trkpt><trkpt lat="44.2128067" lon="11.3327967"><ele>734.0</ele><time>2026-04-18T10:25:50.281Z</time></trkpt><trkpt lat="44.2128917" lon="11.3326667"><ele>733.6666666666666</ele><time>2026-04-18T10:25:51.281Z</time></trkpt><trkpt lat="44.2130183" lon="11.3325533"><ele>733.3333333333334</ele><time>2026-04-18T10:25:52.282Z</time></trkpt><trkpt lat="44.2131567" lon="11.3324217"><ele>733.0</ele><time>2026-04-18T10:25:53.28Z</time></trkpt><trkpt lat="44.21329" lon="11.3322667"><ele>739.0</ele><time>2026-04-18T10:25:54.283Z</time></trkpt><trkpt lat="44.2134133" lon="11.3320817"><ele>745.0</ele><time>2026-04-18T10:25:55.281Z</time></trkpt><trkpt lat="44.2135233" lon="11.3318933"><ele>751.0</ele><time>2026-04-18T10:25:56.28Z</time></trkpt><trkpt lat="44.213605" lon="11.331695"><ele>751.0</ele><time>2026-04-18T10:25:57.281Z</time></trkpt><trkpt lat="44.2136617" lon="11.3314533"><ele>751.0</ele><time>2026-04-18T10:25:58.28Z</time></trkpt><trkpt lat="44.213705" lon="11.3311833"><ele>751.0</ele><time>2026-04-18T10:25:59.281Z</time></trkpt><trkpt lat="44.2137633" lon="11.3309"><ele>754.0</ele><time>2026-04-18T10:26:00.281Z</time></trkpt><trkpt lat="44.2138233" lon="11.330615"><ele>757.0</ele><time>2026-04-18T10:26:01.282Z</time></trkpt><trkpt lat="44.21387" lon="11.3303283"><ele>760.0</ele><time>2026-04-18T10:26:02.282Z</time></trkpt><trkpt lat="44.213925" lon="11.330045"><ele>761.6666666666667</ele><time>2026-04-18T10:26:03.28Z</time></trkpt><trkpt lat="44.2139867" lon="11.3297567"><ele>763.3333333333334</ele><time>2026-04-18T10:26:04.279Z</time></trkpt><trkpt lat="44.2140533" lon="11.3294717"><ele>765.0</ele><time>2026-04-18T10:26:05.279Z</time></trkpt><trkpt lat="44.2140967" lon="11.3292083"><ele>765.0</ele><time>2026-04-18T10:26:06.283Z</time></trkpt><trkpt lat="44.2141367" lon="11.3289483"><ele>765.0</ele><time>2026-04-18T10:26:07.281Z</time></trkpt><trkpt lat="44.2141683" lon="11.3287333"><ele>765.0</ele><time>2026-04-18T10:26:08.281Z</time></trkpt><trkpt lat="44.21423" lon="11.3285633"><ele>769.0</ele><time>2026-04-18T10:26:09.282Z</time></trkpt><trkpt lat="44.2143217" lon="11.3284217"><ele>773.0</ele><time>2026-04-18T10:26:10.28Z</time></trkpt><trkpt lat="44.2144367" lon="11.3283217"><ele>777.0</ele><time>2026-04-18T10:26:11.282Z</time></trkpt><trkpt lat="44.2145783" lon="11.32826"><ele>781.0</ele><time>2026-04-18T10:26:12.283Z</time></trkpt><trkpt lat="44.214735" lon="11.3282667"><ele>777.5</ele><time>2026-04-18T10:26:13.28Z</time></trkpt><trkpt lat="44.21487" lon="11.3282717"><ele>774.0</ele><time>2026-04-18T10:26:14.28Z</time></trkpt><trkpt lat="44.2150017" lon="11.32827"><ele>770.5</ele><time>2026-04-18T10:26:15.279Z</time></trkpt><trkpt lat="44.2151417" lon="11.3282267"><ele>767.0</ele><time>2026-04-18T10:26:16.279Z</time></trkpt><trkpt lat="44.2152183" lon="11.3281183"><ele>771.25</ele><time>2026-04-18T10:26:17.281Z</time></trkpt><trkpt lat="44.2152633" lon="11.3279567"><ele>775.5</ele><time>2026-04-18T10:26:18.282Z</time></trkpt><trkpt lat="44.21526" lon="11.3277567"><ele>779.75</ele><time>2026-04-18T10:26:19.28Z</time></trkpt><trkpt lat="44.2152317" lon="11.327535"><ele>784.0</ele><time>2026-04-18T10:26:20.28Z</time></trkpt><trkpt lat="44.2151967" lon="11.327285"><ele>788.3333333333333</ele><time>2026-04-18T10:26:21.28Z</time></trkpt><trkpt lat="44.215135" lon="11.3269933"><ele>792.6666666666667</ele><time>2026-04-18T10:26:22.279Z</time></trkpt><trkpt lat="44.2151183" lon="11.326735"><ele>797.0</ele><time>2026-04-18T10:26:23.282Z</time></trkpt><trkpt lat="44.2151067" lon="11.326495"><ele>800.5</ele><time>2026-04-18T10:26:24.281Z</time></trkpt><trkpt lat="44.2151117" lon="11.3262717"><ele>804.0</ele><time>2026-04-18T10:26:25.279Z</time></trkpt><trkpt lat="44.2151383" lon="11.3260667"><ele>807.5</ele><time>2026-04-18T10:26:26.28Z</time></trkpt><trkpt lat="44.2152" lon="11.3258917"><ele>811.0</ele><time>2026-04-18T10:26:27.279Z</time></trkpt><trkpt lat="44.2152783" lon="11.3257483"><ele>811.0</ele><time>2026-04-18T10:26:28.278Z</time></trkpt><trkpt lat="44.215375" lon="11.3256483"><ele>811.0</ele><time>2026-04-18T10:26:29.281Z</time></trkpt><trkpt lat="44.2155567" lon="11.3256"><ele>811.0</ele><time>2026-04-18T10:26:30.28Z</time></trkpt><trkpt lat="44.2157083" lon="11.3256117"><ele>809.1999999999999</ele><time>2026-04-18T10:26:31.279Z</time></trkpt><trkpt lat="44.2158183" lon="11.32556"><ele>807.4</ele><time>2026-04-18T10:26:32.28Z</time></trkpt><trkpt lat="44.2159083" lon="11.3255"><ele>805.6</ele><time>2026-04-18T10:26:33.279Z</time></trkpt><trkpt lat="44.21599" lon="11.3254117"><ele>803.8</ele><time>2026-04-18T10:26:34.28Z</time></trkpt><trkpt lat="44.21605" lon="11.3252883"><ele>802.0</ele><time>2026-04-18T10:26:35.28Z</time></trkpt><trkpt lat="44.2161117" lon="11.3251617"><ele>802.0</ele><time>2026-04-18T10:26:36.281Z</time></trkpt><trkpt lat="44.2161467" lon="11.325"><ele>802.0</ele><time>2026-04-18T10:26:37.281Z</time></trkpt><trkpt lat="44.2161733" lon="11.3248283"><ele>802.0</ele><time>2026-04-18T10:26:38.28Z</time></trkpt><trkpt lat="44.2161917" lon="11.3246283"><ele>802.0</ele><time>2026-04-18T10:26:39.281Z</time></trkpt><trkpt lat="44.216235" lon="11.3244233"><ele>806.0</ele><time>2026-04-18T10:26:40.281Z</time></trkpt><trkpt lat="44.2162533" lon="11.3242167"><ele>810.0</ele><time>2026-04-18T10:26:41.281Z</time></trkpt><trkpt lat="44.21626" lon="11.3240167"><ele>814.0</ele><time>2026-04-18T10:26:42.281Z</time></trkpt><trkpt lat="44.2161467" lon="11.3237917"><ele>812.2</ele><time>2026-04-18T10:26:43.283Z</time></trkpt><trkpt lat="44.2161633" lon="11.32365"><ele>810.4000000000001</ele><time>2026-04-18T10:26:44.282Z</time></trkpt><trkpt lat="44.21623" lon="11.323535"><ele>808.6</ele><time>2026-04-18T10:26:45.282Z</time></trkpt><trkpt lat="44.216325" lon="11.3234617"><ele>806.8</ele><time>2026-04-18T10:26:46.282Z</time></trkpt><trkpt lat="44.2164217" lon="11.32337"><ele>805.0</ele><time>2026-04-18T10:26:47.28Z</time></trkpt><trkpt lat="44.2165083" lon="11.3232233"><ele>805.0</ele><time>2026-04-18T10:26:48.281Z</time></trkpt><trkpt lat="44.2165967" lon="11.3231"><ele>805.0</ele><time>2026-04-18T10:26:49.281Z</time></trkpt><trkpt lat="44.2166983" lon="11.323025"><ele>805.0</ele><time>2026-04-18T10:26:50.282Z</time></trkpt><trkpt lat="44.216785" lon="11.3229467"><ele>805.0</ele><time>2026-04-18T10:26:51.281Z</time></trkpt><trkpt lat="44.2168" lon="11.322835"><ele>805.0</ele><time>2026-04-18T10:26:52.281Z</time></trkpt><trkpt lat="44.2168817" lon="11.3226633"><ele>808.25</ele><time>2026-04-18T10:26:53.281Z</time></trkpt><trkpt lat="44.2169717" lon="11.3224983"><ele>811.5</ele><time>2026-04-18T10:26:54.282Z</time></trkpt><trkpt lat="44.21708" lon="11.32237"><ele>814.75</ele><time>2026-04-18T10:26:55.282Z</time></trkpt><trkpt lat="44.2171817" lon="11.322245"><ele>818.0</ele><time>2026-04-18T10:26:56.282Z</time></trkpt><trkpt lat="44.2172533" lon="11.32213"><ele>818.0</ele><time>2026-04-18T10:26:57.28Z</time></trkpt><trkpt lat="44.2173183" lon="11.3219633"><ele>818.0</ele><time>2026-04-18T10:26:58.281Z</time></trkpt><trkpt lat="44.2173767" lon="11.3217783"><ele>818.0</ele><time>2026-04-18T10:26:59.281Z</time></trkpt><trkpt lat="44.2174267" lon="11.3216133"><ele>818.0</ele><time>2026-04-18T10:27:00.281Z</time></trkpt><trkpt lat="44.2174733" lon="11.3214517"><ele>817.5000000000001</ele><time>2026-04-18T10:27:01.282Z</time></trkpt><trkpt lat="44.2175283" lon="11.3213233"><ele>817.0</ele><time>2026-04-18T10:27:02.281Z</time></trkpt><trkpt lat="44.2175733" lon="11.3212233"><ele>816.5</ele><time>2026-04-18T10:27:03.282Z</time></trkpt><trkpt lat="44.2176" lon="11.3211383"><ele>816.0</ele><time>2026-04-18T10:27:04.283Z</time></trkpt><trkpt lat="44.2176233" lon="11.321005"><ele>815.5000000000001</ele><time>2026-04-18T10:27:06.281Z</time></trkpt><trkpt lat="44.21755" lon="11.3209567"><ele>815.0</ele><time>2026-04-18T10:27:20.28Z</time></trkpt><trkpt lat="44.2174733" lon="11.3210183"><ele>812.3333333333334</ele><time>2026-04-18T10:27:22.279Z</time></trkpt><trkpt lat="44.2173133" lon="11.3211717"><ele>809.6666666666667</ele><time>2026-04-18T10:27:24.281Z</time></trkpt><trkpt lat="44.2172117" lon="11.3212783"><ele>807.0</ele><time>2026-04-18T10:27:25.28Z</time></trkpt><trkpt lat="44.2170967" lon="11.32138"><ele>809.75</ele><time>2026-04-18T10:27:26.281Z</time></trkpt><trkpt lat="44.2169867" lon="11.3214967"><ele>812.5</ele><time>2026-04-18T10:27:27.28Z</time></trkpt><trkpt lat="44.216885" lon="11.3215933"><ele>815.25</ele><time>2026-04-18T10:27:28.281Z</time></trkpt><trkpt lat="44.2167867" lon="11.3216883"><ele>818.0</ele><time>2026-04-18T10:27:29.28Z</time></trkpt><trkpt lat="44.21669" lon="11.3217833"><ele>818.0</ele><time>2026-04-18T10:27:30.281Z</time></trkpt><trkpt lat="44.2165967" lon="11.321875"><ele>818.0</ele><time>2026-04-18T10:27:31.28Z</time></trkpt><trkpt lat="44.2165083" lon="11.3219667"><ele>818.0</ele><time>2026-04-18T10:27:32.281Z</time></trkpt><trkpt lat="44.2164217" lon="11.32205"><ele>818.0</ele><time>2026-04-18T10:27:33.28Z</time></trkpt><trkpt lat="44.2163233" lon="11.3221233"><ele>818.0</ele><time>2026-04-18T10:27:34.28Z</time></trkpt><trkpt lat="44.21621" lon="11.3221883"><ele>819.25</ele><time>2026-04-18T10:27:35.28Z</time></trkpt><trkpt lat="44.2160983" lon="11.3222517"><ele>820.5</ele><time>2026-04-18T10:27:36.281Z</time></trkpt><trkpt lat="44.2159817" lon="11.3223083"><ele>821.75</ele><time>2026-04-18T10:27:37.281Z</time></trkpt><trkpt lat="44.2158683" lon="11.3223567"><ele>823.0</ele><time>2026-04-18T10:27:38.282Z</time></trkpt><trkpt lat="44.2157617" lon="11.32239"><ele>823.0</ele><time>2026-04-18T10:27:39.28Z</time></trkpt><trkpt lat="44.2156617" lon="11.3224267"><ele>823.0</ele><time>2026-04-18T10:27:40.279Z</time></trkpt><trkpt lat="44.215555" lon="11.3224533"><ele>823.0</ele><time>2026-04-18T10:27:41.281Z</time></trkpt><trkpt lat="44.2154483" lon="11.3224833"><ele>823.0</ele><time>2026-04-18T10:27:42.281Z</time></trkpt><trkpt lat="44.2153417" lon="11.32251"><ele>823.0</ele><time>2026-04-18T10:27:43.283Z</time></trkpt><trkpt lat="44.2152367" lon="11.3225417"><ele>822.3333333333333</ele><time>2026-04-18T10:27:44.281Z</time></trkpt><trkpt lat="44.2151317" lon="11.3225633"><ele>821.6666666666667</ele><time>2026-04-18T10:27:45.279Z</time></trkpt><trkpt lat="44.2149017" lon="11.3226233"><ele>821.0</ele><time>2026-04-18T10:27:47.279Z</time></trkpt><trkpt lat="44.2147767" lon="11.322665"><ele>819.5</ele><time>2026-04-18T10:27:48.281Z</time></trkpt><trkpt lat="44.2146567" lon="11.322695"><ele>818.0</ele><time>2026-04-18T10:27:49.281Z</time></trkpt><trkpt lat="44.2145383" lon="11.322725"><ele>816.5</ele><time>2026-04-18T10:27:50.28Z</time></trkpt><trkpt lat="44.214425" lon="11.3227583"><ele>815.0</ele><time>2026-04-18T10:27:51.281Z</time></trkpt><trkpt lat="44.2143233" lon="11.3227883"><ele>815.0</ele><time>2026-04-18T10:27:52.281Z</time></trkpt><trkpt lat="44.2142233" lon="11.322815"><ele>815.0</ele><time>2026-04-18T10:27:53.283Z</time></trkpt><trkpt lat="44.2141217" lon="11.3228467"><ele>815.0</ele><time>2026-04-18T10:27:54.281Z</time></trkpt><trkpt lat="44.2140283" lon="11.322875"><ele>815.0</ele><time>2026-04-18T10:27:55.281Z</time></trkpt><trkpt lat="44.2139267" lon="11.3229067"><ele>815.0</ele><time>2026-04-18T10:27:56.281Z</time></trkpt><trkpt lat="44.2138233" lon="11.3229517"><ele>814.0</ele><time>2026-04-18T10:27:57.281Z</time></trkpt><trkpt lat="44.2137117" lon="11.3230067"><ele>813.0</ele><time>2026-04-18T10:27:58.28Z</time></trkpt><trkpt lat="44.2136033" lon="11.323065"><ele>812.0</ele><time>2026-04-18T10:27:59.281Z</time></trkpt><trkpt lat="44.2134867" lon="11.323135"><ele>811.0</ele><time>2026-04-18T10:28:00.281Z</time></trkpt><trkpt lat="44.2133683" lon="11.3231967"><ele>811.5</ele><time>2026-04-18T10:28:01.281Z</time></trkpt><trkpt lat="44.2132583" lon="11.3232533"><ele>812.0</ele><time>2026-04-18T10:28:02.281Z</time></trkpt><trkpt lat="44.21315" lon="11.3233083"><ele>812.5</ele><time>2026-04-18T10:28:03.281Z</time></trkpt><trkpt lat="44.2130417" lon="11.3233717"><ele>813.0</ele><time>2026-04-18T10:28:04.28Z</time></trkpt><trkpt lat="44.2129417" lon="11.3234283"><ele>813.0</ele><time>2026-04-18T10:28:05.28Z</time></trkpt><trkpt lat="44.212835" lon="11.3234933"><ele>813.0</ele><time>2026-04-18T10:28:06.281Z</time></trkpt><trkpt lat="44.21272" lon="11.323545"><ele>813.0</ele><time>2026-04-18T10:28:07.282Z</time></trkpt><trkpt lat="44.2126133" lon="11.3236017"><ele>813.0</ele><time>2026-04-18T10:28:08.281Z</time></trkpt><trkpt lat="44.2125" lon="11.323665"><ele>813.0</ele><time>2026-04-18T10:28:09.281Z</time></trkpt><trkpt lat="44.2123883" lon="11.32373"><ele>813.0</ele><time>2026-04-18T10:28:10.279Z</time></trkpt><trkpt lat="44.2122783" lon="11.3237933"><ele>813.0</ele><time>2026-04-18T10:28:11.281Z</time></trkpt><trkpt lat="44.21216" lon="11.3238583"><ele>813.0</ele><time>2026-04-18T10:28:12.28Z</time></trkpt><trkpt lat="44.21204" lon="11.3239217"><ele>813.75</ele><time>2026-04-18T10:28:13.279Z</time></trkpt><trkpt lat="44.2119233" lon="11.323985"><ele>814.5</ele><time>2026-04-18T10:28:14.28Z</time></trkpt><trkpt lat="44.2118017" lon="11.3240417"><ele>815.25</ele><time>2026-04-18T10:28:15.28Z</time></trkpt><trkpt lat="44.2116867" lon="11.3240933"><ele>816.0</ele><time>2026-04-18T10:28:16.282Z</time></trkpt><trkpt lat="44.2115633" lon="11.3241517"><ele>814.0</ele><time>2026-04-18T10:28:17.28Z</time></trkpt><trkpt lat="44.2114367" lon="11.3242017"><ele>812.0</ele><time>2026-04-18T10:28:18.28Z</time></trkpt><trkpt lat="44.2113067" lon="11.3242567"><ele>810.0</ele><time>2026-04-18T10:28:19.28Z</time></trkpt><trkpt lat="44.2111683" lon="11.3243183"><ele>808.0</ele><time>2026-04-18T10:28:20.28Z</time></trkpt><trkpt lat="44.211035" lon="11.324375"><ele>808.0</ele><time>2026-04-18T10:28:21.28Z</time></trkpt><trkpt lat="44.2109" lon="11.3244383"><ele>808.0</ele><time>2026-04-18T10:28:22.28Z</time></trkpt><trkpt lat="44.2107567" lon="11.3245017"><ele>808.0</ele><time>2026-04-18T10:28:23.281Z</time></trkpt><trkpt lat="44.2106133" lon="11.3245667"><ele>808.0</ele><time>2026-04-18T10:28:24.282Z</time></trkpt><trkpt lat="44.2104783" lon="11.3246133"><ele>805.75</ele><time>2026-04-18T10:28:25.28Z</time></trkpt><trkpt lat="44.21034" lon="11.3246617"><ele>803.5</ele><time>2026-04-18T10:28:26.28Z</time></trkpt><trkpt lat="44.2101933" lon="11.3246967"><ele>801.25</ele><time>2026-04-18T10:28:27.28Z</time></trkpt><trkpt lat="44.21005" lon="11.32471"><ele>799.0</ele><time>2026-04-18T10:28:28.281Z</time></trkpt><trkpt lat="44.2099067" lon="11.3247133"><ele>799.25</ele><time>2026-04-18T10:28:29.28Z</time></trkpt><trkpt lat="44.2097717" lon="11.324715"><ele>799.5</ele><time>2026-04-18T10:28:30.281Z</time></trkpt><trkpt lat="44.2096333" lon="11.32473"><ele>799.75</ele><time>2026-04-18T10:28:31.281Z</time></trkpt><trkpt lat="44.209505" lon="11.324765"><ele>800.0</ele><time>2026-04-18T10:28:32.281Z</time></trkpt><trkpt lat="44.2093717" lon="11.3248033"><ele>802.0</ele><time>2026-04-18T10:28:33.279Z</time></trkpt><trkpt lat="44.2092483" lon="11.3248583"><ele>804.0</ele><time>2026-04-18T10:28:34.279Z</time></trkpt><trkpt lat="44.2091117" lon="11.324905"><ele>806.0</ele><time>2026-04-18T10:28:35.279Z</time></trkpt><trkpt lat="44.2089833" lon="11.3249517"><ele>808.0</ele><time>2026-04-18T10:28:36.28Z</time></trkpt><trkpt lat="44.208875" lon="11.325"><ele>808.0</ele><time>2026-04-18T10:28:37.28Z</time></trkpt><trkpt lat="44.2087583" lon="11.3250417"><ele>808.0</ele><time>2026-04-18T10:28:38.281Z</time></trkpt><trkpt lat="44.208645" lon="11.3250933"><ele>808.0</ele><time>2026-04-18T10:28:39.282Z</time></trkpt><trkpt lat="44.208535" lon="11.3251417"><ele>808.0</ele><time>2026-04-18T10:28:40.278Z</time></trkpt><trkpt lat="44.20843" lon="11.3251817"><ele>808.0</ele><time>2026-04-18T10:28:41.281Z</time></trkpt><trkpt lat="44.2083217" lon="11.3252183"><ele>808.0</ele><time>2026-04-18T10:28:42.28Z</time></trkpt><trkpt lat="44.2081983" lon="11.325245"><ele>808.0</ele><time>2026-04-18T10:28:43.28Z</time></trkpt><trkpt lat="44.208075" lon="11.3252817"><ele>808.0</ele><time>2026-04-18T10:28:44.28Z</time></trkpt><trkpt lat="44.2079483" lon="11.3253217"><ele>807.0</ele><time>2026-04-18T10:28:45.28Z</time></trkpt><trkpt lat="44.2078133" lon="11.3253667"><ele>806.0</ele><time>2026-04-18T10:28:46.281Z</time></trkpt><trkpt lat="44.2076917" lon="11.3254183"><ele>805.0</ele><time>2026-04-18T10:28:47.281Z</time></trkpt><trkpt lat="44.20758" lon="11.3254517"><ele>804.0</ele><time>2026-04-18T10:28:48.28Z</time></trkpt><trkpt lat="44.20747" lon="11.3254833"><ele>804.0</ele><time>2026-04-18T10:28:49.28Z</time></trkpt><trkpt lat="44.2073683" lon="11.325515"><ele>804.0</ele><time>2026-04-18T10:28:50.28Z</time></trkpt><trkpt lat="44.20727" lon="11.32555"><ele>804.0</ele><time>2026-04-18T10:28:51.279Z</time></trkpt><trkpt lat="44.2071767" lon="11.325575"><ele>804.0</ele><time>2026-04-18T10:28:52.28Z</time></trkpt><trkpt lat="44.20708" lon="11.32561"><ele>804.0</ele><time>2026-04-18T10:28:53.279Z</time></trkpt><trkpt lat="44.206975" lon="11.325635"><ele>803.8000000000001</ele><time>2026-04-18T10:28:54.281Z</time></trkpt><trkpt lat="44.2068733" lon="11.3256683"><ele>803.6</ele><time>2026-04-18T10:28:55.28Z</time></trkpt><trkpt lat="44.2067683" lon="11.32571"><ele>803.4</ele><time>2026-04-18T10:28:56.281Z</time></trkpt><trkpt lat="44.2066617" lon="11.3257517"><ele>803.2</ele><time>2026-04-18T10:28:57.281Z</time></trkpt><trkpt lat="44.2065533" lon="11.3257917"><ele>803.0</ele><time>2026-04-18T10:28:58.28Z</time></trkpt><trkpt lat="44.2064517" lon="11.3258417"><ele>802.75</ele><time>2026-04-18T10:28:59.28Z</time></trkpt><trkpt lat="44.206325" lon="11.3259083"><ele>802.5</ele><time>2026-04-18T10:29:00.28Z</time></trkpt><trkpt lat="44.2062183" lon="11.3259633"><ele>802.25</ele><time>2026-04-18T10:29:01.281Z</time></trkpt><trkpt lat="44.20612" lon="11.3260133"><ele>802.0</ele><time>2026-04-18T10:29:02.28Z</time></trkpt><trkpt lat="44.2060217" lon="11.3260533"><ele>802.0</ele><time>2026-04-18T10:29:03.28Z</time></trkpt><trkpt lat="44.205925" lon="11.3260983"><ele>802.0</ele><time>2026-04-18T10:29:04.281Z</time></trkpt><trkpt lat="44.2058333" lon="11.3261433"><ele>802.0</ele><time>2026-04-18T10:29:05.281Z</time></trkpt><trkpt lat="44.2057383" lon="11.3261967"><ele>802.0</ele><time>2026-04-18T10:29:06.28Z</time></trkpt><trkpt lat="44.2056467" lon="11.326255"><ele>802.0</ele><time>2026-04-18T10:29:07.28Z</time></trkpt><trkpt lat="44.20555" lon="11.3263117"><ele>802.0</ele><time>2026-04-18T10:29:08.28Z</time></trkpt><trkpt lat="44.2054617" lon="11.3263717"><ele>802.0</ele><time>2026-04-18T10:29:09.28Z</time></trkpt><trkpt lat="44.2053733" lon="11.3264133"><ele>802.0</ele><time>2026-04-18T10:29:10.28Z</time></trkpt><trkpt lat="44.20528" lon="11.3264383"><ele>802.0</ele><time>2026-04-18T10:29:11.28Z</time></trkpt><trkpt lat="44.2051933" lon="11.3264517"><ele>802.0</ele><time>2026-04-18T10:29:12.281Z</time></trkpt><trkpt lat="44.2051133" lon="11.3264283"><ele>801.9999999999999</ele><time>2026-04-18T10:29:13.28Z</time></trkpt><trkpt lat="44.2050417" lon="11.3263833"><ele>802.0</ele><time>2026-04-18T10:29:14.281Z</time></trkpt><trkpt lat="44.20497" lon="11.32638"><ele>802.0</ele><time>2026-04-18T10:29:15.281Z</time></trkpt><trkpt lat="44.2048683" lon="11.3264383"><ele>802.0</ele><time>2026-04-18T10:29:17.281Z</time></trkpt><trkpt lat="44.20482" lon="11.3265167"><ele>801.9999999999999</ele><time>2026-04-18T10:29:18.28Z</time></trkpt><trkpt lat="44.204735" lon="11.326585"><ele>802.0</ele><time>2026-04-18T10:29:19.279Z</time></trkpt><trkpt lat="44.2046467" lon="11.3266217"><ele>803.0</ele><time>2026-04-18T10:29:20.281Z</time></trkpt><trkpt lat="44.2045517" lon="11.3266667"><ele>804.0</ele><time>2026-04-18T10:29:21.28Z</time></trkpt><trkpt lat="44.2044567" lon="11.326735"><ele>805.0</ele><time>2026-04-18T10:29:22.28Z</time></trkpt><trkpt lat="44.204375" lon="11.3268433"><ele>806.0</ele><time>2026-04-18T10:29:23.281Z</time></trkpt><trkpt lat="44.2042967" lon="11.3269767"><ele>807.0</ele><time>2026-04-18T10:29:24.281Z</time></trkpt><trkpt lat="44.2042167" lon="11.3271367"><ele>807.6666666666667</ele><time>2026-04-18T10:29:25.28Z</time></trkpt><trkpt lat="44.204145" lon="11.32731"><ele>808.3333333333334</ele><time>2026-04-18T10:29:26.282Z</time></trkpt><trkpt lat="44.2040633" lon="11.3274783"><ele>809.0</ele><time>2026-04-18T10:29:27.28Z</time></trkpt><trkpt lat="44.2039583" lon="11.3276517"><ele>810.6666666666667</ele><time>2026-04-18T10:29:28.28Z</time></trkpt><trkpt lat="44.2038533" lon="11.327825"><ele>812.3333333333333</ele><time>2026-04-18T10:29:29.279Z</time></trkpt><trkpt lat="44.203735" lon="11.32799"><ele>814.0</ele><time>2026-04-18T10:29:30.281Z</time></trkpt><trkpt lat="44.203605" lon="11.32815"><ele>814.0</ele><time>2026-04-18T10:29:31.28Z</time></trkpt><trkpt lat="44.2034733" lon="11.3282967"><ele>814.0</ele><time>2026-04-18T10:29:32.281Z</time></trkpt><trkpt lat="44.2033383" lon="11.328395"><ele>814.0</ele><time>2026-04-18T10:29:33.28Z</time></trkpt><trkpt lat="44.2032033" lon="11.3284683"><ele>816.75</ele><time>2026-04-18T10:29:34.28Z</time></trkpt><trkpt lat="44.203065" lon="11.328515"><ele>819.5</ele><time>2026-04-18T10:29:35.281Z</time></trkpt><trkpt lat="44.202935" lon="11.32855"><ele>822.25</ele><time>2026-04-18T10:29:36.281Z</time></trkpt><trkpt lat="44.2027917" lon="11.32857"><ele>825.0</ele><time>2026-04-18T10:29:37.28Z</time></trkpt><trkpt lat="44.202685" lon="11.3286183"><ele>825.0</ele><time>2026-04-18T10:29:38.281Z</time></trkpt><trkpt lat="44.2025983" lon="11.3286883"><ele>825.0</ele><time>2026-04-18T10:29:39.28Z</time></trkpt><trkpt lat="44.2025367" lon="11.3287867"><ele>825.0</ele><time>2026-04-18T10:29:40.28Z</time></trkpt><trkpt lat="44.2025233" lon="11.3289183"><ele>825.0</ele><time>2026-04-18T10:29:41.281Z</time></trkpt><trkpt lat="44.2024817" lon="11.32905"><ele>825.0</ele><time>2026-04-18T10:29:42.281Z</time></trkpt><trkpt lat="44.2024383" lon="11.32919"><ele>826.0</ele><time>2026-04-18T10:29:43.279Z</time></trkpt><trkpt lat="44.2024" lon="11.32933"><ele>827.0</ele><time>2026-04-18T10:29:44.28Z</time></trkpt><trkpt lat="44.2023317" lon="11.3294283"><ele>828.0</ele><time>2026-04-18T10:29:45.279Z</time></trkpt><trkpt lat="44.2022483" lon="11.3295033"><ele>829.0</ele><time>2026-04-18T10:29:46.28Z</time></trkpt><trkpt lat="44.2021283" lon="11.329555"><ele>830.0</ele><time>2026-04-18T10:29:47.28Z</time></trkpt><trkpt lat="44.2020133" lon="11.32962"><ele>830.0</ele><time>2026-04-18T10:29:48.282Z</time></trkpt><trkpt lat="44.2018983" lon="11.3296633"><ele>830.0</ele><time>2026-04-18T10:29:49.281Z</time></trkpt><trkpt lat="44.20176" lon="11.3297017"><ele>830.0</ele><time>2026-04-18T10:29:50.28Z</time></trkpt><trkpt lat="44.2016233" lon="11.3297417"><ele>830.0</ele><time>2026-04-18T10:29:51.28Z</time></trkpt><trkpt lat="44.201465" lon="11.3297917"><ele>828.25</ele><time>2026-04-18T10:29:52.28Z</time></trkpt><trkpt lat="44.2013233" lon="11.329855"><ele>826.5</ele><time>2026-04-18T10:29:53.282Z</time></trkpt><trkpt lat="44.2012" lon="11.3299483"><ele>824.75</ele><time>2026-04-18T10:29:54.279Z</time></trkpt><trkpt lat="44.2010817" lon="11.33006"><ele>823.0</ele><time>2026-04-18T10:29:55.28Z</time></trkpt><trkpt lat="44.2009383" lon="11.3302033"><ele>812.5</ele><time>2026-04-18T10:29:56.281Z</time></trkpt><trkpt lat="44.2008567" lon="11.3305817"><ele>802.0</ele><time>2026-04-18T10:29:57.279Z</time></trkpt><trkpt lat="44.2007783" lon="11.33079"><ele>802.0</ele><time>2026-04-18T10:29:58.28Z</time></trkpt><trkpt lat="44.2007767" lon="11.3310517"><ele>802.0</ele><time>2026-04-18T10:29:59.28Z</time></trkpt><trkpt lat="44.2008417" lon="11.3312767"><ele>802.0</ele><time>2026-04-18T10:30:00.28Z</time></trkpt><trkpt lat="44.2008533" lon="11.3314683"><ele>801.0</ele><time>2026-04-18T10:30:01.279Z</time></trkpt><trkpt lat="44.2008183" lon="11.3316433"><ele>800.0</ele><time>2026-04-18T10:30:02.279Z</time></trkpt><trkpt lat="44.20077" lon="11.3318067"><ele>799.0</ele><time>2026-04-18T10:30:03.279Z</time></trkpt><trkpt lat="44.200685" lon="11.3319317"><ele>798.0</ele><time>2026-04-18T10:30:04.278Z</time></trkpt><trkpt lat="44.200615" lon="11.33201"><ele>797.75</ele><time>2026-04-18T10:30:05.28Z</time></trkpt><trkpt lat="44.2004917" lon="11.33204"><ele>797.5</ele><time>2026-04-18T10:30:06.278Z</time></trkpt><trkpt lat="44.200345" lon="11.332015"><ele>797.25</ele><time>2026-04-18T10:30:07.278Z</time></trkpt><trkpt lat="44.20021" lon="11.33192"><ele>797.0</ele><time>2026-04-18T10:30:08.279Z</time></trkpt><trkpt lat="44.2001" lon="11.331775"><ele>797.0</ele><time>2026-04-18T10:30:09.279Z</time></trkpt><trkpt lat="44.2000283" lon="11.3316333"><ele>797.0</ele><time>2026-04-18T10:30:10.279Z</time></trkpt><trkpt lat="44.1999717" lon="11.3315067"><ele>797.0</ele><time>2026-04-18T10:30:11.282Z</time></trkpt><trkpt lat="44.1999067" lon="11.331405"><ele>797.0</ele><time>2026-04-18T10:30:12.28Z</time></trkpt><trkpt lat="44.199835" lon="11.3313283"><ele>797.0</ele><time>2026-04-18T10:30:13.283Z</time></trkpt><trkpt lat="44.19976" lon="11.3312817"><ele>798.0</ele><time>2026-04-18T10:30:14.282Z</time></trkpt><trkpt lat="44.19969" lon="11.3312583"><ele>799.0</ele><time>2026-04-18T10:30:15.282Z</time></trkpt><trkpt lat="44.1996417" lon="11.3316217"><ele>800.0</ele><time>2026-04-18T10:30:16.282Z</time></trkpt><trkpt lat="44.199605" lon="11.33181"><ele>800.0</ele><time>2026-04-18T10:30:17.282Z</time></trkpt><trkpt lat="44.19955" lon="11.3320167"><ele>800.0</ele><time>2026-04-18T10:30:18.281Z</time></trkpt><trkpt lat="44.1994883" lon="11.33222"><ele>800.0</ele><time>2026-04-18T10:30:19.281Z</time></trkpt><trkpt lat="44.1994117" lon="11.332405"><ele>794.3333333333334</ele><time>2026-04-18T10:30:20.282Z</time></trkpt><trkpt lat="44.1992867" lon="11.3325617"><ele>788.6666666666667</ele><time>2026-04-18T10:30:21.281Z</time></trkpt><trkpt lat="44.19916" lon="11.3327183"><ele>783.0</ele><time>2026-04-18T10:30:22.282Z</time></trkpt><trkpt lat="44.1990467" lon="11.3328733"><ele>785.0</ele><time>2026-04-18T10:30:23.282Z</time></trkpt><trkpt lat="44.1989467" lon="11.3330167"><ele>787.0</ele><time>2026-04-18T10:30:24.281Z</time></trkpt><trkpt lat="44.1988583" lon="11.3331467"><ele>789.0</ele><time>2026-04-18T10:30:25.282Z</time></trkpt><trkpt lat="44.1987633" lon="11.33323"><ele>791.0</ele><time>2026-04-18T10:30:26.28Z</time></trkpt><trkpt lat="44.198665" lon="11.3332783"><ele>786.25</ele><time>2026-04-18T10:30:27.283Z</time></trkpt><trkpt lat="44.198555" lon="11.3332833"><ele>781.5</ele><time>2026-04-18T10:30:28.28Z</time></trkpt><trkpt lat="44.1984233" lon="11.3332667"><ele>776.75</ele><time>2026-04-18T10:30:29.282Z</time></trkpt><trkpt lat="44.1982917" lon="11.3332417"><ele>772.0</ele><time>2026-04-18T10:30:30.282Z</time></trkpt><trkpt lat="44.198145" lon="11.333215"><ele>771.6666666666666</ele><time>2026-04-18T10:30:31.28Z</time></trkpt><trkpt lat="44.1979817" lon="11.3332"><ele>771.3333333333333</ele><time>2026-04-18T10:30:32.282Z</time></trkpt><trkpt lat="44.1978333" lon="11.3331867"><ele>771.0</ele><time>2026-04-18T10:30:33.281Z</time></trkpt><trkpt lat="44.1976683" lon="11.3331917"><ele>771.0</ele><time>2026-04-18T10:30:34.282Z</time></trkpt><trkpt lat="44.197515" lon="11.3332233"><ele>771.0</ele><time>2026-04-18T10:30:35.283Z</time></trkpt><trkpt lat="44.197355" lon="11.3332783"><ele>771.0</ele><time>2026-04-18T10:30:36.282Z</time></trkpt><trkpt lat="44.1971967" lon="11.333315"><ele>772.0</ele><time>2026-04-18T10:30:37.281Z</time></trkpt><trkpt lat="44.19705" lon="11.333325"><ele>773.0</ele><time>2026-04-18T10:30:38.282Z</time></trkpt><trkpt lat="44.196875" lon="11.3333183"><ele>774.0</ele><time>2026-04-18T10:30:39.281Z</time></trkpt><trkpt lat="44.1967067" lon="11.3333283"><ele>774.0</ele><time>2026-04-18T10:30:40.282Z</time></trkpt><trkpt lat="44.19653" lon="11.3333517"><ele>774.0</ele><time>2026-04-18T10:30:41.282Z</time></trkpt><trkpt lat="44.1963567" lon="11.3333917"><ele>774.0</ele><time>2026-04-18T10:30:42.283Z</time></trkpt><trkpt lat="44.1961683" lon="11.333445"><ele>775.0</ele><time>2026-04-18T10:30:43.282Z</time></trkpt><trkpt lat="44.195975" lon="11.3335133"><ele>776.0</ele><time>2026-04-18T10:30:44.281Z</time></trkpt><trkpt lat="44.1957833" lon="11.3335817"><ele>777.0</ele><time>2026-04-18T10:30:45.282Z</time></trkpt><trkpt lat="44.1955967" lon="11.3336233"><ele>780.3333333333333</ele><time>2026-04-18T10:30:46.282Z</time></trkpt><trkpt lat="44.1953883" lon="11.333685"><ele>783.6666666666666</ele><time>2026-04-18T10:30:47.282Z</time></trkpt><trkpt lat="44.1952217" lon="11.3337"><ele>787.0</ele><time>2026-04-18T10:30:48.283Z</time></trkpt><trkpt lat="44.1950583" lon="11.33368"><ele>787.0</ele><time>2026-04-18T10:30:49.282Z</time></trkpt><trkpt lat="44.1948883" lon="11.3336483"><ele>787.0</ele><time>2026-04-18T10:30:50.282Z</time></trkpt><trkpt lat="44.19471" lon="11.3336083"><ele>787.0</ele><time>2026-04-18T10:30:51.282Z</time></trkpt><trkpt lat="44.194535" lon="11.3336083"><ele>786.3333333333333</ele><time>2026-04-18T10:30:52.28Z</time></trkpt><trkpt lat="44.19436" lon="11.333635"><ele>785.6666666666667</ele><time>2026-04-18T10:30:53.281Z</time></trkpt><trkpt lat="44.1941867" lon="11.3336733"><ele>785.0</ele><time>2026-04-18T10:30:54.282Z</time></trkpt><trkpt lat="44.19386" lon="11.33382"><ele>784.25</ele><time>2026-04-18T10:30:56.281Z</time></trkpt><trkpt lat="44.19374" lon="11.33395"><ele>783.5</ele><time>2026-04-18T10:30:57.282Z</time></trkpt><trkpt lat="44.1936183" lon="11.3340583"><ele>782.75</ele><time>2026-04-18T10:30:58.282Z</time></trkpt><trkpt lat="44.1935" lon="11.3341633"><ele>782.0</ele><time>2026-04-18T10:30:59.282Z</time></trkpt><trkpt lat="44.1934083" lon="11.3342367"><ele>782.0</ele><time>2026-04-18T10:31:00.282Z</time></trkpt><trkpt lat="44.193335" lon="11.334275"><ele>782.0</ele><time>2026-04-18T10:31:01.291Z</time></trkpt><trkpt lat="44.1932567" lon="11.33427"><ele>782.0</ele><time>2026-04-18T10:31:02.282Z</time></trkpt><trkpt lat="44.1931683" lon="11.3342333"><ele>782.0</ele><time>2026-04-18T10:31:03.283Z</time></trkpt><trkpt lat="44.1930667" lon="11.33419"><ele>782.0</ele><time>2026-04-18T10:31:04.282Z</time></trkpt><trkpt lat="44.1929833" lon="11.334125"><ele>782.0</ele><time>2026-04-18T10:31:05.281Z</time></trkpt><trkpt lat="44.1928867" lon="11.3340367"><ele>782.0</ele><time>2026-04-18T10:31:06.281Z</time></trkpt><trkpt lat="44.1927817" lon="11.3339533"><ele>782.0</ele><time>2026-04-18T10:31:07.282Z</time></trkpt><trkpt lat="44.1926817" lon="11.333885"><ele>782.0</ele><time>2026-04-18T10:31:08.282Z</time></trkpt><trkpt lat="44.1925733" lon="11.33383"><ele>786.25</ele><time>2026-04-18T10:31:09.28Z</time></trkpt><trkpt lat="44.1924667" lon="11.3337783"><ele>790.5</ele><time>2026-04-18T10:31:10.282Z</time></trkpt><trkpt lat="44.1923683" lon="11.3337283"><ele>794.75</ele><time>2026-04-18T10:31:11.282Z</time></trkpt><trkpt lat="44.1922217" lon="11.3338083"><ele>799.0</ele><time>2026-04-18T10:31:12.282Z</time></trkpt><trkpt lat="44.1920183" lon="11.33389"><ele>799.0</ele><time>2026-04-18T10:31:13.28Z</time></trkpt><trkpt lat="44.1918417" lon="11.3339933"><ele>799.0</ele><time>2026-04-18T10:31:14.282Z</time></trkpt><trkpt lat="44.191665" lon="11.3340867"><ele>799.0</ele><time>2026-04-18T10:31:15.281Z</time></trkpt><trkpt lat="44.1914817" lon="11.3341983"><ele>805.0</ele><time>2026-04-18T10:31:16.28Z</time></trkpt><trkpt lat="44.191305" lon="11.3343267"><ele>811.0</ele><time>2026-04-18T10:31:17.282Z</time></trkpt><trkpt lat="44.191135" lon="11.33443"><ele>817.0</ele><time>2026-04-18T10:31:18.282Z</time></trkpt><trkpt lat="44.19097" lon="11.3345083"><ele>817.0</ele><time>2026-04-18T10:31:19.28Z</time></trkpt><trkpt lat="44.190795" lon="11.3345767"><ele>817.0</ele><time>2026-04-18T10:31:20.28Z</time></trkpt><trkpt lat="44.1906017" lon="11.3346367"><ele>817.0</ele><time>2026-04-18T10:31:21.281Z</time></trkpt><trkpt lat="44.19042" lon="11.334695"><ele>814.0</ele><time>2026-04-18T10:31:22.281Z</time></trkpt><trkpt lat="44.1902467" lon="11.3347583"><ele>811.0</ele><time>2026-04-18T10:31:23.281Z</time></trkpt><trkpt lat="44.190085" lon="11.3347983"><ele>808.0</ele><time>2026-04-18T10:31:24.282Z</time></trkpt><trkpt lat="44.1899267" lon="11.3348"><ele>807.25</ele><time>2026-04-18T10:31:25.28Z</time></trkpt><trkpt lat="44.189775" lon="11.3348033"><ele>806.5</ele><time>2026-04-18T10:31:26.282Z</time></trkpt><trkpt lat="44.189655" lon="11.334745"><ele>805.75</ele><time>2026-04-18T10:31:27.28Z</time></trkpt><trkpt lat="44.18954" lon="11.3346283"><ele>805.0</ele><time>2026-04-18T10:31:28.282Z</time></trkpt><trkpt lat="44.1894267" lon="11.334475"><ele>809.3333333333333</ele><time>2026-04-18T10:31:29.282Z</time></trkpt><trkpt lat="44.1893783" lon="11.334205"><ele>813.6666666666667</ele><time>2026-04-18T10:31:30.282Z</time></trkpt><trkpt lat="44.1893017" lon="11.3339817"><ele>818.0</ele><time>2026-04-18T10:31:31.282Z</time></trkpt><trkpt lat="44.1892183" lon="11.3337883"><ele>821.5</ele><time>2026-04-18T10:31:32.282Z</time></trkpt><trkpt lat="44.1891467" lon="11.3335833"><ele>825.0</ele><time>2026-04-18T10:31:33.282Z</time></trkpt><trkpt lat="44.1890667" lon="11.3334317"><ele>828.5</ele><time>2026-04-18T10:31:34.282Z</time></trkpt><trkpt lat="44.18898" lon="11.3333233"><ele>832.0</ele><time>2026-04-18T10:31:35.281Z</time></trkpt><trkpt lat="44.1888967" lon="11.333245"><ele>831.9999999999999</ele><time>2026-04-18T10:31:36.281Z</time></trkpt><trkpt lat="44.1888267" lon="11.3331967"><ele>832.0</ele><time>2026-04-18T10:31:37.281Z</time></trkpt><trkpt lat="44.1887683" lon="11.3331567"><ele>832.0</ele><time>2026-04-18T10:31:38.281Z</time></trkpt><trkpt lat="44.18866" lon="11.3331233"><ele>832.0</ele><time>2026-04-18T10:31:40.281Z</time></trkpt><trkpt lat="44.1885933" lon="11.3330883"><ele>831.9999999999999</ele><time>2026-04-18T10:31:41.281Z</time></trkpt><trkpt lat="44.188515" lon="11.333035"><ele>832.0</ele><time>2026-04-18T10:31:42.282Z</time></trkpt><trkpt lat="44.1884217" lon="11.33298"><ele>835.2</ele><time>2026-04-18T10:31:43.282Z</time></trkpt><trkpt lat="44.1883317" lon="11.332915"><ele>838.4000000000001</ele><time>2026-04-18T10:31:44.282Z</time></trkpt><trkpt lat="44.18824" lon="11.3328617"><ele>841.5999999999999</ele><time>2026-04-18T10:31:45.279Z</time></trkpt><trkpt lat="44.1881183" lon="11.3328217"><ele>844.8</ele><time>2026-04-18T10:31:46.282Z</time></trkpt><trkpt lat="44.1880033" lon="11.332775"><ele>848.0</ele><time>2026-04-18T10:31:47.282Z</time></trkpt><trkpt lat="44.187895" lon="11.332765"><ele>849.3333333333334</ele><time>2026-04-18T10:31:48.281Z</time></trkpt><trkpt lat="44.187735" lon="11.3328283"><ele>850.6666666666667</ele><time>2026-04-18T10:31:49.282Z</time></trkpt><trkpt lat="44.1875733" lon="11.332855"><ele>852.0</ele><time>2026-04-18T10:31:50.281Z</time></trkpt><trkpt lat="44.1874667" lon="11.3329417"><ele>852.0</ele><time>2026-04-18T10:31:51.281Z</time></trkpt><trkpt lat="44.1873633" lon="11.3330283"><ele>852.0</ele><time>2026-04-18T10:31:52.281Z</time></trkpt><trkpt lat="44.1872783" lon="11.3331917"><ele>852.0</ele><time>2026-04-18T10:31:53.282Z</time></trkpt><trkpt lat="44.1871567" lon="11.3332883"><ele>852.0</ele><time>2026-04-18T10:31:54.283Z</time></trkpt><trkpt lat="44.1870583" lon="11.3334033"><ele>851.75</ele><time>2026-04-18T10:31:55.281Z</time></trkpt><trkpt lat="44.1869233" lon="11.3335067"><ele>851.5</ele><time>2026-04-18T10:31:56.281Z</time></trkpt><trkpt lat="44.186785" lon="11.3335467"><ele>851.25</ele><time>2026-04-18T10:31:57.281Z</time></trkpt><trkpt lat="44.1866467" lon="11.3336"><ele>851.0</ele><time>2026-04-18T10:31:58.284Z</time></trkpt><trkpt lat="44.18651" lon="11.3337"><ele>853.0</ele><time>2026-04-18T10:31:59.281Z</time></trkpt><trkpt lat="44.1863817" lon="11.33383"><ele>855.0</ele><time>2026-04-18T10:32:00.281Z</time></trkpt><trkpt lat="44.1862933" lon="11.3339967"><ele>857.0</ele><time>2026-04-18T10:32:01.281Z</time></trkpt><trkpt lat="44.1862217" lon="11.3341683"><ele>857.0</ele><time>2026-04-18T10:32:02.283Z</time></trkpt><trkpt lat="44.1861133" lon="11.3343133"><ele>857.0</ele><time>2026-04-18T10:32:03.281Z</time></trkpt><trkpt lat="44.18599" lon="11.3343983"><ele>857.0</ele><time>2026-04-18T10:32:04.283Z</time></trkpt><trkpt lat="44.1858483" lon="11.3344433"><ele>857.0</ele><time>2026-04-18T10:32:05.28Z</time></trkpt><trkpt lat="44.1856917" lon="11.334445"><ele>862.3333333333334</ele><time>2026-04-18T10:32:06.28Z</time></trkpt><trkpt lat="44.1855133" lon="11.33445"><ele>867.6666666666667</ele><time>2026-04-18T10:32:07.281Z</time></trkpt><trkpt lat="44.1853117" lon="11.3344533"><ele>873.0</ele><time>2026-04-18T10:32:08.281Z</time></trkpt><trkpt lat="44.1851133" lon="11.334445"><ele>873.0</ele><time>2026-04-18T10:32:09.283Z</time></trkpt><trkpt lat="44.18495" lon="11.3345567"><ele>873.0</ele><time>2026-04-18T10:32:10.281Z</time></trkpt><trkpt lat="44.1847767" lon="11.33468"><ele>873.0</ele><time>2026-04-18T10:32:11.282Z</time></trkpt><trkpt lat="44.1845983" lon="11.3348017"><ele>871.0</ele><time>2026-04-18T10:32:12.282Z</time></trkpt><trkpt lat="44.1844133" lon="11.3349183"><ele>869.0</ele><time>2026-04-18T10:32:13.283Z</time></trkpt><trkpt lat="44.18422" lon="11.3350233"><ele>867.0</ele><time>2026-04-18T10:32:14.283Z</time></trkpt><trkpt lat="44.1840367" lon="11.3351233"><ele>871.0</ele><time>2026-04-18T10:32:15.282Z</time></trkpt><trkpt lat="44.1838567" lon="11.3352117"><ele>875.0</ele><time>2026-04-18T10:32:16.281Z</time></trkpt><trkpt lat="44.1836783" lon="11.3352867"><ele>879.0</ele><time>2026-04-18T10:32:17.284Z</time></trkpt><trkpt lat="44.183505" lon="11.3352983"><ele>879.0</ele><time>2026-04-18T10:32:18.281Z</time></trkpt><trkpt lat="44.1833067" lon="11.335275"><ele>879.0</ele><time>2026-04-18T10:32:19.281Z</time></trkpt><trkpt lat="44.1831" lon="11.3352467"><ele>879.0</ele><time>2026-04-18T10:32:20.282Z</time></trkpt><trkpt lat="44.182915" lon="11.3352133"><ele>881.3333333333333</ele><time>2026-04-18T10:32:21.28Z</time></trkpt><trkpt lat="44.182735" lon="11.3352283"><ele>883.6666666666666</ele><time>2026-04-18T10:32:22.281Z</time></trkpt><trkpt lat="44.1825733" lon="11.33528"><ele>886.0</ele><time>2026-04-18T10:32:23.282Z</time></trkpt><trkpt lat="44.1824167" lon="11.3353433"><ele>888.0</ele><time>2026-04-18T10:32:24.281Z</time></trkpt><trkpt lat="44.182235" lon="11.3354167"><ele>890.0</ele><time>2026-04-18T10:32:25.282Z</time></trkpt><trkpt lat="44.1820533" lon="11.3354683"><ele>892.0</ele><time>2026-04-18T10:32:26.282Z</time></trkpt><trkpt lat="44.1818733" lon="11.3355067"><ele>892.0</ele><time>2026-04-18T10:32:27.282Z</time></trkpt><trkpt lat="44.1817033" lon="11.3355133"><ele>892.0</ele><time>2026-04-18T10:32:28.281Z</time></trkpt><trkpt lat="44.1815417" lon="11.33549"><ele>892.0</ele><time>2026-04-18T10:32:29.283Z</time></trkpt><trkpt lat="44.1813933" lon="11.335445"><ele>892.3333333333333</ele><time>2026-04-18T10:32:30.281Z</time></trkpt><trkpt lat="44.181245" lon="11.3353867"><ele>892.6666666666667</ele><time>2026-04-18T10:32:31.281Z</time></trkpt><trkpt lat="44.1811083" lon="11.3352717"><ele>893.0</ele><time>2026-04-18T10:32:32.282Z</time></trkpt><trkpt lat="44.1809767" lon="11.3351533"><ele>893.0</ele><time>2026-04-18T10:32:33.282Z</time></trkpt><trkpt lat="44.18085" lon="11.3350433"><ele>893.0</ele><time>2026-04-18T10:32:34.282Z</time></trkpt><trkpt lat="44.1807083" lon="11.3349583"><ele>893.0</ele><time>2026-04-18T10:32:35.282Z</time></trkpt><trkpt lat="44.18056" lon="11.3348917"><ele>894.0</ele><time>2026-04-18T10:32:36.282Z</time></trkpt><trkpt lat="44.1804083" lon="11.3348583"><ele>895.0</ele><time>2026-04-18T10:32:37.283Z</time></trkpt><trkpt lat="44.1802083" lon="11.334895"><ele>896.0</ele><time>2026-04-18T10:32:38.283Z</time></trkpt><trkpt lat="44.1800067" lon="11.33495"><ele>908.5</ele><time>2026-04-18T10:32:39.281Z</time></trkpt><trkpt lat="44.1797567" lon="11.3351033"><ele>921.0</ele><time>2026-04-18T10:32:40.281Z</time></trkpt><trkpt lat="44.1795583" lon="11.3352117"><ele>921.0</ele><time>2026-04-18T10:32:41.281Z</time></trkpt><trkpt lat="44.17939" lon="11.3353217"><ele>921.0</ele><time>2026-04-18T10:32:42.282Z</time></trkpt><trkpt lat="44.1792567" lon="11.3354333"><ele>921.0</ele><time>2026-04-18T10:32:43.281Z</time></trkpt><trkpt lat="44.1791067" lon="11.3355533"><ele>922.0</ele><time>2026-04-18T10:32:44.283Z</time></trkpt><trkpt lat="44.1789617" lon="11.335685"><ele>923.0</ele><time>2026-04-18T10:32:45.282Z</time></trkpt><trkpt lat="44.17882" lon="11.335845"><ele>924.0</ele><time>2026-04-18T10:32:46.283Z</time></trkpt><trkpt lat="44.1788967" lon="11.3360933"><ele>924.0</ele><time>2026-04-18T10:32:47.28Z</time></trkpt><trkpt lat="44.1788983" lon="11.336305"><ele>924.0</ele><time>2026-04-18T10:32:48.282Z</time></trkpt><trkpt lat="44.1789017" lon="11.336525"><ele>924.0</ele><time>2026-04-18T10:32:49.28Z</time></trkpt><trkpt lat="44.17885" lon="11.3366783"><ele>924.0</ele><time>2026-04-18T10:32:50.282Z</time></trkpt><trkpt lat="44.17879" lon="11.336745"><ele>920.75</ele><time>2026-04-18T10:32:51.281Z</time></trkpt><trkpt lat="44.1787067" lon="11.3367567"><ele>917.5</ele><time>2026-04-18T10:32:52.282Z</time></trkpt><trkpt lat="44.1786" lon="11.336705"><ele>914.25</ele><time>2026-04-18T10:32:53.279Z</time></trkpt><trkpt lat="44.1784867" lon="11.3365983"><ele>911.0</ele><time>2026-04-18T10:32:54.28Z</time></trkpt><trkpt lat="44.178365" lon="11.3364317"><ele>915.3333333333334</ele><time>2026-04-18T10:32:55.278Z</time></trkpt><trkpt lat="44.1782267" lon="11.3362967"><ele>919.6666666666667</ele><time>2026-04-18T10:32:56.28Z</time></trkpt><trkpt lat="44.1780833" lon="11.3362317"><ele>924.0</ele><time>2026-04-18T10:32:57.377Z</time></trkpt><trkpt lat="44.1779367" lon="11.336195"><ele>923.3333333333333</ele><time>2026-04-18T10:32:58.278Z</time></trkpt><trkpt lat="44.1777717" lon="11.3362533"><ele>922.6666666666666</ele><time>2026-04-18T10:32:59.28Z</time></trkpt><trkpt lat="44.1776067" lon="11.336345"><ele>922.0</ele><time>2026-04-18T10:33:00.279Z</time></trkpt><trkpt lat="44.177455" lon="11.33649"><ele>930.3333333333333</ele><time>2026-04-18T10:33:01.281Z</time></trkpt><trkpt lat="44.1773217" lon="11.3366517"><ele>938.6666666666667</ele><time>2026-04-18T10:33:02.281Z</time></trkpt><trkpt lat="44.1772317" lon="11.3368283"><ele>947.0</ele><time>2026-04-18T10:33:03.279Z</time></trkpt><trkpt lat="44.17716" lon="11.3370333"><ele>944.0</ele><time>2026-04-18T10:33:04.281Z</time></trkpt><trkpt lat="44.177165" lon="11.33726"><ele>941.0</ele><time>2026-04-18T10:33:05.28Z</time></trkpt><trkpt lat="44.17721" lon="11.3374717"><ele>938.0</ele><time>2026-04-18T10:33:06.281Z</time></trkpt><trkpt lat="44.1772083" lon="11.3376733"><ele>938.0</ele><time>2026-04-18T10:33:07.28Z</time></trkpt><trkpt lat="44.177165" lon="11.3378733"><ele>938.0</ele><time>2026-04-18T10:33:08.281Z</time></trkpt><trkpt lat="44.17711" lon="11.3380367"><ele>938.0</ele><time>2026-04-18T10:33:09.281Z</time></trkpt><trkpt lat="44.1770367" lon="11.33815"><ele>938.0</ele><time>2026-04-18T10:33:10.281Z</time></trkpt><trkpt lat="44.1769183" lon="11.338205"><ele>935.0</ele><time>2026-04-18T10:33:11.281Z</time></trkpt><trkpt lat="44.17679" lon="11.3381883"><ele>932.0</ele><time>2026-04-18T10:33:12.28Z</time></trkpt><trkpt lat="44.1766417" lon="11.3381167"><ele>929.0</ele><time>2026-04-18T10:33:13.281Z</time></trkpt><trkpt lat="44.17647" lon="11.3380233"><ele>935.0</ele><time>2026-04-18T10:33:14.281Z</time></trkpt><trkpt lat="44.176295" lon="11.3379233"><ele>941.0</ele><time>2026-04-18T10:33:15.281Z</time></trkpt><trkpt lat="44.1761333" lon="11.337835"><ele>947.0</ele><time>2026-04-18T10:33:16.281Z</time></trkpt><trkpt lat="44.1759833" lon="11.337735"><ele>947.0</ele><time>2026-04-18T10:33:17.28Z</time></trkpt><trkpt lat="44.17585" lon="11.3376167"><ele>947.0</ele><time>2026-04-18T10:33:18.281Z</time></trkpt><trkpt lat="44.1757433" lon="11.3374633"><ele>947.0</ele><time>2026-04-18T10:33:19.28Z</time></trkpt><trkpt lat="44.1756417" lon="11.3372967"><ele>948.6666666666667</ele><time>2026-04-18T10:33:20.28Z</time></trkpt><trkpt lat="44.1755483" lon="11.3371017"><ele>950.3333333333333</ele><time>2026-04-18T10:33:21.28Z</time></trkpt><trkpt lat="44.1754367" lon="11.3369333"><ele>952.0</ele><time>2026-04-18T10:33:22.28Z</time></trkpt><trkpt lat="44.1753233" lon="11.3367517"><ele>952.0</ele><time>2026-04-18T10:33:23.28Z</time></trkpt><trkpt lat="44.1752033" lon="11.3366067"><ele>952.0</ele><time>2026-04-18T10:33:24.282Z</time></trkpt><trkpt lat="44.1750867" lon="11.336485"><ele>952.0</ele><time>2026-04-18T10:33:25.281Z</time></trkpt><trkpt lat="44.1749417" lon="11.3364017"><ele>954.3333333333333</ele><time>2026-04-18T10:33:26.281Z</time></trkpt><trkpt lat="44.17476" lon="11.33646"><ele>956.6666666666667</ele><time>2026-04-18T10:33:27.281Z</time></trkpt><trkpt lat="44.174555" lon="11.3366133"><ele>959.0</ele><time>2026-04-18T10:33:28.279Z</time></trkpt><trkpt lat="44.1743833" lon="11.3367317"><ele>959.0</ele><time>2026-04-18T10:33:29.281Z</time></trkpt><trkpt lat="44.17421" lon="11.3368867"><ele>959.0</ele><time>2026-04-18T10:33:30.28Z</time></trkpt><trkpt lat="44.1740417" lon="11.3370367"><ele>959.0</ele><time>2026-04-18T10:33:31.281Z</time></trkpt><trkpt lat="44.1738683" lon="11.3372767"><ele>962.3333333333334</ele><time>2026-04-18T10:33:32.282Z</time></trkpt><trkpt lat="44.1737367" lon="11.3374767"><ele>965.6666666666667</ele><time>2026-04-18T10:33:33.281Z</time></trkpt><trkpt lat="44.1736217" lon="11.3376767"><ele>969.0</ele><time>2026-04-18T10:33:34.279Z</time></trkpt><trkpt lat="44.1735217" lon="11.3378483"><ele>969.0</ele><time>2026-04-18T10:33:35.28Z</time></trkpt><trkpt lat="44.1734317" lon="11.33799"><ele>969.0000000000001</ele><time>2026-04-18T10:33:36.28Z</time></trkpt><trkpt lat="44.1733567" lon="11.3381017"><ele>969.0000000000001</ele><time>2026-04-18T10:33:37.281Z</time></trkpt><trkpt lat="44.1732733" lon="11.3381983"><ele>969.0</ele><time>2026-04-18T10:33:38.28Z</time></trkpt><trkpt lat="44.173195" lon="11.338265"><ele>969.0</ele><time>2026-04-18T10:33:39.281Z</time></trkpt><trkpt lat="44.1731267" lon="11.3383083"><ele>967.4000000000001</ele><time>2026-04-18T10:33:40.28Z</time></trkpt><trkpt lat="44.1730383" lon="11.3383567"><ele>965.8000000000001</ele><time>2026-04-18T10:33:42.28Z</time></trkpt><trkpt lat="44.17303" lon="11.3384667"><ele>964.1999999999999</ele><time>2026-04-18T10:33:46.281Z</time></trkpt><trkpt lat="44.1730567" lon="11.3385617"><ele>962.5999999999999</ele><time>2026-04-18T10:36:57.282Z</time></trkpt><trkpt lat="44.1729725" lon="11.3384517"><ele>961.0</ele><time>2026-04-18T10:37:05.374Z</time></trkpt><trkpt lat="44.172889" lon="11.3383871"><ele>961.0</ele><time>2026-04-18T10:37:06.297Z</time></trkpt><trkpt lat="44.172953" lon="11.3383857"><ele>961.0</ele><time>2026-04-18T10:37:09.37Z</time></trkpt><trkpt lat="44.1729728" lon="11.3383015"><ele>961.0</ele><time>2026-04-18T10:37:13.366Z</time></trkpt><trkpt lat="44.1729855" lon="11.3382026"><ele>961.0</ele><time>2026-04-18T10:37:24.329Z</time></trkpt><trkpt lat="44.1730038" lon="11.3381186"><ele>961.0</ele><time>2026-04-18T10:37:30.375Z</time></trkpt></trkseg><trkseg><trkpt lat="44.173055" lon="11.3386217"><ele>960.9999999999999</ele><time>2026-04-18T11:15:52.279Z</time></trkpt><trkpt lat="44.1730467" lon="11.3387283"><ele>961.0</ele><time>2026-04-18T11:15:55.28Z</time></trkpt><trkpt lat="44.1730483" lon="11.3388267"><ele>961.0</ele><time>2026-04-18T11:15:59.279Z</time></trkpt><trkpt lat="44.1730833" lon="11.3389183"><ele>961.0</ele><time>2026-04-18T11:16:01.278Z</time></trkpt><trkpt lat="44.173135" lon="11.3390433"><ele>960.9999999999999</ele><time>2026-04-18T11:16:03.278Z</time></trkpt><trkpt lat="44.1731733" lon="11.33912"><ele>961.0</ele><time>2026-04-18T11:16:04.279Z</time></trkpt><trkpt lat="44.173215" lon="11.339205"><ele>961.4</ele><time>2026-04-18T11:16:05.28Z</time></trkpt><trkpt lat="44.1732567" lon="11.3393133"><ele>961.8</ele><time>2026-04-18T11:16:06.279Z</time></trkpt><trkpt lat="44.1733" lon="11.3394267"><ele>962.1999999999999</ele><time>2026-04-18T11:16:07.281Z</time></trkpt><trkpt lat="44.1733483" lon="11.3395567"><ele>962.5999999999999</ele><time>2026-04-18T11:16:08.281Z</time></trkpt><trkpt lat="44.1734017" lon="11.3396867"><ele>963.0</ele><time>2026-04-18T11:16:09.28Z</time></trkpt><trkpt lat="44.173465" lon="11.33981"><ele>964.0</ele><time>2026-04-18T11:16:10.279Z</time></trkpt><trkpt lat="44.173535" lon="11.3399283"><ele>965.0</ele><time>2026-04-18T11:16:11.281Z</time></trkpt><trkpt lat="44.1736033" lon="11.340045"><ele>966.0</ele><time>2026-04-18T11:16:12.279Z</time></trkpt><trkpt lat="44.1736833" lon="11.3401583"><ele>967.0</ele><time>2026-04-18T11:16:13.28Z</time></trkpt><trkpt lat="44.1737633" lon="11.340275"><ele>968.0</ele><time>2026-04-18T11:16:14.28Z</time></trkpt><trkpt lat="44.1738383" lon="11.34039"><ele>968.0</ele><time>2026-04-18T11:16:15.28Z</time></trkpt><trkpt lat="44.1739" lon="11.340505"><ele>968.0</ele><time>2026-04-18T11:16:16.281Z</time></trkpt><trkpt lat="44.17394" lon="11.3406367"><ele>968.0</ele><time>2026-04-18T11:16:17.279Z</time></trkpt><trkpt lat="44.1739533" lon="11.3407817"><ele>968.0</ele><time>2026-04-18T11:16:18.28Z</time></trkpt><trkpt lat="44.1739417" lon="11.3409267"><ele>968.0</ele><time>2026-04-18T11:16:19.28Z</time></trkpt><trkpt lat="44.1738967" lon="11.3410667"><ele>967.75</ele><time>2026-04-18T11:16:20.28Z</time></trkpt><trkpt lat="44.1738233" lon="11.341195"><ele>967.5</ele><time>2026-04-18T11:16:21.28Z</time></trkpt><trkpt lat="44.1737317" lon="11.34131"><ele>967.25</ele><time>2026-04-18T11:16:22.279Z</time></trkpt><trkpt lat="44.173625" lon="11.3414167"><ele>967.0</ele><time>2026-04-18T11:16:23.279Z</time></trkpt><trkpt lat="44.173515" lon="11.341525"><ele>963.75</ele><time>2026-04-18T11:16:24.279Z</time></trkpt><trkpt lat="44.17342" lon="11.3416467"><ele>960.5</ele><time>2026-04-18T11:16:25.28Z</time></trkpt><trkpt lat="44.1733583" lon="11.3417867"><ele>957.25</ele><time>2026-04-18T11:16:26.28Z</time></trkpt><trkpt lat="44.173325" lon="11.34194"><ele>954.0</ele><time>2026-04-18T11:16:27.28Z</time></trkpt><trkpt lat="44.1733267" lon="11.3421033"><ele>954.0</ele><time>2026-04-18T11:16:28.279Z</time></trkpt><trkpt lat="44.1733517" lon="11.34227"><ele>954.0</ele><time>2026-04-18T11:16:29.279Z</time></trkpt><trkpt lat="44.173405" lon="11.3424383"><ele>954.0</ele><time>2026-04-18T11:16:30.28Z</time></trkpt><trkpt lat="44.1734733" lon="11.3426117"><ele>954.0</ele><time>2026-04-18T11:16:31.279Z</time></trkpt><trkpt lat="44.173545" lon="11.3427867"><ele>954.0</ele><time>2026-04-18T11:16:32.281Z</time></trkpt><trkpt lat="44.17362" lon="11.3429583"><ele>954.0</ele><time>2026-04-18T11:16:33.279Z</time></trkpt><trkpt lat="44.1737" lon="11.3431333"><ele>954.0</ele><time>2026-04-18T11:16:34.279Z</time></trkpt><trkpt lat="44.173745" lon="11.342835"><ele>954.0</ele><time>2026-04-18T11:16:35.801Z</time></trkpt><trkpt lat="44.1739233" lon="11.3430067"><ele>954.0</ele><time>2026-04-18T11:16:37.28Z</time></trkpt><trkpt lat="44.1740233" lon="11.3431683"><ele>954.0</ele><time>2026-04-18T11:16:38.28Z</time></trkpt><trkpt lat="44.1741983" lon="11.343335"><ele>948.3333333333333</ele><time>2026-04-18T11:16:39.28Z</time></trkpt><trkpt lat="44.17432" lon="11.343485"><ele>942.6666666666666</ele><time>2026-04-18T11:16:40.279Z</time></trkpt><trkpt lat="44.1744733" lon="11.3435883"><ele>937.0</ele><time>2026-04-18T11:16:41.281Z</time></trkpt><trkpt lat="44.17463" lon="11.3436867"><ele>937.0</ele><time>2026-04-18T11:16:42.28Z</time></trkpt><trkpt lat="44.1747867" lon="11.3437833"><ele>937.0</ele><time>2026-04-18T11:16:43.28Z</time></trkpt><trkpt lat="44.1749483" lon="11.3438783"><ele>937.0</ele><time>2026-04-18T11:16:44.281Z</time></trkpt><trkpt lat="44.17511" lon="11.3439483"><ele>936.6666666666666</ele><time>2026-04-18T11:16:45.28Z</time></trkpt><trkpt lat="44.175275" lon="11.34402"><ele>936.3333333333333</ele><time>2026-04-18T11:16:46.279Z</time></trkpt><trkpt lat="44.1754417" lon="11.3440833"><ele>936.0</ele><time>2026-04-18T11:16:47.28Z</time></trkpt><trkpt lat="44.1756083" lon="11.3441583"><ele>932.3333333333333</ele><time>2026-04-18T11:16:48.28Z</time></trkpt><trkpt lat="44.1757783" lon="11.3442567"><ele>928.6666666666666</ele><time>2026-04-18T11:16:49.279Z</time></trkpt><trkpt lat="44.1759467" lon="11.3443767"><ele>925.0</ele><time>2026-04-18T11:16:50.28Z</time></trkpt><trkpt lat="44.1761083" lon="11.3444983"><ele>925.0</ele><time>2026-04-18T11:16:51.279Z</time></trkpt><trkpt lat="44.17626" lon="11.3446083"><ele>925.0</ele><time>2026-04-18T11:16:52.278Z</time></trkpt><trkpt lat="44.1764117" lon="11.3447183"><ele>925.0</ele><time>2026-04-18T11:16:53.28Z</time></trkpt><trkpt lat="44.1765617" lon="11.3448333"><ele>925.6666666666666</ele><time>2026-04-18T11:16:54.28Z</time></trkpt><trkpt lat="44.1767067" lon="11.3449617"><ele>926.3333333333333</ele><time>2026-04-18T11:16:55.28Z</time></trkpt><trkpt lat="44.1768417" lon="11.3450967"><ele>927.0</ele><time>2026-04-18T11:16:56.28Z</time></trkpt><trkpt lat="44.1769667" lon="11.345245"><ele>927.0</ele><time>2026-04-18T11:16:57.28Z</time></trkpt><trkpt lat="44.1770817" lon="11.345395"><ele>927.0</ele><time>2026-04-18T11:16:58.279Z</time></trkpt><trkpt lat="44.177195" lon="11.3455317"><ele>927.0</ele><time>2026-04-18T11:16:59.28Z</time></trkpt><trkpt lat="44.1773133" lon="11.3456433"><ele>925.25</ele><time>2026-04-18T11:17:00.28Z</time></trkpt><trkpt lat="44.1774433" lon="11.345725"><ele>923.5</ele><time>2026-04-18T11:17:01.28Z</time></trkpt><trkpt lat="44.1775867" lon="11.3457633"><ele>921.75</ele><time>2026-04-18T11:17:02.279Z</time></trkpt><trkpt lat="44.1777317" lon="11.3457833"><ele>920.0</ele><time>2026-04-18T11:17:03.279Z</time></trkpt><trkpt lat="44.1778783" lon="11.3458033"><ele>920.0</ele><time>2026-04-18T11:17:04.281Z</time></trkpt><trkpt lat="44.1780183" lon="11.34583"><ele>920.0</ele><time>2026-04-18T11:17:05.28Z</time></trkpt><trkpt lat="44.1781483" lon="11.3458733"><ele>920.0</ele><time>2026-04-18T11:17:06.28Z</time></trkpt><trkpt lat="44.17826" lon="11.3459433"><ele>920.0</ele><time>2026-04-18T11:17:07.281Z</time></trkpt><trkpt lat="44.1783483" lon="11.3460533"><ele>919.5</ele><time>2026-04-18T11:17:08.28Z</time></trkpt><trkpt lat="44.1784117" lon="11.3461967"><ele>919.0</ele><time>2026-04-18T11:17:09.279Z</time></trkpt><trkpt lat="44.1784533" lon="11.34636"><ele>918.5</ele><time>2026-04-18T11:17:10.281Z</time></trkpt><trkpt lat="44.1784967" lon="11.34651"><ele>918.0</ele><time>2026-04-18T11:17:11.28Z</time></trkpt><trkpt lat="44.17857" lon="11.34664"><ele>918.0</ele><time>2026-04-18T11:17:12.281Z</time></trkpt><trkpt lat="44.17867" lon="11.3467267"><ele>918.0</ele><time>2026-04-18T11:17:13.279Z</time></trkpt><trkpt lat="44.178795" lon="11.3467683"><ele>918.0</ele><time>2026-04-18T11:17:14.28Z</time></trkpt><trkpt lat="44.1789383" lon="11.3467783"><ele>918.0</ele><time>2026-04-18T11:17:15.279Z</time></trkpt><trkpt lat="44.1790883" lon="11.346795"><ele>914.0</ele><time>2026-04-18T11:17:16.279Z</time></trkpt><trkpt lat="44.1792333" lon="11.3468217"><ele>910.0</ele><time>2026-04-18T11:17:17.28Z</time></trkpt><trkpt lat="44.1793667" lon="11.346855"><ele>906.0</ele><time>2026-04-18T11:17:18.281Z</time></trkpt><trkpt lat="44.1794833" lon="11.3469183"><ele>902.0</ele><time>2026-04-18T11:17:19.281Z</time></trkpt><trkpt lat="44.1795783" lon="11.3470283"><ele>902.0</ele><time>2026-04-18T11:17:20.281Z</time></trkpt><trkpt lat="44.1796517" lon="11.3471733"><ele>902.0</ele><time>2026-04-18T11:17:21.281Z</time></trkpt><trkpt lat="44.1797133" lon="11.34733"><ele>902.0</ele><time>2026-04-18T11:17:22.28Z</time></trkpt><trkpt lat="44.179785" lon="11.3474817"><ele>902.0</ele><time>2026-04-18T11:17:23.281Z</time></trkpt><trkpt lat="44.179885" lon="11.3475933"><ele>901.0</ele><time>2026-04-18T11:17:24.281Z</time></trkpt><trkpt lat="44.18001" lon="11.34765"><ele>900.0</ele><time>2026-04-18T11:17:25.279Z</time></trkpt><trkpt lat="44.180155" lon="11.3476717"><ele>899.0</ele><time>2026-04-18T11:17:26.281Z</time></trkpt><trkpt lat="44.18031" lon="11.3476717"><ele>898.0</ele><time>2026-04-18T11:17:27.281Z</time></trkpt><trkpt lat="44.1804683" lon="11.3476717"><ele>898.0</ele><time>2026-04-18T11:17:28.28Z</time></trkpt><trkpt lat="44.1806217" lon="11.34768"><ele>898.0</ele><time>2026-04-18T11:17:29.28Z</time></trkpt><trkpt lat="44.18077" lon="11.3477117"><ele>898.0</ele><time>2026-04-18T11:17:30.279Z</time></trkpt><trkpt lat="44.180915" lon="11.347765"><ele>901.3333333333333</ele><time>2026-04-18T11:17:31.279Z</time></trkpt><trkpt lat="44.181055" lon="11.3478433"><ele>904.6666666666667</ele><time>2026-04-18T11:17:32.279Z</time></trkpt><trkpt lat="44.1811917" lon="11.3479467"><ele>908.0</ele><time>2026-04-18T11:17:33.28Z</time></trkpt><trkpt lat="44.18133" lon="11.34806"><ele>908.0</ele><time>2026-04-18T11:17:34.281Z</time></trkpt><trkpt lat="44.1814683" lon="11.3481783"><ele>908.0</ele><time>2026-04-18T11:17:35.281Z</time></trkpt><trkpt lat="44.1816067" lon="11.3482867"><ele>908.0</ele><time>2026-04-18T11:17:36.281Z</time></trkpt><trkpt lat="44.1817417" lon="11.34839"><ele>907.75</ele><time>2026-04-18T11:17:37.279Z</time></trkpt><trkpt lat="44.1818633" lon="11.3484983"><ele>907.5</ele><time>2026-04-18T11:17:38.28Z</time></trkpt><trkpt lat="44.1819683" lon="11.3486283"><ele>907.25</ele><time>2026-04-18T11:17:39.281Z</time></trkpt><trkpt lat="44.18205" lon="11.3487783"><ele>907.0</ele><time>2026-04-18T11:17:40.28Z</time></trkpt><trkpt lat="44.1821067" lon="11.3489467"><ele>907.0</ele><time>2026-04-18T11:17:41.279Z</time></trkpt><trkpt lat="44.1821417" lon="11.349135"><ele>907.0</ele><time>2026-04-18T11:17:42.28Z</time></trkpt><trkpt lat="44.1821617" lon="11.3493383"><ele>907.0</ele><time>2026-04-18T11:17:43.279Z</time></trkpt><trkpt lat="44.1821767" lon="11.3495517"><ele>907.0</ele><time>2026-04-18T11:17:44.28Z</time></trkpt><trkpt lat="44.1821967" lon="11.34977"><ele>911.0</ele><time>2026-04-18T11:17:45.281Z</time></trkpt><trkpt lat="44.1822217" lon="11.3499883"><ele>915.0</ele><time>2026-04-18T11:17:46.279Z</time></trkpt><trkpt lat="44.182265" lon="11.35021"><ele>919.0</ele><time>2026-04-18T11:17:47.28Z</time></trkpt><trkpt lat="44.182335" lon="11.3504267"><ele>910.6666666666666</ele><time>2026-04-18T11:17:48.282Z</time></trkpt><trkpt lat="44.1824167" lon="11.350635"><ele>902.3333333333333</ele><time>2026-04-18T11:17:49.282Z</time></trkpt><trkpt lat="44.1824867" lon="11.3508333"><ele>894.0</ele><time>2026-04-18T11:17:50.282Z</time></trkpt><trkpt lat="44.18253" lon="11.3510367"><ele>894.0</ele><time>2026-04-18T11:17:51.281Z</time></trkpt><trkpt lat="44.18253" lon="11.35125"><ele>894.0</ele><time>2026-04-18T11:17:52.282Z</time></trkpt><trkpt lat="44.1825033" lon="11.351465"><ele>894.0</ele><time>2026-04-18T11:17:53.281Z</time></trkpt><trkpt lat="44.1824933" lon="11.3516767"><ele>895.25</ele><time>2026-04-18T11:17:54.282Z</time></trkpt><trkpt lat="44.1825167" lon="11.3518717"><ele>896.5</ele><time>2026-04-18T11:17:55.279Z</time></trkpt><trkpt lat="44.1825733" lon="11.3520417"><ele>897.75</ele><time>2026-04-18T11:17:56.28Z</time></trkpt><trkpt lat="44.182665" lon="11.3521783"><ele>899.0</ele><time>2026-04-18T11:17:57.281Z</time></trkpt><trkpt lat="44.1827983" lon="11.3522967"><ele>898.0</ele><time>2026-04-18T11:17:58.28Z</time></trkpt><trkpt lat="44.1829567" lon="11.3523783"><ele>897.0</ele><time>2026-04-18T11:17:59.28Z</time></trkpt><trkpt lat="44.1831183" lon="11.35246"><ele>896.0</ele><time>2026-04-18T11:18:00.279Z</time></trkpt><trkpt lat="44.1832633" lon="11.3525833"><ele>896.0</ele><time>2026-04-18T11:18:01.281Z</time></trkpt><trkpt lat="44.183385" lon="11.35276"><ele>896.0</ele><time>2026-04-18T11:18:02.28Z</time></trkpt><trkpt lat="44.1834917" lon="11.3529783"><ele>896.0</ele><time>2026-04-18T11:18:03.281Z</time></trkpt><trkpt lat="44.18359" lon="11.3532167"><ele>900.6666666666667</ele><time>2026-04-18T11:18:04.279Z</time></trkpt><trkpt lat="44.1836917" lon="11.3534567"><ele>905.3333333333333</ele><time>2026-04-18T11:18:05.28Z</time></trkpt><trkpt lat="44.1837983" lon="11.3537017"><ele>910.0</ele><time>2026-04-18T11:18:06.281Z</time></trkpt><trkpt lat="44.1839083" lon="11.353955"><ele>909.0</ele><time>2026-04-18T11:18:07.28Z</time></trkpt><trkpt lat="44.1840217" lon="11.3542167"><ele>908.0</ele><time>2026-04-18T11:18:08.28Z</time></trkpt><trkpt lat="44.1841417" lon="11.3544783"><ele>907.0</ele><time>2026-04-18T11:18:09.28Z</time></trkpt><trkpt lat="44.1842617" lon="11.3547533"><ele>907.0</ele><time>2026-04-18T11:18:10.28Z</time></trkpt><trkpt lat="44.1843867" lon="11.3550133"><ele>907.0</ele><time>2026-04-18T11:18:11.279Z</time></trkpt><trkpt lat="44.1845333" lon="11.3552483"><ele>907.0</ele><time>2026-04-18T11:18:12.28Z</time></trkpt><trkpt lat="44.1847167" lon="11.3554517"><ele>907.6666666666666</ele><time>2026-04-18T11:18:13.28Z</time></trkpt><trkpt lat="44.1849133" lon="11.3556217"><ele>908.3333333333333</ele><time>2026-04-18T11:18:14.28Z</time></trkpt><trkpt lat="44.185095" lon="11.3557817"><ele>909.0</ele><time>2026-04-18T11:18:15.279Z</time></trkpt><trkpt lat="44.1852617" lon="11.3559383"><ele>909.0</ele><time>2026-04-18T11:18:16.281Z</time></trkpt><trkpt lat="44.185405" lon="11.3561067"><ele>909.0</ele><time>2026-04-18T11:18:17.28Z</time></trkpt><trkpt lat="44.1855183" lon="11.3562767"><ele>909.0</ele><time>2026-04-18T11:18:18.28Z</time></trkpt><trkpt lat="44.1856033" lon="11.3564533"><ele>907.25</ele><time>2026-04-18T11:18:19.279Z</time></trkpt><trkpt lat="44.1856683" lon="11.3566417"><ele>905.5</ele><time>2026-04-18T11:18:20.28Z</time></trkpt><trkpt lat="44.185705" lon="11.3568433"><ele>903.75</ele><time>2026-04-18T11:18:21.279Z</time></trkpt><trkpt lat="44.18571" lon="11.35703"><ele>902.0</ele><time>2026-04-18T11:18:22.281Z</time></trkpt><trkpt lat="44.1856833" lon="11.35719"><ele>907.5</ele><time>2026-04-18T11:18:23.28Z</time></trkpt><trkpt lat="44.1856283" lon="11.3573267"><ele>913.0</ele><time>2026-04-18T11:18:24.28Z</time></trkpt><trkpt lat="44.1855367" lon="11.35744"><ele>918.5</ele><time>2026-04-18T11:18:25.28Z</time></trkpt><trkpt lat="44.1854167" lon="11.357545"><ele>924.0</ele><time>2026-04-18T11:18:26.279Z</time></trkpt><trkpt lat="44.1853083" lon="11.3576667"><ele>924.0</ele><time>2026-04-18T11:18:27.281Z</time></trkpt><trkpt lat="44.18523" lon="11.3578317"><ele>924.0</ele><time>2026-04-18T11:18:28.28Z</time></trkpt><trkpt lat="44.18519" lon="11.358035"><ele>924.0</ele><time>2026-04-18T11:18:29.28Z</time></trkpt><trkpt lat="44.1851867" lon="11.3582633"><ele>922.3333333333333</ele><time>2026-04-18T11:18:30.28Z</time></trkpt><trkpt lat="44.18518" lon="11.35851"><ele>920.6666666666666</ele><time>2026-04-18T11:18:31.281Z</time></trkpt><trkpt lat="44.1851583" lon="11.3587567"><ele>919.0</ele><time>2026-04-18T11:18:32.279Z</time></trkpt><trkpt lat="44.18512" lon="11.3590083"><ele>916.6666666666666</ele><time>2026-04-18T11:18:33.28Z</time></trkpt><trkpt lat="44.185085" lon="11.3592633"><ele>914.3333333333333</ele><time>2026-04-18T11:18:34.279Z</time></trkpt><trkpt lat="44.18503" lon="11.3595183"><ele>912.0</ele><time>2026-04-18T11:18:35.28Z</time></trkpt><trkpt lat="44.184975" lon="11.359775"><ele>910.0</ele><time>2026-04-18T11:18:36.28Z</time></trkpt><trkpt lat="44.184915" lon="11.3600317"><ele>908.0</ele><time>2026-04-18T11:18:37.281Z</time></trkpt><trkpt lat="44.184855" lon="11.360285"><ele>906.0</ele><time>2026-04-18T11:18:38.28Z</time></trkpt><trkpt lat="44.1848" lon="11.3605417"><ele>916.6666666666667</ele><time>2026-04-18T11:18:39.279Z</time></trkpt><trkpt lat="44.1847533" lon="11.360805"><ele>927.3333333333334</ele><time>2026-04-18T11:18:40.279Z</time></trkpt><trkpt lat="44.1847233" lon="11.3610767"><ele>938.0</ele><time>2026-04-18T11:18:41.28Z</time></trkpt><trkpt lat="44.1847117" lon="11.36135"><ele>934.3333333333334</ele><time>2026-04-18T11:18:42.28Z</time></trkpt><trkpt lat="44.1847183" lon="11.3616183"><ele>930.6666666666667</ele><time>2026-04-18T11:18:43.28Z</time></trkpt><trkpt lat="44.1847467" lon="11.3618783"><ele>927.0</ele><time>2026-04-18T11:18:44.281Z</time></trkpt><trkpt lat="44.1847983" lon="11.36214"><ele>918.3333333333333</ele><time>2026-04-18T11:18:45.279Z</time></trkpt><trkpt lat="44.1848683" lon="11.3623983"><ele>909.6666666666666</ele><time>2026-04-18T11:18:46.28Z</time></trkpt><trkpt lat="44.1849367" lon="11.3626583"><ele>901.0</ele><time>2026-04-18T11:18:47.279Z</time></trkpt><trkpt lat="44.18501" lon="11.3629133"><ele>900.3333333333333</ele><time>2026-04-18T11:18:48.278Z</time></trkpt><trkpt lat="44.1851117" lon="11.363145"><ele>899.6666666666667</ele><time>2026-04-18T11:18:49.28Z</time></trkpt><trkpt lat="44.185235" lon="11.3633567"><ele>899.0</ele><time>2026-04-18T11:18:50.281Z</time></trkpt><trkpt lat="44.18538" lon="11.363545"><ele>899.0</ele><time>2026-04-18T11:18:51.28Z</time></trkpt><trkpt lat="44.1855417" lon="11.3636983"><ele>899.0</ele><time>2026-04-18T11:18:52.279Z</time></trkpt><trkpt lat="44.1857117" lon="11.3638167"><ele>899.0</ele><time>2026-04-18T11:18:53.279Z</time></trkpt><trkpt lat="44.1858733" lon="11.36392"><ele>898.25</ele><time>2026-04-18T11:18:54.279Z</time></trkpt><trkpt lat="44.1860117" lon="11.3640233"><ele>897.5</ele><time>2026-04-18T11:18:55.279Z</time></trkpt><trkpt lat="44.18612" lon="11.36413"><ele>896.75</ele><time>2026-04-18T11:18:56.279Z</time></trkpt><trkpt lat="44.18621" lon="11.3642517"><ele>896.0</ele><time>2026-04-18T11:18:57.28Z</time></trkpt><trkpt lat="44.18629" lon="11.3644083"><ele>896.0</ele><time>2026-04-18T11:18:58.28Z</time></trkpt><trkpt lat="44.1863717" lon="11.3645833"><ele>896.0</ele><time>2026-04-18T11:18:59.28Z</time></trkpt><trkpt lat="44.1864567" lon="11.36477"><ele>896.0</ele><time>2026-04-18T11:19:00.28Z</time></trkpt><trkpt lat="44.186545" lon="11.364955"><ele>895.5</ele><time>2026-04-18T11:19:01.28Z</time></trkpt><trkpt lat="44.1866333" lon="11.365125"><ele>895.0</ele><time>2026-04-18T11:19:02.28Z</time></trkpt><trkpt lat="44.1867333" lon="11.3652583"><ele>894.5</ele><time>2026-04-18T11:19:03.279Z</time></trkpt><trkpt lat="44.1868517" lon="11.3653467"><ele>894.0</ele><time>2026-04-18T11:19:04.279Z</time></trkpt><trkpt lat="44.1869917" lon="11.3653817"><ele>894.0</ele><time>2026-04-18T11:19:05.279Z</time></trkpt><trkpt lat="44.1871383" lon="11.3653533"><ele>894.0</ele><time>2026-04-18T11:19:06.281Z</time></trkpt><trkpt lat="44.187275" lon="11.3653267"><ele>894.0</ele><time>2026-04-18T11:19:07.279Z</time></trkpt><trkpt lat="44.1874033" lon="11.3653333"><ele>894.0</ele><time>2026-04-18T11:19:08.28Z</time></trkpt><trkpt lat="44.187515" lon="11.3653917"><ele>894.25</ele><time>2026-04-18T11:19:09.28Z</time></trkpt><trkpt lat="44.1876033" lon="11.3655017"><ele>894.5</ele><time>2026-04-18T11:19:10.279Z</time></trkpt><trkpt lat="44.1876733" lon="11.3656533"><ele>894.75</ele><time>2026-04-18T11:19:11.279Z</time></trkpt><trkpt lat="44.1877267" lon="11.365845"><ele>895.0</ele><time>2026-04-18T11:19:12.28Z</time></trkpt><trkpt lat="44.1877783" lon="11.3660567"><ele>895.0</ele><time>2026-04-18T11:19:13.281Z</time></trkpt><trkpt lat="44.187835" lon="11.36626"><ele>895.0</ele><time>2026-04-18T11:19:14.279Z</time></trkpt><trkpt lat="44.1879167" lon="11.366445"><ele>895.0</ele><time>2026-04-18T11:19:15.28Z</time></trkpt><trkpt lat="44.1880267" lon="11.366605"><ele>892.0</ele><time>2026-04-18T11:19:16.28Z</time></trkpt><trkpt lat="44.1881583" lon="11.36674"><ele>889.0</ele><time>2026-04-18T11:19:17.28Z</time></trkpt><trkpt lat="44.1883" lon="11.366845"><ele>886.0</ele><time>2026-04-18T11:19:18.281Z</time></trkpt><trkpt lat="44.1884283" lon="11.366945"><ele>886.0</ele><time>2026-04-18T11:19:19.281Z</time></trkpt><trkpt lat="44.1885383" lon="11.3670683"><ele>886.0</ele><time>2026-04-18T11:19:20.281Z</time></trkpt><trkpt lat="44.188625" lon="11.36722"><ele>886.0</ele><time>2026-04-18T11:19:21.28Z</time></trkpt><trkpt lat="44.1887083" lon="11.3673867"><ele>886.0</ele><time>2026-04-18T11:19:22.28Z</time></trkpt><trkpt lat="44.1888" lon="11.3675483"><ele>885.3333333333333</ele><time>2026-04-18T11:19:23.281Z</time></trkpt><trkpt lat="44.1889117" lon="11.367705"><ele>884.6666666666667</ele><time>2026-04-18T11:19:24.281Z</time></trkpt><trkpt lat="44.18904" lon="11.36785"><ele>884.0</ele><time>2026-04-18T11:19:25.279Z</time></trkpt><trkpt lat="44.1891783" lon="11.3679933"><ele>884.3333333333334</ele><time>2026-04-18T11:19:26.279Z</time></trkpt><trkpt lat="44.1893217" lon="11.3681433"><ele>884.6666666666667</ele><time>2026-04-18T11:19:27.28Z</time></trkpt><trkpt lat="44.1894633" lon="11.3682967"><ele>885.0</ele><time>2026-04-18T11:19:28.279Z</time></trkpt><trkpt lat="44.1896083" lon="11.3684583"><ele>885.0</ele><time>2026-04-18T11:19:29.28Z</time></trkpt><trkpt lat="44.1897517" lon="11.3686267"><ele>885.0</ele><time>2026-04-18T11:19:30.278Z</time></trkpt><trkpt lat="44.189885" lon="11.3688167"><ele>885.0</ele><time>2026-04-18T11:19:31.279Z</time></trkpt><trkpt lat="44.189995" lon="11.369035"><ele>884.6666666666667</ele><time>2026-04-18T11:19:32.281Z</time></trkpt><trkpt lat="44.19008" lon="11.3692683"><ele>884.3333333333334</ele><time>2026-04-18T11:19:33.279Z</time></trkpt><trkpt lat="44.1901483" lon="11.3695133"><ele>884.0</ele><time>2026-04-18T11:19:34.279Z</time></trkpt><trkpt lat="44.1902133" lon="11.3697467"><ele>884.0</ele><time>2026-04-18T11:19:35.279Z</time></trkpt><trkpt lat="44.1902767" lon="11.3699633"><ele>884.0</ele><time>2026-04-18T11:19:36.28Z</time></trkpt><trkpt lat="44.1903617" lon="11.3701667"><ele>884.0</ele><time>2026-04-18T11:19:37.279Z</time></trkpt><trkpt lat="44.1904767" lon="11.3703483"><ele>884.0</ele><time>2026-04-18T11:19:38.28Z</time></trkpt><trkpt lat="44.1906067" lon="11.3705233"><ele>884.0</ele><time>2026-04-18T11:19:39.281Z</time></trkpt><trkpt lat="44.1907267" lon="11.3707217"><ele>884.0</ele><time>2026-04-18T11:19:40.281Z</time></trkpt><trkpt lat="44.1908117" lon="11.370965"><ele>883.6666666666667</ele><time>2026-04-18T11:19:41.279Z</time></trkpt><trkpt lat="44.1908733" lon="11.3712317"><ele>883.3333333333333</ele><time>2026-04-18T11:19:42.28Z</time></trkpt><trkpt lat="44.1909217" lon="11.3715183"><ele>883.0</ele><time>2026-04-18T11:19:43.281Z</time></trkpt><trkpt lat="44.19098" lon="11.3718067"><ele>883.0</ele><time>2026-04-18T11:19:44.28Z</time></trkpt><trkpt lat="44.1910567" lon="11.372095"><ele>883.0</ele><time>2026-04-18T11:19:45.28Z</time></trkpt><trkpt lat="44.1911533" lon="11.37238"><ele>883.0</ele><time>2026-04-18T11:19:46.28Z</time></trkpt><trkpt lat="44.1912567" lon="11.3726567"><ele>881.6666666666666</ele><time>2026-04-18T11:19:47.278Z</time></trkpt><trkpt lat="44.1913583" lon="11.3729067"><ele>880.3333333333333</ele><time>2026-04-18T11:19:48.28Z</time></trkpt><trkpt lat="44.191465" lon="11.37315"><ele>879.0</ele><time>2026-04-18T11:19:49.28Z</time></trkpt><trkpt lat="44.191585" lon="11.37338"><ele>881.6666666666667</ele><time>2026-04-18T11:19:50.28Z</time></trkpt><trkpt lat="44.19172" lon="11.3735917"><ele>884.3333333333334</ele><time>2026-04-18T11:19:51.28Z</time></trkpt><trkpt lat="44.19185" lon="11.37381"><ele>887.0</ele><time>2026-04-18T11:19:52.28Z</time></trkpt><trkpt lat="44.1919533" lon="11.37406"><ele>887.0</ele><time>2026-04-18T11:19:53.28Z</time></trkpt><trkpt lat="44.1920267" lon="11.37434"><ele>887.0</ele><time>2026-04-18T11:19:54.279Z</time></trkpt><trkpt lat="44.19208" lon="11.3746267"><ele>887.0</ele><time>2026-04-18T11:19:55.28Z</time></trkpt><trkpt lat="44.1921383" lon="11.3749"><ele>887.0</ele><time>2026-04-18T11:19:56.28Z</time></trkpt><trkpt lat="44.1922217" lon="11.3751567"><ele>887.0</ele><time>2026-04-18T11:19:57.281Z</time></trkpt><trkpt lat="44.1923317" lon="11.3754067"><ele>887.0</ele><time>2026-04-18T11:19:58.281Z</time></trkpt><trkpt lat="44.192445" lon="11.37565"><ele>887.0</ele><time>2026-04-18T11:19:59.28Z</time></trkpt><trkpt lat="44.1925483" lon="11.3758767"><ele>887.0</ele><time>2026-04-18T11:20:00.279Z</time></trkpt><trkpt lat="44.1926383" lon="11.3760783"><ele>887.0</ele><time>2026-04-18T11:20:01.284Z</time></trkpt><trkpt lat="44.19271" lon="11.376265"><ele>886.25</ele><time>2026-04-18T11:20:02.281Z</time></trkpt><trkpt lat="44.1927467" lon="11.3764567"><ele>885.5</ele><time>2026-04-18T11:20:03.281Z</time></trkpt><trkpt lat="44.192735" lon="11.3766633"><ele>884.75</ele><time>2026-04-18T11:20:04.28Z</time></trkpt><trkpt lat="44.1926883" lon="11.3768667"><ele>884.0</ele><time>2026-04-18T11:20:05.28Z</time></trkpt><trkpt lat="44.1926233" lon="11.3770567"><ele>884.5</ele><time>2026-04-18T11:20:06.281Z</time></trkpt><trkpt lat="44.1925733" lon="11.3772333"><ele>885.0</ele><time>2026-04-18T11:20:07.28Z</time></trkpt><trkpt lat="44.19255" lon="11.3774033"><ele>885.5</ele><time>2026-04-18T11:20:08.282Z</time></trkpt><trkpt lat="44.192565" lon="11.3775783"><ele>886.0</ele><time>2026-04-18T11:20:09.28Z</time></trkpt><trkpt lat="44.1926267" lon="11.377755"><ele>886.0</ele><time>2026-04-18T11:20:10.28Z</time></trkpt><trkpt lat="44.1927267" lon="11.3779317"><ele>886.0</ele><time>2026-04-18T11:20:11.281Z</time></trkpt><trkpt lat="44.1928467" lon="11.3781133"><ele>886.0</ele><time>2026-04-18T11:20:12.28Z</time></trkpt><trkpt lat="44.1929617" lon="11.37831"><ele>883.0</ele><time>2026-04-18T11:20:13.281Z</time></trkpt><trkpt lat="44.1930517" lon="11.3785217"><ele>880.0</ele><time>2026-04-18T11:20:14.28Z</time></trkpt><trkpt lat="44.1931117" lon="11.37873"><ele>877.0</ele><time>2026-04-18T11:20:15.279Z</time></trkpt><trkpt lat="44.1931617" lon="11.3789317"><ele>879.0</ele><time>2026-04-18T11:20:16.281Z</time></trkpt><trkpt lat="44.19323" lon="11.379105"><ele>881.0</ele><time>2026-04-18T11:20:17.28Z</time></trkpt><trkpt lat="44.1933333" lon="11.3792433"><ele>883.0</ele><time>2026-04-18T11:20:18.281Z</time></trkpt><trkpt lat="44.1934667" lon="11.37934"><ele>885.0</ele><time>2026-04-18T11:20:19.281Z</time></trkpt><trkpt lat="44.1936267" lon="11.3794233"><ele>885.0</ele><time>2026-04-18T11:20:20.28Z</time></trkpt><trkpt lat="44.1937983" lon="11.37951"><ele>885.0</ele><time>2026-04-18T11:20:21.28Z</time></trkpt><trkpt lat="44.1939767" lon="11.3796"><ele>885.0</ele><time>2026-04-18T11:20:22.28Z</time></trkpt><trkpt lat="44.19416" lon="11.37969"><ele>883.0</ele><time>2026-04-18T11:20:23.28Z</time></trkpt><trkpt lat="44.1943483" lon="11.379785"><ele>881.0</ele><time>2026-04-18T11:20:24.28Z</time></trkpt><trkpt lat="44.19454" lon="11.3798783"><ele>879.0</ele><time>2026-04-18T11:20:25.28Z</time></trkpt><trkpt lat="44.1947317" lon="11.3799717"><ele>880.6666666666667</ele><time>2026-04-18T11:20:26.281Z</time></trkpt><trkpt lat="44.1949167" lon="11.3800717"><ele>882.3333333333334</ele><time>2026-04-18T11:20:27.279Z</time></trkpt><trkpt lat="44.1950917" lon="11.38018"><ele>884.0</ele><time>2026-04-18T11:20:28.279Z</time></trkpt><trkpt lat="44.19526" lon="11.3803017"><ele>884.0</ele><time>2026-04-18T11:20:29.28Z</time></trkpt><trkpt lat="44.19542" lon="11.3804517"><ele>884.0</ele><time>2026-04-18T11:20:30.28Z</time></trkpt><trkpt lat="44.1955767" lon="11.3806117"><ele>884.0</ele><time>2026-04-18T11:20:31.279Z</time></trkpt><trkpt lat="44.195725" lon="11.3807717"><ele>882.3333333333334</ele><time>2026-04-18T11:20:32.281Z</time></trkpt><trkpt lat="44.1958683" lon="11.3809267"><ele>880.6666666666667</ele><time>2026-04-18T11:20:33.279Z</time></trkpt><trkpt lat="44.1959967" lon="11.3810783"><ele>879.0</ele><time>2026-04-18T11:20:34.281Z</time></trkpt><trkpt lat="44.1961067" lon="11.38124"><ele>877.25</ele><time>2026-04-18T11:20:35.28Z</time></trkpt><trkpt lat="44.1961867" lon="11.3814167"><ele>875.5</ele><time>2026-04-18T11:20:36.281Z</time></trkpt><trkpt lat="44.196235" lon="11.3815983"><ele>873.75</ele><time>2026-04-18T11:20:37.28Z</time></trkpt><trkpt lat="44.1962667" lon="11.3817817"><ele>872.0</ele><time>2026-04-18T11:20:38.281Z</time></trkpt><trkpt lat="44.1962917" lon="11.381955"><ele>872.0</ele><time>2026-04-18T11:20:39.279Z</time></trkpt><trkpt lat="44.1963167" lon="11.3821133"><ele>872.0</ele><time>2026-04-18T11:20:40.28Z</time></trkpt><trkpt lat="44.1963433" lon="11.3822617"><ele>872.0</ele><time>2026-04-18T11:20:41.28Z</time></trkpt><trkpt lat="44.196375" lon="11.3823983"><ele>872.0</ele><time>2026-04-18T11:20:42.281Z</time></trkpt><trkpt lat="44.1964083" lon="11.3825317"><ele>872.0</ele><time>2026-04-18T11:20:43.28Z</time></trkpt><trkpt lat="44.19645" lon="11.3826633"><ele>872.0</ele><time>2026-04-18T11:20:44.281Z</time></trkpt><trkpt lat="44.1965083" lon="11.382785"><ele>872.0</ele><time>2026-04-18T11:20:45.281Z</time></trkpt><trkpt lat="44.1965883" lon="11.38289"><ele>872.0</ele><time>2026-04-18T11:20:46.28Z</time></trkpt><trkpt lat="44.196685" lon="11.382985"><ele>872.0</ele><time>2026-04-18T11:20:47.281Z</time></trkpt><trkpt lat="44.19679" lon="11.3830717"><ele>872.0</ele><time>2026-04-18T11:20:48.281Z</time></trkpt><trkpt lat="44.1969033" lon="11.3831667"><ele>872.0</ele><time>2026-04-18T11:20:49.28Z</time></trkpt><trkpt lat="44.19701" lon="11.3832817"><ele>872.0</ele><time>2026-04-18T11:20:50.281Z</time></trkpt><trkpt lat="44.197115" lon="11.38342"><ele>872.0</ele><time>2026-04-18T11:20:51.28Z</time></trkpt><trkpt lat="44.1972133" lon="11.383575"><ele>872.0</ele><time>2026-04-18T11:20:52.28Z</time></trkpt><trkpt lat="44.1973083" lon="11.38373"><ele>872.0</ele><time>2026-04-18T11:20:53.279Z</time></trkpt><trkpt lat="44.1974017" lon="11.383875"><ele>872.0</ele><time>2026-04-18T11:20:54.279Z</time></trkpt><trkpt lat="44.1975017" lon="11.3839933"><ele>872.0</ele><time>2026-04-18T11:20:55.281Z</time></trkpt><trkpt lat="44.19761" lon="11.3840717"><ele>871.5</ele><time>2026-04-18T11:20:56.28Z</time></trkpt><trkpt lat="44.1977333" lon="11.3841117"><ele>871.0</ele><time>2026-04-18T11:20:57.281Z</time></trkpt><trkpt lat="44.1978667" lon="11.3841133"><ele>870.5</ele><time>2026-04-18T11:20:58.28Z</time></trkpt><trkpt lat="44.198005" lon="11.3840817"><ele>870.0</ele><time>2026-04-18T11:20:59.279Z</time></trkpt><trkpt lat="44.1981517" lon="11.3840417"><ele>869.6666666666667</ele><time>2026-04-18T11:21:00.279Z</time></trkpt><trkpt lat="44.1983083" lon="11.3840133"><ele>869.3333333333334</ele><time>2026-04-18T11:21:01.279Z</time></trkpt><trkpt lat="44.1984683" lon="11.3839933"><ele>869.0</ele><time>2026-04-18T11:21:02.281Z</time></trkpt><trkpt lat="44.198625" lon="11.3840067"><ele>869.0</ele><time>2026-04-18T11:21:03.28Z</time></trkpt><trkpt lat="44.1987767" lon="11.3840733"><ele>869.0</ele><time>2026-04-18T11:21:04.279Z</time></trkpt><trkpt lat="44.1989217" lon="11.3841817"><ele>869.0</ele><time>2026-04-18T11:21:05.28Z</time></trkpt><trkpt lat="44.1990633" lon="11.384325"><ele>868.3333333333334</ele><time>2026-04-18T11:21:06.281Z</time></trkpt><trkpt lat="44.1992033" lon="11.3844967"><ele>867.6666666666667</ele><time>2026-04-18T11:21:07.28Z</time></trkpt><trkpt lat="44.199335" lon="11.38469"><ele>867.0</ele><time>2026-04-18T11:21:08.279Z</time></trkpt><trkpt lat="44.1994517" lon="11.38491"><ele>867.0</ele><time>2026-04-18T11:21:09.28Z</time></trkpt><trkpt lat="44.1995467" lon="11.385155"><ele>867.0</ele><time>2026-04-18T11:21:10.279Z</time></trkpt><trkpt lat="44.19962" lon="11.3854183"><ele>867.0</ele><time>2026-04-18T11:21:11.279Z</time></trkpt><trkpt lat="44.1996767" lon="11.3856733"><ele>867.6666666666667</ele><time>2026-04-18T11:21:12.279Z</time></trkpt><trkpt lat="44.1997283" lon="11.3859167"><ele>868.3333333333334</ele><time>2026-04-18T11:21:13.279Z</time></trkpt><trkpt lat="44.1997833" lon="11.3861433"><ele>869.0</ele><time>2026-04-18T11:21:14.281Z</time></trkpt><trkpt lat="44.19986" lon="11.3863533"><ele>869.0</ele><time>2026-04-18T11:21:15.279Z</time></trkpt><trkpt lat="44.1999567" lon="11.386545"><ele>869.0</ele><time>2026-04-18T11:21:16.281Z</time></trkpt><trkpt lat="44.2000633" lon="11.38669"><ele>869.0</ele><time>2026-04-18T11:21:17.28Z</time></trkpt><trkpt lat="44.20018" lon="11.386775"><ele>869.0</ele><time>2026-04-18T11:21:18.28Z</time></trkpt><trkpt lat="44.20032" lon="11.386815"><ele>869.0</ele><time>2026-04-18T11:21:19.279Z</time></trkpt><trkpt lat="44.2004817" lon="11.3867967"><ele>869.0</ele><time>2026-04-18T11:21:20.281Z</time></trkpt><trkpt lat="44.2006567" lon="11.3867783"><ele>869.0</ele><time>2026-04-18T11:21:21.281Z</time></trkpt><trkpt lat="44.2008217" lon="11.3868183"><ele>868.6666666666667</ele><time>2026-04-18T11:21:22.278Z</time></trkpt><trkpt lat="44.2009817" lon="11.3869217"><ele>868.3333333333333</ele><time>2026-04-18T11:21:23.279Z</time></trkpt><trkpt lat="44.20114" lon="11.3870683"><ele>868.0</ele><time>2026-04-18T11:21:24.281Z</time></trkpt><trkpt lat="44.2013033" lon="11.38724"><ele>868.0</ele><time>2026-04-18T11:21:25.281Z</time></trkpt><trkpt lat="44.2014667" lon="11.3874133"><ele>868.0</ele><time>2026-04-18T11:21:26.281Z</time></trkpt><trkpt lat="44.2016183" lon="11.38759"><ele>868.0</ele><time>2026-04-18T11:21:27.281Z</time></trkpt><trkpt lat="44.20175" lon="11.387785"><ele>867.0</ele><time>2026-04-18T11:21:28.28Z</time></trkpt><trkpt lat="44.20185" lon="11.3880117"><ele>866.0</ele><time>2026-04-18T11:21:29.28Z</time></trkpt><trkpt lat="44.20192" lon="11.38827"><ele>865.0</ele><time>2026-04-18T11:21:30.281Z</time></trkpt><trkpt lat="44.201975" lon="11.3885517"><ele>865.0</ele><time>2026-04-18T11:21:31.279Z</time></trkpt><trkpt lat="44.2020433" lon="11.3888317"><ele>865.0</ele><time>2026-04-18T11:21:32.28Z</time></trkpt><trkpt lat="44.202125" lon="11.3890983"><ele>865.0</ele><time>2026-04-18T11:21:33.281Z</time></trkpt><trkpt lat="44.2022217" lon="11.3893317"><ele>862.0</ele><time>2026-04-18T11:21:34.281Z</time></trkpt><trkpt lat="44.2023" lon="11.3895533"><ele>859.0</ele><time>2026-04-18T11:21:35.279Z</time></trkpt><trkpt lat="44.2023283" lon="11.38978"><ele>856.0</ele><time>2026-04-18T11:21:36.28Z</time></trkpt><trkpt lat="44.20231" lon="11.3900183"><ele>853.6666666666666</ele><time>2026-04-18T11:21:37.28Z</time></trkpt><trkpt lat="44.2022567" lon="11.3902683"><ele>851.3333333333333</ele><time>2026-04-18T11:21:38.281Z</time></trkpt><trkpt lat="44.2021867" lon="11.390535"><ele>849.0</ele><time>2026-04-18T11:21:39.28Z</time></trkpt><trkpt lat="44.2021133" lon="11.3908017"><ele>849.0</ele><time>2026-04-18T11:21:40.279Z</time></trkpt><trkpt lat="44.2020483" lon="11.391055"><ele>849.0</ele><time>2026-04-18T11:21:41.279Z</time></trkpt><trkpt lat="44.2020033" lon="11.3913067"><ele>849.0</ele><time>2026-04-18T11:21:42.28Z</time></trkpt><trkpt lat="44.201995" lon="11.3915783"><ele>847.3333333333333</ele><time>2026-04-18T11:21:43.28Z</time></trkpt><trkpt lat="44.2020267" lon="11.391865"><ele>845.6666666666666</ele><time>2026-04-18T11:21:44.281Z</time></trkpt><trkpt lat="44.2020667" lon="11.3921517"><ele>844.0</ele><time>2026-04-18T11:21:45.28Z</time></trkpt><trkpt lat="44.2021167" lon="11.39242"><ele>844.6666666666666</ele><time>2026-04-18T11:21:46.281Z</time></trkpt><trkpt lat="44.2021917" lon="11.3926667"><ele>845.3333333333333</ele><time>2026-04-18T11:21:47.281Z</time></trkpt><trkpt lat="44.2022917" lon="11.3928783"><ele>846.0</ele><time>2026-04-18T11:21:48.28Z</time></trkpt><trkpt lat="44.20239" lon="11.39306"><ele>846.0</ele><time>2026-04-18T11:21:49.281Z</time></trkpt><trkpt lat="44.2024567" lon="11.393245"><ele>846.0</ele><time>2026-04-18T11:21:50.28Z</time></trkpt><trkpt lat="44.2024817" lon="11.39346"><ele>846.0</ele><time>2026-04-18T11:21:51.281Z</time></trkpt><trkpt lat="44.2024583" lon="11.3937017"><ele>848.0</ele><time>2026-04-18T11:21:52.28Z</time></trkpt><trkpt lat="44.2024017" lon="11.3939583"><ele>850.0</ele><time>2026-04-18T11:21:53.281Z</time></trkpt><trkpt lat="44.2023183" lon="11.3942167"><ele>852.0</ele><time>2026-04-18T11:21:54.281Z</time></trkpt><trkpt lat="44.2022083" lon="11.3944583"><ele>845.6666666666667</ele><time>2026-04-18T11:21:55.28Z</time></trkpt><trkpt lat="44.2020817" lon="11.3946817"><ele>839.3333333333334</ele><time>2026-04-18T11:21:56.28Z</time></trkpt><trkpt lat="44.2019467" lon="11.394875"><ele>833.0</ele><time>2026-04-18T11:21:57.281Z</time></trkpt><trkpt lat="44.2018067" lon="11.395065"><ele>833.0</ele><time>2026-04-18T11:21:58.28Z</time></trkpt><trkpt lat="44.20168" lon="11.3952817"><ele>833.0</ele><time>2026-04-18T11:21:59.281Z</time></trkpt><trkpt lat="44.20157" lon="11.3955133"><ele>833.0</ele><time>2026-04-18T11:22:00.281Z</time></trkpt><trkpt lat="44.20147" lon="11.395735"><ele>829.6666666666667</ele><time>2026-04-18T11:22:01.281Z</time></trkpt><trkpt lat="44.2013733" lon="11.3959383"><ele>826.3333333333333</ele><time>2026-04-18T11:22:02.28Z</time></trkpt><trkpt lat="44.20126" lon="11.3961183"><ele>823.0</ele><time>2026-04-18T11:22:03.281Z</time></trkpt><trkpt lat="44.2011033" lon="11.396265"><ele>820.0</ele><time>2026-04-18T11:22:04.279Z</time></trkpt><trkpt lat="44.2009267" lon="11.3963783"><ele>817.0</ele><time>2026-04-18T11:22:05.281Z</time></trkpt><trkpt lat="44.2007517" lon="11.3964917"><ele>814.0</ele><time>2026-04-18T11:22:06.281Z</time></trkpt><trkpt lat="44.2005783" lon="11.3966183"><ele>814.0</ele><time>2026-04-18T11:22:07.279Z</time></trkpt><trkpt lat="44.200425" lon="11.3967667"><ele>814.0</ele><time>2026-04-18T11:22:08.281Z</time></trkpt><trkpt lat="44.200295" lon="11.3969167"><ele>814.0</ele><time>2026-04-18T11:22:09.279Z</time></trkpt><trkpt lat="44.2002017" lon="11.397055"><ele>814.25</ele><time>2026-04-18T11:22:10.281Z</time></trkpt><trkpt lat="44.2001417" lon="11.3972067"><ele>814.5</ele><time>2026-04-18T11:22:11.281Z</time></trkpt><trkpt lat="44.2001133" lon="11.3973667"><ele>814.75</ele><time>2026-04-18T11:22:12.281Z</time></trkpt><trkpt lat="44.2001233" lon="11.3975333"><ele>815.0</ele><time>2026-04-18T11:22:13.281Z</time></trkpt><trkpt lat="44.200165" lon="11.3977083"><ele>815.0</ele><time>2026-04-18T11:22:14.279Z</time></trkpt><trkpt lat="44.2002417" lon="11.3979"><ele>815.0</ele><time>2026-04-18T11:22:15.28Z</time></trkpt><trkpt lat="44.20033" lon="11.39811"><ele>815.0</ele><time>2026-04-18T11:22:16.281Z</time></trkpt><trkpt lat="44.20043" lon="11.39833"><ele>812.3333333333334</ele><time>2026-04-18T11:22:17.281Z</time></trkpt><trkpt lat="44.2005333" lon="11.3985467"><ele>809.6666666666667</ele><time>2026-04-18T11:22:18.28Z</time></trkpt><trkpt lat="44.2006517" lon="11.3987533"><ele>807.0</ele><time>2026-04-18T11:22:19.28Z</time></trkpt><trkpt lat="44.2007867" lon="11.3989467"><ele>807.0</ele><time>2026-04-18T11:22:20.281Z</time></trkpt><trkpt lat="44.2009383" lon="11.39911"><ele>807.0</ele><time>2026-04-18T11:22:21.28Z</time></trkpt><trkpt lat="44.201095" lon="11.39925"><ele>807.0</ele><time>2026-04-18T11:22:22.28Z</time></trkpt><trkpt lat="44.2012383" lon="11.3993767"><ele>807.0</ele><time>2026-04-18T11:22:23.281Z</time></trkpt><trkpt lat="44.20135" lon="11.3995067"><ele>807.0</ele><time>2026-04-18T11:22:24.279Z</time></trkpt><trkpt lat="44.20143" lon="11.399645"><ele>807.0</ele><time>2026-04-18T11:22:25.28Z</time></trkpt><trkpt lat="44.2014683" lon="11.3998217"><ele>807.0</ele><time>2026-04-18T11:22:26.28Z</time></trkpt><trkpt lat="44.20148" lon="11.4000317"><ele>804.6666666666667</ele><time>2026-04-18T11:22:27.28Z</time></trkpt><trkpt lat="44.2014733" lon="11.4002733"><ele>802.3333333333334</ele><time>2026-04-18T11:22:28.279Z</time></trkpt><trkpt lat="44.2014567" lon="11.40053"><ele>800.0</ele><time>2026-04-18T11:22:29.279Z</time></trkpt><trkpt lat="44.2014333" lon="11.4008"><ele>799.0</ele><time>2026-04-18T11:22:30.279Z</time></trkpt><trkpt lat="44.2013967" lon="11.4010767"><ele>798.0</ele><time>2026-04-18T11:22:31.281Z</time></trkpt><trkpt lat="44.201345" lon="11.4013633"><ele>797.0</ele><time>2026-04-18T11:22:32.28Z</time></trkpt><trkpt lat="44.2012833" lon="11.4016517"><ele>796.3333333333334</ele><time>2026-04-18T11:22:33.279Z</time></trkpt><trkpt lat="44.2012217" lon="11.4019317"><ele>795.6666666666667</ele><time>2026-04-18T11:22:34.281Z</time></trkpt><trkpt lat="44.2011633" lon="11.4022017"><ele>795.0</ele><time>2026-04-18T11:22:35.281Z</time></trkpt><trkpt lat="44.20111" lon="11.4024617"><ele>792.3333333333333</ele><time>2026-04-18T11:22:36.281Z</time></trkpt><trkpt lat="44.2010467" lon="11.40271"><ele>789.6666666666666</ele><time>2026-04-18T11:22:37.28Z</time></trkpt><trkpt lat="44.2009717" lon="11.402945"><ele>787.0</ele><time>2026-04-18T11:22:38.28Z</time></trkpt><trkpt lat="44.2008783" lon="11.4031567"><ele>784.6666666666666</ele><time>2026-04-18T11:22:39.281Z</time></trkpt><trkpt lat="44.2007767" lon="11.4033417"><ele>782.3333333333333</ele><time>2026-04-18T11:22:40.281Z</time></trkpt><trkpt lat="44.200675" lon="11.4035117"><ele>780.0</ele><time>2026-04-18T11:22:41.281Z</time></trkpt><trkpt lat="44.2005667" lon="11.4036733"><ele>780.0</ele><time>2026-04-18T11:22:42.28Z</time></trkpt><trkpt lat="44.2004483" lon="11.4038233"><ele>780.0</ele><time>2026-04-18T11:22:43.281Z</time></trkpt><trkpt lat="44.2003083" lon="11.4039367"><ele>780.0</ele><time>2026-04-18T11:22:44.281Z</time></trkpt><trkpt lat="44.2001467" lon="11.4040067"><ele>775.6666666666666</ele><time>2026-04-18T11:22:45.279Z</time></trkpt><trkpt lat="44.199965" lon="11.4040417"><ele>771.3333333333333</ele><time>2026-04-18T11:22:46.281Z</time></trkpt><trkpt lat="44.1997767" lon="11.4040567"><ele>767.0</ele><time>2026-04-18T11:22:47.28Z</time></trkpt><trkpt lat="44.1995983" lon="11.4040833"><ele>765.6666666666666</ele><time>2026-04-18T11:22:48.28Z</time></trkpt><trkpt lat="44.199425" lon="11.40415"><ele>764.3333333333334</ele><time>2026-04-18T11:22:49.282Z</time></trkpt><trkpt lat="44.1992683" lon="11.4042667"><ele>763.0</ele><time>2026-04-18T11:22:50.281Z</time></trkpt><trkpt lat="44.1991367" lon="11.404435"><ele>763.0</ele><time>2026-04-18T11:22:51.282Z</time></trkpt><trkpt lat="44.1990267" lon="11.404645"><ele>763.0</ele><time>2026-04-18T11:22:52.28Z</time></trkpt><trkpt lat="44.1989367" lon="11.404885"><ele>763.0</ele><time>2026-04-18T11:22:53.281Z</time></trkpt><trkpt lat="44.19885" lon="11.40514"><ele>760.6666666666667</ele><time>2026-04-18T11:22:54.281Z</time></trkpt><trkpt lat="44.19877" lon="11.4053917"><ele>758.3333333333334</ele><time>2026-04-18T11:22:55.281Z</time></trkpt><trkpt lat="44.19869" lon="11.4056333"><ele>756.0</ele><time>2026-04-18T11:22:56.28Z</time></trkpt><trkpt lat="44.1986167" lon="11.4058667"><ele>754.6666666666666</ele><time>2026-04-18T11:22:57.28Z</time></trkpt><trkpt lat="44.1985683" lon="11.4061"><ele>753.3333333333333</ele><time>2026-04-18T11:22:58.281Z</time></trkpt><trkpt lat="44.1985517" lon="11.4063433"><ele>752.0</ele><time>2026-04-18T11:22:59.282Z</time></trkpt><trkpt lat="44.1985633" lon="11.4065967"><ele>750.0</ele><time>2026-04-18T11:23:00.28Z</time></trkpt><trkpt lat="44.19859" lon="11.4068583"><ele>748.0</ele><time>2026-04-18T11:23:01.281Z</time></trkpt><trkpt lat="44.198605" lon="11.4071367"><ele>746.0</ele><time>2026-04-18T11:23:02.28Z</time></trkpt><trkpt lat="44.1986033" lon="11.4074217"><ele>743.6666666666666</ele><time>2026-04-18T11:23:03.28Z</time></trkpt><trkpt lat="44.198585" lon="11.4077033"><ele>741.3333333333334</ele><time>2026-04-18T11:23:04.28Z</time></trkpt><trkpt lat="44.1985633" lon="11.40799"><ele>739.0</ele><time>2026-04-18T11:23:05.281Z</time></trkpt><trkpt lat="44.19854" lon="11.4082717"><ele>736.3333333333334</ele><time>2026-04-18T11:23:06.279Z</time></trkpt><trkpt lat="44.1985217" lon="11.40854"><ele>733.6666666666666</ele><time>2026-04-18T11:23:07.28Z</time></trkpt><trkpt lat="44.1985033" lon="11.40881"><ele>731.0</ele><time>2026-04-18T11:23:08.281Z</time></trkpt><trkpt lat="44.1984667" lon="11.4090783"><ele>728.6666666666666</ele><time>2026-04-18T11:23:09.28Z</time></trkpt><trkpt lat="44.1984167" lon="11.40934"><ele>726.3333333333334</ele><time>2026-04-18T11:23:10.28Z</time></trkpt><trkpt lat="44.1983567" lon="11.4095883"><ele>724.0</ele><time>2026-04-18T11:23:11.281Z</time></trkpt><trkpt lat="44.1983033" lon="11.40983"><ele>722.3333333333334</ele><time>2026-04-18T11:23:12.28Z</time></trkpt><trkpt lat="44.19827" lon="11.4100583"><ele>720.6666666666666</ele><time>2026-04-18T11:23:13.28Z</time></trkpt><trkpt lat="44.1982833" lon="11.41028"><ele>719.0</ele><time>2026-04-18T11:23:14.281Z</time></trkpt><trkpt lat="44.19833" lon="11.4105033"><ele>715.6666666666666</ele><time>2026-04-18T11:23:15.28Z</time></trkpt><trkpt lat="44.1984" lon="11.4107417"><ele>712.3333333333334</ele><time>2026-04-18T11:23:16.28Z</time></trkpt><trkpt lat="44.1984733" lon="11.4109983"><ele>709.0</ele><time>2026-04-18T11:23:17.283Z</time></trkpt><trkpt lat="44.1985583" lon="11.41126"><ele>709.3333333333334</ele><time>2026-04-18T11:23:18.281Z</time></trkpt><trkpt lat="44.19865" lon="11.4115167"><ele>709.6666666666666</ele><time>2026-04-18T11:23:19.281Z</time></trkpt><trkpt lat="44.1987417" lon="11.4117567"><ele>710.0</ele><time>2026-04-18T11:23:20.28Z</time></trkpt><trkpt lat="44.1988317" lon="11.411985"><ele>712.6666666666666</ele><time>2026-04-18T11:23:21.281Z</time></trkpt><trkpt lat="44.198905" lon="11.4122217"><ele>715.3333333333334</ele><time>2026-04-18T11:23:22.281Z</time></trkpt><trkpt lat="44.198955" lon="11.4124617"><ele>718.0</ele><time>2026-04-18T11:23:23.282Z</time></trkpt><trkpt lat="44.1989867" lon="11.4127033"><ele>709.6666666666667</ele><time>2026-04-18T11:23:24.281Z</time></trkpt><trkpt lat="44.1990233" lon="11.4129517"><ele>701.3333333333334</ele><time>2026-04-18T11:23:25.278Z</time></trkpt><trkpt lat="44.1990883" lon="11.413195"><ele>693.0</ele><time>2026-04-18T11:23:26.28Z</time></trkpt><trkpt lat="44.1991883" lon="11.4134267"><ele>693.0</ele><time>2026-04-18T11:23:27.28Z</time></trkpt><trkpt lat="44.1992967" lon="11.4136467"><ele>693.0</ele><time>2026-04-18T11:23:28.279Z</time></trkpt><trkpt lat="44.1994167" lon="11.4138467"><ele>693.0</ele><time>2026-04-18T11:23:29.28Z</time></trkpt><trkpt lat="44.1995567" lon="11.4140233"><ele>694.3333333333334</ele><time>2026-04-18T11:23:30.281Z</time></trkpt><trkpt lat="44.1997117" lon="11.414195"><ele>695.6666666666667</ele><time>2026-04-18T11:23:31.281Z</time></trkpt><trkpt lat="44.1998833" lon="11.4143333"><ele>697.0</ele><time>2026-04-18T11:23:32.281Z</time></trkpt><trkpt lat="44.200065" lon="11.4144633"><ele>692.0</ele><time>2026-04-18T11:23:33.281Z</time></trkpt><trkpt lat="44.20024" lon="11.4145983"><ele>687.0</ele><time>2026-04-18T11:23:34.279Z</time></trkpt><trkpt lat="44.2004083" lon="11.4147233"><ele>682.0</ele><time>2026-04-18T11:23:35.281Z</time></trkpt><trkpt lat="44.2005617" lon="11.4148367"><ele>679.0</ele><time>2026-04-18T11:23:36.28Z</time></trkpt><trkpt lat="44.2007083" lon="11.4149133"><ele>676.0</ele><time>2026-04-18T11:23:37.281Z</time></trkpt><trkpt lat="44.2008567" lon="11.4149217"><ele>673.0</ele><time>2026-04-18T11:23:38.282Z</time></trkpt><trkpt lat="44.2010083" lon="11.4148617"><ele>673.0</ele><time>2026-04-18T11:23:39.28Z</time></trkpt><trkpt lat="44.2011633" lon="11.41478"><ele>673.0</ele><time>2026-04-18T11:23:40.28Z</time></trkpt><trkpt lat="44.2013267" lon="11.4147167"><ele>673.0</ele><time>2026-04-18T11:23:41.281Z</time></trkpt><trkpt lat="44.2014983" lon="11.4147"><ele>671.0</ele><time>2026-04-18T11:23:42.28Z</time></trkpt><trkpt lat="44.2016767" lon="11.4147267"><ele>669.0</ele><time>2026-04-18T11:23:43.28Z</time></trkpt><trkpt lat="44.2018567" lon="11.4147883"><ele>667.0</ele><time>2026-04-18T11:23:44.281Z</time></trkpt><trkpt lat="44.2020383" lon="11.4148683"><ele>667.0</ele><time>2026-04-18T11:23:45.28Z</time></trkpt><trkpt lat="44.2022267" lon="11.414955"><ele>667.0</ele><time>2026-04-18T11:23:46.28Z</time></trkpt><trkpt lat="44.202405" lon="11.4150217"><ele>667.0</ele><time>2026-04-18T11:23:47.281Z</time></trkpt><trkpt lat="44.2025733" lon="11.4150817"><ele>664.25</ele><time>2026-04-18T11:23:48.28Z</time></trkpt><trkpt lat="44.2027283" lon="11.4151333"><ele>661.5</ele><time>2026-04-18T11:23:49.28Z</time></trkpt><trkpt lat="44.20286" lon="11.41518"><ele>658.75</ele><time>2026-04-18T11:23:50.281Z</time></trkpt><trkpt lat="44.2029717" lon="11.4152383"><ele>656.0</ele><time>2026-04-18T11:23:51.281Z</time></trkpt><trkpt lat="44.20307" lon="11.4153233"><ele>656.0</ele><time>2026-04-18T11:23:52.28Z</time></trkpt><trkpt lat="44.2031617" lon="11.4154167"><ele>656.0</ele><time>2026-04-18T11:23:53.28Z</time></trkpt><trkpt lat="44.2032533" lon="11.41551"><ele>656.0</ele><time>2026-04-18T11:23:54.28Z</time></trkpt><trkpt lat="44.203355" lon="11.4156017"><ele>656.0</ele><time>2026-04-18T11:23:55.281Z</time></trkpt><trkpt lat="44.2034733" lon="11.4156867"><ele>655.3333333333333</ele><time>2026-04-18T11:23:56.281Z</time></trkpt><trkpt lat="44.2036017" lon="11.4157833"><ele>654.6666666666666</ele><time>2026-04-18T11:23:57.28Z</time></trkpt><trkpt lat="44.2037383" lon="11.41589"><ele>654.0</ele><time>2026-04-18T11:23:58.281Z</time></trkpt><trkpt lat="44.2038767" lon="11.41601"><ele>652.0</ele><time>2026-04-18T11:23:59.281Z</time></trkpt><trkpt lat="44.2040183" lon="11.4161333"><ele>650.0</ele><time>2026-04-18T11:24:00.28Z</time></trkpt><trkpt lat="44.2041617" lon="11.4162617"><ele>648.0</ele><time>2026-04-18T11:24:01.28Z</time></trkpt><trkpt lat="44.204305" lon="11.41639"><ele>648.0</ele><time>2026-04-18T11:24:02.28Z</time></trkpt><trkpt lat="44.2044467" lon="11.41652"><ele>648.0</ele><time>2026-04-18T11:24:03.28Z</time></trkpt><trkpt lat="44.2045917" lon="11.4166533"><ele>648.0</ele><time>2026-04-18T11:24:04.281Z</time></trkpt><trkpt lat="44.204735" lon="11.4167917"><ele>642.6666666666666</ele><time>2026-04-18T11:24:05.281Z</time></trkpt><trkpt lat="44.2048783" lon="11.416945"><ele>637.3333333333333</ele><time>2026-04-18T11:24:06.281Z</time></trkpt><trkpt lat="44.2050183" lon="11.41711"><ele>632.0</ele><time>2026-04-18T11:24:07.28Z</time></trkpt><trkpt lat="44.205155" lon="11.4172817"><ele>632.0</ele><time>2026-04-18T11:24:08.281Z</time></trkpt><trkpt lat="44.2052967" lon="11.4174517"><ele>632.0</ele><time>2026-04-18T11:24:09.279Z</time></trkpt><trkpt lat="44.205445" lon="11.4176183"><ele>632.0</ele><time>2026-04-18T11:24:10.281Z</time></trkpt><trkpt lat="44.205595" lon="11.4177767"><ele>628.3333333333333</ele><time>2026-04-18T11:24:11.28Z</time></trkpt><trkpt lat="44.205745" lon="11.4179317"><ele>624.6666666666666</ele><time>2026-04-18T11:24:12.28Z</time></trkpt><trkpt lat="44.2058933" lon="11.4180883"><ele>621.0</ele><time>2026-04-18T11:24:13.28Z</time></trkpt><trkpt lat="44.2060367" lon="11.4182567"><ele>621.0</ele><time>2026-04-18T11:24:14.281Z</time></trkpt><trkpt lat="44.206175" lon="11.4184383"><ele>621.0</ele><time>2026-04-18T11:24:15.28Z</time></trkpt><trkpt lat="44.2063167" lon="11.4186367"><ele>621.0</ele><time>2026-04-18T11:24:16.28Z</time></trkpt><trkpt lat="44.20646" lon="11.4188367"><ele>616.3333333333334</ele><time>2026-04-18T11:24:17.281Z</time></trkpt><trkpt lat="44.2065983" lon="11.4190367"><ele>611.6666666666667</ele><time>2026-04-18T11:24:18.281Z</time></trkpt><trkpt lat="44.206735" lon="11.41923"><ele>607.0</ele><time>2026-04-18T11:24:19.28Z</time></trkpt><trkpt lat="44.2068683" lon="11.419415"><ele>607.0</ele><time>2026-04-18T11:24:20.281Z</time></trkpt><trkpt lat="44.206995" lon="11.419605"><ele>607.0</ele><time>2026-04-18T11:24:21.281Z</time></trkpt><trkpt lat="44.20712" lon="11.4197883"><ele>607.0</ele><time>2026-04-18T11:24:22.281Z</time></trkpt><trkpt lat="44.2072417" lon="11.4199717"><ele>599.6666666666667</ele><time>2026-04-18T11:24:23.28Z</time></trkpt><trkpt lat="44.2073567" lon="11.4201467"><ele>592.3333333333334</ele><time>2026-04-18T11:24:24.28Z</time></trkpt><trkpt lat="44.2074567" lon="11.4203217"><ele>585.0</ele><time>2026-04-18T11:24:25.281Z</time></trkpt><trkpt lat="44.2075367" lon="11.4204917"><ele>585.0</ele><time>2026-04-18T11:24:26.281Z</time></trkpt><trkpt lat="44.207605" lon="11.4206533"><ele>585.0</ele><time>2026-04-18T11:24:27.28Z</time></trkpt><trkpt lat="44.207665" lon="11.4208133"><ele>585.0</ele><time>2026-04-18T11:24:28.281Z</time></trkpt><trkpt lat="44.2076983" lon="11.4209867"><ele>585.0</ele><time>2026-04-18T11:24:29.28Z</time></trkpt><trkpt lat="44.2077067" lon="11.42116"><ele>586.0</ele><time>2026-04-18T11:24:30.28Z</time></trkpt><trkpt lat="44.20772" lon="11.4213233"><ele>587.0</ele><time>2026-04-18T11:24:31.28Z</time></trkpt><trkpt lat="44.207755" lon="11.42148"><ele>588.0</ele><time>2026-04-18T11:24:32.281Z</time></trkpt><trkpt lat="44.2078133" lon="11.42163"><ele>589.0</ele><time>2026-04-18T11:24:33.281Z</time></trkpt><trkpt lat="44.207905" lon="11.4217733"><ele>589.0</ele><time>2026-04-18T11:24:34.281Z</time></trkpt><trkpt lat="44.2080067" lon="11.4219167"><ele>589.0</ele><time>2026-04-18T11:24:35.281Z</time></trkpt><trkpt lat="44.208105" lon="11.4220767"><ele>589.0</ele><time>2026-04-18T11:24:36.28Z</time></trkpt><trkpt lat="44.20819" lon="11.4222667"><ele>582.6666666666667</ele><time>2026-04-18T11:24:37.28Z</time></trkpt><trkpt lat="44.20826" lon="11.4224883"><ele>576.3333333333334</ele><time>2026-04-18T11:24:38.281Z</time></trkpt><trkpt lat="44.2083283" lon="11.4227117"><ele>570.0</ele><time>2026-04-18T11:24:39.281Z</time></trkpt><trkpt lat="44.20839" lon="11.4229367"><ele>572.0</ele><time>2026-04-18T11:24:40.28Z</time></trkpt><trkpt lat="44.208455" lon="11.4231417"><ele>574.0</ele><time>2026-04-18T11:24:41.282Z</time></trkpt><trkpt lat="44.2085117" lon="11.42334"><ele>576.0</ele><time>2026-04-18T11:24:42.281Z</time></trkpt><trkpt lat="44.2085483" lon="11.4235333"><ele>576.0</ele><time>2026-04-18T11:24:43.28Z</time></trkpt><trkpt lat="44.2085583" lon="11.423715"><ele>576.0</ele><time>2026-04-18T11:24:44.28Z</time></trkpt><trkpt lat="44.2085417" lon="11.4238733"><ele>576.0</ele><time>2026-04-18T11:24:45.28Z</time></trkpt><trkpt lat="44.20852" lon="11.424005"><ele>576.0</ele><time>2026-04-18T11:24:46.281Z</time></trkpt><trkpt lat="44.2085083" lon="11.4241267"><ele>576.0</ele><time>2026-04-18T11:24:47.279Z</time></trkpt><trkpt lat="44.2085" lon="11.4242417"><ele>576.0</ele><time>2026-04-18T11:24:48.281Z</time></trkpt><trkpt lat="44.2085367" lon="11.4243133"><ele>576.0</ele><time>2026-04-18T11:24:49.28Z</time></trkpt><trkpt lat="44.2086217" lon="11.4243317"><ele>576.0</ele><time>2026-04-18T11:24:50.28Z</time></trkpt><trkpt lat="44.208725" lon="11.4243433"><ele>576.0</ele><time>2026-04-18T11:24:51.281Z</time></trkpt><trkpt lat="44.20884" lon="11.4243617"><ele>576.0</ele><time>2026-04-18T11:24:52.281Z</time></trkpt><trkpt lat="44.2089283" lon="11.42442"><ele>572.5</ele><time>2026-04-18T11:24:53.281Z</time></trkpt><trkpt lat="44.20901" lon="11.42456"><ele>569.0</ele><time>2026-04-18T11:24:54.28Z</time></trkpt><trkpt lat="44.20909" lon="11.42471"><ele>565.5</ele><time>2026-04-18T11:24:55.28Z</time></trkpt><trkpt lat="44.2091833" lon="11.4248717"><ele>562.0</ele><time>2026-04-18T11:24:56.28Z</time></trkpt><trkpt lat="44.2092867" lon="11.4250183"><ele>562.0</ele><time>2026-04-18T11:24:57.28Z</time></trkpt><trkpt lat="44.2094" lon="11.4251633"><ele>562.0</ele><time>2026-04-18T11:24:58.281Z</time></trkpt><trkpt lat="44.2095167" lon="11.4253"><ele>562.0</ele><time>2026-04-18T11:24:59.281Z</time></trkpt><trkpt lat="44.20962" lon="11.4254433"><ele>563.75</ele><time>2026-04-18T11:25:00.281Z</time></trkpt><trkpt lat="44.2097317" lon="11.4255667"><ele>565.5</ele><time>2026-04-18T11:25:01.28Z</time></trkpt><trkpt lat="44.2098567" lon="11.425655"><ele>567.25</ele><time>2026-04-18T11:25:02.281Z</time></trkpt><trkpt lat="44.20999" lon="11.425725"><ele>569.0</ele><time>2026-04-18T11:25:03.281Z</time></trkpt><trkpt lat="44.2101183" lon="11.4258117"><ele>569.0</ele><time>2026-04-18T11:25:04.28Z</time></trkpt><trkpt lat="44.2102383" lon="11.425935"><ele>569.0</ele><time>2026-04-18T11:25:05.28Z</time></trkpt><trkpt lat="44.2103483" lon="11.4260817"><ele>569.0</ele><time>2026-04-18T11:25:06.28Z</time></trkpt><trkpt lat="44.210455" lon="11.42626"><ele>565.3333333333333</ele><time>2026-04-18T11:25:07.28Z</time></trkpt><trkpt lat="44.2105517" lon="11.4264383"><ele>561.6666666666666</ele><time>2026-04-18T11:25:08.281Z</time></trkpt><trkpt lat="44.21065" lon="11.4266217"><ele>558.0</ele><time>2026-04-18T11:25:09.28Z</time></trkpt><trkpt lat="44.2107517" lon="11.4268133"><ele>558.0</ele><time>2026-04-18T11:25:10.281Z</time></trkpt><trkpt lat="44.210845" lon="11.4270017"><ele>558.0</ele><time>2026-04-18T11:25:11.281Z</time></trkpt><trkpt lat="44.210935" lon="11.427195"><ele>558.0</ele><time>2026-04-18T11:25:12.282Z</time></trkpt><trkpt lat="44.211015" lon="11.427375"><ele>565.5</ele><time>2026-04-18T11:25:13.281Z</time></trkpt><trkpt lat="44.2110933" lon="11.42754"><ele>573.0</ele><time>2026-04-18T11:25:14.28Z</time></trkpt><trkpt lat="44.2111717" lon="11.4277017"><ele>580.5</ele><time>2026-04-18T11:25:15.28Z</time></trkpt><trkpt lat="44.2112567" lon="11.4278617"><ele>588.0</ele><time>2026-04-18T11:25:16.28Z</time></trkpt><trkpt lat="44.21135" lon="11.42802"><ele>591.75</ele><time>2026-04-18T11:25:17.281Z</time></trkpt><trkpt lat="44.2114483" lon="11.428175"><ele>595.5</ele><time>2026-04-18T11:25:18.282Z</time></trkpt><trkpt lat="44.2115433" lon="11.428325"><ele>599.25</ele><time>2026-04-18T11:25:19.281Z</time></trkpt><trkpt lat="44.2116333" lon="11.428465"><ele>603.0</ele><time>2026-04-18T11:25:20.281Z</time></trkpt><trkpt lat="44.2117167" lon="11.4286083"><ele>599.0</ele><time>2026-04-18T11:25:21.28Z</time></trkpt><trkpt lat="44.2118" lon="11.4287383"><ele>595.0</ele><time>2026-04-18T11:25:22.281Z</time></trkpt><trkpt lat="44.2118833" lon="11.4288167"><ele>591.0</ele><time>2026-04-18T11:25:23.28Z</time></trkpt><trkpt lat="44.2119467" lon="11.428925"><ele>587.0</ele><time>2026-04-18T11:25:24.28Z</time></trkpt><trkpt lat="44.21202" lon="11.429015"><ele>583.0</ele><time>2026-04-18T11:25:25.28Z</time></trkpt><trkpt lat="44.2121083" lon="11.42907"><ele>583.0</ele><time>2026-04-18T11:25:26.28Z</time></trkpt><trkpt lat="44.21219" lon="11.4291717"><ele>583.0</ele><time>2026-04-18T11:25:27.281Z</time></trkpt><trkpt lat="44.21227" lon="11.429285"><ele>583.0</ele><time>2026-04-18T11:25:28.281Z</time></trkpt><trkpt lat="44.2123483" lon="11.4294017"><ele>583.0</ele><time>2026-04-18T11:25:29.282Z</time></trkpt><trkpt lat="44.2124167" lon="11.4295083"><ele>583.0</ele><time>2026-04-18T11:25:30.28Z</time></trkpt><trkpt lat="44.2124833" lon="11.4296083"><ele>579.8</ele><time>2026-04-18T11:25:31.28Z</time></trkpt><trkpt lat="44.2125583" lon="11.42971"><ele>576.5999999999999</ele><time>2026-04-18T11:25:32.281Z</time></trkpt><trkpt lat="44.2126467" lon="11.4298"><ele>573.4000000000001</ele><time>2026-04-18T11:25:33.28Z</time></trkpt><trkpt lat="44.2127367" lon="11.42989"><ele>570.2</ele><time>2026-04-18T11:25:34.28Z</time></trkpt><trkpt lat="44.2128267" lon="11.4299767"><ele>567.0</ele><time>2026-04-18T11:25:35.28Z</time></trkpt><trkpt lat="44.2129167" lon="11.4300683"><ele>567.0</ele><time>2026-04-18T11:25:36.281Z</time></trkpt><trkpt lat="44.213" lon="11.4301567"><ele>567.0</ele><time>2026-04-18T11:25:37.281Z</time></trkpt><trkpt lat="44.2130767" lon="11.4302483"><ele>567.0</ele><time>2026-04-18T11:25:38.279Z</time></trkpt><trkpt lat="44.2131517" lon="11.4303433"><ele>567.0</ele><time>2026-04-18T11:25:39.28Z</time></trkpt><trkpt lat="44.2132167" lon="11.43044"><ele>567.0</ele><time>2026-04-18T11:25:40.281Z</time></trkpt><trkpt lat="44.213275" lon="11.4305417"><ele>563.8571428571429</ele><time>2026-04-18T11:25:41.281Z</time></trkpt><trkpt lat="44.2133333" lon="11.4306167"><ele>560.7142857142858</ele><time>2026-04-18T11:25:42.28Z</time></trkpt><trkpt lat="44.2134017" lon="11.4306683"><ele>557.5714285714286</ele><time>2026-04-18T11:25:43.281Z</time></trkpt><trkpt lat="44.2134683" lon="11.4307317"><ele>554.4285714285714</ele><time>2026-04-18T11:25:44.281Z</time></trkpt><trkpt lat="44.2135233" lon="11.4307883"><ele>551.2857142857143</ele><time>2026-04-18T11:25:45.281Z</time></trkpt><trkpt lat="44.2135717" lon="11.4308467"><ele>548.1428571428571</ele><time>2026-04-18T11:25:46.279Z</time></trkpt><trkpt lat="44.2136217" lon="11.4309017"><ele>545.0</ele><time>2026-04-18T11:25:47.281Z</time></trkpt><trkpt lat="44.2136633" lon="11.4309717"><ele>545.0</ele><time>2026-04-18T11:25:48.28Z</time></trkpt><trkpt lat="44.21371" lon="11.4310517"><ele>545.0</ele><time>2026-04-18T11:25:49.282Z</time></trkpt><trkpt lat="44.2137583" lon="11.431135"><ele>545.0</ele><time>2026-04-18T11:25:50.28Z</time></trkpt><trkpt lat="44.2137867" lon="11.4312283"><ele>545.0</ele><time>2026-04-18T11:25:51.281Z</time></trkpt><trkpt lat="44.21382" lon="11.4313267"><ele>545.0</ele><time>2026-04-18T11:25:52.28Z</time></trkpt><trkpt lat="44.2138333" lon="11.4314167"><ele>545.0</ele><time>2026-04-18T11:25:53.282Z</time></trkpt><trkpt lat="44.213865" lon="11.431495"><ele>545.0</ele><time>2026-04-18T11:25:54.281Z</time></trkpt><trkpt lat="44.2138933" lon="11.4315933"><ele>545.6666666666666</ele><time>2026-04-18T11:25:55.28Z</time></trkpt><trkpt lat="44.213945" lon="11.431695"><ele>546.3333333333333</ele><time>2026-04-18T11:25:56.282Z</time></trkpt><trkpt lat="44.2139783" lon="11.4318083"><ele>547.0</ele><time>2026-04-18T11:25:57.28Z</time></trkpt><trkpt lat="44.2140017" lon="11.4319333"><ele>547.6666666666666</ele><time>2026-04-18T11:25:58.28Z</time></trkpt><trkpt lat="44.2140183" lon="11.4320517"><ele>548.3333333333334</ele><time>2026-04-18T11:25:59.281Z</time></trkpt><trkpt lat="44.2140317" lon="11.4321633"><ele>549.0</ele><time>2026-04-18T11:26:00.281Z</time></trkpt><trkpt lat="44.21404" lon="11.4322617"><ele>547.3333333333334</ele><time>2026-04-18T11:26:01.283Z</time></trkpt><trkpt lat="44.2140267" lon="11.4323633"><ele>545.6666666666666</ele><time>2026-04-18T11:26:02.282Z</time></trkpt><trkpt lat="44.2139833" lon="11.432465"><ele>544.0</ele><time>2026-04-18T11:26:03.28Z</time></trkpt><trkpt lat="44.2139317" lon="11.432555"><ele>542.3333333333333</ele><time>2026-04-18T11:26:04.282Z</time></trkpt><trkpt lat="44.2138483" lon="11.432585"><ele>540.6666666666666</ele><time>2026-04-18T11:26:05.28Z</time></trkpt><trkpt lat="44.2137467" lon="11.432585"><ele>539.0</ele><time>2026-04-18T11:26:06.282Z</time></trkpt><trkpt lat="44.2136517" lon="11.4325517"><ele>539.0</ele><time>2026-04-18T11:26:07.281Z</time></trkpt><trkpt lat="44.21356" lon="11.4325217"><ele>539.0</ele><time>2026-04-18T11:26:08.281Z</time></trkpt><trkpt lat="44.213475" lon="11.4325083"><ele>539.0</ele><time>2026-04-18T11:26:09.281Z</time></trkpt><trkpt lat="44.2134067" lon="11.43252"><ele>539.0</ele><time>2026-04-18T11:26:10.28Z</time></trkpt><trkpt lat="44.2133667" lon="11.4326333"><ele>539.0</ele><time>2026-04-18T11:26:12.281Z</time></trkpt><trkpt lat="44.21339" lon="11.43276"><ele>539.0</ele><time>2026-04-18T11:26:14.28Z</time></trkpt><trkpt lat="44.2134433" lon="11.4328167"><ele>539.0</ele><time>2026-04-18T11:26:15.28Z</time></trkpt><trkpt lat="44.2135767" lon="11.4328533"><ele>539.0</ele><time>2026-04-18T11:26:16.278Z</time></trkpt><trkpt lat="44.213675" lon="11.4329"><ele>539.0</ele><time>2026-04-18T11:26:17.279Z</time></trkpt><trkpt lat="44.2137733" lon="11.432955"><ele>539.0</ele><time>2026-04-18T11:26:18.28Z</time></trkpt><trkpt lat="44.21388" lon="11.433"><ele>538.75</ele><time>2026-04-18T11:26:19.28Z</time></trkpt><trkpt lat="44.213975" lon="11.43308"><ele>538.5</ele><time>2026-04-18T11:26:20.28Z</time></trkpt><trkpt lat="44.2140683" lon="11.4331667"><ele>538.25</ele><time>2026-04-18T11:26:21.279Z</time></trkpt><trkpt lat="44.214175" lon="11.4332817"><ele>538.0</ele><time>2026-04-18T11:26:22.28Z</time></trkpt><trkpt lat="44.2142733" lon="11.4334267"><ele>533.0</ele><time>2026-04-18T11:26:23.28Z</time></trkpt><trkpt lat="44.2143567" lon="11.4335433"><ele>528.0</ele><time>2026-04-18T11:26:24.28Z</time></trkpt><trkpt lat="44.2144317" lon="11.4336417"><ele>523.0</ele><time>2026-04-18T11:26:25.28Z</time></trkpt><trkpt lat="44.214495" lon="11.4337467"><ele>518.0</ele><time>2026-04-18T11:26:26.281Z</time></trkpt><trkpt lat="44.214545" lon="11.4338667"><ele>513.0</ele><time>2026-04-18T11:26:27.281Z</time></trkpt><trkpt lat="44.214585" lon="11.433985"><ele>513.0</ele><time>2026-04-18T11:26:28.281Z</time></trkpt><trkpt lat="44.2146083" lon="11.43412"><ele>513.0</ele><time>2026-04-18T11:26:29.28Z</time></trkpt><trkpt lat="44.2146083" lon="11.43428"><ele>513.0</ele><time>2026-04-18T11:26:30.281Z</time></trkpt><trkpt lat="44.2146167" lon="11.4344317"><ele>513.0</ele><time>2026-04-18T11:26:31.281Z</time></trkpt><trkpt lat="44.21462" lon="11.434575"><ele>513.0</ele><time>2026-04-18T11:26:32.281Z</time></trkpt><trkpt lat="44.2146167" lon="11.4347067"><ele>513.0</ele><time>2026-04-18T11:26:33.28Z</time></trkpt><trkpt lat="44.2145983" lon="11.4348233"><ele>513.0</ele><time>2026-04-18T11:26:34.28Z</time></trkpt><trkpt lat="44.2145733" lon="11.4349233"><ele>513.0</ele><time>2026-04-18T11:26:35.278Z</time></trkpt><trkpt lat="44.214525" lon="11.4350067"><ele>513.0</ele><time>2026-04-18T11:26:36.28Z</time></trkpt><trkpt lat="44.2144767" lon="11.4351083"><ele>513.0</ele><time>2026-04-18T11:26:37.278Z</time></trkpt><trkpt lat="44.214465" lon="11.43525"><ele>513.0</ele><time>2026-04-18T11:26:38.279Z</time></trkpt><trkpt lat="44.2144833" lon="11.4354117"><ele>512.0</ele><time>2026-04-18T11:26:39.278Z</time></trkpt><trkpt lat="44.2145117" lon="11.4355817"><ele>511.0</ele><time>2026-04-18T11:26:40.279Z</time></trkpt><trkpt lat="44.2145317" lon="11.43576"><ele>510.0</ele><time>2026-04-18T11:26:41.28Z</time></trkpt><trkpt lat="44.2145367" lon="11.4359417"><ele>509.0</ele><time>2026-04-18T11:26:42.278Z</time></trkpt><trkpt lat="44.214535" lon="11.4361217"><ele>509.75</ele><time>2026-04-18T11:26:43.278Z</time></trkpt><trkpt lat="44.2145267" lon="11.4363033"><ele>510.5</ele><time>2026-04-18T11:26:44.279Z</time></trkpt><trkpt lat="44.2145183" lon="11.436485"><ele>511.25</ele><time>2026-04-18T11:26:45.28Z</time></trkpt><trkpt lat="44.2145033" lon="11.4366733"><ele>512.0</ele><time>2026-04-18T11:26:46.279Z</time></trkpt><trkpt lat="44.2145" lon="11.4368533"><ele>512.0</ele><time>2026-04-18T11:26:47.281Z</time></trkpt><trkpt lat="44.2145183" lon="11.4370283"><ele>512.0</ele><time>2026-04-18T11:26:48.281Z</time></trkpt><trkpt lat="44.2145583" lon="11.4371967"><ele>512.0</ele><time>2026-04-18T11:26:49.28Z</time></trkpt><trkpt lat="44.2146167" lon="11.4373583"><ele>512.0</ele><time>2026-04-18T11:26:50.28Z</time></trkpt><trkpt lat="44.2146817" lon="11.437515"><ele>514.25</ele><time>2026-04-18T11:26:51.28Z</time></trkpt><trkpt lat="44.2147383" lon="11.4376767"><ele>516.5</ele><time>2026-04-18T11:26:52.28Z</time></trkpt><trkpt lat="44.214775" lon="11.4378467"><ele>518.75</ele><time>2026-04-18T11:26:53.281Z</time></trkpt><trkpt lat="44.21479" lon="11.4380267"><ele>521.0</ele><time>2026-04-18T11:26:54.279Z</time></trkpt><trkpt lat="44.21479" lon="11.4382133"><ele>522.0</ele><time>2026-04-18T11:26:55.28Z</time></trkpt><trkpt lat="44.2147917" lon="11.4384083"><ele>523.0</ele><time>2026-04-18T11:26:56.281Z</time></trkpt><trkpt lat="44.214805" lon="11.43861"><ele>524.0</ele><time>2026-04-18T11:26:57.28Z</time></trkpt><trkpt lat="44.214845" lon="11.4388083"><ele>525.0</ele><time>2026-04-18T11:26:58.28Z</time></trkpt><trkpt lat="44.2149067" lon="11.4389917"><ele>518.0</ele><time>2026-04-18T11:26:59.279Z</time></trkpt><trkpt lat="44.2149683" lon="11.43916"><ele>511.0</ele><time>2026-04-18T11:27:00.28Z</time></trkpt><trkpt lat="44.2150067" lon="11.4393433"><ele>504.0</ele><time>2026-04-18T11:27:01.28Z</time></trkpt><trkpt lat="44.2150233" lon="11.4395417"><ele>497.0</ele><time>2026-04-18T11:27:02.279Z</time></trkpt><trkpt lat="44.2150233" lon="11.4397567"><ele>497.0</ele><time>2026-04-18T11:27:03.28Z</time></trkpt><trkpt lat="44.2150217" lon="11.4399717"><ele>497.0</ele><time>2026-04-18T11:27:04.279Z</time></trkpt><trkpt lat="44.21502" lon="11.440175"><ele>497.0</ele><time>2026-04-18T11:27:05.279Z</time></trkpt><trkpt lat="44.2150067" lon="11.44036"><ele>497.0</ele><time>2026-04-18T11:27:06.28Z</time></trkpt><trkpt lat="44.2149717" lon="11.4405417"><ele>496.25</ele><time>2026-04-18T11:27:07.278Z</time></trkpt><trkpt lat="44.2149117" lon="11.4407183"><ele>495.5</ele><time>2026-04-18T11:27:08.28Z</time></trkpt><trkpt lat="44.2148533" lon="11.4408967"><ele>494.75</ele><time>2026-04-18T11:27:09.279Z</time></trkpt><trkpt lat="44.2147983" lon="11.4410883"><ele>494.0</ele><time>2026-04-18T11:27:10.28Z</time></trkpt><trkpt lat="44.2147733" lon="11.44128"><ele>494.25</ele><time>2026-04-18T11:27:11.28Z</time></trkpt><trkpt lat="44.214785" lon="11.4414783"><ele>494.5</ele><time>2026-04-18T11:27:12.281Z</time></trkpt><trkpt lat="44.2148117" lon="11.4416833"><ele>494.75</ele><time>2026-04-18T11:27:13.279Z</time></trkpt><trkpt lat="44.214845" lon="11.4418917"><ele>495.0</ele><time>2026-04-18T11:27:14.281Z</time></trkpt><trkpt lat="44.2148883" lon="11.4420967"><ele>497.0</ele><time>2026-04-18T11:27:15.28Z</time></trkpt><trkpt lat="44.2149283" lon="11.442305"><ele>499.0</ele><time>2026-04-18T11:27:16.28Z</time></trkpt><trkpt lat="44.2149667" lon="11.442515"><ele>501.0</ele><time>2026-04-18T11:27:17.28Z</time></trkpt><trkpt lat="44.2150033" lon="11.4427183"><ele>501.0</ele><time>2026-04-18T11:27:18.281Z</time></trkpt><trkpt lat="44.2150417" lon="11.44291"><ele>501.0</ele><time>2026-04-18T11:27:19.28Z</time></trkpt><trkpt lat="44.2151017" lon="11.44307"><ele>501.0</ele><time>2026-04-18T11:27:20.28Z</time></trkpt><trkpt lat="44.2151667" lon="11.4432217"><ele>501.0</ele><time>2026-04-18T11:27:21.279Z</time></trkpt><trkpt lat="44.21525" lon="11.4433633"><ele>502.75</ele><time>2026-04-18T11:27:22.28Z</time></trkpt><trkpt lat="44.2153467" lon="11.4435017"><ele>504.5</ele><time>2026-04-18T11:27:23.279Z</time></trkpt><trkpt lat="44.21544" lon="11.443645"><ele>506.25</ele><time>2026-04-18T11:27:24.28Z</time></trkpt><trkpt lat="44.2155317" lon="11.4437883"><ele>508.0</ele><time>2026-04-18T11:27:25.281Z</time></trkpt><trkpt lat="44.2156067" lon="11.4439283"><ele>505.25</ele><time>2026-04-18T11:27:26.28Z</time></trkpt><trkpt lat="44.215665" lon="11.4440717"><ele>502.5</ele><time>2026-04-18T11:27:27.279Z</time></trkpt><trkpt lat="44.2156967" lon="11.4442267"><ele>499.75</ele><time>2026-04-18T11:27:28.281Z</time></trkpt><trkpt lat="44.2157017" lon="11.444385"><ele>497.0</ele><time>2026-04-18T11:27:29.281Z</time></trkpt><trkpt lat="44.21567" lon="11.444535"><ele>502.5</ele><time>2026-04-18T11:27:30.28Z</time></trkpt><trkpt lat="44.215615" lon="11.4446767"><ele>508.0</ele><time>2026-04-18T11:27:31.28Z</time></trkpt><trkpt lat="44.215535" lon="11.4448133"><ele>513.5</ele><time>2026-04-18T11:27:32.279Z</time></trkpt><trkpt lat="44.2154733" lon="11.4449583"><ele>519.0</ele><time>2026-04-18T11:27:33.279Z</time></trkpt><trkpt lat="44.2154433" lon="11.44512"><ele>519.0</ele><time>2026-04-18T11:27:34.279Z</time></trkpt><trkpt lat="44.2154433" lon="11.4452933"><ele>519.0</ele><time>2026-04-18T11:27:35.28Z</time></trkpt><trkpt lat="44.2154733" lon="11.44548"><ele>519.0</ele><time>2026-04-18T11:27:36.28Z</time></trkpt><trkpt lat="44.2155083" lon="11.4456733"><ele>519.0</ele><time>2026-04-18T11:27:37.279Z</time></trkpt><trkpt lat="44.21555" lon="11.4458717"><ele>519.25</ele><time>2026-04-18T11:27:38.28Z</time></trkpt><trkpt lat="44.215595" lon="11.4460683"><ele>519.5</ele><time>2026-04-18T11:27:39.28Z</time></trkpt><trkpt lat="44.215635" lon="11.4462633"><ele>519.75</ele><time>2026-04-18T11:27:40.28Z</time></trkpt><trkpt lat="44.2156767" lon="11.4464467"><ele>520.0</ele><time>2026-04-18T11:27:41.28Z</time></trkpt><trkpt lat="44.2157267" lon="11.4466233"><ele>519.0</ele><time>2026-04-18T11:27:42.281Z</time></trkpt><trkpt lat="44.215795" lon="11.4467933"><ele>518.0</ele><time>2026-04-18T11:27:43.28Z</time></trkpt><trkpt lat="44.2158933" lon="11.4469367"><ele>517.0</ele><time>2026-04-18T11:27:44.279Z</time></trkpt><trkpt lat="44.2159983" lon="11.4470783"><ele>516.0</ele><time>2026-04-18T11:27:45.28Z</time></trkpt><trkpt lat="44.2160983" lon="11.4472183"><ele>516.0</ele><time>2026-04-18T11:27:46.279Z</time></trkpt><trkpt lat="44.2162017" lon="11.447355"><ele>516.0</ele><time>2026-04-18T11:27:47.279Z</time></trkpt><trkpt lat="44.216305" lon="11.4475"><ele>516.0</ele><time>2026-04-18T11:27:48.281Z</time></trkpt><trkpt lat="44.216405" lon="11.4476367"><ele>516.0</ele><time>2026-04-18T11:27:49.279Z</time></trkpt><trkpt lat="44.2165133" lon="11.4477433"><ele>516.25</ele><time>2026-04-18T11:27:50.28Z</time></trkpt><trkpt lat="44.2166433" lon="11.44783"><ele>516.5</ele><time>2026-04-18T11:27:51.279Z</time></trkpt><trkpt lat="44.2167767" lon="11.4478967"><ele>516.75</ele><time>2026-04-18T11:27:52.28Z</time></trkpt><trkpt lat="44.216925" lon="11.4479483"><ele>517.0</ele><time>2026-04-18T11:27:53.279Z</time></trkpt><trkpt lat="44.217075" lon="11.44799"><ele>517.0</ele><time>2026-04-18T11:27:54.281Z</time></trkpt><trkpt lat="44.2172283" lon="11.4480183"><ele>517.0</ele><time>2026-04-18T11:27:55.28Z</time></trkpt><trkpt lat="44.21738" lon="11.4480667"><ele>517.0</ele><time>2026-04-18T11:27:56.283Z</time></trkpt><trkpt lat="44.2175283" lon="11.4481183"><ele>514.0</ele><time>2026-04-18T11:27:57.28Z</time></trkpt><trkpt lat="44.2176783" lon="11.4481833"><ele>511.0</ele><time>2026-04-18T11:27:58.279Z</time></trkpt><trkpt lat="44.2178267" lon="11.4482567"><ele>508.0</ele><time>2026-04-18T11:27:59.281Z</time></trkpt><trkpt lat="44.217975" lon="11.4483367"><ele>508.0</ele><time>2026-04-18T11:28:00.279Z</time></trkpt><trkpt lat="44.218125" lon="11.44842"><ele>508.0</ele><time>2026-04-18T11:28:01.279Z</time></trkpt><trkpt lat="44.2182783" lon="11.448495"><ele>508.0</ele><time>2026-04-18T11:28:02.28Z</time></trkpt><trkpt lat="44.2184317" lon="11.4485683"><ele>504.0</ele><time>2026-04-18T11:28:03.279Z</time></trkpt><trkpt lat="44.2185833" lon="11.448645"><ele>500.0</ele><time>2026-04-18T11:28:04.28Z</time></trkpt><trkpt lat="44.2187317" lon="11.4487183"><ele>496.0</ele><time>2026-04-18T11:28:05.28Z</time></trkpt><trkpt lat="44.2188667" lon="11.448775"><ele>496.0</ele><time>2026-04-18T11:28:06.279Z</time></trkpt><trkpt lat="44.2189883" lon="11.448885"><ele>496.0</ele><time>2026-04-18T11:28:07.278Z</time></trkpt><trkpt lat="44.219095" lon="11.449025"><ele>496.0</ele><time>2026-04-18T11:28:08.28Z</time></trkpt><trkpt lat="44.2191883" lon="11.449155"><ele>496.0</ele><time>2026-04-18T11:28:09.279Z</time></trkpt><trkpt lat="44.2192767" lon="11.4492833"><ele>496.0</ele><time>2026-04-18T11:28:10.28Z</time></trkpt><trkpt lat="44.219355" lon="11.4494133"><ele>496.0</ele><time>2026-04-18T11:28:11.279Z</time></trkpt><trkpt lat="44.2194267" lon="11.4495367"><ele>496.0</ele><time>2026-04-18T11:28:12.278Z</time></trkpt><trkpt lat="44.2194883" lon="11.4496633"><ele>496.0</ele><time>2026-04-18T11:28:13.279Z</time></trkpt><trkpt lat="44.2195417" lon="11.4498"><ele>498.20000000000005</ele><time>2026-04-18T11:28:14.278Z</time></trkpt><trkpt lat="44.219585" lon="11.4499417"><ele>500.40000000000003</ele><time>2026-04-18T11:28:15.28Z</time></trkpt><trkpt lat="44.2196217" lon="11.4500817"><ele>502.6</ele><time>2026-04-18T11:28:16.28Z</time></trkpt><trkpt lat="44.21965" lon="11.4502267"><ele>504.8</ele><time>2026-04-18T11:28:17.278Z</time></trkpt><trkpt lat="44.2196733" lon="11.4503767"><ele>507.0</ele><time>2026-04-18T11:28:18.28Z</time></trkpt><trkpt lat="44.2197033" lon="11.4505217"><ele>506.20000000000005</ele><time>2026-04-18T11:28:19.278Z</time></trkpt><trkpt lat="44.2197583" lon="11.4506517"><ele>505.40000000000003</ele><time>2026-04-18T11:28:20.28Z</time></trkpt><trkpt lat="44.2198217" lon="11.45076"><ele>504.59999999999997</ele><time>2026-04-18T11:28:21.279Z</time></trkpt><trkpt lat="44.2198983" lon="11.45084"><ele>503.79999999999995</ele><time>2026-04-18T11:28:22.28Z</time></trkpt><trkpt lat="44.2199667" lon="11.4509"><ele>503.0</ele><time>2026-04-18T11:28:23.28Z</time></trkpt><trkpt lat="44.2200317" lon="11.4509533"><ele>502.99999999999994</ele><time>2026-04-18T11:28:24.279Z</time></trkpt><trkpt lat="44.2200983" lon="11.451005"><ele>503.0</ele><time>2026-04-18T11:28:25.28Z</time></trkpt><trkpt lat="44.2201683" lon="11.451015"><ele>503.0</ele><time>2026-04-18T11:28:26.28Z</time></trkpt><trkpt lat="44.220245" lon="11.451045"><ele>503.0</ele><time>2026-04-18T11:28:27.279Z</time></trkpt><trkpt lat="44.2203183" lon="11.4510933"><ele>502.99999999999994</ele><time>2026-04-18T11:28:28.28Z</time></trkpt><trkpt lat="44.22039" lon="11.4511617"><ele>503.0</ele><time>2026-04-18T11:28:29.279Z</time></trkpt><trkpt lat="44.2204517" lon="11.4512183"><ele>502.99999999999994</ele><time>2026-04-18T11:28:30.279Z</time></trkpt><trkpt lat="44.2205133" lon="11.4512817"><ele>503.0</ele><time>2026-04-18T11:28:31.279Z</time></trkpt><trkpt lat="44.22058" lon="11.451345"><ele>503.0</ele><time>2026-04-18T11:28:32.281Z</time></trkpt><trkpt lat="44.220635" lon="11.4514233"><ele>503.0</ele><time>2026-04-18T11:28:33.28Z</time></trkpt><trkpt lat="44.2207" lon="11.4514883"><ele>502.99999999999994</ele><time>2026-04-18T11:28:34.28Z</time></trkpt><trkpt lat="44.2207717" lon="11.45156"><ele>503.0</ele><time>2026-04-18T11:28:35.28Z</time></trkpt><trkpt lat="44.22086" lon="11.4516067"><ele>503.0</ele><time>2026-04-18T11:28:36.279Z</time></trkpt><trkpt lat="44.2209583" lon="11.4516517"><ele>502.99999999999994</ele><time>2026-04-18T11:28:37.281Z</time></trkpt><trkpt lat="44.2210633" lon="11.4516917"><ele>502.99999999999994</ele><time>2026-04-18T11:28:38.281Z</time></trkpt><trkpt lat="44.2211667" lon="11.4517533"><ele>503.0</ele><time>2026-04-18T11:28:39.278Z</time></trkpt><trkpt lat="44.2212683" lon="11.4518333"><ele>503.0</ele><time>2026-04-18T11:28:40.28Z</time></trkpt><trkpt lat="44.2213667" lon="11.4519167"><ele>503.0</ele><time>2026-04-18T11:28:41.279Z</time></trkpt><trkpt lat="44.2214667" lon="11.452015"><ele>503.0</ele><time>2026-04-18T11:28:42.281Z</time></trkpt><trkpt lat="44.221565" lon="11.4521183"><ele>503.0</ele><time>2026-04-18T11:28:43.282Z</time></trkpt><trkpt lat="44.221665" lon="11.45223"><ele>503.0</ele><time>2026-04-18T11:28:44.28Z</time></trkpt><trkpt lat="44.22176" lon="11.4523467"><ele>502.25</ele><time>2026-04-18T11:28:45.283Z</time></trkpt><trkpt lat="44.221845" lon="11.452475"><ele>501.5</ele><time>2026-04-18T11:28:46.281Z</time></trkpt><trkpt lat="44.2219233" lon="11.4526083"><ele>500.75</ele><time>2026-04-18T11:28:47.282Z</time></trkpt><trkpt lat="44.2219967" lon="11.4527467"><ele>500.0</ele><time>2026-04-18T11:28:48.279Z</time></trkpt><trkpt lat="44.2220733" lon="11.4528883"><ele>499.0</ele><time>2026-04-18T11:28:49.283Z</time></trkpt><trkpt lat="44.22216" lon="11.4530417"><ele>498.0</ele><time>2026-04-18T11:28:50.282Z</time></trkpt><trkpt lat="44.2222567" lon="11.4531833"><ele>497.0</ele><time>2026-04-18T11:28:51.282Z</time></trkpt><trkpt lat="44.222365" lon="11.4533083"><ele>496.0</ele><time>2026-04-18T11:28:52.282Z</time></trkpt><trkpt lat="44.2224833" lon="11.45343"><ele>496.0</ele><time>2026-04-18T11:28:53.282Z</time></trkpt><trkpt lat="44.22261" lon="11.45352"><ele>496.0</ele><time>2026-04-18T11:28:54.28Z</time></trkpt><trkpt lat="44.22274" lon="11.4535967"><ele>496.0</ele><time>2026-04-18T11:28:55.281Z</time></trkpt><trkpt lat="44.222865" lon="11.453685"><ele>496.0</ele><time>2026-04-18T11:28:56.283Z</time></trkpt><trkpt lat="44.222975" lon="11.45377"><ele>495.25</ele><time>2026-04-18T11:28:57.281Z</time></trkpt><trkpt lat="44.2230667" lon="11.453865"><ele>494.5</ele><time>2026-04-18T11:28:58.28Z</time></trkpt><trkpt lat="44.223145" lon="11.45398"><ele>493.75</ele><time>2026-04-18T11:28:59.28Z</time></trkpt><trkpt lat="44.2232" lon="11.454115"><ele>493.0</ele><time>2026-04-18T11:29:00.281Z</time></trkpt><trkpt lat="44.2232383" lon="11.45426"><ele>493.0</ele><time>2026-04-18T11:29:01.281Z</time></trkpt><trkpt lat="44.2232633" lon="11.4544"><ele>492.99999999999994</ele><time>2026-04-18T11:29:02.281Z</time></trkpt><trkpt lat="44.2232883" lon="11.4545317"><ele>492.99999999999994</ele><time>2026-04-18T11:29:03.279Z</time></trkpt><trkpt lat="44.22332" lon="11.4546533"><ele>493.0</ele><time>2026-04-18T11:29:04.279Z</time></trkpt><trkpt lat="44.2233667" lon="11.4547667"><ele>493.0</ele><time>2026-04-18T11:29:05.281Z</time></trkpt><trkpt lat="44.2234333" lon="11.4548867"><ele>493.79999999999995</ele><time>2026-04-18T11:29:06.281Z</time></trkpt><trkpt lat="44.2234967" lon="11.4550183"><ele>494.59999999999997</ele><time>2026-04-18T11:29:07.28Z</time></trkpt><trkpt lat="44.2235567" lon="11.4551583"><ele>495.40000000000003</ele><time>2026-04-18T11:29:08.282Z</time></trkpt><trkpt lat="44.2236033" lon="11.455285"><ele>496.20000000000005</ele><time>2026-04-18T11:29:09.281Z</time></trkpt><trkpt lat="44.2236367" lon="11.4553917"><ele>497.0</ele><time>2026-04-18T11:29:10.281Z</time></trkpt><trkpt lat="44.2236567" lon="11.4554883"><ele>497.0</ele><time>2026-04-18T11:29:11.28Z</time></trkpt><trkpt lat="44.2236267" lon="11.4556233"><ele>497.00000000000006</ele><time>2026-04-18T11:29:13.279Z</time></trkpt><trkpt lat="44.223485" lon="11.4555967"><ele>497.00000000000006</ele><time>2026-04-18T11:29:15.279Z</time></trkpt><trkpt lat="44.2234067" lon="11.45555"><ele>497.0</ele><time>2026-04-18T11:29:16.28Z</time></trkpt><trkpt lat="44.2233283" lon="11.4554717"><ele>497.0</ele><time>2026-04-18T11:29:17.281Z</time></trkpt><trkpt lat="44.2232483" lon="11.45537"><ele>496.99999999999994</ele><time>2026-04-18T11:29:18.279Z</time></trkpt><trkpt lat="44.2231717" lon="11.4552567"><ele>497.0</ele><time>2026-04-18T11:29:19.279Z</time></trkpt><trkpt lat="44.2231083" lon="11.4551633"><ele>497.0</ele><time>2026-04-18T11:29:20.281Z</time></trkpt><trkpt lat="44.2230467" lon="11.4550867"><ele>497.0</ele><time>2026-04-18T11:29:21.281Z</time></trkpt><trkpt lat="44.2229667" lon="11.455125"><ele>496.99999999999994</ele><time>2026-04-18T11:29:23.279Z</time></trkpt><trkpt lat="44.222945" lon="11.45521"><ele>497.0</ele><time>2026-04-18T11:29:24.279Z</time></trkpt><trkpt lat="44.22297" lon="11.4553433"><ele>504.25</ele><time>2026-04-18T11:29:25.283Z</time></trkpt><trkpt lat="44.223" lon="11.45549"><ele>511.5</ele><time>2026-04-18T11:29:26.28Z</time></trkpt><trkpt lat="44.2230283" lon="11.4556533"><ele>518.75</ele><time>2026-04-18T11:29:27.278Z</time></trkpt><trkpt lat="44.223055" lon="11.455815"><ele>526.0</ele><time>2026-04-18T11:29:28.281Z</time></trkpt><trkpt lat="44.2230783" lon="11.4559717"><ele>526.0</ele><time>2026-04-18T11:29:29.281Z</time></trkpt><trkpt lat="44.2231017" lon="11.456105"><ele>526.0</ele><time>2026-04-18T11:29:30.279Z</time></trkpt><trkpt lat="44.2231217" lon="11.4562133"><ele>526.0</ele><time>2026-04-18T11:29:31.279Z</time></trkpt><trkpt lat="44.2231683" lon="11.45634"><ele>526.0</ele><time>2026-04-18T11:29:33.281Z</time></trkpt><trkpt lat="44.2232183" lon="11.4564283"><ele>526.0</ele><time>2026-04-18T11:29:35.28Z</time></trkpt><trkpt lat="44.2232933" lon="11.4564533"><ele>526.0</ele><time>2026-04-18T11:30:59.281Z</time></trkpt><trkpt lat="44.2234217" lon="11.456465"><ele>524.8333333333334</ele><time>2026-04-18T11:31:01.279Z</time></trkpt><trkpt lat="44.223505" lon="11.456455"><ele>523.6666666666667</ele><time>2026-04-18T11:31:02.281Z</time></trkpt><trkpt lat="44.2235933" lon="11.4564367"><ele>522.5</ele><time>2026-04-18T11:31:03.281Z</time></trkpt><trkpt lat="44.2236833" lon="11.4564133"><ele>521.3333333333334</ele><time>2026-04-18T11:31:04.28Z</time></trkpt><trkpt lat="44.22377" lon="11.45639"><ele>520.1666666666666</ele><time>2026-04-18T11:31:05.28Z</time></trkpt><trkpt lat="44.2238583" lon="11.4563783"><ele>519.0</ele><time>2026-04-18T11:31:06.279Z</time></trkpt><trkpt lat="44.2239467" lon="11.4563867"><ele>516.8</ele><time>2026-04-18T11:31:07.279Z</time></trkpt><trkpt lat="44.2240317" lon="11.4564117"><ele>514.5999999999999</ele><time>2026-04-18T11:31:08.281Z</time></trkpt><trkpt lat="44.2241283" lon="11.4564567"><ele>512.4</ele><time>2026-04-18T11:31:09.28Z</time></trkpt><trkpt lat="44.2242267" lon="11.4565233"><ele>510.2</ele><time>2026-04-18T11:31:10.28Z</time></trkpt><trkpt lat="44.2243317" lon="11.4565917"><ele>508.0</ele><time>2026-04-18T11:31:11.28Z</time></trkpt><trkpt lat="44.2244417" lon="11.4566633"><ele>508.0</ele><time>2026-04-18T11:31:12.28Z</time></trkpt><trkpt lat="44.2245583" lon="11.4567383"><ele>508.0</ele><time>2026-04-18T11:31:13.281Z</time></trkpt><trkpt lat="44.2246733" lon="11.4568133"><ele>508.0</ele><time>2026-04-18T11:31:14.28Z</time></trkpt><trkpt lat="44.22478" lon="11.45688"><ele>508.0</ele><time>2026-04-18T11:31:15.278Z</time></trkpt><trkpt lat="44.2248867" lon="11.4569517"><ele>506.79999999999995</ele><time>2026-04-18T11:31:16.278Z</time></trkpt><trkpt lat="44.224985" lon="11.4570167"><ele>505.59999999999997</ele><time>2026-04-18T11:31:17.281Z</time></trkpt><trkpt lat="44.2250783" lon="11.4570817"><ele>504.40000000000003</ele><time>2026-04-18T11:31:18.28Z</time></trkpt><trkpt lat="44.2251617" lon="11.4571567"><ele>503.20000000000005</ele><time>2026-04-18T11:31:19.281Z</time></trkpt><trkpt lat="44.225225" lon="11.4572433"><ele>502.0</ele><time>2026-04-18T11:31:20.28Z</time></trkpt><trkpt lat="44.2252717" lon="11.4573333"><ele>502.0</ele><time>2026-04-18T11:31:21.28Z</time></trkpt><trkpt lat="44.2253117" lon="11.45742"><ele>502.00000000000006</ele><time>2026-04-18T11:31:22.28Z</time></trkpt><trkpt lat="44.2253533" lon="11.4575"><ele>502.00000000000006</ele><time>2026-04-18T11:31:23.28Z</time></trkpt><trkpt lat="44.2254417" lon="11.4575733"><ele>502.0</ele><time>2026-04-18T11:31:25.28Z</time></trkpt><trkpt lat="44.2255367" lon="11.457625"><ele>502.0</ele><time>2026-04-18T11:31:27.279Z</time></trkpt><trkpt lat="44.2256433" lon="11.457735"><ele>500.0</ele><time>2026-04-18T11:31:29.28Z</time></trkpt><trkpt lat="44.225695" lon="11.45781"><ele>498.00000000000006</ele><time>2026-04-18T11:31:30.28Z</time></trkpt><trkpt lat="44.22575" lon="11.4579383"><ele>496.00000000000006</ele><time>2026-04-18T11:31:31.281Z</time></trkpt><trkpt lat="44.2257983" lon="11.458075"><ele>494.0</ele><time>2026-04-18T11:31:32.28Z</time></trkpt><trkpt lat="44.22582" lon="11.458215"><ele>492.0</ele><time>2026-04-18T11:31:33.279Z</time></trkpt><trkpt lat="44.2258083" lon="11.458345"><ele>492.0</ele><time>2026-04-18T11:31:34.28Z</time></trkpt><trkpt lat="44.2257767" lon="11.4584583"><ele>492.00000000000006</ele><time>2026-04-18T11:31:35.279Z</time></trkpt><trkpt lat="44.2257217" lon="11.458555"><ele>492.00000000000006</ele><time>2026-04-18T11:31:36.279Z</time></trkpt><trkpt lat="44.2256217" lon="11.458625"><ele>492.0</ele><time>2026-04-18T11:31:37.28Z</time></trkpt><trkpt lat="44.225495" lon="11.458685"><ele>492.0</ele><time>2026-04-18T11:31:38.28Z</time></trkpt><trkpt lat="44.2253483" lon="11.4587317"><ele>490.33333333333337</ele><time>2026-04-18T11:31:39.282Z</time></trkpt><trkpt lat="44.2251933" lon="11.4587667"><ele>488.6666666666667</ele><time>2026-04-18T11:31:40.279Z</time></trkpt><trkpt lat="44.2250383" lon="11.458795"><ele>487.0</ele><time>2026-04-18T11:31:41.281Z</time></trkpt><trkpt lat="44.2248817" lon="11.4588383"><ele>494.6666666666667</ele><time>2026-04-18T11:31:42.28Z</time></trkpt><trkpt lat="44.2247283" lon="11.4588967"><ele>502.33333333333337</ele><time>2026-04-18T11:31:43.28Z</time></trkpt><trkpt lat="44.224575" lon="11.4589667"><ele>510.0</ele><time>2026-04-18T11:31:44.281Z</time></trkpt><trkpt lat="44.2244183" lon="11.4590517"><ele>510.0</ele><time>2026-04-18T11:31:45.281Z</time></trkpt><trkpt lat="44.2242633" lon="11.459155"><ele>510.0</ele><time>2026-04-18T11:31:46.281Z</time></trkpt><trkpt lat="44.224105" lon="11.4592683"><ele>510.0</ele><time>2026-04-18T11:31:47.281Z</time></trkpt><trkpt lat="44.2239467" lon="11.4593683"><ele>508.66666666666663</ele><time>2026-04-18T11:31:48.279Z</time></trkpt><trkpt lat="44.2237833" lon="11.4594583"><ele>507.3333333333333</ele><time>2026-04-18T11:31:49.279Z</time></trkpt><trkpt lat="44.22363" lon="11.4595383"><ele>506.0</ele><time>2026-04-18T11:31:50.281Z</time></trkpt><trkpt lat="44.2234883" lon="11.4596183"><ele>506.0</ele><time>2026-04-18T11:31:51.279Z</time></trkpt><trkpt lat="44.223365" lon="11.4597117"><ele>506.0</ele><time>2026-04-18T11:31:52.28Z</time></trkpt><trkpt lat="44.22326" lon="11.45983"><ele>506.0</ele><time>2026-04-18T11:31:53.281Z</time></trkpt><trkpt lat="44.2231583" lon="11.4599617"><ele>506.0</ele><time>2026-04-18T11:31:54.28Z</time></trkpt><trkpt lat="44.2230867" lon="11.4601217"><ele>516.0</ele><time>2026-04-18T11:31:55.278Z</time></trkpt><trkpt lat="44.22307" lon="11.4603383"><ele>526.0</ele><time>2026-04-18T11:31:56.28Z</time></trkpt><trkpt lat="44.2230783" lon="11.4605517"><ele>536.0</ele><time>2026-04-18T11:31:57.28Z</time></trkpt><trkpt lat="44.22309" lon="11.4607683"><ele>536.0</ele><time>2026-04-18T11:31:58.278Z</time></trkpt><trkpt lat="44.2230967" lon="11.4609867"><ele>536.0</ele><time>2026-04-18T11:31:59.28Z</time></trkpt><trkpt lat="44.2231017" lon="11.4612133"><ele>536.0</ele><time>2026-04-18T11:32:00.279Z</time></trkpt><trkpt lat="44.223115" lon="11.46142"><ele>536.25</ele><time>2026-04-18T11:32:01.279Z</time></trkpt><trkpt lat="44.2231283" lon="11.4616133"><ele>536.5</ele><time>2026-04-18T11:32:02.28Z</time></trkpt><trkpt lat="44.223125" lon="11.4618"><ele>536.75</ele><time>2026-04-18T11:32:03.282Z</time></trkpt><trkpt lat="44.2230967" lon="11.46198"><ele>537.0</ele><time>2026-04-18T11:32:04.282Z</time></trkpt><trkpt lat="44.2230533" lon="11.46215"><ele>532.25</ele><time>2026-04-18T11:32:05.282Z</time></trkpt><trkpt lat="44.22299" lon="11.4623133"><ele>527.5</ele><time>2026-04-18T11:32:06.282Z</time></trkpt><trkpt lat="44.2228967" lon="11.46245"><ele>522.75</ele><time>2026-04-18T11:32:07.28Z</time></trkpt><trkpt lat="44.2227883" lon="11.4625583"><ele>518.0</ele><time>2026-04-18T11:32:08.28Z</time></trkpt><trkpt lat="44.22266" lon="11.4626517"><ele>518.0</ele><time>2026-04-18T11:32:09.279Z</time></trkpt><trkpt lat="44.2225483" lon="11.4627417"><ele>518.0</ele><time>2026-04-18T11:32:10.279Z</time></trkpt><trkpt lat="44.2224383" lon="11.4628183"><ele>518.0</ele><time>2026-04-18T11:32:11.279Z</time></trkpt><trkpt lat="44.2223333" lon="11.4628883"><ele>518.0</ele><time>2026-04-18T11:32:12.279Z</time></trkpt><trkpt lat="44.2222383" lon="11.4629617"><ele>520.0</ele><time>2026-04-18T11:32:13.279Z</time></trkpt><trkpt lat="44.2221533" lon="11.463065"><ele>522.0</ele><time>2026-04-18T11:32:14.279Z</time></trkpt><trkpt lat="44.2221" lon="11.4632067"><ele>524.0</ele><time>2026-04-18T11:32:15.279Z</time></trkpt><trkpt lat="44.2220783" lon="11.463365"><ele>526.0</ele><time>2026-04-18T11:32:16.28Z</time></trkpt><trkpt lat="44.222105" lon="11.4635433"><ele>526.0</ele><time>2026-04-18T11:32:17.279Z</time></trkpt><trkpt lat="44.222175" lon="11.46373"><ele>526.0</ele><time>2026-04-18T11:32:18.281Z</time></trkpt><trkpt lat="44.2222517" lon="11.4639333"><ele>526.0</ele><time>2026-04-18T11:32:19.281Z</time></trkpt><trkpt lat="44.22235" lon="11.464135"><ele>520.6666666666667</ele><time>2026-04-18T11:32:20.282Z</time></trkpt><trkpt lat="44.2224667" lon="11.46433"><ele>515.3333333333334</ele><time>2026-04-18T11:32:21.281Z</time></trkpt><trkpt lat="44.22259" lon="11.4645133"><ele>510.0</ele><time>2026-04-18T11:32:22.28Z</time></trkpt><trkpt lat="44.2227233" lon="11.46469"><ele>510.0</ele><time>2026-04-18T11:32:23.281Z</time></trkpt><trkpt lat="44.2228617" lon="11.46486"><ele>510.0</ele><time>2026-04-18T11:32:24.28Z</time></trkpt><trkpt lat="44.2230083" lon="11.4650167"><ele>510.0</ele><time>2026-04-18T11:32:25.281Z</time></trkpt><trkpt lat="44.2231633" lon="11.46516"><ele>508.33333333333337</ele><time>2026-04-18T11:32:26.28Z</time></trkpt><trkpt lat="44.2233233" lon="11.465285"><ele>506.6666666666667</ele><time>2026-04-18T11:32:27.28Z</time></trkpt><trkpt lat="44.2234783" lon="11.4654117"><ele>505.0</ele><time>2026-04-18T11:32:28.279Z</time></trkpt><trkpt lat="44.2236217" lon="11.4655283"><ele>505.0</ele><time>2026-04-18T11:32:29.281Z</time></trkpt><trkpt lat="44.223755" lon="11.46565"><ele>505.0</ele><time>2026-04-18T11:32:30.28Z</time></trkpt><trkpt lat="44.223885" lon="11.465785"><ele>505.0</ele><time>2026-04-18T11:32:31.28Z</time></trkpt><trkpt lat="44.2240117" lon="11.46593"><ele>501.33333333333337</ele><time>2026-04-18T11:32:32.28Z</time></trkpt><trkpt lat="44.2241417" lon="11.4660733"><ele>497.66666666666663</ele><time>2026-04-18T11:32:33.281Z</time></trkpt><trkpt lat="44.224275" lon="11.4662033"><ele>494.0</ele><time>2026-04-18T11:32:34.28Z</time></trkpt><trkpt lat="44.2244117" lon="11.4663133"><ele>491.3333333333333</ele><time>2026-04-18T11:32:35.283Z</time></trkpt><trkpt lat="44.2245617" lon="11.4663967"><ele>488.66666666666663</ele><time>2026-04-18T11:32:36.281Z</time></trkpt><trkpt lat="44.2247233" lon="11.4664533"><ele>486.0</ele><time>2026-04-18T11:32:37.281Z</time></trkpt><trkpt lat="44.22489" lon="11.466495"><ele>485.33333333333337</ele><time>2026-04-18T11:32:38.28Z</time></trkpt><trkpt lat="44.2250567" lon="11.4665367"><ele>484.6666666666667</ele><time>2026-04-18T11:32:39.28Z</time></trkpt><trkpt lat="44.225225" lon="11.466595"><ele>484.0</ele><time>2026-04-18T11:32:40.28Z</time></trkpt><trkpt lat="44.2253867" lon="11.46668"><ele>484.0</ele><time>2026-04-18T11:32:41.279Z</time></trkpt><trkpt lat="44.2255417" lon="11.4667817"><ele>484.0</ele><time>2026-04-18T11:32:42.28Z</time></trkpt><trkpt lat="44.2256917" lon="11.4669"><ele>484.0</ele><time>2026-04-18T11:32:43.281Z</time></trkpt><trkpt lat="44.2258367" lon="11.467045"><ele>481.0</ele><time>2026-04-18T11:32:44.28Z</time></trkpt><trkpt lat="44.2259717" lon="11.467215"><ele>478.0</ele><time>2026-04-18T11:32:45.279Z</time></trkpt><trkpt lat="44.2260983" lon="11.4673967"><ele>475.0</ele><time>2026-04-18T11:32:46.281Z</time></trkpt><trkpt lat="44.22622" lon="11.4675833"><ele>475.0</ele><time>2026-04-18T11:32:47.281Z</time></trkpt><trkpt lat="44.2263417" lon="11.46777"><ele>475.0</ele><time>2026-04-18T11:32:48.28Z</time></trkpt><trkpt lat="44.2264617" lon="11.4679483"><ele>475.0</ele><time>2026-04-18T11:32:49.28Z</time></trkpt><trkpt lat="44.22658" lon="11.468125"><ele>474.6666666666667</ele><time>2026-04-18T11:32:50.28Z</time></trkpt><trkpt lat="44.2266917" lon="11.4682967"><ele>474.33333333333337</ele><time>2026-04-18T11:32:51.28Z</time></trkpt><trkpt lat="44.2268" lon="11.46846"><ele>474.0</ele><time>2026-04-18T11:32:52.28Z</time></trkpt><trkpt lat="44.2269083" lon="11.4686067"><ele>474.0</ele><time>2026-04-18T11:32:53.283Z</time></trkpt><trkpt lat="44.2270217" lon="11.4687417"><ele>474.0</ele><time>2026-04-18T11:32:54.28Z</time></trkpt><trkpt lat="44.22714" lon="11.4688617"><ele>474.0</ele><time>2026-04-18T11:32:55.28Z</time></trkpt><trkpt lat="44.22726" lon="11.4689683"><ele>474.0</ele><time>2026-04-18T11:32:56.281Z</time></trkpt><trkpt lat="44.2273817" lon="11.4690667"><ele>471.75</ele><time>2026-04-18T11:32:57.28Z</time></trkpt><trkpt lat="44.2274983" lon="11.4691433"><ele>469.5</ele><time>2026-04-18T11:32:58.28Z</time></trkpt><trkpt lat="44.2276217" lon="11.4692"><ele>467.25</ele><time>2026-04-18T11:32:59.28Z</time></trkpt><trkpt lat="44.22775" lon="11.46925"><ele>465.0</ele><time>2026-04-18T11:33:00.281Z</time></trkpt><trkpt lat="44.2278683" lon="11.4693017"><ele>465.0</ele><time>2026-04-18T11:33:01.282Z</time></trkpt><trkpt lat="44.22799" lon="11.4693517"><ele>465.0</ele><time>2026-04-18T11:33:02.281Z</time></trkpt><trkpt lat="44.2281117" lon="11.4693783"><ele>465.0</ele><time>2026-04-18T11:33:03.28Z</time></trkpt><trkpt lat="44.228235" lon="11.4693833"><ele>465.0</ele><time>2026-04-18T11:33:04.281Z</time></trkpt><trkpt lat="44.2283517" lon="11.46935"><ele>465.0</ele><time>2026-04-18T11:33:05.28Z</time></trkpt><trkpt lat="44.22846" lon="11.4692967"><ele>465.0</ele><time>2026-04-18T11:33:06.28Z</time></trkpt><trkpt lat="44.228565" lon="11.4692367"><ele>465.0</ele><time>2026-04-18T11:33:07.28Z</time></trkpt><trkpt lat="44.228665" lon="11.4691867"><ele>465.0</ele><time>2026-04-18T11:33:08.28Z</time></trkpt><trkpt lat="44.2287733" lon="11.46916"><ele>465.0</ele><time>2026-04-18T11:33:09.281Z</time></trkpt><trkpt lat="44.2288783" lon="11.4691467"><ele>463.25</ele><time>2026-04-18T11:33:10.281Z</time></trkpt><trkpt lat="44.2289933" lon="11.469145"><ele>461.5</ele><time>2026-04-18T11:33:11.281Z</time></trkpt><trkpt lat="44.2291083" lon="11.4691567"><ele>459.75</ele><time>2026-04-18T11:33:12.28Z</time></trkpt><trkpt lat="44.2292283" lon="11.469185"><ele>458.0</ele><time>2026-04-18T11:33:13.28Z</time></trkpt><trkpt lat="44.22935" lon="11.4692217"><ele>458.0</ele><time>2026-04-18T11:33:14.28Z</time></trkpt><trkpt lat="44.229465" lon="11.4692667"><ele>458.0</ele><time>2026-04-18T11:33:15.28Z</time></trkpt><trkpt lat="44.2295783" lon="11.469315"><ele>458.0</ele><time>2026-04-18T11:33:16.28Z</time></trkpt><trkpt lat="44.2296833" lon="11.4693783"><ele>458.0</ele><time>2026-04-18T11:33:17.281Z</time></trkpt><trkpt lat="44.2297833" lon="11.4694533"><ele>458.0</ele><time>2026-04-18T11:33:18.281Z</time></trkpt><trkpt lat="44.2298683" lon="11.4695433"><ele>457.99999999999994</ele><time>2026-04-18T11:33:19.281Z</time></trkpt><trkpt lat="44.2299433" lon="11.4696583"><ele>457.99999999999994</ele><time>2026-04-18T11:33:20.281Z</time></trkpt><trkpt lat="44.2300067" lon="11.4697833"><ele>458.0</ele><time>2026-04-18T11:33:21.281Z</time></trkpt><trkpt lat="44.2300667" lon="11.4699167"><ele>458.0</ele><time>2026-04-18T11:33:22.28Z</time></trkpt><trkpt lat="44.23013" lon="11.47005"><ele>457.99999999999994</ele><time>2026-04-18T11:33:23.28Z</time></trkpt><trkpt lat="44.23019" lon="11.4701717"><ele>458.0</ele><time>2026-04-18T11:33:24.28Z</time></trkpt><trkpt lat="44.2302467" lon="11.4702817"><ele>458.0</ele><time>2026-04-18T11:33:25.28Z</time></trkpt><trkpt lat="44.2302933" lon="11.4703783"><ele>458.0</ele><time>2026-04-18T11:33:26.281Z</time></trkpt><trkpt lat="44.2303317" lon="11.4704483"><ele>457.99999999999994</ele><time>2026-04-18T11:33:27.28Z</time></trkpt><trkpt lat="44.23038" lon="11.47053"><ele>458.0</ele><time>2026-04-18T11:33:29.279Z</time></trkpt><trkpt lat="44.2304483" lon="11.470585"><ele>458.0</ele><time>2026-04-18T11:34:09.281Z</time></trkpt><trkpt lat="44.23056" lon="11.470615"><ele>457.99999999999994</ele><time>2026-04-18T11:34:11.281Z</time></trkpt><trkpt lat="44.2306617" lon="11.4706433"><ele>457.99999999999994</ele><time>2026-04-18T11:34:12.281Z</time></trkpt><trkpt lat="44.2307517" lon="11.470655"><ele>458.0</ele><time>2026-04-18T11:34:13.281Z</time></trkpt><trkpt lat="44.230845" lon="11.4706517"><ele>458.0</ele><time>2026-04-18T11:34:14.28Z</time></trkpt><trkpt lat="44.230945" lon="11.4706383"><ele>458.0</ele><time>2026-04-18T11:34:15.28Z</time></trkpt><trkpt lat="44.231045" lon="11.4705933"><ele>457.99999999999994</ele><time>2026-04-18T11:34:16.281Z</time></trkpt><trkpt lat="44.2311417" lon="11.470545"><ele>457.99999999999994</ele><time>2026-04-18T11:34:17.28Z</time></trkpt><trkpt lat="44.2312333" lon="11.4705033"><ele>458.0</ele><time>2026-04-18T11:34:18.282Z</time></trkpt><trkpt lat="44.2313217" lon="11.47048"><ele>458.0</ele><time>2026-04-18T11:34:19.278Z</time></trkpt><trkpt lat="44.2314033" lon="11.4704933"><ele>458.4</ele><time>2026-04-18T11:34:20.279Z</time></trkpt><trkpt lat="44.2314867" lon="11.4705517"><ele>458.79999999999995</ele><time>2026-04-18T11:34:21.281Z</time></trkpt><trkpt lat="44.2315633" lon="11.4706433"><ele>459.2</ele><time>2026-04-18T11:34:22.28Z</time></trkpt><trkpt lat="44.2316367" lon="11.4707617"><ele>459.6</ele><time>2026-04-18T11:34:23.281Z</time></trkpt><trkpt lat="44.2317133" lon="11.4709267"><ele>460.0</ele><time>2026-04-18T11:34:24.279Z</time></trkpt><trkpt lat="44.2317867" lon="11.47108"><ele>460.0</ele><time>2026-04-18T11:34:25.281Z</time></trkpt><trkpt lat="44.2318633" lon="11.471235"><ele>460.0</ele><time>2026-04-18T11:34:26.284Z</time></trkpt><trkpt lat="44.2319467" lon="11.471395"><ele>460.0</ele><time>2026-04-18T11:34:27.281Z</time></trkpt><trkpt lat="44.2320333" lon="11.4715667"><ele>460.0</ele><time>2026-04-18T11:34:28.282Z</time></trkpt><trkpt lat="44.232125" lon="11.4717483"><ele>457.5</ele><time>2026-04-18T11:34:29.283Z</time></trkpt><trkpt lat="44.2322133" lon="11.4719133"><ele>455.0</ele><time>2026-04-18T11:34:30.283Z</time></trkpt><trkpt lat="44.2323" lon="11.4720717"><ele>452.5</ele><time>2026-04-18T11:34:31.28Z</time></trkpt><trkpt lat="44.2323733" lon="11.4722333"><ele>450.0</ele><time>2026-04-18T11:34:32.28Z</time></trkpt><trkpt lat="44.2324183" lon="11.472415"><ele>454.5</ele><time>2026-04-18T11:34:33.281Z</time></trkpt><trkpt lat="44.2324283" lon="11.4726067"><ele>459.0</ele><time>2026-04-18T11:34:34.281Z</time></trkpt><trkpt lat="44.2324183" lon="11.47279"><ele>463.5</ele><time>2026-04-18T11:34:35.28Z</time></trkpt><trkpt lat="44.2323983" lon="11.4729617"><ele>468.0</ele><time>2026-04-18T11:34:36.28Z</time></trkpt><trkpt lat="44.2323917" lon="11.473115"><ele>468.0</ele><time>2026-04-18T11:34:37.281Z</time></trkpt><trkpt lat="44.232405" lon="11.4732483"><ele>467.99999999999994</ele><time>2026-04-18T11:34:38.281Z</time></trkpt><trkpt lat="44.2324583" lon="11.4733667"><ele>467.99999999999994</ele><time>2026-04-18T11:34:39.281Z</time></trkpt><trkpt lat="44.2325367" lon="11.4734517"><ele>468.0</ele><time>2026-04-18T11:34:40.281Z</time></trkpt><trkpt lat="44.2326483" lon="11.47349"><ele>468.0</ele><time>2026-04-18T11:34:41.28Z</time></trkpt><trkpt lat="44.2327717" lon="11.4734733"><ele>468.0</ele><time>2026-04-18T11:34:42.281Z</time></trkpt><trkpt lat="44.23289" lon="11.4734417"><ele>467.99999999999994</ele><time>2026-04-18T11:34:43.28Z</time></trkpt><trkpt lat="44.2329933" lon="11.4734317"><ele>467.99999999999994</ele><time>2026-04-18T11:34:44.281Z</time></trkpt><trkpt lat="44.23309" lon="11.47347"><ele>468.0</ele><time>2026-04-18T11:34:45.28Z</time></trkpt><trkpt lat="44.2331667" lon="11.4735533"><ele>468.0</ele><time>2026-04-18T11:34:46.281Z</time></trkpt><trkpt lat="44.2332233" lon="11.4736783"><ele>472.0</ele><time>2026-04-18T11:34:47.279Z</time></trkpt><trkpt lat="44.2332533" lon="11.4738433"><ele>476.0</ele><time>2026-04-18T11:34:48.281Z</time></trkpt><trkpt lat="44.2332683" lon="11.4740317"><ele>480.0</ele><time>2026-04-18T11:34:49.28Z</time></trkpt><trkpt lat="44.2332783" lon="11.47424"><ele>484.0</ele><time>2026-04-18T11:34:50.281Z</time></trkpt><trkpt lat="44.2332917" lon="11.474445"><ele>483.0</ele><time>2026-04-18T11:34:51.28Z</time></trkpt><trkpt lat="44.2333033" lon="11.4746467"><ele>482.0</ele><time>2026-04-18T11:34:52.281Z</time></trkpt><trkpt lat="44.233315" lon="11.474825"><ele>481.0</ele><time>2026-04-18T11:34:53.28Z</time></trkpt><trkpt lat="44.2333333" lon="11.474985"><ele>480.0</ele><time>2026-04-18T11:34:54.281Z</time></trkpt><trkpt lat="44.2333717" lon="11.4751217"><ele>480.0</ele><time>2026-04-18T11:34:55.28Z</time></trkpt><trkpt lat="44.2334333" lon="11.4752467"><ele>480.0</ele><time>2026-04-18T11:34:56.281Z</time></trkpt><trkpt lat="44.2335217" lon="11.47534"><ele>480.0</ele><time>2026-04-18T11:34:57.28Z</time></trkpt><trkpt lat="44.2336383" lon="11.4754"><ele>480.0</ele><time>2026-04-18T11:34:58.281Z</time></trkpt><trkpt lat="44.2337717" lon="11.47547"><ele>481.0</ele><time>2026-04-18T11:34:59.281Z</time></trkpt><trkpt lat="44.23391" lon="11.4755383"><ele>482.0</ele><time>2026-04-18T11:35:00.28Z</time></trkpt><trkpt lat="44.2340417" lon="11.4756333"><ele>483.0</ele><time>2026-04-18T11:35:01.281Z</time></trkpt><trkpt lat="44.2341633" lon="11.4757483"><ele>484.0</ele><time>2026-04-18T11:35:02.282Z</time></trkpt><trkpt lat="44.2342733" lon="11.4758817"><ele>484.0</ele><time>2026-04-18T11:35:03.28Z</time></trkpt><trkpt lat="44.2343733" lon="11.4760317"><ele>484.0</ele><time>2026-04-18T11:35:04.28Z</time></trkpt><trkpt lat="44.234485" lon="11.4761617"><ele>484.0</ele><time>2026-04-18T11:35:05.28Z</time></trkpt><trkpt lat="44.2346133" lon="11.47626"><ele>484.0</ele><time>2026-04-18T11:35:06.281Z</time></trkpt><trkpt lat="44.234745" lon="11.4763617"><ele>483.75</ele><time>2026-04-18T11:35:07.28Z</time></trkpt><trkpt lat="44.2348717" lon="11.4764467"><ele>483.5</ele><time>2026-04-18T11:35:08.282Z</time></trkpt><trkpt lat="44.234995" lon="11.4765333"><ele>483.25</ele><time>2026-04-18T11:35:09.28Z</time></trkpt><trkpt lat="44.235105" lon="11.476625"><ele>483.0</ele><time>2026-04-18T11:35:10.28Z</time></trkpt><trkpt lat="44.2352" lon="11.4767417"><ele>483.0</ele><time>2026-04-18T11:35:11.28Z</time></trkpt><trkpt lat="44.2352783" lon="11.47687"><ele>483.0</ele><time>2026-04-18T11:35:12.28Z</time></trkpt><trkpt lat="44.235345" lon="11.4770133"><ele>483.0</ele><time>2026-04-18T11:35:13.281Z</time></trkpt><trkpt lat="44.2354083" lon="11.4771617"><ele>483.0</ele><time>2026-04-18T11:35:14.28Z</time></trkpt><trkpt lat="44.2354683" lon="11.4772983"><ele>482.0</ele><time>2026-04-18T11:35:15.279Z</time></trkpt><trkpt lat="44.2355267" lon="11.47742"><ele>480.99999999999994</ele><time>2026-04-18T11:35:16.28Z</time></trkpt><trkpt lat="44.2355867" lon="11.4775367"><ele>479.99999999999994</ele><time>2026-04-18T11:35:17.281Z</time></trkpt><trkpt lat="44.2356517" lon="11.47765"><ele>479.0</ele><time>2026-04-18T11:35:18.281Z</time></trkpt><trkpt lat="44.235725" lon="11.4777533"><ele>478.0</ele><time>2026-04-18T11:35:19.28Z</time></trkpt><trkpt lat="44.2358117" lon="11.4778517"><ele>478.0</ele><time>2026-04-18T11:35:20.281Z</time></trkpt><trkpt lat="44.2359283" lon="11.4779033"><ele>478.0</ele><time>2026-04-18T11:35:21.28Z</time></trkpt><trkpt lat="44.2360583" lon="11.477945"><ele>478.0</ele><time>2026-04-18T11:35:22.281Z</time></trkpt><trkpt lat="44.2361983" lon="11.47796"><ele>478.0</ele><time>2026-04-18T11:35:23.28Z</time></trkpt><trkpt lat="44.2363483" lon="11.4779667"><ele>477.75</ele><time>2026-04-18T11:35:24.28Z</time></trkpt><trkpt lat="44.2364983" lon="11.4779733"><ele>477.5</ele><time>2026-04-18T11:35:25.281Z</time></trkpt><trkpt lat="44.236645" lon="11.477995"><ele>477.25</ele><time>2026-04-18T11:35:26.281Z</time></trkpt><trkpt lat="44.2367817" lon="11.4780433"><ele>477.0</ele><time>2026-04-18T11:35:27.281Z</time></trkpt><trkpt lat="44.236905" lon="11.478105"><ele>477.0</ele><time>2026-04-18T11:35:28.28Z</time></trkpt><trkpt lat="44.237015" lon="11.4781833"><ele>477.00000000000006</ele><time>2026-04-18T11:35:29.281Z</time></trkpt><trkpt lat="44.2371133" lon="11.4782633"><ele>477.00000000000006</ele><time>2026-04-18T11:35:30.28Z</time></trkpt><trkpt lat="44.2372083" lon="11.4783083"><ele>477.0</ele><time>2026-04-18T11:35:31.28Z</time></trkpt><trkpt lat="44.2373117" lon="11.4783"><ele>477.0</ele><time>2026-04-18T11:35:32.281Z</time></trkpt><trkpt lat="44.2374133" lon="11.4782483"><ele>477.5</ele><time>2026-04-18T11:35:33.28Z</time></trkpt><trkpt lat="44.2375167" lon="11.478165"><ele>478.0</ele><time>2026-04-18T11:35:34.28Z</time></trkpt><trkpt lat="44.2376233" lon="11.4780917"><ele>478.5</ele><time>2026-04-18T11:35:35.279Z</time></trkpt><trkpt lat="44.2377483" lon="11.4780717"><ele>479.0</ele><time>2026-04-18T11:35:36.28Z</time></trkpt><trkpt lat="44.2378833" lon="11.4780883"><ele>479.0</ele><time>2026-04-18T11:35:37.28Z</time></trkpt><trkpt lat="44.2380283" lon="11.4781583"><ele>479.0</ele><time>2026-04-18T11:35:38.28Z</time></trkpt><trkpt lat="44.23818" lon="11.478275"><ele>479.0</ele><time>2026-04-18T11:35:39.281Z</time></trkpt><trkpt lat="44.23833" lon="11.4784"><ele>479.3333333333333</ele><time>2026-04-18T11:35:40.281Z</time></trkpt><trkpt lat="44.2384883" lon="11.47854"><ele>479.66666666666663</ele><time>2026-04-18T11:35:41.28Z</time></trkpt><trkpt lat="44.2386467" lon="11.478665"><ele>480.0</ele><time>2026-04-18T11:35:42.28Z</time></trkpt><trkpt lat="44.2388083" lon="11.47877"><ele>481.0</ele><time>2026-04-18T11:35:43.281Z</time></trkpt><trkpt lat="44.2389683" lon="11.4788733"><ele>482.0</ele><time>2026-04-18T11:35:44.282Z</time></trkpt><trkpt lat="44.2391267" lon="11.4789717"><ele>483.0</ele><time>2026-04-18T11:35:45.281Z</time></trkpt><trkpt lat="44.23927" lon="11.4790633"><ele>483.0</ele><time>2026-04-18T11:35:46.28Z</time></trkpt><trkpt lat="44.2394133" lon="11.479155"><ele>483.0</ele><time>2026-04-18T11:35:47.282Z</time></trkpt><trkpt lat="44.2395467" lon="11.479255"><ele>483.0</ele><time>2026-04-18T11:35:48.28Z</time></trkpt><trkpt lat="44.2396667" lon="11.479365"><ele>483.0</ele><time>2026-04-18T11:35:49.28Z</time></trkpt><trkpt lat="44.239775" lon="11.4794867"><ele>483.0</ele><time>2026-04-18T11:35:50.282Z</time></trkpt><trkpt lat="44.2398717" lon="11.479625"><ele>483.0</ele><time>2026-04-18T11:35:51.28Z</time></trkpt><trkpt lat="44.2399683" lon="11.4797667"><ele>483.0</ele><time>2026-04-18T11:35:52.281Z</time></trkpt><trkpt lat="44.2400633" lon="11.47992"><ele>482.25</ele><time>2026-04-18T11:35:53.281Z</time></trkpt><trkpt lat="44.2401633" lon="11.480075"><ele>481.5</ele><time>2026-04-18T11:35:54.281Z</time></trkpt><trkpt lat="44.2402633" lon="11.4802233"><ele>480.75</ele><time>2026-04-18T11:35:55.28Z</time></trkpt><trkpt lat="44.2403683" lon="11.4803667"><ele>480.0</ele><time>2026-04-18T11:35:56.28Z</time></trkpt><trkpt lat="44.2404733" lon="11.4805083"><ele>481.75</ele><time>2026-04-18T11:35:57.28Z</time></trkpt><trkpt lat="44.240575" lon="11.48065"><ele>483.5</ele><time>2026-04-18T11:35:58.282Z</time></trkpt><trkpt lat="44.2406667" lon="11.48078"><ele>485.25</ele><time>2026-04-18T11:35:59.281Z</time></trkpt><trkpt lat="44.2407483" lon="11.4809017"><ele>487.0</ele><time>2026-04-18T11:36:00.28Z</time></trkpt><trkpt lat="44.2408217" lon="11.4810117"><ele>487.00000000000006</ele><time>2026-04-18T11:36:01.28Z</time></trkpt><trkpt lat="44.2408817" lon="11.4811067"><ele>487.0</ele><time>2026-04-18T11:36:02.28Z</time></trkpt><trkpt lat="44.240925" lon="11.4811867"><ele>487.0</ele><time>2026-04-18T11:36:03.28Z</time></trkpt><trkpt lat="44.2409767" lon="11.4813217"><ele>487.0</ele><time>2026-04-18T11:36:05.281Z</time></trkpt><trkpt lat="44.241025" lon="11.4814217"><ele>487.00000000000006</ele><time>2026-04-18T11:36:07.28Z</time></trkpt><trkpt lat="44.2410767" lon="11.48149"><ele>487.0</ele><time>2026-04-18T11:36:10.281Z</time></trkpt><trkpt lat="44.2411117" lon="11.48158"><ele>486.6</ele><time>2026-04-18T11:36:57.28Z</time></trkpt><trkpt lat="44.2411417" lon="11.481725"><ele>486.20000000000005</ele><time>2026-04-18T11:36:59.28Z</time></trkpt><trkpt lat="44.24119" lon="11.4818183"><ele>485.8</ele><time>2026-04-18T11:37:00.282Z</time></trkpt><trkpt lat="44.241265" lon="11.4819167"><ele>485.4</ele><time>2026-04-18T11:37:01.28Z</time></trkpt><trkpt lat="44.241355" lon="11.482"><ele>485.0</ele><time>2026-04-18T11:37:02.282Z</time></trkpt><trkpt lat="44.241455" lon="11.48206"><ele>482.8</ele><time>2026-04-18T11:37:03.281Z</time></trkpt><trkpt lat="44.241555" lon="11.4821217"><ele>480.6</ele><time>2026-04-18T11:37:04.281Z</time></trkpt><trkpt lat="44.2416533" lon="11.4821733"><ele>478.4</ele><time>2026-04-18T11:37:05.282Z</time></trkpt><trkpt lat="44.2417567" lon="11.4822333"><ele>476.2</ele><time>2026-04-18T11:37:06.28Z</time></trkpt><trkpt lat="44.2418467" lon="11.4823133"><ele>474.0</ele><time>2026-04-18T11:37:07.282Z</time></trkpt><trkpt lat="44.24193" lon="11.4824233"><ele>474.0</ele><time>2026-04-18T11:37:08.281Z</time></trkpt><trkpt lat="44.2419983" lon="11.4825567"><ele>474.0</ele><time>2026-04-18T11:37:09.282Z</time></trkpt><trkpt lat="44.2420717" lon="11.4826983"><ele>474.0</ele><time>2026-04-18T11:37:10.28Z</time></trkpt><trkpt lat="44.242155" lon="11.4828433"><ele>474.0</ele><time>2026-04-18T11:37:11.282Z</time></trkpt><trkpt lat="44.2422283" lon="11.4829883"><ele>477.25</ele><time>2026-04-18T11:37:12.283Z</time></trkpt><trkpt lat="44.242285" lon="11.483135"><ele>480.5</ele><time>2026-04-18T11:37:13.281Z</time></trkpt><trkpt lat="44.242325" lon="11.483285"><ele>483.75</ele><time>2026-04-18T11:37:14.281Z</time></trkpt><trkpt lat="44.2423467" lon="11.4834433"><ele>487.0</ele><time>2026-04-18T11:37:15.282Z</time></trkpt><trkpt lat="44.2423517" lon="11.483605"><ele>486.5</ele><time>2026-04-18T11:37:16.281Z</time></trkpt><trkpt lat="44.24233" lon="11.483765"><ele>486.0</ele><time>2026-04-18T11:37:17.281Z</time></trkpt><trkpt lat="44.2423017" lon="11.48393"><ele>485.5</ele><time>2026-04-18T11:37:18.28Z</time></trkpt><trkpt lat="44.2422633" lon="11.4840817"><ele>485.0</ele><time>2026-04-18T11:37:19.282Z</time></trkpt><trkpt lat="44.2422267" lon="11.4842217"><ele>478.2</ele><time>2026-04-18T11:37:20.282Z</time></trkpt><trkpt lat="44.2421967" lon="11.4843233"><ele>471.4</ele><time>2026-04-18T11:37:21.283Z</time></trkpt><trkpt lat="44.2421717" lon="11.484435"><ele>464.6</ele><time>2026-04-18T11:37:22.282Z</time></trkpt><trkpt lat="44.2421967" lon="11.48455"><ele>457.8</ele><time>2026-04-18T11:37:23.282Z</time></trkpt><trkpt lat="44.2422233" lon="11.484695"><ele>451.0</ele><time>2026-04-18T11:37:24.28Z</time></trkpt><trkpt lat="44.24223" lon="11.48486"><ele>451.0</ele><time>2026-04-18T11:37:25.281Z</time></trkpt><trkpt lat="44.2421983" lon="11.4850317"><ele>451.0</ele><time>2026-04-18T11:37:26.283Z</time></trkpt><trkpt lat="44.242155" lon="11.485195"><ele>451.0</ele><time>2026-04-18T11:37:27.28Z</time></trkpt><trkpt lat="44.2420983" lon="11.48535"><ele>451.0</ele><time>2026-04-18T11:37:28.281Z</time></trkpt><trkpt lat="44.2420533" lon="11.4855083"><ele>451.0</ele><time>2026-04-18T11:37:29.281Z</time></trkpt><trkpt lat="44.2420067" lon="11.4858333"><ele>451.0</ele><time>2026-04-18T11:37:31.281Z</time></trkpt><trkpt lat="44.241985" lon="11.4859967"><ele>451.0</ele><time>2026-04-18T11:37:32.28Z</time></trkpt><trkpt lat="44.241965" lon="11.486165"><ele>450.5</ele><time>2026-04-18T11:37:33.28Z</time></trkpt><trkpt lat="44.2419517" lon="11.486335"><ele>450.0</ele><time>2026-04-18T11:37:34.279Z</time></trkpt><trkpt lat="44.2419633" lon="11.4865133"><ele>449.5</ele><time>2026-04-18T11:37:35.281Z</time></trkpt><trkpt lat="44.241985" lon="11.4866933"><ele>449.0</ele><time>2026-04-18T11:37:36.279Z</time></trkpt><trkpt lat="44.2420067" lon="11.4868667"><ele>449.0</ele><time>2026-04-18T11:37:37.282Z</time></trkpt><trkpt lat="44.2420317" lon="11.4870433"><ele>449.0</ele><time>2026-04-18T11:37:38.282Z</time></trkpt><trkpt lat="44.2420517" lon="11.4872133"><ele>449.0</ele><time>2026-04-18T11:37:39.281Z</time></trkpt><trkpt lat="44.2420583" lon="11.4873783"><ele>449.0</ele><time>2026-04-18T11:37:40.28Z</time></trkpt><trkpt lat="44.2420417" lon="11.4875533"><ele>449.0</ele><time>2026-04-18T11:37:41.28Z</time></trkpt><trkpt lat="44.2420017" lon="11.4877267"><ele>449.0</ele><time>2026-04-18T11:37:42.28Z</time></trkpt><trkpt lat="44.2419467" lon="11.4878933"><ele>449.0</ele><time>2026-04-18T11:37:43.28Z</time></trkpt><trkpt lat="44.241865" lon="11.4880417"><ele>449.0</ele><time>2026-04-18T11:37:44.281Z</time></trkpt><trkpt lat="44.2417567" lon="11.488175"><ele>447.3333333333333</ele><time>2026-04-18T11:37:45.28Z</time></trkpt><trkpt lat="44.2416233" lon="11.4882617"><ele>445.66666666666663</ele><time>2026-04-18T11:37:46.282Z</time></trkpt><trkpt lat="44.2414767" lon="11.4883267"><ele>444.0</ele><time>2026-04-18T11:37:47.28Z</time></trkpt><trkpt lat="44.241315" lon="11.4883783"><ele>444.0</ele><time>2026-04-18T11:37:48.281Z</time></trkpt><trkpt lat="44.241155" lon="11.4884167"><ele>444.0</ele><time>2026-04-18T11:37:49.28Z</time></trkpt><trkpt lat="44.2409967" lon="11.4884433"><ele>444.0</ele><time>2026-04-18T11:37:50.281Z</time></trkpt><trkpt lat="44.2408333" lon="11.4884583"><ele>444.0</ele><time>2026-04-18T11:37:51.28Z</time></trkpt><trkpt lat="44.24067" lon="11.4884667"><ele>444.0</ele><time>2026-04-18T11:37:52.281Z</time></trkpt><trkpt lat="44.2405083" lon="11.4884583"><ele>444.0</ele><time>2026-04-18T11:37:53.281Z</time></trkpt><trkpt lat="44.24033" lon="11.488455"><ele>443.25</ele><time>2026-04-18T11:37:54.28Z</time></trkpt><trkpt lat="44.2401817" lon="11.488465"><ele>442.5</ele><time>2026-04-18T11:37:55.281Z</time></trkpt><trkpt lat="44.240065" lon="11.48849"><ele>441.75</ele><time>2026-04-18T11:37:56.282Z</time></trkpt><trkpt lat="44.239955" lon="11.4885083"><ele>441.0</ele><time>2026-04-18T11:37:57.28Z</time></trkpt><trkpt lat="44.23983" lon="11.4884883"><ele>438.0</ele><time>2026-04-18T11:37:58.281Z</time></trkpt><trkpt lat="44.2397217" lon="11.4884117"><ele>435.0</ele><time>2026-04-18T11:37:59.279Z</time></trkpt><trkpt lat="44.239615" lon="11.48836"><ele>432.0</ele><time>2026-04-18T11:38:00.28Z</time></trkpt><trkpt lat="44.2395033" lon="11.48834"><ele>429.0</ele><time>2026-04-18T11:38:01.281Z</time></trkpt><trkpt lat="44.2393783" lon="11.4883583"><ele>429.0</ele><time>2026-04-18T11:38:02.28Z</time></trkpt><trkpt lat="44.2392467" lon="11.488415"><ele>429.0</ele><time>2026-04-18T11:38:03.281Z</time></trkpt><trkpt lat="44.2391133" lon="11.48848"><ele>429.0</ele><time>2026-04-18T11:38:04.281Z</time></trkpt><trkpt lat="44.2390033" lon="11.4885483"><ele>429.0</ele><time>2026-04-18T11:38:05.279Z</time></trkpt><trkpt lat="44.2389183" lon="11.4886167"><ele>431.0</ele><time>2026-04-18T11:38:06.281Z</time></trkpt><trkpt lat="44.2388733" lon="11.4887083"><ele>433.0</ele><time>2026-04-18T11:38:07.279Z</time></trkpt><trkpt lat="44.23887" lon="11.48882"><ele>435.0</ele><time>2026-04-18T11:38:08.281Z</time></trkpt><trkpt lat="44.238895" lon="11.48894"><ele>437.0</ele><time>2026-04-18T11:38:09.28Z</time></trkpt><trkpt lat="44.2389483" lon="11.489075"><ele>439.0</ele><time>2026-04-18T11:38:10.279Z</time></trkpt><trkpt lat="44.2390317" lon="11.48923"><ele>439.0</ele><time>2026-04-18T11:38:11.281Z</time></trkpt><trkpt lat="44.2390883" lon="11.4894"><ele>439.0</ele><time>2026-04-18T11:38:12.279Z</time></trkpt><trkpt lat="44.23912" lon="11.489565"><ele>439.0</ele><time>2026-04-18T11:38:13.28Z</time></trkpt><trkpt lat="44.2391217" lon="11.4897183"><ele>439.0</ele><time>2026-04-18T11:38:14.279Z</time></trkpt><trkpt lat="44.2391117" lon="11.4898617"><ele>436.79999999999995</ele><time>2026-04-18T11:38:15.278Z</time></trkpt><trkpt lat="44.239125" lon="11.489995"><ele>434.59999999999997</ele><time>2026-04-18T11:38:16.279Z</time></trkpt><trkpt lat="44.23917" lon="11.4901167"><ele>432.4</ele><time>2026-04-18T11:38:17.28Z</time></trkpt><trkpt lat="44.2392433" lon="11.4902083"><ele>430.2</ele><time>2026-04-18T11:38:18.28Z</time></trkpt><trkpt lat="44.23935" lon="11.4902717"><ele>428.0</ele><time>2026-04-18T11:38:19.282Z</time></trkpt><trkpt lat="44.2394417" lon="11.4903667"><ele>424.25</ele><time>2026-04-18T11:38:20.279Z</time></trkpt><trkpt lat="44.23954" lon="11.4905167"><ele>420.5</ele><time>2026-04-18T11:38:21.281Z</time></trkpt><trkpt lat="44.2396117" lon="11.49069"><ele>416.75</ele><time>2026-04-18T11:38:22.279Z</time></trkpt><trkpt lat="44.23966" lon="11.4908917"><ele>413.0</ele><time>2026-04-18T11:38:23.281Z</time></trkpt><trkpt lat="44.2396533" lon="11.4911067"><ele>413.3333333333333</ele><time>2026-04-18T11:38:24.28Z</time></trkpt><trkpt lat="44.239605" lon="11.4913067"><ele>413.66666666666663</ele><time>2026-04-18T11:38:25.278Z</time></trkpt><trkpt lat="44.2395233" lon="11.49149"><ele>414.0</ele><time>2026-04-18T11:38:26.28Z</time></trkpt><trkpt lat="44.2393933" lon="11.4916367"><ele>414.0</ele><time>2026-04-18T11:38:27.281Z</time></trkpt><trkpt lat="44.239255" lon="11.4917533"><ele>414.0</ele><time>2026-04-18T11:38:28.281Z</time></trkpt><trkpt lat="44.2390933" lon="11.4918517"><ele>414.0</ele><time>2026-04-18T11:38:29.281Z</time></trkpt><trkpt lat="44.2389233" lon="11.4919217"><ele>410.66666666666663</ele><time>2026-04-18T11:38:30.281Z</time></trkpt><trkpt lat="44.238735" lon="11.4919533"><ele>407.3333333333333</ele><time>2026-04-18T11:38:31.282Z</time></trkpt><trkpt lat="44.23855" lon="11.49196"><ele>404.0</ele><time>2026-04-18T11:38:32.285Z</time></trkpt><trkpt lat="44.2383717" lon="11.4919517"><ele>404.0</ele><time>2026-04-18T11:38:33.281Z</time></trkpt><trkpt lat="44.238205" lon="11.4919317"><ele>404.0</ele><time>2026-04-18T11:38:34.282Z</time></trkpt><trkpt lat="44.2380583" lon="11.4919117"><ele>404.0</ele><time>2026-04-18T11:38:35.282Z</time></trkpt><trkpt lat="44.237935" lon="11.4919033"><ele>404.0</ele><time>2026-04-18T11:38:36.281Z</time></trkpt><trkpt lat="44.2378167" lon="11.491925"><ele>405.25</ele><time>2026-04-18T11:38:37.282Z</time></trkpt><trkpt lat="44.237695" lon="11.491975"><ele>406.5</ele><time>2026-04-18T11:38:38.283Z</time></trkpt><trkpt lat="44.2375817" lon="11.49205"><ele>407.75</ele><time>2026-04-18T11:38:39.283Z</time></trkpt><trkpt lat="44.23749" lon="11.492145"><ele>409.0</ele><time>2026-04-18T11:38:40.282Z</time></trkpt><trkpt lat="44.2374267" lon="11.4922567"><ele>409.0</ele><time>2026-04-18T11:38:41.283Z</time></trkpt><trkpt lat="44.2373817" lon="11.4923717"><ele>409.0</ele><time>2026-04-18T11:38:42.281Z</time></trkpt><trkpt lat="44.2373333" lon="11.4924633"><ele>409.0</ele><time>2026-04-18T11:38:43.282Z</time></trkpt><trkpt lat="44.2372567" lon="11.4924983"><ele>409.0</ele><time>2026-04-18T11:38:44.28Z</time></trkpt><trkpt lat="44.2371617" lon="11.4924617"><ele>409.0</ele><time>2026-04-18T11:38:45.281Z</time></trkpt><trkpt lat="44.2370633" lon="11.492375"><ele>411.33333333333337</ele><time>2026-04-18T11:38:46.279Z</time></trkpt><trkpt lat="44.2369483" lon="11.49225"><ele>413.66666666666663</ele><time>2026-04-18T11:38:47.281Z</time></trkpt><trkpt lat="44.2368267" lon="11.4921"><ele>416.0</ele><time>2026-04-18T11:38:48.28Z</time></trkpt><trkpt lat="44.236705" lon="11.4919583"><ele>408.0</ele><time>2026-04-18T11:38:49.28Z</time></trkpt><trkpt lat="44.2365733" lon="11.49184"><ele>400.0</ele><time>2026-04-18T11:38:50.281Z</time></trkpt><trkpt lat="44.2364333" lon="11.4917533"><ele>392.0</ele><time>2026-04-18T11:38:51.279Z</time></trkpt><trkpt lat="44.2362967" lon="11.4916717"><ele>392.0</ele><time>2026-04-18T11:38:52.281Z</time></trkpt><trkpt lat="44.236145" lon="11.4916067"><ele>392.0</ele><time>2026-04-18T11:38:53.282Z</time></trkpt><trkpt lat="44.2360117" lon="11.4915667"><ele>392.0</ele><time>2026-04-18T11:38:54.281Z</time></trkpt><trkpt lat="44.23588" lon="11.4915467"><ele>392.0</ele><time>2026-04-18T11:38:55.281Z</time></trkpt><trkpt lat="44.2357467" lon="11.4915467"><ele>392.0</ele><time>2026-04-18T11:38:56.279Z</time></trkpt><trkpt lat="44.2356467" lon="11.4916167"><ele>392.0</ele><time>2026-04-18T11:38:57.279Z</time></trkpt><trkpt lat="44.2355417" lon="11.4916917"><ele>392.0</ele><time>2026-04-18T11:38:58.281Z</time></trkpt><trkpt lat="44.235475" lon="11.4917867"><ele>392.0</ele><time>2026-04-18T11:38:59.28Z</time></trkpt><trkpt lat="44.235475" lon="11.4919483"><ele>392.0</ele><time>2026-04-18T11:39:00.28Z</time></trkpt><trkpt lat="44.2355233" lon="11.4921617"><ele>387.75</ele><time>2026-04-18T11:39:01.28Z</time></trkpt><trkpt lat="44.23556" lon="11.492345"><ele>383.5</ele><time>2026-04-18T11:39:02.28Z</time></trkpt><trkpt lat="44.2355817" lon="11.49252"><ele>379.25</ele><time>2026-04-18T11:39:03.28Z</time></trkpt><trkpt lat="44.235555" lon="11.4926633"><ele>375.0</ele><time>2026-04-18T11:39:04.281Z</time></trkpt><trkpt lat="44.23548" lon="11.4927933"><ele>375.0</ele><time>2026-04-18T11:39:05.281Z</time></trkpt><trkpt lat="44.235395" lon="11.4929083"><ele>375.0</ele><time>2026-04-18T11:39:06.278Z</time></trkpt><trkpt lat="44.2352917" lon="11.49301"><ele>375.0</ele><time>2026-04-18T11:39:07.282Z</time></trkpt><trkpt lat="44.235185" lon="11.493105"><ele>375.0</ele><time>2026-04-18T11:39:08.281Z</time></trkpt><trkpt lat="44.23508" lon="11.493185"><ele>378.0</ele><time>2026-04-18T11:39:09.28Z</time></trkpt><trkpt lat="44.234955" lon="11.49323"><ele>381.0</ele><time>2026-04-18T11:39:10.282Z</time></trkpt><trkpt lat="44.23486" lon="11.4932283"><ele>384.0</ele><time>2026-04-18T11:39:11.279Z</time></trkpt><trkpt lat="44.2347717" lon="11.493195"><ele>387.0</ele><time>2026-04-18T11:39:12.281Z</time></trkpt><trkpt lat="44.23467" lon="11.4931333"><ele>390.0</ele><time>2026-04-18T11:39:13.281Z</time></trkpt><trkpt lat="44.23461" lon="11.4930083"><ele>387.0</ele><time>2026-04-18T11:39:14.282Z</time></trkpt><trkpt lat="44.2345833" lon="11.4928683"><ele>384.0</ele><time>2026-04-18T11:39:15.281Z</time></trkpt><trkpt lat="44.23458" lon="11.4926683"><ele>381.0</ele><time>2026-04-18T11:39:16.281Z</time></trkpt><trkpt lat="44.2345817" lon="11.4924717"><ele>378.0</ele><time>2026-04-18T11:39:17.281Z</time></trkpt><trkpt lat="44.2345883" lon="11.4922717"><ele>375.0</ele><time>2026-04-18T11:39:18.282Z</time></trkpt><trkpt lat="44.23459" lon="11.4920783"><ele>372.0</ele><time>2026-04-18T11:39:19.282Z</time></trkpt><trkpt lat="44.2345867" lon="11.4919"><ele>369.0</ele><time>2026-04-18T11:39:20.282Z</time></trkpt><trkpt lat="44.2345633" lon="11.49176"><ele>366.0</ele><time>2026-04-18T11:39:21.281Z</time></trkpt><trkpt lat="44.2345133" lon="11.4916467"><ele>366.0</ele><time>2026-04-18T11:39:22.279Z</time></trkpt><trkpt lat="44.23444" lon="11.4915817"><ele>366.0</ele><time>2026-04-18T11:39:23.281Z</time></trkpt><trkpt lat="44.2343517" lon="11.4915533"><ele>366.0</ele><time>2026-04-18T11:39:24.28Z</time></trkpt><trkpt lat="44.2342233" lon="11.4915883"><ele>366.0</ele><time>2026-04-18T11:39:25.279Z</time></trkpt><trkpt lat="44.2340483" lon="11.4916333"><ele>364.3333333333333</ele><time>2026-04-18T11:39:26.281Z</time></trkpt><trkpt lat="44.2338967" lon="11.4916583"><ele>362.66666666666663</ele><time>2026-04-18T11:39:27.28Z</time></trkpt><trkpt lat="44.233735" lon="11.4916883"><ele>361.0</ele><time>2026-04-18T11:39:28.282Z</time></trkpt><trkpt lat="44.2335917" lon="11.4917267"><ele>361.0</ele><time>2026-04-18T11:39:29.282Z</time></trkpt><trkpt lat="44.2334517" lon="11.491765"><ele>361.0</ele><time>2026-04-18T11:39:30.282Z</time></trkpt><trkpt lat="44.2333317" lon="11.4917933"><ele>361.0</ele><time>2026-04-18T11:39:31.281Z</time></trkpt><trkpt lat="44.2332133" lon="11.49179"><ele>361.0</ele><time>2026-04-18T11:39:32.282Z</time></trkpt><trkpt lat="44.2330983" lon="11.4917417"><ele>360.75</ele><time>2026-04-18T11:39:33.281Z</time></trkpt><trkpt lat="44.2329917" lon="11.49166"><ele>360.5</ele><time>2026-04-18T11:39:34.282Z</time></trkpt><trkpt lat="44.232905" lon="11.4915317"><ele>360.25</ele><time>2026-04-18T11:39:35.281Z</time></trkpt><trkpt lat="44.2328267" lon="11.49138"><ele>360.0</ele><time>2026-04-18T11:39:36.279Z</time></trkpt><trkpt lat="44.2327517" lon="11.49123"><ele>356.0</ele><time>2026-04-18T11:39:37.28Z</time></trkpt><trkpt lat="44.2326667" lon="11.4911033"><ele>352.0</ele><time>2026-04-18T11:39:38.28Z</time></trkpt><trkpt lat="44.23256" lon="11.4910167"><ele>348.0</ele><time>2026-04-18T11:39:39.282Z</time></trkpt><trkpt lat="44.2324483" lon="11.4909833"><ele>344.0</ele><time>2026-04-18T11:39:40.28Z</time></trkpt><trkpt lat="44.232335" lon="11.4909833"><ele>342.2</ele><time>2026-04-18T11:39:41.282Z</time></trkpt><trkpt lat="44.23223" lon="11.4910417"><ele>340.4</ele><time>2026-04-18T11:39:42.28Z</time></trkpt><trkpt lat="44.2321667" lon="11.4911383"><ele>338.6</ele><time>2026-04-18T11:39:43.281Z</time></trkpt><trkpt lat="44.2320883" lon="11.4912217"><ele>336.8</ele><time>2026-04-18T11:39:44.282Z</time></trkpt><trkpt lat="44.2320083" lon="11.4912683"><ele>335.0</ele><time>2026-04-18T11:39:45.28Z</time></trkpt><trkpt lat="44.2319067" lon="11.491255"><ele>335.0</ele><time>2026-04-18T11:39:46.282Z</time></trkpt><trkpt lat="44.2318017" lon="11.4911917"><ele>335.0</ele><time>2026-04-18T11:39:47.28Z</time></trkpt><trkpt lat="44.2316833" lon="11.491135"><ele>335.0</ele><time>2026-04-18T11:39:48.281Z</time></trkpt><trkpt lat="44.231545" lon="11.4911067"><ele>335.0</ele><time>2026-04-18T11:39:49.282Z</time></trkpt><trkpt lat="44.2314" lon="11.4910983"><ele>333.6666666666667</ele><time>2026-04-18T11:39:50.28Z</time></trkpt><trkpt lat="44.23124" lon="11.49109"><ele>332.3333333333333</ele><time>2026-04-18T11:39:51.282Z</time></trkpt><trkpt lat="44.2310783" lon="11.4910883"><ele>331.0</ele><time>2026-04-18T11:39:52.281Z</time></trkpt><trkpt lat="44.2309267" lon="11.491105"><ele>331.0</ele><time>2026-04-18T11:39:53.281Z</time></trkpt><trkpt lat="44.2307833" lon="11.4911417"><ele>331.0</ele><time>2026-04-18T11:39:54.281Z</time></trkpt><trkpt lat="44.23065" lon="11.4911817"><ele>331.0</ele><time>2026-04-18T11:39:55.282Z</time></trkpt><trkpt lat="44.230515" lon="11.4912067"><ele>331.0</ele><time>2026-04-18T11:39:56.28Z</time></trkpt><trkpt lat="44.2303833" lon="11.4912117"><ele>330.4</ele><time>2026-04-18T11:39:57.282Z</time></trkpt><trkpt lat="44.2302517" lon="11.4912133"><ele>329.8</ele><time>2026-04-18T11:39:58.282Z</time></trkpt><trkpt lat="44.2301417" lon="11.4912383"><ele>329.2</ele><time>2026-04-18T11:39:59.281Z</time></trkpt><trkpt lat="44.2300533" lon="11.4912617"><ele>328.59999999999997</ele><time>2026-04-18T11:40:00.281Z</time></trkpt><trkpt lat="44.2299533" lon="11.4912633"><ele>328.0</ele><time>2026-04-18T11:40:01.28Z</time></trkpt><trkpt lat="44.2298367" lon="11.4912333"><ele>329.59999999999997</ele><time>2026-04-18T11:40:02.28Z</time></trkpt><trkpt lat="44.2297283" lon="11.4911867"><ele>331.2</ele><time>2026-04-18T11:40:03.28Z</time></trkpt><trkpt lat="44.2296433" lon="11.4911283"><ele>332.8</ele><time>2026-04-18T11:40:04.28Z</time></trkpt><trkpt lat="44.2295683" lon="11.4910833"><ele>334.4</ele><time>2026-04-18T11:40:05.28Z</time></trkpt><trkpt lat="44.2295167" lon="11.4910167"><ele>336.0</ele><time>2026-04-18T11:40:06.281Z</time></trkpt><trkpt lat="44.2295083" lon="11.4908867"><ele>336.0</ele><time>2026-04-18T11:41:13.28Z</time></trkpt><trkpt lat="44.2294283" lon="11.4908567"><ele>336.0</ele><time>2026-04-18T11:41:15.281Z</time></trkpt><trkpt lat="44.229355" lon="11.4908417"><ele>336.0</ele><time>2026-04-18T11:41:16.28Z</time></trkpt><trkpt lat="44.2292617" lon="11.4908217"><ele>336.0</ele><time>2026-04-18T11:41:17.281Z</time></trkpt><trkpt lat="44.22917" lon="11.4907967"><ele>336.0</ele><time>2026-04-18T11:41:18.279Z</time></trkpt><trkpt lat="44.2290683" lon="11.490785"><ele>336.0</ele><time>2026-04-18T11:41:19.28Z</time></trkpt><trkpt lat="44.2289683" lon="11.4908"><ele>335.5</ele><time>2026-04-18T11:41:20.28Z</time></trkpt><trkpt lat="44.228865" lon="11.4908133"><ele>335.0</ele><time>2026-04-18T11:41:21.279Z</time></trkpt><trkpt lat="44.2287583" lon="11.4908167"><ele>334.5</ele><time>2026-04-18T11:41:22.28Z</time></trkpt><trkpt lat="44.22865" lon="11.4908067"><ele>334.0</ele><time>2026-04-18T11:41:23.279Z</time></trkpt><trkpt lat="44.228505" lon="11.4907817"><ele>334.0</ele><time>2026-04-18T11:41:24.279Z</time></trkpt><trkpt lat="44.2283833" lon="11.4907333"><ele>334.0</ele><time>2026-04-18T11:41:25.281Z</time></trkpt><trkpt lat="44.22825" lon="11.4906667"><ele>334.0</ele><time>2026-04-18T11:41:26.281Z</time></trkpt><trkpt lat="44.22813" lon="11.490585"><ele>334.0</ele><time>2026-04-18T11:41:27.28Z</time></trkpt><trkpt lat="44.2280233" lon="11.4905017"><ele>328.25</ele><time>2026-04-18T11:41:28.279Z</time></trkpt><trkpt lat="44.2279017" lon="11.4904067"><ele>322.5</ele><time>2026-04-18T11:41:29.28Z</time></trkpt><trkpt lat="44.2277983" lon="11.490325"><ele>316.75</ele><time>2026-04-18T11:41:30.28Z</time></trkpt><trkpt lat="44.2276767" lon="11.4902433"><ele>311.0</ele><time>2026-04-18T11:41:31.28Z</time></trkpt><trkpt lat="44.2275483" lon="11.4901933"><ele>311.0</ele><time>2026-04-18T11:41:32.282Z</time></trkpt><trkpt lat="44.22741" lon="11.4901567"><ele>311.0</ele><time>2026-04-18T11:41:33.28Z</time></trkpt><trkpt lat="44.2272567" lon="11.49013"><ele>311.0</ele><time>2026-04-18T11:41:34.279Z</time></trkpt><trkpt lat="44.2271233" lon="11.4901133"><ele>311.0</ele><time>2026-04-18T11:41:35.28Z</time></trkpt><trkpt lat="44.2269817" lon="11.4901183"><ele>309.0</ele><time>2026-04-18T11:41:36.281Z</time></trkpt><trkpt lat="44.2268317" lon="11.49013"><ele>307.0</ele><time>2026-04-18T11:41:37.281Z</time></trkpt><trkpt lat="44.22671" lon="11.490135"><ele>305.0</ele><time>2026-04-18T11:41:38.281Z</time></trkpt><trkpt lat="44.226585" lon="11.490145"><ele>303.0</ele><time>2026-04-18T11:41:39.279Z</time></trkpt><trkpt lat="44.2264833" lon="11.4901717"><ele>304.0</ele><time>2026-04-18T11:41:40.279Z</time></trkpt><trkpt lat="44.2263783" lon="11.49021"><ele>305.0</ele><time>2026-04-18T11:41:41.28Z</time></trkpt><trkpt lat="44.226295" lon="11.4902717"><ele>306.0</ele><time>2026-04-18T11:41:42.279Z</time></trkpt><trkpt lat="44.2262217" lon="11.4903733"><ele>307.0</ele><time>2026-04-18T11:41:43.28Z</time></trkpt><trkpt lat="44.2261767" lon="11.4904933"><ele>308.0</ele><time>2026-04-18T11:41:44.279Z</time></trkpt><trkpt lat="44.2261533" lon="11.4906083"><ele>308.0</ele><time>2026-04-18T11:41:45.28Z</time></trkpt><trkpt lat="44.2261233" lon="11.490705"><ele>308.0</ele><time>2026-04-18T11:41:46.28Z</time></trkpt><trkpt lat="44.22607" lon="11.49078"><ele>308.0</ele><time>2026-04-18T11:41:47.28Z</time></trkpt><trkpt lat="44.2260117" lon="11.49084"><ele>308.0</ele><time>2026-04-18T11:41:48.281Z</time></trkpt><trkpt lat="44.2259067" lon="11.49091"><ele>308.0</ele><time>2026-04-18T11:41:50.28Z</time></trkpt><trkpt lat="44.225825" lon="11.4909233"><ele>308.0</ele><time>2026-04-18T11:41:51.28Z</time></trkpt><trkpt lat="44.2257367" lon="11.49095"><ele>308.0</ele><time>2026-04-18T11:41:52.281Z</time></trkpt><trkpt lat="44.2256467" lon="11.4909883"><ele>308.0</ele><time>2026-04-18T11:41:53.28Z</time></trkpt><trkpt lat="44.2255233" lon="11.491045"><ele>308.0</ele><time>2026-04-18T11:41:54.28Z</time></trkpt><trkpt lat="44.2254333" lon="11.4911233"><ele>308.0</ele><time>2026-04-18T11:41:55.282Z</time></trkpt><trkpt lat="44.2253383" lon="11.4912067"><ele>308.0</ele><time>2026-04-18T11:41:56.282Z</time></trkpt><trkpt lat="44.2252733" lon="11.4912967"><ele>305.33333333333337</ele><time>2026-04-18T11:41:57.282Z</time></trkpt><trkpt lat="44.2252183" lon="11.4913917"><ele>302.6666666666667</ele><time>2026-04-18T11:41:58.28Z</time></trkpt><trkpt lat="44.2251983" lon="11.4914917"><ele>300.0</ele><time>2026-04-18T11:41:59.28Z</time></trkpt><trkpt lat="44.2251883" lon="11.4916033"><ele>297.3333333333333</ele><time>2026-04-18T11:42:00.282Z</time></trkpt><trkpt lat="44.2252233" lon="11.4917083"><ele>294.66666666666663</ele><time>2026-04-18T11:42:01.281Z</time></trkpt><trkpt lat="44.2252783" lon="11.4918167"><ele>292.0</ele><time>2026-04-18T11:42:02.28Z</time></trkpt><trkpt lat="44.22534" lon="11.4919117"><ele>292.0</ele><time>2026-04-18T11:42:03.282Z</time></trkpt><trkpt lat="44.2254283" lon="11.4919867"><ele>292.0</ele><time>2026-04-18T11:42:04.279Z</time></trkpt><trkpt lat="44.2255133" lon="11.49205"><ele>292.0</ele><time>2026-04-18T11:42:05.282Z</time></trkpt><trkpt lat="44.2255717" lon="11.4921233"><ele>292.0</ele><time>2026-04-18T11:42:06.282Z</time></trkpt><trkpt lat="44.2256067" lon="11.4922017"><ele>292.0</ele><time>2026-04-18T11:42:07.281Z</time></trkpt><trkpt lat="44.2256317" lon="11.492345"><ele>297.66666666666663</ele><time>2026-04-18T11:42:09.281Z</time></trkpt><trkpt lat="44.225615" lon="11.4924683"><ele>303.3333333333333</ele><time>2026-04-18T11:42:11.281Z</time></trkpt><trkpt lat="44.2255267" lon="11.4924967"><ele>309.0</ele><time>2026-04-18T11:42:12.28Z</time></trkpt><trkpt lat="44.2252133" lon="11.492535"><ele>309.0</ele><time>2026-04-18T11:42:13.279Z</time></trkpt><trkpt lat="44.225075" lon="11.4925167"><ele>309.0</ele><time>2026-04-18T11:42:14.279Z</time></trkpt><trkpt lat="44.224965" lon="11.4925283"><ele>309.0</ele><time>2026-04-18T11:42:15.28Z</time></trkpt><trkpt lat="44.2248517" lon="11.4924867"><ele>309.0</ele><time>2026-04-18T11:42:16.281Z</time></trkpt><trkpt lat="44.2247617" lon="11.4924333"><ele>302.59999999999997</ele><time>2026-04-18T11:42:17.281Z</time></trkpt><trkpt lat="44.224685" lon="11.4924083"><ele>296.2</ele><time>2026-04-18T11:42:18.279Z</time></trkpt><trkpt lat="44.224595" lon="11.4923867"><ele>289.79999999999995</ele><time>2026-04-18T11:42:19.28Z</time></trkpt><trkpt lat="44.2244883" lon="11.492385"><ele>283.4</ele><time>2026-04-18T11:42:20.281Z</time></trkpt><trkpt lat="44.2243817" lon="11.4924467"><ele>277.0</ele><time>2026-04-18T11:42:21.281Z</time></trkpt><trkpt lat="44.22429" lon="11.4925867"><ele>277.0</ele><time>2026-04-18T11:42:22.278Z</time></trkpt><trkpt lat="44.2241967" lon="11.49272"><ele>277.0</ele><time>2026-04-18T11:42:23.281Z</time></trkpt><trkpt lat="44.2241117" lon="11.4928633"><ele>277.0</ele><time>2026-04-18T11:42:24.28Z</time></trkpt><trkpt lat="44.22404" lon="11.4930183"><ele>277.0</ele><time>2026-04-18T11:42:25.279Z</time></trkpt><trkpt lat="44.2239767" lon="11.49318"><ele>272.0</ele><time>2026-04-18T11:42:26.281Z</time></trkpt><trkpt lat="44.223895" lon="11.4933233"><ele>267.0</ele><time>2026-04-18T11:42:27.279Z</time></trkpt><trkpt lat="44.2238183" lon="11.4934417"><ele>262.0</ele><time>2026-04-18T11:42:28.281Z</time></trkpt><trkpt lat="44.2237583" lon="11.4935667"><ele>257.0</ele><time>2026-04-18T11:42:29.28Z</time></trkpt><trkpt lat="44.2237217" lon="11.493705"><ele>257.6</ele><time>2026-04-18T11:42:30.282Z</time></trkpt><trkpt lat="44.2237133" lon="11.4938417"><ele>258.2</ele><time>2026-04-18T11:42:31.281Z</time></trkpt><trkpt lat="44.2237317" lon="11.4939717"><ele>258.8</ele><time>2026-04-18T11:42:32.282Z</time></trkpt><trkpt lat="44.2237683" lon="11.4940917"><ele>259.4</ele><time>2026-04-18T11:42:33.279Z</time></trkpt><trkpt lat="44.2238317" lon="11.494195"><ele>260.0</ele><time>2026-04-18T11:42:34.281Z</time></trkpt><trkpt lat="44.2239433" lon="11.4942783"><ele>263.25</ele><time>2026-04-18T11:42:35.281Z</time></trkpt><trkpt lat="44.2240683" lon="11.4943683"><ele>266.5</ele><time>2026-04-18T11:42:36.28Z</time></trkpt><trkpt lat="44.2241783" lon="11.4944933"><ele>269.75</ele><time>2026-04-18T11:42:37.282Z</time></trkpt><trkpt lat="44.2242833" lon="11.49463"><ele>273.0</ele><time>2026-04-18T11:42:38.281Z</time></trkpt><trkpt lat="44.2243933" lon="11.494765"><ele>273.0</ele><time>2026-04-18T11:42:39.281Z</time></trkpt><trkpt lat="44.224525" lon="11.4948717"><ele>273.0</ele><time>2026-04-18T11:42:40.28Z</time></trkpt><trkpt lat="44.2246667" lon="11.4949517"><ele>273.0</ele><time>2026-04-18T11:42:41.282Z</time></trkpt><trkpt lat="44.22481" lon="11.494995"><ele>276.25</ele><time>2026-04-18T11:42:42.279Z</time></trkpt><trkpt lat="44.2249533" lon="11.4950017"><ele>279.5</ele><time>2026-04-18T11:42:43.281Z</time></trkpt><trkpt lat="44.2250967" lon="11.494965"><ele>282.75</ele><time>2026-04-18T11:42:44.282Z</time></trkpt><trkpt lat="44.2252117" lon="11.4949133"><ele>286.0</ele><time>2026-04-18T11:42:45.281Z</time></trkpt><trkpt lat="44.2253133" lon="11.4948517"><ele>286.0</ele><time>2026-04-18T11:42:46.28Z</time></trkpt><trkpt lat="44.2253867" lon="11.4947883"><ele>286.0</ele><time>2026-04-18T11:42:47.282Z</time></trkpt><trkpt lat="44.225435" lon="11.4947167"><ele>286.0</ele><time>2026-04-18T11:42:48.281Z</time></trkpt><trkpt lat="44.225495" lon="11.49467"><ele>286.0</ele><time>2026-04-18T11:42:49.282Z</time></trkpt><trkpt lat="44.2255417" lon="11.494785"><ele>286.0</ele><time>2026-04-18T11:42:50.281Z</time></trkpt><trkpt lat="44.2255983" lon="11.4949283"><ele>286.0</ele><time>2026-04-18T11:42:52.281Z</time></trkpt><trkpt lat="44.2256" lon="11.4950833"><ele>286.0</ele><time>2026-04-18T11:42:54.28Z</time></trkpt><trkpt lat="44.2253117" lon="11.4952933"><ele>286.0</ele><time>2026-04-18T11:42:55.282Z</time></trkpt><trkpt lat="44.225135" lon="11.49543"><ele>287.66666666666663</ele><time>2026-04-18T11:42:56.28Z</time></trkpt><trkpt lat="44.224985" lon="11.4955283"><ele>289.3333333333333</ele><time>2026-04-18T11:42:57.279Z</time></trkpt><trkpt lat="44.224795" lon="11.495595"><ele>291.0</ele><time>2026-04-18T11:42:58.28Z</time></trkpt><trkpt lat="44.2246383" lon="11.4956317"><ele>292.6666666666667</ele><time>2026-04-18T11:42:59.282Z</time></trkpt><trkpt lat="44.22447" lon="11.4956333"><ele>294.33333333333337</ele><time>2026-04-18T11:43:00.281Z</time></trkpt><trkpt lat="44.224305" lon="11.4956267"><ele>296.0</ele><time>2026-04-18T11:43:01.281Z</time></trkpt><trkpt lat="44.22414" lon="11.4956067"><ele>295.0</ele><time>2026-04-18T11:43:02.281Z</time></trkpt><trkpt lat="44.2239717" lon="11.49556"><ele>294.0</ele><time>2026-04-18T11:43:03.281Z</time></trkpt><trkpt lat="44.2238083" lon="11.4955217"><ele>293.0</ele><time>2026-04-18T11:43:04.281Z</time></trkpt><trkpt lat="44.22366" lon="11.4954733"><ele>293.0</ele><time>2026-04-18T11:43:05.28Z</time></trkpt><trkpt lat="44.2235333" lon="11.4954233"><ele>293.0</ele><time>2026-04-18T11:43:06.281Z</time></trkpt><trkpt lat="44.2234083" lon="11.4953733"><ele>293.0</ele><time>2026-04-18T11:43:07.28Z</time></trkpt><trkpt lat="44.2233133" lon="11.4953383"><ele>293.0</ele><time>2026-04-18T11:43:08.281Z</time></trkpt><trkpt lat="44.2232117" lon="11.4953183"><ele>283.25</ele><time>2026-04-18T11:43:09.281Z</time></trkpt><trkpt lat="44.2231233" lon="11.4953483"><ele>273.5</ele><time>2026-04-18T11:43:10.28Z</time></trkpt><trkpt lat="44.2230267" lon="11.4954333"><ele>263.75</ele><time>2026-04-18T11:43:11.28Z</time></trkpt><trkpt lat="44.2229283" lon="11.4955233"><ele>254.0</ele><time>2026-04-18T11:43:12.28Z</time></trkpt><trkpt lat="44.222825" lon="11.4956733"><ele>254.0</ele><time>2026-04-18T11:43:13.281Z</time></trkpt><trkpt lat="44.2227367" lon="11.4959283"><ele>254.0</ele><time>2026-04-18T11:43:14.281Z</time></trkpt><trkpt lat="44.2226333" lon="11.4961033"><ele>254.0</ele><time>2026-04-18T11:43:15.28Z</time></trkpt><trkpt lat="44.22254" lon="11.4963017"><ele>259.6666666666667</ele><time>2026-04-18T11:43:16.281Z</time></trkpt><trkpt lat="44.22245" lon="11.4965033"><ele>265.3333333333333</ele><time>2026-04-18T11:43:17.281Z</time></trkpt><trkpt lat="44.2223767" lon="11.4967017"><ele>271.0</ele><time>2026-04-18T11:43:18.281Z</time></trkpt><trkpt lat="44.2223167" lon="11.4968767"><ele>266.0</ele><time>2026-04-18T11:43:19.281Z</time></trkpt><trkpt lat="44.222285" lon="11.497045"><ele>261.0</ele><time>2026-04-18T11:43:20.282Z</time></trkpt><trkpt lat="44.2222717" lon="11.4972083"><ele>256.0</ele><time>2026-04-18T11:43:21.281Z</time></trkpt><trkpt lat="44.222275" lon="11.4973617"><ele>251.0</ele><time>2026-04-18T11:43:22.282Z</time></trkpt><trkpt lat="44.2222767" lon="11.4974917"><ele>246.0</ele><time>2026-04-18T11:43:23.282Z</time></trkpt><trkpt lat="44.22226" lon="11.4975883"><ele>246.0</ele><time>2026-04-18T11:43:24.282Z</time></trkpt><trkpt lat="44.2222167" lon="11.4976683"><ele>246.0</ele><time>2026-04-18T11:43:25.281Z</time></trkpt><trkpt lat="44.2221633" lon="11.497735"><ele>246.0</ele><time>2026-04-18T11:43:26.282Z</time></trkpt><trkpt lat="44.2220983" lon="11.4977917"><ele>246.0</ele><time>2026-04-18T11:43:27.28Z</time></trkpt><trkpt lat="44.22201" lon="11.4978517"><ele>246.0</ele><time>2026-04-18T11:43:28.28Z</time></trkpt><trkpt lat="44.2219" lon="11.4979433"><ele>246.0</ele><time>2026-04-18T11:43:29.281Z</time></trkpt><trkpt lat="44.2217833" lon="11.49806"><ele>250.25</ele><time>2026-04-18T11:43:30.28Z</time></trkpt><trkpt lat="44.2216983" lon="11.4981967"><ele>254.5</ele><time>2026-04-18T11:43:31.28Z</time></trkpt><trkpt lat="44.2216383" lon="11.4983383"><ele>258.75</ele><time>2026-04-18T11:43:32.28Z</time></trkpt><trkpt lat="44.2216" lon="11.4984783"><ele>263.0</ele><time>2026-04-18T11:43:33.282Z</time></trkpt><trkpt lat="44.2215967" lon="11.49863"><ele>266.0</ele><time>2026-04-18T11:43:34.282Z</time></trkpt><trkpt lat="44.221585" lon="11.4987767"><ele>269.0</ele><time>2026-04-18T11:43:35.281Z</time></trkpt><trkpt lat="44.221555" lon="11.4989133"><ele>272.0</ele><time>2026-04-18T11:43:36.279Z</time></trkpt><trkpt lat="44.221515" lon="11.49905"><ele>275.0</ele><time>2026-04-18T11:43:37.28Z</time></trkpt><trkpt lat="44.2214283" lon="11.4991867"><ele>278.0</ele><time>2026-04-18T11:43:38.281Z</time></trkpt><trkpt lat="44.22134" lon="11.4993283"><ele>273.25</ele><time>2026-04-18T11:43:39.28Z</time></trkpt><trkpt lat="44.2212583" lon="11.499475"><ele>268.5</ele><time>2026-04-18T11:43:40.28Z</time></trkpt><trkpt lat="44.2211633" lon="11.4996033"><ele>263.75</ele><time>2026-04-18T11:43:41.281Z</time></trkpt><trkpt lat="44.22106" lon="11.4997083"><ele>259.0</ele><time>2026-04-18T11:43:42.281Z</time></trkpt><trkpt lat="44.22093" lon="11.4997833"><ele>259.0</ele><time>2026-04-18T11:43:43.281Z</time></trkpt><trkpt lat="44.2207867" lon="11.4998417"><ele>259.0</ele><time>2026-04-18T11:43:44.281Z</time></trkpt><trkpt lat="44.2206367" lon="11.49991"><ele>259.0</ele><time>2026-04-18T11:43:45.28Z</time></trkpt><trkpt lat="44.22049" lon="11.5"><ele>255.0</ele><time>2026-04-18T11:43:46.282Z</time></trkpt><trkpt lat="44.2203567" lon="11.5001033"><ele>251.0</ele><time>2026-04-18T11:43:47.279Z</time></trkpt><trkpt lat="44.2202283" lon="11.5001883"><ele>247.0</ele><time>2026-04-18T11:43:48.28Z</time></trkpt><trkpt lat="44.2200883" lon="11.5002433"><ele>243.0</ele><time>2026-04-18T11:43:49.28Z</time></trkpt><trkpt lat="44.2199383" lon="11.5002567"><ele>240.0</ele><time>2026-04-18T11:43:50.28Z</time></trkpt><trkpt lat="44.2197983" lon="11.50027"><ele>237.0</ele><time>2026-04-18T11:43:51.281Z</time></trkpt><trkpt lat="44.2196533" lon="11.5003"><ele>234.0</ele><time>2026-04-18T11:43:52.281Z</time></trkpt><trkpt lat="44.219515" lon="11.5003417"><ele>231.0</ele><time>2026-04-18T11:43:53.282Z</time></trkpt><trkpt lat="44.2193833" lon="11.5003767"><ele>231.0</ele><time>2026-04-18T11:43:54.281Z</time></trkpt><trkpt lat="44.219245" lon="11.5003867"><ele>231.0</ele><time>2026-04-18T11:43:55.28Z</time></trkpt><trkpt lat="44.2191067" lon="11.5003883"><ele>231.0</ele><time>2026-04-18T11:43:56.281Z</time></trkpt><trkpt lat="44.2189767" lon="11.5004017"><ele>231.0</ele><time>2026-04-18T11:43:57.28Z</time></trkpt><trkpt lat="44.2188367" lon="11.5004517"><ele>229.33333333333331</ele><time>2026-04-18T11:43:58.28Z</time></trkpt><trkpt lat="44.218695" lon="11.5005167"><ele>227.66666666666666</ele><time>2026-04-18T11:43:59.279Z</time></trkpt><trkpt lat="44.2185767" lon="11.50064"><ele>226.0</ele><time>2026-04-18T11:44:00.28Z</time></trkpt><trkpt lat="44.218465" lon="11.5007933"><ele>226.0</ele><time>2026-04-18T11:44:01.28Z</time></trkpt><trkpt lat="44.2183583" lon="11.50097"><ele>226.0</ele><time>2026-04-18T11:44:02.282Z</time></trkpt><trkpt lat="44.2182533" lon="11.5011633"><ele>226.0</ele><time>2026-04-18T11:44:03.28Z</time></trkpt><trkpt lat="44.21815" lon="11.501365"><ele>219.66666666666666</ele><time>2026-04-18T11:44:04.282Z</time></trkpt><trkpt lat="44.2180617" lon="11.5015717"><ele>213.33333333333331</ele><time>2026-04-18T11:44:05.281Z</time></trkpt><trkpt lat="44.2179867" lon="11.501775"><ele>207.0</ele><time>2026-04-18T11:44:06.281Z</time></trkpt><trkpt lat="44.217915" lon="11.5019717"><ele>208.0</ele><time>2026-04-18T11:44:07.282Z</time></trkpt><trkpt lat="44.2178517" lon="11.5021733"><ele>209.0</ele><time>2026-04-18T11:44:08.28Z</time></trkpt><trkpt lat="44.2178083" lon="11.502375"><ele>210.0</ele><time>2026-04-18T11:44:09.281Z</time></trkpt><trkpt lat="44.2177767" lon="11.5025717"><ele>210.0</ele><time>2026-04-18T11:44:10.279Z</time></trkpt><trkpt lat="44.21775" lon="11.5027567"><ele>210.0</ele><time>2026-04-18T11:44:11.282Z</time></trkpt><trkpt lat="44.2177433" lon="11.502925"><ele>210.0</ele><time>2026-04-18T11:44:12.281Z</time></trkpt><trkpt lat="44.2177583" lon="11.5030633"><ele>210.0</ele><time>2026-04-18T11:44:13.28Z</time></trkpt><trkpt lat="44.2177967" lon="11.5031767"><ele>210.0</ele><time>2026-04-18T11:44:14.28Z</time></trkpt><trkpt lat="44.217835" lon="11.5032633"><ele>209.0</ele><time>2026-04-18T11:44:15.282Z</time></trkpt><trkpt lat="44.2178567" lon="11.5034033"><ele>208.0</ele><time>2026-04-18T11:44:17.28Z</time></trkpt><trkpt lat="44.2177867" lon="11.5034533"><ele>207.0</ele><time>2026-04-18T11:44:19.281Z</time></trkpt><trkpt lat="44.2177217" lon="11.503415"><ele>206.0</ele><time>2026-04-18T11:44:20.28Z</time></trkpt><trkpt lat="44.2176483" lon="11.50323"><ele>205.0</ele><time>2026-04-18T11:44:21.281Z</time></trkpt><trkpt lat="44.217605" lon="11.5030467"><ele>206.25</ele><time>2026-04-18T11:44:22.281Z</time></trkpt><trkpt lat="44.2175817" lon="11.5028583"><ele>207.5</ele><time>2026-04-18T11:44:23.28Z</time></trkpt><trkpt lat="44.2175667" lon="11.5026817"><ele>208.75</ele><time>2026-04-18T11:44:24.281Z</time></trkpt><trkpt lat="44.217555" lon="11.5025367"><ele>210.0</ele><time>2026-04-18T11:44:25.28Z</time></trkpt><trkpt lat="44.2175233" lon="11.5024233"><ele>210.0</ele><time>2026-04-18T11:44:26.281Z</time></trkpt><trkpt lat="44.21747" lon="11.50235"><ele>210.0</ele><time>2026-04-18T11:44:27.281Z</time></trkpt><trkpt lat="44.21737" lon="11.5023633"><ele>210.0</ele><time>2026-04-18T11:44:29.28Z</time></trkpt><trkpt lat="44.21733" lon="11.5024567"><ele>210.0</ele><time>2026-04-18T11:44:30.279Z</time></trkpt><trkpt lat="44.2173267" lon="11.5025883"><ele>210.0</ele><time>2026-04-18T11:44:31.28Z</time></trkpt><trkpt lat="44.2173317" lon="11.502725"><ele>210.0</ele><time>2026-04-18T11:44:32.282Z</time></trkpt><trkpt lat="44.2173333" lon="11.5028667"><ele>209.0</ele><time>2026-04-18T11:44:33.282Z</time></trkpt><trkpt lat="44.217325" lon="11.5029833"><ele>208.0</ele><time>2026-04-18T11:44:34.281Z</time></trkpt><trkpt lat="44.2172983" lon="11.503125"><ele>207.0</ele><time>2026-04-18T11:44:36.28Z</time></trkpt><trkpt lat="44.2171867" lon="11.5031333"><ele>206.0</ele><time>2026-04-18T11:44:38.28Z</time></trkpt><trkpt lat="44.2171033" lon="11.5030983"><ele>205.0</ele><time>2026-04-18T11:44:39.281Z</time></trkpt><trkpt lat="44.2170117" lon="11.5030567"><ele>204.2</ele><time>2026-04-18T11:44:40.28Z</time></trkpt><trkpt lat="44.216925" lon="11.50303"><ele>203.4</ele><time>2026-04-18T11:44:41.281Z</time></trkpt><trkpt lat="44.216835" lon="11.5030783"><ele>202.60000000000002</ele><time>2026-04-18T11:44:42.28Z</time></trkpt><trkpt lat="44.21676" lon="11.503175"><ele>201.8</ele><time>2026-04-18T11:44:43.281Z</time></trkpt><trkpt lat="44.2166883" lon="11.5033083"><ele>201.0</ele><time>2026-04-18T11:44:44.282Z</time></trkpt><trkpt lat="44.2166433" lon="11.5034733"><ele>201.0</ele><time>2026-04-18T11:44:45.28Z</time></trkpt><trkpt lat="44.216615" lon="11.5036583"><ele>201.0</ele><time>2026-04-18T11:44:46.281Z</time></trkpt><trkpt lat="44.216625" lon="11.50385"><ele>201.0</ele><time>2026-04-18T11:44:47.282Z</time></trkpt><trkpt lat="44.216645" lon="11.5040383"><ele>201.0</ele><time>2026-04-18T11:44:48.281Z</time></trkpt><trkpt lat="44.2166617" lon="11.504225"><ele>200.8</ele><time>2026-04-18T11:44:49.28Z</time></trkpt><trkpt lat="44.21667" lon="11.50439"><ele>200.60000000000002</ele><time>2026-04-18T11:44:50.28Z</time></trkpt><trkpt lat="44.21666" lon="11.5045233"><ele>200.4</ele><time>2026-04-18T11:44:51.279Z</time></trkpt><trkpt lat="44.2166383" lon="11.5046317"><ele>200.2</ele><time>2026-04-18T11:44:52.281Z</time></trkpt><trkpt lat="44.2165633" lon="11.50469"><ele>200.0</ele><time>2026-04-18T11:44:53.281Z</time></trkpt><trkpt lat="44.216485" lon="11.5047083"><ele>199.8</ele><time>2026-04-18T11:44:54.281Z</time></trkpt><trkpt lat="44.2163883" lon="11.504685"><ele>199.6</ele><time>2026-04-18T11:44:55.281Z</time></trkpt><trkpt lat="44.216285" lon="11.5046333"><ele>199.39999999999998</ele><time>2026-04-18T11:44:56.279Z</time></trkpt><trkpt lat="44.2161867" lon="11.5045817"><ele>199.2</ele><time>2026-04-18T11:44:57.281Z</time></trkpt><trkpt lat="44.21608" lon="11.5045267"><ele>199.0</ele><time>2026-04-18T11:44:58.281Z</time></trkpt><trkpt lat="44.215965" lon="11.5044733"><ele>202.25</ele><time>2026-04-18T11:44:59.28Z</time></trkpt><trkpt lat="44.21585" lon="11.5044233"><ele>205.5</ele><time>2026-04-18T11:45:00.282Z</time></trkpt><trkpt lat="44.2157383" lon="11.5043783"><ele>208.75</ele><time>2026-04-18T11:45:01.279Z</time></trkpt><trkpt lat="44.2156267" lon="11.50434"><ele>212.0</ele><time>2026-04-18T11:45:02.281Z</time></trkpt><trkpt lat="44.21551" lon="11.504315"><ele>213.0</ele><time>2026-04-18T11:45:03.28Z</time></trkpt><trkpt lat="44.2153917" lon="11.5043"><ele>214.0</ele><time>2026-04-18T11:45:04.28Z</time></trkpt><trkpt lat="44.2152717" lon="11.5042967"><ele>215.0</ele><time>2026-04-18T11:45:05.282Z</time></trkpt><trkpt lat="44.215155" lon="11.5043033"><ele>216.0</ele><time>2026-04-18T11:45:06.281Z</time></trkpt><trkpt lat="44.2150433" lon="11.504305"><ele>216.0</ele><time>2026-04-18T11:45:07.28Z</time></trkpt><trkpt lat="44.2149317" lon="11.5043067"><ele>216.00000000000003</ele><time>2026-04-18T11:45:08.281Z</time></trkpt><trkpt lat="44.2148217" lon="11.5043117"><ele>216.00000000000003</ele><time>2026-04-18T11:45:09.281Z</time></trkpt><trkpt lat="44.21471" lon="11.5043133"><ele>216.0</ele><time>2026-04-18T11:45:10.281Z</time></trkpt><trkpt lat="44.2145983" lon="11.5043183"><ele>216.0</ele><time>2026-04-18T11:45:11.28Z</time></trkpt><trkpt lat="44.214485" lon="11.50433"><ele>216.0</ele><time>2026-04-18T11:45:12.28Z</time></trkpt><trkpt lat="44.214375" lon="11.50436"><ele>216.00000000000003</ele><time>2026-04-18T11:45:13.28Z</time></trkpt><trkpt lat="44.2142667" lon="11.504395"><ele>216.00000000000003</ele><time>2026-04-18T11:45:14.28Z</time></trkpt><trkpt lat="44.21416" lon="11.5044367"><ele>216.0</ele><time>2026-04-18T11:45:15.281Z</time></trkpt><trkpt lat="44.2140517" lon="11.5044817"><ele>216.0</ele><time>2026-04-18T11:45:16.282Z</time></trkpt><trkpt lat="44.21395" lon="11.50453"><ele>215.4</ele><time>2026-04-18T11:45:17.281Z</time></trkpt><trkpt lat="44.213845" lon="11.5045683"><ele>214.8</ele><time>2026-04-18T11:45:18.281Z</time></trkpt><trkpt lat="44.2137417" lon="11.5046167"><ele>214.20000000000002</ele><time>2026-04-18T11:45:19.282Z</time></trkpt><trkpt lat="44.2136367" lon="11.5046567"><ele>213.60000000000002</ele><time>2026-04-18T11:45:20.282Z</time></trkpt><trkpt lat="44.2135283" lon="11.50469"><ele>213.0</ele><time>2026-04-18T11:45:21.28Z</time></trkpt><trkpt lat="44.2134267" lon="11.5047133"><ele>213.0</ele><time>2026-04-18T11:45:22.28Z</time></trkpt><trkpt lat="44.2133283" lon="11.5047167"><ele>213.0</ele><time>2026-04-18T11:45:23.282Z</time></trkpt><trkpt lat="44.21323" lon="11.5047117"><ele>213.0</ele><time>2026-04-18T11:45:24.28Z</time></trkpt><trkpt lat="44.2131267" lon="11.504715"><ele>213.0</ele><time>2026-04-18T11:45:25.281Z</time></trkpt><trkpt lat="44.213025" lon="11.504715"><ele>213.0</ele><time>2026-04-18T11:45:26.282Z</time></trkpt><trkpt lat="44.2129183" lon="11.50472"><ele>213.4</ele><time>2026-04-18T11:45:27.281Z</time></trkpt><trkpt lat="44.2128183" lon="11.5047167"><ele>213.8</ele><time>2026-04-18T11:45:28.28Z</time></trkpt><trkpt lat="44.21272" lon="11.5047333"><ele>214.2</ele><time>2026-04-18T11:45:29.28Z</time></trkpt><trkpt lat="44.2126283" lon="11.5047417"><ele>214.6</ele><time>2026-04-18T11:45:30.281Z</time></trkpt><trkpt lat="44.212535" lon="11.5047583"><ele>215.0</ele><time>2026-04-18T11:45:31.28Z</time></trkpt><trkpt lat="44.2124517" lon="11.5047683"><ele>215.0</ele><time>2026-04-18T11:45:32.28Z</time></trkpt><trkpt lat="44.2123633" lon="11.504795"><ele>215.0</ele><time>2026-04-18T11:45:33.28Z</time></trkpt><trkpt lat="44.212255" lon="11.5048517"><ele>215.0</ele><time>2026-04-18T11:45:34.281Z</time></trkpt><trkpt lat="44.2121433" lon="11.5048833"><ele>215.0</ele><time>2026-04-18T11:45:35.282Z</time></trkpt><trkpt lat="44.2120333" lon="11.5048917"><ele>215.0</ele><time>2026-04-18T11:45:36.282Z</time></trkpt><trkpt lat="44.2119217" lon="11.5048817"><ele>216.0</ele><time>2026-04-18T11:45:37.282Z</time></trkpt><trkpt lat="44.21182" lon="11.504855"><ele>217.0</ele><time>2026-04-18T11:45:38.28Z</time></trkpt><trkpt lat="44.2117117" lon="11.504835"><ele>218.0</ele><time>2026-04-18T11:45:39.281Z</time></trkpt><trkpt lat="44.2116033" lon="11.5048033"><ele>219.0</ele><time>2026-04-18T11:45:40.281Z</time></trkpt><trkpt lat="44.2114917" lon="11.5047583"><ele>220.0</ele><time>2026-04-18T11:45:41.281Z</time></trkpt><trkpt lat="44.21138" lon="11.5047117"><ele>221.0</ele><time>2026-04-18T11:45:42.28Z</time></trkpt><trkpt lat="44.2112683" lon="11.5046633"><ele>222.0</ele><time>2026-04-18T11:45:43.28Z</time></trkpt><trkpt lat="44.2111517" lon="11.5045817"><ele>223.0</ele><time>2026-04-18T11:45:44.28Z</time></trkpt><trkpt lat="44.2110367" lon="11.5045283"><ele>224.0</ele><time>2026-04-18T11:45:45.28Z</time></trkpt><trkpt lat="44.2109167" lon="11.50447"><ele>224.25</ele><time>2026-04-18T11:45:46.28Z</time></trkpt><trkpt lat="44.2107933" lon="11.5044117"><ele>224.5</ele><time>2026-04-18T11:45:47.28Z</time></trkpt><trkpt lat="44.2106683" lon="11.504355"><ele>224.75</ele><time>2026-04-18T11:45:48.282Z</time></trkpt><trkpt lat="44.2105433" lon="11.5043017"><ele>225.0</ele><time>2026-04-18T11:45:49.282Z</time></trkpt><trkpt lat="44.21042" lon="11.5042483"><ele>225.75</ele><time>2026-04-18T11:45:50.281Z</time></trkpt><trkpt lat="44.21029" lon="11.504195"><ele>226.5</ele><time>2026-04-18T11:45:51.28Z</time></trkpt><trkpt lat="44.2101617" lon="11.504145"><ele>227.25</ele><time>2026-04-18T11:45:52.281Z</time></trkpt><trkpt lat="44.2100317" lon="11.5040917"><ele>228.0</ele><time>2026-04-18T11:45:53.28Z</time></trkpt><trkpt lat="44.2099067" lon="11.5040283"><ele>226.75</ele><time>2026-04-18T11:45:54.281Z</time></trkpt><trkpt lat="44.20979" lon="11.5039683"><ele>225.5</ele><time>2026-04-18T11:45:55.281Z</time></trkpt><trkpt lat="44.2096683" lon="11.5039133"><ele>224.25</ele><time>2026-04-18T11:45:56.281Z</time></trkpt><trkpt lat="44.2095433" lon="11.5038533"><ele>223.0</ele><time>2026-04-18T11:45:57.28Z</time></trkpt><trkpt lat="44.20942" lon="11.5037983"><ele>224.25</ele><time>2026-04-18T11:45:58.279Z</time></trkpt><trkpt lat="44.2093" lon="11.5037433"><ele>225.5</ele><time>2026-04-18T11:45:59.279Z</time></trkpt><trkpt lat="44.20918" lon="11.5036917"><ele>226.75</ele><time>2026-04-18T11:46:00.28Z</time></trkpt><trkpt lat="44.2090583" lon="11.5036467"><ele>228.0</ele><time>2026-04-18T11:46:01.28Z</time></trkpt><trkpt lat="44.2089433" lon="11.50359"><ele>230.0</ele><time>2026-04-18T11:46:02.28Z</time></trkpt><trkpt lat="44.20883" lon="11.5035383"><ele>232.0</ele><time>2026-04-18T11:46:03.279Z</time></trkpt><trkpt lat="44.2087233" lon="11.5034967"><ele>234.0</ele><time>2026-04-18T11:46:04.279Z</time></trkpt><trkpt lat="44.2086333" lon="11.5034617"><ele>236.0</ele><time>2026-04-18T11:46:05.279Z</time></trkpt><trkpt lat="44.2085533" lon="11.5034467"><ele>238.0</ele><time>2026-04-18T11:46:06.28Z</time></trkpt><trkpt lat="44.208475" lon="11.5034583"><ele>238.0</ele><time>2026-04-18T11:46:07.279Z</time></trkpt><trkpt lat="44.2083967" lon="11.5035483"><ele>238.0</ele><time>2026-04-18T11:46:08.28Z</time></trkpt><trkpt lat="44.2083217" lon="11.5036267"><ele>238.0</ele><time>2026-04-18T11:46:09.28Z</time></trkpt><trkpt lat="44.2082167" lon="11.5036817"><ele>238.0</ele><time>2026-04-18T11:46:10.279Z</time></trkpt><trkpt lat="44.2081083" lon="11.503705"><ele>238.0</ele><time>2026-04-18T11:46:11.279Z</time></trkpt><trkpt lat="44.2079917" lon="11.5037"><ele>239.33333333333331</ele><time>2026-04-18T11:46:12.279Z</time></trkpt><trkpt lat="44.207855" lon="11.50366"><ele>240.66666666666669</ele><time>2026-04-18T11:46:13.279Z</time></trkpt><trkpt lat="44.2077083" lon="11.5036017"><ele>242.0</ele><time>2026-04-18T11:46:14.279Z</time></trkpt><trkpt lat="44.20755" lon="11.5035733"><ele>242.0</ele><time>2026-04-18T11:46:15.28Z</time></trkpt><trkpt lat="44.2073883" lon="11.50355"><ele>242.0</ele><time>2026-04-18T11:46:16.28Z</time></trkpt><trkpt lat="44.20723" lon="11.5035283"><ele>242.0</ele><time>2026-04-18T11:46:17.279Z</time></trkpt><trkpt lat="44.2070733" lon="11.5035083"><ele>242.33333333333334</ele><time>2026-04-18T11:46:18.279Z</time></trkpt><trkpt lat="44.2069133" lon="11.50349"><ele>242.66666666666669</ele><time>2026-04-18T11:46:19.281Z</time></trkpt><trkpt lat="44.2067533" lon="11.5034733"><ele>243.0</ele><time>2026-04-18T11:46:20.28Z</time></trkpt><trkpt lat="44.2065933" lon="11.5034517"><ele>242.33333333333331</ele><time>2026-04-18T11:46:21.279Z</time></trkpt><trkpt lat="44.2064367" lon="11.50343"><ele>241.66666666666666</ele><time>2026-04-18T11:46:22.279Z</time></trkpt><trkpt lat="44.20628" lon="11.5034033"><ele>241.0</ele><time>2026-04-18T11:46:23.279Z</time></trkpt><trkpt lat="44.2061267" lon="11.5033867"><ele>241.0</ele><time>2026-04-18T11:46:24.28Z</time></trkpt><trkpt lat="44.2059733" lon="11.5033667"><ele>241.0</ele><time>2026-04-18T11:46:25.281Z</time></trkpt><trkpt lat="44.2058217" lon="11.503345"><ele>241.0</ele><time>2026-04-18T11:46:26.28Z</time></trkpt><trkpt lat="44.205675" lon="11.50333"><ele>241.5</ele><time>2026-04-18T11:46:27.28Z</time></trkpt><trkpt lat="44.2055283" lon="11.5033133"><ele>242.0</ele><time>2026-04-18T11:46:28.281Z</time></trkpt><trkpt lat="44.205385" lon="11.503295"><ele>242.5</ele><time>2026-04-18T11:46:29.28Z</time></trkpt><trkpt lat="44.2052417" lon="11.503275"><ele>243.0</ele><time>2026-04-18T11:46:30.279Z</time></trkpt><trkpt lat="44.2051" lon="11.5032567"><ele>243.0</ele><time>2026-04-18T11:46:31.28Z</time></trkpt><trkpt lat="44.2049583" lon="11.5032317"><ele>243.0</ele><time>2026-04-18T11:46:32.28Z</time></trkpt><trkpt lat="44.2048167" lon="11.5032083"><ele>243.0</ele><time>2026-04-18T11:46:33.278Z</time></trkpt><trkpt lat="44.20467" lon="11.5031817"><ele>243.0</ele><time>2026-04-18T11:46:34.279Z</time></trkpt><trkpt lat="44.2045217" lon="11.5031467"><ele>243.66666666666669</ele><time>2026-04-18T11:46:35.281Z</time></trkpt><trkpt lat="44.2043717" lon="11.503125"><ele>244.33333333333334</ele><time>2026-04-18T11:46:36.281Z</time></trkpt><trkpt lat="44.2042217" lon="11.5031117"><ele>245.0</ele><time>2026-04-18T11:46:37.281Z</time></trkpt><trkpt lat="44.20407" lon="11.5031117"><ele>244.5</ele><time>2026-04-18T11:46:38.28Z</time></trkpt><trkpt lat="44.2039183" lon="11.5031133"><ele>244.0</ele><time>2026-04-18T11:46:39.28Z</time></trkpt><trkpt lat="44.2037683" lon="11.50312"><ele>243.5</ele><time>2026-04-18T11:46:40.28Z</time></trkpt><trkpt lat="44.2036217" lon="11.5031317"><ele>243.0</ele><time>2026-04-18T11:46:41.282Z</time></trkpt><trkpt lat="44.2034817" lon="11.5031433"><ele>243.0</ele><time>2026-04-18T11:46:42.282Z</time></trkpt><trkpt lat="44.2033467" lon="11.5031467"><ele>243.0</ele><time>2026-04-18T11:46:43.28Z</time></trkpt><trkpt lat="44.2032167" lon="11.5031283"><ele>243.0</ele><time>2026-04-18T11:46:44.279Z</time></trkpt><trkpt lat="44.2030917" lon="11.5030783"><ele>243.0</ele><time>2026-04-18T11:46:45.279Z</time></trkpt><trkpt lat="44.20298" lon="11.503025"><ele>245.0</ele><time>2026-04-18T11:46:46.28Z</time></trkpt><trkpt lat="44.202875" lon="11.50299"><ele>247.0</ele><time>2026-04-18T11:46:47.281Z</time></trkpt><trkpt lat="44.202775" lon="11.503"><ele>249.0</ele><time>2026-04-18T11:46:48.28Z</time></trkpt><trkpt lat="44.2026767" lon="11.5030783"><ele>251.0</ele><time>2026-04-18T11:46:49.281Z</time></trkpt><trkpt lat="44.202565" lon="11.5031767"><ele>251.0</ele><time>2026-04-18T11:46:50.281Z</time></trkpt><trkpt lat="44.2024383" lon="11.503245"><ele>251.0</ele><time>2026-04-18T11:46:51.28Z</time></trkpt><trkpt lat="44.2022833" lon="11.503275"><ele>251.0</ele><time>2026-04-18T11:46:52.279Z</time></trkpt><trkpt lat="44.202115" lon="11.503275"><ele>251.66666666666669</ele><time>2026-04-18T11:46:53.28Z</time></trkpt><trkpt lat="44.2019417" lon="11.5032367"><ele>252.33333333333331</ele><time>2026-04-18T11:46:54.279Z</time></trkpt><trkpt lat="44.2017633" lon="11.503195"><ele>253.0</ele><time>2026-04-18T11:46:55.281Z</time></trkpt><trkpt lat="44.2015767" lon="11.5031633"><ele>253.33333333333331</ele><time>2026-04-18T11:46:56.28Z</time></trkpt><trkpt lat="44.2013817" lon="11.5031467"><ele>253.66666666666669</ele><time>2026-04-18T11:46:57.28Z</time></trkpt><trkpt lat="44.2011883" lon="11.5031333"><ele>254.0</ele><time>2026-04-18T11:46:58.28Z</time></trkpt><trkpt lat="44.2010083" lon="11.5031217"><ele>254.0</ele><time>2026-04-18T11:46:59.278Z</time></trkpt><trkpt lat="44.2008383" lon="11.50311"><ele>254.0</ele><time>2026-04-18T11:47:00.28Z</time></trkpt><trkpt lat="44.2006733" lon="11.5031033"><ele>254.0</ele><time>2026-04-18T11:47:01.28Z</time></trkpt><trkpt lat="44.200515" lon="11.5030917"><ele>252.75</ele><time>2026-04-18T11:47:02.279Z</time></trkpt><trkpt lat="44.2003667" lon="11.5030783"><ele>251.5</ele><time>2026-04-18T11:47:03.278Z</time></trkpt><trkpt lat="44.200235" lon="11.5030467"><ele>250.25</ele><time>2026-04-18T11:47:04.277Z</time></trkpt><trkpt lat="44.2001167" lon="11.5029583"><ele>249.0</ele><time>2026-04-18T11:47:05.281Z</time></trkpt><trkpt lat="44.20001" lon="11.502845"><ele>253.25</ele><time>2026-04-18T11:47:06.28Z</time></trkpt><trkpt lat="44.199925" lon="11.5027067"><ele>257.5</ele><time>2026-04-18T11:47:07.28Z</time></trkpt><trkpt lat="44.199835" lon="11.5025783"><ele>261.75</ele><time>2026-04-18T11:47:08.281Z</time></trkpt><trkpt lat="44.1997183" lon="11.502495"><ele>266.0</ele><time>2026-04-18T11:47:09.279Z</time></trkpt><trkpt lat="44.199585" lon="11.50246"><ele>266.0</ele><time>2026-04-18T11:47:10.279Z</time></trkpt><trkpt lat="44.1994583" lon="11.5024667"><ele>266.0</ele><time>2026-04-18T11:47:11.28Z</time></trkpt><trkpt lat="44.1993383" lon="11.502535"><ele>266.0</ele><time>2026-04-18T11:47:12.28Z</time></trkpt><trkpt lat="44.1992217" lon="11.5026283"><ele>266.0</ele><time>2026-04-18T11:47:13.281Z</time></trkpt><trkpt lat="44.1990933" lon="11.502685"><ele>261.0</ele><time>2026-04-18T11:47:14.28Z</time></trkpt><trkpt lat="44.1989467" lon="11.502695"><ele>256.0</ele><time>2026-04-18T11:47:15.279Z</time></trkpt><trkpt lat="44.198795" lon="11.502675"><ele>251.0</ele><time>2026-04-18T11:47:16.281Z</time></trkpt><trkpt lat="44.1986467" lon="11.5026367"><ele>251.0</ele><time>2026-04-18T11:47:17.281Z</time></trkpt><trkpt lat="44.198495" lon="11.50258"><ele>251.0</ele><time>2026-04-18T11:47:18.28Z</time></trkpt><trkpt lat="44.19835" lon="11.5024917"><ele>251.0</ele><time>2026-04-18T11:47:19.281Z</time></trkpt><trkpt lat="44.1982117" lon="11.5023667"><ele>245.66666666666669</ele><time>2026-04-18T11:47:20.281Z</time></trkpt><trkpt lat="44.198065" lon="11.502225"><ele>240.33333333333331</ele><time>2026-04-18T11:47:21.281Z</time></trkpt><trkpt lat="44.19792" lon="11.5021133"><ele>235.0</ele><time>2026-04-18T11:47:22.281Z</time></trkpt><trkpt lat="44.1977967" lon="11.5019867"><ele>244.25</ele><time>2026-04-18T11:47:23.28Z</time></trkpt><trkpt lat="44.197685" lon="11.501915"><ele>253.5</ele><time>2026-04-18T11:47:24.278Z</time></trkpt><trkpt lat="44.19758" lon="11.5018817"><ele>262.75</ele><time>2026-04-18T11:47:25.28Z</time></trkpt><trkpt lat="44.197475" lon="11.5019033"><ele>272.0</ele><time>2026-04-18T11:47:26.279Z</time></trkpt><trkpt lat="44.1973633" lon="11.50196"><ele>272.0</ele><time>2026-04-18T11:47:27.28Z</time></trkpt><trkpt lat="44.1972383" lon="11.50207"><ele>272.0</ele><time>2026-04-18T11:47:28.281Z</time></trkpt><trkpt lat="44.1971117" lon="11.502185"><ele>272.0</ele><time>2026-04-18T11:47:29.28Z</time></trkpt><trkpt lat="44.196975" lon="11.5022833"><ele>262.6666666666667</ele><time>2026-04-18T11:47:30.279Z</time></trkpt><trkpt lat="44.19683" lon="11.5023433"><ele>253.33333333333331</ele><time>2026-04-18T11:47:31.279Z</time></trkpt><trkpt lat="44.19668" lon="11.5023583"><ele>244.0</ele><time>2026-04-18T11:47:32.28Z</time></trkpt><trkpt lat="44.1965183" lon="11.5023167"><ele>243.33333333333331</ele><time>2026-04-18T11:47:33.28Z</time></trkpt><trkpt lat="44.1963567" lon="11.50224"><ele>242.66666666666669</ele><time>2026-04-18T11:47:34.28Z</time></trkpt><trkpt lat="44.1962017" lon="11.5021433"><ele>242.0</ele><time>2026-04-18T11:47:35.279Z</time></trkpt><trkpt lat="44.1960517" lon="11.502035"><ele>242.0</ele><time>2026-04-18T11:47:36.28Z</time></trkpt><trkpt lat="44.195925" lon="11.501925"><ele>242.0</ele><time>2026-04-18T11:47:37.28Z</time></trkpt><trkpt lat="44.1958233" lon="11.5017917"><ele>242.0</ele><time>2026-04-18T11:47:38.28Z</time></trkpt><trkpt lat="44.19575" lon="11.5016333"><ele>242.0</ele><time>2026-04-18T11:47:39.281Z</time></trkpt><trkpt lat="44.195715" lon="11.5014483"><ele>248.0</ele><time>2026-04-18T11:47:40.28Z</time></trkpt><trkpt lat="44.1957083" lon="11.5012167"><ele>254.0</ele><time>2026-04-18T11:47:41.28Z</time></trkpt><trkpt lat="44.1957017" lon="11.500975"><ele>260.0</ele><time>2026-04-18T11:47:42.28Z</time></trkpt><trkpt lat="44.1956867" lon="11.500755"><ele>257.8</ele><time>2026-04-18T11:47:43.279Z</time></trkpt><trkpt lat="44.1956617" lon="11.5005817"><ele>255.6</ele><time>2026-04-18T11:47:44.28Z</time></trkpt><trkpt lat="44.1956067" lon="11.5004417"><ele>253.39999999999998</ele><time>2026-04-18T11:47:45.281Z</time></trkpt><trkpt lat="44.19554" lon="11.5003417"><ele>251.2</ele><time>2026-04-18T11:47:46.28Z</time></trkpt><trkpt lat="44.1954683" lon="11.5003067"><ele>249.0</ele><time>2026-04-18T11:47:47.28Z</time></trkpt><trkpt lat="44.195375" lon="11.500355"><ele>241.0</ele><time>2026-04-18T11:47:48.282Z</time></trkpt><trkpt lat="44.195265" lon="11.500425"><ele>233.0</ele><time>2026-04-18T11:47:49.281Z</time></trkpt><trkpt lat="44.1951633" lon="11.500485"><ele>225.0</ele><time>2026-04-18T11:47:50.282Z</time></trkpt><trkpt lat="44.1950533" lon="11.5004833"><ele>217.0</ele><time>2026-04-18T11:47:51.281Z</time></trkpt><trkpt lat="44.1949467" lon="11.5004183"><ele>225.0</ele><time>2026-04-18T11:47:52.281Z</time></trkpt><trkpt lat="44.1948383" lon="11.500295"><ele>233.0</ele><time>2026-04-18T11:47:53.282Z</time></trkpt><trkpt lat="44.1947167" lon="11.5001967"><ele>241.0</ele><time>2026-04-18T11:47:54.28Z</time></trkpt><trkpt lat="44.1945833" lon="11.500135"><ele>249.0</ele><time>2026-04-18T11:47:55.281Z</time></trkpt><trkpt lat="44.1944267" lon="11.5001333"><ele>251.66666666666669</ele><time>2026-04-18T11:47:56.28Z</time></trkpt><trkpt lat="44.1942417" lon="11.5001717"><ele>254.33333333333334</ele><time>2026-04-18T11:47:57.278Z</time></trkpt><trkpt lat="44.1940733" lon="11.500245"><ele>257.0</ele><time>2026-04-18T11:47:58.279Z</time></trkpt><trkpt lat="44.1939183" lon="11.5003183"><ele>258.0</ele><time>2026-04-18T11:47:59.28Z</time></trkpt><trkpt lat="44.1937717" lon="11.5003683"><ele>259.0</ele><time>2026-04-18T11:48:00.279Z</time></trkpt><trkpt lat="44.1936133" lon="11.50038"><ele>260.0</ele><time>2026-04-18T11:48:01.281Z</time></trkpt><trkpt lat="44.1934433" lon="11.50036"><ele>260.0</ele><time>2026-04-18T11:48:02.281Z</time></trkpt><trkpt lat="44.19327" lon="11.50035"><ele>260.0</ele><time>2026-04-18T11:48:03.28Z</time></trkpt><trkpt lat="44.1930983" lon="11.50035"><ele>260.0</ele><time>2026-04-18T11:48:04.281Z</time></trkpt><trkpt lat="44.192935" lon="11.5003567"><ele>256.0</ele><time>2026-04-18T11:48:05.279Z</time></trkpt><trkpt lat="44.192775" lon="11.50033"><ele>252.0</ele><time>2026-04-18T11:48:06.28Z</time></trkpt><trkpt lat="44.192625" lon="11.5002567"><ele>248.0</ele><time>2026-04-18T11:48:07.281Z</time></trkpt><trkpt lat="44.19249" lon="11.5001617"><ele>248.0</ele><time>2026-04-18T11:48:08.28Z</time></trkpt><trkpt lat="44.1923683" lon="11.5000883"><ele>248.0</ele><time>2026-04-18T11:48:09.28Z</time></trkpt><trkpt lat="44.1922483" lon="11.5000617"><ele>248.0</ele><time>2026-04-18T11:48:10.28Z</time></trkpt><trkpt lat="44.1921417" lon="11.5001217"><ele>248.0</ele><time>2026-04-18T11:48:11.28Z</time></trkpt><trkpt lat="44.19204" lon="11.5002467"><ele>249.33333333333334</ele><time>2026-04-18T11:48:12.281Z</time></trkpt><trkpt lat="44.19192" lon="11.5003867"><ele>250.66666666666669</ele><time>2026-04-18T11:48:13.28Z</time></trkpt><trkpt lat="44.1917717" lon="11.50047"><ele>252.0</ele><time>2026-04-18T11:48:14.279Z</time></trkpt><trkpt lat="44.1916033" lon="11.5005"><ele>242.66666666666669</ele><time>2026-04-18T11:48:15.28Z</time></trkpt><trkpt lat="44.191435" lon="11.50048"><ele>233.33333333333334</ele><time>2026-04-18T11:48:16.28Z</time></trkpt><trkpt lat="44.1912667" lon="11.5004083"><ele>224.0</ele><time>2026-04-18T11:48:17.28Z</time></trkpt><trkpt lat="44.1911033" lon="11.5002917"><ele>224.0</ele><time>2026-04-18T11:48:18.281Z</time></trkpt><trkpt lat="44.1909417" lon="11.500145"><ele>224.0</ele><time>2026-04-18T11:48:19.279Z</time></trkpt><trkpt lat="44.190775" lon="11.4999983"><ele>224.0</ele><time>2026-04-18T11:48:20.28Z</time></trkpt><trkpt lat="44.1906067" lon="11.4998667"><ele>220.33333333333334</ele><time>2026-04-18T11:48:21.279Z</time></trkpt><trkpt lat="44.1904383" lon="11.4997433"><ele>216.66666666666669</ele><time>2026-04-18T11:48:22.28Z</time></trkpt><trkpt lat="44.1902733" lon="11.499635"><ele>213.0</ele><time>2026-04-18T11:48:23.279Z</time></trkpt><trkpt lat="44.1901133" lon="11.4995467"><ele>223.0</ele><time>2026-04-18T11:48:24.279Z</time></trkpt><trkpt lat="44.1899567" lon="11.4994867"><ele>233.0</ele><time>2026-04-18T11:48:25.281Z</time></trkpt><trkpt lat="44.1898" lon="11.4994683"><ele>243.0</ele><time>2026-04-18T11:48:26.28Z</time></trkpt><trkpt lat="44.1896433" lon="11.4995033"><ele>238.0</ele><time>2026-04-18T11:48:27.279Z</time></trkpt><trkpt lat="44.1894867" lon="11.49959"><ele>233.0</ele><time>2026-04-18T11:48:28.28Z</time></trkpt><trkpt lat="44.1893283" lon="11.4997"><ele>228.0</ele><time>2026-04-18T11:48:29.279Z</time></trkpt><trkpt lat="44.189175" lon="11.49984"><ele>228.0</ele><time>2026-04-18T11:48:30.28Z</time></trkpt><trkpt lat="44.1890367" lon="11.5000067"><ele>228.0</ele><time>2026-04-18T11:48:31.28Z</time></trkpt><trkpt lat="44.1889117" lon="11.500205"><ele>228.0</ele><time>2026-04-18T11:48:32.28Z</time></trkpt><trkpt lat="44.1887967" lon="11.500425"><ele>225.0</ele><time>2026-04-18T11:48:33.279Z</time></trkpt><trkpt lat="44.1887" lon="11.50065"><ele>222.0</ele><time>2026-04-18T11:48:34.281Z</time></trkpt><trkpt lat="44.1886217" lon="11.5008767"><ele>219.0</ele><time>2026-04-18T11:48:35.282Z</time></trkpt><trkpt lat="44.1885483" lon="11.501085"><ele>216.0</ele><time>2026-04-18T11:48:36.28Z</time></trkpt><trkpt lat="44.188485" lon="11.5012667"><ele>213.0</ele><time>2026-04-18T11:48:37.281Z</time></trkpt><trkpt lat="44.188415" lon="11.5014083"><ele>210.0</ele><time>2026-04-18T11:48:38.281Z</time></trkpt><trkpt lat="44.1883317" lon="11.5014967"><ele>207.0</ele><time>2026-04-18T11:48:39.278Z</time></trkpt><trkpt lat="44.1882417" lon="11.50155"><ele>206.0</ele><time>2026-04-18T11:48:40.279Z</time></trkpt><trkpt lat="44.1881217" lon="11.5015633"><ele>205.0</ele><time>2026-04-18T11:48:41.281Z</time></trkpt><trkpt lat="44.1879867" lon="11.5015683"><ele>204.0</ele><time>2026-04-18T11:48:42.279Z</time></trkpt><trkpt lat="44.1878533" lon="11.5015683"><ele>203.0</ele><time>2026-04-18T11:48:43.279Z</time></trkpt><trkpt lat="44.18772" lon="11.5015667"><ele>203.0</ele><time>2026-04-18T11:48:44.281Z</time></trkpt><trkpt lat="44.1875867" lon="11.50157"><ele>203.0</ele><time>2026-04-18T11:48:45.281Z</time></trkpt><trkpt lat="44.1874583" lon="11.5015767"><ele>203.0</ele><time>2026-04-18T11:48:46.281Z</time></trkpt><trkpt lat="44.1873283" lon="11.50158"><ele>203.0</ele><time>2026-04-18T11:48:47.28Z</time></trkpt><trkpt lat="44.1871967" lon="11.501585"><ele>209.2</ele><time>2026-04-18T11:48:48.28Z</time></trkpt><trkpt lat="44.187075" lon="11.5015867"><ele>215.4</ele><time>2026-04-18T11:48:49.28Z</time></trkpt><trkpt lat="44.18697" lon="11.5015883"><ele>221.59999999999997</ele><time>2026-04-18T11:48:50.281Z</time></trkpt><trkpt lat="44.1868783" lon="11.5015717"><ele>227.79999999999998</ele><time>2026-04-18T11:48:51.28Z</time></trkpt><trkpt lat="44.1867967" lon="11.50154"><ele>234.0</ele><time>2026-04-18T11:48:52.28Z</time></trkpt><trkpt lat="44.1867383" lon="11.501485"><ele>234.0</ele><time>2026-04-18T11:48:53.28Z</time></trkpt><trkpt lat="44.186735" lon="11.5013833"><ele>233.99999999999997</ele><time>2026-04-18T11:48:54.281Z</time></trkpt><trkpt lat="44.1867517" lon="11.501215"><ele>233.99999999999997</ele><time>2026-04-18T11:48:56.28Z</time></trkpt><trkpt lat="44.1867633" lon="11.501085"><ele>234.0</ele><time>2026-04-18T11:48:58.28Z</time></trkpt><trkpt lat="44.1867717" lon="11.5009817"><ele>234.0</ele><time>2026-04-18T11:49:01.28Z</time></trkpt><trkpt lat="44.1867917" lon="11.50084"><ele>233.66666666666666</ele><time>2026-04-18T11:49:20.281Z</time></trkpt><trkpt lat="44.1868267" lon="11.500745"><ele>233.33333333333331</ele><time>2026-04-18T11:49:21.28Z</time></trkpt><trkpt lat="44.18687" lon="11.5006367"><ele>233.0</ele><time>2026-04-18T11:49:22.281Z</time></trkpt><trkpt lat="44.1868967" lon="11.50054"><ele>232.66666666666666</ele><time>2026-04-18T11:49:23.28Z</time></trkpt><trkpt lat="44.18692" lon="11.500435"><ele>232.33333333333331</ele><time>2026-04-18T11:49:24.279Z</time></trkpt><trkpt lat="44.1869233" lon="11.5003317"><ele>232.0</ele><time>2026-04-18T11:49:25.28Z</time></trkpt><trkpt lat="44.1869017" lon="11.5002433"><ele>230.6</ele><time>2026-04-18T11:49:26.281Z</time></trkpt><trkpt lat="44.1868033" lon="11.5001767"><ele>229.2</ele><time>2026-04-18T11:49:27.279Z</time></trkpt><trkpt lat="44.18671" lon="11.500135"><ele>227.8</ele><time>2026-04-18T11:49:28.281Z</time></trkpt><trkpt lat="44.1866" lon="11.5001033"><ele>226.4</ele><time>2026-04-18T11:49:29.281Z</time></trkpt><trkpt lat="44.18649" lon="11.5000917"><ele>225.0</ele><time>2026-04-18T11:49:30.279Z</time></trkpt><trkpt lat="44.18638" lon="11.5001017"><ele>225.0</ele><time>2026-04-18T11:49:31.28Z</time></trkpt><trkpt lat="44.1862733" lon="11.50014"><ele>225.0</ele><time>2026-04-18T11:49:32.28Z</time></trkpt><trkpt lat="44.1861767" lon="11.50021"><ele>225.0</ele><time>2026-04-18T11:49:33.279Z</time></trkpt><trkpt lat="44.1860783" lon="11.5003017"><ele>225.0</ele><time>2026-04-18T11:49:34.278Z</time></trkpt><trkpt lat="44.185985" lon="11.50041"><ele>228.5</ele><time>2026-04-18T11:49:35.28Z</time></trkpt><trkpt lat="44.1859017" lon="11.500545"><ele>232.0</ele><time>2026-04-18T11:49:36.28Z</time></trkpt><trkpt lat="44.1858317" lon="11.500715"><ele>235.5</ele><time>2026-04-18T11:49:37.281Z</time></trkpt><trkpt lat="44.1857883" lon="11.50093"><ele>239.0</ele><time>2026-04-18T11:49:38.28Z</time></trkpt><trkpt lat="44.1857567" lon="11.5011517"><ele>241.33333333333334</ele><time>2026-04-18T11:49:39.281Z</time></trkpt><trkpt lat="44.1857017" lon="11.5013633"><ele>243.66666666666669</ele><time>2026-04-18T11:49:40.281Z</time></trkpt><trkpt lat="44.1856367" lon="11.5015617"><ele>246.0</ele><time>2026-04-18T11:49:41.281Z</time></trkpt><trkpt lat="44.185555" lon="11.50174"><ele>246.0</ele><time>2026-04-18T11:49:42.281Z</time></trkpt><trkpt lat="44.1854867" lon="11.5019283"><ele>246.0</ele><time>2026-04-18T11:49:43.28Z</time></trkpt><trkpt lat="44.1854383" lon="11.5021333"><ele>246.0</ele><time>2026-04-18T11:49:44.281Z</time></trkpt><trkpt lat="44.1854167" lon="11.50236"><ele>247.25</ele><time>2026-04-18T11:49:45.281Z</time></trkpt><trkpt lat="44.1854117" lon="11.50257"><ele>248.5</ele><time>2026-04-18T11:49:46.281Z</time></trkpt><trkpt lat="44.1854383" lon="11.5027533"><ele>249.75</ele><time>2026-04-18T11:49:47.279Z</time></trkpt><trkpt lat="44.18548" lon="11.5029183"><ele>251.0</ele><time>2026-04-18T11:49:48.279Z</time></trkpt><trkpt lat="44.1855433" lon="11.5030767"><ele>255.25</ele><time>2026-04-18T11:49:49.28Z</time></trkpt><trkpt lat="44.1855917" lon="11.50325"><ele>259.5</ele><time>2026-04-18T11:49:50.284Z</time></trkpt><trkpt lat="44.1856167" lon="11.503425"><ele>263.75</ele><time>2026-04-18T11:49:51.28Z</time></trkpt><trkpt lat="44.18563" lon="11.503575"><ele>268.0</ele><time>2026-04-18T11:49:52.28Z</time></trkpt><trkpt lat="44.1856233" lon="11.5036917"><ele>268.0</ele><time>2026-04-18T11:49:53.281Z</time></trkpt><trkpt lat="44.1856133" lon="11.503795"><ele>268.0</ele><time>2026-04-18T11:49:54.281Z</time></trkpt><trkpt lat="44.1855667" lon="11.5038717"><ele>268.0</ele><time>2026-04-18T11:49:55.28Z</time></trkpt><trkpt lat="44.1854517" lon="11.5038267"><ele>268.0</ele><time>2026-04-18T11:49:56.281Z</time></trkpt><trkpt lat="44.1853583" lon="11.5037667"><ele>268.0</ele><time>2026-04-18T11:49:57.28Z</time></trkpt><trkpt lat="44.1852533" lon="11.5036133"><ele>268.0</ele><time>2026-04-18T11:49:58.278Z</time></trkpt><trkpt lat="44.18514" lon="11.503475"><ele>268.0</ele><time>2026-04-18T11:49:59.281Z</time></trkpt><trkpt lat="44.185035" lon="11.5033633"><ele>268.0</ele><time>2026-04-18T11:50:00.28Z</time></trkpt><trkpt lat="44.1849167" lon="11.5033033"><ele>268.0</ele><time>2026-04-18T11:50:01.28Z</time></trkpt><trkpt lat="44.18481" lon="11.5032833"><ele>269.3333333333333</ele><time>2026-04-18T11:50:02.281Z</time></trkpt><trkpt lat="44.184685" lon="11.503295"><ele>270.6666666666667</ele><time>2026-04-18T11:50:03.28Z</time></trkpt><trkpt lat="44.184525" lon="11.5033383"><ele>272.0</ele><time>2026-04-18T11:50:04.28Z</time></trkpt><trkpt lat="44.184345" lon="11.5033583"><ele>272.0</ele><time>2026-04-18T11:50:05.28Z</time></trkpt><trkpt lat="44.1841967" lon="11.50337"><ele>272.0</ele><time>2026-04-18T11:50:06.281Z</time></trkpt><trkpt lat="44.18402" lon="11.5034017"><ele>272.0</ele><time>2026-04-18T11:50:07.28Z</time></trkpt><trkpt lat="44.183825" lon="11.5034833"><ele>274.33333333333337</ele><time>2026-04-18T11:50:08.281Z</time></trkpt><trkpt lat="44.18367" lon="11.5036217"><ele>276.6666666666667</ele><time>2026-04-18T11:50:09.28Z</time></trkpt><trkpt lat="44.1835533" lon="11.5037817"><ele>279.0</ele><time>2026-04-18T11:50:10.28Z</time></trkpt><trkpt lat="44.18344" lon="11.5039167"><ele>284.0</ele><time>2026-04-18T11:50:11.281Z</time></trkpt><trkpt lat="44.18332" lon="11.5039983"><ele>289.0</ele><time>2026-04-18T11:50:12.281Z</time></trkpt><trkpt lat="44.1831867" lon="11.50405"><ele>294.0</ele><time>2026-04-18T11:50:13.281Z</time></trkpt><trkpt lat="44.1830283" lon="11.5040617"><ele>299.0</ele><time>2026-04-18T11:50:14.281Z</time></trkpt><trkpt lat="44.1828683" lon="11.5040583"><ele>299.5</ele><time>2026-04-18T11:50:15.281Z</time></trkpt><trkpt lat="44.18272" lon="11.5040183"><ele>300.0</ele><time>2026-04-18T11:50:16.281Z</time></trkpt><trkpt lat="44.18258" lon="11.5039183"><ele>300.5</ele><time>2026-04-18T11:50:17.279Z</time></trkpt><trkpt lat="44.1824667" lon="11.5038017"><ele>301.0</ele><time>2026-04-18T11:50:18.281Z</time></trkpt><trkpt lat="44.182375" lon="11.5036533"><ele>303.0</ele><time>2026-04-18T11:50:19.28Z</time></trkpt><trkpt lat="44.1822983" lon="11.5034567"><ele>305.0</ele><time>2026-04-18T11:50:20.282Z</time></trkpt><trkpt lat="44.1822467" lon="11.5032633"><ele>307.0</ele><time>2026-04-18T11:50:21.281Z</time></trkpt><trkpt lat="44.1821967" lon="11.503075"><ele>305.0</ele><time>2026-04-18T11:50:22.282Z</time></trkpt><trkpt lat="44.1821867" lon="11.5028217"><ele>303.0</ele><time>2026-04-18T11:50:23.281Z</time></trkpt><trkpt lat="44.1821567" lon="11.5026133"><ele>301.0</ele><time>2026-04-18T11:50:24.281Z</time></trkpt><trkpt lat="44.1821217" lon="11.5024383"><ele>301.0</ele><time>2026-04-18T11:50:25.28Z</time></trkpt><trkpt lat="44.1821017" lon="11.5022567"><ele>301.0</ele><time>2026-04-18T11:50:26.282Z</time></trkpt><trkpt lat="44.1820683" lon="11.5021233"><ele>301.0</ele><time>2026-04-18T11:50:27.281Z</time></trkpt><trkpt lat="44.1820183" lon="11.50204"><ele>301.0</ele><time>2026-04-18T11:50:28.28Z</time></trkpt><trkpt lat="44.1819683" lon="11.5019283"><ele>301.0</ele><time>2026-04-18T11:50:29.282Z</time></trkpt><trkpt lat="44.181905" lon="11.5018783"><ele>300.25</ele><time>2026-04-18T11:50:30.281Z</time></trkpt><trkpt lat="44.1818133" lon="11.5018533"><ele>299.5</ele><time>2026-04-18T11:50:31.28Z</time></trkpt><trkpt lat="44.1817117" lon="11.50186"><ele>298.75</ele><time>2026-04-18T11:50:32.281Z</time></trkpt><trkpt lat="44.181595" lon="11.50189"><ele>298.0</ele><time>2026-04-18T11:50:33.281Z</time></trkpt><trkpt lat="44.1814533" lon="11.50195"><ele>298.0</ele><time>2026-04-18T11:50:34.281Z</time></trkpt><trkpt lat="44.1812883" lon="11.5019983"><ele>298.0</ele><time>2026-04-18T11:50:35.281Z</time></trkpt><trkpt lat="44.1811233" lon="11.5020483"><ele>298.0</ele><time>2026-04-18T11:50:36.282Z</time></trkpt><trkpt lat="44.1809733" lon="11.5021"><ele>300.75</ele><time>2026-04-18T11:50:37.285Z</time></trkpt><trkpt lat="44.1808367" lon="11.502135"><ele>303.5</ele><time>2026-04-18T11:50:38.281Z</time></trkpt><trkpt lat="44.1807183" lon="11.5021467"><ele>306.25</ele><time>2026-04-18T11:50:39.28Z</time></trkpt><trkpt lat="44.18061" lon="11.502105"><ele>309.0</ele><time>2026-04-18T11:50:40.28Z</time></trkpt><trkpt lat="44.1805067" lon="11.502005"><ele>314.3333333333333</ele><time>2026-04-18T11:50:41.282Z</time></trkpt><trkpt lat="44.1804183" lon="11.501865"><ele>319.66666666666663</ele><time>2026-04-18T11:50:42.281Z</time></trkpt><trkpt lat="44.180335" lon="11.5016883"><ele>325.0</ele><time>2026-04-18T11:50:43.281Z</time></trkpt><trkpt lat="44.1802433" lon="11.501495"><ele>325.0</ele><time>2026-04-18T11:50:44.281Z</time></trkpt><trkpt lat="44.1801683" lon="11.5012933"><ele>325.0</ele><time>2026-04-18T11:50:45.281Z</time></trkpt><trkpt lat="44.1801" lon="11.5010817"><ele>325.0</ele><time>2026-04-18T11:50:46.282Z</time></trkpt><trkpt lat="44.1800433" lon="11.50089"><ele>326.25</ele><time>2026-04-18T11:50:47.281Z</time></trkpt><trkpt lat="44.1799883" lon="11.5007167"><ele>327.5</ele><time>2026-04-18T11:50:48.281Z</time></trkpt><trkpt lat="44.179915" lon="11.5005633"><ele>328.75</ele><time>2026-04-18T11:50:49.281Z</time></trkpt><trkpt lat="44.1798233" lon="11.50043"><ele>330.0</ele><time>2026-04-18T11:50:50.282Z</time></trkpt><trkpt lat="44.1797117" lon="11.500285"><ele>330.0</ele><time>2026-04-18T11:50:51.282Z</time></trkpt><trkpt lat="44.1795983" lon="11.500115"><ele>330.0</ele><time>2026-04-18T11:50:52.281Z</time></trkpt><trkpt lat="44.17948" lon="11.499935"><ele>330.0</ele><time>2026-04-18T11:50:53.28Z</time></trkpt><trkpt lat="44.179355" lon="11.4997567"><ele>330.0</ele><time>2026-04-18T11:50:54.282Z</time></trkpt><trkpt lat="44.1792283" lon="11.4995883"><ele>330.0</ele><time>2026-04-18T11:50:55.28Z</time></trkpt><trkpt lat="44.1791033" lon="11.4994233"><ele>330.0</ele><time>2026-04-18T11:50:56.281Z</time></trkpt><trkpt lat="44.1789767" lon="11.4992533"><ele>329.3333333333333</ele><time>2026-04-18T11:50:57.281Z</time></trkpt><trkpt lat="44.1788517" lon="11.4990917"><ele>328.66666666666663</ele><time>2026-04-18T11:50:58.281Z</time></trkpt><trkpt lat="44.1787233" lon="11.4989433"><ele>328.0</ele><time>2026-04-18T11:50:59.281Z</time></trkpt><trkpt lat="44.178595" lon="11.4988083"><ele>323.3333333333333</ele><time>2026-04-18T11:51:00.282Z</time></trkpt><trkpt lat="44.1784517" lon="11.4987167"><ele>318.6666666666667</ele><time>2026-04-18T11:51:01.281Z</time></trkpt><trkpt lat="44.1782967" lon="11.4986583"><ele>314.0</ele><time>2026-04-18T11:51:02.281Z</time></trkpt><trkpt lat="44.1781417" lon="11.4986233"><ele>314.0</ele><time>2026-04-18T11:51:03.281Z</time></trkpt><trkpt lat="44.17799" lon="11.4985917"><ele>314.0</ele><time>2026-04-18T11:51:04.282Z</time></trkpt><trkpt lat="44.177845" lon="11.498545"><ele>314.0</ele><time>2026-04-18T11:51:05.28Z</time></trkpt><trkpt lat="44.1777267" lon="11.498475"><ele>314.0</ele><time>2026-04-18T11:51:06.281Z</time></trkpt><trkpt lat="44.1776367" lon="11.4983717"><ele>314.0</ele><time>2026-04-18T11:51:07.281Z</time></trkpt><trkpt lat="44.1775883" lon="11.4982333"><ele>314.0</ele><time>2026-04-18T11:51:08.281Z</time></trkpt><trkpt lat="44.1775983" lon="11.4980917"><ele>314.0</ele><time>2026-04-18T11:51:09.28Z</time></trkpt><trkpt lat="44.177655" lon="11.4979833"><ele>314.0</ele><time>2026-04-18T11:51:10.282Z</time></trkpt><trkpt lat="44.1777617" lon="11.4978933"><ele>314.0</ele><time>2026-04-18T11:51:11.28Z</time></trkpt><trkpt lat="44.1779083" lon="11.4978133"><ele>314.6666666666667</ele><time>2026-04-18T11:51:12.28Z</time></trkpt><trkpt lat="44.1780767" lon="11.497725"><ele>315.3333333333333</ele><time>2026-04-18T11:51:13.279Z</time></trkpt><trkpt lat="44.1782483" lon="11.4976367"><ele>316.0</ele><time>2026-04-18T11:51:14.28Z</time></trkpt><trkpt lat="44.17841" lon="11.497545"><ele>312.25</ele><time>2026-04-18T11:51:15.279Z</time></trkpt><trkpt lat="44.1785433" lon="11.497425"><ele>308.5</ele><time>2026-04-18T11:51:16.28Z</time></trkpt><trkpt lat="44.1786567" lon="11.4972817"><ele>304.75</ele><time>2026-04-18T11:51:17.282Z</time></trkpt><trkpt lat="44.1787267" lon="11.4971217"><ele>301.0</ele><time>2026-04-18T11:51:18.28Z</time></trkpt><trkpt lat="44.17875" lon="11.4969433"><ele>301.0</ele><time>2026-04-18T11:51:19.281Z</time></trkpt><trkpt lat="44.1787383" lon="11.4967483"><ele>301.0</ele><time>2026-04-18T11:51:20.282Z</time></trkpt><trkpt lat="44.1787017" lon="11.496535"><ele>301.0</ele><time>2026-04-18T11:51:21.281Z</time></trkpt><trkpt lat="44.1786433" lon="11.49631"><ele>298.3333333333333</ele><time>2026-04-18T11:51:22.28Z</time></trkpt><trkpt lat="44.1785667" lon="11.4960817"><ele>295.6666666666667</ele><time>2026-04-18T11:51:23.281Z</time></trkpt><trkpt lat="44.1784817" lon="11.4958517"><ele>293.0</ele><time>2026-04-18T11:51:24.28Z</time></trkpt><trkpt lat="44.1784017" lon="11.4956317"><ele>293.0</ele><time>2026-04-18T11:51:25.281Z</time></trkpt><trkpt lat="44.1783133" lon="11.4954417"><ele>293.0</ele><time>2026-04-18T11:51:26.282Z</time></trkpt><trkpt lat="44.1782167" lon="11.4952883"><ele>293.0</ele><time>2026-04-18T11:51:27.281Z</time></trkpt><trkpt lat="44.1781017" lon="11.4951783"><ele>293.0</ele><time>2026-04-18T11:51:28.281Z</time></trkpt><trkpt lat="44.1779633" lon="11.4951083"><ele>290.25</ele><time>2026-04-18T11:51:29.281Z</time></trkpt><trkpt lat="44.17782" lon="11.495085"><ele>287.5</ele><time>2026-04-18T11:51:30.283Z</time></trkpt><trkpt lat="44.177675" lon="11.4951033"><ele>284.75</ele><time>2026-04-18T11:51:31.282Z</time></trkpt><trkpt lat="44.1775283" lon="11.4951783"><ele>282.0</ele><time>2026-04-18T11:51:32.283Z</time></trkpt><trkpt lat="44.1774" lon="11.4953183"><ele>285.6666666666667</ele><time>2026-04-18T11:51:33.281Z</time></trkpt><trkpt lat="44.1772767" lon="11.4954967"><ele>289.33333333333337</ele><time>2026-04-18T11:51:34.282Z</time></trkpt><trkpt lat="44.177155" lon="11.49567"><ele>293.0</ele><time>2026-04-18T11:51:35.282Z</time></trkpt><trkpt lat="44.1770483" lon="11.4958267"><ele>293.0</ele><time>2026-04-18T11:51:36.281Z</time></trkpt><trkpt lat="44.1769383" lon="11.4959433"><ele>293.0</ele><time>2026-04-18T11:51:37.281Z</time></trkpt><trkpt lat="44.1768383" lon="11.4960217"><ele>293.0</ele><time>2026-04-18T11:51:38.28Z</time></trkpt><trkpt lat="44.1767333" lon="11.4960433"><ele>293.0</ele><time>2026-04-18T11:51:39.282Z</time></trkpt><trkpt lat="44.17664" lon="11.4960183"><ele>293.0</ele><time>2026-04-18T11:51:40.282Z</time></trkpt><trkpt lat="44.1765633" lon="11.4959633"><ele>293.0</ele><time>2026-04-18T11:51:41.28Z</time></trkpt><trkpt lat="44.1765" lon="11.495865"><ele>293.0</ele><time>2026-04-18T11:51:42.281Z</time></trkpt><trkpt lat="44.1765383" lon="11.4956917"><ele>293.0</ele><time>2026-04-18T11:51:43.282Z</time></trkpt><trkpt lat="44.1766167" lon="11.495535"><ele>293.0</ele><time>2026-04-18T11:51:44.28Z</time></trkpt><trkpt lat="44.1767033" lon="11.4953867"><ele>293.0</ele><time>2026-04-18T11:51:45.279Z</time></trkpt><trkpt lat="44.1768017" lon="11.4952433"><ele>293.0</ele><time>2026-04-18T11:51:46.281Z</time></trkpt><trkpt lat="44.1768867" lon="11.4951067"><ele>293.0</ele><time>2026-04-18T11:51:47.281Z</time></trkpt><trkpt lat="44.176955" lon="11.4949567"><ele>293.0</ele><time>2026-04-18T11:51:48.281Z</time></trkpt><trkpt lat="44.176985" lon="11.494795"><ele>293.0</ele><time>2026-04-18T11:51:49.281Z</time></trkpt><trkpt lat="44.176985" lon="11.4946217"><ele>293.0</ele><time>2026-04-18T11:51:50.281Z</time></trkpt><trkpt lat="44.1769433" lon="11.494435"><ele>293.0</ele><time>2026-04-18T11:51:51.282Z</time></trkpt><trkpt lat="44.1768133" lon="11.4942283"><ele>290.6666666666667</ele><time>2026-04-18T11:51:52.28Z</time></trkpt><trkpt lat="44.1767333" lon="11.4940283"><ele>288.3333333333333</ele><time>2026-04-18T11:51:53.281Z</time></trkpt><trkpt lat="44.176685" lon="11.4938217"><ele>286.0</ele><time>2026-04-18T11:51:54.28Z</time></trkpt><trkpt lat="44.176675" lon="11.4936"><ele>283.66666666666663</ele><time>2026-04-18T11:51:55.28Z</time></trkpt><trkpt lat="44.1766733" lon="11.4933817"><ele>281.3333333333333</ele><time>2026-04-18T11:51:56.282Z</time></trkpt><trkpt lat="44.1766467" lon="11.493175"><ele>279.0</ele><time>2026-04-18T11:51:57.281Z</time></trkpt><trkpt lat="44.1765917" lon="11.4929833"><ele>279.75</ele><time>2026-04-18T11:51:58.28Z</time></trkpt><trkpt lat="44.1765333" lon="11.49281"><ele>280.5</ele><time>2026-04-18T11:51:59.28Z</time></trkpt><trkpt lat="44.1764967" lon="11.4926417"><ele>281.25</ele><time>2026-04-18T11:52:00.282Z</time></trkpt><trkpt lat="44.17649" lon="11.4924783"><ele>282.0</ele><time>2026-04-18T11:52:01.281Z</time></trkpt><trkpt lat="44.1765217" lon="11.492325"><ele>282.0</ele><time>2026-04-18T11:52:02.282Z</time></trkpt><trkpt lat="44.17659" lon="11.4922033"><ele>282.0</ele><time>2026-04-18T11:52:03.281Z</time></trkpt><trkpt lat="44.1766783" lon="11.4921083"><ele>282.0</ele><time>2026-04-18T11:52:04.281Z</time></trkpt><trkpt lat="44.1767833" lon="11.4920367"><ele>282.0</ele><time>2026-04-18T11:52:05.282Z</time></trkpt><trkpt lat="44.1768983" lon="11.4919217"><ele>286.3333333333333</ele><time>2026-04-18T11:52:06.281Z</time></trkpt><trkpt lat="44.1769817" lon="11.491755"><ele>290.66666666666663</ele><time>2026-04-18T11:52:07.281Z</time></trkpt><trkpt lat="44.1770683" lon="11.4915767"><ele>295.0</ele><time>2026-04-18T11:52:08.281Z</time></trkpt><trkpt lat="44.1771633" lon="11.4914133"><ele>295.0</ele><time>2026-04-18T11:52:09.281Z</time></trkpt><trkpt lat="44.1772733" lon="11.4912767"><ele>295.0</ele><time>2026-04-18T11:52:10.282Z</time></trkpt><trkpt lat="44.1773833" lon="11.4911633"><ele>295.0</ele><time>2026-04-18T11:52:11.28Z</time></trkpt><trkpt lat="44.1774917" lon="11.491035"><ele>295.0</ele><time>2026-04-18T11:52:12.281Z</time></trkpt><trkpt lat="44.1775767" lon="11.490875"><ele>291.66666666666663</ele><time>2026-04-18T11:52:13.282Z</time></trkpt><trkpt lat="44.1776483" lon="11.490685"><ele>288.3333333333333</ele><time>2026-04-18T11:52:14.28Z</time></trkpt><trkpt lat="44.1776917" lon="11.490465"><ele>285.0</ele><time>2026-04-18T11:52:15.281Z</time></trkpt><trkpt lat="44.1777233" lon="11.490235"><ele>285.0</ele><time>2026-04-18T11:52:16.281Z</time></trkpt><trkpt lat="44.1777567" lon="11.490005"><ele>285.0</ele><time>2026-04-18T11:52:17.282Z</time></trkpt><trkpt lat="44.1777883" lon="11.4897867"><ele>285.0</ele><time>2026-04-18T11:52:18.282Z</time></trkpt><trkpt lat="44.1778167" lon="11.4895733"><ele>286.3333333333333</ele><time>2026-04-18T11:52:19.28Z</time></trkpt><trkpt lat="44.177825" lon="11.4893483"><ele>287.66666666666663</ele><time>2026-04-18T11:52:20.281Z</time></trkpt><trkpt lat="44.1778067" lon="11.4891117"><ele>289.0</ele><time>2026-04-18T11:52:21.281Z</time></trkpt><trkpt lat="44.177775" lon="11.4888717"><ele>287.66666666666663</ele><time>2026-04-18T11:52:22.281Z</time></trkpt><trkpt lat="44.17773" lon="11.4886317"><ele>286.3333333333333</ele><time>2026-04-18T11:52:23.28Z</time></trkpt><trkpt lat="44.177685" lon="11.4883967"><ele>285.0</ele><time>2026-04-18T11:52:24.28Z</time></trkpt><trkpt lat="44.1776467" lon="11.488175"><ele>285.0</ele><time>2026-04-18T11:52:25.281Z</time></trkpt><trkpt lat="44.1775983" lon="11.4879633"><ele>285.0</ele><time>2026-04-18T11:52:26.28Z</time></trkpt><trkpt lat="44.1775333" lon="11.4877667"><ele>285.0</ele><time>2026-04-18T11:52:27.28Z</time></trkpt><trkpt lat="44.177445" lon="11.4875917"><ele>287.5</ele><time>2026-04-18T11:52:28.279Z</time></trkpt><trkpt lat="44.1773483" lon="11.4874483"><ele>290.0</ele><time>2026-04-18T11:52:29.279Z</time></trkpt><trkpt lat="44.1772483" lon="11.4873283"><ele>292.5</ele><time>2026-04-18T11:52:30.28Z</time></trkpt><trkpt lat="44.1771433" lon="11.487235"><ele>295.0</ele><time>2026-04-18T11:52:31.28Z</time></trkpt><trkpt lat="44.1770317" lon="11.48716"><ele>290.75</ele><time>2026-04-18T11:52:32.281Z</time></trkpt><trkpt lat="44.17691" lon="11.4870933"><ele>286.5</ele><time>2026-04-18T11:52:33.28Z</time></trkpt><trkpt lat="44.176785" lon="11.48703"><ele>282.25</ele><time>2026-04-18T11:52:34.281Z</time></trkpt><trkpt lat="44.1766567" lon="11.4869717"><ele>278.0</ele><time>2026-04-18T11:52:35.282Z</time></trkpt><trkpt lat="44.1765233" lon="11.4869333"><ele>279.75</ele><time>2026-04-18T11:52:36.28Z</time></trkpt><trkpt lat="44.1763867" lon="11.486935"><ele>281.5</ele><time>2026-04-18T11:52:37.281Z</time></trkpt><trkpt lat="44.1762567" lon="11.4869667"><ele>283.25</ele><time>2026-04-18T11:52:38.281Z</time></trkpt><trkpt lat="44.1761417" lon="11.48705"><ele>285.0</ele><time>2026-04-18T11:52:39.28Z</time></trkpt><trkpt lat="44.1760433" lon="11.48716"><ele>285.0</ele><time>2026-04-18T11:52:40.28Z</time></trkpt><trkpt lat="44.1759517" lon="11.4872833"><ele>285.0</ele><time>2026-04-18T11:52:41.281Z</time></trkpt><trkpt lat="44.1758683" lon="11.4873883"><ele>285.0</ele><time>2026-04-18T11:52:42.281Z</time></trkpt><trkpt lat="44.17576" lon="11.48747"><ele>285.0</ele><time>2026-04-18T11:52:43.282Z</time></trkpt><trkpt lat="44.1756433" lon="11.4875183"><ele>284.0</ele><time>2026-04-18T11:52:44.282Z</time></trkpt><trkpt lat="44.1755217" lon="11.4875433"><ele>283.0</ele><time>2026-04-18T11:52:45.281Z</time></trkpt><trkpt lat="44.175395" lon="11.48753"><ele>282.0</ele><time>2026-04-18T11:52:46.282Z</time></trkpt><trkpt lat="44.1752817" lon="11.4874817"><ele>281.0</ele><time>2026-04-18T11:52:47.282Z</time></trkpt><trkpt lat="44.175175" lon="11.4874"><ele>281.0</ele><time>2026-04-18T11:52:48.28Z</time></trkpt><trkpt lat="44.1750833" lon="11.4872983"><ele>281.0</ele><time>2026-04-18T11:52:49.282Z</time></trkpt><trkpt lat="44.1750067" lon="11.48718"><ele>281.0</ele><time>2026-04-18T11:52:50.282Z</time></trkpt><trkpt lat="44.1749483" lon="11.4870433"><ele>281.0</ele><time>2026-04-18T11:52:51.282Z</time></trkpt><trkpt lat="44.1749067" lon="11.486885"><ele>280.25</ele><time>2026-04-18T11:52:52.282Z</time></trkpt><trkpt lat="44.1748817" lon="11.4867133"><ele>279.5</ele><time>2026-04-18T11:52:53.283Z</time></trkpt><trkpt lat="44.1748433" lon="11.4865467"><ele>278.75</ele><time>2026-04-18T11:52:54.281Z</time></trkpt><trkpt lat="44.1747933" lon="11.4863867"><ele>278.0</ele><time>2026-04-18T11:52:55.281Z</time></trkpt><trkpt lat="44.174715" lon="11.4862533"><ele>277.75</ele><time>2026-04-18T11:52:56.281Z</time></trkpt><trkpt lat="44.1746033" lon="11.4861483"><ele>277.5</ele><time>2026-04-18T11:52:57.281Z</time></trkpt><trkpt lat="44.1744767" lon="11.486045"><ele>277.25</ele><time>2026-04-18T11:52:58.281Z</time></trkpt><trkpt lat="44.1743467" lon="11.4859567"><ele>277.0</ele><time>2026-04-18T11:52:59.282Z</time></trkpt><trkpt lat="44.1742217" lon="11.48588"><ele>277.0</ele><time>2026-04-18T11:53:00.28Z</time></trkpt><trkpt lat="44.1740933" lon="11.4858183"><ele>277.0</ele><time>2026-04-18T11:53:01.281Z</time></trkpt><trkpt lat="44.1739633" lon="11.485765"><ele>277.0</ele><time>2026-04-18T11:53:02.281Z</time></trkpt><trkpt lat="44.1738317" lon="11.4857283"><ele>277.0</ele><time>2026-04-18T11:53:03.281Z</time></trkpt><trkpt lat="44.1737" lon="11.485705"><ele>281.25</ele><time>2026-04-18T11:53:04.281Z</time></trkpt><trkpt lat="44.173565" lon="11.48569"><ele>285.5</ele><time>2026-04-18T11:53:05.282Z</time></trkpt><trkpt lat="44.1734267" lon="11.48568"><ele>289.75</ele><time>2026-04-18T11:53:06.28Z</time></trkpt><trkpt lat="44.1732867" lon="11.4856667"><ele>294.0</ele><time>2026-04-18T11:53:07.281Z</time></trkpt><trkpt lat="44.1731433" lon="11.4856483"><ele>299.3333333333333</ele><time>2026-04-18T11:53:08.282Z</time></trkpt><trkpt lat="44.1729917" lon="11.485625"><ele>304.66666666666663</ele><time>2026-04-18T11:53:09.281Z</time></trkpt><trkpt lat="44.17284" lon="11.48559"><ele>310.0</ele><time>2026-04-18T11:53:10.282Z</time></trkpt><trkpt lat="44.1726983" lon="11.48555"><ele>310.0</ele><time>2026-04-18T11:53:11.28Z</time></trkpt><trkpt lat="44.1725383" lon="11.4854917"><ele>310.0</ele><time>2026-04-18T11:53:12.281Z</time></trkpt><trkpt lat="44.1723983" lon="11.485425"><ele>310.0</ele><time>2026-04-18T11:53:13.28Z</time></trkpt><trkpt lat="44.17227" lon="11.485365"><ele>310.0</ele><time>2026-04-18T11:53:14.28Z</time></trkpt><trkpt lat="44.1721483" lon="11.48531"><ele>304.6</ele><time>2026-04-18T11:53:15.28Z</time></trkpt><trkpt lat="44.172025" lon="11.48526"><ele>299.2</ele><time>2026-04-18T11:53:16.279Z</time></trkpt><trkpt lat="44.17192" lon="11.4852067"><ele>293.8</ele><time>2026-04-18T11:53:17.282Z</time></trkpt><trkpt lat="44.1718267" lon="11.4851567"><ele>288.4</ele><time>2026-04-18T11:53:18.281Z</time></trkpt><trkpt lat="44.1717517" lon="11.4851133"><ele>283.0</ele><time>2026-04-18T11:53:19.279Z</time></trkpt><trkpt lat="44.17168" lon="11.4850817"><ele>283.0</ele><time>2026-04-18T11:53:20.28Z</time></trkpt><trkpt lat="44.1715883" lon="11.485035"><ele>283.0</ele><time>2026-04-18T11:53:22.279Z</time></trkpt><trkpt lat="44.17152" lon="11.4850367"><ele>283.0</ele><time>2026-04-18T11:53:24.281Z</time></trkpt><trkpt lat="44.1716033" lon="11.485085"><ele>283.0</ele><time>2026-04-18T11:54:50.322Z</time></trkpt><trkpt lat="44.1715333" lon="11.4850367"><ele>283.0</ele><time>2026-04-18T11:54:51.28Z</time></trkpt><trkpt lat="44.1714267" lon="11.4849533"><ele>287.8</ele><time>2026-04-18T11:56:03.28Z</time></trkpt><trkpt lat="44.171305" lon="11.4849383"><ele>292.6</ele><time>2026-04-18T11:56:05.279Z</time></trkpt><trkpt lat="44.1712367" lon="11.4849333"><ele>297.4</ele><time>2026-04-18T11:56:06.282Z</time></trkpt><trkpt lat="44.171145" lon="11.4849317"><ele>302.2</ele><time>2026-04-18T11:56:07.281Z</time></trkpt><trkpt lat="44.17105" lon="11.4849233"><ele>307.0</ele><time>2026-04-18T11:56:08.281Z</time></trkpt><trkpt lat="44.1709583" lon="11.4849083"><ele>307.0</ele><time>2026-04-18T11:56:09.281Z</time></trkpt><trkpt lat="44.17085" lon="11.48489"><ele>307.0</ele><time>2026-04-18T11:56:10.281Z</time></trkpt><trkpt lat="44.1707267" lon="11.4848717"><ele>307.0</ele><time>2026-04-18T11:56:11.282Z</time></trkpt><trkpt lat="44.1706167" lon="11.4848467"><ele>307.0</ele><time>2026-04-18T11:56:12.282Z</time></trkpt><trkpt lat="44.170525" lon="11.4847733"><ele>310.25</ele><time>2026-04-18T11:56:13.281Z</time></trkpt><trkpt lat="44.1704833" lon="11.4846233"><ele>313.5</ele><time>2026-04-18T11:56:14.281Z</time></trkpt><trkpt lat="44.1704433" lon="11.4844417"><ele>316.75</ele><time>2026-04-18T11:56:15.28Z</time></trkpt><trkpt lat="44.1703767" lon="11.484275"><ele>320.0</ele><time>2026-04-18T11:56:16.28Z</time></trkpt><trkpt lat="44.1703117" lon="11.4840883"><ele>320.0</ele><time>2026-04-18T11:56:17.28Z</time></trkpt><trkpt lat="44.1702483" lon="11.4838767"><ele>320.0</ele><time>2026-04-18T11:56:18.281Z</time></trkpt><trkpt lat="44.1701667" lon="11.4836767"><ele>320.0</ele><time>2026-04-18T11:56:19.281Z</time></trkpt><trkpt lat="44.170075" lon="11.4834733"><ele>318.6666666666667</ele><time>2026-04-18T11:56:20.281Z</time></trkpt><trkpt lat="44.169985" lon="11.48327"><ele>317.3333333333333</ele><time>2026-04-18T11:56:21.281Z</time></trkpt><trkpt lat="44.1698933" lon="11.4830883"><ele>316.0</ele><time>2026-04-18T11:56:22.282Z</time></trkpt><trkpt lat="44.16979" lon="11.48289"><ele>316.0</ele><time>2026-04-18T11:56:23.281Z</time></trkpt><trkpt lat="44.1696717" lon="11.4827067"><ele>316.0</ele><time>2026-04-18T11:56:24.281Z</time></trkpt><trkpt lat="44.1695517" lon="11.482525"><ele>316.0</ele><time>2026-04-18T11:56:25.28Z</time></trkpt><trkpt lat="44.169435" lon="11.4823383"><ele>316.0</ele><time>2026-04-18T11:56:26.281Z</time></trkpt><trkpt lat="44.16932" lon="11.4821517"><ele>316.0</ele><time>2026-04-18T11:56:27.281Z</time></trkpt><trkpt lat="44.16922" lon="11.4819433"><ele>316.0</ele><time>2026-04-18T11:56:28.281Z</time></trkpt><trkpt lat="44.1691433" lon="11.4817383"><ele>317.3333333333333</ele><time>2026-04-18T11:56:29.281Z</time></trkpt><trkpt lat="44.1690833" lon="11.481515"><ele>318.6666666666667</ele><time>2026-04-18T11:56:30.279Z</time></trkpt><trkpt lat="44.16904" lon="11.4812683"><ele>320.0</ele><time>2026-04-18T11:56:31.28Z</time></trkpt><trkpt lat="44.1690117" lon="11.481045"><ele>320.0</ele><time>2026-04-18T11:56:32.282Z</time></trkpt><trkpt lat="44.1689833" lon="11.4808"><ele>320.0</ele><time>2026-04-18T11:56:33.28Z</time></trkpt><trkpt lat="44.1689383" lon="11.4805617"><ele>320.0</ele><time>2026-04-18T11:56:34.28Z</time></trkpt><trkpt lat="44.1688983" lon="11.4803133"><ele>317.6666666666667</ele><time>2026-04-18T11:56:35.28Z</time></trkpt><trkpt lat="44.168865" lon="11.4800633"><ele>315.3333333333333</ele><time>2026-04-18T11:56:36.282Z</time></trkpt><trkpt lat="44.1688367" lon="11.4798067"><ele>313.0</ele><time>2026-04-18T11:56:37.282Z</time></trkpt><trkpt lat="44.1688167" lon="11.4795583"><ele>308.3333333333333</ele><time>2026-04-18T11:56:38.282Z</time></trkpt><trkpt lat="44.1688183" lon="11.4793133"><ele>303.6666666666667</ele><time>2026-04-18T11:56:39.281Z</time></trkpt><trkpt lat="44.168835" lon="11.4790717"><ele>299.0</ele><time>2026-04-18T11:56:40.282Z</time></trkpt><trkpt lat="44.1688517" lon="11.478825"><ele>297.0</ele><time>2026-04-18T11:56:41.281Z</time></trkpt><trkpt lat="44.1688583" lon="11.478595"><ele>295.0</ele><time>2026-04-18T11:56:42.28Z</time></trkpt><trkpt lat="44.168845" lon="11.4784"><ele>293.0</ele><time>2026-04-18T11:56:43.28Z</time></trkpt><trkpt lat="44.168815" lon="11.4782383"><ele>291.0</ele><time>2026-04-18T11:56:44.281Z</time></trkpt><trkpt lat="44.1687667" lon="11.4781117"><ele>291.0</ele><time>2026-04-18T11:56:45.28Z</time></trkpt><trkpt lat="44.1686883" lon="11.478035"><ele>291.0</ele><time>2026-04-18T11:56:46.281Z</time></trkpt><trkpt lat="44.1685983" lon="11.477995"><ele>291.0</ele><time>2026-04-18T11:56:47.28Z</time></trkpt><trkpt lat="44.1684883" lon="11.47802"><ele>291.0</ele><time>2026-04-18T11:56:48.281Z</time></trkpt><trkpt lat="44.16836" lon="11.4780683"><ele>291.0</ele><time>2026-04-18T11:56:49.281Z</time></trkpt><trkpt lat="44.1682217" lon="11.4781083"><ele>293.0</ele><time>2026-04-18T11:56:50.281Z</time></trkpt><trkpt lat="44.1680767" lon="11.4780983"><ele>295.0</ele><time>2026-04-18T11:56:51.281Z</time></trkpt><trkpt lat="44.1679433" lon="11.4780283"><ele>297.0</ele><time>2026-04-18T11:56:52.282Z</time></trkpt><trkpt lat="44.1677933" lon="11.4779367"><ele>295.6666666666667</ele><time>2026-04-18T11:56:53.281Z</time></trkpt><trkpt lat="44.1676733" lon="11.4777917"><ele>294.33333333333337</ele><time>2026-04-18T11:56:54.279Z</time></trkpt><trkpt lat="44.1675767" lon="11.47759"><ele>293.0</ele><time>2026-04-18T11:56:55.278Z</time></trkpt><trkpt lat="44.16748" lon="11.4773717"><ele>293.0</ele><time>2026-04-18T11:56:56.282Z</time></trkpt><trkpt lat="44.1673767" lon="11.4771517"><ele>293.0</ele><time>2026-04-18T11:56:57.28Z</time></trkpt><trkpt lat="44.1672733" lon="11.4769367"><ele>293.0</ele><time>2026-04-18T11:56:58.282Z</time></trkpt><trkpt lat="44.1671683" lon="11.4767317"><ele>293.0</ele><time>2026-04-18T11:56:59.279Z</time></trkpt><trkpt lat="44.1670617" lon="11.4765283"><ele>293.0</ele><time>2026-04-18T11:57:00.281Z</time></trkpt><trkpt lat="44.1669567" lon="11.4763267"><ele>293.0</ele><time>2026-04-18T11:57:01.282Z</time></trkpt><trkpt lat="44.1668683" lon="11.4761267"><ele>293.0</ele><time>2026-04-18T11:57:02.281Z</time></trkpt><trkpt lat="44.1667933" lon="11.475925"><ele>293.0</ele><time>2026-04-18T11:57:03.281Z</time></trkpt><trkpt lat="44.1667617" lon="11.47572"><ele>293.0</ele><time>2026-04-18T11:57:04.28Z</time></trkpt><trkpt lat="44.166775" lon="11.4755017"><ele>290.75</ele><time>2026-04-18T11:57:05.282Z</time></trkpt><trkpt lat="44.16682" lon="11.4752933"><ele>288.5</ele><time>2026-04-18T11:57:06.281Z</time></trkpt><trkpt lat="44.1668667" lon="11.4750917"><ele>286.25</ele><time>2026-04-18T11:57:07.281Z</time></trkpt><trkpt lat="44.1668883" lon="11.4749033"><ele>284.0</ele><time>2026-04-18T11:57:08.282Z</time></trkpt><trkpt lat="44.16687" lon="11.4747283"><ele>279.5</ele><time>2026-04-18T11:57:09.281Z</time></trkpt><trkpt lat="44.166805" lon="11.474585"><ele>275.0</ele><time>2026-04-18T11:57:10.28Z</time></trkpt><trkpt lat="44.1667033" lon="11.474495"><ele>270.5</ele><time>2026-04-18T11:57:11.282Z</time></trkpt><trkpt lat="44.1665717" lon="11.4744883"><ele>266.0</ele><time>2026-04-18T11:57:12.28Z</time></trkpt><trkpt lat="44.1664367" lon="11.4745633"><ele>270.75</ele><time>2026-04-18T11:57:13.282Z</time></trkpt><trkpt lat="44.16631" lon="11.47467"><ele>275.5</ele><time>2026-04-18T11:57:14.281Z</time></trkpt><trkpt lat="44.1661817" lon="11.4747767"><ele>280.25</ele><time>2026-04-18T11:57:15.282Z</time></trkpt><trkpt lat="44.1660467" lon="11.47485"><ele>285.0</ele><time>2026-04-18T11:57:16.279Z</time></trkpt><trkpt lat="44.1658967" lon="11.47487"><ele>285.0</ele><time>2026-04-18T11:57:17.28Z</time></trkpt><trkpt lat="44.165735" lon="11.4749033"><ele>285.0</ele><time>2026-04-18T11:57:18.28Z</time></trkpt><trkpt lat="44.16558" lon="11.47497"><ele>285.0</ele><time>2026-04-18T11:57:19.28Z</time></trkpt><trkpt lat="44.1654217" lon="11.4750317"><ele>282.6666666666667</ele><time>2026-04-18T11:57:20.281Z</time></trkpt><trkpt lat="44.1652683" lon="11.4751"><ele>280.33333333333337</ele><time>2026-04-18T11:57:21.28Z</time></trkpt><trkpt lat="44.1651133" lon="11.475095"><ele>278.0</ele><time>2026-04-18T11:57:22.281Z</time></trkpt><trkpt lat="44.16496" lon="11.4750417"><ele>281.0</ele><time>2026-04-18T11:57:23.279Z</time></trkpt><trkpt lat="44.1648117" lon="11.4749467"><ele>284.0</ele><time>2026-04-18T11:57:24.281Z</time></trkpt><trkpt lat="44.164675" lon="11.47482"><ele>287.0</ele><time>2026-04-18T11:57:25.281Z</time></trkpt><trkpt lat="44.1645467" lon="11.47468"><ele>284.6666666666667</ele><time>2026-04-18T11:57:26.283Z</time></trkpt><trkpt lat="44.1644283" lon="11.47453"><ele>282.3333333333333</ele><time>2026-04-18T11:57:27.281Z</time></trkpt><trkpt lat="44.16433" lon="11.474355"><ele>280.0</ele><time>2026-04-18T11:57:28.282Z</time></trkpt><trkpt lat="44.1642483" lon="11.4741617"><ele>280.0</ele><time>2026-04-18T11:57:29.281Z</time></trkpt><trkpt lat="44.16418" lon="11.4739517"><ele>280.0</ele><time>2026-04-18T11:57:30.281Z</time></trkpt><trkpt lat="44.164125" lon="11.4737367"><ele>280.0</ele><time>2026-04-18T11:57:31.282Z</time></trkpt><trkpt lat="44.1640883" lon="11.4735067"><ele>280.0</ele><time>2026-04-18T11:57:32.281Z</time></trkpt><trkpt lat="44.1640667" lon="11.4732733"><ele>280.0</ele><time>2026-04-18T11:57:33.28Z</time></trkpt><trkpt lat="44.164055" lon="11.4730333"><ele>280.0</ele><time>2026-04-18T11:57:34.281Z</time></trkpt><trkpt lat="44.1640533" lon="11.47279"><ele>280.0</ele><time>2026-04-18T11:57:35.282Z</time></trkpt><trkpt lat="44.1640617" lon="11.4725533"><ele>280.0</ele><time>2026-04-18T11:57:36.28Z</time></trkpt><trkpt lat="44.1641033" lon="11.4723133"><ele>280.0</ele><time>2026-04-18T11:57:37.281Z</time></trkpt><trkpt lat="44.1641617" lon="11.472085"><ele>280.3333333333333</ele><time>2026-04-18T11:57:38.28Z</time></trkpt><trkpt lat="44.164225" lon="11.4718767"><ele>280.6666666666667</ele><time>2026-04-18T11:57:39.282Z</time></trkpt><trkpt lat="44.1642833" lon="11.4716783"><ele>281.0</ele><time>2026-04-18T11:57:40.281Z</time></trkpt><trkpt lat="44.164345" lon="11.4714917"><ele>281.0</ele><time>2026-04-18T11:57:41.281Z</time></trkpt><trkpt lat="44.1644067" lon="11.471305"><ele>281.0</ele><time>2026-04-18T11:57:42.28Z</time></trkpt><trkpt lat="44.16447" lon="11.4711183"><ele>281.0</ele><time>2026-04-18T11:57:43.282Z</time></trkpt><trkpt lat="44.164535" lon="11.4709283"><ele>281.0</ele><time>2026-04-18T11:57:44.28Z</time></trkpt><trkpt lat="44.1645983" lon="11.47074"><ele>281.0</ele><time>2026-04-18T11:57:45.28Z</time></trkpt><trkpt lat="44.1646583" lon="11.4705433"><ele>281.0</ele><time>2026-04-18T11:57:46.282Z</time></trkpt><trkpt lat="44.1647083" lon="11.4703533"><ele>281.0</ele><time>2026-04-18T11:57:47.28Z</time></trkpt><trkpt lat="44.164745" lon="11.4701567"><ele>281.0</ele><time>2026-04-18T11:57:48.282Z</time></trkpt><trkpt lat="44.16477" lon="11.4699667"><ele>280.5</ele><time>2026-04-18T11:57:49.282Z</time></trkpt><trkpt lat="44.16479" lon="11.4697883"><ele>280.0</ele><time>2026-04-18T11:57:50.281Z</time></trkpt><trkpt lat="44.1648133" lon="11.4696183"><ele>279.5</ele><time>2026-04-18T11:57:51.281Z</time></trkpt><trkpt lat="44.1648383" lon="11.4694533"><ele>279.0</ele><time>2026-04-18T11:57:52.281Z</time></trkpt><trkpt lat="44.1648717" lon="11.469295"><ele>278.0</ele><time>2026-04-18T11:57:53.279Z</time></trkpt><trkpt lat="44.1649083" lon="11.46914"><ele>277.0</ele><time>2026-04-18T11:57:54.281Z</time></trkpt><trkpt lat="44.1649467" lon="11.468985"><ele>276.0</ele><time>2026-04-18T11:57:55.28Z</time></trkpt><trkpt lat="44.16498" lon="11.468835"><ele>275.0</ele><time>2026-04-18T11:57:56.28Z</time></trkpt><trkpt lat="44.1650133" lon="11.4686917"><ele>275.0</ele><time>2026-04-18T11:57:57.282Z</time></trkpt><trkpt lat="44.1650433" lon="11.4685617"><ele>275.0</ele><time>2026-04-18T11:57:58.281Z</time></trkpt><trkpt lat="44.165055" lon="11.4684367"><ele>275.0</ele><time>2026-04-18T11:57:59.281Z</time></trkpt><trkpt lat="44.1650217" lon="11.468305"><ele>275.0</ele><time>2026-04-18T11:58:00.28Z</time></trkpt><trkpt lat="44.16494" lon="11.4681833"><ele>275.0</ele><time>2026-04-18T11:58:01.281Z</time></trkpt><trkpt lat="44.164835" lon="11.4680633"><ele>274.6666666666667</ele><time>2026-04-18T11:58:02.283Z</time></trkpt><trkpt lat="44.1647117" lon="11.4679333"><ele>274.3333333333333</ele><time>2026-04-18T11:58:03.28Z</time></trkpt><trkpt lat="44.1645767" lon="11.4677967"><ele>274.0</ele><time>2026-04-18T11:58:04.282Z</time></trkpt><trkpt lat="44.1644367" lon="11.4676533"><ele>274.0</ele><time>2026-04-18T11:58:05.28Z</time></trkpt><trkpt lat="44.1643" lon="11.4675083"><ele>274.0</ele><time>2026-04-18T11:58:06.282Z</time></trkpt><trkpt lat="44.164165" lon="11.4673517"><ele>274.0</ele><time>2026-04-18T11:58:07.281Z</time></trkpt><trkpt lat="44.164035" lon="11.4671783"><ele>273.3333333333333</ele><time>2026-04-18T11:58:08.283Z</time></trkpt><trkpt lat="44.16391" lon="11.466995"><ele>272.6666666666667</ele><time>2026-04-18T11:58:09.282Z</time></trkpt><trkpt lat="44.1637867" lon="11.4667983"><ele>272.0</ele><time>2026-04-18T11:58:10.281Z</time></trkpt><trkpt lat="44.1636667" lon="11.4665967"><ele>272.0</ele><time>2026-04-18T11:58:11.283Z</time></trkpt><trkpt lat="44.1635467" lon="11.466395"><ele>272.0</ele><time>2026-04-18T11:58:12.282Z</time></trkpt><trkpt lat="44.1634233" lon="11.4661917"><ele>272.0</ele><time>2026-04-18T11:58:13.282Z</time></trkpt><trkpt lat="44.163295" lon="11.4659917"><ele>271.33333333333337</ele><time>2026-04-18T11:58:14.282Z</time></trkpt><trkpt lat="44.1631683" lon="11.4657867"><ele>270.6666666666667</ele><time>2026-04-18T11:58:15.282Z</time></trkpt><trkpt lat="44.163045" lon="11.4655867"><ele>270.0</ele><time>2026-04-18T11:58:16.282Z</time></trkpt><trkpt lat="44.1629283" lon="11.4653867"><ele>270.0</ele><time>2026-04-18T11:58:17.282Z</time></trkpt><trkpt lat="44.162825" lon="11.4651817"><ele>270.0</ele><time>2026-04-18T11:58:18.281Z</time></trkpt><trkpt lat="44.16274" lon="11.464975"><ele>270.0</ele><time>2026-04-18T11:58:19.28Z</time></trkpt><trkpt lat="44.1626817" lon="11.4647683"><ele>273.6666666666667</ele><time>2026-04-18T11:58:20.281Z</time></trkpt><trkpt lat="44.1626567" lon="11.46456"><ele>277.33333333333337</ele><time>2026-04-18T11:58:21.282Z</time></trkpt><trkpt lat="44.1626667" lon="11.4643483"><ele>281.0</ele><time>2026-04-18T11:58:22.281Z</time></trkpt><trkpt lat="44.1626783" lon="11.4641317"><ele>281.0</ele><time>2026-04-18T11:58:23.282Z</time></trkpt><trkpt lat="44.16266" lon="11.4639267"><ele>281.0</ele><time>2026-04-18T11:58:24.282Z</time></trkpt><trkpt lat="44.1626333" lon="11.46371"><ele>281.0</ele><time>2026-04-18T11:58:25.282Z</time></trkpt><trkpt lat="44.16256" lon="11.463555"><ele>281.0</ele><time>2026-04-18T11:58:26.282Z</time></trkpt><trkpt lat="44.1624683" lon="11.4634283"><ele>281.33333333333337</ele><time>2026-04-18T11:58:27.28Z</time></trkpt><trkpt lat="44.1623717" lon="11.46334"><ele>281.6666666666667</ele><time>2026-04-18T11:58:28.282Z</time></trkpt><trkpt lat="44.162285" lon="11.4632667"><ele>282.0</ele><time>2026-04-18T11:58:29.283Z</time></trkpt><trkpt lat="44.162215" lon="11.463215"><ele>282.3333333333333</ele><time>2026-04-18T11:58:30.282Z</time></trkpt><trkpt lat="44.1621617" lon="11.4631683"><ele>282.66666666666663</ele><time>2026-04-18T11:58:31.281Z</time></trkpt><trkpt lat="44.162095" lon="11.4631217"><ele>283.0</ele><time>2026-04-18T11:58:33.282Z</time></trkpt><trkpt lat="44.1620183" lon="11.46305"><ele>282.6</ele><time>2026-04-18T12:01:11.281Z</time></trkpt><trkpt lat="44.1619583" lon="11.4630167"><ele>282.20000000000005</ele><time>2026-04-18T12:01:12.28Z</time></trkpt><trkpt lat="44.16189" lon="11.4629733"><ele>281.8</ele><time>2026-04-18T12:01:13.281Z</time></trkpt><trkpt lat="44.1618117" lon="11.462915"><ele>281.40000000000003</ele><time>2026-04-18T12:01:14.281Z</time></trkpt><trkpt lat="44.1617217" lon="11.4628433"><ele>281.0</ele><time>2026-04-18T12:01:15.28Z</time></trkpt><trkpt lat="44.1616083" lon="11.462775"><ele>282.5</ele><time>2026-04-18T12:01:16.281Z</time></trkpt><trkpt lat="44.1614767" lon="11.4627067"><ele>284.0</ele><time>2026-04-18T12:01:17.281Z</time></trkpt><trkpt lat="44.16134" lon="11.4626383"><ele>285.5</ele><time>2026-04-18T12:01:18.282Z</time></trkpt><trkpt lat="44.1611983" lon="11.4625733"><ele>287.0</ele><time>2026-04-18T12:01:19.28Z</time></trkpt><trkpt lat="44.1610517" lon="11.462505"><ele>287.0</ele><time>2026-04-18T12:01:20.28Z</time></trkpt><trkpt lat="44.1609" lon="11.4624483"><ele>287.0</ele><time>2026-04-18T12:01:21.281Z</time></trkpt><trkpt lat="44.16075" lon="11.4623883"><ele>287.0</ele><time>2026-04-18T12:01:22.281Z</time></trkpt><trkpt lat="44.1606" lon="11.4623333"><ele>287.0</ele><time>2026-04-18T12:01:23.28Z</time></trkpt><trkpt lat="44.1604483" lon="11.4622867"><ele>287.0</ele><time>2026-04-18T12:01:24.281Z</time></trkpt><trkpt lat="44.16031" lon="11.4622233"><ele>287.0</ele><time>2026-04-18T12:01:25.281Z</time></trkpt><trkpt lat="44.16017" lon="11.46215"><ele>286.25</ele><time>2026-04-18T12:01:26.279Z</time></trkpt><trkpt lat="44.1600317" lon="11.4620717"><ele>285.5</ele><time>2026-04-18T12:01:27.28Z</time></trkpt><trkpt lat="44.1599017" lon="11.461985"><ele>284.75</ele><time>2026-04-18T12:01:28.281Z</time></trkpt><trkpt lat="44.15977" lon="11.46189"><ele>284.0</ele><time>2026-04-18T12:01:29.281Z</time></trkpt><trkpt lat="44.159635" lon="11.461795"><ele>284.0</ele><time>2026-04-18T12:01:30.281Z</time></trkpt><trkpt lat="44.1594967" lon="11.4616917"><ele>284.0</ele><time>2026-04-18T12:01:31.281Z</time></trkpt><trkpt lat="44.1593533" lon="11.46158"><ele>284.0</ele><time>2026-04-18T12:01:32.281Z</time></trkpt><trkpt lat="44.1592083" lon="11.461465"><ele>284.0</ele><time>2026-04-18T12:01:33.281Z</time></trkpt><trkpt lat="44.159065" lon="11.461355"><ele>284.0</ele><time>2026-04-18T12:01:34.28Z</time></trkpt><trkpt lat="44.1589233" lon="11.4612433"><ele>284.0</ele><time>2026-04-18T12:01:35.281Z</time></trkpt><trkpt lat="44.15878" lon="11.461125"><ele>283.33333333333337</ele><time>2026-04-18T12:01:36.281Z</time></trkpt><trkpt lat="44.1586483" lon="11.4609967"><ele>282.6666666666667</ele><time>2026-04-18T12:01:37.279Z</time></trkpt><trkpt lat="44.1585317" lon="11.46086"><ele>282.0</ele><time>2026-04-18T12:01:38.279Z</time></trkpt><trkpt lat="44.1584317" lon="11.4607167"><ele>282.0</ele><time>2026-04-18T12:01:39.279Z</time></trkpt><trkpt lat="44.1583483" lon="11.4605767"><ele>282.0</ele><time>2026-04-18T12:01:40.28Z</time></trkpt><trkpt lat="44.1582567" lon="11.4604733"><ele>282.0</ele><time>2026-04-18T12:01:41.28Z</time></trkpt><trkpt lat="44.1581567" lon="11.460415"><ele>282.0</ele><time>2026-04-18T12:01:42.281Z</time></trkpt><trkpt lat="44.158055" lon="11.46041"><ele>285.2</ele><time>2026-04-18T12:01:43.28Z</time></trkpt><trkpt lat="44.1579433" lon="11.460455"><ele>288.4</ele><time>2026-04-18T12:01:44.281Z</time></trkpt><trkpt lat="44.15784" lon="11.460515"><ele>291.6</ele><time>2026-04-18T12:01:45.281Z</time></trkpt><trkpt lat="44.1577367" lon="11.4605417"><ele>294.8</ele><time>2026-04-18T12:01:46.28Z</time></trkpt><trkpt lat="44.1576333" lon="11.4605217"><ele>298.0</ele><time>2026-04-18T12:01:47.28Z</time></trkpt><trkpt lat="44.1575383" lon="11.4604567"><ele>294.5</ele><time>2026-04-18T12:01:48.28Z</time></trkpt><trkpt lat="44.1574533" lon="11.460345"><ele>291.0</ele><time>2026-04-18T12:01:49.28Z</time></trkpt><trkpt lat="44.15738" lon="11.4601867"><ele>287.5</ele><time>2026-04-18T12:01:50.281Z</time></trkpt><trkpt lat="44.15732" lon="11.460005"><ele>284.0</ele><time>2026-04-18T12:01:51.28Z</time></trkpt><trkpt lat="44.1572683" lon="11.4598167"><ele>288.25</ele><time>2026-04-18T12:01:52.28Z</time></trkpt><trkpt lat="44.1572183" lon="11.4596217"><ele>292.5</ele><time>2026-04-18T12:01:53.281Z</time></trkpt><trkpt lat="44.1571633" lon="11.459425"><ele>296.75</ele><time>2026-04-18T12:01:54.28Z</time></trkpt><trkpt lat="44.157095" lon="11.4592433"><ele>301.0</ele><time>2026-04-18T12:01:55.278Z</time></trkpt><trkpt lat="44.1570067" lon="11.4590667"><ele>301.0</ele><time>2026-04-18T12:01:56.281Z</time></trkpt><trkpt lat="44.1568983" lon="11.4589017"><ele>301.0</ele><time>2026-04-18T12:01:57.28Z</time></trkpt><trkpt lat="44.1567733" lon="11.45875"><ele>301.0</ele><time>2026-04-18T12:01:58.279Z</time></trkpt><trkpt lat="44.1566333" lon="11.4586183"><ele>297.66666666666663</ele><time>2026-04-18T12:01:59.28Z</time></trkpt><trkpt lat="44.156495" lon="11.458525"><ele>294.3333333333333</ele><time>2026-04-18T12:02:00.281Z</time></trkpt><trkpt lat="44.15633" lon="11.4584867"><ele>291.0</ele><time>2026-04-18T12:02:01.281Z</time></trkpt><trkpt lat="44.15617" lon="11.4584567"><ele>291.0</ele><time>2026-04-18T12:02:02.281Z</time></trkpt><trkpt lat="44.1560133" lon="11.4584367"><ele>291.0</ele><time>2026-04-18T12:02:03.28Z</time></trkpt><trkpt lat="44.1558617" lon="11.4584167"><ele>291.0</ele><time>2026-04-18T12:02:04.281Z</time></trkpt><trkpt lat="44.1557033" lon="11.4583883"><ele>292.6666666666667</ele><time>2026-04-18T12:02:05.281Z</time></trkpt><trkpt lat="44.1555433" lon="11.458355"><ele>294.33333333333337</ele><time>2026-04-18T12:02:06.281Z</time></trkpt><trkpt lat="44.155385" lon="11.4583233"><ele>296.0</ele><time>2026-04-18T12:02:07.281Z</time></trkpt><trkpt lat="44.1552283" lon="11.45829"><ele>296.0</ele><time>2026-04-18T12:02:08.282Z</time></trkpt><trkpt lat="44.15508" lon="11.4582633"><ele>296.0</ele><time>2026-04-18T12:02:09.28Z</time></trkpt><trkpt lat="44.1549333" lon="11.458235"><ele>296.0</ele><time>2026-04-18T12:02:10.282Z</time></trkpt><trkpt lat="44.15479" lon="11.4582"><ele>296.0</ele><time>2026-04-18T12:02:11.281Z</time></trkpt><trkpt lat="44.1546433" lon="11.4581683"><ele>296.5</ele><time>2026-04-18T12:02:12.282Z</time></trkpt><trkpt lat="44.154505" lon="11.4581417"><ele>297.0</ele><time>2026-04-18T12:02:13.28Z</time></trkpt><trkpt lat="44.1543817" lon="11.4581117"><ele>297.5</ele><time>2026-04-18T12:02:14.281Z</time></trkpt><trkpt lat="44.1542667" lon="11.458085"><ele>298.0</ele><time>2026-04-18T12:02:15.282Z</time></trkpt><trkpt lat="44.1541617" lon="11.4580633"><ele>298.0</ele><time>2026-04-18T12:02:16.281Z</time></trkpt><trkpt lat="44.1540683" lon="11.4580433"><ele>298.0</ele><time>2026-04-18T12:02:17.281Z</time></trkpt><trkpt lat="44.1539917" lon="11.4580217"><ele>298.0</ele><time>2026-04-18T12:02:18.279Z</time></trkpt><trkpt lat="44.1539217" lon="11.45801"><ele>298.0</ele><time>2026-04-18T12:02:19.28Z</time></trkpt><trkpt lat="44.1538517" lon="11.4580067"><ele>298.0</ele><time>2026-04-18T12:02:20.28Z</time></trkpt><trkpt lat="44.153785" lon="11.4580067"><ele>298.0</ele><time>2026-04-18T12:02:21.28Z</time></trkpt><trkpt lat="44.1536967" lon="11.4579983"><ele>300.8</ele><time>2026-04-18T12:02:23.28Z</time></trkpt><trkpt lat="44.1536317" lon="11.4580367"><ele>303.6</ele><time>2026-04-18T12:02:26.28Z</time></trkpt><trkpt lat="44.153625" lon="11.4581433"><ele>306.4</ele><time>2026-04-18T12:02:28.281Z</time></trkpt><trkpt lat="44.1536483" lon="11.4582533"><ele>309.2</ele><time>2026-04-18T12:02:29.281Z</time></trkpt><trkpt lat="44.1536783" lon="11.4583867"><ele>312.0</ele><time>2026-04-18T12:02:30.28Z</time></trkpt><trkpt lat="44.1537167" lon="11.458565"><ele>312.0</ele><time>2026-04-18T12:02:31.281Z</time></trkpt><trkpt lat="44.1537467" lon="11.4587433"><ele>312.0</ele><time>2026-04-18T12:02:32.28Z</time></trkpt><trkpt lat="44.1537867" lon="11.4589217"><ele>312.0</ele><time>2026-04-18T12:02:33.281Z</time></trkpt><trkpt lat="44.1538533" lon="11.4590883"><ele>312.0</ele><time>2026-04-18T12:02:34.281Z</time></trkpt><trkpt lat="44.1539517" lon="11.45923"><ele>312.25</ele><time>2026-04-18T12:02:35.28Z</time></trkpt><trkpt lat="44.1540667" lon="11.4593417"><ele>312.5</ele><time>2026-04-18T12:02:36.282Z</time></trkpt><trkpt lat="44.154195" lon="11.4594183"><ele>312.75</ele><time>2026-04-18T12:02:37.281Z</time></trkpt><trkpt lat="44.1543383" lon="11.45943"><ele>313.0</ele><time>2026-04-18T12:02:38.28Z</time></trkpt><trkpt lat="44.15451" lon="11.4593883"><ele>313.0</ele><time>2026-04-18T12:02:39.28Z</time></trkpt><trkpt lat="44.154685" lon="11.4593333"><ele>313.0</ele><time>2026-04-18T12:02:40.281Z</time></trkpt><trkpt lat="44.154845" lon="11.459285"><ele>313.0</ele><time>2026-04-18T12:02:41.28Z</time></trkpt><trkpt lat="44.1549933" lon="11.4592483"><ele>312.75</ele><time>2026-04-18T12:02:42.285Z</time></trkpt><trkpt lat="44.1551383" lon="11.4592483"><ele>312.5</ele><time>2026-04-18T12:02:43.28Z</time></trkpt><trkpt lat="44.1552833" lon="11.459275"><ele>312.25</ele><time>2026-04-18T12:02:44.281Z</time></trkpt><trkpt lat="44.1554317" lon="11.4593183"><ele>312.0</ele><time>2026-04-18T12:02:45.281Z</time></trkpt><trkpt lat="44.1555967" lon="11.4593817"><ele>311.75</ele><time>2026-04-18T12:02:46.281Z</time></trkpt><trkpt lat="44.1557583" lon="11.45944"><ele>311.5</ele><time>2026-04-18T12:02:47.29Z</time></trkpt><trkpt lat="44.1559033" lon="11.4594883"><ele>311.25</ele><time>2026-04-18T12:02:48.279Z</time></trkpt><trkpt lat="44.1560283" lon="11.45954"><ele>311.0</ele><time>2026-04-18T12:02:49.284Z</time></trkpt><trkpt lat="44.1561467" lon="11.45963"><ele>318.6666666666667</ele><time>2026-04-18T12:02:50.283Z</time></trkpt><trkpt lat="44.1562633" lon="11.4597733"><ele>326.3333333333333</ele><time>2026-04-18T12:02:51.28Z</time></trkpt><trkpt lat="44.1563683" lon="11.4599317"><ele>334.0</ele><time>2026-04-18T12:02:52.28Z</time></trkpt><trkpt lat="44.15646" lon="11.460105"><ele>334.0</ele><time>2026-04-18T12:02:53.282Z</time></trkpt><trkpt lat="44.156525" lon="11.4602967"><ele>334.0</ele><time>2026-04-18T12:02:54.281Z</time></trkpt><trkpt lat="44.1565767" lon="11.4605"><ele>334.0</ele><time>2026-04-18T12:02:55.279Z</time></trkpt><trkpt lat="44.1566117" lon="11.4606883"><ele>334.0</ele><time>2026-04-18T12:02:56.283Z</time></trkpt><trkpt lat="44.1566183" lon="11.4608617"><ele>333.0</ele><time>2026-04-18T12:02:57.282Z</time></trkpt><trkpt lat="44.1565933" lon="11.4610117"><ele>332.0</ele><time>2026-04-18T12:02:58.28Z</time></trkpt><trkpt lat="44.15658" lon="11.461155"><ele>331.0</ele><time>2026-04-18T12:02:59.279Z</time></trkpt><trkpt lat="44.156595" lon="11.4612983"><ele>330.0</ele><time>2026-04-18T12:03:00.279Z</time></trkpt><trkpt lat="44.1566533" lon="11.4614267"><ele>329.0</ele><time>2026-04-18T12:03:01.282Z</time></trkpt><trkpt lat="44.156755" lon="11.4615367"><ele>333.5</ele><time>2026-04-18T12:03:02.281Z</time></trkpt><trkpt lat="44.15686" lon="11.461635"><ele>338.0</ele><time>2026-04-18T12:03:03.282Z</time></trkpt><trkpt lat="44.1569567" lon="11.4617483"><ele>342.5</ele><time>2026-04-18T12:03:04.283Z</time></trkpt><trkpt lat="44.15703" lon="11.46189"><ele>347.0</ele><time>2026-04-18T12:03:05.281Z</time></trkpt><trkpt lat="44.15707" lon="11.462045"><ele>349.33333333333337</ele><time>2026-04-18T12:03:06.281Z</time></trkpt><trkpt lat="44.1570767" lon="11.4622333"><ele>351.6666666666667</ele><time>2026-04-18T12:03:07.281Z</time></trkpt><trkpt lat="44.1570683" lon="11.4624417"><ele>354.0</ele><time>2026-04-18T12:03:08.283Z</time></trkpt><trkpt lat="44.1570533" lon="11.4626717"><ele>354.0</ele><time>2026-04-18T12:03:09.281Z</time></trkpt><trkpt lat="44.1570367" lon="11.46291"><ele>354.0</ele><time>2026-04-18T12:03:10.282Z</time></trkpt><trkpt lat="44.15702" lon="11.4631383"><ele>354.0</ele><time>2026-04-18T12:03:11.282Z</time></trkpt><trkpt lat="44.1570167" lon="11.463335"><ele>355.25</ele><time>2026-04-18T12:03:12.281Z</time></trkpt><trkpt lat="44.1570233" lon="11.463505"><ele>356.5</ele><time>2026-04-18T12:03:13.28Z</time></trkpt><trkpt lat="44.1570533" lon="11.4636617"><ele>357.75</ele><time>2026-04-18T12:03:14.282Z</time></trkpt><trkpt lat="44.1571017" lon="11.46381"><ele>359.0</ele><time>2026-04-18T12:03:15.281Z</time></trkpt><trkpt lat="44.1571767" lon="11.4639433"><ele>361.33333333333337</ele><time>2026-04-18T12:03:16.28Z</time></trkpt><trkpt lat="44.1572883" lon="11.4640617"><ele>363.6666666666667</ele><time>2026-04-18T12:03:17.281Z</time></trkpt><trkpt lat="44.1574317" lon="11.464195"><ele>366.0</ele><time>2026-04-18T12:03:18.282Z</time></trkpt><trkpt lat="44.157575" lon="11.46435"><ele>366.3333333333333</ele><time>2026-04-18T12:03:19.281Z</time></trkpt><trkpt lat="44.1577283" lon="11.46452"><ele>366.66666666666663</ele><time>2026-04-18T12:03:20.281Z</time></trkpt><trkpt lat="44.1578883" lon="11.4647067"><ele>367.0</ele><time>2026-04-18T12:03:21.281Z</time></trkpt><trkpt lat="44.15805" lon="11.4648983"><ele>363.66666666666663</ele><time>2026-04-18T12:03:22.282Z</time></trkpt><trkpt lat="44.1582033" lon="11.4650717"><ele>360.3333333333333</ele><time>2026-04-18T12:03:23.281Z</time></trkpt><trkpt lat="44.1583417" lon="11.4652317"><ele>357.0</ele><time>2026-04-18T12:03:24.282Z</time></trkpt><trkpt lat="44.15846" lon="11.4653733"><ele>359.5</ele><time>2026-04-18T12:03:25.281Z</time></trkpt><trkpt lat="44.1585517" lon="11.46551"><ele>362.0</ele><time>2026-04-18T12:03:26.283Z</time></trkpt><trkpt lat="44.1586317" lon="11.4656767"><ele>364.5</ele><time>2026-04-18T12:03:27.279Z</time></trkpt><trkpt lat="44.1586783" lon="11.4658533"><ele>367.0</ele><time>2026-04-18T12:03:28.282Z</time></trkpt><trkpt lat="44.1586883" lon="11.466045"><ele>367.0</ele><time>2026-04-18T12:03:29.28Z</time></trkpt><trkpt lat="44.158665" lon="11.4662317"><ele>367.0</ele><time>2026-04-18T12:03:30.281Z</time></trkpt><trkpt lat="44.158615" lon="11.466385"><ele>367.0</ele><time>2026-04-18T12:03:31.281Z</time></trkpt><trkpt lat="44.1585367" lon="11.466485"><ele>367.0</ele><time>2026-04-18T12:03:32.282Z</time></trkpt><trkpt lat="44.158425" lon="11.4665183"><ele>368.66666666666663</ele><time>2026-04-18T12:03:33.281Z</time></trkpt><trkpt lat="44.15829" lon="11.4664933"><ele>370.3333333333333</ele><time>2026-04-18T12:03:34.279Z</time></trkpt><trkpt lat="44.1581367" lon="11.4664183"><ele>372.0</ele><time>2026-04-18T12:03:35.282Z</time></trkpt><trkpt lat="44.1579817" lon="11.4662883"><ele>374.6666666666667</ele><time>2026-04-18T12:03:36.282Z</time></trkpt><trkpt lat="44.1578383" lon="11.4661117"><ele>377.33333333333337</ele><time>2026-04-18T12:03:37.279Z</time></trkpt><trkpt lat="44.1577183" lon="11.465925"><ele>380.0</ele><time>2026-04-18T12:03:38.281Z</time></trkpt><trkpt lat="44.1576017" lon="11.4657567"><ele>380.0</ele><time>2026-04-18T12:03:39.28Z</time></trkpt><trkpt lat="44.1574667" lon="11.465605"><ele>380.0</ele><time>2026-04-18T12:03:40.279Z</time></trkpt><trkpt lat="44.1573167" lon="11.46548"><ele>380.0</ele><time>2026-04-18T12:03:41.28Z</time></trkpt><trkpt lat="44.1571733" lon="11.46538"><ele>379.8</ele><time>2026-04-18T12:03:42.282Z</time></trkpt><trkpt lat="44.1570483" lon="11.465305"><ele>379.6</ele><time>2026-04-18T12:03:43.281Z</time></trkpt><trkpt lat="44.1569417" lon="11.4652567"><ele>379.4</ele><time>2026-04-18T12:03:44.283Z</time></trkpt><trkpt lat="44.1568567" lon="11.4652667"><ele>379.2</ele><time>2026-04-18T12:03:45.28Z</time></trkpt><trkpt lat="44.1567983" lon="11.4653317"><ele>379.0</ele><time>2026-04-18T12:03:46.28Z</time></trkpt><trkpt lat="44.1567633" lon="11.46543"><ele>382.75</ele><time>2026-04-18T12:03:47.281Z</time></trkpt><trkpt lat="44.1568067" lon="11.46555"><ele>386.5</ele><time>2026-04-18T12:03:48.28Z</time></trkpt><trkpt lat="44.156875" lon="11.4656667"><ele>390.25</ele><time>2026-04-18T12:03:49.281Z</time></trkpt><trkpt lat="44.1569983" lon="11.46581"><ele>394.0</ele><time>2026-04-18T12:03:50.281Z</time></trkpt><trkpt lat="44.1571083" lon="11.46598"><ele>394.0</ele><time>2026-04-18T12:03:51.282Z</time></trkpt><trkpt lat="44.1571933" lon="11.46619"><ele>394.0</ele><time>2026-04-18T12:03:52.282Z</time></trkpt><trkpt lat="44.15726" lon="11.4664083"><ele>394.0</ele><time>2026-04-18T12:03:53.283Z</time></trkpt><trkpt lat="44.157315" lon="11.4666167"><ele>395.4</ele><time>2026-04-18T12:03:54.281Z</time></trkpt><trkpt lat="44.15735" lon="11.46679"><ele>396.79999999999995</ele><time>2026-04-18T12:03:55.281Z</time></trkpt><trkpt lat="44.157345" lon="11.466935"><ele>398.20000000000005</ele><time>2026-04-18T12:03:56.281Z</time></trkpt><trkpt lat="44.1572967" lon="11.4670467"><ele>399.6</ele><time>2026-04-18T12:03:57.282Z</time></trkpt><trkpt lat="44.15723" lon="11.4671217"><ele>401.0</ele><time>2026-04-18T12:03:58.281Z</time></trkpt><trkpt lat="44.1571083" lon="11.4671"><ele>401.0</ele><time>2026-04-18T12:03:59.281Z</time></trkpt><trkpt lat="44.157005" lon="11.46701"><ele>401.0</ele><time>2026-04-18T12:04:00.281Z</time></trkpt><trkpt lat="44.156895" lon="11.4668467"><ele>401.0</ele><time>2026-04-18T12:04:01.28Z</time></trkpt><trkpt lat="44.156785" lon="11.4666583"><ele>401.0</ele><time>2026-04-18T12:04:02.28Z</time></trkpt><trkpt lat="44.156675" lon="11.4664717"><ele>401.0</ele><time>2026-04-18T12:04:03.282Z</time></trkpt><trkpt lat="44.1565683" lon="11.4663067"><ele>401.0</ele><time>2026-04-18T12:04:04.282Z</time></trkpt><trkpt lat="44.1564667" lon="11.46619"><ele>402.5</ele><time>2026-04-18T12:04:05.28Z</time></trkpt><trkpt lat="44.156355" lon="11.4661367"><ele>404.0</ele><time>2026-04-18T12:04:06.281Z</time></trkpt><trkpt lat="44.156235" lon="11.466155"><ele>405.5</ele><time>2026-04-18T12:04:07.282Z</time></trkpt><trkpt lat="44.1561333" lon="11.4662433"><ele>407.0</ele><time>2026-04-18T12:04:08.282Z</time></trkpt><trkpt lat="44.156055" lon="11.46637"><ele>409.5</ele><time>2026-04-18T12:04:09.282Z</time></trkpt><trkpt lat="44.156015" lon="11.466515"><ele>412.0</ele><time>2026-04-18T12:04:10.28Z</time></trkpt><trkpt lat="44.15602" lon="11.4666717"><ele>414.5</ele><time>2026-04-18T12:04:11.28Z</time></trkpt><trkpt lat="44.1560633" lon="11.466835"><ele>417.0</ele><time>2026-04-18T12:04:12.283Z</time></trkpt><trkpt lat="44.1561383" lon="11.4670183"><ele>420.33333333333337</ele><time>2026-04-18T12:04:13.281Z</time></trkpt><trkpt lat="44.1562317" lon="11.4672283"><ele>423.6666666666667</ele><time>2026-04-18T12:04:14.281Z</time></trkpt><trkpt lat="44.15633" lon="11.4674767"><ele>427.0</ele><time>2026-04-18T12:04:15.28Z</time></trkpt><trkpt lat="44.15643" lon="11.4677317"><ele>427.33333333333337</ele><time>2026-04-18T12:04:16.282Z</time></trkpt><trkpt lat="44.1565317" lon="11.4679783"><ele>427.66666666666663</ele><time>2026-04-18T12:04:17.281Z</time></trkpt><trkpt lat="44.1566367" lon="11.4682233"><ele>428.0</ele><time>2026-04-18T12:04:18.281Z</time></trkpt><trkpt lat="44.1567383" lon="11.4684583"><ele>428.0</ele><time>2026-04-18T12:04:19.28Z</time></trkpt><trkpt lat="44.1568317" lon="11.4686717"><ele>428.0</ele><time>2026-04-18T12:04:20.281Z</time></trkpt><trkpt lat="44.1569117" lon="11.4688667"><ele>428.0</ele><time>2026-04-18T12:04:21.279Z</time></trkpt><trkpt lat="44.1569883" lon="11.4690317"><ele>430.2</ele><time>2026-04-18T12:04:22.281Z</time></trkpt><trkpt lat="44.1570583" lon="11.469175"><ele>432.4</ele><time>2026-04-18T12:04:23.28Z</time></trkpt><trkpt lat="44.1570883" lon="11.4693017"><ele>434.59999999999997</ele><time>2026-04-18T12:04:24.279Z</time></trkpt><trkpt lat="44.1570767" lon="11.4694117"><ele>436.79999999999995</ele><time>2026-04-18T12:04:25.28Z</time></trkpt><trkpt lat="44.157035" lon="11.46948"><ele>439.0</ele><time>2026-04-18T12:04:26.28Z</time></trkpt><trkpt lat="44.15691" lon="11.46949"><ele>439.0</ele><time>2026-04-18T12:04:28.28Z</time></trkpt><trkpt lat="44.1568417" lon="11.4694317"><ele>439.0</ele><time>2026-04-18T12:04:29.28Z</time></trkpt><trkpt lat="44.156785" lon="11.4692583"><ele>439.0</ele><time>2026-04-18T12:04:30.283Z</time></trkpt><trkpt lat="44.1567133" lon="11.4691083"><ele>439.0</ele><time>2026-04-18T12:04:31.282Z</time></trkpt><trkpt lat="44.1566383" lon="11.4689583"><ele>439.0</ele><time>2026-04-18T12:04:32.282Z</time></trkpt><trkpt lat="44.1565367" lon="11.4687917"><ele>439.0</ele><time>2026-04-18T12:04:33.281Z</time></trkpt><trkpt lat="44.1564" lon="11.4686467"><ele>439.0</ele><time>2026-04-18T12:04:34.281Z</time></trkpt><trkpt lat="44.1562733" lon="11.4685167"><ele>439.6666666666667</ele><time>2026-04-18T12:04:35.281Z</time></trkpt><trkpt lat="44.15614" lon="11.468405"><ele>440.33333333333337</ele><time>2026-04-18T12:04:36.282Z</time></trkpt><trkpt lat="44.1559967" lon="11.4683367"><ele>441.0</ele><time>2026-04-18T12:04:37.28Z</time></trkpt><trkpt lat="44.1558483" lon="11.4683133"><ele>441.0</ele><time>2026-04-18T12:04:38.282Z</time></trkpt><trkpt lat="44.1557083" lon="11.4683567"><ele>441.0</ele><time>2026-04-18T12:04:39.281Z</time></trkpt><trkpt lat="44.1555867" lon="11.4684617"><ele>441.0</ele><time>2026-04-18T12:04:40.28Z</time></trkpt><trkpt lat="44.155495" lon="11.4686033"><ele>441.0</ele><time>2026-04-18T12:04:41.281Z</time></trkpt><trkpt lat="44.1554533" lon="11.46877"><ele>444.5</ele><time>2026-04-18T12:04:42.281Z</time></trkpt><trkpt lat="44.1554567" lon="11.46894"><ele>448.0</ele><time>2026-04-18T12:04:43.279Z</time></trkpt><trkpt lat="44.1555117" lon="11.46911"><ele>451.5</ele><time>2026-04-18T12:04:44.28Z</time></trkpt><trkpt lat="44.15562" lon="11.46928"><ele>455.0</ele><time>2026-04-18T12:04:45.281Z</time></trkpt><trkpt lat="44.1557517" lon="11.4694683"><ele>460.66666666666663</ele><time>2026-04-18T12:04:46.281Z</time></trkpt><trkpt lat="44.1558733" lon="11.46968"><ele>466.33333333333337</ele><time>2026-04-18T12:04:47.281Z</time></trkpt><trkpt lat="44.1559933" lon="11.469905"><ele>472.0</ele><time>2026-04-18T12:04:48.282Z</time></trkpt><trkpt lat="44.156115" lon="11.47013"><ele>472.0</ele><time>2026-04-18T12:04:49.282Z</time></trkpt><trkpt lat="44.1562567" lon="11.4703383"><ele>472.0</ele><time>2026-04-18T12:04:50.28Z</time></trkpt><trkpt lat="44.1564217" lon="11.470525"><ele>472.0</ele><time>2026-04-18T12:04:51.282Z</time></trkpt><trkpt lat="44.1566083" lon="11.4707033"><ele>471.6666666666667</ele><time>2026-04-18T12:04:52.281Z</time></trkpt><trkpt lat="44.1568" lon="11.4708683"><ele>471.33333333333337</ele><time>2026-04-18T12:04:53.281Z</time></trkpt><trkpt lat="44.1569783" lon="11.4710283"><ele>471.0</ele><time>2026-04-18T12:04:54.28Z</time></trkpt><trkpt lat="44.1571383" lon="11.4711583"><ele>471.0</ele><time>2026-04-18T12:04:55.28Z</time></trkpt><trkpt lat="44.15727" lon="11.471265"><ele>471.0</ele><time>2026-04-18T12:04:56.281Z</time></trkpt><trkpt lat="44.1573767" lon="11.4713717"><ele>471.0</ele><time>2026-04-18T12:04:57.282Z</time></trkpt><trkpt lat="44.15746" lon="11.4715017"><ele>471.0</ele><time>2026-04-18T12:04:58.281Z</time></trkpt><trkpt lat="44.1575083" lon="11.4716583"><ele>471.75</ele><time>2026-04-18T12:04:59.28Z</time></trkpt><trkpt lat="44.1575283" lon="11.471845"><ele>472.5</ele><time>2026-04-18T12:05:00.281Z</time></trkpt><trkpt lat="44.1575283" lon="11.4720567"><ele>473.25</ele><time>2026-04-18T12:05:01.281Z</time></trkpt><trkpt lat="44.1575117" lon="11.4722683"><ele>474.0</ele><time>2026-04-18T12:05:02.281Z</time></trkpt><trkpt lat="44.1574667" lon="11.4724667"><ele>475.25</ele><time>2026-04-18T12:05:03.282Z</time></trkpt><trkpt lat="44.1573917" lon="11.4726483"><ele>476.5</ele><time>2026-04-18T12:05:04.281Z</time></trkpt><trkpt lat="44.15731" lon="11.4728083"><ele>477.75</ele><time>2026-04-18T12:05:05.28Z</time></trkpt><trkpt lat="44.1572483" lon="11.47295"><ele>479.0</ele><time>2026-04-18T12:05:06.282Z</time></trkpt><trkpt lat="44.1571883" lon="11.4730783"><ele>486.5</ele><time>2026-04-18T12:05:07.281Z</time></trkpt><trkpt lat="44.1571517" lon="11.4732117"><ele>494.0</ele><time>2026-04-18T12:05:08.282Z</time></trkpt><trkpt lat="44.15714" lon="11.4733567"><ele>501.5</ele><time>2026-04-18T12:05:09.281Z</time></trkpt><trkpt lat="44.15718" lon="11.4735117"><ele>509.0</ele><time>2026-04-18T12:05:10.28Z</time></trkpt><trkpt lat="44.1572083" lon="11.473695"><ele>509.66666666666663</ele><time>2026-04-18T12:05:11.281Z</time></trkpt><trkpt lat="44.157215" lon="11.4739033"><ele>510.33333333333337</ele><time>2026-04-18T12:05:12.282Z</time></trkpt><trkpt lat="44.1572083" lon="11.47414"><ele>511.0</ele><time>2026-04-18T12:05:13.282Z</time></trkpt><trkpt lat="44.157195" lon="11.4743967"><ele>513.0</ele><time>2026-04-18T12:05:14.281Z</time></trkpt><trkpt lat="44.1571883" lon="11.474655"><ele>515.0</ele><time>2026-04-18T12:05:15.281Z</time></trkpt><trkpt lat="44.1571817" lon="11.4748967"><ele>517.0</ele><time>2026-04-18T12:05:16.282Z</time></trkpt><trkpt lat="44.1571883" lon="11.47511"><ele>517.0</ele><time>2026-04-18T12:05:17.281Z</time></trkpt><trkpt lat="44.1572283" lon="11.4752933"><ele>517.0</ele><time>2026-04-18T12:05:18.282Z</time></trkpt><trkpt lat="44.1573033" lon="11.4754533"><ele>517.0</ele><time>2026-04-18T12:05:19.282Z</time></trkpt><trkpt lat="44.157405" lon="11.475595"><ele>517.0</ele><time>2026-04-18T12:05:20.281Z</time></trkpt><trkpt lat="44.15754" lon="11.475715"><ele>513.75</ele><time>2026-04-18T12:05:21.282Z</time></trkpt><trkpt lat="44.15768" lon="11.4757983"><ele>510.5</ele><time>2026-04-18T12:05:22.279Z</time></trkpt><trkpt lat="44.1578183" lon="11.4758667"><ele>507.25</ele><time>2026-04-18T12:05:23.281Z</time></trkpt><trkpt lat="44.1579417" lon="11.47593"><ele>504.0</ele><time>2026-04-18T12:05:24.281Z</time></trkpt><trkpt lat="44.15804" lon="11.476015"><ele>504.0</ele><time>2026-04-18T12:05:25.28Z</time></trkpt><trkpt lat="44.1581017" lon="11.476115"><ele>504.0</ele><time>2026-04-18T12:05:26.281Z</time></trkpt><trkpt lat="44.15812" lon="11.476225"><ele>504.0</ele><time>2026-04-18T12:05:27.283Z</time></trkpt><trkpt lat="44.15811" lon="11.4763333"><ele>504.0</ele><time>2026-04-18T12:05:28.281Z</time></trkpt><trkpt lat="44.15805" lon="11.4764167"><ele>504.0</ele><time>2026-04-18T12:05:29.279Z</time></trkpt><trkpt lat="44.1579783" lon="11.476465"><ele>504.0</ele><time>2026-04-18T12:05:30.282Z</time></trkpt><trkpt lat="44.157865" lon="11.4764567"><ele>504.0</ele><time>2026-04-18T12:05:31.28Z</time></trkpt><trkpt lat="44.1577267" lon="11.4763983"><ele>504.0</ele><time>2026-04-18T12:05:32.283Z</time></trkpt><trkpt lat="44.1575833" lon="11.476325"><ele>504.0</ele><time>2026-04-18T12:05:33.282Z</time></trkpt><trkpt lat="44.1574467" lon="11.4762483"><ele>504.0</ele><time>2026-04-18T12:05:34.282Z</time></trkpt><trkpt lat="44.1573167" lon="11.476155"><ele>512.0</ele><time>2026-04-18T12:05:35.282Z</time></trkpt><trkpt lat="44.1571983" lon="11.4760217"><ele>520.0</ele><time>2026-04-18T12:05:36.279Z</time></trkpt><trkpt lat="44.1570917" lon="11.47585"><ele>528.0</ele><time>2026-04-18T12:05:37.281Z</time></trkpt><trkpt lat="44.156985" lon="11.47566"><ele>528.0</ele><time>2026-04-18T12:05:38.28Z</time></trkpt><trkpt lat="44.1568683" lon="11.475485"><ele>528.0</ele><time>2026-04-18T12:05:39.28Z</time></trkpt><trkpt lat="44.1567467" lon="11.475345"><ele>528.0</ele><time>2026-04-18T12:05:40.28Z</time></trkpt><trkpt lat="44.1566433" lon="11.475205"><ele>525.25</ele><time>2026-04-18T12:05:41.28Z</time></trkpt><trkpt lat="44.1565517" lon="11.4750417"><ele>522.5</ele><time>2026-04-18T12:05:42.28Z</time></trkpt><trkpt lat="44.1564783" lon="11.4748583"><ele>519.75</ele><time>2026-04-18T12:05:43.282Z</time></trkpt><trkpt lat="44.1564333" lon="11.4746733"><ele>517.0</ele><time>2026-04-18T12:05:44.281Z</time></trkpt><trkpt lat="44.1563983" lon="11.4745183"><ele>520.8333333333334</ele><time>2026-04-18T12:05:45.279Z</time></trkpt><trkpt lat="44.1563783" lon="11.4743917"><ele>524.6666666666667</ele><time>2026-04-18T12:05:46.28Z</time></trkpt><trkpt lat="44.15637" lon="11.4742717"><ele>528.5</ele><time>2026-04-18T12:05:47.281Z</time></trkpt><trkpt lat="44.156365" lon="11.4741583"><ele>532.3333333333334</ele><time>2026-04-18T12:05:48.281Z</time></trkpt><trkpt lat="44.1563567" lon="11.47404"><ele>536.1666666666666</ele><time>2026-04-18T12:05:49.279Z</time></trkpt><trkpt lat="44.15634" lon="11.4739183"><ele>540.0</ele><time>2026-04-18T12:05:50.28Z</time></trkpt><trkpt lat="44.1563217" lon="11.4738"><ele>540.0</ele><time>2026-04-18T12:05:51.279Z</time></trkpt><trkpt lat="44.1563117" lon="11.47368"><ele>540.0</ele><time>2026-04-18T12:05:52.281Z</time></trkpt><trkpt lat="44.1563283" lon="11.4735383"><ele>540.0</ele><time>2026-04-18T12:05:53.279Z</time></trkpt><trkpt lat="44.156355" lon="11.4733717"><ele>540.0</ele><time>2026-04-18T12:05:54.279Z</time></trkpt><trkpt lat="44.15638" lon="11.4732133"><ele>540.0</ele><time>2026-04-18T12:05:55.281Z</time></trkpt><trkpt lat="44.15639" lon="11.4730583"><ele>538.75</ele><time>2026-04-18T12:05:56.28Z</time></trkpt><trkpt lat="44.1563767" lon="11.472905"><ele>537.5</ele><time>2026-04-18T12:05:57.279Z</time></trkpt><trkpt lat="44.1563267" lon="11.47276"><ele>536.25</ele><time>2026-04-18T12:05:58.28Z</time></trkpt><trkpt lat="44.1562383" lon="11.4726367"><ele>535.0</ele><time>2026-04-18T12:05:59.28Z</time></trkpt><trkpt lat="44.156115" lon="11.47253"><ele>535.0</ele><time>2026-04-18T12:06:00.28Z</time></trkpt><trkpt lat="44.15598" lon="11.4724417"><ele>535.0</ele><time>2026-04-18T12:06:01.282Z</time></trkpt><trkpt lat="44.155855" lon="11.47234"><ele>535.0</ele><time>2026-04-18T12:06:02.281Z</time></trkpt><trkpt lat="44.15576" lon="11.4722133"><ele>535.0</ele><time>2026-04-18T12:06:03.281Z</time></trkpt><trkpt lat="44.155695" lon="11.4720667"><ele>533.6</ele><time>2026-04-18T12:06:04.281Z</time></trkpt><trkpt lat="44.1556517" lon="11.4719083"><ele>532.2</ele><time>2026-04-18T12:06:05.282Z</time></trkpt><trkpt lat="44.1556217" lon="11.4717533"><ele>530.8</ele><time>2026-04-18T12:06:06.282Z</time></trkpt><trkpt lat="44.1555633" lon="11.4716467"><ele>529.4</ele><time>2026-04-18T12:06:07.281Z</time></trkpt><trkpt lat="44.1554817" lon="11.4715983"><ele>528.0</ele><time>2026-04-18T12:06:08.282Z</time></trkpt><trkpt lat="44.1553833" lon="11.4716317"><ele>528.0</ele><time>2026-04-18T12:06:09.281Z</time></trkpt><trkpt lat="44.1552667" lon="11.4717017"><ele>528.0</ele><time>2026-04-18T12:06:10.281Z</time></trkpt><trkpt lat="44.1551533" lon="11.4718317"><ele>528.0</ele><time>2026-04-18T12:06:11.28Z</time></trkpt><trkpt lat="44.155025" lon="11.471975"><ele>528.0</ele><time>2026-04-18T12:06:12.279Z</time></trkpt><trkpt lat="44.1548833" lon="11.4720883"><ele>534.6666666666666</ele><time>2026-04-18T12:06:13.281Z</time></trkpt><trkpt lat="44.154725" lon="11.4721633"><ele>541.3333333333333</ele><time>2026-04-18T12:06:14.282Z</time></trkpt><trkpt lat="44.154555" lon="11.472205"><ele>548.0</ele><time>2026-04-18T12:06:15.281Z</time></trkpt><trkpt lat="44.1543833" lon="11.4722217"><ele>548.0</ele><time>2026-04-18T12:06:16.281Z</time></trkpt><trkpt lat="44.1542167" lon="11.4722117"><ele>548.0</ele><time>2026-04-18T12:06:17.281Z</time></trkpt><trkpt lat="44.15406" lon="11.4721567"><ele>548.0</ele><time>2026-04-18T12:06:18.281Z</time></trkpt><trkpt lat="44.153915" lon="11.4720617"><ele>546.0</ele><time>2026-04-18T12:06:19.28Z</time></trkpt><trkpt lat="44.1537783" lon="11.471925"><ele>544.0</ele><time>2026-04-18T12:06:20.281Z</time></trkpt><trkpt lat="44.1536283" lon="11.4717783"><ele>542.0</ele><time>2026-04-18T12:06:21.279Z</time></trkpt><trkpt lat="44.153475" lon="11.47165"><ele>542.0</ele><time>2026-04-18T12:06:22.279Z</time></trkpt><trkpt lat="44.1533267" lon="11.47153"><ele>542.0</ele><time>2026-04-18T12:06:23.28Z</time></trkpt><trkpt lat="44.1531783" lon="11.47143"><ele>542.0</ele><time>2026-04-18T12:06:24.281Z</time></trkpt><trkpt lat="44.1530233" lon="11.4713567"><ele>541.3333333333333</ele><time>2026-04-18T12:06:25.28Z</time></trkpt><trkpt lat="44.152855" lon="11.4713033"><ele>540.6666666666666</ele><time>2026-04-18T12:06:26.281Z</time></trkpt><trkpt lat="44.1526817" lon="11.4712433"><ele>540.0</ele><time>2026-04-18T12:06:27.281Z</time></trkpt><trkpt lat="44.1525067" lon="11.4711817"><ele>544.3333333333334</ele><time>2026-04-18T12:06:28.28Z</time></trkpt><trkpt lat="44.1523433" lon="11.4710917"><ele>548.6666666666667</ele><time>2026-04-18T12:06:29.28Z</time></trkpt><trkpt lat="44.152215" lon="11.4709617"><ele>553.0</ele><time>2026-04-18T12:06:30.281Z</time></trkpt><trkpt lat="44.1521183" lon="11.470795"><ele>553.0</ele><time>2026-04-18T12:06:31.281Z</time></trkpt><trkpt lat="44.1520533" lon="11.4706017"><ele>553.0</ele><time>2026-04-18T12:06:32.281Z</time></trkpt><trkpt lat="44.1520133" lon="11.470395"><ele>553.0</ele><time>2026-04-18T12:06:33.279Z</time></trkpt><trkpt lat="44.1519783" lon="11.4702017"><ele>550.75</ele><time>2026-04-18T12:06:34.282Z</time></trkpt><trkpt lat="44.1519317" lon="11.4700333"><ele>548.5</ele><time>2026-04-18T12:06:35.281Z</time></trkpt><trkpt lat="44.151865" lon="11.469895"><ele>546.25</ele><time>2026-04-18T12:06:36.281Z</time></trkpt><trkpt lat="44.1517783" lon="11.469805"><ele>544.0</ele><time>2026-04-18T12:06:37.28Z</time></trkpt><trkpt lat="44.1516817" lon="11.46977"><ele>544.0</ele><time>2026-04-18T12:06:38.281Z</time></trkpt><trkpt lat="44.1515833" lon="11.4697933"><ele>544.0</ele><time>2026-04-18T12:06:39.281Z</time></trkpt><trkpt lat="44.1514967" lon="11.4698833"><ele>544.0</ele><time>2026-04-18T12:06:40.281Z</time></trkpt><trkpt lat="44.1514" lon="11.4700383"><ele>544.0</ele><time>2026-04-18T12:06:41.282Z</time></trkpt><trkpt lat="44.1512883" lon="11.4702383"><ele>543.0</ele><time>2026-04-18T12:06:42.279Z</time></trkpt><trkpt lat="44.1511667" lon="11.4704467"><ele>542.0</ele><time>2026-04-18T12:06:43.28Z</time></trkpt><trkpt lat="44.151045" lon="11.4706567"><ele>541.0</ele><time>2026-04-18T12:06:44.281Z</time></trkpt><trkpt lat="44.1509267" lon="11.4708467"><ele>541.0</ele><time>2026-04-18T12:06:45.281Z</time></trkpt><trkpt lat="44.1508267" lon="11.4710233"><ele>541.0</ele><time>2026-04-18T12:06:46.28Z</time></trkpt><trkpt lat="44.150735" lon="11.47119"><ele>541.0</ele><time>2026-04-18T12:06:47.279Z</time></trkpt><trkpt lat="44.150665" lon="11.471345"><ele>541.0</ele><time>2026-04-18T12:06:48.281Z</time></trkpt><trkpt lat="44.1506167" lon="11.4715"><ele>543.5</ele><time>2026-04-18T12:06:49.282Z</time></trkpt><trkpt lat="44.1506" lon="11.4716567"><ele>546.0</ele><time>2026-04-18T12:06:50.281Z</time></trkpt><trkpt lat="44.150615" lon="11.4718017"><ele>548.5</ele><time>2026-04-18T12:06:51.281Z</time></trkpt><trkpt lat="44.1506683" lon="11.4719517"><ele>551.0</ele><time>2026-04-18T12:06:52.28Z</time></trkpt><trkpt lat="44.1507383" lon="11.4720917"><ele>549.3333333333333</ele><time>2026-04-18T12:06:53.28Z</time></trkpt><trkpt lat="44.150845" lon="11.472225"><ele>547.6666666666666</ele><time>2026-04-18T12:06:54.282Z</time></trkpt><trkpt lat="44.1509383" lon="11.472395"><ele>546.0</ele><time>2026-04-18T12:06:55.281Z</time></trkpt><trkpt lat="44.1510233" lon="11.4725983"><ele>546.0</ele><time>2026-04-18T12:06:56.281Z</time></trkpt><trkpt lat="44.1510967" lon="11.4728183"><ele>546.0</ele><time>2026-04-18T12:06:57.279Z</time></trkpt><trkpt lat="44.1511633" lon="11.473045"><ele>546.0</ele><time>2026-04-18T12:06:58.282Z</time></trkpt><trkpt lat="44.151215" lon="11.4732883"><ele>542.3333333333334</ele><time>2026-04-18T12:06:59.28Z</time></trkpt><trkpt lat="44.1512517" lon="11.4735383"><ele>538.6666666666667</ele><time>2026-04-18T12:07:00.281Z</time></trkpt><trkpt lat="44.1512883" lon="11.473775"><ele>535.0</ele><time>2026-04-18T12:07:01.28Z</time></trkpt><trkpt lat="44.1513317" lon="11.4739983"><ele>532.6666666666667</ele><time>2026-04-18T12:07:02.282Z</time></trkpt><trkpt lat="44.15138" lon="11.4742233"><ele>530.3333333333334</ele><time>2026-04-18T12:07:03.281Z</time></trkpt><trkpt lat="44.15143" lon="11.4744567"><ele>528.0</ele><time>2026-04-18T12:07:04.279Z</time></trkpt><trkpt lat="44.1514733" lon="11.4746983"><ele>528.0</ele><time>2026-04-18T12:07:05.28Z</time></trkpt><trkpt lat="44.1515117" lon="11.4749367"><ele>528.0</ele><time>2026-04-18T12:07:06.28Z</time></trkpt><trkpt lat="44.1515433" lon="11.4751883"><ele>528.0</ele><time>2026-04-18T12:07:07.28Z</time></trkpt><trkpt lat="44.1515767" lon="11.4754417"><ele>543.0</ele><time>2026-04-18T12:07:08.281Z</time></trkpt><trkpt lat="44.1515917" lon="11.4756817"><ele>558.0</ele><time>2026-04-18T12:07:09.28Z</time></trkpt><trkpt lat="44.151605" lon="11.475915"><ele>573.0</ele><time>2026-04-18T12:07:10.28Z</time></trkpt><trkpt lat="44.1516183" lon="11.4761283"><ele>574.1999999999999</ele><time>2026-04-18T12:07:11.281Z</time></trkpt><trkpt lat="44.1516283" lon="11.47632"><ele>575.4</ele><time>2026-04-18T12:07:12.28Z</time></trkpt><trkpt lat="44.1516233" lon="11.4764717"><ele>576.5999999999999</ele><time>2026-04-18T12:07:13.281Z</time></trkpt><trkpt lat="44.151625" lon="11.4766133"><ele>577.8</ele><time>2026-04-18T12:07:14.279Z</time></trkpt><trkpt lat="44.151605" lon="11.476735"><ele>579.0</ele><time>2026-04-18T12:07:15.281Z</time></trkpt><trkpt lat="44.1515617" lon="11.476855"><ele>577.75</ele><time>2026-04-18T12:07:16.281Z</time></trkpt><trkpt lat="44.1514917" lon="11.4769767"><ele>576.5</ele><time>2026-04-18T12:07:17.281Z</time></trkpt><trkpt lat="44.1514083" lon="11.4771"><ele>575.25</ele><time>2026-04-18T12:07:18.28Z</time></trkpt><trkpt lat="44.15131" lon="11.4772217"><ele>574.0</ele><time>2026-04-18T12:07:19.282Z</time></trkpt><trkpt lat="44.1511967" lon="11.4773333"><ele>574.0</ele><time>2026-04-18T12:07:20.283Z</time></trkpt><trkpt lat="44.1510783" lon="11.4774233"><ele>574.0</ele><time>2026-04-18T12:07:21.281Z</time></trkpt><trkpt lat="44.1509433" lon="11.4774883"><ele>574.0</ele><time>2026-04-18T12:07:22.281Z</time></trkpt><trkpt lat="44.150805" lon="11.4775367"><ele>574.0</ele><time>2026-04-18T12:07:23.282Z</time></trkpt><trkpt lat="44.1506867" lon="11.4775867"><ele>575.5</ele><time>2026-04-18T12:07:24.283Z</time></trkpt><trkpt lat="44.1505683" lon="11.477655"><ele>577.0</ele><time>2026-04-18T12:07:25.28Z</time></trkpt><trkpt lat="44.1504383" lon="11.4777533"><ele>578.5</ele><time>2026-04-18T12:07:26.28Z</time></trkpt><trkpt lat="44.1503" lon="11.4778767"><ele>580.0</ele><time>2026-04-18T12:07:27.28Z</time></trkpt><trkpt lat="44.1501467" lon="11.47801"><ele>580.0</ele><time>2026-04-18T12:07:28.281Z</time></trkpt><trkpt lat="44.1500067" lon="11.47816"><ele>580.0</ele><time>2026-04-18T12:07:29.28Z</time></trkpt><trkpt lat="44.1498617" lon="11.478335"><ele>580.0</ele><time>2026-04-18T12:07:30.281Z</time></trkpt><trkpt lat="44.1497317" lon="11.478495"><ele>583.0</ele><time>2026-04-18T12:07:31.28Z</time></trkpt><trkpt lat="44.149565" lon="11.4786467"><ele>586.0</ele><time>2026-04-18T12:07:32.281Z</time></trkpt><trkpt lat="44.1494217" lon="11.4788067"><ele>589.0</ele><time>2026-04-18T12:07:33.281Z</time></trkpt><trkpt lat="44.14929" lon="11.478975"><ele>589.0</ele><time>2026-04-18T12:07:34.281Z</time></trkpt><trkpt lat="44.1491617" lon="11.4791383"><ele>589.0</ele><time>2026-04-18T12:07:35.281Z</time></trkpt><trkpt lat="44.1490217" lon="11.47929"><ele>589.0</ele><time>2026-04-18T12:07:36.28Z</time></trkpt><trkpt lat="44.1488733" lon="11.4794283"><ele>588.6666666666667</ele><time>2026-04-18T12:07:37.281Z</time></trkpt><trkpt lat="44.148725" lon="11.47956"><ele>588.3333333333334</ele><time>2026-04-18T12:07:38.281Z</time></trkpt><trkpt lat="44.1485833" lon="11.47968"><ele>588.0</ele><time>2026-04-18T12:07:39.281Z</time></trkpt><trkpt lat="44.1484583" lon="11.4797817"><ele>588.0</ele><time>2026-04-18T12:07:40.282Z</time></trkpt><trkpt lat="44.148365" lon="11.479875"><ele>588.0</ele><time>2026-04-18T12:07:41.281Z</time></trkpt><trkpt lat="44.1483117" lon="11.4799783"><ele>588.0</ele><time>2026-04-18T12:07:42.281Z</time></trkpt><trkpt lat="44.148305" lon="11.4800833"><ele>588.0</ele><time>2026-04-18T12:07:43.279Z</time></trkpt><trkpt lat="44.14834" lon="11.4801667"><ele>588.0</ele><time>2026-04-18T12:07:44.28Z</time></trkpt><trkpt lat="44.1484183" lon="11.4801867"><ele>588.0</ele><time>2026-04-18T12:07:45.279Z</time></trkpt><trkpt lat="44.1484983" lon="11.4801717"><ele>588.0</ele><time>2026-04-18T12:07:46.282Z</time></trkpt><trkpt lat="44.14862" lon="11.480075"><ele>588.0</ele><time>2026-04-18T12:07:47.28Z</time></trkpt><trkpt lat="44.14876" lon="11.4799733"><ele>588.0</ele><time>2026-04-18T12:07:48.279Z</time></trkpt><trkpt lat="44.1489433" lon="11.47988"><ele>593.3333333333334</ele><time>2026-04-18T12:07:49.279Z</time></trkpt><trkpt lat="44.1491483" lon="11.479805"><ele>598.6666666666667</ele><time>2026-04-18T12:07:50.282Z</time></trkpt><trkpt lat="44.1493567" lon="11.479735"><ele>604.0</ele><time>2026-04-18T12:07:51.281Z</time></trkpt><trkpt lat="44.1495467" lon="11.479645"><ele>603.3333333333334</ele><time>2026-04-18T12:07:52.281Z</time></trkpt><trkpt lat="44.1497267" lon="11.47953"><ele>602.6666666666666</ele><time>2026-04-18T12:07:53.28Z</time></trkpt><trkpt lat="44.1498983" lon="11.4794017"><ele>602.0</ele><time>2026-04-18T12:07:54.28Z</time></trkpt><trkpt lat="44.1500533" lon="11.47926"><ele>602.0</ele><time>2026-04-18T12:07:55.28Z</time></trkpt><trkpt lat="44.1501933" lon="11.4791367"><ele>602.0</ele><time>2026-04-18T12:07:56.283Z</time></trkpt><trkpt lat="44.150325" lon="11.4790383"><ele>602.0</ele><time>2026-04-18T12:07:57.281Z</time></trkpt><trkpt lat="44.1504567" lon="11.4789683"><ele>602.0</ele><time>2026-04-18T12:07:58.281Z</time></trkpt><trkpt lat="44.1506017" lon="11.4789433"><ele>602.0</ele><time>2026-04-18T12:07:59.28Z</time></trkpt><trkpt lat="44.1507683" lon="11.478955"><ele>602.0</ele><time>2026-04-18T12:08:00.279Z</time></trkpt><trkpt lat="44.15095" lon="11.4789867"><ele>605.0</ele><time>2026-04-18T12:08:01.281Z</time></trkpt><trkpt lat="44.15114" lon="11.4790333"><ele>608.0</ele><time>2026-04-18T12:08:02.28Z</time></trkpt><trkpt lat="44.1513183" lon="11.4790783"><ele>611.0</ele><time>2026-04-18T12:08:03.279Z</time></trkpt><trkpt lat="44.15148" lon="11.4791333"><ele>612.25</ele><time>2026-04-18T12:08:04.279Z</time></trkpt><trkpt lat="44.1516233" lon="11.47921"><ele>613.5</ele><time>2026-04-18T12:08:05.281Z</time></trkpt><trkpt lat="44.15174" lon="11.4792833"><ele>614.75</ele><time>2026-04-18T12:08:06.279Z</time></trkpt><trkpt lat="44.1518483" lon="11.4793767"><ele>616.0</ele><time>2026-04-18T12:08:07.281Z</time></trkpt><trkpt lat="44.151965" lon="11.4794217"><ele>616.0</ele><time>2026-04-18T12:08:08.281Z</time></trkpt><trkpt lat="44.1520967" lon="11.47943"><ele>616.0</ele><time>2026-04-18T12:08:09.281Z</time></trkpt><trkpt lat="44.15222" lon="11.4793917"><ele>616.0</ele><time>2026-04-18T12:08:10.278Z</time></trkpt><trkpt lat="44.1523317" lon="11.47932"><ele>616.0</ele><time>2026-04-18T12:08:11.28Z</time></trkpt><trkpt lat="44.15242" lon="11.4791783"><ele>616.6666666666667</ele><time>2026-04-18T12:08:12.279Z</time></trkpt><trkpt lat="44.1524867" lon="11.47897"><ele>617.3333333333334</ele><time>2026-04-18T12:08:13.281Z</time></trkpt><trkpt lat="44.152555" lon="11.478715"><ele>618.0</ele><time>2026-04-18T12:08:14.28Z</time></trkpt><trkpt lat="44.1526267" lon="11.4784467"><ele>618.0</ele><time>2026-04-18T12:08:15.279Z</time></trkpt><trkpt lat="44.1527067" lon="11.4781783"><ele>618.0</ele><time>2026-04-18T12:08:16.282Z</time></trkpt><trkpt lat="44.152785" lon="11.4779217"><ele>618.0</ele><time>2026-04-18T12:08:17.282Z</time></trkpt><trkpt lat="44.15286" lon="11.477685"><ele>618.0</ele><time>2026-04-18T12:08:18.28Z</time></trkpt><trkpt lat="44.1529133" lon="11.4774667"><ele>618.0</ele><time>2026-04-18T12:08:19.282Z</time></trkpt><trkpt lat="44.152925" lon="11.477265"><ele>618.0</ele><time>2026-04-18T12:08:20.281Z</time></trkpt><trkpt lat="44.15289" lon="11.4770683"><ele>618.0</ele><time>2026-04-18T12:08:21.279Z</time></trkpt><trkpt lat="44.15282" lon="11.4768483"><ele>618.0</ele><time>2026-04-18T12:08:22.279Z</time></trkpt><trkpt lat="44.1527517" lon="11.476635"><ele>618.0</ele><time>2026-04-18T12:08:23.282Z</time></trkpt><trkpt lat="44.1526933" lon="11.4764417"><ele>618.5</ele><time>2026-04-18T12:08:24.28Z</time></trkpt><trkpt lat="44.1526533" lon="11.476265"><ele>619.0</ele><time>2026-04-18T12:08:25.28Z</time></trkpt><trkpt lat="44.1526417" lon="11.4761067"><ele>619.5</ele><time>2026-04-18T12:08:26.281Z</time></trkpt><trkpt lat="44.152675" lon="11.4759767"><ele>620.0</ele><time>2026-04-18T12:08:27.282Z</time></trkpt><trkpt lat="44.1527433" lon="11.4758583"><ele>620.0</ele><time>2026-04-18T12:08:28.28Z</time></trkpt><trkpt lat="44.15286" lon="11.4757633"><ele>620.0</ele><time>2026-04-18T12:08:29.28Z</time></trkpt><trkpt lat="44.1529767" lon="11.4757017"><ele>620.0</ele><time>2026-04-18T12:08:30.28Z</time></trkpt><trkpt lat="44.1530933" lon="11.47568"><ele>620.0</ele><time>2026-04-18T12:08:31.28Z</time></trkpt><trkpt lat="44.1532117" lon="11.475705"><ele>624.0</ele><time>2026-04-18T12:08:32.283Z</time></trkpt><trkpt lat="44.1533283" lon="11.4757967"><ele>628.0</ele><time>2026-04-18T12:08:33.281Z</time></trkpt><trkpt lat="44.15341" lon="11.4759133"><ele>632.0</ele><time>2026-04-18T12:08:34.281Z</time></trkpt><trkpt lat="44.1534633" lon="11.47606"><ele>636.0</ele><time>2026-04-18T12:08:35.282Z</time></trkpt><trkpt lat="44.15349" lon="11.4762317"><ele>637.0</ele><time>2026-04-18T12:08:36.28Z</time></trkpt><trkpt lat="44.1534867" lon="11.4764433"><ele>638.0</ele><time>2026-04-18T12:08:37.28Z</time></trkpt><trkpt lat="44.153475" lon="11.4766917"><ele>639.0</ele><time>2026-04-18T12:08:38.28Z</time></trkpt><trkpt lat="44.153465" lon="11.47696"><ele>639.6666666666666</ele><time>2026-04-18T12:08:39.279Z</time></trkpt><trkpt lat="44.1534533" lon="11.4772433"><ele>640.3333333333333</ele><time>2026-04-18T12:08:40.281Z</time></trkpt><trkpt lat="44.1534417" lon="11.4775183"><ele>641.0</ele><time>2026-04-18T12:08:41.281Z</time></trkpt><trkpt lat="44.1534283" lon="11.4777783"><ele>642.6666666666666</ele><time>2026-04-18T12:08:42.279Z</time></trkpt><trkpt lat="44.1534183" lon="11.4780217"><ele>644.3333333333334</ele><time>2026-04-18T12:08:43.28Z</time></trkpt><trkpt lat="44.1534033" lon="11.4782567"><ele>646.0</ele><time>2026-04-18T12:08:44.281Z</time></trkpt><trkpt lat="44.1533667" lon="11.47849"><ele>646.0</ele><time>2026-04-18T12:08:45.28Z</time></trkpt><trkpt lat="44.1533267" lon="11.4787217"><ele>646.0</ele><time>2026-04-18T12:08:46.282Z</time></trkpt><trkpt lat="44.1532967" lon="11.47894"><ele>646.0</ele><time>2026-04-18T12:08:47.281Z</time></trkpt><trkpt lat="44.1532917" lon="11.4791533"><ele>649.0</ele><time>2026-04-18T12:08:48.281Z</time></trkpt><trkpt lat="44.15334" lon="11.4793683"><ele>652.0</ele><time>2026-04-18T12:08:49.28Z</time></trkpt><trkpt lat="44.1534017" lon="11.4795833"><ele>655.0</ele><time>2026-04-18T12:08:50.281Z</time></trkpt><trkpt lat="44.15349" lon="11.4798267"><ele>659.0</ele><time>2026-04-18T12:08:51.28Z</time></trkpt><trkpt lat="44.1535867" lon="11.480075"><ele>663.0</ele><time>2026-04-18T12:08:52.281Z</time></trkpt><trkpt lat="44.1536683" lon="11.480305"><ele>667.0</ele><time>2026-04-18T12:08:53.281Z</time></trkpt><trkpt lat="44.1537617" lon="11.480505"><ele>669.5</ele><time>2026-04-18T12:08:54.28Z</time></trkpt><trkpt lat="44.15381" lon="11.4807133"><ele>672.0</ele><time>2026-04-18T12:08:55.281Z</time></trkpt><trkpt lat="44.1538517" lon="11.4808983"><ele>674.5</ele><time>2026-04-18T12:08:56.282Z</time></trkpt><trkpt lat="44.1539" lon="11.4810567"><ele>677.0</ele><time>2026-04-18T12:08:57.281Z</time></trkpt><trkpt lat="44.1539633" lon="11.4811883"><ele>676.0</ele><time>2026-04-18T12:08:58.28Z</time></trkpt><trkpt lat="44.1540633" lon="11.4813133"><ele>675.0</ele><time>2026-04-18T12:08:59.281Z</time></trkpt><trkpt lat="44.1541417" lon="11.4814483"><ele>674.0</ele><time>2026-04-18T12:09:00.283Z</time></trkpt><trkpt lat="44.154185" lon="11.4816017"><ele>673.0</ele><time>2026-04-18T12:09:01.281Z</time></trkpt><trkpt lat="44.1541883" lon="11.4817517"><ele>673.0</ele><time>2026-04-18T12:09:02.281Z</time></trkpt><trkpt lat="44.1541417" lon="11.4818867"><ele>673.0</ele><time>2026-04-18T12:09:03.279Z</time></trkpt><trkpt lat="44.1540683" lon="11.4820067"><ele>673.0</ele><time>2026-04-18T12:09:04.281Z</time></trkpt><trkpt lat="44.1539583" lon="11.48213"><ele>673.0</ele><time>2026-04-18T12:09:05.28Z</time></trkpt><trkpt lat="44.1538117" lon="11.4822633"><ele>677.6666666666667</ele><time>2026-04-18T12:09:06.28Z</time></trkpt><trkpt lat="44.153655" lon="11.4823967"><ele>682.3333333333334</ele><time>2026-04-18T12:09:07.281Z</time></trkpt><trkpt lat="44.1535067" lon="11.4825167"><ele>687.0</ele><time>2026-04-18T12:09:08.28Z</time></trkpt><trkpt lat="44.1533367" lon="11.4826067"><ele>686.3333333333334</ele><time>2026-04-18T12:09:09.28Z</time></trkpt><trkpt lat="44.153155" lon="11.4826783"><ele>685.6666666666667</ele><time>2026-04-18T12:09:10.28Z</time></trkpt><trkpt lat="44.1529633" lon="11.482735"><ele>685.0</ele><time>2026-04-18T12:09:11.281Z</time></trkpt><trkpt lat="44.1527733" lon="11.4828"><ele>685.0</ele><time>2026-04-18T12:09:12.281Z</time></trkpt><trkpt lat="44.15258" lon="11.482865"><ele>685.0</ele><time>2026-04-18T12:09:13.281Z</time></trkpt><trkpt lat="44.1523833" lon="11.48292"><ele>685.0</ele><time>2026-04-18T12:09:14.281Z</time></trkpt><trkpt lat="44.1521783" lon="11.4829717"><ele>688.3333333333334</ele><time>2026-04-18T12:09:15.28Z</time></trkpt><trkpt lat="44.1519667" lon="11.4830383"><ele>691.6666666666666</ele><time>2026-04-18T12:09:16.28Z</time></trkpt><trkpt lat="44.15177" lon="11.4831133"><ele>695.0</ele><time>2026-04-18T12:09:17.28Z</time></trkpt><trkpt lat="44.151575" lon="11.4832033"><ele>695.0</ele><time>2026-04-18T12:09:18.28Z</time></trkpt><trkpt lat="44.151405" lon="11.4833133"><ele>695.0</ele><time>2026-04-18T12:09:19.279Z</time></trkpt><trkpt lat="44.1512633" lon="11.4834317"><ele>695.0</ele><time>2026-04-18T12:09:20.28Z</time></trkpt><trkpt lat="44.1511567" lon="11.483555"><ele>695.0</ele><time>2026-04-18T12:09:21.279Z</time></trkpt><trkpt lat="44.151105" lon="11.4836867"><ele>695.0</ele><time>2026-04-18T12:09:22.28Z</time></trkpt><trkpt lat="44.1511167" lon="11.4838167"><ele>695.0</ele><time>2026-04-18T12:09:23.28Z</time></trkpt><trkpt lat="44.1511933" lon="11.48392"><ele>695.0</ele><time>2026-04-18T12:09:24.281Z</time></trkpt><trkpt lat="44.1513067" lon="11.4839967"><ele>695.0</ele><time>2026-04-18T12:09:25.279Z</time></trkpt><trkpt lat="44.1514317" lon="11.4840267"><ele>697.5</ele><time>2026-04-18T12:09:26.282Z</time></trkpt><trkpt lat="44.1515517" lon="11.484065"><ele>700.0</ele><time>2026-04-18T12:09:27.28Z</time></trkpt><trkpt lat="44.15165" lon="11.4841433"><ele>702.5</ele><time>2026-04-18T12:09:28.28Z</time></trkpt><trkpt lat="44.151715" lon="11.4842617"><ele>705.0</ele><time>2026-04-18T12:09:29.281Z</time></trkpt><trkpt lat="44.1517283" lon="11.48441"><ele>705.0</ele><time>2026-04-18T12:09:30.279Z</time></trkpt><trkpt lat="44.151695" lon="11.4845567"><ele>705.0</ele><time>2026-04-18T12:09:31.28Z</time></trkpt><trkpt lat="44.1516283" lon="11.484665"><ele>705.0</ele><time>2026-04-18T12:09:32.28Z</time></trkpt><trkpt lat="44.1515483" lon="11.4847267"><ele>705.0</ele><time>2026-04-18T12:09:33.281Z</time></trkpt><trkpt lat="44.151385" lon="11.4846667"><ele>707.3333333333334</ele><time>2026-04-18T12:09:34.28Z</time></trkpt><trkpt lat="44.1512267" lon="11.4846017"><ele>709.6666666666667</ele><time>2026-04-18T12:09:35.28Z</time></trkpt><trkpt lat="44.1510517" lon="11.48451"><ele>712.0</ele><time>2026-04-18T12:09:36.281Z</time></trkpt><trkpt lat="44.1508817" lon="11.4844133"><ele>712.0</ele><time>2026-04-18T12:09:37.28Z</time></trkpt><trkpt lat="44.1507333" lon="11.4843367"><ele>712.0</ele><time>2026-04-18T12:09:38.281Z</time></trkpt><trkpt lat="44.150605" lon="11.4842783"><ele>712.0</ele><time>2026-04-18T12:09:39.283Z</time></trkpt><trkpt lat="44.1504867" lon="11.48427"><ele>712.0</ele><time>2026-04-18T12:09:40.281Z</time></trkpt><trkpt lat="44.15038" lon="11.4843283"><ele>713.5</ele><time>2026-04-18T12:09:41.284Z</time></trkpt><trkpt lat="44.150265" lon="11.4844517"><ele>715.0</ele><time>2026-04-18T12:09:42.281Z</time></trkpt><trkpt lat="44.1501567" lon="11.4845817"><ele>716.5</ele><time>2026-04-18T12:09:43.281Z</time></trkpt><trkpt lat="44.1500583" lon="11.4847117"><ele>718.0</ele><time>2026-04-18T12:09:44.281Z</time></trkpt><trkpt lat="44.1499883" lon="11.4848483"><ele>718.0</ele><time>2026-04-18T12:09:45.281Z</time></trkpt><trkpt lat="44.1499567" lon="11.4849883"><ele>718.0</ele><time>2026-04-18T12:09:46.281Z</time></trkpt><trkpt lat="44.14997" lon="11.4851117"><ele>718.0</ele><time>2026-04-18T12:09:47.28Z</time></trkpt><trkpt lat="44.15001" lon="11.485205"><ele>718.0</ele><time>2026-04-18T12:09:48.282Z</time></trkpt><trkpt lat="44.1500633" lon="11.48526"><ele>718.0</ele><time>2026-04-18T12:09:49.282Z</time></trkpt><trkpt lat="44.15014" lon="11.4852583"><ele>718.0</ele><time>2026-04-18T12:09:50.281Z</time></trkpt><trkpt lat="44.150235" lon="11.4852217"><ele>718.0</ele><time>2026-04-18T12:09:51.281Z</time></trkpt><trkpt lat="44.1503417" lon="11.4852067"><ele>718.0</ele><time>2026-04-18T12:09:52.281Z</time></trkpt><trkpt lat="44.1504717" lon="11.4852133"><ele>718.0</ele><time>2026-04-18T12:09:53.281Z</time></trkpt><trkpt lat="44.1506083" lon="11.48529"><ele>718.0</ele><time>2026-04-18T12:09:54.28Z</time></trkpt><trkpt lat="44.150745" lon="11.4854083"><ele>721.75</ele><time>2026-04-18T12:09:55.279Z</time></trkpt><trkpt lat="44.1508367" lon="11.4855883"><ele>725.5</ele><time>2026-04-18T12:09:56.28Z</time></trkpt><trkpt lat="44.15091" lon="11.4857633"><ele>729.25</ele><time>2026-04-18T12:09:57.28Z</time></trkpt><trkpt lat="44.1509367" lon="11.4859233"><ele>733.0</ele><time>2026-04-18T12:09:58.28Z</time></trkpt><trkpt lat="44.1509117" lon="11.4860667"><ele>733.0</ele><time>2026-04-18T12:09:59.28Z</time></trkpt><trkpt lat="44.150845" lon="11.48616"><ele>733.0</ele><time>2026-04-18T12:10:00.28Z</time></trkpt><trkpt lat="44.15077" lon="11.4862117"><ele>733.0</ele><time>2026-04-18T12:10:01.281Z</time></trkpt><trkpt lat="44.1506417" lon="11.48616"><ele>733.0</ele><time>2026-04-18T12:10:02.28Z</time></trkpt><trkpt lat="44.1505167" lon="11.48611"><ele>733.0</ele><time>2026-04-18T12:10:03.281Z</time></trkpt><trkpt lat="44.150375" lon="11.4860867"><ele>732.0</ele><time>2026-04-18T12:10:04.281Z</time></trkpt><trkpt lat="44.150245" lon="11.4861033"><ele>731.0</ele><time>2026-04-18T12:10:05.281Z</time></trkpt><trkpt lat="44.15014" lon="11.4861667"><ele>730.0</ele><time>2026-04-18T12:10:06.28Z</time></trkpt><trkpt lat="44.1500617" lon="11.4862783"><ele>729.0</ele><time>2026-04-18T12:10:07.281Z</time></trkpt><trkpt lat="44.1500117" lon="11.4864183"><ele>731.25</ele><time>2026-04-18T12:10:08.281Z</time></trkpt><trkpt lat="44.1499983" lon="11.4865867"><ele>733.5</ele><time>2026-04-18T12:10:09.279Z</time></trkpt><trkpt lat="44.1500383" lon="11.48676"><ele>735.75</ele><time>2026-04-18T12:10:10.28Z</time></trkpt><trkpt lat="44.15012" lon="11.4869017"><ele>738.0</ele><time>2026-04-18T12:10:11.281Z</time></trkpt><trkpt lat="44.150235" lon="11.4870183"><ele>741.6666666666666</ele><time>2026-04-18T12:10:12.281Z</time></trkpt><trkpt lat="44.1503517" lon="11.4871633"><ele>745.3333333333333</ele><time>2026-04-18T12:10:13.28Z</time></trkpt><trkpt lat="44.15045" lon="11.4873483"><ele>749.0</ele><time>2026-04-18T12:10:14.279Z</time></trkpt><trkpt lat="44.15051" lon="11.487545"><ele>749.0</ele><time>2026-04-18T12:10:15.279Z</time></trkpt><trkpt lat="44.1505167" lon="11.4877317"><ele>749.0</ele><time>2026-04-18T12:10:16.28Z</time></trkpt><trkpt lat="44.150475" lon="11.48789"><ele>749.0</ele><time>2026-04-18T12:10:17.28Z</time></trkpt><trkpt lat="44.1503917" lon="11.488005"><ele>749.0</ele><time>2026-04-18T12:10:18.281Z</time></trkpt><trkpt lat="44.1502667" lon="11.488095"><ele>749.3333333333333</ele><time>2026-04-18T12:10:19.281Z</time></trkpt><trkpt lat="44.1501083" lon="11.4881683"><ele>749.6666666666666</ele><time>2026-04-18T12:10:20.281Z</time></trkpt><trkpt lat="44.149925" lon="11.48824"><ele>750.0</ele><time>2026-04-18T12:10:21.28Z</time></trkpt><trkpt lat="44.1497417" lon="11.4883083"><ele>755.6666666666666</ele><time>2026-04-18T12:10:22.28Z</time></trkpt><trkpt lat="44.1495483" lon="11.48833"><ele>761.3333333333333</ele><time>2026-04-18T12:10:23.281Z</time></trkpt><trkpt lat="44.1493467" lon="11.488305"><ele>767.0</ele><time>2026-04-18T12:10:24.281Z</time></trkpt><trkpt lat="44.1491333" lon="11.4882517"><ele>773.0</ele><time>2026-04-18T12:10:25.28Z</time></trkpt><trkpt lat="44.1489317" lon="11.488195"><ele>779.0</ele><time>2026-04-18T12:10:26.281Z</time></trkpt><trkpt lat="44.1487567" lon="11.4881333"><ele>785.0</ele><time>2026-04-18T12:10:27.28Z</time></trkpt><trkpt lat="44.1486117" lon="11.4880433"><ele>781.0</ele><time>2026-04-18T12:10:28.28Z</time></trkpt><trkpt lat="44.1484933" lon="11.487915"><ele>777.0</ele><time>2026-04-18T12:10:29.28Z</time></trkpt><trkpt lat="44.1484083" lon="11.487755"><ele>773.0</ele><time>2026-04-18T12:10:30.28Z</time></trkpt><trkpt lat="44.148325" lon="11.48762"><ele>769.0</ele><time>2026-04-18T12:10:31.28Z</time></trkpt><trkpt lat="44.148235" lon="11.4875367"><ele>768.25</ele><time>2026-04-18T12:10:32.281Z</time></trkpt><trkpt lat="44.148135" lon="11.4875017"><ele>767.5</ele><time>2026-04-18T12:10:33.281Z</time></trkpt><trkpt lat="44.148035" lon="11.4875183"><ele>766.75</ele><time>2026-04-18T12:10:34.281Z</time></trkpt><trkpt lat="44.1479283" lon="11.487595"><ele>766.0</ele><time>2026-04-18T12:10:35.28Z</time></trkpt><trkpt lat="44.1477917" lon="11.487695"><ele>766.0</ele><time>2026-04-18T12:10:36.281Z</time></trkpt><trkpt lat="44.1476383" lon="11.487775"><ele>766.0</ele><time>2026-04-18T12:10:37.282Z</time></trkpt><trkpt lat="44.1474633" lon="11.4878133"><ele>766.0</ele><time>2026-04-18T12:10:38.28Z</time></trkpt><trkpt lat="44.1473083" lon="11.48784"><ele>767.4</ele><time>2026-04-18T12:10:39.28Z</time></trkpt><trkpt lat="44.147185" lon="11.487885"><ele>768.8</ele><time>2026-04-18T12:10:40.281Z</time></trkpt><trkpt lat="44.1470917" lon="11.48797"><ele>770.1999999999999</ele><time>2026-04-18T12:10:41.28Z</time></trkpt><trkpt lat="44.147045" lon="11.4880733"><ele>771.5999999999999</ele><time>2026-04-18T12:10:42.28Z</time></trkpt><trkpt lat="44.1470383" lon="11.4881717"><ele>773.0</ele><time>2026-04-18T12:10:43.28Z</time></trkpt><trkpt lat="44.147095" lon="11.4882517"><ele>773.0</ele><time>2026-04-18T12:10:44.281Z</time></trkpt><trkpt lat="44.1471517" lon="11.4883133"><ele>773.0</ele><time>2026-04-18T12:10:45.281Z</time></trkpt><trkpt lat="44.14726" lon="11.4882883"><ele>773.0</ele><time>2026-04-18T12:10:46.278Z</time></trkpt><trkpt lat="44.1473867" lon="11.48824"><ele>773.0</ele><time>2026-04-18T12:10:47.28Z</time></trkpt><trkpt lat="44.1475317" lon="11.4882133"><ele>777.0</ele><time>2026-04-18T12:10:48.281Z</time></trkpt><trkpt lat="44.1476817" lon="11.4882383"><ele>781.0</ele><time>2026-04-18T12:10:49.281Z</time></trkpt><trkpt lat="44.147835" lon="11.488295"><ele>785.0</ele><time>2026-04-18T12:10:50.282Z</time></trkpt><trkpt lat="44.14798" lon="11.4883633"><ele>785.0</ele><time>2026-04-18T12:10:51.28Z</time></trkpt><trkpt lat="44.1481067" lon="11.488435"><ele>785.0</ele><time>2026-04-18T12:10:52.282Z</time></trkpt><trkpt lat="44.14821" lon="11.4885283"><ele>785.0</ele><time>2026-04-18T12:10:53.282Z</time></trkpt><trkpt lat="44.1482767" lon="11.48865"><ele>785.0</ele><time>2026-04-18T12:10:54.28Z</time></trkpt><trkpt lat="44.1483033" lon="11.4887683"><ele>787.6</ele><time>2026-04-18T12:10:55.281Z</time></trkpt><trkpt lat="44.1482867" lon="11.4888783"><ele>790.2</ele><time>2026-04-18T12:10:56.281Z</time></trkpt><trkpt lat="44.148215" lon="11.4889433"><ele>792.8</ele><time>2026-04-18T12:10:57.279Z</time></trkpt><trkpt lat="44.1481067" lon="11.4889483"><ele>795.4</ele><time>2026-04-18T12:10:58.28Z</time></trkpt><trkpt lat="44.1479733" lon="11.4889067"><ele>798.0</ele><time>2026-04-18T12:10:59.281Z</time></trkpt><trkpt lat="44.1478283" lon="11.4888383"><ele>798.2</ele><time>2026-04-18T12:11:00.281Z</time></trkpt><trkpt lat="44.1476967" lon="11.4887917"><ele>798.4</ele><time>2026-04-18T12:11:01.281Z</time></trkpt><trkpt lat="44.1475867" lon="11.4887933"><ele>798.6</ele><time>2026-04-18T12:11:02.28Z</time></trkpt><trkpt lat="44.1474917" lon="11.4888483"><ele>798.8000000000001</ele><time>2026-04-18T12:11:03.281Z</time></trkpt><trkpt lat="44.1474217" lon="11.48894"><ele>799.0</ele><time>2026-04-18T12:11:04.281Z</time></trkpt><trkpt lat="44.1473883" lon="11.4890517"><ele>799.0</ele><time>2026-04-18T12:11:05.281Z</time></trkpt><trkpt lat="44.1474417" lon="11.4891733"><ele>799.0</ele><time>2026-04-18T12:11:06.28Z</time></trkpt><trkpt lat="44.1475233" lon="11.4892683"><ele>799.0</ele><time>2026-04-18T12:11:07.28Z</time></trkpt><trkpt lat="44.147675" lon="11.4893467"><ele>799.0</ele><time>2026-04-18T12:11:08.281Z</time></trkpt><trkpt lat="44.147835" lon="11.4894217"><ele>799.0</ele><time>2026-04-18T12:11:09.28Z</time></trkpt><trkpt lat="44.1480067" lon="11.489505"><ele>799.0</ele><time>2026-04-18T12:11:10.28Z</time></trkpt><trkpt lat="44.14817" lon="11.4896133"><ele>799.0</ele><time>2026-04-18T12:11:11.281Z</time></trkpt><trkpt lat="44.1483017" lon="11.4897483"><ele>801.5</ele><time>2026-04-18T12:11:12.281Z</time></trkpt><trkpt lat="44.1483983" lon="11.4899067"><ele>804.0</ele><time>2026-04-18T12:11:13.281Z</time></trkpt><trkpt lat="44.14845" lon="11.4900917"><ele>806.5</ele><time>2026-04-18T12:11:14.28Z</time></trkpt><trkpt lat="44.148455" lon="11.4902933"><ele>809.0</ele><time>2026-04-18T12:11:15.279Z</time></trkpt><trkpt lat="44.148425" lon="11.4905183"><ele>810.3333333333334</ele><time>2026-04-18T12:11:16.28Z</time></trkpt><trkpt lat="44.1483717" lon="11.4907683"><ele>811.6666666666667</ele><time>2026-04-18T12:11:17.28Z</time></trkpt><trkpt lat="44.1483133" lon="11.4910417"><ele>813.0</ele><time>2026-04-18T12:11:18.28Z</time></trkpt><trkpt lat="44.1482417" lon="11.4913067"><ele>822.0</ele><time>2026-04-18T12:11:19.282Z</time></trkpt><trkpt lat="44.1481633" lon="11.4915383"><ele>831.0</ele><time>2026-04-18T12:11:20.281Z</time></trkpt><trkpt lat="44.1480783" lon="11.491735"><ele>840.0</ele><time>2026-04-18T12:11:21.28Z</time></trkpt><trkpt lat="44.14801" lon="11.4919333"><ele>844.0</ele><time>2026-04-18T12:11:22.281Z</time></trkpt><trkpt lat="44.1479717" lon="11.492155"><ele>848.0</ele><time>2026-04-18T12:11:23.28Z</time></trkpt><trkpt lat="44.1479633" lon="11.49241"><ele>852.0</ele><time>2026-04-18T12:11:24.281Z</time></trkpt><trkpt lat="44.1479483" lon="11.49269"><ele>855.0</ele><time>2026-04-18T12:11:25.282Z</time></trkpt><trkpt lat="44.1479267" lon="11.4929767"><ele>858.0</ele><time>2026-04-18T12:11:26.281Z</time></trkpt><trkpt lat="44.147905" lon="11.4932517"><ele>861.0</ele><time>2026-04-18T12:11:27.28Z</time></trkpt><trkpt lat="44.1479083" lon="11.4935217"><ele>862.3333333333333</ele><time>2026-04-18T12:11:28.28Z</time></trkpt><trkpt lat="44.147925" lon="11.4937933"><ele>863.6666666666666</ele><time>2026-04-18T12:11:29.28Z</time></trkpt><trkpt lat="44.14798" lon="11.4940717"><ele>865.0</ele><time>2026-04-18T12:11:30.281Z</time></trkpt><trkpt lat="44.148035" lon="11.494355"><ele>866.0</ele><time>2026-04-18T12:11:31.28Z</time></trkpt><trkpt lat="44.1480667" lon="11.4946517"><ele>867.0</ele><time>2026-04-18T12:11:32.284Z</time></trkpt><trkpt lat="44.14809" lon="11.4949567"><ele>868.0</ele><time>2026-04-18T12:11:33.28Z</time></trkpt><trkpt lat="44.1481117" lon="11.495255"><ele>871.6666666666666</ele><time>2026-04-18T12:11:34.281Z</time></trkpt><trkpt lat="44.1481283" lon="11.4955317"><ele>875.3333333333333</ele><time>2026-04-18T12:11:35.281Z</time></trkpt><trkpt lat="44.148155" lon="11.49578"><ele>879.0</ele><time>2026-04-18T12:11:36.281Z</time></trkpt><trkpt lat="44.1482017" lon="11.4960117"><ele>871.3333333333333</ele><time>2026-04-18T12:11:37.281Z</time></trkpt><trkpt lat="44.148295" lon="11.4962267"><ele>863.6666666666666</ele><time>2026-04-18T12:11:38.281Z</time></trkpt><trkpt lat="44.1484017" lon="11.4964317"><ele>856.0</ele><time>2026-04-18T12:11:39.28Z</time></trkpt><trkpt lat="44.1485167" lon="11.4966283"><ele>856.0</ele><time>2026-04-18T12:11:40.282Z</time></trkpt><trkpt lat="44.14864" lon="11.4968367"><ele>856.0</ele><time>2026-04-18T12:11:41.28Z</time></trkpt><trkpt lat="44.1487683" lon="11.4970583"><ele>856.0</ele><time>2026-04-18T12:11:42.28Z</time></trkpt><trkpt lat="44.14888" lon="11.49729"><ele>852.3333333333333</ele><time>2026-04-18T12:11:43.281Z</time></trkpt><trkpt lat="44.1489783" lon="11.4975067"><ele>848.6666666666667</ele><time>2026-04-18T12:11:44.281Z</time></trkpt><trkpt lat="44.1490567" lon="11.49769"><ele>845.0</ele><time>2026-04-18T12:11:45.28Z</time></trkpt><trkpt lat="44.149095" lon="11.4978467"><ele>844.25</ele><time>2026-04-18T12:11:46.279Z</time></trkpt><trkpt lat="44.149095" lon="11.497985"><ele>843.5</ele><time>2026-04-18T12:11:47.28Z</time></trkpt><trkpt lat="44.1490283" lon="11.498105"><ele>842.75</ele><time>2026-04-18T12:11:48.281Z</time></trkpt><trkpt lat="44.1489133" lon="11.4981883"><ele>842.0</ele><time>2026-04-18T12:11:49.279Z</time></trkpt><trkpt lat="44.1487883" lon="11.4982683"><ele>850.0</ele><time>2026-04-18T12:11:50.281Z</time></trkpt><trkpt lat="44.1486617" lon="11.49838"><ele>858.0</ele><time>2026-04-18T12:11:51.279Z</time></trkpt><trkpt lat="44.148525" lon="11.4984867"><ele>866.0</ele><time>2026-04-18T12:11:52.279Z</time></trkpt><trkpt lat="44.1483783" lon="11.4985283"><ele>866.0</ele><time>2026-04-18T12:11:53.281Z</time></trkpt><trkpt lat="44.14822" lon="11.498515"><ele>866.0</ele><time>2026-04-18T12:11:54.28Z</time></trkpt><trkpt lat="44.1480717" lon="11.49846"><ele>866.0</ele><time>2026-04-18T12:11:55.279Z</time></trkpt><trkpt lat="44.1479283" lon="11.4984333"><ele>865.25</ele><time>2026-04-18T12:11:56.281Z</time></trkpt><trkpt lat="44.1477933" lon="11.4984067"><ele>864.5</ele><time>2026-04-18T12:11:57.28Z</time></trkpt><trkpt lat="44.1476667" lon="11.498295"><ele>863.75</ele><time>2026-04-18T12:11:58.279Z</time></trkpt><trkpt lat="44.1476033" lon="11.4981917"><ele>863.0</ele><time>2026-04-18T12:11:59.279Z</time></trkpt><trkpt lat="44.1475867" lon="11.4980533"><ele>864.6666666666667</ele><time>2026-04-18T12:12:00.279Z</time></trkpt><trkpt lat="44.1476033" lon="11.497855"><ele>866.3333333333333</ele><time>2026-04-18T12:12:01.28Z</time></trkpt><trkpt lat="44.1476267" lon="11.4976283"><ele>868.0</ele><time>2026-04-18T12:12:02.279Z</time></trkpt><trkpt lat="44.14764" lon="11.4974"><ele>868.0</ele><time>2026-04-18T12:12:03.279Z</time></trkpt><trkpt lat="44.1476233" lon="11.4971983"><ele>868.0</ele><time>2026-04-18T12:12:04.278Z</time></trkpt><trkpt lat="44.147555" lon="11.4970333"><ele>868.0</ele><time>2026-04-18T12:12:05.281Z</time></trkpt><trkpt lat="44.1474517" lon="11.4968933"><ele>868.0</ele><time>2026-04-18T12:12:06.279Z</time></trkpt><trkpt lat="44.14731" lon="11.4967933"><ele>871.0</ele><time>2026-04-18T12:12:07.281Z</time></trkpt><trkpt lat="44.1471583" lon="11.496735"><ele>874.0</ele><time>2026-04-18T12:12:08.28Z</time></trkpt><trkpt lat="44.1470167" lon="11.496685"><ele>877.0</ele><time>2026-04-18T12:12:09.28Z</time></trkpt><trkpt lat="44.146875" lon="11.4966017"><ele>877.0</ele><time>2026-04-18T12:12:10.279Z</time></trkpt><trkpt lat="44.1467283" lon="11.4965083"><ele>877.0</ele><time>2026-04-18T12:12:11.28Z</time></trkpt><trkpt lat="44.1465717" lon="11.4964517"><ele>877.0</ele><time>2026-04-18T12:12:12.28Z</time></trkpt><trkpt lat="44.1464267" lon="11.496445"><ele>880.0</ele><time>2026-04-18T12:12:13.279Z</time></trkpt><trkpt lat="44.1463017" lon="11.4964733"><ele>883.0</ele><time>2026-04-18T12:12:14.279Z</time></trkpt><trkpt lat="44.1461783" lon="11.4965633"><ele>886.0</ele><time>2026-04-18T12:12:15.281Z</time></trkpt><trkpt lat="44.1460333" lon="11.496655"><ele>889.0</ele><time>2026-04-18T12:12:16.28Z</time></trkpt><trkpt lat="44.145865" lon="11.496715"><ele>895.3333333333333</ele><time>2026-04-18T12:12:17.283Z</time></trkpt><trkpt lat="44.1456967" lon="11.4967733"><ele>901.6666666666667</ele><time>2026-04-18T12:12:18.28Z</time></trkpt><trkpt lat="44.1455383" lon="11.4968617"><ele>908.0</ele><time>2026-04-18T12:12:19.281Z</time></trkpt><trkpt lat="44.1453883" lon="11.4969917"><ele>900.6666666666667</ele><time>2026-04-18T12:12:20.281Z</time></trkpt><trkpt lat="44.14525" lon="11.497145"><ele>893.3333333333333</ele><time>2026-04-18T12:12:21.282Z</time></trkpt><trkpt lat="44.1451217" lon="11.4973283"><ele>886.0</ele><time>2026-04-18T12:12:22.28Z</time></trkpt><trkpt lat="44.1449917" lon="11.4975217"><ele>888.6666666666666</ele><time>2026-04-18T12:12:23.28Z</time></trkpt><trkpt lat="44.1448633" lon="11.497715"><ele>891.3333333333333</ele><time>2026-04-18T12:12:24.28Z</time></trkpt><trkpt lat="44.1447217" lon="11.4979017"><ele>894.0</ele><time>2026-04-18T12:12:25.28Z</time></trkpt><trkpt lat="44.1445683" lon="11.4980633"><ele>894.0</ele><time>2026-04-18T12:12:26.282Z</time></trkpt><trkpt lat="44.1444083" lon="11.498195"><ele>894.0</ele><time>2026-04-18T12:12:27.281Z</time></trkpt><trkpt lat="44.1442583" lon="11.4983033"><ele>894.0</ele><time>2026-04-18T12:12:28.28Z</time></trkpt><trkpt lat="44.1441367" lon="11.49841"><ele>895.75</ele><time>2026-04-18T12:12:29.279Z</time></trkpt><trkpt lat="44.1440417" lon="11.4985283"><ele>897.5</ele><time>2026-04-18T12:12:30.279Z</time></trkpt><trkpt lat="44.1439567" lon="11.4986633"><ele>899.25</ele><time>2026-04-18T12:12:31.28Z</time></trkpt><trkpt lat="44.1438933" lon="11.498835"><ele>901.0</ele><time>2026-04-18T12:12:32.281Z</time></trkpt><trkpt lat="44.1438433" lon="11.4990067"><ele>901.0</ele><time>2026-04-18T12:12:33.28Z</time></trkpt><trkpt lat="44.1438033" lon="11.4991683"><ele>900.9999999999999</ele><time>2026-04-18T12:12:34.281Z</time></trkpt><trkpt lat="44.1437867" lon="11.4993283"><ele>900.9999999999999</ele><time>2026-04-18T12:12:35.282Z</time></trkpt><trkpt lat="44.143775" lon="11.4994733"><ele>901.0</ele><time>2026-04-18T12:12:36.281Z</time></trkpt><trkpt lat="44.1437617" lon="11.4996083"><ele>901.0</ele><time>2026-04-18T12:12:37.282Z</time></trkpt><trkpt lat="44.1437467" lon="11.4997333"><ele>898.8333333333333</ele><time>2026-04-18T12:12:38.28Z</time></trkpt><trkpt lat="44.143745" lon="11.499845"><ele>896.6666666666666</ele><time>2026-04-18T12:12:39.281Z</time></trkpt><trkpt lat="44.14374" lon="11.4999533"><ele>894.5</ele><time>2026-04-18T12:12:40.281Z</time></trkpt><trkpt lat="44.1437367" lon="11.50006"><ele>892.3333333333333</ele><time>2026-04-18T12:12:41.281Z</time></trkpt><trkpt lat="44.1437467" lon="11.5001667"><ele>890.1666666666666</ele><time>2026-04-18T12:12:42.28Z</time></trkpt><trkpt lat="44.1437533" lon="11.5002767"><ele>888.0</ele><time>2026-04-18T12:12:43.282Z</time></trkpt><trkpt lat="44.1437517" lon="11.5003867"><ele>887.4285714285714</ele><time>2026-04-18T12:12:44.282Z</time></trkpt><trkpt lat="44.14373" lon="11.5004917"><ele>886.8571428571429</ele><time>2026-04-18T12:12:45.28Z</time></trkpt><trkpt lat="44.143685" lon="11.500575"><ele>886.2857142857143</ele><time>2026-04-18T12:12:46.28Z</time></trkpt><trkpt lat="44.14364" lon="11.5006417"><ele>885.7142857142858</ele><time>2026-04-18T12:12:47.28Z</time></trkpt><trkpt lat="44.14358" lon="11.5006933"><ele>885.1428571428571</ele><time>2026-04-18T12:12:48.282Z</time></trkpt><trkpt lat="44.1435217" lon="11.5007267"><ele>884.5714285714287</ele><time>2026-04-18T12:12:49.279Z</time></trkpt><trkpt lat="44.143455" lon="11.50075"><ele>884.0</ele><time>2026-04-18T12:12:50.28Z</time></trkpt><trkpt lat="44.14337" lon="11.5007333"><ele>884.0000000000001</ele><time>2026-04-18T12:12:51.28Z</time></trkpt><trkpt lat="44.1432933" lon="11.5007"><ele>884.0</ele><time>2026-04-18T12:12:52.281Z</time></trkpt><trkpt lat="44.14322" lon="11.5006383"><ele>884.0</ele><time>2026-04-18T12:12:53.279Z</time></trkpt><trkpt lat="44.1431633" lon="11.5005633"><ele>884.0</ele><time>2026-04-18T12:12:54.28Z</time></trkpt><trkpt lat="44.1431233" lon="11.50047"><ele>884.0000000000001</ele><time>2026-04-18T12:12:55.279Z</time></trkpt><trkpt lat="44.1431033" lon="11.5003583"><ele>884.0</ele><time>2026-04-18T12:12:56.28Z</time></trkpt><trkpt lat="44.1430967" lon="11.5002383"><ele>882.3333333333334</ele><time>2026-04-18T12:12:57.28Z</time></trkpt><trkpt lat="44.1430833" lon="11.5001233"><ele>880.6666666666667</ele><time>2026-04-18T12:12:58.278Z</time></trkpt><trkpt lat="44.1430633" lon="11.5000117"><ele>879.0</ele><time>2026-04-18T12:12:59.28Z</time></trkpt><trkpt lat="44.1430383" lon="11.49991"><ele>877.3333333333333</ele><time>2026-04-18T12:13:00.28Z</time></trkpt><trkpt lat="44.1430117" lon="11.4998133"><ele>875.6666666666666</ele><time>2026-04-18T12:13:01.281Z</time></trkpt><trkpt lat="44.1429833" lon="11.499725"><ele>874.0</ele><time>2026-04-18T12:13:02.28Z</time></trkpt><trkpt lat="44.1429183" lon="11.4995733"><ele>874.0</ele><time>2026-04-18T12:13:04.28Z</time></trkpt><trkpt lat="44.14288" lon="11.4994883"><ele>874.0</ele><time>2026-04-18T12:13:05.28Z</time></trkpt><trkpt lat="44.142835" lon="11.4994017"><ele>874.0</ele><time>2026-04-18T12:13:06.279Z</time></trkpt><trkpt lat="44.142785" lon="11.4993267"><ele>874.0</ele><time>2026-04-18T12:13:07.28Z</time></trkpt><trkpt lat="44.1427317" lon="11.499265"><ele>874.0</ele><time>2026-04-18T12:13:08.28Z</time></trkpt><trkpt lat="44.1426817" lon="11.49921"><ele>874.0</ele><time>2026-04-18T12:13:09.279Z</time></trkpt><trkpt lat="44.142595" lon="11.4992617"><ele>874.0</ele><time>2026-04-18T12:13:11.279Z</time></trkpt><trkpt lat="44.14264" lon="11.4993883"><ele>874.0</ele><time>2026-04-18T12:13:12.281Z</time></trkpt><trkpt lat="44.1427017" lon="11.4995083"><ele>874.0</ele><time>2026-04-18T12:13:13.281Z</time></trkpt><trkpt lat="44.1427717" lon="11.4996467"><ele>874.0</ele><time>2026-04-18T12:13:14.28Z</time></trkpt><trkpt lat="44.1428267" lon="11.4998183"><ele>874.0</ele><time>2026-04-18T12:13:15.278Z</time></trkpt><trkpt lat="44.1428383" lon="11.50001"><ele>869.25</ele><time>2026-04-18T12:13:16.28Z</time></trkpt><trkpt lat="44.1428283" lon="11.5002033"><ele>864.5</ele><time>2026-04-18T12:13:17.279Z</time></trkpt><trkpt lat="44.1427933" lon="11.5003783"><ele>859.75</ele><time>2026-04-18T12:13:18.281Z</time></trkpt><trkpt lat="44.1427833" lon="11.5005317"><ele>855.0</ele><time>2026-04-18T12:13:19.281Z</time></trkpt><trkpt lat="44.1427883" lon="11.5006867"><ele>854.4</ele><time>2026-04-18T12:13:20.28Z</time></trkpt><trkpt lat="44.142775" lon="11.5008417"><ele>853.8</ele><time>2026-04-18T12:13:21.28Z</time></trkpt><trkpt lat="44.1427383" lon="11.5009833"><ele>853.2</ele><time>2026-04-18T12:13:22.279Z</time></trkpt><trkpt lat="44.1426767" lon="11.501095"><ele>852.6</ele><time>2026-04-18T12:13:23.28Z</time></trkpt><trkpt lat="44.14258" lon="11.501185"><ele>852.0</ele><time>2026-04-18T12:13:24.28Z</time></trkpt><trkpt lat="44.1425033" lon="11.5012833"><ele>852.0</ele><time>2026-04-18T12:13:25.28Z</time></trkpt><trkpt lat="44.1424367" lon="11.5013983"><ele>852.0</ele><time>2026-04-18T12:13:26.281Z</time></trkpt><trkpt lat="44.1424083" lon="11.5015217"><ele>852.0</ele><time>2026-04-18T12:13:27.281Z</time></trkpt><trkpt lat="44.1424233" lon="11.5016583"><ele>852.0</ele><time>2026-04-18T12:13:28.28Z</time></trkpt><trkpt lat="44.1424667" lon="11.501815"><ele>852.0</ele><time>2026-04-18T12:13:29.281Z</time></trkpt><trkpt lat="44.14252" lon="11.5019917"><ele>851.0</ele><time>2026-04-18T12:13:30.28Z</time></trkpt><trkpt lat="44.14255" lon="11.5021583"><ele>850.0</ele><time>2026-04-18T12:13:31.281Z</time></trkpt><trkpt lat="44.1425283" lon="11.5023083"><ele>849.0</ele><time>2026-04-18T12:13:32.281Z</time></trkpt><trkpt lat="44.14247" lon="11.5024433"><ele>848.0</ele><time>2026-04-18T12:13:33.279Z</time></trkpt><trkpt lat="44.1423833" lon="11.5025533"><ele>842.5999999999999</ele><time>2026-04-18T12:13:34.28Z</time></trkpt><trkpt lat="44.1423067" lon="11.5026633"><ele>837.1999999999999</ele><time>2026-04-18T12:13:35.281Z</time></trkpt><trkpt lat="44.142265" lon="11.5027833"><ele>831.8</ele><time>2026-04-18T12:13:36.28Z</time></trkpt><trkpt lat="44.1422717" lon="11.5029067"><ele>826.4</ele><time>2026-04-18T12:13:37.28Z</time></trkpt><trkpt lat="44.14229" lon="11.5030133"><ele>821.0</ele><time>2026-04-18T12:13:38.28Z</time></trkpt><trkpt lat="44.1423433" lon="11.503125"><ele>825.0</ele><time>2026-04-18T12:13:39.279Z</time></trkpt><trkpt lat="44.14242" lon="11.5032717"><ele>829.0</ele><time>2026-04-18T12:13:40.28Z</time></trkpt><trkpt lat="44.1424967" lon="11.503445"><ele>833.0</ele><time>2026-04-18T12:13:41.279Z</time></trkpt><trkpt lat="44.1425367" lon="11.5036667"><ele>837.0</ele><time>2026-04-18T12:13:42.28Z</time></trkpt><trkpt lat="44.1425667" lon="11.5038617"><ele>837.0</ele><time>2026-04-18T12:13:43.28Z</time></trkpt><trkpt lat="44.142595" lon="11.504045"><ele>837.0</ele><time>2026-04-18T12:13:44.28Z</time></trkpt><trkpt lat="44.1426017" lon="11.5041967"><ele>837.0</ele><time>2026-04-18T12:13:45.28Z</time></trkpt><trkpt lat="44.14259" lon="11.5043167"><ele>837.0</ele><time>2026-04-18T12:13:46.28Z</time></trkpt><trkpt lat="44.1425467" lon="11.5044"><ele>837.0</ele><time>2026-04-18T12:13:47.281Z</time></trkpt><trkpt lat="44.1424683" lon="11.5044933"><ele>830.25</ele><time>2026-04-18T12:13:49.281Z</time></trkpt><trkpt lat="44.14232" lon="11.5044783"><ele>823.5</ele><time>2026-04-18T12:13:50.279Z</time></trkpt><trkpt lat="44.14218" lon="11.5045417"><ele>816.75</ele><time>2026-04-18T12:13:51.281Z</time></trkpt><trkpt lat="44.142055" lon="11.504635"><ele>810.0</ele><time>2026-04-18T12:13:52.281Z</time></trkpt><trkpt lat="44.1419933" lon="11.5047383"><ele>810.0</ele><time>2026-04-18T12:13:53.279Z</time></trkpt><trkpt lat="44.141985" lon="11.5048383"><ele>810.0</ele><time>2026-04-18T12:13:54.279Z</time></trkpt><trkpt lat="44.14204" lon="11.504915"><ele>810.0</ele><time>2026-04-18T12:13:55.28Z</time></trkpt><trkpt lat="44.1421083" lon="11.50501"><ele>810.0</ele><time>2026-04-18T12:13:56.28Z</time></trkpt><trkpt lat="44.1421333" lon="11.5051433"><ele>810.0</ele><time>2026-04-18T12:13:57.281Z</time></trkpt><trkpt lat="44.1421117" lon="11.5053017"><ele>810.0</ele><time>2026-04-18T12:13:58.28Z</time></trkpt><trkpt lat="44.1420733" lon="11.505465"><ele>810.0</ele><time>2026-04-18T12:13:59.28Z</time></trkpt><trkpt lat="44.1420283" lon="11.5056383"><ele>810.0</ele><time>2026-04-18T12:14:00.279Z</time></trkpt><trkpt lat="44.1420183" lon="11.5058067"><ele>810.0</ele><time>2026-04-18T12:14:01.281Z</time></trkpt><trkpt lat="44.1419917" lon="11.5059467"><ele>810.0</ele><time>2026-04-18T12:14:02.28Z</time></trkpt><trkpt lat="44.141935" lon="11.5060667"><ele>810.0</ele><time>2026-04-18T12:14:03.28Z</time></trkpt><trkpt lat="44.14186" lon="11.5061533"><ele>810.0</ele><time>2026-04-18T12:14:04.281Z</time></trkpt><trkpt lat="44.1417367" lon="11.506215"><ele>810.0</ele><time>2026-04-18T12:14:05.281Z</time></trkpt><trkpt lat="44.1416267" lon="11.5062883"><ele>804.75</ele><time>2026-04-18T12:14:06.28Z</time></trkpt><trkpt lat="44.14152" lon="11.5063833"><ele>799.5</ele><time>2026-04-18T12:14:07.281Z</time></trkpt><trkpt lat="44.141425" lon="11.5064983"><ele>794.25</ele><time>2026-04-18T12:14:08.28Z</time></trkpt><trkpt lat="44.1413483" lon="11.50663"><ele>789.0</ele><time>2026-04-18T12:14:09.28Z</time></trkpt><trkpt lat="44.1412933" lon="11.50678"><ele>789.0</ele><time>2026-04-18T12:14:10.28Z</time></trkpt><trkpt lat="44.141265" lon="11.506955"><ele>789.0</ele><time>2026-04-18T12:14:11.28Z</time></trkpt><trkpt lat="44.141245" lon="11.507145"><ele>789.0</ele><time>2026-04-18T12:14:12.281Z</time></trkpt><trkpt lat="44.1412533" lon="11.5073433"><ele>789.0</ele><time>2026-04-18T12:14:13.281Z</time></trkpt><trkpt lat="44.141285" lon="11.5075617"><ele>786.6666666666667</ele><time>2026-04-18T12:14:14.279Z</time></trkpt><trkpt lat="44.1413333" lon="11.5077833"><ele>784.3333333333334</ele><time>2026-04-18T12:14:15.283Z</time></trkpt><trkpt lat="44.1413917" lon="11.508005"><ele>782.0</ele><time>2026-04-18T12:14:16.28Z</time></trkpt><trkpt lat="44.14145" lon="11.5082083"><ele>781.0</ele><time>2026-04-18T12:14:17.28Z</time></trkpt><trkpt lat="44.1414967" lon="11.5083867"><ele>780.0</ele><time>2026-04-18T12:14:18.281Z</time></trkpt><trkpt lat="44.1415367" lon="11.5085333"><ele>779.0</ele><time>2026-04-18T12:14:19.28Z</time></trkpt><trkpt lat="44.141535" lon="11.5086717"><ele>778.0</ele><time>2026-04-18T12:14:20.28Z</time></trkpt><trkpt lat="44.14149" lon="11.508785"><ele>777.0</ele><time>2026-04-18T12:14:21.281Z</time></trkpt><trkpt lat="44.141405" lon="11.5088633"><ele>781.25</ele><time>2026-04-18T12:14:22.281Z</time></trkpt><trkpt lat="44.141295" lon="11.5089167"><ele>785.5</ele><time>2026-04-18T12:14:23.28Z</time></trkpt><trkpt lat="44.1411533" lon="11.508985"><ele>789.75</ele><time>2026-04-18T12:14:24.281Z</time></trkpt><trkpt lat="44.1410033" lon="11.5090917"><ele>794.0</ele><time>2026-04-18T12:14:25.281Z</time></trkpt><trkpt lat="44.1408383" lon="11.5092217"><ele>788.3333333333334</ele><time>2026-04-18T12:14:26.281Z</time></trkpt><trkpt lat="44.14068" lon="11.5093533"><ele>782.6666666666667</ele><time>2026-04-18T12:14:27.282Z</time></trkpt><trkpt lat="44.1405383" lon="11.5094667"><ele>777.0</ele><time>2026-04-18T12:14:28.28Z</time></trkpt><trkpt lat="44.1404183" lon="11.50955"><ele>777.0</ele><time>2026-04-18T12:14:29.28Z</time></trkpt><trkpt lat="44.14032" lon="11.509585"><ele>777.0</ele><time>2026-04-18T12:14:30.28Z</time></trkpt><trkpt lat="44.140235" lon="11.5095683"><ele>777.0</ele><time>2026-04-18T12:14:31.281Z</time></trkpt><trkpt lat="44.1401683" lon="11.5095183"><ele>777.0</ele><time>2026-04-18T12:14:32.282Z</time></trkpt><trkpt lat="44.1401667" lon="11.50941"><ele>777.0</ele><time>2026-04-18T12:14:33.28Z</time></trkpt><trkpt lat="44.14022" lon="11.509315"><ele>777.0</ele><time>2026-04-18T12:14:34.279Z</time></trkpt><trkpt lat="44.1402817" lon="11.5092517"><ele>777.0</ele><time>2026-04-18T12:14:35.283Z</time></trkpt><trkpt lat="44.1403983" lon="11.5092167"><ele>777.0</ele><time>2026-04-18T12:14:36.281Z</time></trkpt><trkpt lat="44.1405" lon="11.5091733"><ele>777.0</ele><time>2026-04-18T12:14:37.281Z</time></trkpt><trkpt lat="44.14059" lon="11.5091033"><ele>777.0</ele><time>2026-04-18T12:14:38.28Z</time></trkpt><trkpt lat="44.1406517" lon="11.5090067"><ele>777.0</ele><time>2026-04-18T12:14:39.28Z</time></trkpt><trkpt lat="44.1406883" lon="11.5089117"><ele>777.0</ele><time>2026-04-18T12:14:40.28Z</time></trkpt><trkpt lat="44.1406" lon="11.50881"><ele>777.0</ele><time>2026-04-18T12:14:41.281Z</time></trkpt><trkpt lat="44.140525" lon="11.50875"><ele>777.0</ele><time>2026-04-18T12:14:42.281Z</time></trkpt><trkpt lat="44.1403983" lon="11.5087867"><ele>777.0</ele><time>2026-04-18T12:14:43.281Z</time></trkpt><trkpt lat="44.1402733" lon="11.508845"><ele>777.0</ele><time>2026-04-18T12:14:44.281Z</time></trkpt><trkpt lat="44.1401367" lon="11.508955"><ele>777.0</ele><time>2026-04-18T12:14:45.28Z</time></trkpt><trkpt lat="44.1400167" lon="11.5090917"><ele>777.0</ele><time>2026-04-18T12:14:46.28Z</time></trkpt><trkpt lat="44.1398833" lon="11.5092067"><ele>771.0</ele><time>2026-04-18T12:14:47.281Z</time></trkpt><trkpt lat="44.139735" lon="11.5092683"><ele>765.0</ele><time>2026-04-18T12:14:48.281Z</time></trkpt><trkpt lat="44.1395917" lon="11.5093017"><ele>759.0</ele><time>2026-04-18T12:14:49.281Z</time></trkpt><trkpt lat="44.1394717" lon="11.5093483"><ele>753.0</ele><time>2026-04-18T12:14:50.28Z</time></trkpt><trkpt lat="44.1393517" lon="11.5094383"><ele>753.0</ele><time>2026-04-18T12:14:51.281Z</time></trkpt><trkpt lat="44.1392583" lon="11.5095733"><ele>753.0</ele><time>2026-04-18T12:14:52.281Z</time></trkpt><trkpt lat="44.13917" lon="11.50975"><ele>753.0</ele><time>2026-04-18T12:14:53.281Z</time></trkpt><trkpt lat="44.1390867" lon="11.5099417"><ele>746.25</ele><time>2026-04-18T12:14:54.281Z</time></trkpt><trkpt lat="44.1390033" lon="11.5101167"><ele>739.5</ele><time>2026-04-18T12:14:55.281Z</time></trkpt><trkpt lat="44.1389317" lon="11.5102767"><ele>732.75</ele><time>2026-04-18T12:14:56.282Z</time></trkpt><trkpt lat="44.13888" lon="11.5104267"><ele>726.0</ele><time>2026-04-18T12:14:57.28Z</time></trkpt><trkpt lat="44.1388533" lon="11.510575"><ele>725.25</ele><time>2026-04-18T12:14:58.281Z</time></trkpt><trkpt lat="44.1388533" lon="11.5107367"><ele>724.5</ele><time>2026-04-18T12:14:59.28Z</time></trkpt><trkpt lat="44.13888" lon="11.51093"><ele>723.75</ele><time>2026-04-18T12:15:00.28Z</time></trkpt><trkpt lat="44.1389083" lon="11.5111133"><ele>723.0</ele><time>2026-04-18T12:15:01.28Z</time></trkpt><trkpt lat="44.1389517" lon="11.5112683"><ele>721.5</ele><time>2026-04-18T12:15:02.28Z</time></trkpt><trkpt lat="44.1390033" lon="11.5113967"><ele>720.0</ele><time>2026-04-18T12:15:03.282Z</time></trkpt><trkpt lat="44.1390833" lon="11.5114967"><ele>718.5</ele><time>2026-04-18T12:15:04.281Z</time></trkpt><trkpt lat="44.1391867" lon="11.5115767"><ele>717.0</ele><time>2026-04-18T12:15:05.28Z</time></trkpt><trkpt lat="44.1393317" lon="11.5116117"><ele>725.6666666666666</ele><time>2026-04-18T12:15:06.28Z</time></trkpt><trkpt lat="44.1394917" lon="11.5116083"><ele>734.3333333333333</ele><time>2026-04-18T12:15:07.28Z</time></trkpt><trkpt lat="44.1396533" lon="11.5116133"><ele>743.0</ele><time>2026-04-18T12:15:08.282Z</time></trkpt><trkpt lat="44.13978" lon="11.51165"><ele>747.0</ele><time>2026-04-18T12:15:09.281Z</time></trkpt><trkpt lat="44.1398867" lon="11.5116867"><ele>751.0</ele><time>2026-04-18T12:15:10.281Z</time></trkpt><trkpt lat="44.13997" lon="11.51173"><ele>755.0</ele><time>2026-04-18T12:15:11.28Z</time></trkpt><trkpt lat="44.1400433" lon="11.511795"><ele>759.0</ele><time>2026-04-18T12:15:12.281Z</time></trkpt><trkpt lat="44.140085" lon="11.5118667"><ele>763.0</ele><time>2026-04-18T12:15:13.281Z</time></trkpt><trkpt lat="44.1400483" lon="11.512005"><ele>763.0</ele><time>2026-04-18T12:15:15.279Z</time></trkpt><trkpt lat="44.1399883" lon="11.5120717"><ele>763.0</ele><time>2026-04-18T12:15:16.281Z</time></trkpt><trkpt lat="44.139795" lon="11.512115"><ele>763.0</ele><time>2026-04-18T12:15:17.28Z</time></trkpt><trkpt lat="44.1396517" lon="11.5122333"><ele>763.0</ele><time>2026-04-18T12:15:18.28Z</time></trkpt><trkpt lat="44.1395383" lon="11.5123667"><ele>755.0</ele><time>2026-04-18T12:15:19.28Z</time></trkpt><trkpt lat="44.1394067" lon="11.5124867"><ele>747.0</ele><time>2026-04-18T12:15:20.281Z</time></trkpt><trkpt lat="44.139295" lon="11.5126017"><ele>739.0</ele><time>2026-04-18T12:15:21.28Z</time></trkpt><trkpt lat="44.1391983" lon="11.51271"><ele>731.0</ele><time>2026-04-18T12:15:22.28Z</time></trkpt><trkpt lat="44.1391067" lon="11.5128267"><ele>732.5</ele><time>2026-04-18T12:15:23.28Z</time></trkpt><trkpt lat="44.13904" lon="11.51298"><ele>734.0</ele><time>2026-04-18T12:15:24.28Z</time></trkpt><trkpt lat="44.1390217" lon="11.5131817"><ele>735.5</ele><time>2026-04-18T12:15:25.282Z</time></trkpt><trkpt lat="44.1390417" lon="11.5134117"><ele>737.0</ele><time>2026-04-18T12:15:26.28Z</time></trkpt><trkpt lat="44.13907" lon="11.5136367"><ele>735.0</ele><time>2026-04-18T12:15:27.281Z</time></trkpt><trkpt lat="44.139115" lon="11.5138583"><ele>733.0</ele><time>2026-04-18T12:15:28.281Z</time></trkpt><trkpt lat="44.1391467" lon="11.5140783"><ele>731.0</ele><time>2026-04-18T12:15:29.28Z</time></trkpt><trkpt lat="44.1391317" lon="11.5142583"><ele>731.0</ele><time>2026-04-18T12:15:30.281Z</time></trkpt><trkpt lat="44.1390933" lon="11.5144067"><ele>731.0</ele><time>2026-04-18T12:15:31.28Z</time></trkpt><trkpt lat="44.13903" lon="11.51452"><ele>731.0</ele><time>2026-04-18T12:15:32.281Z</time></trkpt><trkpt lat="44.13896" lon="11.5146"><ele>731.0</ele><time>2026-04-18T12:15:33.28Z</time></trkpt><trkpt lat="44.1388517" lon="11.5146067"><ele>731.0</ele><time>2026-04-18T12:15:34.281Z</time></trkpt><trkpt lat="44.13872" lon="11.51454"><ele>733.0</ele><time>2026-04-18T12:15:35.281Z</time></trkpt><trkpt lat="44.1385867" lon="11.5144067"><ele>735.0</ele><time>2026-04-18T12:15:36.28Z</time></trkpt><trkpt lat="44.1384833" lon="11.5142433"><ele>737.0</ele><time>2026-04-18T12:15:37.279Z</time></trkpt><trkpt lat="44.1384233" lon="11.51403"><ele>737.0</ele><time>2026-04-18T12:15:38.28Z</time></trkpt><trkpt lat="44.1383783" lon="11.5138167"><ele>737.0</ele><time>2026-04-18T12:15:39.28Z</time></trkpt><trkpt lat="44.1383417" lon="11.513625"><ele>737.0</ele><time>2026-04-18T12:15:40.279Z</time></trkpt><trkpt lat="44.1383033" lon="11.5134683"><ele>737.0</ele><time>2026-04-18T12:15:41.281Z</time></trkpt><trkpt lat="44.13824" lon="11.51335"><ele>737.4000000000001</ele><time>2026-04-18T12:15:42.281Z</time></trkpt><trkpt lat="44.1381633" lon="11.513285"><ele>737.8000000000001</ele><time>2026-04-18T12:15:43.281Z</time></trkpt><trkpt lat="44.138085" lon="11.5132417"><ele>738.2</ele><time>2026-04-18T12:15:44.281Z</time></trkpt><trkpt lat="44.1379967" lon="11.51321"><ele>738.6</ele><time>2026-04-18T12:15:45.281Z</time></trkpt><trkpt lat="44.1378867" lon="11.5131833"><ele>739.0</ele><time>2026-04-18T12:15:46.28Z</time></trkpt><trkpt lat="44.13776" lon="11.51312"><ele>739.0</ele><time>2026-04-18T12:15:47.281Z</time></trkpt><trkpt lat="44.1376467" lon="11.5130083"><ele>739.0</ele><time>2026-04-18T12:15:48.282Z</time></trkpt><trkpt lat="44.13755" lon="11.5128483"><ele>739.0</ele><time>2026-04-18T12:15:49.281Z</time></trkpt><trkpt lat="44.1374667" lon="11.512655"><ele>741.0</ele><time>2026-04-18T12:15:50.281Z</time></trkpt><trkpt lat="44.13737" lon="11.5124267"><ele>743.0</ele><time>2026-04-18T12:15:51.279Z</time></trkpt><trkpt lat="44.137285" lon="11.512185"><ele>745.0</ele><time>2026-04-18T12:15:52.281Z</time></trkpt><trkpt lat="44.1371883" lon="11.5119617"><ele>738.3333333333334</ele><time>2026-04-18T12:15:53.28Z</time></trkpt><trkpt lat="44.1370967" lon="11.5117483"><ele>731.6666666666666</ele><time>2026-04-18T12:15:54.281Z</time></trkpt><trkpt lat="44.1370017" lon="11.51155"><ele>725.0</ele><time>2026-04-18T12:15:55.28Z</time></trkpt><trkpt lat="44.1369" lon="11.511365"><ele>723.3333333333333</ele><time>2026-04-18T12:15:56.28Z</time></trkpt><trkpt lat="44.13679" lon="11.5111917"><ele>721.6666666666666</ele><time>2026-04-18T12:15:57.282Z</time></trkpt><trkpt lat="44.1366533" lon="11.511025"><ele>720.0</ele><time>2026-04-18T12:15:58.281Z</time></trkpt><trkpt lat="44.1365067" lon="11.5108567"><ele>720.0</ele><time>2026-04-18T12:15:59.281Z</time></trkpt><trkpt lat="44.13637" lon="11.5106783"><ele>720.0</ele><time>2026-04-18T12:16:00.28Z</time></trkpt><trkpt lat="44.1362417" lon="11.510515"><ele>720.0</ele><time>2026-04-18T12:16:01.28Z</time></trkpt><trkpt lat="44.136135" lon="11.5103583"><ele>714.5</ele><time>2026-04-18T12:16:02.281Z</time></trkpt><trkpt lat="44.1360583" lon="11.5101967"><ele>709.0</ele><time>2026-04-18T12:16:03.28Z</time></trkpt><trkpt lat="44.1359983" lon="11.5100483"><ele>703.5</ele><time>2026-04-18T12:16:04.281Z</time></trkpt><trkpt lat="44.1359267" lon="11.5099333"><ele>698.0</ele><time>2026-04-18T12:16:05.28Z</time></trkpt><trkpt lat="44.1358267" lon="11.5098433"><ele>695.25</ele><time>2026-04-18T12:16:06.281Z</time></trkpt><trkpt lat="44.13571" lon="11.5097633"><ele>692.5</ele><time>2026-04-18T12:16:07.28Z</time></trkpt><trkpt lat="44.1355967" lon="11.5096967"><ele>689.75</ele><time>2026-04-18T12:16:08.281Z</time></trkpt><trkpt lat="44.1354867" lon="11.5096617"><ele>687.0</ele><time>2026-04-18T12:16:09.281Z</time></trkpt><trkpt lat="44.1353717" lon="11.50968"><ele>687.0</ele><time>2026-04-18T12:16:10.281Z</time></trkpt><trkpt lat="44.13525" lon="11.5097467"><ele>687.0</ele><time>2026-04-18T12:16:11.282Z</time></trkpt><trkpt lat="44.1351183" lon="11.50985"><ele>687.0</ele><time>2026-04-18T12:16:12.281Z</time></trkpt><trkpt lat="44.1349783" lon="11.5099483"><ele>687.0</ele><time>2026-04-18T12:16:13.28Z</time></trkpt><trkpt lat="44.1348417" lon="11.5100217"><ele>687.0</ele><time>2026-04-18T12:16:14.28Z</time></trkpt><trkpt lat="44.1347217" lon="11.5101133"><ele>687.0</ele><time>2026-04-18T12:16:15.28Z</time></trkpt><trkpt lat="44.1346117" lon="11.5102533"><ele>687.0</ele><time>2026-04-18T12:16:16.281Z</time></trkpt><trkpt lat="44.1345183" lon="11.5104267"><ele>687.0</ele><time>2026-04-18T12:16:17.28Z</time></trkpt><trkpt lat="44.1344217" lon="11.5106"><ele>687.0</ele><time>2026-04-18T12:16:18.28Z</time></trkpt><trkpt lat="44.13432" lon="11.510755"><ele>687.0</ele><time>2026-04-18T12:16:19.28Z</time></trkpt><trkpt lat="44.1342167" lon="11.5108933"><ele>687.0</ele><time>2026-04-18T12:16:20.28Z</time></trkpt><trkpt lat="44.1341133" lon="11.5110033"><ele>687.0</ele><time>2026-04-18T12:16:21.28Z</time></trkpt><trkpt lat="44.1340083" lon="11.5110833"><ele>688.0</ele><time>2026-04-18T12:16:22.28Z</time></trkpt><trkpt lat="44.133905" lon="11.5111017"><ele>689.0</ele><time>2026-04-18T12:16:23.281Z</time></trkpt><trkpt lat="44.1338" lon="11.51106"><ele>690.0</ele><time>2026-04-18T12:16:24.28Z</time></trkpt><trkpt lat="44.13369" lon="11.5109683"><ele>691.0</ele><time>2026-04-18T12:16:25.281Z</time></trkpt><trkpt lat="44.133575" lon="11.5108583"><ele>691.0</ele><time>2026-04-18T12:16:26.281Z</time></trkpt><trkpt lat="44.1334617" lon="11.5107583"><ele>691.0</ele><time>2026-04-18T12:16:27.281Z</time></trkpt><trkpt lat="44.13333" lon="11.5106933"><ele>691.0</ele><time>2026-04-18T12:16:28.28Z</time></trkpt><trkpt lat="44.133205" lon="11.5106317"><ele>691.0</ele><time>2026-04-18T12:16:29.281Z</time></trkpt><trkpt lat="44.1330933" lon="11.5105433"><ele>694.5</ele><time>2026-04-18T12:16:30.28Z</time></trkpt><trkpt lat="44.1329933" lon="11.5104283"><ele>698.0</ele><time>2026-04-18T12:16:31.279Z</time></trkpt><trkpt lat="44.1329183" lon="11.5102867"><ele>701.5</ele><time>2026-04-18T12:16:32.28Z</time></trkpt><trkpt lat="44.13284" lon="11.5101467"><ele>705.0</ele><time>2026-04-18T12:16:33.28Z</time></trkpt><trkpt lat="44.1327367" lon="11.5100333"><ele>697.25</ele><time>2026-04-18T12:16:34.281Z</time></trkpt><trkpt lat="44.1326233" lon="11.5099233"><ele>689.5</ele><time>2026-04-18T12:16:35.281Z</time></trkpt><trkpt lat="44.1325183" lon="11.50981"><ele>681.75</ele><time>2026-04-18T12:16:36.28Z</time></trkpt><trkpt lat="44.1324217" lon="11.5097017"><ele>674.0</ele><time>2026-04-18T12:16:37.28Z</time></trkpt><trkpt lat="44.1323033" lon="11.509645"><ele>670.25</ele><time>2026-04-18T12:16:38.281Z</time></trkpt><trkpt lat="44.132175" lon="11.509625"><ele>666.5</ele><time>2026-04-18T12:16:39.281Z</time></trkpt><trkpt lat="44.132055" lon="11.50963"><ele>662.75</ele><time>2026-04-18T12:16:40.28Z</time></trkpt><trkpt lat="44.1319567" lon="11.5096833"><ele>659.0</ele><time>2026-04-18T12:16:41.282Z</time></trkpt><trkpt lat="44.1318683" lon="11.509805"><ele>659.0</ele><time>2026-04-18T12:16:42.28Z</time></trkpt><trkpt lat="44.1317717" lon="11.509955"><ele>659.0</ele><time>2026-04-18T12:16:43.281Z</time></trkpt><trkpt lat="44.13167" lon="11.510095"><ele>659.0</ele><time>2026-04-18T12:16:44.281Z</time></trkpt><trkpt lat="44.1315517" lon="11.5101967"><ele>659.0</ele><time>2026-04-18T12:16:45.281Z</time></trkpt><trkpt lat="44.1314183" lon="11.5102533"><ele>657.25</ele><time>2026-04-18T12:16:46.281Z</time></trkpt><trkpt lat="44.13129" lon="11.510275"><ele>655.5</ele><time>2026-04-18T12:16:47.281Z</time></trkpt><trkpt lat="44.1311667" lon="11.5102883"><ele>653.75</ele><time>2026-04-18T12:16:48.281Z</time></trkpt><trkpt lat="44.1310633" lon="11.5103383"><ele>652.0</ele><time>2026-04-18T12:16:49.281Z</time></trkpt><trkpt lat="44.1309667" lon="11.510455"><ele>652.0</ele><time>2026-04-18T12:16:50.28Z</time></trkpt><trkpt lat="44.13087" lon="11.51061"><ele>652.0</ele><time>2026-04-18T12:16:51.279Z</time></trkpt><trkpt lat="44.1307667" lon="11.5107917"><ele>652.0</ele><time>2026-04-18T12:16:52.281Z</time></trkpt><trkpt lat="44.1306633" lon="11.5109833"><ele>645.6666666666667</ele><time>2026-04-18T12:16:53.28Z</time></trkpt><trkpt lat="44.1305683" lon="11.511185"><ele>639.3333333333334</ele><time>2026-04-18T12:16:54.281Z</time></trkpt><trkpt lat="44.13048" lon="11.5113933"><ele>633.0</ele><time>2026-04-18T12:16:55.281Z</time></trkpt><trkpt lat="44.1303817" lon="11.5115933"><ele>633.0</ele><time>2026-04-18T12:16:56.282Z</time></trkpt><trkpt lat="44.1302617" lon="11.5117767"><ele>633.0</ele><time>2026-04-18T12:16:57.28Z</time></trkpt><trkpt lat="44.13012" lon="11.5119467"><ele>633.0</ele><time>2026-04-18T12:16:58.281Z</time></trkpt><trkpt lat="44.129975" lon="11.5121083"><ele>630.0</ele><time>2026-04-18T12:16:59.28Z</time></trkpt><trkpt lat="44.12983" lon="11.5122567"><ele>627.0</ele><time>2026-04-18T12:17:00.281Z</time></trkpt><trkpt lat="44.1296783" lon="11.5123683"><ele>624.0</ele><time>2026-04-18T12:17:01.28Z</time></trkpt><trkpt lat="44.1295317" lon="11.5124417"><ele>624.0</ele><time>2026-04-18T12:17:02.28Z</time></trkpt><trkpt lat="44.1293867" lon="11.5124933"><ele>624.0</ele><time>2026-04-18T12:17:03.281Z</time></trkpt><trkpt lat="44.12925" lon="11.5125533"><ele>624.0</ele><time>2026-04-18T12:17:04.279Z</time></trkpt><trkpt lat="44.1291183" lon="11.5126317"><ele>624.0</ele><time>2026-04-18T12:17:05.28Z</time></trkpt><trkpt lat="44.12897" lon="11.5127367"><ele>618.5</ele><time>2026-04-18T12:17:06.281Z</time></trkpt><trkpt lat="44.12888" lon="11.5128667"><ele>613.0</ele><time>2026-04-18T12:17:07.281Z</time></trkpt><trkpt lat="44.1287933" lon="11.5130117"><ele>607.5</ele><time>2026-04-18T12:17:08.28Z</time></trkpt><trkpt lat="44.1287317" lon="11.5131417"><ele>602.0</ele><time>2026-04-18T12:17:09.282Z</time></trkpt><trkpt lat="44.1287033" lon="11.51326"><ele>602.0</ele><time>2026-04-18T12:17:10.281Z</time></trkpt><trkpt lat="44.1286967" lon="11.513375"><ele>602.0</ele><time>2026-04-18T12:17:11.28Z</time></trkpt><trkpt lat="44.1287117" lon="11.5134833"><ele>602.0</ele><time>2026-04-18T12:17:12.279Z</time></trkpt><trkpt lat="44.1287533" lon="11.5135933"><ele>602.0</ele><time>2026-04-18T12:17:13.279Z</time></trkpt><trkpt lat="44.128785" lon="11.51371"><ele>602.0</ele><time>2026-04-18T12:17:14.282Z</time></trkpt><trkpt lat="44.1288" lon="11.5138267"><ele>602.0</ele><time>2026-04-18T12:17:15.281Z</time></trkpt><trkpt lat="44.1287983" lon="11.5139283"><ele>601.5</ele><time>2026-04-18T12:17:16.279Z</time></trkpt><trkpt lat="44.1287817" lon="11.51403"><ele>601.0</ele><time>2026-04-18T12:17:17.281Z</time></trkpt><trkpt lat="44.1287833" lon="11.5141333"><ele>600.5</ele><time>2026-04-18T12:17:18.28Z</time></trkpt><trkpt lat="44.128835" lon="11.5142183"><ele>600.0</ele><time>2026-04-18T12:17:19.28Z</time></trkpt><trkpt lat="44.1288967" lon="11.5142967"><ele>599.5</ele><time>2026-04-18T12:17:20.282Z</time></trkpt><trkpt lat="44.12898" lon="11.5143567"><ele>599.0</ele><time>2026-04-18T12:17:21.28Z</time></trkpt><trkpt lat="44.1290933" lon="11.5143883"><ele>601.0</ele><time>2026-04-18T12:17:22.28Z</time></trkpt><trkpt lat="44.1292083" lon="11.51442"><ele>603.0</ele><time>2026-04-18T12:17:23.28Z</time></trkpt><trkpt lat="44.1293133" lon="11.5144467"><ele>605.0</ele><time>2026-04-18T12:17:24.281Z</time></trkpt><trkpt lat="44.129405" lon="11.514505"><ele>607.0</ele><time>2026-04-18T12:17:25.281Z</time></trkpt><trkpt lat="44.129465" lon="11.5146067"><ele>609.0</ele><time>2026-04-18T12:17:26.281Z</time></trkpt><trkpt lat="44.1295117" lon="11.514725"><ele>609.0</ele><time>2026-04-18T12:17:27.281Z</time></trkpt><trkpt lat="44.1295133" lon="11.5148683"><ele>609.0</ele><time>2026-04-18T12:17:28.28Z</time></trkpt><trkpt lat="44.1294967" lon="11.515015"><ele>609.0</ele><time>2026-04-18T12:17:29.28Z</time></trkpt><trkpt lat="44.12944" lon="11.5151717"><ele>609.0</ele><time>2026-04-18T12:17:30.28Z</time></trkpt><trkpt lat="44.1293633" lon="11.5153217"><ele>608.5</ele><time>2026-04-18T12:17:31.281Z</time></trkpt><trkpt lat="44.1292867" lon="11.51547"><ele>608.0</ele><time>2026-04-18T12:17:32.281Z</time></trkpt><trkpt lat="44.12923" lon="11.5156133"><ele>607.5</ele><time>2026-04-18T12:17:33.28Z</time></trkpt><trkpt lat="44.1291883" lon="11.5157717"><ele>607.0</ele><time>2026-04-18T12:17:34.279Z</time></trkpt><trkpt lat="44.1291683" lon="11.5159483"><ele>607.0</ele><time>2026-04-18T12:17:35.281Z</time></trkpt><trkpt lat="44.129165" lon="11.51614"><ele>607.0</ele><time>2026-04-18T12:17:36.281Z</time></trkpt><trkpt lat="44.12916" lon="11.5163383"><ele>607.0</ele><time>2026-04-18T12:17:37.279Z</time></trkpt><trkpt lat="44.1291383" lon="11.516535"><ele>607.0</ele><time>2026-04-18T12:17:38.281Z</time></trkpt><trkpt lat="44.1290983" lon="11.5167217"><ele>598.75</ele><time>2026-04-18T12:17:39.28Z</time></trkpt><trkpt lat="44.1290283" lon="11.51689"><ele>590.5</ele><time>2026-04-18T12:17:40.279Z</time></trkpt><trkpt lat="44.128935" lon="11.517035"><ele>582.25</ele><time>2026-04-18T12:17:41.28Z</time></trkpt><trkpt lat="44.1288483" lon="11.5171533"><ele>574.0</ele><time>2026-04-18T12:17:42.281Z</time></trkpt><trkpt lat="44.1287717" lon="11.5172483"><ele>574.0</ele><time>2026-04-18T12:17:43.279Z</time></trkpt><trkpt lat="44.1287133" lon="11.51734"><ele>574.0</ele><time>2026-04-18T12:17:44.279Z</time></trkpt><trkpt lat="44.128675" lon="11.5174383"><ele>574.0</ele><time>2026-04-18T12:17:45.279Z</time></trkpt><trkpt lat="44.1286983" lon="11.5175383"><ele>574.0</ele><time>2026-04-18T12:17:46.28Z</time></trkpt><trkpt lat="44.1287583" lon="11.5176267"><ele>574.0</ele><time>2026-04-18T12:17:47.28Z</time></trkpt><trkpt lat="44.1288333" lon="11.5177067"><ele>574.0</ele><time>2026-04-18T12:17:48.279Z</time></trkpt><trkpt lat="44.1289617" lon="11.5177767"><ele>576.75</ele><time>2026-04-18T12:17:49.279Z</time></trkpt><trkpt lat="44.12909" lon="11.5178383"><ele>579.5</ele><time>2026-04-18T12:17:50.281Z</time></trkpt><trkpt lat="44.1292167" lon="11.517895"><ele>582.25</ele><time>2026-04-18T12:17:51.28Z</time></trkpt><trkpt lat="44.1293367" lon="11.5179433"><ele>585.0</ele><time>2026-04-18T12:17:52.279Z</time></trkpt><trkpt lat="44.1294483" lon="11.517975"><ele>585.0</ele><time>2026-04-18T12:17:53.28Z</time></trkpt><trkpt lat="44.12955" lon="11.5179983"><ele>585.0</ele><time>2026-04-18T12:17:54.279Z</time></trkpt><trkpt lat="44.1296317" lon="11.5180233"><ele>585.0</ele><time>2026-04-18T12:17:55.279Z</time></trkpt><trkpt lat="44.1297083" lon="11.5180617"><ele>585.0</ele><time>2026-04-18T12:17:56.279Z</time></trkpt><trkpt lat="44.1297717" lon="11.518115"><ele>585.0</ele><time>2026-04-18T12:17:57.28Z</time></trkpt><trkpt lat="44.1298083" lon="11.518205"><ele>585.0</ele><time>2026-04-18T12:17:58.278Z</time></trkpt><trkpt lat="44.1297767" lon="11.5183467"><ele>585.0</ele><time>2026-04-18T12:17:59.279Z</time></trkpt><trkpt lat="44.1297417" lon="11.5184883"><ele>585.0</ele><time>2026-04-18T12:18:00.279Z</time></trkpt><trkpt lat="44.1297067" lon="11.5186233"><ele>585.0</ele><time>2026-04-18T12:18:01.281Z</time></trkpt><trkpt lat="44.12968" lon="11.518735"><ele>585.0</ele><time>2026-04-18T12:18:02.281Z</time></trkpt><trkpt lat="44.1296433" lon="11.5188283"><ele>585.0</ele><time>2026-04-18T12:18:03.28Z</time></trkpt><trkpt lat="44.1296" lon="11.5189167"><ele>585.0</ele><time>2026-04-18T12:18:04.279Z</time></trkpt><trkpt lat="44.1295567" lon="11.518995"><ele>587.0</ele><time>2026-04-18T12:18:05.28Z</time></trkpt><trkpt lat="44.1294567" lon="11.5190683"><ele>589.0</ele><time>2026-04-18T12:18:07.28Z</time></trkpt><trkpt lat="44.1293633" lon="11.51908"><ele>591.0</ele><time>2026-04-18T12:18:08.279Z</time></trkpt><trkpt lat="44.129255" lon="11.5191383"><ele>593.0</ele><time>2026-04-18T12:18:09.279Z</time></trkpt><trkpt lat="44.1291433" lon="11.5192333"><ele>590.3333333333333</ele><time>2026-04-18T12:18:10.28Z</time></trkpt><trkpt lat="44.1290233" lon="11.51932"><ele>587.6666666666666</ele><time>2026-04-18T12:18:11.28Z</time></trkpt><trkpt lat="44.1288417" lon="11.5193717"><ele>585.0</ele><time>2026-04-18T12:18:12.28Z</time></trkpt><trkpt lat="44.1286733" lon="11.5193933"><ele>585.0</ele><time>2026-04-18T12:18:13.281Z</time></trkpt><trkpt lat="44.1285083" lon="11.5193967"><ele>585.0</ele><time>2026-04-18T12:18:14.28Z</time></trkpt><trkpt lat="44.128325" lon="11.5193967"><ele>585.0</ele><time>2026-04-18T12:18:15.28Z</time></trkpt><trkpt lat="44.12818" lon="11.5193767"><ele>584.75</ele><time>2026-04-18T12:18:16.281Z</time></trkpt><trkpt lat="44.1280533" lon="11.51933"><ele>584.5</ele><time>2026-04-18T12:18:17.281Z</time></trkpt><trkpt lat="44.1279533" lon="11.5192433"><ele>584.25</ele><time>2026-04-18T12:18:18.279Z</time></trkpt><trkpt lat="44.1278417" lon="11.519195"><ele>584.0</ele><time>2026-04-18T12:18:19.28Z</time></trkpt><trkpt lat="44.1277067" lon="11.5191733"><ele>584.0</ele><time>2026-04-18T12:18:20.28Z</time></trkpt><trkpt lat="44.1275733" lon="11.51918"><ele>584.0</ele><time>2026-04-18T12:18:21.279Z</time></trkpt><trkpt lat="44.1274267" lon="11.51921"><ele>584.0</ele><time>2026-04-18T12:18:22.28Z</time></trkpt><trkpt lat="44.1272833" lon="11.5192517"><ele>584.0</ele><time>2026-04-18T12:18:23.28Z</time></trkpt><trkpt lat="44.1271383" lon="11.51929"><ele>581.0</ele><time>2026-04-18T12:18:24.279Z</time></trkpt><trkpt lat="44.127005" lon="11.5192933"><ele>578.0</ele><time>2026-04-18T12:18:25.279Z</time></trkpt><trkpt lat="44.126885" lon="11.51928"><ele>575.0</ele><time>2026-04-18T12:18:26.28Z</time></trkpt><trkpt lat="44.126775" lon="11.5192767"><ele>572.0</ele><time>2026-04-18T12:18:27.28Z</time></trkpt><trkpt lat="44.126665" lon="11.5193167"><ele>572.0</ele><time>2026-04-18T12:18:28.279Z</time></trkpt><trkpt lat="44.1265617" lon="11.519405"><ele>572.0</ele><time>2026-04-18T12:18:29.281Z</time></trkpt><trkpt lat="44.12646" lon="11.51954"><ele>572.0</ele><time>2026-04-18T12:18:30.279Z</time></trkpt><trkpt lat="44.1263583" lon="11.5196933"><ele>572.0</ele><time>2026-04-18T12:18:31.28Z</time></trkpt><trkpt lat="44.1262667" lon="11.5198483"><ele>572.0</ele><time>2026-04-18T12:18:32.279Z</time></trkpt><trkpt lat="44.1261833" lon="11.5200017"><ele>572.0</ele><time>2026-04-18T12:18:33.279Z</time></trkpt><trkpt lat="44.1261067" lon="11.5201633"><ele>572.0</ele><time>2026-04-18T12:18:34.278Z</time></trkpt><trkpt lat="44.1260467" lon="11.5203283"><ele>572.0</ele><time>2026-04-18T12:18:35.28Z</time></trkpt><trkpt lat="44.126" lon="11.5205117"><ele>572.0</ele><time>2026-04-18T12:18:36.28Z</time></trkpt><trkpt lat="44.1259933" lon="11.5207183"><ele>572.0</ele><time>2026-04-18T12:18:37.279Z</time></trkpt><trkpt lat="44.1259783" lon="11.52093"><ele>572.0</ele><time>2026-04-18T12:18:38.28Z</time></trkpt><trkpt lat="44.1259433" lon="11.52115"><ele>576.3333333333333</ele><time>2026-04-18T12:18:39.28Z</time></trkpt><trkpt lat="44.1258933" lon="11.521355"><ele>580.6666666666666</ele><time>2026-04-18T12:18:40.28Z</time></trkpt><trkpt lat="44.1258117" lon="11.521525"><ele>585.0</ele><time>2026-04-18T12:18:41.28Z</time></trkpt><trkpt lat="44.1256917" lon="11.5216567"><ele>579.6666666666666</ele><time>2026-04-18T12:18:42.279Z</time></trkpt><trkpt lat="44.125555" lon="11.5217683"><ele>574.3333333333333</ele><time>2026-04-18T12:18:43.279Z</time></trkpt><trkpt lat="44.1254217" lon="11.5219083"><ele>569.0</ele><time>2026-04-18T12:18:44.281Z</time></trkpt><trkpt lat="44.1252967" lon="11.5221117"><ele>569.0</ele><time>2026-04-18T12:18:45.279Z</time></trkpt><trkpt lat="44.1251667" lon="11.5223483"><ele>569.0</ele><time>2026-04-18T12:18:46.281Z</time></trkpt><trkpt lat="44.125025" lon="11.52258"><ele>569.0</ele><time>2026-04-18T12:18:47.281Z</time></trkpt><trkpt lat="44.1248783" lon="11.5227817"><ele>561.0</ele><time>2026-04-18T12:18:48.281Z</time></trkpt><trkpt lat="44.124745" lon="11.5229517"><ele>553.0</ele><time>2026-04-18T12:18:49.28Z</time></trkpt><trkpt lat="44.124635" lon="11.52312"><ele>545.0</ele><time>2026-04-18T12:18:50.281Z</time></trkpt><trkpt lat="44.1245517" lon="11.5232983"><ele>545.0</ele><time>2026-04-18T12:18:51.28Z</time></trkpt><trkpt lat="44.12451" lon="11.523515"><ele>545.0</ele><time>2026-04-18T12:18:52.281Z</time></trkpt><trkpt lat="44.12448" lon="11.5237567"><ele>545.0</ele><time>2026-04-18T12:18:53.28Z</time></trkpt><trkpt lat="44.1244433" lon="11.52401"><ele>548.6666666666666</ele><time>2026-04-18T12:18:54.28Z</time></trkpt><trkpt lat="44.124365" lon="11.524255"><ele>552.3333333333334</ele><time>2026-04-18T12:18:55.281Z</time></trkpt><trkpt lat="44.1242633" lon="11.5244667"><ele>556.0</ele><time>2026-04-18T12:18:56.281Z</time></trkpt><trkpt lat="44.12418" lon="11.5246417"><ele>557.25</ele><time>2026-04-18T12:18:57.279Z</time></trkpt><trkpt lat="44.1241183" lon="11.5248067"><ele>558.5</ele><time>2026-04-18T12:18:58.281Z</time></trkpt><trkpt lat="44.1241" lon="11.524975"><ele>559.75</ele><time>2026-04-18T12:18:59.28Z</time></trkpt><trkpt lat="44.1241233" lon="11.5251267"><ele>561.0</ele><time>2026-04-18T12:19:00.28Z</time></trkpt><trkpt lat="44.1241783" lon="11.5252817"><ele>563.25</ele><time>2026-04-18T12:19:01.282Z</time></trkpt><trkpt lat="44.124195" lon="11.5254533"><ele>565.5</ele><time>2026-04-18T12:19:02.28Z</time></trkpt><trkpt lat="44.1241533" lon="11.5256283"><ele>567.75</ele><time>2026-04-18T12:19:03.28Z</time></trkpt><trkpt lat="44.1240767" lon="11.52577"><ele>570.0</ele><time>2026-04-18T12:19:04.279Z</time></trkpt><trkpt lat="44.1239567" lon="11.525865"><ele>562.0</ele><time>2026-04-18T12:19:05.279Z</time></trkpt><trkpt lat="44.1238017" lon="11.5259167"><ele>554.0</ele><time>2026-04-18T12:19:06.278Z</time></trkpt><trkpt lat="44.1236367" lon="11.525955"><ele>546.0</ele><time>2026-04-18T12:19:07.28Z</time></trkpt><trkpt lat="44.1234867" lon="11.52602"><ele>546.0</ele><time>2026-04-18T12:19:08.281Z</time></trkpt><trkpt lat="44.123365" lon="11.5261283"><ele>546.0</ele><time>2026-04-18T12:19:09.281Z</time></trkpt><trkpt lat="44.12328" lon="11.5262967"><ele>546.0</ele><time>2026-04-18T12:19:10.279Z</time></trkpt><trkpt lat="44.1232183" lon="11.5265133"><ele>544.0</ele><time>2026-04-18T12:19:11.28Z</time></trkpt><trkpt lat="44.1231917" lon="11.5267433"><ele>542.0</ele><time>2026-04-18T12:19:12.28Z</time></trkpt><trkpt lat="44.1231117" lon="11.5269633"><ele>540.0</ele><time>2026-04-18T12:19:13.28Z</time></trkpt><trkpt lat="44.1229967" lon="11.5271583"><ele>540.0</ele><time>2026-04-18T12:19:14.28Z</time></trkpt><trkpt lat="44.1228683" lon="11.5273333"><ele>540.0</ele><time>2026-04-18T12:19:15.281Z</time></trkpt><trkpt lat="44.1227267" lon="11.5275033"><ele>540.0</ele><time>2026-04-18T12:19:16.279Z</time></trkpt><trkpt lat="44.1226033" lon="11.5276833"><ele>540.0</ele><time>2026-04-18T12:19:17.282Z</time></trkpt><trkpt lat="44.1225217" lon="11.527875"><ele>540.0</ele><time>2026-04-18T12:19:18.282Z</time></trkpt><trkpt lat="44.1224733" lon="11.5280633"><ele>540.0</ele><time>2026-04-18T12:19:19.28Z</time></trkpt><trkpt lat="44.122485" lon="11.52824"><ele>540.0</ele><time>2026-04-18T12:19:20.28Z</time></trkpt><trkpt lat="44.1225483" lon="11.5283767"><ele>540.5</ele><time>2026-04-18T12:19:21.28Z</time></trkpt><trkpt lat="44.1226583" lon="11.5284733"><ele>541.0</ele><time>2026-04-18T12:19:22.28Z</time></trkpt><trkpt lat="44.1227983" lon="11.5285433"><ele>541.5</ele><time>2026-04-18T12:19:23.28Z</time></trkpt><trkpt lat="44.1229367" lon="11.5286167"><ele>542.0</ele><time>2026-04-18T12:19:24.281Z</time></trkpt><trkpt lat="44.1230483" lon="11.5287317"><ele>539.75</ele><time>2026-04-18T12:19:25.281Z</time></trkpt><trkpt lat="44.1231067" lon="11.5288883"><ele>537.5</ele><time>2026-04-18T12:19:26.28Z</time></trkpt><trkpt lat="44.1231167" lon="11.529075"><ele>535.25</ele><time>2026-04-18T12:19:27.28Z</time></trkpt><trkpt lat="44.1230967" lon="11.5292817"><ele>533.0</ele><time>2026-04-18T12:19:28.282Z</time></trkpt><trkpt lat="44.123055" lon="11.5294733"><ele>538.5</ele><time>2026-04-18T12:19:29.279Z</time></trkpt><trkpt lat="44.12299" lon="11.52963"><ele>544.0</ele><time>2026-04-18T12:19:30.28Z</time></trkpt><trkpt lat="44.1229117" lon="11.5297317"><ele>549.5</ele><time>2026-04-18T12:19:31.279Z</time></trkpt><trkpt lat="44.12282" lon="11.52977"><ele>555.0</ele><time>2026-04-18T12:19:32.281Z</time></trkpt><trkpt lat="44.1227017" lon="11.5297483"><ele>555.0</ele><time>2026-04-18T12:19:33.28Z</time></trkpt><trkpt lat="44.122565" lon="11.5296983"><ele>555.0</ele><time>2026-04-18T12:19:34.28Z</time></trkpt><trkpt lat="44.1223917" lon="11.52961"><ele>555.0</ele><time>2026-04-18T12:19:35.28Z</time></trkpt><trkpt lat="44.1222267" lon="11.529505"><ele>551.6666666666666</ele><time>2026-04-18T12:19:36.28Z</time></trkpt><trkpt lat="44.1220617" lon="11.529385"><ele>548.3333333333333</ele><time>2026-04-18T12:19:37.28Z</time></trkpt><trkpt lat="44.1218983" lon="11.5292683"><ele>545.0</ele><time>2026-04-18T12:19:38.28Z</time></trkpt><trkpt lat="44.121745" lon="11.529145"><ele>545.0</ele><time>2026-04-18T12:19:39.28Z</time></trkpt><trkpt lat="44.1216117" lon="11.528985"><ele>545.0</ele><time>2026-04-18T12:19:40.28Z</time></trkpt><trkpt lat="44.121495" lon="11.528805"><ele>545.0</ele><time>2026-04-18T12:19:41.28Z</time></trkpt><trkpt lat="44.1213967" lon="11.528615"><ele>539.5</ele><time>2026-04-18T12:19:42.279Z</time></trkpt><trkpt lat="44.1213067" lon="11.52846"><ele>534.0</ele><time>2026-04-18T12:19:43.279Z</time></trkpt><trkpt lat="44.121215" lon="11.528335"><ele>528.5</ele><time>2026-04-18T12:19:44.28Z</time></trkpt><trkpt lat="44.121115" lon="11.5282433"><ele>523.0</ele><time>2026-04-18T12:19:45.28Z</time></trkpt><trkpt lat="44.12101" lon="11.5282"><ele>523.0</ele><time>2026-04-18T12:19:46.279Z</time></trkpt><trkpt lat="44.12088" lon="11.528285"><ele>523.0</ele><time>2026-04-18T12:19:47.28Z</time></trkpt><trkpt lat="44.1207383" lon="11.5284083"><ele>523.0</ele><time>2026-04-18T12:19:48.278Z</time></trkpt><trkpt lat="44.1206083" lon="11.52855"><ele>518.0</ele><time>2026-04-18T12:19:49.28Z</time></trkpt><trkpt lat="44.1204833" lon="11.5287133"><ele>513.0</ele><time>2026-04-18T12:19:50.281Z</time></trkpt><trkpt lat="44.1203783" lon="11.5289133"><ele>508.0</ele><time>2026-04-18T12:19:51.281Z</time></trkpt><trkpt lat="44.120285" lon="11.529155"><ele>508.0</ele><time>2026-04-18T12:19:52.28Z</time></trkpt><trkpt lat="44.1202083" lon="11.5294217"><ele>508.0</ele><time>2026-04-18T12:19:53.281Z</time></trkpt><trkpt lat="44.120135" lon="11.5297017"><ele>508.0</ele><time>2026-04-18T12:19:54.28Z</time></trkpt><trkpt lat="44.1200517" lon="11.5299667"><ele>509.33333333333337</ele><time>2026-04-18T12:19:55.28Z</time></trkpt><trkpt lat="44.119965" lon="11.5302183"><ele>510.66666666666663</ele><time>2026-04-18T12:19:56.281Z</time></trkpt><trkpt lat="44.1198633" lon="11.53046"><ele>512.0</ele><time>2026-04-18T12:19:57.281Z</time></trkpt><trkpt lat="44.1197367" lon="11.530695"><ele>509.0</ele><time>2026-04-18T12:19:58.28Z</time></trkpt><trkpt lat="44.1195983" lon="11.5309283"><ele>506.0</ele><time>2026-04-18T12:19:59.28Z</time></trkpt><trkpt lat="44.1194583" lon="11.531165"><ele>503.0</ele><time>2026-04-18T12:20:00.281Z</time></trkpt><trkpt lat="44.1193217" lon="11.5314117"><ele>503.0</ele><time>2026-04-18T12:20:01.279Z</time></trkpt><trkpt lat="44.1192033" lon="11.5316483"><ele>503.0</ele><time>2026-04-18T12:20:02.28Z</time></trkpt><trkpt lat="44.1190767" lon="11.5318483"><ele>503.0</ele><time>2026-04-18T12:20:03.28Z</time></trkpt><trkpt lat="44.1189283" lon="11.5320017"><ele>501.66666666666663</ele><time>2026-04-18T12:20:04.28Z</time></trkpt><trkpt lat="44.11876" lon="11.5321333"><ele>500.33333333333337</ele><time>2026-04-18T12:20:05.28Z</time></trkpt><trkpt lat="44.1185833" lon="11.532275"><ele>499.0</ele><time>2026-04-18T12:20:06.281Z</time></trkpt><trkpt lat="44.11841" lon="11.532445"><ele>499.0</ele><time>2026-04-18T12:20:07.28Z</time></trkpt><trkpt lat="44.118235" lon="11.532625"><ele>499.0</ele><time>2026-04-18T12:20:08.28Z</time></trkpt><trkpt lat="44.1180583" lon="11.5328017"><ele>499.0</ele><time>2026-04-18T12:20:09.28Z</time></trkpt><trkpt lat="44.1178883" lon="11.53297"><ele>495.0</ele><time>2026-04-18T12:20:10.281Z</time></trkpt><trkpt lat="44.1177267" lon="11.5331317"><ele>491.0</ele><time>2026-04-18T12:20:11.28Z</time></trkpt><trkpt lat="44.1175767" lon="11.5332867"><ele>487.0</ele><time>2026-04-18T12:20:12.281Z</time></trkpt><trkpt lat="44.1174433" lon="11.53343"><ele>484.5</ele><time>2026-04-18T12:20:13.28Z</time></trkpt><trkpt lat="44.1173283" lon="11.5335567"><ele>482.0</ele><time>2026-04-18T12:20:14.281Z</time></trkpt><trkpt lat="44.1172267" lon="11.5336667"><ele>479.5</ele><time>2026-04-18T12:20:15.282Z</time></trkpt><trkpt lat="44.1171367" lon="11.5337667"><ele>477.0</ele><time>2026-04-18T12:20:16.282Z</time></trkpt><trkpt lat="44.117065" lon="11.533875"><ele>476.75</ele><time>2026-04-18T12:20:17.282Z</time></trkpt><trkpt lat="44.1170117" lon="11.5340083"><ele>476.5</ele><time>2026-04-18T12:20:18.281Z</time></trkpt><trkpt lat="44.1169883" lon="11.5341633"><ele>476.25</ele><time>2026-04-18T12:20:19.281Z</time></trkpt><trkpt lat="44.11699" lon="11.53434"><ele>476.0</ele><time>2026-04-18T12:20:20.281Z</time></trkpt><trkpt lat="44.1170083" lon="11.534535"><ele>475.0</ele><time>2026-04-18T12:20:21.282Z</time></trkpt><trkpt lat="44.1170417" lon="11.5347467"><ele>474.0</ele><time>2026-04-18T12:20:22.282Z</time></trkpt><trkpt lat="44.1170833" lon="11.5349717"><ele>473.0</ele><time>2026-04-18T12:20:23.282Z</time></trkpt><trkpt lat="44.1171233" lon="11.5351967"><ele>471.0</ele><time>2026-04-18T12:20:24.281Z</time></trkpt><trkpt lat="44.1171667" lon="11.5354217"><ele>469.0</ele><time>2026-04-18T12:20:25.282Z</time></trkpt><trkpt lat="44.1172033" lon="11.5356283"><ele>467.0</ele><time>2026-04-18T12:20:26.281Z</time></trkpt><trkpt lat="44.1172367" lon="11.53583"><ele>467.0</ele><time>2026-04-18T12:20:27.283Z</time></trkpt><trkpt lat="44.11727" lon="11.5360283"><ele>467.0</ele><time>2026-04-18T12:20:28.281Z</time></trkpt><trkpt lat="44.1172967" lon="11.5362383"><ele>467.0</ele><time>2026-04-18T12:20:29.281Z</time></trkpt><trkpt lat="44.117305" lon="11.5364583"><ele>466.66666666666663</ele><time>2026-04-18T12:20:30.282Z</time></trkpt><trkpt lat="44.1172917" lon="11.536685"><ele>466.33333333333337</ele><time>2026-04-18T12:20:31.28Z</time></trkpt><trkpt lat="44.1172617" lon="11.536915"><ele>466.0</ele><time>2026-04-18T12:20:32.281Z</time></trkpt><trkpt lat="44.1172167" lon="11.53714"><ele>466.0</ele><time>2026-04-18T12:20:33.281Z</time></trkpt><trkpt lat="44.117175" lon="11.53736"><ele>466.0</ele><time>2026-04-18T12:20:34.28Z</time></trkpt><trkpt lat="44.1171317" lon="11.537575"><ele>466.0</ele><time>2026-04-18T12:20:35.279Z</time></trkpt><trkpt lat="44.11709" lon="11.537785"><ele>464.0</ele><time>2026-04-18T12:20:36.281Z</time></trkpt><trkpt lat="44.1170517" lon="11.5379917"><ele>462.0</ele><time>2026-04-18T12:20:37.281Z</time></trkpt><trkpt lat="44.11701" lon="11.5382017"><ele>460.0</ele><time>2026-04-18T12:20:38.281Z</time></trkpt><trkpt lat="44.1169617" lon="11.5384133"><ele>460.0</ele><time>2026-04-18T12:20:39.281Z</time></trkpt><trkpt lat="44.1169017" lon="11.5386217"><ele>460.0</ele><time>2026-04-18T12:20:40.281Z</time></trkpt><trkpt lat="44.1168217" lon="11.5388217"><ele>460.0</ele><time>2026-04-18T12:20:41.28Z</time></trkpt><trkpt lat="44.1167367" lon="11.5390117"><ele>461.0</ele><time>2026-04-18T12:20:42.279Z</time></trkpt><trkpt lat="44.11665" lon="11.539195"><ele>462.0</ele><time>2026-04-18T12:20:43.28Z</time></trkpt><trkpt lat="44.1165483" lon="11.539375"><ele>463.0</ele><time>2026-04-18T12:20:44.281Z</time></trkpt><trkpt lat="44.1164467" lon="11.5395583"><ele>460.6666666666667</ele><time>2026-04-18T12:20:45.28Z</time></trkpt><trkpt lat="44.1163417" lon="11.5397383"><ele>458.33333333333337</ele><time>2026-04-18T12:20:46.28Z</time></trkpt><trkpt lat="44.11624" lon="11.53993"><ele>456.0</ele><time>2026-04-18T12:20:47.281Z</time></trkpt><trkpt lat="44.1161433" lon="11.5401267"><ele>456.0</ele><time>2026-04-18T12:20:48.28Z</time></trkpt><trkpt lat="44.1160633" lon="11.5403283"><ele>456.0</ele><time>2026-04-18T12:20:49.28Z</time></trkpt><trkpt lat="44.1159967" lon="11.5405283"><ele>456.0</ele><time>2026-04-18T12:20:50.281Z</time></trkpt><trkpt lat="44.1159483" lon="11.5407283"><ele>455.25</ele><time>2026-04-18T12:20:51.281Z</time></trkpt><trkpt lat="44.1159033" lon="11.5409167"><ele>454.5</ele><time>2026-04-18T12:20:52.281Z</time></trkpt><trkpt lat="44.1158383" lon="11.5410917"><ele>453.75</ele><time>2026-04-18T12:20:53.281Z</time></trkpt><trkpt lat="44.1157617" lon="11.54125"><ele>453.0</ele><time>2026-04-18T12:20:54.282Z</time></trkpt><trkpt lat="44.1156633" lon="11.54139"><ele>453.0</ele><time>2026-04-18T12:20:55.279Z</time></trkpt><trkpt lat="44.1155633" lon="11.5415067"><ele>453.0</ele><time>2026-04-18T12:20:56.28Z</time></trkpt><trkpt lat="44.1154633" lon="11.541615"><ele>453.0</ele><time>2026-04-18T12:20:57.28Z</time></trkpt><trkpt lat="44.1153533" lon="11.5417267"><ele>453.0</ele><time>2026-04-18T12:20:58.28Z</time></trkpt><trkpt lat="44.1152617" lon="11.5418467"><ele>453.0</ele><time>2026-04-18T12:20:59.281Z</time></trkpt><trkpt lat="44.115185" lon="11.54198"><ele>453.0</ele><time>2026-04-18T12:21:00.28Z</time></trkpt><trkpt lat="44.1151333" lon="11.54213"><ele>453.0</ele><time>2026-04-18T12:21:01.279Z</time></trkpt><trkpt lat="44.1150967" lon="11.5422883"><ele>453.0</ele><time>2026-04-18T12:21:02.28Z</time></trkpt><trkpt lat="44.11507" lon="11.5424517"><ele>452.25</ele><time>2026-04-18T12:21:03.279Z</time></trkpt><trkpt lat="44.115045" lon="11.5426183"><ele>451.5</ele><time>2026-04-18T12:21:04.28Z</time></trkpt><trkpt lat="44.1150233" lon="11.5427833"><ele>450.75</ele><time>2026-04-18T12:21:05.28Z</time></trkpt><trkpt lat="44.1149867" lon="11.542945"><ele>450.0</ele><time>2026-04-18T12:21:06.281Z</time></trkpt><trkpt lat="44.114955" lon="11.5431067"><ele>449.2</ele><time>2026-04-18T12:21:07.28Z</time></trkpt><trkpt lat="44.1149083" lon="11.5432517"><ele>448.4</ele><time>2026-04-18T12:21:08.28Z</time></trkpt><trkpt lat="44.1148533" lon="11.543385"><ele>447.6</ele><time>2026-04-18T12:21:09.28Z</time></trkpt><trkpt lat="44.11479" lon="11.5435133"><ele>446.8</ele><time>2026-04-18T12:21:10.281Z</time></trkpt><trkpt lat="44.114725" lon="11.54364"><ele>446.0</ele><time>2026-04-18T12:21:11.281Z</time></trkpt><trkpt lat="44.1146667" lon="11.5437683"><ele>445.25</ele><time>2026-04-18T12:21:12.28Z</time></trkpt><trkpt lat="44.1146067" lon="11.5439017"><ele>444.5</ele><time>2026-04-18T12:21:13.281Z</time></trkpt><trkpt lat="44.1145467" lon="11.5440433"><ele>443.75</ele><time>2026-04-18T12:21:14.281Z</time></trkpt><trkpt lat="44.1145033" lon="11.5441933"><ele>443.0</ele><time>2026-04-18T12:21:15.279Z</time></trkpt><trkpt lat="44.1144767" lon="11.5443517"><ele>443.0</ele><time>2026-04-18T12:21:16.279Z</time></trkpt><trkpt lat="44.1144417" lon="11.5445083"><ele>443.0</ele><time>2026-04-18T12:21:17.281Z</time></trkpt><trkpt lat="44.114415" lon="11.544665"><ele>443.0</ele><time>2026-04-18T12:21:18.28Z</time></trkpt><trkpt lat="44.11439" lon="11.5448167"><ele>443.0</ele><time>2026-04-18T12:21:19.28Z</time></trkpt><trkpt lat="44.11437" lon="11.5449683"><ele>442.4</ele><time>2026-04-18T12:21:20.28Z</time></trkpt><trkpt lat="44.1143567" lon="11.54512"><ele>441.79999999999995</ele><time>2026-04-18T12:21:21.281Z</time></trkpt><trkpt lat="44.1143283" lon="11.5452633"><ele>441.2</ele><time>2026-04-18T12:21:22.28Z</time></trkpt><trkpt lat="44.114305" lon="11.5454017"><ele>440.6</ele><time>2026-04-18T12:21:23.281Z</time></trkpt><trkpt lat="44.114285" lon="11.54554"><ele>440.0</ele><time>2026-04-18T12:21:24.28Z</time></trkpt><trkpt lat="44.1142667" lon="11.5456717"><ele>439.99999999999994</ele><time>2026-04-18T12:21:25.28Z</time></trkpt><trkpt lat="44.1142483" lon="11.5457867"><ele>440.0</ele><time>2026-04-18T12:21:26.28Z</time></trkpt><trkpt lat="44.11423" lon="11.5458883"><ele>440.0</ele><time>2026-04-18T12:21:27.28Z</time></trkpt><trkpt lat="44.11421" lon="11.5460183"><ele>440.0</ele><time>2026-04-18T12:21:29.28Z</time></trkpt><trkpt lat="44.1141917" lon="11.5461033"><ele>439.99999999999994</ele><time>2026-04-18T12:21:32.282Z</time></trkpt><trkpt lat="44.1141633" lon="11.5461883"><ele>440.0</ele><time>2026-04-18T12:21:34.28Z</time></trkpt><trkpt lat="44.1141233" lon="11.5462567"><ele>438.49999999999994</ele><time>2026-04-18T12:21:35.28Z</time></trkpt><trkpt lat="44.1140683" lon="11.546335"><ele>437.0</ele><time>2026-04-18T12:21:36.281Z</time></trkpt><trkpt lat="44.1139983" lon="11.5464217"><ele>435.5</ele><time>2026-04-18T12:21:37.28Z</time></trkpt><trkpt lat="44.1139317" lon="11.5465083"><ele>434.0</ele><time>2026-04-18T12:21:38.28Z</time></trkpt><trkpt lat="44.1138633" lon="11.5465967"><ele>432.49999999999994</ele><time>2026-04-18T12:21:39.28Z</time></trkpt><trkpt lat="44.1138" lon="11.54668"><ele>431.0</ele><time>2026-04-18T12:21:40.281Z</time></trkpt><trkpt lat="44.1137417" lon="11.5467617"><ele>430.99999999999994</ele><time>2026-04-18T12:21:41.282Z</time></trkpt><trkpt lat="44.113685" lon="11.5468433"><ele>431.0</ele><time>2026-04-18T12:21:42.281Z</time></trkpt><trkpt lat="44.113635" lon="11.54693"><ele>431.0</ele><time>2026-04-18T12:21:43.28Z</time></trkpt><trkpt lat="44.1135817" lon="11.54701"><ele>431.0</ele><time>2026-04-18T12:21:44.281Z</time></trkpt><trkpt lat="44.1135367" lon="11.5470983"><ele>430.99999999999994</ele><time>2026-04-18T12:21:45.28Z</time></trkpt><trkpt lat="44.113505" lon="11.5471867"><ele>431.0</ele><time>2026-04-18T12:21:46.28Z</time></trkpt><trkpt lat="44.1134867" lon="11.5472817"><ele>430.66666666666663</ele><time>2026-04-18T12:21:47.281Z</time></trkpt><trkpt lat="44.1134733" lon="11.5473867"><ele>430.3333333333333</ele><time>2026-04-18T12:21:48.281Z</time></trkpt><trkpt lat="44.113465" lon="11.5474867"><ele>430.0</ele><time>2026-04-18T12:21:49.281Z</time></trkpt><trkpt lat="44.1134483" lon="11.5476517"><ele>429.66666666666663</ele><time>2026-04-18T12:21:51.28Z</time></trkpt><trkpt lat="44.1134367" lon="11.5477683"><ele>429.3333333333333</ele><time>2026-04-18T12:21:53.28Z</time></trkpt><trkpt lat="44.1134183" lon="11.547875"><ele>429.0</ele><time>2026-04-18T12:21:55.283Z</time></trkpt><trkpt lat="44.1133417" lon="11.547945"><ele>429.0</ele><time>2026-04-18T12:21:57.281Z</time></trkpt><trkpt lat="44.1132583" lon="11.54794"><ele>429.0</ele><time>2026-04-18T12:21:58.28Z</time></trkpt><trkpt lat="44.1131783" lon="11.5479183"><ele>429.0</ele><time>2026-04-18T12:21:59.282Z</time></trkpt><trkpt lat="44.11311" lon="11.5478917"><ele>429.0</ele><time>2026-04-18T12:22:00.281Z</time></trkpt><trkpt lat="44.1130383" lon="11.5478633"><ele>429.0</ele><time>2026-04-18T12:22:01.28Z</time></trkpt><trkpt lat="44.11296" lon="11.5478367"><ele>429.0</ele><time>2026-04-18T12:22:02.281Z</time></trkpt><trkpt lat="44.1128667" lon="11.5478033"><ele>429.3333333333333</ele><time>2026-04-18T12:22:03.28Z</time></trkpt><trkpt lat="44.1127767" lon="11.5477817"><ele>429.66666666666663</ele><time>2026-04-18T12:22:04.281Z</time></trkpt><trkpt lat="44.1126917" lon="11.54777"><ele>430.0</ele><time>2026-04-18T12:22:05.281Z</time></trkpt><trkpt lat="44.1126133" lon="11.547785"><ele>430.3333333333333</ele><time>2026-04-18T12:22:06.281Z</time></trkpt><trkpt lat="44.1125417" lon="11.5478217"><ele>430.66666666666663</ele><time>2026-04-18T12:22:07.281Z</time></trkpt><trkpt lat="44.1125067" lon="11.5479167"><ele>431.0</ele><time>2026-04-18T12:22:08.281Z</time></trkpt><trkpt lat="44.1124717" lon="11.548015"><ele>431.0</ele><time>2026-04-18T12:22:09.281Z</time></trkpt><trkpt lat="44.1124467" lon="11.5481083"><ele>431.0</ele><time>2026-04-18T12:22:10.282Z</time></trkpt><trkpt lat="44.1124567" lon="11.5482733"><ele>431.0</ele><time>2026-04-18T12:22:12.28Z</time></trkpt><trkpt lat="44.1125033" lon="11.5484033"><ele>431.0</ele><time>2026-04-18T12:22:14.281Z</time></trkpt><trkpt lat="44.1125233" lon="11.548585"><ele>431.0</ele><time>2026-04-18T12:22:16.28Z</time></trkpt><trkpt lat="44.1125233" lon="11.5486967"><ele>431.6</ele><time>2026-04-18T12:22:17.281Z</time></trkpt><trkpt lat="44.112525" lon="11.54881"><ele>432.20000000000005</ele><time>2026-04-18T12:22:18.28Z</time></trkpt><trkpt lat="44.1125267" lon="11.5489267"><ele>432.79999999999995</ele><time>2026-04-18T12:22:19.28Z</time></trkpt><trkpt lat="44.1125117" lon="11.5490467"><ele>433.4</ele><time>2026-04-18T12:22:20.281Z</time></trkpt><trkpt lat="44.1124967" lon="11.549175"><ele>434.0</ele><time>2026-04-18T12:22:21.281Z</time></trkpt><trkpt lat="44.112495" lon="11.549335"><ele>434.0</ele><time>2026-04-18T12:22:22.281Z</time></trkpt><trkpt lat="44.11248" lon="11.549475"><ele>434.0</ele><time>2026-04-18T12:22:23.28Z</time></trkpt><trkpt lat="44.11246" lon="11.5496133"><ele>434.0</ele><time>2026-04-18T12:22:24.281Z</time></trkpt><trkpt lat="44.1124383" lon="11.549745"><ele>434.0</ele><time>2026-04-18T12:22:25.281Z</time></trkpt><trkpt lat="44.1124183" lon="11.5498683"><ele>434.0</ele><time>2026-04-18T12:22:26.281Z</time></trkpt><trkpt lat="44.1123867" lon="11.54999"><ele>434.6</ele><time>2026-04-18T12:22:27.281Z</time></trkpt><trkpt lat="44.1123383" lon="11.5500933"><ele>435.2</ele><time>2026-04-18T12:22:28.282Z</time></trkpt><trkpt lat="44.1122833" lon="11.5501883"><ele>435.80000000000007</ele><time>2026-04-18T12:22:29.283Z</time></trkpt><trkpt lat="44.1122167" lon="11.5502633"><ele>436.40000000000003</ele><time>2026-04-18T12:22:30.281Z</time></trkpt><trkpt lat="44.1121233" lon="11.5503267"><ele>437.0</ele><time>2026-04-18T12:22:31.283Z</time></trkpt><trkpt lat="44.11204" lon="11.5503783"><ele>437.0</ele><time>2026-04-18T12:22:32.281Z</time></trkpt><trkpt lat="44.1119333" lon="11.5503683"><ele>437.0</ele><time>2026-04-18T12:22:33.282Z</time></trkpt><trkpt lat="44.1118267" lon="11.5503767"><ele>437.0</ele><time>2026-04-18T12:22:34.28Z</time></trkpt><trkpt lat="44.11167" lon="11.5503933"><ele>437.0</ele><time>2026-04-18T12:22:35.282Z</time></trkpt><trkpt lat="44.1115017" lon="11.5504067"><ele>444.66666666666663</ele><time>2026-04-18T12:22:36.282Z</time></trkpt><trkpt lat="44.1113633" lon="11.5504183"><ele>452.33333333333337</ele><time>2026-04-18T12:22:37.281Z</time></trkpt><trkpt lat="44.1111967" lon="11.5504367"><ele>460.0</ele><time>2026-04-18T12:22:38.281Z</time></trkpt><trkpt lat="44.11104" lon="11.5504617"><ele>460.0</ele><time>2026-04-18T12:22:39.282Z</time></trkpt><trkpt lat="44.110875" lon="11.5504983"><ele>460.0</ele><time>2026-04-18T12:22:40.282Z</time></trkpt><trkpt lat="44.1107283" lon="11.5505617"><ele>460.0</ele><time>2026-04-18T12:22:41.281Z</time></trkpt><trkpt lat="44.1105567" lon="11.550645"><ele>457.6666666666667</ele><time>2026-04-18T12:22:42.282Z</time></trkpt><trkpt lat="44.110405" lon="11.5507567"><ele>455.33333333333337</ele><time>2026-04-18T12:22:43.28Z</time></trkpt><trkpt lat="44.11027" lon="11.5508767"><ele>453.0</ele><time>2026-04-18T12:22:44.28Z</time></trkpt><trkpt lat="44.1101333" lon="11.5510017"><ele>453.0</ele><time>2026-04-18T12:22:45.282Z</time></trkpt><trkpt lat="44.1099717" lon="11.5511067"><ele>453.0</ele><time>2026-04-18T12:22:46.28Z</time></trkpt><trkpt lat="44.109825" lon="11.5511633"><ele>453.0</ele><time>2026-04-18T12:22:47.282Z</time></trkpt><trkpt lat="44.1096617" lon="11.5511717"><ele>451.25</ele><time>2026-04-18T12:22:48.281Z</time></trkpt><trkpt lat="44.10951" lon="11.551185"><ele>449.5</ele><time>2026-04-18T12:22:49.282Z</time></trkpt><trkpt lat="44.1093717" lon="11.5512283"><ele>447.75</ele><time>2026-04-18T12:22:50.282Z</time></trkpt><trkpt lat="44.10924" lon="11.5513217"><ele>446.0</ele><time>2026-04-18T12:22:51.281Z</time></trkpt><trkpt lat="44.109125" lon="11.5514583"><ele>447.75</ele><time>2026-04-18T12:22:52.281Z</time></trkpt><trkpt lat="44.109045" lon="11.5516017"><ele>449.5</ele><time>2026-04-18T12:22:53.28Z</time></trkpt><trkpt lat="44.1089617" lon="11.5517083"><ele>451.25</ele><time>2026-04-18T12:22:54.281Z</time></trkpt><trkpt lat="44.1088633" lon="11.5517667"><ele>453.0</ele><time>2026-04-18T12:22:55.282Z</time></trkpt><trkpt lat="44.1087383" lon="11.5517767"><ele>453.0</ele><time>2026-04-18T12:22:56.282Z</time></trkpt><trkpt lat="44.1086017" lon="11.55176"><ele>453.0</ele><time>2026-04-18T12:22:57.281Z</time></trkpt><trkpt lat="44.108465" lon="11.551755"><ele>453.0</ele><time>2026-04-18T12:22:58.282Z</time></trkpt><trkpt lat="44.10833" lon="11.55179"><ele>453.0</ele><time>2026-04-18T12:22:59.282Z</time></trkpt><trkpt lat="44.1081983" lon="11.5518767"><ele>454.33333333333337</ele><time>2026-04-18T12:23:00.282Z</time></trkpt><trkpt lat="44.10806" lon="11.55201"><ele>455.6666666666667</ele><time>2026-04-18T12:23:01.28Z</time></trkpt><trkpt lat="44.1079" lon="11.5521617"><ele>457.0</ele><time>2026-04-18T12:23:02.281Z</time></trkpt><trkpt lat="44.107735" lon="11.5523183"><ele>457.0</ele><time>2026-04-18T12:23:03.281Z</time></trkpt><trkpt lat="44.10758" lon="11.5524683"><ele>457.0</ele><time>2026-04-18T12:23:04.281Z</time></trkpt><trkpt lat="44.1074367" lon="11.5526083"><ele>457.0</ele><time>2026-04-18T12:23:05.28Z</time></trkpt><trkpt lat="44.1073067" lon="11.5527467"><ele>457.5</ele><time>2026-04-18T12:23:06.281Z</time></trkpt><trkpt lat="44.1071933" lon="11.5528933"><ele>458.0</ele><time>2026-04-18T12:23:07.28Z</time></trkpt><trkpt lat="44.1071067" lon="11.553055"><ele>458.5</ele><time>2026-04-18T12:23:08.279Z</time></trkpt><trkpt lat="44.107045" lon="11.5532367"><ele>459.0</ele><time>2026-04-18T12:23:09.282Z</time></trkpt><trkpt lat="44.107015" lon="11.5534317"><ele>459.0</ele><time>2026-04-18T12:23:10.281Z</time></trkpt><trkpt lat="44.1070283" lon="11.5536433"><ele>459.0</ele><time>2026-04-18T12:23:11.282Z</time></trkpt><trkpt lat="44.107065" lon="11.5538717"><ele>459.0</ele><time>2026-04-18T12:23:12.281Z</time></trkpt><trkpt lat="44.1071167" lon="11.55411"><ele>460.33333333333337</ele><time>2026-04-18T12:23:13.28Z</time></trkpt><trkpt lat="44.10719" lon="11.554345"><ele>461.6666666666667</ele><time>2026-04-18T12:23:14.282Z</time></trkpt><trkpt lat="44.1072867" lon="11.5545617"><ele>463.0</ele><time>2026-04-18T12:23:15.282Z</time></trkpt><trkpt lat="44.1073633" lon="11.5547583"><ele>467.0</ele><time>2026-04-18T12:23:16.28Z</time></trkpt><trkpt lat="44.1074133" lon="11.5549233"><ele>471.0</ele><time>2026-04-18T12:23:17.282Z</time></trkpt><trkpt lat="44.1074417" lon="11.5551033"><ele>475.0</ele><time>2026-04-18T12:23:18.28Z</time></trkpt><trkpt lat="44.1074333" lon="11.55529"><ele>479.0</ele><time>2026-04-18T12:23:19.282Z</time></trkpt><trkpt lat="44.1073717" lon="11.5554483"><ele>479.0</ele><time>2026-04-18T12:23:20.283Z</time></trkpt><trkpt lat="44.1072617" lon="11.5555667"><ele>479.0</ele><time>2026-04-18T12:23:21.282Z</time></trkpt><trkpt lat="44.10711" lon="11.55565"><ele>479.0</ele><time>2026-04-18T12:23:22.282Z</time></trkpt><trkpt lat="44.1069267" lon="11.5557233"><ele>479.0</ele><time>2026-04-18T12:23:23.281Z</time></trkpt><trkpt lat="44.1067333" lon="11.555805"><ele>479.0</ele><time>2026-04-18T12:23:24.283Z</time></trkpt><trkpt lat="44.106535" lon="11.5558967"><ele>479.0</ele><time>2026-04-18T12:23:25.285Z</time></trkpt><trkpt lat="44.10634" lon="11.5559917"><ele>478.3333333333333</ele><time>2026-04-18T12:23:26.283Z</time></trkpt><trkpt lat="44.1061533" lon="11.5560983"><ele>477.66666666666663</ele><time>2026-04-18T12:23:27.281Z</time></trkpt><trkpt lat="44.105985" lon="11.5561933"><ele>477.0</ele><time>2026-04-18T12:23:28.282Z</time></trkpt><trkpt lat="44.10582" lon="11.5562667"><ele>481.66666666666663</ele><time>2026-04-18T12:23:29.281Z</time></trkpt><trkpt lat="44.10566" lon="11.556335"><ele>486.3333333333333</ele><time>2026-04-18T12:23:30.282Z</time></trkpt><trkpt lat="44.105515" lon="11.5564383"><ele>491.0</ele><time>2026-04-18T12:23:31.28Z</time></trkpt><trkpt lat="44.1053767" lon="11.5565583"><ele>491.0</ele><time>2026-04-18T12:23:32.28Z</time></trkpt><trkpt lat="44.1052267" lon="11.5566633"><ele>491.0</ele><time>2026-04-18T12:23:33.279Z</time></trkpt><trkpt lat="44.1050883" lon="11.5567083"><ele>491.0</ele><time>2026-04-18T12:23:34.28Z</time></trkpt><trkpt lat="44.104965" lon="11.5567317"><ele>491.0</ele><time>2026-04-18T12:23:35.281Z</time></trkpt><trkpt lat="44.1048483" lon="11.5567783"><ele>491.25</ele><time>2026-04-18T12:23:36.28Z</time></trkpt><trkpt lat="44.1047567" lon="11.5568733"><ele>491.5</ele><time>2026-04-18T12:23:37.281Z</time></trkpt><trkpt lat="44.1046817" lon="11.5570217"><ele>491.75</ele><time>2026-04-18T12:23:38.28Z</time></trkpt><trkpt lat="44.1046217" lon="11.55721"><ele>492.0</ele><time>2026-04-18T12:23:39.28Z</time></trkpt><trkpt lat="44.1045583" lon="11.5574117"><ele>492.0</ele><time>2026-04-18T12:23:40.28Z</time></trkpt><trkpt lat="44.1044567" lon="11.5576117"><ele>492.0</ele><time>2026-04-18T12:23:41.279Z</time></trkpt><trkpt lat="44.1043183" lon="11.5577883"><ele>492.0</ele><time>2026-04-18T12:23:42.279Z</time></trkpt><trkpt lat="44.1041717" lon="11.5579383"><ele>494.33333333333337</ele><time>2026-04-18T12:23:43.279Z</time></trkpt><trkpt lat="44.1039967" lon="11.5580717"><ele>496.6666666666667</ele><time>2026-04-18T12:23:44.282Z</time></trkpt><trkpt lat="44.1038133" lon="11.5581933"><ele>499.0</ele><time>2026-04-18T12:23:45.281Z</time></trkpt><trkpt lat="44.103635" lon="11.5582933"><ele>499.0</ele><time>2026-04-18T12:23:46.28Z</time></trkpt><trkpt lat="44.1034483" lon="11.5583983"><ele>499.0</ele><time>2026-04-18T12:23:47.281Z</time></trkpt><trkpt lat="44.103275" lon="11.5585183"><ele>499.0</ele><time>2026-04-18T12:23:48.282Z</time></trkpt><trkpt lat="44.1031133" lon="11.5586667"><ele>499.33333333333337</ele><time>2026-04-18T12:23:49.28Z</time></trkpt><trkpt lat="44.10297" lon="11.5588417"><ele>499.66666666666663</ele><time>2026-04-18T12:23:50.281Z</time></trkpt><trkpt lat="44.102845" lon="11.5590333"><ele>500.0</ele><time>2026-04-18T12:23:51.28Z</time></trkpt><trkpt lat="44.1027317" lon="11.55925"><ele>500.0</ele><time>2026-04-18T12:23:52.281Z</time></trkpt><trkpt lat="44.1026367" lon="11.5594833"><ele>500.0</ele><time>2026-04-18T12:23:53.281Z</time></trkpt><trkpt lat="44.1025567" lon="11.5597167"><ele>500.0</ele><time>2026-04-18T12:23:54.283Z</time></trkpt><trkpt lat="44.1024867" lon="11.5599333"><ele>500.5</ele><time>2026-04-18T12:23:55.281Z</time></trkpt><trkpt lat="44.1024067" lon="11.5601167"><ele>501.0</ele><time>2026-04-18T12:23:56.282Z</time></trkpt><trkpt lat="44.1023117" lon="11.56025"><ele>501.5</ele><time>2026-04-18T12:23:57.281Z</time></trkpt><trkpt lat="44.1022083" lon="11.560335"><ele>502.0</ele><time>2026-04-18T12:23:58.282Z</time></trkpt><trkpt lat="44.1020967" lon="11.5603767"><ele>506.75</ele><time>2026-04-18T12:23:59.281Z</time></trkpt><trkpt lat="44.1019717" lon="11.560385"><ele>511.5</ele><time>2026-04-18T12:24:00.281Z</time></trkpt><trkpt lat="44.10184" lon="11.5603817"><ele>516.25</ele><time>2026-04-18T12:24:01.281Z</time></trkpt><trkpt lat="44.1017217" lon="11.5603767"><ele>521.0</ele><time>2026-04-18T12:24:02.282Z</time></trkpt><trkpt lat="44.1016117" lon="11.5603767"><ele>519.25</ele><time>2026-04-18T12:24:03.28Z</time></trkpt><trkpt lat="44.10151" lon="11.5604017"><ele>517.5</ele><time>2026-04-18T12:24:04.28Z</time></trkpt><trkpt lat="44.1014167" lon="11.5604567"><ele>515.75</ele><time>2026-04-18T12:24:05.28Z</time></trkpt><trkpt lat="44.1013267" lon="11.5605533"><ele>514.0</ele><time>2026-04-18T12:24:06.282Z</time></trkpt><trkpt lat="44.1012283" lon="11.5606817"><ele>514.0</ele><time>2026-04-18T12:24:07.28Z</time></trkpt><trkpt lat="44.10112" lon="11.5608317"><ele>514.0</ele><time>2026-04-18T12:24:08.281Z</time></trkpt><trkpt lat="44.1010067" lon="11.56099"><ele>514.0</ele><time>2026-04-18T12:24:09.281Z</time></trkpt><trkpt lat="44.1008983" lon="11.56115"><ele>515.0</ele><time>2026-04-18T12:24:10.281Z</time></trkpt><trkpt lat="44.1008017" lon="11.5613067"><ele>516.0</ele><time>2026-04-18T12:24:11.282Z</time></trkpt><trkpt lat="44.1007033" lon="11.561455"><ele>517.0</ele><time>2026-04-18T12:24:12.28Z</time></trkpt><trkpt lat="44.1006133" lon="11.5616033"><ele>518.0</ele><time>2026-04-18T12:24:13.279Z</time></trkpt><trkpt lat="44.10053" lon="11.56176"><ele>518.0</ele><time>2026-04-18T12:24:14.28Z</time></trkpt><trkpt lat="44.10045" lon="11.561925"><ele>518.0</ele><time>2026-04-18T12:24:15.28Z</time></trkpt><trkpt lat="44.100365" lon="11.56209"><ele>518.0</ele><time>2026-04-18T12:24:16.281Z</time></trkpt><trkpt lat="44.1002767" lon="11.56226"><ele>518.0</ele><time>2026-04-18T12:24:17.281Z</time></trkpt><trkpt lat="44.1001883" lon="11.5624283"><ele>519.75</ele><time>2026-04-18T12:24:18.279Z</time></trkpt><trkpt lat="44.1001083" lon="11.5625967"><ele>521.5</ele><time>2026-04-18T12:24:19.281Z</time></trkpt><trkpt lat="44.10004" lon="11.56277"><ele>523.25</ele><time>2026-04-18T12:24:20.279Z</time></trkpt><trkpt lat="44.0999917" lon="11.5629617"><ele>525.0</ele><time>2026-04-18T12:24:21.28Z</time></trkpt><trkpt lat="44.0999467" lon="11.5631733"><ele>525.3333333333334</ele><time>2026-04-18T12:24:22.28Z</time></trkpt><trkpt lat="44.0999067" lon="11.563395"><ele>525.6666666666667</ele><time>2026-04-18T12:24:23.28Z</time></trkpt><trkpt lat="44.0998733" lon="11.563615"><ele>526.0</ele><time>2026-04-18T12:24:24.282Z</time></trkpt><trkpt lat="44.099835" lon="11.563815"><ele>526.0</ele><time>2026-04-18T12:24:25.28Z</time></trkpt><trkpt lat="44.0997767" lon="11.5639983"><ele>526.0</ele><time>2026-04-18T12:24:26.281Z</time></trkpt><trkpt lat="44.099695" lon="11.56417"><ele>526.0</ele><time>2026-04-18T12:24:27.28Z</time></trkpt><trkpt lat="44.0996033" lon="11.5643483"><ele>526.0</ele><time>2026-04-18T12:24:28.279Z</time></trkpt><trkpt lat="44.0995" lon="11.5645317"><ele>528.0</ele><time>2026-04-18T12:24:29.281Z</time></trkpt><trkpt lat="44.0993967" lon="11.5647083"><ele>530.0</ele><time>2026-04-18T12:24:30.279Z</time></trkpt><trkpt lat="44.09931" lon="11.564865"><ele>532.0</ele><time>2026-04-18T12:24:31.28Z</time></trkpt><trkpt lat="44.0992467" lon="11.565005"><ele>534.0</ele><time>2026-04-18T12:24:32.282Z</time></trkpt><trkpt lat="44.0992167" lon="11.565145"><ele>534.0</ele><time>2026-04-18T12:24:33.28Z</time></trkpt><trkpt lat="44.0992433" lon="11.5653017"><ele>534.0</ele><time>2026-04-18T12:24:34.28Z</time></trkpt><trkpt lat="44.099305" lon="11.5654733"><ele>534.0</ele><time>2026-04-18T12:24:35.28Z</time></trkpt><trkpt lat="44.09939" lon="11.5656683"><ele>534.0</ele><time>2026-04-18T12:24:36.279Z</time></trkpt><trkpt lat="44.0994633" lon="11.56588"><ele>536.0</ele><time>2026-04-18T12:24:37.281Z</time></trkpt><trkpt lat="44.099535" lon="11.5661"><ele>538.0</ele><time>2026-04-18T12:24:38.28Z</time></trkpt><trkpt lat="44.0996033" lon="11.5663333"><ele>540.0</ele><time>2026-04-18T12:24:39.281Z</time></trkpt><trkpt lat="44.09965" lon="11.5665517"><ele>541.25</ele><time>2026-04-18T12:24:40.28Z</time></trkpt><trkpt lat="44.0996883" lon="11.5667567"><ele>542.5</ele><time>2026-04-18T12:24:41.28Z</time></trkpt><trkpt lat="44.0997183" lon="11.566945"><ele>543.75</ele><time>2026-04-18T12:24:42.28Z</time></trkpt><trkpt lat="44.0997583" lon="11.56711"><ele>545.0</ele><time>2026-04-18T12:24:43.28Z</time></trkpt><trkpt lat="44.099815" lon="11.56726"><ele>546.75</ele><time>2026-04-18T12:24:44.28Z</time></trkpt><trkpt lat="44.0999017" lon="11.5673817"><ele>548.5</ele><time>2026-04-18T12:24:45.279Z</time></trkpt><trkpt lat="44.1000167" lon="11.5674933"><ele>550.25</ele><time>2026-04-18T12:24:46.281Z</time></trkpt><trkpt lat="44.10016" lon="11.56762"><ele>552.0</ele><time>2026-04-18T12:24:47.282Z</time></trkpt><trkpt lat="44.1003183" lon="11.56775"><ele>552.0</ele><time>2026-04-18T12:24:48.282Z</time></trkpt><trkpt lat="44.1004833" lon="11.5678717"><ele>552.0</ele><time>2026-04-18T12:24:49.283Z</time></trkpt><trkpt lat="44.1006433" lon="11.5680067"><ele>552.0</ele><time>2026-04-18T12:24:50.282Z</time></trkpt><trkpt lat="44.100805" lon="11.5681617"><ele>554.6666666666666</ele><time>2026-04-18T12:24:51.281Z</time></trkpt><trkpt lat="44.1009633" lon="11.5683267"><ele>557.3333333333333</ele><time>2026-04-18T12:24:52.283Z</time></trkpt><trkpt lat="44.1011333" lon="11.5685067"><ele>560.0</ele><time>2026-04-18T12:24:53.281Z</time></trkpt><trkpt lat="44.101305" lon="11.5686683"><ele>561.6666666666666</ele><time>2026-04-18T12:24:54.281Z</time></trkpt><trkpt lat="44.10148" lon="11.5688183"><ele>563.3333333333334</ele><time>2026-04-18T12:24:55.281Z</time></trkpt><trkpt lat="44.1016583" lon="11.5689567"><ele>565.0</ele><time>2026-04-18T12:24:56.282Z</time></trkpt><trkpt lat="44.101825" lon="11.569085"><ele>566.3333333333334</ele><time>2026-04-18T12:24:57.281Z</time></trkpt><trkpt lat="44.1019817" lon="11.5692183"><ele>567.6666666666666</ele><time>2026-04-18T12:24:58.283Z</time></trkpt><trkpt lat="44.1021167" lon="11.569385"><ele>569.0</ele><time>2026-04-18T12:24:59.281Z</time></trkpt><trkpt lat="44.1022433" lon="11.5695733"><ele>572.3333333333333</ele><time>2026-04-18T12:25:00.281Z</time></trkpt><trkpt lat="44.102365" lon="11.5697833"><ele>575.6666666666666</ele><time>2026-04-18T12:25:01.281Z</time></trkpt><trkpt lat="44.1024817" lon="11.5700067"><ele>579.0</ele><time>2026-04-18T12:25:02.281Z</time></trkpt><trkpt lat="44.1025983" lon="11.57023"><ele>581.6666666666666</ele><time>2026-04-18T12:25:03.281Z</time></trkpt><trkpt lat="44.10271" lon="11.5704417"><ele>584.3333333333333</ele><time>2026-04-18T12:25:04.28Z</time></trkpt><trkpt lat="44.1028083" lon="11.57065"><ele>587.0</ele><time>2026-04-18T12:25:05.281Z</time></trkpt><trkpt lat="44.1028883" lon="11.5708383"><ele>587.0</ele><time>2026-04-18T12:25:06.282Z</time></trkpt><trkpt lat="44.10293" lon="11.5709883"><ele>587.0</ele><time>2026-04-18T12:25:07.282Z</time></trkpt><trkpt lat="44.102935" lon="11.5710967"><ele>587.0</ele><time>2026-04-18T12:25:08.281Z</time></trkpt><trkpt lat="44.1028833" lon="11.57118"><ele>587.0</ele><time>2026-04-18T12:25:09.28Z</time></trkpt><trkpt lat="44.1028217" lon="11.571235"><ele>587.0</ele><time>2026-04-18T12:25:10.279Z</time></trkpt><trkpt lat="44.102745" lon="11.5712683"><ele>587.0</ele><time>2026-04-18T12:25:11.278Z</time></trkpt><trkpt lat="44.1026567" lon="11.5712783"><ele>587.0</ele><time>2026-04-18T12:25:12.28Z</time></trkpt><trkpt lat="44.1025483" lon="11.5712317"><ele>587.0</ele><time>2026-04-18T12:25:13.282Z</time></trkpt><trkpt lat="44.1024333" lon="11.5711233"><ele>587.0</ele><time>2026-04-18T12:25:14.28Z</time></trkpt><trkpt lat="44.1022783" lon="11.570965"><ele>587.0</ele><time>2026-04-18T12:25:15.281Z</time></trkpt><trkpt lat="44.10214" lon="11.5708383"><ele>593.6666666666666</ele><time>2026-04-18T12:25:16.279Z</time></trkpt><trkpt lat="44.101995" lon="11.5707133"><ele>600.3333333333334</ele><time>2026-04-18T12:25:17.28Z</time></trkpt><trkpt lat="44.101855" lon="11.5705867"><ele>607.0</ele><time>2026-04-18T12:25:18.281Z</time></trkpt><trkpt lat="44.1017183" lon="11.570475"><ele>601.3333333333334</ele><time>2026-04-18T12:25:19.28Z</time></trkpt><trkpt lat="44.1015717" lon="11.5704067"><ele>595.6666666666666</ele><time>2026-04-18T12:25:20.28Z</time></trkpt><trkpt lat="44.1014167" lon="11.5703567"><ele>590.0</ele><time>2026-04-18T12:25:21.279Z</time></trkpt><trkpt lat="44.1012583" lon="11.5702917"><ele>590.0</ele><time>2026-04-18T12:25:22.281Z</time></trkpt><trkpt lat="44.1011117" lon="11.5702233"><ele>590.0</ele><time>2026-04-18T12:25:23.281Z</time></trkpt><trkpt lat="44.10097" lon="11.57018"><ele>590.0</ele><time>2026-04-18T12:25:24.28Z</time></trkpt><trkpt lat="44.1008133" lon="11.5701733"><ele>595.3333333333333</ele><time>2026-04-18T12:25:25.281Z</time></trkpt><trkpt lat="44.10065" lon="11.57018"><ele>600.6666666666666</ele><time>2026-04-18T12:25:26.279Z</time></trkpt><trkpt lat="44.1004517" lon="11.570165"><ele>606.0</ele><time>2026-04-18T12:25:27.281Z</time></trkpt><trkpt lat="44.100275" lon="11.5701217"><ele>606.0</ele><time>2026-04-18T12:25:28.281Z</time></trkpt><trkpt lat="44.10013" lon="11.5700317"><ele>606.0</ele><time>2026-04-18T12:25:29.28Z</time></trkpt><trkpt lat="44.1" lon="11.5699183"><ele>606.0</ele><time>2026-04-18T12:25:30.28Z</time></trkpt><trkpt lat="44.0998767" lon="11.5697917"><ele>605.5</ele><time>2026-04-18T12:25:31.278Z</time></trkpt><trkpt lat="44.0997467" lon="11.5696833"><ele>605.0</ele><time>2026-04-18T12:25:32.28Z</time></trkpt><trkpt lat="44.09962" lon="11.5696133"><ele>604.5</ele><time>2026-04-18T12:25:33.281Z</time></trkpt><trkpt lat="44.099505" lon="11.56959"><ele>604.0</ele><time>2026-04-18T12:25:34.28Z</time></trkpt><trkpt lat="44.099405" lon="11.5696083"><ele>604.0</ele><time>2026-04-18T12:25:35.281Z</time></trkpt><trkpt lat="44.09931" lon="11.5696833"><ele>604.0</ele><time>2026-04-18T12:25:36.28Z</time></trkpt><trkpt lat="44.0992317" lon="11.5698017"><ele>604.0</ele><time>2026-04-18T12:25:37.281Z</time></trkpt><trkpt lat="44.0991733" lon="11.5699533"><ele>604.0</ele><time>2026-04-18T12:25:38.281Z</time></trkpt><trkpt lat="44.0991733" lon="11.5701267"><ele>604.0</ele><time>2026-04-18T12:25:39.28Z</time></trkpt><trkpt lat="44.0992383" lon="11.5703283"><ele>604.0</ele><time>2026-04-18T12:25:40.28Z</time></trkpt><trkpt lat="44.0993133" lon="11.5705667"><ele>604.0</ele><time>2026-04-18T12:25:41.279Z</time></trkpt><trkpt lat="44.0993583" lon="11.5708117"><ele>606.0</ele><time>2026-04-18T12:25:42.28Z</time></trkpt><trkpt lat="44.09939" lon="11.571075"><ele>608.0</ele><time>2026-04-18T12:25:43.28Z</time></trkpt><trkpt lat="44.0994" lon="11.571345"><ele>610.0</ele><time>2026-04-18T12:25:44.28Z</time></trkpt><trkpt lat="44.09937" lon="11.571615"><ele>612.6666666666667</ele><time>2026-04-18T12:25:45.28Z</time></trkpt><trkpt lat="44.09933" lon="11.5718617"><ele>615.3333333333334</ele><time>2026-04-18T12:25:46.28Z</time></trkpt><trkpt lat="44.0992967" lon="11.5720967"><ele>618.0</ele><time>2026-04-18T12:25:47.28Z</time></trkpt><trkpt lat="44.099295" lon="11.572315"><ele>620.8</ele><time>2026-04-18T12:25:48.281Z</time></trkpt><trkpt lat="44.09932" lon="11.5725033"><ele>623.5999999999999</ele><time>2026-04-18T12:25:49.282Z</time></trkpt><trkpt lat="44.0993317" lon="11.572645"><ele>626.4000000000001</ele><time>2026-04-18T12:25:50.281Z</time></trkpt><trkpt lat="44.0993167" lon="11.572755"><ele>629.2</ele><time>2026-04-18T12:25:51.28Z</time></trkpt><trkpt lat="44.099285" lon="11.57284"><ele>632.0</ele><time>2026-04-18T12:25:52.281Z</time></trkpt><trkpt lat="44.0991967" lon="11.572935"><ele>638.6666666666666</ele><time>2026-04-18T12:25:54.278Z</time></trkpt><trkpt lat="44.09912" lon="11.5729233"><ele>645.3333333333334</ele><time>2026-04-18T12:25:55.281Z</time></trkpt><trkpt lat="44.09889" lon="11.572635"><ele>652.0</ele><time>2026-04-18T12:25:56.28Z</time></trkpt><trkpt lat="44.0987117" lon="11.57241"><ele>652.0</ele><time>2026-04-18T12:25:57.28Z</time></trkpt><trkpt lat="44.0985583" lon="11.5722"><ele>652.0</ele><time>2026-04-18T12:25:58.279Z</time></trkpt><trkpt lat="44.0983967" lon="11.5719783"><ele>652.0</ele><time>2026-04-18T12:25:59.28Z</time></trkpt><trkpt lat="44.098255" lon="11.5717717"><ele>650.75</ele><time>2026-04-18T12:26:00.281Z</time></trkpt><trkpt lat="44.0981417" lon="11.5716017"><ele>649.5</ele><time>2026-04-18T12:26:01.281Z</time></trkpt><trkpt lat="44.0980567" lon="11.5714783"><ele>648.25</ele><time>2026-04-18T12:26:02.279Z</time></trkpt><trkpt lat="44.0979733" lon="11.5714017"><ele>647.0</ele><time>2026-04-18T12:26:03.28Z</time></trkpt><trkpt lat="44.0979017" lon="11.5714383"><ele>647.0</ele><time>2026-04-18T12:26:04.281Z</time></trkpt><trkpt lat="44.0978367" lon="11.5715117"><ele>647.0</ele><time>2026-04-18T12:26:05.28Z</time></trkpt><trkpt lat="44.097775" lon="11.5716383"><ele>647.0</ele><time>2026-04-18T12:26:06.279Z</time></trkpt><trkpt lat="44.0976917" lon="11.5717967"><ele>647.0</ele><time>2026-04-18T12:26:07.28Z</time></trkpt><trkpt lat="44.0975917" lon="11.571955"><ele>647.0</ele><time>2026-04-18T12:26:08.282Z</time></trkpt><trkpt lat="44.0975033" lon="11.5720633"><ele>647.0</ele><time>2026-04-18T12:26:09.28Z</time></trkpt><trkpt lat="44.0974183" lon="11.5721033"><ele>647.0</ele><time>2026-04-18T12:26:10.281Z</time></trkpt><trkpt lat="44.097315" lon="11.572095"><ele>647.0</ele><time>2026-04-18T12:26:11.278Z</time></trkpt><trkpt lat="44.0971883" lon="11.5719883"><ele>647.0</ele><time>2026-04-18T12:26:12.278Z</time></trkpt><trkpt lat="44.0970667" lon="11.5718783"><ele>647.0</ele><time>2026-04-18T12:26:13.278Z</time></trkpt><trkpt lat="44.0969517" lon="11.5718083"><ele>647.0</ele><time>2026-04-18T12:26:14.279Z</time></trkpt><trkpt lat="44.0968417" lon="11.5717833"><ele>647.0</ele><time>2026-04-18T12:26:15.279Z</time></trkpt><trkpt lat="44.0967433" lon="11.5718117"><ele>647.0</ele><time>2026-04-18T12:26:16.278Z</time></trkpt><trkpt lat="44.09666" lon="11.571895"><ele>647.0</ele><time>2026-04-18T12:26:17.279Z</time></trkpt><trkpt lat="44.0965817" lon="11.5720417"><ele>647.0</ele><time>2026-04-18T12:26:18.279Z</time></trkpt><trkpt lat="44.0965367" lon="11.57226"><ele>647.0</ele><time>2026-04-18T12:26:19.28Z</time></trkpt><trkpt lat="44.09648" lon="11.5724917"><ele>645.0</ele><time>2026-04-18T12:26:20.28Z</time></trkpt><trkpt lat="44.09642" lon="11.572695"><ele>643.0</ele><time>2026-04-18T12:26:21.281Z</time></trkpt><trkpt lat="44.0963783" lon="11.5728767"><ele>641.0</ele><time>2026-04-18T12:26:22.281Z</time></trkpt><trkpt lat="44.0963683" lon="11.5730483"><ele>639.0</ele><time>2026-04-18T12:26:23.281Z</time></trkpt><trkpt lat="44.0964" lon="11.5731967"><ele>639.0</ele><time>2026-04-18T12:26:24.282Z</time></trkpt><trkpt lat="44.0964833" lon="11.573315"><ele>639.0</ele><time>2026-04-18T12:26:25.281Z</time></trkpt><trkpt lat="44.0966017" lon="11.5733867"><ele>639.0</ele><time>2026-04-18T12:26:26.283Z</time></trkpt><trkpt lat="44.0967383" lon="11.5734733"><ele>639.0</ele><time>2026-04-18T12:26:27.281Z</time></trkpt><trkpt lat="44.0968333" lon="11.5735867"><ele>644.75</ele><time>2026-04-18T12:26:28.282Z</time></trkpt><trkpt lat="44.0969067" lon="11.5737317"><ele>650.5</ele><time>2026-04-18T12:26:29.281Z</time></trkpt><trkpt lat="44.0969333" lon="11.5739233"><ele>656.25</ele><time>2026-04-18T12:26:30.282Z</time></trkpt><trkpt lat="44.0969233" lon="11.5741433"><ele>662.0</ele><time>2026-04-18T12:26:31.281Z</time></trkpt><trkpt lat="44.0968867" lon="11.574365"><ele>665.5</ele><time>2026-04-18T12:26:32.28Z</time></trkpt><trkpt lat="44.09685" lon="11.5745783"><ele>669.0</ele><time>2026-04-18T12:26:33.28Z</time></trkpt><trkpt lat="44.0968483" lon="11.574775"><ele>672.5</ele><time>2026-04-18T12:26:34.28Z</time></trkpt><trkpt lat="44.096825" lon="11.5749533"><ele>676.0</ele><time>2026-04-18T12:26:35.282Z</time></trkpt><trkpt lat="44.0967883" lon="11.5751133"><ele>676.0</ele><time>2026-04-18T12:26:36.281Z</time></trkpt><trkpt lat="44.0967233" lon="11.5752517"><ele>676.0</ele><time>2026-04-18T12:26:37.279Z</time></trkpt><trkpt lat="44.09664" lon="11.5753583"><ele>676.0</ele><time>2026-04-18T12:26:38.281Z</time></trkpt><trkpt lat="44.096515" lon="11.575435"><ele>676.0</ele><time>2026-04-18T12:26:39.28Z</time></trkpt><trkpt lat="44.096415" lon="11.5755383"><ele>674.5999999999999</ele><time>2026-04-18T12:26:40.28Z</time></trkpt><trkpt lat="44.0963317" lon="11.5756633"><ele>673.2</ele><time>2026-04-18T12:26:41.28Z</time></trkpt><trkpt lat="44.0962633" lon="11.5758"><ele>671.8</ele><time>2026-04-18T12:26:42.281Z</time></trkpt><trkpt lat="44.0962317" lon="11.5759367"><ele>670.4000000000001</ele><time>2026-04-18T12:26:43.281Z</time></trkpt><trkpt lat="44.0962267" lon="11.5760717"><ele>669.0</ele><time>2026-04-18T12:26:44.281Z</time></trkpt><trkpt lat="44.0962583" lon="11.5762167"><ele>669.0</ele><time>2026-04-18T12:26:45.281Z</time></trkpt><trkpt lat="44.096295" lon="11.5763533"><ele>669.0</ele><time>2026-04-18T12:26:46.28Z</time></trkpt><trkpt lat="44.0963267" lon="11.5764783"><ele>669.0</ele><time>2026-04-18T12:26:47.282Z</time></trkpt><trkpt lat="44.0963617" lon="11.576605"><ele>669.0</ele><time>2026-04-18T12:26:48.28Z</time></trkpt><trkpt lat="44.0964033" lon="11.5767333"><ele>669.0</ele><time>2026-04-18T12:26:49.281Z</time></trkpt><trkpt lat="44.0964517" lon="11.5768817"><ele>671.75</ele><time>2026-04-18T12:26:50.28Z</time></trkpt><trkpt lat="44.0965133" lon="11.5770417"><ele>674.5</ele><time>2026-04-18T12:26:51.28Z</time></trkpt><trkpt lat="44.0965867" lon="11.5772067"><ele>677.25</ele><time>2026-04-18T12:26:52.281Z</time></trkpt><trkpt lat="44.0966717" lon="11.5773783"><ele>680.0</ele><time>2026-04-18T12:26:53.281Z</time></trkpt><trkpt lat="44.0967567" lon="11.5775467"><ele>682.75</ele><time>2026-04-18T12:26:54.28Z</time></trkpt><trkpt lat="44.0968333" lon="11.5777033"><ele>685.5</ele><time>2026-04-18T12:26:55.282Z</time></trkpt><trkpt lat="44.0968983" lon="11.5778533"><ele>688.25</ele><time>2026-04-18T12:26:56.281Z</time></trkpt><trkpt lat="44.0969433" lon="11.5780083"><ele>691.0</ele><time>2026-04-18T12:26:57.28Z</time></trkpt><trkpt lat="44.0969533" lon="11.578155"><ele>692.1999999999999</ele><time>2026-04-18T12:26:58.28Z</time></trkpt><trkpt lat="44.0969283" lon="11.578265"><ele>693.4</ele><time>2026-04-18T12:26:59.281Z</time></trkpt><trkpt lat="44.0968867" lon="11.5783617"><ele>694.6</ele><time>2026-04-18T12:27:00.279Z</time></trkpt><trkpt lat="44.0968217" lon="11.578435"><ele>695.8</ele><time>2026-04-18T12:27:01.28Z</time></trkpt><trkpt lat="44.0967417" lon="11.578485"><ele>697.0</ele><time>2026-04-18T12:27:02.282Z</time></trkpt><trkpt lat="44.0966217" lon="11.5785117"><ele>701.5</ele><time>2026-04-18T12:27:03.28Z</time></trkpt><trkpt lat="44.096345" lon="11.5784333"><ele>706.0</ele><time>2026-04-18T12:27:04.281Z</time></trkpt><trkpt lat="44.0961283" lon="11.5783633"><ele>706.0</ele><time>2026-04-18T12:27:05.281Z</time></trkpt><trkpt lat="44.09591" lon="11.578245"><ele>706.0</ele><time>2026-04-18T12:27:06.28Z</time></trkpt><trkpt lat="44.0957417" lon="11.5781333"><ele>706.0</ele><time>2026-04-18T12:27:07.28Z</time></trkpt><trkpt lat="44.0956133" lon="11.5780567"><ele>703.75</ele><time>2026-04-18T12:27:08.281Z</time></trkpt><trkpt lat="44.0954917" lon="11.5780167"><ele>701.5</ele><time>2026-04-18T12:27:09.28Z</time></trkpt><trkpt lat="44.0953567" lon="11.5780183"><ele>699.25</ele><time>2026-04-18T12:27:10.28Z</time></trkpt><trkpt lat="44.09524" lon="11.578075"><ele>697.0</ele><time>2026-04-18T12:27:11.28Z</time></trkpt><trkpt lat="44.0951483" lon="11.5781917"><ele>697.0</ele><time>2026-04-18T12:27:12.28Z</time></trkpt><trkpt lat="44.0950717" lon="11.5783417"><ele>697.0</ele><time>2026-04-18T12:27:13.281Z</time></trkpt><trkpt lat="44.0950183" lon="11.578525"><ele>697.0</ele><time>2026-04-18T12:27:14.283Z</time></trkpt><trkpt lat="44.0949583" lon="11.5787383"><ele>697.0</ele><time>2026-04-18T12:27:15.281Z</time></trkpt><trkpt lat="44.0948933" lon="11.5789683"><ele>690.6666666666667</ele><time>2026-04-18T12:27:16.281Z</time></trkpt><trkpt lat="44.094845" lon="11.5792083"><ele>684.3333333333334</ele><time>2026-04-18T12:27:17.281Z</time></trkpt><trkpt lat="44.0948183" lon="11.5794717"><ele>678.0</ele><time>2026-04-18T12:27:18.281Z</time></trkpt><trkpt lat="44.0948" lon="11.5797283"><ele>678.0</ele><time>2026-04-18T12:27:19.28Z</time></trkpt><trkpt lat="44.09476" lon="11.5799817"><ele>678.0</ele><time>2026-04-18T12:27:20.282Z</time></trkpt><trkpt lat="44.0946967" lon="11.580215"><ele>678.0</ele><time>2026-04-18T12:27:21.281Z</time></trkpt><trkpt lat="44.09465" lon="11.5804417"><ele>680.0</ele><time>2026-04-18T12:27:22.281Z</time></trkpt><trkpt lat="44.0946283" lon="11.5806767"><ele>682.0</ele><time>2026-04-18T12:27:23.281Z</time></trkpt><trkpt lat="44.0946283" lon="11.5808933"><ele>684.0</ele><time>2026-04-18T12:27:24.28Z</time></trkpt><trkpt lat="44.094635" lon="11.5810917"><ele>686.0</ele><time>2026-04-18T12:27:25.28Z</time></trkpt><trkpt lat="44.094625" lon="11.5812733"><ele>688.0</ele><time>2026-04-18T12:27:26.283Z</time></trkpt><trkpt lat="44.0945983" lon="11.5814367"><ele>690.0</ele><time>2026-04-18T12:27:27.281Z</time></trkpt><trkpt lat="44.09453" lon="11.5815767"><ele>692.0</ele><time>2026-04-18T12:27:28.281Z</time></trkpt><trkpt lat="44.0944467" lon="11.58168"><ele>692.0</ele><time>2026-04-18T12:27:29.28Z</time></trkpt><trkpt lat="44.0943317" lon="11.5817533"><ele>692.0</ele><time>2026-04-18T12:27:30.281Z</time></trkpt><trkpt lat="44.0941883" lon="11.581765"><ele>692.0</ele><time>2026-04-18T12:27:31.28Z</time></trkpt><trkpt lat="44.094045" lon="11.581745"><ele>692.0</ele><time>2026-04-18T12:27:32.28Z</time></trkpt><trkpt lat="44.093895" lon="11.5817367"><ele>690.3333333333333</ele><time>2026-04-18T12:27:33.281Z</time></trkpt><trkpt lat="44.0937417" lon="11.58178"><ele>688.6666666666666</ele><time>2026-04-18T12:27:34.281Z</time></trkpt><trkpt lat="44.0935733" lon="11.5818717"><ele>687.0</ele><time>2026-04-18T12:27:35.281Z</time></trkpt><trkpt lat="44.0934" lon="11.5819883"><ele>690.0</ele><time>2026-04-18T12:27:36.281Z</time></trkpt><trkpt lat="44.0932183" lon="11.582115"><ele>693.0</ele><time>2026-04-18T12:27:37.282Z</time></trkpt><trkpt lat="44.0930317" lon="11.582245"><ele>696.0</ele><time>2026-04-18T12:27:38.282Z</time></trkpt><trkpt lat="44.0928567" lon="11.5823817"><ele>696.0</ele><time>2026-04-18T12:27:39.282Z</time></trkpt><trkpt lat="44.0927083" lon="11.582525"><ele>696.0</ele><time>2026-04-18T12:27:40.282Z</time></trkpt><trkpt lat="44.09258" lon="11.58266"><ele>696.0</ele><time>2026-04-18T12:27:41.28Z</time></trkpt><trkpt lat="44.0924567" lon="11.58277"><ele>695.25</ele><time>2026-04-18T12:27:42.282Z</time></trkpt><trkpt lat="44.092335" lon="11.58283"><ele>694.5</ele><time>2026-04-18T12:27:43.281Z</time></trkpt><trkpt lat="44.0922117" lon="11.5828383"><ele>693.75</ele><time>2026-04-18T12:27:44.281Z</time></trkpt><trkpt lat="44.092105" lon="11.582735"><ele>693.0</ele><time>2026-04-18T12:27:45.281Z</time></trkpt><trkpt lat="44.0920217" lon="11.582645"><ele>693.0</ele><time>2026-04-18T12:27:46.281Z</time></trkpt><trkpt lat="44.0919367" lon="11.5825717"><ele>693.0</ele><time>2026-04-18T12:27:47.28Z</time></trkpt><trkpt lat="44.0918433" lon="11.5825333"><ele>693.0</ele><time>2026-04-18T12:27:48.282Z</time></trkpt><trkpt lat="44.091745" lon="11.58251"><ele>693.0</ele><time>2026-04-18T12:27:49.281Z</time></trkpt><trkpt lat="44.09167" lon="11.582555"><ele>693.0</ele><time>2026-04-18T12:27:50.28Z</time></trkpt><trkpt lat="44.0916183" lon="11.58266"><ele>692.25</ele><time>2026-04-18T12:27:51.281Z</time></trkpt><trkpt lat="44.0915933" lon="11.5828633"><ele>691.5</ele><time>2026-04-18T12:27:52.279Z</time></trkpt><trkpt lat="44.0915233" lon="11.5830317"><ele>690.75</ele><time>2026-04-18T12:27:53.28Z</time></trkpt><trkpt lat="44.091435" lon="11.5831817"><ele>690.0</ele><time>2026-04-18T12:27:54.282Z</time></trkpt><trkpt lat="44.0913333" lon="11.5833083"><ele>690.0</ele><time>2026-04-18T12:27:55.28Z</time></trkpt><trkpt lat="44.0912067" lon="11.5834083"><ele>690.0</ele><time>2026-04-18T12:27:56.281Z</time></trkpt><trkpt lat="44.09105" lon="11.58351"><ele>690.0</ele><time>2026-04-18T12:27:57.28Z</time></trkpt><trkpt lat="44.0908967" lon="11.5836317"><ele>688.3333333333334</ele><time>2026-04-18T12:27:58.282Z</time></trkpt><trkpt lat="44.090745" lon="11.583775"><ele>686.6666666666667</ele><time>2026-04-18T12:27:59.281Z</time></trkpt><trkpt lat="44.0905967" lon="11.5839317"><ele>685.0</ele><time>2026-04-18T12:28:00.28Z</time></trkpt><trkpt lat="44.09047" lon="11.5840983"><ele>685.0</ele><time>2026-04-18T12:28:01.28Z</time></trkpt><trkpt lat="44.090375" lon="11.58427"><ele>685.0</ele><time>2026-04-18T12:28:02.28Z</time></trkpt><trkpt lat="44.0903017" lon="11.584435"><ele>685.0</ele><time>2026-04-18T12:28:03.28Z</time></trkpt><trkpt lat="44.0902383" lon="11.58457"><ele>685.0</ele><time>2026-04-18T12:28:04.281Z</time></trkpt><trkpt lat="44.090165" lon="11.5846683"><ele>689.0</ele><time>2026-04-18T12:28:05.28Z</time></trkpt><trkpt lat="44.0900667" lon="11.5847267"><ele>693.0</ele><time>2026-04-18T12:28:06.28Z</time></trkpt><trkpt lat="44.0899467" lon="11.5847367"><ele>697.0</ele><time>2026-04-18T12:28:07.281Z</time></trkpt><trkpt lat="44.0898033" lon="11.5847033"><ele>701.0</ele><time>2026-04-18T12:28:08.281Z</time></trkpt><trkpt lat="44.08964" lon="11.5846533"><ele>701.0</ele><time>2026-04-18T12:28:09.281Z</time></trkpt><trkpt lat="44.0894917" lon="11.584605"><ele>701.0</ele><time>2026-04-18T12:28:10.283Z</time></trkpt><trkpt lat="44.08936" lon="11.584545"><ele>701.0</ele><time>2026-04-18T12:28:11.281Z</time></trkpt><trkpt lat="44.0892517" lon="11.5845183"><ele>701.0</ele><time>2026-04-18T12:28:12.282Z</time></trkpt><trkpt lat="44.0891533" lon="11.584525"><ele>695.75</ele><time>2026-04-18T12:28:13.281Z</time></trkpt><trkpt lat="44.08906" lon="11.5845883"><ele>690.5</ele><time>2026-04-18T12:28:14.279Z</time></trkpt><trkpt lat="44.08897" lon="11.5847133"><ele>685.25</ele><time>2026-04-18T12:28:15.28Z</time></trkpt><trkpt lat="44.0888783" lon="11.584885"><ele>680.0</ele><time>2026-04-18T12:28:16.28Z</time></trkpt><trkpt lat="44.088785" lon="11.585075"><ele>680.0</ele><time>2026-04-18T12:28:17.282Z</time></trkpt><trkpt lat="44.0887017" lon="11.58526"><ele>680.0</ele><time>2026-04-18T12:28:18.282Z</time></trkpt><trkpt lat="44.0886333" lon="11.5854333"><ele>680.0</ele><time>2026-04-18T12:28:19.282Z</time></trkpt><trkpt lat="44.0886" lon="11.5856083"><ele>680.0</ele><time>2026-04-18T12:28:20.281Z</time></trkpt><trkpt lat="44.088585" lon="11.5857883"><ele>680.0</ele><time>2026-04-18T12:28:21.281Z</time></trkpt><trkpt lat="44.08857" lon="11.58597"><ele>680.0</ele><time>2026-04-18T12:28:22.282Z</time></trkpt><trkpt lat="44.0885233" lon="11.586115"><ele>680.0</ele><time>2026-04-18T12:28:23.283Z</time></trkpt><trkpt lat="44.088445" lon="11.5862417"><ele>680.0</ele><time>2026-04-18T12:28:24.281Z</time></trkpt><trkpt lat="44.088345" lon="11.5863417"><ele>678.6666666666666</ele><time>2026-04-18T12:28:25.282Z</time></trkpt><trkpt lat="44.0881883" lon="11.586395"><ele>677.3333333333334</ele><time>2026-04-18T12:28:26.282Z</time></trkpt><trkpt lat="44.08801" lon="11.5864217"><ele>676.0</ele><time>2026-04-18T12:28:27.282Z</time></trkpt><trkpt lat="44.0878283" lon="11.5864333"><ele>676.0</ele><time>2026-04-18T12:28:28.282Z</time></trkpt><trkpt lat="44.0876683" lon="11.58647"><ele>676.0</ele><time>2026-04-18T12:28:29.282Z</time></trkpt><trkpt lat="44.0875117" lon="11.5865433"><ele>676.0</ele><time>2026-04-18T12:28:30.282Z</time></trkpt><trkpt lat="44.087355" lon="11.5866617"><ele>672.5</ele><time>2026-04-18T12:28:31.282Z</time></trkpt><trkpt lat="44.0872217" lon="11.5867817"><ele>669.0</ele><time>2026-04-18T12:28:32.282Z</time></trkpt><trkpt lat="44.08711" lon="11.586905"><ele>665.5</ele><time>2026-04-18T12:28:33.282Z</time></trkpt><trkpt lat="44.0870217" lon="11.5870383"><ele>662.0</ele><time>2026-04-18T12:28:34.281Z</time></trkpt><trkpt lat="44.0869683" lon="11.5871933"><ele>662.0</ele><time>2026-04-18T12:28:35.282Z</time></trkpt><trkpt lat="44.0869417" lon="11.587355"><ele>662.0</ele><time>2026-04-18T12:28:36.281Z</time></trkpt><trkpt lat="44.0869533" lon="11.58753"><ele>662.0</ele><time>2026-04-18T12:28:37.281Z</time></trkpt><trkpt lat="44.0869467" lon="11.587695"><ele>662.0</ele><time>2026-04-18T12:28:38.28Z</time></trkpt><trkpt lat="44.0869183" lon="11.587825"><ele>659.75</ele><time>2026-04-18T12:28:39.279Z</time></trkpt><trkpt lat="44.0868583" lon="11.587915"><ele>657.5</ele><time>2026-04-18T12:28:40.28Z</time></trkpt><trkpt lat="44.0867617" lon="11.5879683"><ele>655.25</ele><time>2026-04-18T12:28:41.28Z</time></trkpt><trkpt lat="44.0866517" lon="11.5880267"><ele>653.0</ele><time>2026-04-18T12:28:42.28Z</time></trkpt><trkpt lat="44.08653" lon="11.5881367"><ele>653.0</ele><time>2026-04-18T12:28:43.282Z</time></trkpt><trkpt lat="44.0864033" lon="11.58829"><ele>653.0</ele><time>2026-04-18T12:28:44.282Z</time></trkpt><trkpt lat="44.086285" lon="11.588465"><ele>653.0</ele><time>2026-04-18T12:28:45.281Z</time></trkpt><trkpt lat="44.0861867" lon="11.5886567"><ele>655.0</ele><time>2026-04-18T12:28:46.282Z</time></trkpt><trkpt lat="44.0861133" lon="11.588855"><ele>657.0</ele><time>2026-04-18T12:28:47.282Z</time></trkpt><trkpt lat="44.0860783" lon="11.58906"><ele>659.0</ele><time>2026-04-18T12:28:48.284Z</time></trkpt><trkpt lat="44.086065" lon="11.589285"><ele>658.6666666666666</ele><time>2026-04-18T12:28:49.28Z</time></trkpt><trkpt lat="44.0860783" lon="11.5895183"><ele>658.3333333333334</ele><time>2026-04-18T12:28:50.28Z</time></trkpt><trkpt lat="44.0861217" lon="11.5897533"><ele>658.0</ele><time>2026-04-18T12:28:51.28Z</time></trkpt><trkpt lat="44.0861717" lon="11.5899833"><ele>658.0</ele><time>2026-04-18T12:28:52.279Z</time></trkpt><trkpt lat="44.0862283" lon="11.590205"><ele>658.0</ele><time>2026-04-18T12:28:53.28Z</time></trkpt><trkpt lat="44.0862667" lon="11.5904167"><ele>658.0</ele><time>2026-04-18T12:28:54.28Z</time></trkpt><trkpt lat="44.08627" lon="11.5906217"><ele>658.25</ele><time>2026-04-18T12:28:55.28Z</time></trkpt><trkpt lat="44.0862267" lon="11.590815"><ele>658.5</ele><time>2026-04-18T12:28:56.28Z</time></trkpt><trkpt lat="44.0861483" lon="11.5909717"><ele>658.75</ele><time>2026-04-18T12:28:57.28Z</time></trkpt><trkpt lat="44.08606" lon="11.5910733"><ele>659.0</ele><time>2026-04-18T12:28:58.281Z</time></trkpt><trkpt lat="44.0859667" lon="11.5911267"><ele>659.0</ele><time>2026-04-18T12:28:59.28Z</time></trkpt><trkpt lat="44.0858733" lon="11.59112"><ele>659.0</ele><time>2026-04-18T12:29:00.28Z</time></trkpt><trkpt lat="44.0857867" lon="11.5910583"><ele>659.0</ele><time>2026-04-18T12:29:01.278Z</time></trkpt><trkpt lat="44.08574" lon="11.59094"><ele>659.0</ele><time>2026-04-18T12:29:02.28Z</time></trkpt><trkpt lat="44.08573" lon="11.5907833"><ele>659.0</ele><time>2026-04-18T12:29:03.28Z</time></trkpt><trkpt lat="44.085755" lon="11.59058"><ele>659.0</ele><time>2026-04-18T12:29:04.28Z</time></trkpt><trkpt lat="44.0857733" lon="11.5903883"><ele>659.0</ele><time>2026-04-18T12:29:05.281Z</time></trkpt><trkpt lat="44.085765" lon="11.5902"><ele>659.0</ele><time>2026-04-18T12:29:06.279Z</time></trkpt><trkpt lat="44.0857033" lon="11.5900283"><ele>659.0</ele><time>2026-04-18T12:29:07.279Z</time></trkpt><trkpt lat="44.0855883" lon="11.5898833"><ele>652.6666666666666</ele><time>2026-04-18T12:29:08.279Z</time></trkpt><trkpt lat="44.085445" lon="11.5897817"><ele>646.3333333333334</ele><time>2026-04-18T12:29:09.28Z</time></trkpt><trkpt lat="44.0852967" lon="11.5897083"><ele>640.0</ele><time>2026-04-18T12:29:10.281Z</time></trkpt><trkpt lat="44.0851633" lon="11.5896283"><ele>640.0</ele><time>2026-04-18T12:29:11.279Z</time></trkpt><trkpt lat="44.0850467" lon="11.5895183"><ele>640.0</ele><time>2026-04-18T12:29:12.28Z</time></trkpt><trkpt lat="44.0849567" lon="11.5893833"><ele>640.0</ele><time>2026-04-18T12:29:13.279Z</time></trkpt><trkpt lat="44.0848967" lon="11.5892167"><ele>640.0</ele><time>2026-04-18T12:29:14.28Z</time></trkpt><trkpt lat="44.084875" lon="11.58903"><ele>639.25</ele><time>2026-04-18T12:29:15.281Z</time></trkpt><trkpt lat="44.0848783" lon="11.588855"><ele>638.5</ele><time>2026-04-18T12:29:16.28Z</time></trkpt><trkpt lat="44.0849117" lon="11.5886817"><ele>637.75</ele><time>2026-04-18T12:29:17.28Z</time></trkpt><trkpt lat="44.084965" lon="11.5885367"><ele>637.0</ele><time>2026-04-18T12:29:18.28Z</time></trkpt><trkpt lat="44.08503" lon="11.5884167"><ele>637.0</ele><time>2026-04-18T12:29:19.28Z</time></trkpt><trkpt lat="44.0850833" lon="11.5883133"><ele>637.0</ele><time>2026-04-18T12:29:20.28Z</time></trkpt><trkpt lat="44.0851217" lon="11.58821"><ele>637.0</ele><time>2026-04-18T12:29:21.28Z</time></trkpt><trkpt lat="44.0850917" lon="11.5881083"><ele>637.0</ele><time>2026-04-18T12:29:22.28Z</time></trkpt><trkpt lat="44.08506" lon="11.58802"><ele>637.0</ele><time>2026-04-18T12:29:23.279Z</time></trkpt><trkpt lat="44.0849617" lon="11.5880317"><ele>637.0</ele><time>2026-04-18T12:29:24.28Z</time></trkpt><trkpt lat="44.0848533" lon="11.5880483"><ele>631.75</ele><time>2026-04-18T12:29:25.28Z</time></trkpt><trkpt lat="44.0847383" lon="11.5881067"><ele>626.5</ele><time>2026-04-18T12:29:26.28Z</time></trkpt><trkpt lat="44.0846333" lon="11.58821"><ele>621.25</ele><time>2026-04-18T12:29:27.279Z</time></trkpt><trkpt lat="44.0845417" lon="11.588355"><ele>616.0</ele><time>2026-04-18T12:29:28.28Z</time></trkpt><trkpt lat="44.08447" lon="11.58855"><ele>617.6666666666667</ele><time>2026-04-18T12:29:29.28Z</time></trkpt><trkpt lat="44.084395" lon="11.5887717"><ele>619.3333333333334</ele><time>2026-04-18T12:29:30.281Z</time></trkpt><trkpt lat="44.0843133" lon="11.588975"><ele>621.0</ele><time>2026-04-18T12:29:31.28Z</time></trkpt><trkpt lat="44.084245" lon="11.5891617"><ele>621.0</ele><time>2026-04-18T12:29:32.281Z</time></trkpt><trkpt lat="44.0841917" lon="11.58933"><ele>621.0</ele><time>2026-04-18T12:29:33.28Z</time></trkpt><trkpt lat="44.0841633" lon="11.589495"><ele>621.0</ele><time>2026-04-18T12:29:34.279Z</time></trkpt><trkpt lat="44.084165" lon="11.5896683"><ele>621.0</ele><time>2026-04-18T12:29:35.281Z</time></trkpt><trkpt lat="44.0842083" lon="11.58988"><ele>621.3333333333334</ele><time>2026-04-18T12:29:36.281Z</time></trkpt><trkpt lat="44.0842367" lon="11.5901017"><ele>621.6666666666667</ele><time>2026-04-18T12:29:37.279Z</time></trkpt><trkpt lat="44.0842217" lon="11.59033"><ele>622.0</ele><time>2026-04-18T12:29:38.279Z</time></trkpt><trkpt lat="44.0841717" lon="11.5905433"><ele>621.4</ele><time>2026-04-18T12:29:39.279Z</time></trkpt><trkpt lat="44.0841083" lon="11.59073"><ele>620.8000000000001</ele><time>2026-04-18T12:29:40.28Z</time></trkpt><trkpt lat="44.08406" lon="11.590885"><ele>620.2</ele><time>2026-04-18T12:29:41.28Z</time></trkpt><trkpt lat="44.084025" lon="11.5910017"><ele>619.6</ele><time>2026-04-18T12:29:42.281Z</time></trkpt><trkpt lat="44.08398" lon="11.5911"><ele>619.0</ele><time>2026-04-18T12:29:43.281Z</time></trkpt><trkpt lat="44.0838683" lon="11.5910767"><ele>614.5</ele><time>2026-04-18T12:29:45.279Z</time></trkpt><trkpt lat="44.0838183" lon="11.590955"><ele>610.0</ele><time>2026-04-18T12:29:46.28Z</time></trkpt><trkpt lat="44.08378" lon="11.5907783"><ele>605.5</ele><time>2026-04-18T12:29:47.279Z</time></trkpt><trkpt lat="44.0837383" lon="11.5905683"><ele>601.0</ele><time>2026-04-18T12:29:48.281Z</time></trkpt><trkpt lat="44.0836933" lon="11.59034"><ele>601.0</ele><time>2026-04-18T12:29:49.28Z</time></trkpt><trkpt lat="44.083655" lon="11.590125"><ele>601.0</ele><time>2026-04-18T12:29:50.281Z</time></trkpt><trkpt lat="44.0836183" lon="11.5899383"><ele>601.0</ele><time>2026-04-18T12:29:51.28Z</time></trkpt><trkpt lat="44.0835917" lon="11.5897667"><ele>601.0</ele><time>2026-04-18T12:29:52.281Z</time></trkpt><trkpt lat="44.08357" lon="11.5896167"><ele>600.0</ele><time>2026-04-18T12:29:53.281Z</time></trkpt><trkpt lat="44.083555" lon="11.589475"><ele>599.0</ele><time>2026-04-18T12:29:54.28Z</time></trkpt><trkpt lat="44.0835483" lon="11.589315"><ele>598.0</ele><time>2026-04-18T12:29:55.279Z</time></trkpt><trkpt lat="44.0835583" lon="11.5891383"><ele>597.0</ele><time>2026-04-18T12:29:56.28Z</time></trkpt><trkpt lat="44.0835833" lon="11.588985"><ele>597.0</ele><time>2026-04-18T12:29:57.28Z</time></trkpt><trkpt lat="44.0835867" lon="11.5888533"><ele>597.0</ele><time>2026-04-18T12:29:58.279Z</time></trkpt><trkpt lat="44.08355" lon="11.588755"><ele>597.0</ele><time>2026-04-18T12:29:59.279Z</time></trkpt><trkpt lat="44.083495" lon="11.5886983"><ele>597.0</ele><time>2026-04-18T12:30:00.28Z</time></trkpt><trkpt lat="44.083355" lon="11.5888267"><ele>597.0</ele><time>2026-04-18T12:30:02.282Z</time></trkpt><trkpt lat="44.0833017" lon="11.589"><ele>592.3333333333334</ele><time>2026-04-18T12:30:03.279Z</time></trkpt><trkpt lat="44.08326" lon="11.5891917"><ele>587.6666666666667</ele><time>2026-04-18T12:30:04.28Z</time></trkpt><trkpt lat="44.0832167" lon="11.58941"><ele>583.0</ele><time>2026-04-18T12:30:05.28Z</time></trkpt><trkpt lat="44.0831517" lon="11.5896267"><ele>582.5</ele><time>2026-04-18T12:30:06.28Z</time></trkpt><trkpt lat="44.0830583" lon="11.58982"><ele>582.0</ele><time>2026-04-18T12:30:07.28Z</time></trkpt><trkpt lat="44.0829533" lon="11.5899683"><ele>581.5</ele><time>2026-04-18T12:30:08.279Z</time></trkpt><trkpt lat="44.08287" lon="11.5901067"><ele>581.0</ele><time>2026-04-18T12:30:09.28Z</time></trkpt><trkpt lat="44.08282" lon="11.5902533"><ele>579.75</ele><time>2026-04-18T12:30:10.28Z</time></trkpt><trkpt lat="44.082805" lon="11.59041"><ele>578.5</ele><time>2026-04-18T12:30:11.281Z</time></trkpt><trkpt lat="44.082835" lon="11.59057"><ele>577.25</ele><time>2026-04-18T12:30:12.28Z</time></trkpt><trkpt lat="44.082905" lon="11.590725"><ele>576.0</ele><time>2026-04-18T12:30:13.279Z</time></trkpt><trkpt lat="44.0829617" lon="11.590875"><ele>576.0</ele><time>2026-04-18T12:30:14.281Z</time></trkpt><trkpt lat="44.0829683" lon="11.5910267"><ele>576.0</ele><time>2026-04-18T12:30:15.281Z</time></trkpt><trkpt lat="44.082945" lon="11.59117"><ele>576.0</ele><time>2026-04-18T12:30:16.278Z</time></trkpt><trkpt lat="44.0829167" lon="11.5913183"><ele>576.0</ele><time>2026-04-18T12:30:17.283Z</time></trkpt><trkpt lat="44.08291" lon="11.591495"><ele>574.5</ele><time>2026-04-18T12:30:18.28Z</time></trkpt><trkpt lat="44.0829467" lon="11.5916967"><ele>573.0</ele><time>2026-04-18T12:30:19.279Z</time></trkpt><trkpt lat="44.0829717" lon="11.5918983"><ele>571.5</ele><time>2026-04-18T12:30:20.281Z</time></trkpt><trkpt lat="44.08295" lon="11.59208"><ele>570.0</ele><time>2026-04-18T12:30:21.28Z</time></trkpt><trkpt lat="44.0829083" lon="11.59223"><ele>568.8</ele><time>2026-04-18T12:30:22.28Z</time></trkpt><trkpt lat="44.08286" lon="11.59236"><ele>567.6</ele><time>2026-04-18T12:30:23.281Z</time></trkpt><trkpt lat="44.082845" lon="11.5925017"><ele>566.4</ele><time>2026-04-18T12:30:24.28Z</time></trkpt><trkpt lat="44.082865" lon="11.5926333"><ele>565.2</ele><time>2026-04-18T12:30:25.28Z</time></trkpt><trkpt lat="44.08292" lon="11.5927467"><ele>564.0</ele><time>2026-04-18T12:30:26.281Z</time></trkpt><trkpt lat="44.0830067" lon="11.5928267"><ele>564.0</ele><time>2026-04-18T12:30:27.28Z</time></trkpt><trkpt lat="44.0831317" lon="11.59288"><ele>564.0</ele><time>2026-04-18T12:30:28.281Z</time></trkpt><trkpt lat="44.0832767" lon="11.5928867"><ele>564.0</ele><time>2026-04-18T12:30:29.283Z</time></trkpt><trkpt lat="44.08341" lon="11.5928917"><ele>564.0</ele><time>2026-04-18T12:30:30.282Z</time></trkpt><trkpt lat="44.08352" lon="11.592935"><ele>564.0</ele><time>2026-04-18T12:30:31.284Z</time></trkpt><trkpt lat="44.0836217" lon="11.59301"><ele>564.0</ele><time>2026-04-18T12:30:32.283Z</time></trkpt><trkpt lat="44.0836967" lon="11.5931217"><ele>564.0</ele><time>2026-04-18T12:30:33.28Z</time></trkpt><trkpt lat="44.0837467" lon="11.5932683"><ele>564.0</ele><time>2026-04-18T12:30:34.279Z</time></trkpt><trkpt lat="44.083775" lon="11.5934067"><ele>564.0</ele><time>2026-04-18T12:30:35.281Z</time></trkpt><trkpt lat="44.0838333" lon="11.5935167"><ele>564.0</ele><time>2026-04-18T12:30:36.28Z</time></trkpt><trkpt lat="44.0839133" lon="11.593605"><ele>564.0</ele><time>2026-04-18T12:30:37.279Z</time></trkpt><trkpt lat="44.0840167" lon="11.5936917"><ele>564.0</ele><time>2026-04-18T12:30:38.28Z</time></trkpt><trkpt lat="44.08412" lon="11.59378"><ele>564.0</ele><time>2026-04-18T12:30:39.278Z</time></trkpt><trkpt lat="44.0842383" lon="11.5938233"><ele>563.5</ele><time>2026-04-18T12:30:40.282Z</time></trkpt><trkpt lat="44.0843383" lon="11.59387"><ele>563.0</ele><time>2026-04-18T12:30:41.28Z</time></trkpt><trkpt lat="44.084435" lon="11.5939033"><ele>562.5</ele><time>2026-04-18T12:30:42.28Z</time></trkpt><trkpt lat="44.084505" lon="11.5939467"><ele>562.0</ele><time>2026-04-18T12:30:43.279Z</time></trkpt><trkpt lat="44.0845483" lon="11.5940367"><ele>561.5</ele><time>2026-04-18T12:30:44.28Z</time></trkpt><trkpt lat="44.08457" lon="11.5941233"><ele>561.0</ele><time>2026-04-18T12:30:45.279Z</time></trkpt><trkpt lat="44.084565" lon="11.594235"><ele>561.0</ele><time>2026-04-18T12:30:46.28Z</time></trkpt><trkpt lat="44.0845117" lon="11.5943367"><ele>561.0</ele><time>2026-04-18T12:30:47.279Z</time></trkpt><trkpt lat="44.084425" lon="11.5944533"><ele>561.0</ele><time>2026-04-18T12:30:48.279Z</time></trkpt><trkpt lat="44.0843417" lon="11.5945633"><ele>561.0</ele><time>2026-04-18T12:30:49.278Z</time></trkpt><trkpt lat="44.0842983" lon="11.5946817"><ele>561.0</ele><time>2026-04-18T12:30:50.28Z</time></trkpt><trkpt lat="44.0842617" lon="11.5947767"><ele>557.2</ele><time>2026-04-18T12:30:51.28Z</time></trkpt><trkpt lat="44.0842717" lon="11.59494"><ele>553.4000000000001</ele><time>2026-04-18T12:30:53.281Z</time></trkpt><trkpt lat="44.084325" lon="11.594995"><ele>549.6</ele><time>2026-04-18T12:30:54.28Z</time></trkpt><trkpt lat="44.0844233" lon="11.59512"><ele>545.8000000000001</ele><time>2026-04-18T12:30:55.28Z</time></trkpt><trkpt lat="44.084505" lon="11.59525"><ele>542.0</ele><time>2026-04-18T12:30:56.28Z</time></trkpt><trkpt lat="44.0845767" lon="11.595385"><ele>538.0</ele><time>2026-04-18T12:30:57.279Z</time></trkpt><trkpt lat="44.0846367" lon="11.5955333"><ele>534.0</ele><time>2026-04-18T12:30:58.279Z</time></trkpt><trkpt lat="44.0846483" lon="11.5957167"><ele>530.0</ele><time>2026-04-18T12:30:59.28Z</time></trkpt><trkpt lat="44.0846683" lon="11.595915"><ele>526.0</ele><time>2026-04-18T12:31:00.279Z</time></trkpt><trkpt lat="44.084695" lon="11.5961033"><ele>521.0</ele><time>2026-04-18T12:31:01.279Z</time></trkpt><trkpt lat="44.0847417" lon="11.5963333"><ele>516.0</ele><time>2026-04-18T12:31:02.281Z</time></trkpt><trkpt lat="44.0847583" lon="11.5966067"><ele>511.0</ele><time>2026-04-18T12:31:03.28Z</time></trkpt><trkpt lat="44.0847883" lon="11.596845"><ele>507.0</ele><time>2026-04-18T12:31:04.281Z</time></trkpt><trkpt lat="44.0848483" lon="11.5970667"><ele>503.0</ele><time>2026-04-18T12:31:05.281Z</time></trkpt><trkpt lat="44.0849233" lon="11.597265"><ele>499.0</ele><time>2026-04-18T12:31:06.28Z</time></trkpt><trkpt lat="44.0850067" lon="11.5974583"><ele>508.0</ele><time>2026-04-18T12:31:07.281Z</time></trkpt><trkpt lat="44.0850883" lon="11.597615"><ele>517.0</ele><time>2026-04-18T12:31:08.281Z</time></trkpt><trkpt lat="44.085165" lon="11.5977233"><ele>526.0</ele><time>2026-04-18T12:31:09.281Z</time></trkpt><trkpt lat="44.0852583" lon="11.597785"><ele>535.0</ele><time>2026-04-18T12:31:10.282Z</time></trkpt><trkpt lat="44.0853783" lon="11.5978267"><ele>527.5</ele><time>2026-04-18T12:31:11.283Z</time></trkpt><trkpt lat="44.0855067" lon="11.597865"><ele>520.0</ele><time>2026-04-18T12:31:12.281Z</time></trkpt><trkpt lat="44.0856217" lon="11.5979017"><ele>512.5</ele><time>2026-04-18T12:31:13.282Z</time></trkpt><trkpt lat="44.0857417" lon="11.59791"><ele>505.0</ele><time>2026-04-18T12:31:14.281Z</time></trkpt><trkpt lat="44.0858467" lon="11.5978783"><ele>515.5</ele><time>2026-04-18T12:31:15.281Z</time></trkpt><trkpt lat="44.0859567" lon="11.59781"><ele>526.0</ele><time>2026-04-18T12:31:16.281Z</time></trkpt><trkpt lat="44.0860817" lon="11.59771"><ele>536.5</ele><time>2026-04-18T12:31:17.281Z</time></trkpt><trkpt lat="44.0862133" lon="11.5976233"><ele>547.0</ele><time>2026-04-18T12:31:18.281Z</time></trkpt><trkpt lat="44.0863467" lon="11.59756"><ele>547.0</ele><time>2026-04-18T12:31:19.282Z</time></trkpt><trkpt lat="44.0864917" lon="11.59751"><ele>547.0</ele><time>2026-04-18T12:31:20.28Z</time></trkpt><trkpt lat="44.0866133" lon="11.5974983"><ele>547.0</ele><time>2026-04-18T12:31:21.282Z</time></trkpt><trkpt lat="44.08672" lon="11.59747"><ele>547.0</ele><time>2026-04-18T12:31:22.28Z</time></trkpt><trkpt lat="44.0868233" lon="11.5974267"><ele>541.5</ele><time>2026-04-18T12:31:23.28Z</time></trkpt><trkpt lat="44.08692" lon="11.597365"><ele>536.0</ele><time>2026-04-18T12:31:24.281Z</time></trkpt><trkpt lat="44.0870233" lon="11.5972917"><ele>530.5</ele><time>2026-04-18T12:31:25.281Z</time></trkpt><trkpt lat="44.08713" lon="11.5971683"><ele>525.0</ele><time>2026-04-18T12:31:26.281Z</time></trkpt><trkpt lat="44.0872633" lon="11.5970633"><ele>528.5</ele><time>2026-04-18T12:31:27.281Z</time></trkpt><trkpt lat="44.0874033" lon="11.59697"><ele>532.0</ele><time>2026-04-18T12:31:28.28Z</time></trkpt><trkpt lat="44.0875367" lon="11.5969283"><ele>535.5</ele><time>2026-04-18T12:31:29.28Z</time></trkpt><trkpt lat="44.0876833" lon="11.5969167"><ele>539.0</ele><time>2026-04-18T12:31:30.281Z</time></trkpt><trkpt lat="44.08783" lon="11.5969283"><ele>539.0</ele><time>2026-04-18T12:31:31.28Z</time></trkpt><trkpt lat="44.08797" lon="11.5969517"><ele>539.0</ele><time>2026-04-18T12:31:32.282Z</time></trkpt><trkpt lat="44.0880917" lon="11.5970183"><ele>539.0</ele><time>2026-04-18T12:31:33.28Z</time></trkpt><trkpt lat="44.0881817" lon="11.5970983"><ele>539.0</ele><time>2026-04-18T12:31:34.28Z</time></trkpt><trkpt lat="44.0882583" lon="11.5971833"><ele>531.2</ele><time>2026-04-18T12:31:35.281Z</time></trkpt><trkpt lat="44.08834" lon="11.5972283"><ele>523.4</ele><time>2026-04-18T12:31:36.283Z</time></trkpt><trkpt lat="44.0884333" lon="11.5972433"><ele>515.6</ele><time>2026-04-18T12:31:37.281Z</time></trkpt><trkpt lat="44.0885217" lon="11.597215"><ele>507.8</ele><time>2026-04-18T12:31:38.281Z</time></trkpt><trkpt lat="44.0886167" lon="11.5971033"><ele>500.0</ele><time>2026-04-18T12:31:39.282Z</time></trkpt><trkpt lat="44.0887133" lon="11.5970067"><ele>504.4</ele><time>2026-04-18T12:31:40.28Z</time></trkpt><trkpt lat="44.0888083" lon="11.5969083"><ele>508.8</ele><time>2026-04-18T12:31:41.282Z</time></trkpt><trkpt lat="44.08889" lon="11.59685"><ele>513.2</ele><time>2026-04-18T12:31:42.281Z</time></trkpt><trkpt lat="44.088965" lon="11.5968083"><ele>517.6</ele><time>2026-04-18T12:31:43.28Z</time></trkpt><trkpt lat="44.0890383" lon="11.5968033"><ele>522.0</ele><time>2026-04-18T12:31:44.282Z</time></trkpt><trkpt lat="44.0891283" lon="11.5968833"><ele>522.0</ele><time>2026-04-18T12:31:46.281Z</time></trkpt><trkpt lat="44.0891367" lon="11.5969983"><ele>522.0</ele><time>2026-04-18T12:31:47.281Z</time></trkpt><trkpt lat="44.08913" lon="11.5971183"><ele>522.0</ele><time>2026-04-18T12:31:48.281Z</time></trkpt><trkpt lat="44.0889617" lon="11.597325"><ele>522.0</ele><time>2026-04-18T12:31:49.28Z</time></trkpt><trkpt lat="44.0888417" lon="11.59754"><ele>516.6666666666666</ele><time>2026-04-18T12:31:50.281Z</time></trkpt><trkpt lat="44.0887517" lon="11.5977533"><ele>511.3333333333333</ele><time>2026-04-18T12:31:51.281Z</time></trkpt><trkpt lat="44.0886383" lon="11.597925"><ele>506.0</ele><time>2026-04-18T12:31:52.282Z</time></trkpt><trkpt lat="44.0884867" lon="11.598075"><ele>506.0</ele><time>2026-04-18T12:31:53.28Z</time></trkpt><trkpt lat="44.0883667" lon="11.59819"><ele>506.0</ele><time>2026-04-18T12:31:54.278Z</time></trkpt><trkpt lat="44.0882167" lon="11.5982483"><ele>506.0</ele><time>2026-04-18T12:31:55.28Z</time></trkpt><trkpt lat="44.0881017" lon="11.59827"><ele>506.0</ele><time>2026-04-18T12:31:56.282Z</time></trkpt><trkpt lat="44.08801" lon="11.5982433"><ele>503.0</ele><time>2026-04-18T12:31:57.281Z</time></trkpt><trkpt lat="44.0879133" lon="11.5981717"><ele>500.0</ele><time>2026-04-18T12:31:58.281Z</time></trkpt><trkpt lat="44.087825" lon="11.5980983"><ele>497.0</ele><time>2026-04-18T12:31:59.281Z</time></trkpt><trkpt lat="44.087745" lon="11.598055"><ele>494.0</ele><time>2026-04-18T12:32:00.281Z</time></trkpt><trkpt lat="44.0876617" lon="11.5980283"><ele>491.0</ele><time>2026-04-18T12:32:01.281Z</time></trkpt><trkpt lat="44.0875717" lon="11.5980167"><ele>491.0</ele><time>2026-04-18T12:32:02.28Z</time></trkpt><trkpt lat="44.087485" lon="11.5980967"><ele>491.0</ele><time>2026-04-18T12:32:03.28Z</time></trkpt><trkpt lat="44.087385" lon="11.5982067"><ele>491.0</ele><time>2026-04-18T12:32:04.28Z</time></trkpt><trkpt lat="44.0872617" lon="11.5983683"><ele>491.0</ele><time>2026-04-18T12:32:05.281Z</time></trkpt><trkpt lat="44.0870783" lon="11.5985317"><ele>490.3333333333333</ele><time>2026-04-18T12:32:06.28Z</time></trkpt><trkpt lat="44.0869167" lon="11.598675"><ele>489.66666666666663</ele><time>2026-04-18T12:32:07.281Z</time></trkpt><trkpt lat="44.08676" lon="11.5988217"><ele>489.0</ele><time>2026-04-18T12:32:08.28Z</time></trkpt><trkpt lat="44.0866017" lon="11.5989633"><ele>483.0</ele><time>2026-04-18T12:32:09.281Z</time></trkpt><trkpt lat="44.0864267" lon="11.5991033"><ele>477.0</ele><time>2026-04-18T12:32:10.279Z</time></trkpt><trkpt lat="44.086255" lon="11.59921"><ele>471.0</ele><time>2026-04-18T12:32:11.281Z</time></trkpt><trkpt lat="44.086095" lon="11.5993"><ele>471.0</ele><time>2026-04-18T12:32:12.28Z</time></trkpt><trkpt lat="44.085945" lon="11.599385"><ele>471.0</ele><time>2026-04-18T12:32:13.28Z</time></trkpt><trkpt lat="44.0858067" lon="11.5994867"><ele>471.0</ele><time>2026-04-18T12:32:14.282Z</time></trkpt><trkpt lat="44.0856733" lon="11.5996"><ele>471.25</ele><time>2026-04-18T12:32:15.281Z</time></trkpt><trkpt lat="44.0855467" lon="11.5997117"><ele>471.5</ele><time>2026-04-18T12:32:16.278Z</time></trkpt><trkpt lat="44.0854333" lon="11.5998183"><ele>471.75</ele><time>2026-04-18T12:32:17.279Z</time></trkpt><trkpt lat="44.0853967" lon="11.59995"><ele>472.0</ele><time>2026-04-18T12:32:18.279Z</time></trkpt><trkpt lat="44.0854167" lon="11.6001017"><ele>472.0</ele><time>2026-04-18T12:32:19.281Z</time></trkpt><trkpt lat="44.0854217" lon="11.6002867"><ele>472.0</ele><time>2026-04-18T12:32:20.281Z</time></trkpt><trkpt lat="44.0854533" lon="11.6005083"><ele>472.0</ele><time>2026-04-18T12:32:21.281Z</time></trkpt><trkpt lat="44.08548" lon="11.6007317"><ele>472.0</ele><time>2026-04-18T12:32:22.28Z</time></trkpt><trkpt lat="44.0854983" lon="11.60095"><ele>472.0</ele><time>2026-04-18T12:32:23.279Z</time></trkpt><trkpt lat="44.0855867" lon="11.6011767"><ele>472.0</ele><time>2026-04-18T12:32:24.281Z</time></trkpt><trkpt lat="44.0856217" lon="11.6014083"><ele>472.0</ele><time>2026-04-18T12:32:25.279Z</time></trkpt><trkpt lat="44.0856383" lon="11.6016417"><ele>472.0</ele><time>2026-04-18T12:32:26.28Z</time></trkpt><trkpt lat="44.0856283" lon="11.6018617"><ele>472.0</ele><time>2026-04-18T12:32:27.282Z</time></trkpt><trkpt lat="44.0855783" lon="11.6020683"><ele>467.75</ele><time>2026-04-18T12:32:28.28Z</time></trkpt><trkpt lat="44.08552" lon="11.6022633"><ele>463.5</ele><time>2026-04-18T12:32:29.281Z</time></trkpt><trkpt lat="44.0854417" lon="11.6024383"><ele>459.25</ele><time>2026-04-18T12:32:30.282Z</time></trkpt><trkpt lat="44.085385" lon="11.6026217"><ele>455.0</ele><time>2026-04-18T12:32:31.281Z</time></trkpt><trkpt lat="44.0853417" lon="11.6028167"><ele>452.75</ele><time>2026-04-18T12:32:32.279Z</time></trkpt><trkpt lat="44.08532" lon="11.60301"><ele>450.5</ele><time>2026-04-18T12:32:33.281Z</time></trkpt><trkpt lat="44.08533" lon="11.6031983"><ele>448.25</ele><time>2026-04-18T12:32:34.28Z</time></trkpt><trkpt lat="44.08535" lon="11.6033667"><ele>446.0</ele><time>2026-04-18T12:32:35.28Z</time></trkpt><trkpt lat="44.0853933" lon="11.6035017"><ele>446.0</ele><time>2026-04-18T12:32:36.28Z</time></trkpt><trkpt lat="44.085475" lon="11.60362"><ele>446.0</ele><time>2026-04-18T12:32:37.281Z</time></trkpt><trkpt lat="44.0855667" lon="11.603735"><ele>446.0</ele><time>2026-04-18T12:32:38.28Z</time></trkpt><trkpt lat="44.0856417" lon="11.60387"><ele>446.0</ele><time>2026-04-18T12:32:39.284Z</time></trkpt><trkpt lat="44.0857017" lon="11.6040333"><ele>446.25</ele><time>2026-04-18T12:32:40.28Z</time></trkpt><trkpt lat="44.0857467" lon="11.6042217"><ele>446.5</ele><time>2026-04-18T12:32:41.279Z</time></trkpt><trkpt lat="44.0857617" lon="11.6044117"><ele>446.75</ele><time>2026-04-18T12:32:42.28Z</time></trkpt><trkpt lat="44.0857767" lon="11.6045983"><ele>447.0</ele><time>2026-04-18T12:32:43.28Z</time></trkpt><trkpt lat="44.0857883" lon="11.60476"><ele>444.5</ele><time>2026-04-18T12:32:44.281Z</time></trkpt><trkpt lat="44.085825" lon="11.6049117"><ele>442.0</ele><time>2026-04-18T12:32:45.281Z</time></trkpt><trkpt lat="44.0858967" lon="11.6050583"><ele>439.5</ele><time>2026-04-18T12:32:46.281Z</time></trkpt><trkpt lat="44.0859933" lon="11.6051917"><ele>437.0</ele><time>2026-04-18T12:32:47.279Z</time></trkpt><trkpt lat="44.0861033" lon="11.60535"><ele>434.0</ele><time>2026-04-18T12:32:48.281Z</time></trkpt><trkpt lat="44.08622" lon="11.6055483"><ele>431.0</ele><time>2026-04-18T12:32:49.28Z</time></trkpt><trkpt lat="44.0862967" lon="11.605755"><ele>428.0</ele><time>2026-04-18T12:32:50.281Z</time></trkpt><trkpt lat="44.0863533" lon="11.605975"><ele>425.3333333333333</ele><time>2026-04-18T12:32:51.28Z</time></trkpt><trkpt lat="44.0863717" lon="11.6062033"><ele>422.66666666666663</ele><time>2026-04-18T12:32:52.281Z</time></trkpt><trkpt lat="44.0863733" lon="11.606445"><ele>420.0</ele><time>2026-04-18T12:32:53.28Z</time></trkpt><trkpt lat="44.0863333" lon="11.6066967"><ele>420.0</ele><time>2026-04-18T12:32:54.281Z</time></trkpt><trkpt lat="44.0862767" lon="11.6069483"><ele>420.0</ele><time>2026-04-18T12:32:55.281Z</time></trkpt><trkpt lat="44.0862317" lon="11.60718"><ele>420.0</ele><time>2026-04-18T12:32:56.281Z</time></trkpt><trkpt lat="44.0861833" lon="11.607375"><ele>419.0</ele><time>2026-04-18T12:32:57.28Z</time></trkpt><trkpt lat="44.0861367" lon="11.6075417"><ele>418.0</ele><time>2026-04-18T12:32:58.281Z</time></trkpt><trkpt lat="44.08608" lon="11.607665"><ele>417.0</ele><time>2026-04-18T12:32:59.281Z</time></trkpt><trkpt lat="44.0859767" lon="11.6077233"><ele>416.0</ele><time>2026-04-18T12:33:00.281Z</time></trkpt><trkpt lat="44.08589" lon="11.60777"><ele>415.0</ele><time>2026-04-18T12:33:01.28Z</time></trkpt><trkpt lat="44.0857683" lon="11.6077917"><ele>414.33333333333337</ele><time>2026-04-18T12:33:02.279Z</time></trkpt><trkpt lat="44.085595" lon="11.6078067"><ele>413.66666666666663</ele><time>2026-04-18T12:33:03.28Z</time></trkpt><trkpt lat="44.0854533" lon="11.60789"><ele>413.0</ele><time>2026-04-18T12:33:04.279Z</time></trkpt><trkpt lat="44.0853217" lon="11.608025"><ele>412.3333333333333</ele><time>2026-04-18T12:33:05.281Z</time></trkpt><trkpt lat="44.0851967" lon="11.6081967"><ele>411.66666666666663</ele><time>2026-04-18T12:33:06.282Z</time></trkpt><trkpt lat="44.0850767" lon="11.6084067"><ele>411.0</ele><time>2026-04-18T12:33:07.281Z</time></trkpt><trkpt lat="44.0849667" lon="11.6086133"><ele>404.66666666666663</ele><time>2026-04-18T12:33:08.28Z</time></trkpt><trkpt lat="44.084845" lon="11.6088017"><ele>398.3333333333333</ele><time>2026-04-18T12:33:09.28Z</time></trkpt><trkpt lat="44.0847333" lon="11.608965"><ele>392.0</ele><time>2026-04-18T12:33:10.28Z</time></trkpt><trkpt lat="44.08464" lon="11.6090867"><ele>392.0</ele><time>2026-04-18T12:33:11.281Z</time></trkpt><trkpt lat="44.08454" lon="11.6091467"><ele>392.0</ele><time>2026-04-18T12:33:12.281Z</time></trkpt><trkpt lat="44.0844383" lon="11.60914"><ele>392.0</ele><time>2026-04-18T12:33:13.283Z</time></trkpt><trkpt lat="44.0842967" lon="11.6090617"><ele>392.0</ele><time>2026-04-18T12:33:14.281Z</time></trkpt><trkpt lat="44.08417" lon="11.60895"><ele>389.75</ele><time>2026-04-18T12:33:15.281Z</time></trkpt><trkpt lat="44.0840583" lon="11.6088433"><ele>387.5</ele><time>2026-04-18T12:33:16.281Z</time></trkpt><trkpt lat="44.0839367" lon="11.6087567"><ele>385.25</ele><time>2026-04-18T12:33:17.28Z</time></trkpt><trkpt lat="44.083805" lon="11.6087017"><ele>383.0</ele><time>2026-04-18T12:33:18.281Z</time></trkpt><trkpt lat="44.0836567" lon="11.6086917"><ele>383.0</ele><time>2026-04-18T12:33:19.279Z</time></trkpt><trkpt lat="44.0834967" lon="11.60874"><ele>383.0</ele><time>2026-04-18T12:33:20.281Z</time></trkpt><trkpt lat="44.083335" lon="11.6088133"><ele>383.0</ele><time>2026-04-18T12:33:21.28Z</time></trkpt><trkpt lat="44.0831833" lon="11.6088967"><ele>384.0</ele><time>2026-04-18T12:33:22.281Z</time></trkpt><trkpt lat="44.083035" lon="11.6089833"><ele>385.0</ele><time>2026-04-18T12:33:23.28Z</time></trkpt><trkpt lat="44.0828933" lon="11.6090833"><ele>386.0</ele><time>2026-04-18T12:33:24.28Z</time></trkpt><trkpt lat="44.0827633" lon="11.609185"><ele>386.0</ele><time>2026-04-18T12:33:25.28Z</time></trkpt><trkpt lat="44.08265" lon="11.6092717"><ele>386.0</ele><time>2026-04-18T12:33:26.279Z</time></trkpt><trkpt lat="44.082545" lon="11.6093367"><ele>386.0</ele><time>2026-04-18T12:33:27.28Z</time></trkpt><trkpt lat="44.082425" lon="11.609365"><ele>386.0</ele><time>2026-04-18T12:33:28.279Z</time></trkpt><trkpt lat="44.0823" lon="11.60937"><ele>383.5</ele><time>2026-04-18T12:33:29.278Z</time></trkpt><trkpt lat="44.0821683" lon="11.6093717"><ele>381.0</ele><time>2026-04-18T12:33:30.279Z</time></trkpt><trkpt lat="44.082035" lon="11.6094117"><ele>378.5</ele><time>2026-04-18T12:33:31.279Z</time></trkpt><trkpt lat="44.081905" lon="11.609485"><ele>376.0</ele><time>2026-04-18T12:33:32.281Z</time></trkpt><trkpt lat="44.0817933" lon="11.6096"><ele>376.0</ele><time>2026-04-18T12:33:33.279Z</time></trkpt><trkpt lat="44.081705" lon="11.6097433"><ele>376.0</ele><time>2026-04-18T12:33:34.279Z</time></trkpt><trkpt lat="44.0816367" lon="11.609915"><ele>376.0</ele><time>2026-04-18T12:33:35.281Z</time></trkpt><trkpt lat="44.0815917" lon="11.610095"><ele>376.0</ele><time>2026-04-18T12:33:36.28Z</time></trkpt><trkpt lat="44.081565" lon="11.6102783"><ele>378.75</ele><time>2026-04-18T12:33:37.279Z</time></trkpt><trkpt lat="44.0815433" lon="11.6104567"><ele>381.5</ele><time>2026-04-18T12:33:38.281Z</time></trkpt><trkpt lat="44.08154" lon="11.6106317"><ele>384.25</ele><time>2026-04-18T12:33:39.279Z</time></trkpt><trkpt lat="44.0815533" lon="11.6107967"><ele>387.0</ele><time>2026-04-18T12:33:40.28Z</time></trkpt><trkpt lat="44.0815783" lon="11.610935"><ele>387.0</ele><time>2026-04-18T12:33:41.28Z</time></trkpt><trkpt lat="44.081595" lon="11.6110433"><ele>387.0</ele><time>2026-04-18T12:33:42.28Z</time></trkpt><trkpt lat="44.0815933" lon="11.6111367"><ele>387.0</ele><time>2026-04-18T12:33:43.281Z</time></trkpt><trkpt lat="44.0815817" lon="11.6112333"><ele>387.0</ele><time>2026-04-18T12:33:44.279Z</time></trkpt><trkpt lat="44.0815333" lon="11.61131"><ele>387.0</ele><time>2026-04-18T12:33:45.279Z</time></trkpt><trkpt lat="44.08147" lon="11.61138"><ele>387.0</ele><time>2026-04-18T12:33:46.279Z</time></trkpt><trkpt lat="44.0813767" lon="11.611435"><ele>383.0</ele><time>2026-04-18T12:33:47.279Z</time></trkpt><trkpt lat="44.0813017" lon="11.611525"><ele>379.0</ele><time>2026-04-18T12:33:48.279Z</time></trkpt><trkpt lat="44.0811983" lon="11.6116833"><ele>375.0</ele><time>2026-04-18T12:33:49.281Z</time></trkpt><trkpt lat="44.0811217" lon="11.61189"><ele>371.0</ele><time>2026-04-18T12:33:50.279Z</time></trkpt><trkpt lat="44.08099" lon="11.6120983"><ele>366.6666666666667</ele><time>2026-04-18T12:33:51.281Z</time></trkpt><trkpt lat="44.08088" lon="11.6123183"><ele>362.3333333333333</ele><time>2026-04-18T12:33:52.281Z</time></trkpt><trkpt lat="44.0808333" lon="11.61255"><ele>358.0</ele><time>2026-04-18T12:33:53.281Z</time></trkpt><trkpt lat="44.0808033" lon="11.6127733"><ele>358.0</ele><time>2026-04-18T12:33:54.28Z</time></trkpt><trkpt lat="44.08078" lon="11.612975"><ele>358.0</ele><time>2026-04-18T12:33:55.281Z</time></trkpt><trkpt lat="44.0807283" lon="11.6131367"><ele>358.0</ele><time>2026-04-18T12:33:56.281Z</time></trkpt><trkpt lat="44.0806667" lon="11.613265"><ele>358.0</ele><time>2026-04-18T12:33:57.279Z</time></trkpt><trkpt lat="44.080585" lon="11.613385"><ele>358.0</ele><time>2026-04-18T12:33:58.28Z</time></trkpt><trkpt lat="44.08049" lon="11.61351"><ele>358.0</ele><time>2026-04-18T12:33:59.281Z</time></trkpt><trkpt lat="44.080395" lon="11.613645"><ele>358.0</ele><time>2026-04-18T12:34:00.279Z</time></trkpt><trkpt lat="44.080315" lon="11.6137883"><ele>358.0</ele><time>2026-04-18T12:34:01.279Z</time></trkpt><trkpt lat="44.0802417" lon="11.6139267"><ele>355.25</ele><time>2026-04-18T12:34:02.28Z</time></trkpt><trkpt lat="44.0801567" lon="11.61404"><ele>352.5</ele><time>2026-04-18T12:34:03.281Z</time></trkpt><trkpt lat="44.08006" lon="11.6141333"><ele>349.75</ele><time>2026-04-18T12:34:04.281Z</time></trkpt><trkpt lat="44.0799483" lon="11.6142117"><ele>347.0</ele><time>2026-04-18T12:34:05.281Z</time></trkpt><trkpt lat="44.0798333" lon="11.6142867"><ele>347.0</ele><time>2026-04-18T12:34:06.28Z</time></trkpt><trkpt lat="44.07972" lon="11.6143567"><ele>347.0</ele><time>2026-04-18T12:34:07.281Z</time></trkpt><trkpt lat="44.079605" lon="11.6144183"><ele>347.0</ele><time>2026-04-18T12:34:08.28Z</time></trkpt><trkpt lat="44.0794917" lon="11.6144633"><ele>347.0</ele><time>2026-04-18T12:34:09.28Z</time></trkpt><trkpt lat="44.0793667" lon="11.6145083"><ele>344.5</ele><time>2026-04-18T12:34:10.278Z</time></trkpt><trkpt lat="44.0792417" lon="11.614545"><ele>342.0</ele><time>2026-04-18T12:34:11.28Z</time></trkpt><trkpt lat="44.0791217" lon="11.6145817"><ele>339.5</ele><time>2026-04-18T12:34:12.28Z</time></trkpt><trkpt lat="44.0790133" lon="11.6146383"><ele>337.0</ele><time>2026-04-18T12:34:13.28Z</time></trkpt><trkpt lat="44.0789133" lon="11.6147017"><ele>334.8</ele><time>2026-04-18T12:34:14.281Z</time></trkpt><trkpt lat="44.07882" lon="11.614765"><ele>332.6</ele><time>2026-04-18T12:34:15.278Z</time></trkpt><trkpt lat="44.0787283" lon="11.614815"><ele>330.40000000000003</ele><time>2026-04-18T12:34:16.28Z</time></trkpt><trkpt lat="44.078635" lon="11.614855"><ele>328.20000000000005</ele><time>2026-04-18T12:34:17.279Z</time></trkpt><trkpt lat="44.0785383" lon="11.6148683"><ele>326.0</ele><time>2026-04-18T12:34:18.28Z</time></trkpt><trkpt lat="44.0784483" lon="11.6148633"><ele>326.0</ele><time>2026-04-18T12:34:19.28Z</time></trkpt><trkpt lat="44.078365" lon="11.61485"><ele>326.0</ele><time>2026-04-18T12:34:20.279Z</time></trkpt><trkpt lat="44.0782883" lon="11.6148133"><ele>326.0</ele><time>2026-04-18T12:34:21.279Z</time></trkpt><trkpt lat="44.0782167" lon="11.6147717"><ele>326.0</ele><time>2026-04-18T12:34:22.281Z</time></trkpt><trkpt lat="44.078145" lon="11.614715"><ele>326.0</ele><time>2026-04-18T12:34:23.28Z</time></trkpt><trkpt lat="44.07808" lon="11.6146417"><ele>326.0</ele><time>2026-04-18T12:34:24.281Z</time></trkpt><trkpt lat="44.0780133" lon="11.6145517"><ele>324.1666666666667</ele><time>2026-04-18T12:34:25.279Z</time></trkpt><trkpt lat="44.07796" lon="11.6144533"><ele>322.33333333333337</ele><time>2026-04-18T12:34:26.279Z</time></trkpt><trkpt lat="44.0779117" lon="11.6143367"><ele>320.5</ele><time>2026-04-18T12:34:27.279Z</time></trkpt><trkpt lat="44.077875" lon="11.6142217"><ele>318.6666666666667</ele><time>2026-04-18T12:34:28.281Z</time></trkpt><trkpt lat="44.077835" lon="11.6141233"><ele>316.8333333333333</ele><time>2026-04-18T12:34:29.28Z</time></trkpt><trkpt lat="44.077795" lon="11.6140433"><ele>315.0</ele><time>2026-04-18T12:34:30.28Z</time></trkpt><trkpt lat="44.077715" lon="11.6139733"><ele>315.0</ele><time>2026-04-18T12:34:32.281Z</time></trkpt><trkpt lat="44.0776333" lon="11.6139683"><ele>315.0</ele><time>2026-04-18T12:34:34.28Z</time></trkpt><trkpt lat="44.077515" lon="11.6139217"><ele>315.0</ele><time>2026-04-18T12:34:36.28Z</time></trkpt><trkpt lat="44.0774433" lon="11.6138933"><ele>315.0</ele><time>2026-04-18T12:34:37.281Z</time></trkpt><trkpt lat="44.0773717" lon="11.6138683"><ele>315.0</ele><time>2026-04-18T12:34:38.282Z</time></trkpt><trkpt lat="44.0773067" lon="11.6138317"><ele>315.0</ele><time>2026-04-18T12:34:39.281Z</time></trkpt><trkpt lat="44.0772467" lon="11.6137733"><ele>315.7142857142857</ele><time>2026-04-18T12:34:40.279Z</time></trkpt><trkpt lat="44.077195" lon="11.6137033"><ele>316.42857142857144</ele><time>2026-04-18T12:34:41.281Z</time></trkpt><trkpt lat="44.07715" lon="11.613625"><ele>317.1428571428571</ele><time>2026-04-18T12:34:42.281Z</time></trkpt><trkpt lat="44.077105" lon="11.6135433"><ele>317.8571428571429</ele><time>2026-04-18T12:34:43.281Z</time></trkpt><trkpt lat="44.0770633" lon="11.6134667"><ele>318.57142857142856</ele><time>2026-04-18T12:34:44.28Z</time></trkpt><trkpt lat="44.0770033" lon="11.613395"><ele>319.2857142857143</ele><time>2026-04-18T12:34:45.282Z</time></trkpt><trkpt lat="44.076935" lon="11.6133367"><ele>320.0</ele><time>2026-04-18T12:34:46.282Z</time></trkpt><trkpt lat="44.0768667" lon="11.61329"><ele>320.0</ele><time>2026-04-18T12:34:47.281Z</time></trkpt><trkpt lat="44.0767917" lon="11.6132717"><ele>320.0</ele><time>2026-04-18T12:34:48.282Z</time></trkpt><trkpt lat="44.0767233" lon="11.6132567"><ele>320.0</ele><time>2026-04-18T12:34:49.282Z</time></trkpt><trkpt lat="44.07666" lon="11.6132717"><ele>320.0</ele><time>2026-04-18T12:34:50.283Z</time></trkpt><trkpt lat="44.0765967" lon="11.6132917"><ele>320.0</ele><time>2026-04-18T12:34:51.281Z</time></trkpt><trkpt lat="44.0765117" lon="11.61337"><ele>320.0</ele><time>2026-04-18T12:34:53.281Z</time></trkpt><trkpt lat="44.076425" lon="11.613345"><ele>321.75</ele><time>2026-04-18T12:34:55.281Z</time></trkpt><trkpt lat="44.07638" lon="11.6132217"><ele>323.5</ele><time>2026-04-18T12:34:57.279Z</time></trkpt><trkpt lat="44.0763433" lon="11.6130033"><ele>325.25</ele><time>2026-04-18T12:34:59.281Z</time></trkpt><trkpt lat="44.0763183" lon="11.6128933"><ele>327.0</ele><time>2026-04-18T12:35:00.281Z</time></trkpt><trkpt lat="44.0761767" lon="11.6126667"><ele>327.0</ele><time>2026-04-18T12:35:02.281Z</time></trkpt><trkpt lat="44.076075" lon="11.6125267"><ele>327.0</ele><time>2026-04-18T12:35:03.28Z</time></trkpt><trkpt lat="44.0759867" lon="11.612415"><ele>327.0</ele><time>2026-04-18T12:35:04.28Z</time></trkpt><trkpt lat="44.07591" lon="11.612305"><ele>327.0</ele><time>2026-04-18T12:35:05.282Z</time></trkpt><trkpt lat="44.0758283" lon="11.61219"><ele>328.25</ele><time>2026-04-18T12:35:06.281Z</time></trkpt><trkpt lat="44.0757433" lon="11.612075"><ele>329.5</ele><time>2026-04-18T12:35:07.279Z</time></trkpt><trkpt lat="44.0756683" lon="11.6119633"><ele>330.75</ele><time>2026-04-18T12:35:08.281Z</time></trkpt><trkpt lat="44.075585" lon="11.6118467"><ele>332.0</ele><time>2026-04-18T12:35:09.281Z</time></trkpt><trkpt lat="44.0755083" lon="11.6117333"><ele>332.0</ele><time>2026-04-18T12:35:10.28Z</time></trkpt><trkpt lat="44.075425" lon="11.6116467"><ele>332.0</ele><time>2026-04-18T12:35:11.281Z</time></trkpt><trkpt lat="44.0753383" lon="11.6115933"><ele>332.0</ele><time>2026-04-18T12:35:12.28Z</time></trkpt><trkpt lat="44.0752717" lon="11.6115383"><ele>332.0</ele><time>2026-04-18T12:35:13.281Z</time></trkpt><trkpt lat="44.0751433" lon="11.6114717"><ele>332.0</ele><time>2026-04-18T12:35:15.28Z</time></trkpt><trkpt lat="44.0750583" lon="11.611475"><ele>332.0</ele><time>2026-04-18T12:35:16.279Z</time></trkpt><trkpt lat="44.0749917" lon="11.6114583"><ele>332.0</ele><time>2026-04-18T12:35:17.278Z</time></trkpt><trkpt lat="44.0749233" lon="11.61142"><ele>332.0</ele><time>2026-04-18T12:35:18.278Z</time></trkpt><trkpt lat="44.07486" lon="11.61139"><ele>332.0</ele><time>2026-04-18T12:35:19.279Z</time></trkpt><trkpt lat="44.0747967" lon="11.611335"><ele>332.0</ele><time>2026-04-18T12:35:20.278Z</time></trkpt><trkpt lat="44.0747367" lon="11.61127"><ele>332.0</ele><time>2026-04-18T12:35:21.279Z</time></trkpt><trkpt lat="44.0746483" lon="11.61118"><ele>332.6666666666667</ele><time>2026-04-18T12:35:23.279Z</time></trkpt><trkpt lat="44.074575" lon="11.6111733"><ele>333.33333333333337</ele><time>2026-04-18T12:35:25.279Z</time></trkpt><trkpt lat="44.0744833" lon="11.6112667"><ele>334.0</ele><time>2026-04-18T12:35:27.278Z</time></trkpt><trkpt lat="44.0744267" lon="11.6113383"><ele>334.6666666666667</ele><time>2026-04-18T12:35:28.279Z</time></trkpt><trkpt lat="44.074365" lon="11.6114117"><ele>335.3333333333333</ele><time>2026-04-18T12:35:29.28Z</time></trkpt><trkpt lat="44.0743017" lon="11.6114917"><ele>336.0</ele><time>2026-04-18T12:35:30.28Z</time></trkpt><trkpt lat="44.0742383" lon="11.6115717"><ele>336.0</ele><time>2026-04-18T12:35:31.282Z</time></trkpt><trkpt lat="44.0741617" lon="11.6116583"><ele>336.0</ele><time>2026-04-18T12:35:32.281Z</time></trkpt><trkpt lat="44.07411" lon="11.6117667"><ele>336.0</ele><time>2026-04-18T12:35:33.28Z</time></trkpt><trkpt lat="44.0740633" lon="11.6118967"><ele>336.0</ele><time>2026-04-18T12:35:34.28Z</time></trkpt><trkpt lat="44.0740233" lon="11.6120417"><ele>336.0</ele><time>2026-04-18T12:35:35.281Z</time></trkpt><trkpt lat="44.0739817" lon="11.6121833"><ele>340.25</ele><time>2026-04-18T12:35:36.28Z</time></trkpt><trkpt lat="44.0739333" lon="11.6123333"><ele>344.5</ele><time>2026-04-18T12:35:37.28Z</time></trkpt><trkpt lat="44.07388" lon="11.6124867"><ele>348.75</ele><time>2026-04-18T12:35:38.28Z</time></trkpt><trkpt lat="44.073835" lon="11.6126333"><ele>353.0</ele><time>2026-04-18T12:35:39.279Z</time></trkpt><trkpt lat="44.0737917" lon="11.61277"><ele>352.0</ele><time>2026-04-18T12:35:40.281Z</time></trkpt><trkpt lat="44.073745" lon="11.612905"><ele>351.0</ele><time>2026-04-18T12:35:41.28Z</time></trkpt><trkpt lat="44.0737017" lon="11.6130517"><ele>350.0</ele><time>2026-04-18T12:35:42.281Z</time></trkpt><trkpt lat="44.0736583" lon="11.6132033"><ele>349.0</ele><time>2026-04-18T12:35:43.281Z</time></trkpt><trkpt lat="44.0736117" lon="11.6133633"><ele>349.0</ele><time>2026-04-18T12:35:44.281Z</time></trkpt><trkpt lat="44.0735733" lon="11.6135217"><ele>349.0</ele><time>2026-04-18T12:35:45.279Z</time></trkpt><trkpt lat="44.0735433" lon="11.61368"><ele>349.0</ele><time>2026-04-18T12:35:46.279Z</time></trkpt><trkpt lat="44.0734817" lon="11.6140017"><ele>348.0</ele><time>2026-04-18T12:35:48.283Z</time></trkpt><trkpt lat="44.073445" lon="11.61416"><ele>347.0</ele><time>2026-04-18T12:35:49.279Z</time></trkpt><trkpt lat="44.0734067" lon="11.6143167"><ele>346.0</ele><time>2026-04-18T12:35:50.281Z</time></trkpt><trkpt lat="44.0733567" lon="11.6144717"><ele>345.0</ele><time>2026-04-18T12:35:51.281Z</time></trkpt><trkpt lat="44.07329" lon="11.6146317"><ele>346.75</ele><time>2026-04-18T12:35:52.281Z</time></trkpt><trkpt lat="44.073215" lon="11.614795"><ele>348.5</ele><time>2026-04-18T12:35:53.28Z</time></trkpt><trkpt lat="44.0731333" lon="11.6149633"><ele>350.25</ele><time>2026-04-18T12:35:54.282Z</time></trkpt><trkpt lat="44.07305" lon="11.6151417"><ele>352.0</ele><time>2026-04-18T12:35:55.28Z</time></trkpt><trkpt lat="44.072965" lon="11.6153283"><ele>352.0</ele><time>2026-04-18T12:35:56.28Z</time></trkpt><trkpt lat="44.0728783" lon="11.61552"><ele>352.0</ele><time>2026-04-18T12:35:57.279Z</time></trkpt><trkpt lat="44.072785" lon="11.6157133"><ele>352.0</ele><time>2026-04-18T12:35:58.28Z</time></trkpt><trkpt lat="44.072695" lon="11.6159033"><ele>352.0</ele><time>2026-04-18T12:35:59.28Z</time></trkpt><trkpt lat="44.072605" lon="11.6160967"><ele>352.0</ele><time>2026-04-18T12:36:00.281Z</time></trkpt><trkpt lat="44.072515" lon="11.6162933"><ele>352.0</ele><time>2026-04-18T12:36:01.28Z</time></trkpt><trkpt lat="44.0724233" lon="11.6164933"><ele>353.66666666666663</ele><time>2026-04-18T12:36:02.281Z</time></trkpt><trkpt lat="44.0723333" lon="11.6166967"><ele>355.3333333333333</ele><time>2026-04-18T12:36:03.281Z</time></trkpt><trkpt lat="44.0722417" lon="11.6168967"><ele>357.0</ele><time>2026-04-18T12:36:04.281Z</time></trkpt><trkpt lat="44.0721467" lon="11.6171"><ele>357.0</ele><time>2026-04-18T12:36:05.281Z</time></trkpt><trkpt lat="44.0720583" lon="11.6173067"><ele>357.0</ele><time>2026-04-18T12:36:06.28Z</time></trkpt><trkpt lat="44.0719733" lon="11.617515"><ele>357.0</ele><time>2026-04-18T12:36:07.282Z</time></trkpt><trkpt lat="44.0718833" lon="11.6177217"><ele>355.3333333333333</ele><time>2026-04-18T12:36:08.28Z</time></trkpt><trkpt lat="44.0717917" lon="11.6179267"><ele>353.66666666666663</ele><time>2026-04-18T12:36:09.282Z</time></trkpt><trkpt lat="44.0717017" lon="11.618135"><ele>352.0</ele><time>2026-04-18T12:36:10.282Z</time></trkpt><trkpt lat="44.0716167" lon="11.6183483"><ele>356.0</ele><time>2026-04-18T12:36:11.282Z</time></trkpt><trkpt lat="44.0715367" lon="11.6185483"><ele>360.0</ele><time>2026-04-18T12:36:12.28Z</time></trkpt><trkpt lat="44.07147" lon="11.6187267"><ele>364.0</ele><time>2026-04-18T12:36:13.281Z</time></trkpt><trkpt lat="44.0714067" lon="11.618895"><ele>368.0</ele><time>2026-04-18T12:36:14.281Z</time></trkpt><trkpt lat="44.0713617" lon="11.6190633"><ele>368.0</ele><time>2026-04-18T12:36:15.282Z</time></trkpt><trkpt lat="44.071345" lon="11.6192433"><ele>368.0</ele><time>2026-04-18T12:36:16.28Z</time></trkpt><trkpt lat="44.071365" lon="11.6194267"><ele>368.0</ele><time>2026-04-18T12:36:17.28Z</time></trkpt><trkpt lat="44.0714217" lon="11.6196033"><ele>368.0</ele><time>2026-04-18T12:36:18.282Z</time></trkpt><trkpt lat="44.0715067" lon="11.6197633"><ele>365.0</ele><time>2026-04-18T12:36:19.281Z</time></trkpt><trkpt lat="44.0716283" lon="11.6199033"><ele>362.0</ele><time>2026-04-18T12:36:20.282Z</time></trkpt><trkpt lat="44.0717667" lon="11.6200367"><ele>359.0</ele><time>2026-04-18T12:36:21.28Z</time></trkpt><trkpt lat="44.07191" lon="11.620175"><ele>359.0</ele><time>2026-04-18T12:36:22.28Z</time></trkpt><trkpt lat="44.07204" lon="11.620315"><ele>359.0</ele><time>2026-04-18T12:36:23.281Z</time></trkpt><trkpt lat="44.0721533" lon="11.6204767"><ele>359.0</ele><time>2026-04-18T12:36:24.281Z</time></trkpt><trkpt lat="44.0722383" lon="11.6206567"><ele>360.33333333333337</ele><time>2026-04-18T12:36:25.28Z</time></trkpt><trkpt lat="44.07232" lon="11.6208567"><ele>361.6666666666667</ele><time>2026-04-18T12:36:26.283Z</time></trkpt><trkpt lat="44.07241" lon="11.6210283"><ele>363.0</ele><time>2026-04-18T12:36:27.281Z</time></trkpt><trkpt lat="44.0725117" lon="11.621195"><ele>363.3333333333333</ele><time>2026-04-18T12:36:28.28Z</time></trkpt><trkpt lat="44.072585" lon="11.6213817"><ele>363.66666666666663</ele><time>2026-04-18T12:36:29.282Z</time></trkpt><trkpt lat="44.07263" lon="11.6215867"><ele>364.0</ele><time>2026-04-18T12:36:30.28Z</time></trkpt><trkpt lat="44.0726383" lon="11.6217867"><ele>365.75</ele><time>2026-04-18T12:36:31.28Z</time></trkpt><trkpt lat="44.0726367" lon="11.621985"><ele>367.5</ele><time>2026-04-18T12:36:32.282Z</time></trkpt><trkpt lat="44.072625" lon="11.6221717"><ele>369.25</ele><time>2026-04-18T12:36:33.283Z</time></trkpt><trkpt lat="44.0726183" lon="11.6223567"><ele>371.0</ele><time>2026-04-18T12:36:34.281Z</time></trkpt><trkpt lat="44.0726167" lon="11.62254"><ele>371.0</ele><time>2026-04-18T12:36:35.278Z</time></trkpt><trkpt lat="44.0726317" lon="11.6227133"><ele>371.0</ele><time>2026-04-18T12:36:36.281Z</time></trkpt><trkpt lat="44.0726517" lon="11.62288"><ele>371.0</ele><time>2026-04-18T12:36:37.279Z</time></trkpt><trkpt lat="44.0726783" lon="11.623045"><ele>371.0</ele><time>2026-04-18T12:36:38.281Z</time></trkpt><trkpt lat="44.072715" lon="11.6232117"><ele>373.25</ele><time>2026-04-18T12:36:39.281Z</time></trkpt><trkpt lat="44.072755" lon="11.62339"><ele>375.5</ele><time>2026-04-18T12:36:40.28Z</time></trkpt><trkpt lat="44.0727967" lon="11.623575"><ele>377.75</ele><time>2026-04-18T12:36:41.28Z</time></trkpt><trkpt lat="44.0728383" lon="11.6237667"><ele>380.0</ele><time>2026-04-18T12:36:42.281Z</time></trkpt><trkpt lat="44.0728767" lon="11.62398"><ele>380.6666666666667</ele><time>2026-04-18T12:36:43.28Z</time></trkpt><trkpt lat="44.0729067" lon="11.62421"><ele>381.3333333333333</ele><time>2026-04-18T12:36:44.28Z</time></trkpt><trkpt lat="44.072935" lon="11.62445"><ele>382.0</ele><time>2026-04-18T12:36:45.281Z</time></trkpt><trkpt lat="44.0729783" lon="11.6246833"><ele>383.66666666666663</ele><time>2026-04-18T12:36:46.28Z</time></trkpt><trkpt lat="44.073035" lon="11.6249067"><ele>385.3333333333333</ele><time>2026-04-18T12:36:47.281Z</time></trkpt><trkpt lat="44.0730933" lon="11.6251283"><ele>387.0</ele><time>2026-04-18T12:36:48.281Z</time></trkpt><trkpt lat="44.0731333" lon="11.6253517"><ele>389.66666666666663</ele><time>2026-04-18T12:36:49.28Z</time></trkpt><trkpt lat="44.07318" lon="11.6255633"><ele>392.3333333333333</ele><time>2026-04-18T12:36:50.283Z</time></trkpt><trkpt lat="44.0732383" lon="11.6257567"><ele>395.0</ele><time>2026-04-18T12:36:51.281Z</time></trkpt><trkpt lat="44.0733083" lon="11.625935"><ele>395.75</ele><time>2026-04-18T12:36:52.28Z</time></trkpt><trkpt lat="44.0733783" lon="11.62609"><ele>396.5</ele><time>2026-04-18T12:36:53.281Z</time></trkpt><trkpt lat="44.0734533" lon="11.6262217"><ele>397.25</ele><time>2026-04-18T12:36:54.281Z</time></trkpt><trkpt lat="44.0735233" lon="11.62632"><ele>398.0</ele><time>2026-04-18T12:36:55.281Z</time></trkpt><trkpt lat="44.0735983" lon="11.6264083"><ele>396.59999999999997</ele><time>2026-04-18T12:36:56.281Z</time></trkpt><trkpt lat="44.0736683" lon="11.6264917"><ele>395.2</ele><time>2026-04-18T12:36:57.28Z</time></trkpt><trkpt lat="44.0737117" lon="11.6265967"><ele>393.8</ele><time>2026-04-18T12:36:58.281Z</time></trkpt><trkpt lat="44.07374" lon="11.626725"><ele>392.4</ele><time>2026-04-18T12:36:59.281Z</time></trkpt><trkpt lat="44.0737433" lon="11.626885"><ele>391.0</ele><time>2026-04-18T12:37:00.282Z</time></trkpt><trkpt lat="44.073745" lon="11.6270583"><ele>390.5</ele><time>2026-04-18T12:37:01.282Z</time></trkpt><trkpt lat="44.0737633" lon="11.6272267"><ele>390.0</ele><time>2026-04-18T12:37:02.282Z</time></trkpt><trkpt lat="44.0738067" lon="11.6273867"><ele>389.5</ele><time>2026-04-18T12:37:03.282Z</time></trkpt><trkpt lat="44.07386" lon="11.6275383"><ele>389.0</ele><time>2026-04-18T12:37:04.282Z</time></trkpt><trkpt lat="44.07394" lon="11.6277"><ele>393.0</ele><time>2026-04-18T12:37:05.283Z</time></trkpt><trkpt lat="44.0740883" lon="11.627825"><ele>397.0</ele><time>2026-04-18T12:37:06.282Z</time></trkpt><trkpt lat="44.0742183" lon="11.6279083"><ele>401.0</ele><time>2026-04-18T12:37:07.282Z</time></trkpt><trkpt lat="44.0743417" lon="11.628005"><ele>401.3333333333333</ele><time>2026-04-18T12:37:08.282Z</time></trkpt><trkpt lat="44.07448" lon="11.628075"><ele>401.66666666666663</ele><time>2026-04-18T12:37:09.282Z</time></trkpt><trkpt lat="44.074605" lon="11.62814"><ele>402.0</ele><time>2026-04-18T12:37:10.282Z</time></trkpt><trkpt lat="44.0747833" lon="11.6281767"><ele>407.0</ele><time>2026-04-18T12:37:11.282Z</time></trkpt><trkpt lat="44.07494" lon="11.6282033"><ele>412.0</ele><time>2026-04-18T12:37:12.283Z</time></trkpt><trkpt lat="44.07511" lon="11.6282367"><ele>417.0</ele><time>2026-04-18T12:37:13.282Z</time></trkpt><trkpt lat="44.07529" lon="11.628285"><ele>417.0</ele><time>2026-04-18T12:37:14.282Z</time></trkpt><trkpt lat="44.07546" lon="11.62834"><ele>417.0</ele><time>2026-04-18T12:37:15.281Z</time></trkpt><trkpt lat="44.0755917" lon="11.62841"><ele>417.0</ele><time>2026-04-18T12:37:16.281Z</time></trkpt><trkpt lat="44.075695" lon="11.628535"><ele>420.0</ele><time>2026-04-18T12:37:17.283Z</time></trkpt><trkpt lat="44.075795" lon="11.6287233"><ele>423.0</ele><time>2026-04-18T12:37:18.282Z</time></trkpt><trkpt lat="44.075885" lon="11.6289217"><ele>426.0</ele><time>2026-04-18T12:37:19.282Z</time></trkpt><trkpt lat="44.075915" lon="11.62916"><ele>426.0</ele><time>2026-04-18T12:37:20.283Z</time></trkpt><trkpt lat="44.07587" lon="11.6293267"><ele>426.0</ele><time>2026-04-18T12:37:21.281Z</time></trkpt><trkpt lat="44.0758133" lon="11.6295083"><ele>426.0</ele><time>2026-04-18T12:37:22.282Z</time></trkpt><trkpt lat="44.0758483" lon="11.6296167"><ele>426.0</ele><time>2026-04-18T12:37:23.282Z</time></trkpt><trkpt lat="44.075915" lon="11.6296967"><ele>426.0</ele><time>2026-04-18T12:37:24.282Z</time></trkpt><trkpt lat="44.0760033" lon="11.6297717"><ele>422.5</ele><time>2026-04-18T12:37:25.281Z</time></trkpt><trkpt lat="44.0761283" lon="11.62984"><ele>419.0</ele><time>2026-04-18T12:37:26.281Z</time></trkpt><trkpt lat="44.07625" lon="11.6299467"><ele>415.5</ele><time>2026-04-18T12:37:27.283Z</time></trkpt><trkpt lat="44.076335" lon="11.6300867"><ele>412.0</ele><time>2026-04-18T12:37:28.281Z</time></trkpt><trkpt lat="44.0763967" lon="11.630235"><ele>412.25</ele><time>2026-04-18T12:37:29.281Z</time></trkpt><trkpt lat="44.076455" lon="11.630385"><ele>412.5</ele><time>2026-04-18T12:37:30.282Z</time></trkpt><trkpt lat="44.0764933" lon="11.6305467"><ele>412.75</ele><time>2026-04-18T12:37:31.281Z</time></trkpt><trkpt lat="44.0765317" lon="11.6307"><ele>413.0</ele><time>2026-04-18T12:37:32.283Z</time></trkpt><trkpt lat="44.07656" lon="11.6308567"><ele>413.0</ele><time>2026-04-18T12:37:33.282Z</time></trkpt><trkpt lat="44.0765667" lon="11.63102"><ele>413.0</ele><time>2026-04-18T12:37:34.282Z</time></trkpt><trkpt lat="44.0765867" lon="11.6311967"><ele>413.0</ele><time>2026-04-18T12:37:35.281Z</time></trkpt><trkpt lat="44.07661" lon="11.6313817"><ele>413.0</ele><time>2026-04-18T12:37:36.283Z</time></trkpt><trkpt lat="44.0766383" lon="11.6315617"><ele>414.5</ele><time>2026-04-18T12:37:37.283Z</time></trkpt><trkpt lat="44.076675" lon="11.6317383"><ele>416.0</ele><time>2026-04-18T12:37:38.282Z</time></trkpt><trkpt lat="44.0767233" lon="11.6319183"><ele>417.5</ele><time>2026-04-18T12:37:39.282Z</time></trkpt><trkpt lat="44.0767617" lon="11.6321083"><ele>419.0</ele><time>2026-04-18T12:37:40.281Z</time></trkpt><trkpt lat="44.0768033" lon="11.6323183"><ele>419.3333333333333</ele><time>2026-04-18T12:37:41.282Z</time></trkpt><trkpt lat="44.0768283" lon="11.63253"><ele>419.66666666666663</ele><time>2026-04-18T12:37:42.282Z</time></trkpt><trkpt lat="44.07683" lon="11.632735"><ele>420.0</ele><time>2026-04-18T12:37:43.282Z</time></trkpt><trkpt lat="44.0768167" lon="11.6329433"><ele>420.75</ele><time>2026-04-18T12:37:44.282Z</time></trkpt><trkpt lat="44.0767783" lon="11.633135"><ele>421.5</ele><time>2026-04-18T12:37:45.281Z</time></trkpt><trkpt lat="44.07672" lon="11.63331"><ele>422.25</ele><time>2026-04-18T12:37:46.282Z</time></trkpt><trkpt lat="44.0766367" lon="11.633475"><ele>423.0</ele><time>2026-04-18T12:37:47.283Z</time></trkpt><trkpt lat="44.0765383" lon="11.63363"><ele>423.0</ele><time>2026-04-18T12:37:48.282Z</time></trkpt><trkpt lat="44.0764483" lon="11.6337817"><ele>423.0</ele><time>2026-04-18T12:37:49.282Z</time></trkpt><trkpt lat="44.0763617" lon="11.6339433"><ele>423.0</ele><time>2026-04-18T12:37:50.282Z</time></trkpt><trkpt lat="44.07626" lon="11.6340983"><ele>423.0</ele><time>2026-04-18T12:37:51.283Z</time></trkpt><trkpt lat="44.0761617" lon="11.63424"><ele>423.0</ele><time>2026-04-18T12:37:52.283Z</time></trkpt><trkpt lat="44.076035" lon="11.6343817"><ele>423.0</ele><time>2026-04-18T12:37:53.282Z</time></trkpt><trkpt lat="44.075905" lon="11.6345367"><ele>423.0</ele><time>2026-04-18T12:37:54.282Z</time></trkpt><trkpt lat="44.075755" lon="11.6347183"><ele>423.33333333333337</ele><time>2026-04-18T12:37:55.281Z</time></trkpt><trkpt lat="44.0755917" lon="11.6349217"><ele>423.6666666666667</ele><time>2026-04-18T12:37:56.282Z</time></trkpt><trkpt lat="44.0754333" lon="11.635135"><ele>424.0</ele><time>2026-04-18T12:37:57.281Z</time></trkpt><trkpt lat="44.0752717" lon="11.6353333"><ele>424.6666666666667</ele><time>2026-04-18T12:37:58.282Z</time></trkpt><trkpt lat="44.075135" lon="11.6355167"><ele>425.33333333333337</ele><time>2026-04-18T12:37:59.281Z</time></trkpt><trkpt lat="44.0749983" lon="11.6356883"><ele>426.0</ele><time>2026-04-18T12:38:00.281Z</time></trkpt><trkpt lat="44.074875" lon="11.635865"><ele>426.0</ele><time>2026-04-18T12:38:01.282Z</time></trkpt><trkpt lat="44.0747283" lon="11.636045"><ele>426.0</ele><time>2026-04-18T12:38:02.282Z</time></trkpt><trkpt lat="44.0745783" lon="11.6362383"><ele>426.0</ele><time>2026-04-18T12:38:03.282Z</time></trkpt><trkpt lat="44.0744333" lon="11.636445"><ele>428.33333333333337</ele><time>2026-04-18T12:38:04.281Z</time></trkpt><trkpt lat="44.074285" lon="11.6366383"><ele>430.6666666666667</ele><time>2026-04-18T12:38:05.28Z</time></trkpt><trkpt lat="44.07413" lon="11.6368033"><ele>433.0</ele><time>2026-04-18T12:38:06.281Z</time></trkpt><trkpt lat="44.074005" lon="11.6369617"><ele>432.6666666666667</ele><time>2026-04-18T12:38:07.282Z</time></trkpt><trkpt lat="44.0738967" lon="11.63712"><ele>432.33333333333337</ele><time>2026-04-18T12:38:08.282Z</time></trkpt><trkpt lat="44.07378" lon="11.6372867"><ele>432.0</ele><time>2026-04-18T12:38:09.28Z</time></trkpt><trkpt lat="44.0736917" lon="11.6374917"><ele>432.0</ele><time>2026-04-18T12:38:10.28Z</time></trkpt><trkpt lat="44.0736233" lon="11.63773"><ele>432.0</ele><time>2026-04-18T12:38:11.28Z</time></trkpt><trkpt lat="44.0735583" lon="11.6379817"><ele>432.0</ele><time>2026-04-18T12:38:12.279Z</time></trkpt><trkpt lat="44.0734867" lon="11.6382267"><ele>434.66666666666663</ele><time>2026-04-18T12:38:13.281Z</time></trkpt><trkpt lat="44.0734" lon="11.6384733"><ele>437.3333333333333</ele><time>2026-04-18T12:38:14.28Z</time></trkpt><trkpt lat="44.0732983" lon="11.6387183"><ele>440.0</ele><time>2026-04-18T12:38:15.279Z</time></trkpt><trkpt lat="44.073185" lon="11.6389567"><ele>441.66666666666663</ele><time>2026-04-18T12:38:16.281Z</time></trkpt><trkpt lat="44.0730633" lon="11.639195"><ele>443.33333333333337</ele><time>2026-04-18T12:38:17.279Z</time></trkpt><trkpt lat="44.0729283" lon="11.6394117"><ele>445.0</ele><time>2026-04-18T12:38:18.28Z</time></trkpt><trkpt lat="44.0727583" lon="11.63959"><ele>445.33333333333337</ele><time>2026-04-18T12:38:19.279Z</time></trkpt><trkpt lat="44.0725817" lon="11.6397517"><ele>445.66666666666663</ele><time>2026-04-18T12:38:20.279Z</time></trkpt><trkpt lat="44.0723717" lon="11.6398767"><ele>446.0</ele><time>2026-04-18T12:38:21.279Z</time></trkpt><trkpt lat="44.0721567" lon="11.6399883"><ele>446.0</ele><time>2026-04-18T12:38:22.281Z</time></trkpt><trkpt lat="44.0719217" lon="11.6400667"><ele>446.0</ele><time>2026-04-18T12:38:23.28Z</time></trkpt><trkpt lat="44.0716833" lon="11.6401133"><ele>454.0</ele><time>2026-04-18T12:38:24.279Z</time></trkpt><trkpt lat="44.0714567" lon="11.6401317"><ele>462.0</ele><time>2026-04-18T12:38:25.281Z</time></trkpt><trkpt lat="44.07123" lon="11.6401433"><ele>462.0</ele><time>2026-04-18T12:38:26.28Z</time></trkpt><trkpt lat="44.0710083" lon="11.6401617"><ele>462.0</ele><time>2026-04-18T12:38:27.279Z</time></trkpt><trkpt lat="44.07079" lon="11.64021"><ele>462.0</ele><time>2026-04-18T12:38:28.281Z</time></trkpt><trkpt lat="44.0705817" lon="11.6402733"><ele>460.0</ele><time>2026-04-18T12:38:29.281Z</time></trkpt><trkpt lat="44.0703717" lon="11.6403433"><ele>458.0</ele><time>2026-04-18T12:38:30.279Z</time></trkpt><trkpt lat="44.0701617" lon="11.6404133"><ele>456.0</ele><time>2026-04-18T12:38:31.279Z</time></trkpt><trkpt lat="44.069945" lon="11.6404717"><ele>463.0</ele><time>2026-04-18T12:38:32.281Z</time></trkpt><trkpt lat="44.069725" lon="11.6405283"><ele>470.0</ele><time>2026-04-18T12:38:33.281Z</time></trkpt><trkpt lat="44.0695" lon="11.6405817"><ele>470.0</ele><time>2026-04-18T12:38:34.281Z</time></trkpt><trkpt lat="44.0692817" lon="11.6406417"><ele>470.0</ele><time>2026-04-18T12:38:35.28Z</time></trkpt><trkpt lat="44.0690733" lon="11.64073"><ele>470.0</ele><time>2026-04-18T12:38:36.282Z</time></trkpt><trkpt lat="44.0688833" lon="11.640815"><ele>476.0</ele><time>2026-04-18T12:38:37.28Z</time></trkpt><trkpt lat="44.0686933" lon="11.64091"><ele>482.0</ele><time>2026-04-18T12:38:38.283Z</time></trkpt><trkpt lat="44.0684933" lon="11.6409933"><ele>488.0</ele><time>2026-04-18T12:38:39.28Z</time></trkpt><trkpt lat="44.068295" lon="11.6410717"><ele>484.0</ele><time>2026-04-18T12:38:40.279Z</time></trkpt><trkpt lat="44.0680983" lon="11.641175"><ele>480.0</ele><time>2026-04-18T12:38:41.281Z</time></trkpt><trkpt lat="44.06789" lon="11.6412567"><ele>476.0</ele><time>2026-04-18T12:38:42.279Z</time></trkpt><trkpt lat="44.0676783" lon="11.641325"><ele>476.0</ele><time>2026-04-18T12:38:43.28Z</time></trkpt><trkpt lat="44.0674617" lon="11.6413783"><ele>476.0</ele><time>2026-04-18T12:38:44.28Z</time></trkpt><trkpt lat="44.06725" lon="11.641435"><ele>476.0</ele><time>2026-04-18T12:38:45.281Z</time></trkpt><trkpt lat="44.0670333" lon="11.6414633"><ele>478.66666666666663</ele><time>2026-04-18T12:38:46.28Z</time></trkpt><trkpt lat="44.0668233" lon="11.6414783"><ele>481.33333333333337</ele><time>2026-04-18T12:38:47.281Z</time></trkpt><trkpt lat="44.06661" lon="11.6414683"><ele>484.0</ele><time>2026-04-18T12:38:48.279Z</time></trkpt><trkpt lat="44.0663967" lon="11.641445"><ele>484.0</ele><time>2026-04-18T12:38:49.28Z</time></trkpt><trkpt lat="44.06618" lon="11.6414267"><ele>484.0</ele><time>2026-04-18T12:38:50.282Z</time></trkpt><trkpt lat="44.06597" lon="11.6413917"><ele>484.0</ele><time>2026-04-18T12:38:51.283Z</time></trkpt><trkpt lat="44.06577" lon="11.64136"><ele>482.33333333333337</ele><time>2026-04-18T12:38:52.283Z</time></trkpt><trkpt lat="44.0655967" lon="11.6413367"><ele>480.66666666666663</ele><time>2026-04-18T12:38:53.281Z</time></trkpt><trkpt lat="44.065445" lon="11.6413017"><ele>479.0</ele><time>2026-04-18T12:38:54.28Z</time></trkpt><trkpt lat="44.0653" lon="11.6412383"><ele>479.0</ele><time>2026-04-18T12:38:55.28Z</time></trkpt><trkpt lat="44.06515" lon="11.64116"><ele>479.0</ele><time>2026-04-18T12:38:56.28Z</time></trkpt><trkpt lat="44.064985" lon="11.6410967"><ele>479.0</ele><time>2026-04-18T12:38:57.283Z</time></trkpt><trkpt lat="44.0648017" lon="11.6410817"><ele>481.0</ele><time>2026-04-18T12:38:58.28Z</time></trkpt><trkpt lat="44.06461" lon="11.6411"><ele>483.0</ele><time>2026-04-18T12:38:59.281Z</time></trkpt><trkpt lat="44.064415" lon="11.6411367"><ele>485.0</ele><time>2026-04-18T12:39:00.282Z</time></trkpt><trkpt lat="44.06423" lon="11.641175"><ele>486.75</ele><time>2026-04-18T12:39:01.281Z</time></trkpt><trkpt lat="44.0640733" lon="11.6412033"><ele>488.5</ele><time>2026-04-18T12:39:02.282Z</time></trkpt><trkpt lat="44.0639317" lon="11.6412167"><ele>490.25</ele><time>2026-04-18T12:39:03.28Z</time></trkpt><trkpt lat="44.0637883" lon="11.64121"><ele>492.0</ele><time>2026-04-18T12:39:04.28Z</time></trkpt><trkpt lat="44.0636333" lon="11.6411883"><ele>492.0</ele><time>2026-04-18T12:39:05.28Z</time></trkpt><trkpt lat="44.06347" lon="11.6411817"><ele>492.0</ele><time>2026-04-18T12:39:06.281Z</time></trkpt><trkpt lat="44.0633" lon="11.6412"><ele>492.0</ele><time>2026-04-18T12:39:07.281Z</time></trkpt><trkpt lat="44.0631333" lon="11.6412317"><ele>494.33333333333337</ele><time>2026-04-18T12:39:08.282Z</time></trkpt><trkpt lat="44.0629733" lon="11.641265"><ele>496.6666666666667</ele><time>2026-04-18T12:39:09.282Z</time></trkpt><trkpt lat="44.0628217" lon="11.6413233"><ele>499.0</ele><time>2026-04-18T12:39:10.282Z</time></trkpt><trkpt lat="44.06267" lon="11.6413983"><ele>499.0</ele><time>2026-04-18T12:39:11.28Z</time></trkpt><trkpt lat="44.0625217" lon="11.6414717"><ele>499.0</ele><time>2026-04-18T12:39:12.283Z</time></trkpt><trkpt lat="44.06238" lon="11.6415283"><ele>499.0</ele><time>2026-04-18T12:39:13.28Z</time></trkpt><trkpt lat="44.0622333" lon="11.6415533"><ele>499.6666666666667</ele><time>2026-04-18T12:39:14.281Z</time></trkpt><trkpt lat="44.0620783" lon="11.6415533"><ele>500.33333333333337</ele><time>2026-04-18T12:39:15.28Z</time></trkpt><trkpt lat="44.0619167" lon="11.6415333"><ele>501.0</ele><time>2026-04-18T12:39:16.28Z</time></trkpt><trkpt lat="44.0617417" lon="11.6415067"><ele>501.66666666666663</ele><time>2026-04-18T12:39:17.28Z</time></trkpt><trkpt lat="44.061555" lon="11.64148"><ele>502.3333333333333</ele><time>2026-04-18T12:39:18.282Z</time></trkpt><trkpt lat="44.0613617" lon="11.64144"><ele>503.0</ele><time>2026-04-18T12:39:19.279Z</time></trkpt><trkpt lat="44.0611733" lon="11.641405"><ele>503.0</ele><time>2026-04-18T12:39:20.282Z</time></trkpt><trkpt lat="44.0609883" lon="11.64137"><ele>503.0</ele><time>2026-04-18T12:39:21.28Z</time></trkpt><trkpt lat="44.0607983" lon="11.6413283"><ele>503.0</ele><time>2026-04-18T12:39:22.282Z</time></trkpt><trkpt lat="44.06061" lon="11.64128"><ele>504.66666666666663</ele><time>2026-04-18T12:39:23.279Z</time></trkpt><trkpt lat="44.0604233" lon="11.6412183"><ele>506.33333333333337</ele><time>2026-04-18T12:39:24.279Z</time></trkpt><trkpt lat="44.060235" lon="11.6411267"><ele>508.0</ele><time>2026-04-18T12:39:25.283Z</time></trkpt><trkpt lat="44.0600467" lon="11.64101"><ele>509.6666666666667</ele><time>2026-04-18T12:39:26.282Z</time></trkpt><trkpt lat="44.0598583" lon="11.6408883"><ele>511.33333333333337</ele><time>2026-04-18T12:39:27.279Z</time></trkpt><trkpt lat="44.0596633" lon="11.6407633"><ele>513.0</ele><time>2026-04-18T12:39:28.281Z</time></trkpt><trkpt lat="44.0594683" lon="11.6406333"><ele>513.0</ele><time>2026-04-18T12:39:29.282Z</time></trkpt><trkpt lat="44.0592783" lon="11.6404883"><ele>513.0</ele><time>2026-04-18T12:39:30.282Z</time></trkpt><trkpt lat="44.0590933" lon="11.6403383"><ele>513.0</ele><time>2026-04-18T12:39:31.282Z</time></trkpt><trkpt lat="44.0589117" lon="11.6402033"><ele>514.3333333333334</ele><time>2026-04-18T12:39:32.28Z</time></trkpt><trkpt lat="44.0587417" lon="11.6400917"><ele>515.6666666666667</ele><time>2026-04-18T12:39:33.279Z</time></trkpt><trkpt lat="44.0585817" lon="11.6399967"><ele>517.0</ele><time>2026-04-18T12:39:34.28Z</time></trkpt><trkpt lat="44.0584333" lon="11.6398683"><ele>517.0</ele><time>2026-04-18T12:39:35.279Z</time></trkpt><trkpt lat="44.0582883" lon="11.639715"><ele>517.0</ele><time>2026-04-18T12:39:36.279Z</time></trkpt><trkpt lat="44.0581433" lon="11.639535"><ele>517.0</ele><time>2026-04-18T12:39:37.28Z</time></trkpt><trkpt lat="44.0579967" lon="11.6393533"><ele>519.6666666666667</ele><time>2026-04-18T12:39:38.282Z</time></trkpt><trkpt lat="44.0578583" lon="11.6391717"><ele>522.3333333333334</ele><time>2026-04-18T12:39:39.28Z</time></trkpt><trkpt lat="44.0577333" lon="11.6389833"><ele>525.0</ele><time>2026-04-18T12:39:40.279Z</time></trkpt><trkpt lat="44.05763" lon="11.638765"><ele>528.0</ele><time>2026-04-18T12:39:41.28Z</time></trkpt><trkpt lat="44.0575433" lon="11.638535"><ele>531.0</ele><time>2026-04-18T12:39:42.28Z</time></trkpt><trkpt lat="44.0574567" lon="11.6382883"><ele>534.0</ele><time>2026-04-18T12:39:43.28Z</time></trkpt><trkpt lat="44.0573733" lon="11.6380383"><ele>534.0</ele><time>2026-04-18T12:39:44.279Z</time></trkpt><trkpt lat="44.0572933" lon="11.6378083"><ele>534.0</ele><time>2026-04-18T12:39:45.279Z</time></trkpt><trkpt lat="44.0572117" lon="11.6376167"><ele>534.0</ele><time>2026-04-18T12:39:46.279Z</time></trkpt><trkpt lat="44.0571167" lon="11.6374617"><ele>535.3333333333334</ele><time>2026-04-18T12:39:47.28Z</time></trkpt><trkpt lat="44.0569933" lon="11.6373383"><ele>536.6666666666667</ele><time>2026-04-18T12:39:48.282Z</time></trkpt><trkpt lat="44.0568517" lon="11.6372217"><ele>538.0</ele><time>2026-04-18T12:39:49.28Z</time></trkpt><trkpt lat="44.0567017" lon="11.6371167"><ele>538.5</ele><time>2026-04-18T12:39:50.28Z</time></trkpt><trkpt lat="44.0565633" lon="11.637025"><ele>539.0</ele><time>2026-04-18T12:39:51.28Z</time></trkpt><trkpt lat="44.056445" lon="11.6369217"><ele>539.5</ele><time>2026-04-18T12:39:52.278Z</time></trkpt><trkpt lat="44.056335" lon="11.6367683"><ele>540.0</ele><time>2026-04-18T12:39:53.281Z</time></trkpt><trkpt lat="44.056225" lon="11.6365983"><ele>540.0</ele><time>2026-04-18T12:39:54.283Z</time></trkpt><trkpt lat="44.056095" lon="11.6364533"><ele>540.0</ele><time>2026-04-18T12:39:55.281Z</time></trkpt><trkpt lat="44.055935" lon="11.6363617"><ele>540.0</ele><time>2026-04-18T12:39:56.281Z</time></trkpt><trkpt lat="44.0557567" lon="11.6362883"><ele>541.6666666666666</ele><time>2026-04-18T12:39:57.281Z</time></trkpt><trkpt lat="44.0555767" lon="11.636235"><ele>543.3333333333333</ele><time>2026-04-18T12:39:58.279Z</time></trkpt><trkpt lat="44.0554" lon="11.6361833"><ele>545.0</ele><time>2026-04-18T12:39:59.28Z</time></trkpt><trkpt lat="44.0552233" lon="11.6361317"><ele>546.6666666666666</ele><time>2026-04-18T12:40:00.283Z</time></trkpt><trkpt lat="44.0550483" lon="11.636055"><ele>548.3333333333334</ele><time>2026-04-18T12:40:01.282Z</time></trkpt><trkpt lat="44.0548767" lon="11.6359367"><ele>550.0</ele><time>2026-04-18T12:40:02.28Z</time></trkpt><trkpt lat="44.0547083" lon="11.635795"><ele>550.6666666666667</ele><time>2026-04-18T12:40:03.28Z</time></trkpt><trkpt lat="44.0545367" lon="11.635635"><ele>551.3333333333334</ele><time>2026-04-18T12:40:04.28Z</time></trkpt><trkpt lat="44.0543617" lon="11.635475"><ele>552.0</ele><time>2026-04-18T12:40:05.282Z</time></trkpt><trkpt lat="44.0541817" lon="11.6353133"><ele>554.0</ele><time>2026-04-18T12:40:06.279Z</time></trkpt><trkpt lat="44.0539983" lon="11.6351533"><ele>556.0</ele><time>2026-04-18T12:40:07.28Z</time></trkpt><trkpt lat="44.05382" lon="11.6350133"><ele>558.0</ele><time>2026-04-18T12:40:08.278Z</time></trkpt><trkpt lat="44.05365" lon="11.6349"><ele>558.0</ele><time>2026-04-18T12:40:09.279Z</time></trkpt><trkpt lat="44.0534983" lon="11.6347983"><ele>558.0</ele><time>2026-04-18T12:40:10.281Z</time></trkpt><trkpt lat="44.0533733" lon="11.634715"><ele>558.0</ele><time>2026-04-18T12:40:11.281Z</time></trkpt><trkpt lat="44.0532717" lon="11.6346067"><ele>558.0</ele><time>2026-04-18T12:40:12.279Z</time></trkpt><trkpt lat="44.0531883" lon="11.634455"><ele>559.6666666666666</ele><time>2026-04-18T12:40:13.281Z</time></trkpt><trkpt lat="44.053105" lon="11.6342717"><ele>561.3333333333333</ele><time>2026-04-18T12:40:14.28Z</time></trkpt><trkpt lat="44.053015" lon="11.6340583"><ele>563.0</ele><time>2026-04-18T12:40:15.28Z</time></trkpt><trkpt lat="44.0529133" lon="11.633835"><ele>563.0</ele><time>2026-04-18T12:40:16.282Z</time></trkpt><trkpt lat="44.052795" lon="11.63364"><ele>563.0</ele><time>2026-04-18T12:40:17.281Z</time></trkpt><trkpt lat="44.0526617" lon="11.6334767"><ele>563.0</ele><time>2026-04-18T12:40:18.282Z</time></trkpt><trkpt lat="44.0525117" lon="11.6333367"><ele>567.6666666666666</ele><time>2026-04-18T12:40:19.281Z</time></trkpt><trkpt lat="44.0523467" lon="11.6332517"><ele>572.3333333333334</ele><time>2026-04-18T12:40:20.282Z</time></trkpt><trkpt lat="44.0521767" lon="11.6332167"><ele>577.0</ele><time>2026-04-18T12:40:21.284Z</time></trkpt><trkpt lat="44.0520133" lon="11.6331933"><ele>577.0</ele><time>2026-04-18T12:40:22.281Z</time></trkpt><trkpt lat="44.0518717" lon="11.6331717"><ele>577.0</ele><time>2026-04-18T12:40:23.281Z</time></trkpt><trkpt lat="44.051755" lon="11.633135"><ele>577.0</ele><time>2026-04-18T12:40:24.282Z</time></trkpt><trkpt lat="44.05166" lon="11.6330633"><ele>577.0</ele><time>2026-04-18T12:40:25.282Z</time></trkpt><trkpt lat="44.05156" lon="11.6329717"><ele>577.0</ele><time>2026-04-18T12:40:26.282Z</time></trkpt><trkpt lat="44.0514417" lon="11.6328483"><ele>577.0</ele><time>2026-04-18T12:40:27.284Z</time></trkpt><trkpt lat="44.0513017" lon="11.632715"><ele>577.0</ele><time>2026-04-18T12:40:28.28Z</time></trkpt><trkpt lat="44.05115" lon="11.6325733"><ele>580.0</ele><time>2026-04-18T12:40:29.282Z</time></trkpt><trkpt lat="44.05099" lon="11.6324283"><ele>583.0</ele><time>2026-04-18T12:40:30.281Z</time></trkpt><trkpt lat="44.0508283" lon="11.6322867"><ele>586.0</ele><time>2026-04-18T12:40:31.282Z</time></trkpt><trkpt lat="44.0506717" lon="11.63216"><ele>587.3333333333334</ele><time>2026-04-18T12:40:32.281Z</time></trkpt><trkpt lat="44.0505283" lon="11.63203"><ele>588.6666666666666</ele><time>2026-04-18T12:40:33.281Z</time></trkpt><trkpt lat="44.0504033" lon="11.6318867"><ele>590.0</ele><time>2026-04-18T12:40:34.281Z</time></trkpt><trkpt lat="44.0502867" lon="11.6317333"><ele>591.3333333333333</ele><time>2026-04-18T12:40:35.281Z</time></trkpt><trkpt lat="44.0501683" lon="11.631565"><ele>592.6666666666666</ele><time>2026-04-18T12:40:36.28Z</time></trkpt><trkpt lat="44.0500333" lon="11.631375"><ele>594.0</ele><time>2026-04-18T12:40:37.282Z</time></trkpt><trkpt lat="44.0498867" lon="11.6311883"><ele>595.6666666666666</ele><time>2026-04-18T12:40:38.28Z</time></trkpt><trkpt lat="44.049735" lon="11.6309967"><ele>597.3333333333333</ele><time>2026-04-18T12:40:39.283Z</time></trkpt><trkpt lat="44.0495817" lon="11.630805"><ele>599.0</ele><time>2026-04-18T12:40:40.281Z</time></trkpt><trkpt lat="44.0494233" lon="11.630635"><ele>599.0</ele><time>2026-04-18T12:40:41.281Z</time></trkpt><trkpt lat="44.0492683" lon="11.6305017"><ele>599.0</ele><time>2026-04-18T12:40:42.28Z</time></trkpt><trkpt lat="44.0491283" lon="11.6303733"><ele>599.0</ele><time>2026-04-18T12:40:43.281Z</time></trkpt><trkpt lat="44.0489983" lon="11.6302217"><ele>603.3333333333333</ele><time>2026-04-18T12:40:44.281Z</time></trkpt><trkpt lat="44.048875" lon="11.63005"><ele>607.6666666666666</ele><time>2026-04-18T12:40:45.28Z</time></trkpt><trkpt lat="44.0487583" lon="11.6298683"><ele>612.0</ele><time>2026-04-18T12:40:46.28Z</time></trkpt><trkpt lat="44.048645" lon="11.6296817"><ele>612.0</ele><time>2026-04-18T12:40:47.281Z</time></trkpt><trkpt lat="44.0485383" lon="11.629495"><ele>612.0</ele><time>2026-04-18T12:40:48.281Z</time></trkpt><trkpt lat="44.0484367" lon="11.6293383"><ele>612.0</ele><time>2026-04-18T12:40:49.281Z</time></trkpt><trkpt lat="44.048335" lon="11.629215"><ele>616.5</ele><time>2026-04-18T12:40:50.28Z</time></trkpt><trkpt lat="44.048215" lon="11.6291717"><ele>621.0</ele><time>2026-04-18T12:40:51.281Z</time></trkpt><trkpt lat="44.0480783" lon="11.6291767"><ele>625.5</ele><time>2026-04-18T12:40:52.28Z</time></trkpt><trkpt lat="44.0479233" lon="11.6292167"><ele>630.0</ele><time>2026-04-18T12:40:53.281Z</time></trkpt><trkpt lat="44.0477633" lon="11.6292883"><ele>630.0</ele><time>2026-04-18T12:40:54.283Z</time></trkpt><trkpt lat="44.0476117" lon="11.6293983"><ele>630.0</ele><time>2026-04-18T12:40:55.281Z</time></trkpt><trkpt lat="44.0474583" lon="11.6295367"><ele>630.0</ele><time>2026-04-18T12:40:56.282Z</time></trkpt><trkpt lat="44.0473233" lon="11.6296717"><ele>631.0</ele><time>2026-04-18T12:40:57.283Z</time></trkpt><trkpt lat="44.0472017" lon="11.6297867"><ele>632.0</ele><time>2026-04-18T12:40:58.282Z</time></trkpt><trkpt lat="44.0470883" lon="11.62987"><ele>633.0</ele><time>2026-04-18T12:40:59.282Z</time></trkpt><trkpt lat="44.0469867" lon="11.62993"><ele>634.0</ele><time>2026-04-18T12:41:00.281Z</time></trkpt><trkpt lat="44.0468883" lon="11.6299533"><ele>634.0</ele><time>2026-04-18T12:41:01.281Z</time></trkpt><trkpt lat="44.046795" lon="11.6299433"><ele>634.0</ele><time>2026-04-18T12:41:02.282Z</time></trkpt><trkpt lat="44.0467017" lon="11.6299017"><ele>634.0</ele><time>2026-04-18T12:41:03.283Z</time></trkpt><trkpt lat="44.0466067" lon="11.62982"><ele>634.0</ele><time>2026-04-18T12:41:04.281Z</time></trkpt><trkpt lat="44.0465167" lon="11.6296833"><ele>634.0</ele><time>2026-04-18T12:41:05.283Z</time></trkpt><trkpt lat="44.04641" lon="11.6295083"><ele>638.3333333333334</ele><time>2026-04-18T12:41:06.281Z</time></trkpt><trkpt lat="44.0462867" lon="11.6293333"><ele>642.6666666666666</ele><time>2026-04-18T12:41:07.281Z</time></trkpt><trkpt lat="44.0461517" lon="11.6291917"><ele>647.0</ele><time>2026-04-18T12:41:08.28Z</time></trkpt><trkpt lat="44.04601" lon="11.6290517"><ele>647.0</ele><time>2026-04-18T12:41:09.28Z</time></trkpt><trkpt lat="44.0458683" lon="11.6289133"><ele>647.0</ele><time>2026-04-18T12:41:10.282Z</time></trkpt><trkpt lat="44.0457233" lon="11.6287767"><ele>647.0</ele><time>2026-04-18T12:41:11.28Z</time></trkpt><trkpt lat="44.0455883" lon="11.628665"><ele>650.75</ele><time>2026-04-18T12:41:12.28Z</time></trkpt><trkpt lat="44.0454583" lon="11.62858"><ele>654.5</ele><time>2026-04-18T12:41:13.282Z</time></trkpt><trkpt lat="44.0453383" lon="11.62853"><ele>658.25</ele><time>2026-04-18T12:41:14.281Z</time></trkpt><trkpt lat="44.0452267" lon="11.6284667"><ele>662.0</ele><time>2026-04-18T12:41:15.279Z</time></trkpt><trkpt lat="44.0451283" lon="11.6283783"><ele>662.0</ele><time>2026-04-18T12:41:16.281Z</time></trkpt><trkpt lat="44.0450133" lon="11.62829"><ele>662.0</ele><time>2026-04-18T12:41:17.281Z</time></trkpt><trkpt lat="44.044885" lon="11.62822"><ele>662.0</ele><time>2026-04-18T12:41:18.281Z</time></trkpt><trkpt lat="44.044755" lon="11.6281633"><ele>662.0</ele><time>2026-04-18T12:41:19.282Z</time></trkpt><trkpt lat="44.0446317" lon="11.6280883"><ele>663.0</ele><time>2026-04-18T12:41:20.281Z</time></trkpt><trkpt lat="44.0445083" lon="11.627995"><ele>664.0</ele><time>2026-04-18T12:41:21.281Z</time></trkpt><trkpt lat="44.0443983" lon="11.62787"><ele>665.0</ele><time>2026-04-18T12:41:22.281Z</time></trkpt><trkpt lat="44.04431" lon="11.6276933"><ele>666.0</ele><time>2026-04-18T12:41:23.281Z</time></trkpt><trkpt lat="44.0442433" lon="11.627505"><ele>666.0</ele><time>2026-04-18T12:41:24.282Z</time></trkpt><trkpt lat="44.0441833" lon="11.6273217"><ele>666.0</ele><time>2026-04-18T12:41:25.282Z</time></trkpt><trkpt lat="44.0441067" lon="11.6271433"><ele>666.0</ele><time>2026-04-18T12:41:26.283Z</time></trkpt><trkpt lat="44.0439967" lon="11.6269833"><ele>669.0</ele><time>2026-04-18T12:41:27.284Z</time></trkpt><trkpt lat="44.0438533" lon="11.6268433"><ele>672.0</ele><time>2026-04-18T12:41:28.282Z</time></trkpt><trkpt lat="44.0436833" lon="11.6267017"><ele>675.0</ele><time>2026-04-18T12:41:29.282Z</time></trkpt><trkpt lat="44.0435083" lon="11.6265767"><ele>675.0</ele><time>2026-04-18T12:41:30.282Z</time></trkpt><trkpt lat="44.043335" lon="11.6264467"><ele>675.0</ele><time>2026-04-18T12:41:31.282Z</time></trkpt><trkpt lat="44.043155" lon="11.6262917"><ele>675.0</ele><time>2026-04-18T12:41:32.282Z</time></trkpt><trkpt lat="44.042985" lon="11.626145"><ele>678.3333333333334</ele><time>2026-04-18T12:41:33.281Z</time></trkpt><trkpt lat="44.0428333" lon="11.6259933"><ele>681.6666666666667</ele><time>2026-04-18T12:41:34.282Z</time></trkpt><trkpt lat="44.04271" lon="11.6258317"><ele>685.0</ele><time>2026-04-18T12:41:35.283Z</time></trkpt><trkpt lat="44.0426117" lon="11.6256733"><ele>685.0</ele><time>2026-04-18T12:41:36.282Z</time></trkpt><trkpt lat="44.0425233" lon="11.6255317"><ele>685.0</ele><time>2026-04-18T12:41:37.282Z</time></trkpt><trkpt lat="44.04243" lon="11.625435"><ele>685.0</ele><time>2026-04-18T12:41:38.281Z</time></trkpt><trkpt lat="44.0423333" lon="11.6253983"><ele>685.0</ele><time>2026-04-18T12:41:39.284Z</time></trkpt><trkpt lat="44.0422483" lon="11.62543"><ele>685.0</ele><time>2026-04-18T12:41:40.281Z</time></trkpt><trkpt lat="44.0421783" lon="11.6255117"><ele>688.75</ele><time>2026-04-18T12:41:41.283Z</time></trkpt><trkpt lat="44.0421233" lon="11.6256383"><ele>692.5</ele><time>2026-04-18T12:41:42.282Z</time></trkpt><trkpt lat="44.04208" lon="11.6257933"><ele>696.25</ele><time>2026-04-18T12:41:43.282Z</time></trkpt><trkpt lat="44.0420983" lon="11.625995"><ele>700.0</ele><time>2026-04-18T12:41:44.283Z</time></trkpt><trkpt lat="44.0421583" lon="11.6262083"><ele>702.5</ele><time>2026-04-18T12:41:45.281Z</time></trkpt><trkpt lat="44.0422717" lon="11.6263883"><ele>705.0</ele><time>2026-04-18T12:41:46.282Z</time></trkpt><trkpt lat="44.0423483" lon="11.6265217"><ele>707.5</ele><time>2026-04-18T12:41:47.283Z</time></trkpt><trkpt lat="44.0424183" lon="11.62668"><ele>710.0</ele><time>2026-04-18T12:41:48.281Z</time></trkpt><trkpt lat="44.042475" lon="11.6268267"><ele>710.0</ele><time>2026-04-18T12:41:49.282Z</time></trkpt><trkpt lat="44.0424867" lon="11.6269433"><ele>710.0</ele><time>2026-04-18T12:41:50.282Z</time></trkpt><trkpt lat="44.042425" lon="11.6269983"><ele>710.0</ele><time>2026-04-18T12:41:51.281Z</time></trkpt><trkpt lat="44.0423567" lon="11.62701"><ele>710.0</ele><time>2026-04-18T12:41:52.28Z</time></trkpt><trkpt lat="44.042265" lon="11.6268867"><ele>710.0</ele><time>2026-04-18T12:41:53.281Z</time></trkpt><trkpt lat="44.0421917" lon="11.6267167"><ele>710.0</ele><time>2026-04-18T12:41:54.28Z</time></trkpt><trkpt lat="44.0421083" lon="11.62652"><ele>710.0</ele><time>2026-04-18T12:41:55.281Z</time></trkpt><trkpt lat="44.0420033" lon="11.62631"><ele>710.0</ele><time>2026-04-18T12:41:56.281Z</time></trkpt><trkpt lat="44.04187" lon="11.626125"><ele>707.6666666666666</ele><time>2026-04-18T12:41:57.28Z</time></trkpt><trkpt lat="44.0417167" lon="11.6259667"><ele>705.3333333333334</ele><time>2026-04-18T12:41:58.281Z</time></trkpt><trkpt lat="44.04156" lon="11.6258583"><ele>703.0</ele><time>2026-04-18T12:41:59.279Z</time></trkpt><trkpt lat="44.04142" lon="11.6257783"><ele>703.0</ele><time>2026-04-18T12:42:00.28Z</time></trkpt><trkpt lat="44.0412967" lon="11.6257383"><ele>703.0</ele><time>2026-04-18T12:42:01.283Z</time></trkpt><trkpt lat="44.0411967" lon="11.6257667"><ele>703.0</ele><time>2026-04-18T12:42:02.281Z</time></trkpt><trkpt lat="44.0411233" lon="11.62584"><ele>703.0</ele><time>2026-04-18T12:42:03.279Z</time></trkpt><trkpt lat="44.0410683" lon="11.6259533"><ele>703.0</ele><time>2026-04-18T12:42:04.28Z</time></trkpt><trkpt lat="44.0410583" lon="11.6260633"><ele>706.0</ele><time>2026-04-18T12:42:05.281Z</time></trkpt><trkpt lat="44.0411533" lon="11.6261467"><ele>709.0</ele><time>2026-04-18T12:42:06.28Z</time></trkpt><trkpt lat="44.0412683" lon="11.6262083"><ele>712.0</ele><time>2026-04-18T12:42:07.28Z</time></trkpt><trkpt lat="44.0414017" lon="11.6262717"><ele>715.0</ele><time>2026-04-18T12:42:08.281Z</time></trkpt><trkpt lat="44.0415017" lon="11.6263683"><ele>715.0</ele><time>2026-04-18T12:42:09.278Z</time></trkpt><trkpt lat="44.0415517" lon="11.6264967"><ele>715.0</ele><time>2026-04-18T12:42:10.28Z</time></trkpt><trkpt lat="44.0415633" lon="11.6266417"><ele>715.0</ele><time>2026-04-18T12:42:11.28Z</time></trkpt><trkpt lat="44.0415233" lon="11.6267683"><ele>715.0</ele><time>2026-04-18T12:42:12.28Z</time></trkpt><trkpt lat="44.0414" lon="11.6268483"><ele>715.0</ele><time>2026-04-18T12:42:13.281Z</time></trkpt><trkpt lat="44.0412533" lon="11.6269183"><ele>719.3333333333334</ele><time>2026-04-18T12:42:14.281Z</time></trkpt><trkpt lat="44.0410733" lon="11.6269967"><ele>723.6666666666666</ele><time>2026-04-18T12:42:15.28Z</time></trkpt><trkpt lat="44.0408683" lon="11.6270733"><ele>728.0</ele><time>2026-04-18T12:42:16.28Z</time></trkpt><trkpt lat="44.0406533" lon="11.62715"><ele>729.0</ele><time>2026-04-18T12:42:17.282Z</time></trkpt><trkpt lat="44.040435" lon="11.6272283"><ele>730.0</ele><time>2026-04-18T12:42:18.281Z</time></trkpt><trkpt lat="44.0402133" lon="11.6273017"><ele>730.0</ele><time>2026-04-18T12:42:19.28Z</time></trkpt><trkpt lat="44.04001" lon="11.62738"><ele>730.0</ele><time>2026-04-18T12:42:20.28Z</time></trkpt><trkpt lat="44.0398183" lon="11.62748"><ele>730.0</ele><time>2026-04-18T12:42:21.278Z</time></trkpt><trkpt lat="44.0396433" lon="11.6276167"><ele>728.0</ele><time>2026-04-18T12:42:22.282Z</time></trkpt><trkpt lat="44.03949" lon="11.627785"><ele>726.0</ele><time>2026-04-18T12:42:23.28Z</time></trkpt><trkpt lat="44.0393333" lon="11.6279517"><ele>724.0</ele><time>2026-04-18T12:42:24.28Z</time></trkpt><trkpt lat="44.0391783" lon="11.6280783"><ele>726.75</ele><time>2026-04-18T12:42:25.281Z</time></trkpt><trkpt lat="44.0390333" lon="11.6281617"><ele>729.5</ele><time>2026-04-18T12:42:26.281Z</time></trkpt><trkpt lat="44.0388967" lon="11.6282133"><ele>732.25</ele><time>2026-04-18T12:42:27.281Z</time></trkpt><trkpt lat="44.0387783" lon="11.6282483"><ele>735.0</ele><time>2026-04-18T12:42:28.283Z</time></trkpt><trkpt lat="44.038695" lon="11.6283083"><ele>735.0</ele><time>2026-04-18T12:42:29.28Z</time></trkpt><trkpt lat="44.0386417" lon="11.6284"><ele>735.0</ele><time>2026-04-18T12:42:30.28Z</time></trkpt><trkpt lat="44.0386333" lon="11.6285017"><ele>735.0</ele><time>2026-04-18T12:42:31.28Z</time></trkpt><trkpt lat="44.03869" lon="11.62859"><ele>735.0</ele><time>2026-04-18T12:42:32.282Z</time></trkpt><trkpt lat="44.0387783" lon="11.6286367"><ele>735.0</ele><time>2026-04-18T12:42:33.28Z</time></trkpt><trkpt lat="44.0389117" lon="11.628575"><ele>735.0</ele><time>2026-04-18T12:42:34.28Z</time></trkpt><trkpt lat="44.0390667" lon="11.6285017"><ele>735.0</ele><time>2026-04-18T12:42:35.28Z</time></trkpt><trkpt lat="44.039245" lon="11.6284183"><ele>735.0</ele><time>2026-04-18T12:42:36.28Z</time></trkpt><trkpt lat="44.03941" lon="11.6283433"><ele>738.6666666666666</ele><time>2026-04-18T12:42:37.282Z</time></trkpt><trkpt lat="44.03957" lon="11.6283067"><ele>742.3333333333333</ele><time>2026-04-18T12:42:38.282Z</time></trkpt><trkpt lat="44.0397267" lon="11.6283267"><ele>746.0</ele><time>2026-04-18T12:42:39.281Z</time></trkpt><trkpt lat="44.0398817" lon="11.6284083"><ele>746.5</ele><time>2026-04-18T12:42:40.282Z</time></trkpt><trkpt lat="44.0400233" lon="11.6285083"><ele>747.0</ele><time>2026-04-18T12:42:41.283Z</time></trkpt><trkpt lat="44.0401383" lon="11.628615"><ele>747.5</ele><time>2026-04-18T12:42:42.282Z</time></trkpt><trkpt lat="44.0402017" lon="11.62874"><ele>748.0</ele><time>2026-04-18T12:42:43.281Z</time></trkpt><trkpt lat="44.040235" lon="11.6288733"><ele>751.4</ele><time>2026-04-18T12:42:44.281Z</time></trkpt><trkpt lat="44.0402367" lon="11.6290033"><ele>754.8</ele><time>2026-04-18T12:42:45.278Z</time></trkpt><trkpt lat="44.04019" lon="11.6291033"><ele>758.2</ele><time>2026-04-18T12:42:46.28Z</time></trkpt><trkpt lat="44.0400933" lon="11.6291433"><ele>761.6</ele><time>2026-04-18T12:42:47.28Z</time></trkpt><trkpt lat="44.039965" lon="11.6291183"><ele>765.0</ele><time>2026-04-18T12:42:48.28Z</time></trkpt><trkpt lat="44.0398067" lon="11.6290533"><ele>765.0</ele><time>2026-04-18T12:42:49.281Z</time></trkpt><trkpt lat="44.03967" lon="11.6290183"><ele>765.0</ele><time>2026-04-18T12:42:50.281Z</time></trkpt><trkpt lat="44.0394883" lon="11.6290317"><ele>765.0</ele><time>2026-04-18T12:42:51.279Z</time></trkpt><trkpt lat="44.039335" lon="11.629105"><ele>765.0</ele><time>2026-04-18T12:42:52.281Z</time></trkpt><trkpt lat="44.03919" lon="11.6292083"><ele>765.0</ele><time>2026-04-18T12:42:53.282Z</time></trkpt><trkpt lat="44.039065" lon="11.6293367"><ele>765.0</ele><time>2026-04-18T12:42:54.281Z</time></trkpt><trkpt lat="44.038985" lon="11.6295283"><ele>770.3333333333333</ele><time>2026-04-18T12:42:55.281Z</time></trkpt><trkpt lat="44.03889" lon="11.62969"><ele>775.6666666666666</ele><time>2026-04-18T12:42:56.28Z</time></trkpt><trkpt lat="44.038765" lon="11.6297933"><ele>781.0</ele><time>2026-04-18T12:42:57.281Z</time></trkpt><trkpt lat="44.0386083" lon="11.6298517"><ele>781.0</ele><time>2026-04-18T12:42:58.281Z</time></trkpt><trkpt lat="44.0384217" lon="11.62989"><ele>781.0</ele><time>2026-04-18T12:42:59.281Z</time></trkpt><trkpt lat="44.03825" lon="11.6299433"><ele>781.0</ele><time>2026-04-18T12:43:00.283Z</time></trkpt><trkpt lat="44.0380733" lon="11.63002"><ele>782.3333333333333</ele><time>2026-04-18T12:43:01.283Z</time></trkpt><trkpt lat="44.0379033" lon="11.6301517"><ele>783.6666666666667</ele><time>2026-04-18T12:43:02.282Z</time></trkpt><trkpt lat="44.0377567" lon="11.6303017"><ele>785.0</ele><time>2026-04-18T12:43:03.281Z</time></trkpt><trkpt lat="44.0376383" lon="11.630485"><ele>785.0</ele><time>2026-04-18T12:43:04.28Z</time></trkpt><trkpt lat="44.0375417" lon="11.630705"><ele>785.0</ele><time>2026-04-18T12:43:05.281Z</time></trkpt><trkpt lat="44.0374667" lon="11.6309633"><ele>785.0</ele><time>2026-04-18T12:43:06.281Z</time></trkpt><trkpt lat="44.0374017" lon="11.63123"><ele>786.0</ele><time>2026-04-18T12:43:07.282Z</time></trkpt><trkpt lat="44.037325" lon="11.631495"><ele>787.0</ele><time>2026-04-18T12:43:08.279Z</time></trkpt><trkpt lat="44.0372433" lon="11.6317533"><ele>788.0</ele><time>2026-04-18T12:43:09.279Z</time></trkpt><trkpt lat="44.03716" lon="11.6319983"><ele>788.0</ele><time>2026-04-18T12:43:10.282Z</time></trkpt><trkpt lat="44.0370883" lon="11.63223"><ele>788.0</ele><time>2026-04-18T12:43:11.281Z</time></trkpt><trkpt lat="44.037015" lon="11.6324517"><ele>788.0</ele><time>2026-04-18T12:43:12.282Z</time></trkpt><trkpt lat="44.0369467" lon="11.632665"><ele>790.3333333333334</ele><time>2026-04-18T12:43:13.279Z</time></trkpt><trkpt lat="44.0368917" lon="11.6328667"><ele>792.6666666666667</ele><time>2026-04-18T12:43:14.279Z</time></trkpt><trkpt lat="44.036845" lon="11.6330617"><ele>795.0</ele><time>2026-04-18T12:43:15.278Z</time></trkpt><trkpt lat="44.0368233" lon="11.633265"><ele>795.0</ele><time>2026-04-18T12:43:16.282Z</time></trkpt><trkpt lat="44.03683" lon="11.633485"><ele>795.0</ele><time>2026-04-18T12:43:17.281Z</time></trkpt><trkpt lat="44.0368667" lon="11.633725"><ele>795.0</ele><time>2026-04-18T12:43:18.28Z</time></trkpt><trkpt lat="44.0369133" lon="11.6339833"><ele>793.0</ele><time>2026-04-18T12:43:19.279Z</time></trkpt><trkpt lat="44.0369617" lon="11.6342533"><ele>791.0</ele><time>2026-04-18T12:43:20.28Z</time></trkpt><trkpt lat="44.037005" lon="11.634515"><ele>789.0</ele><time>2026-04-18T12:43:21.28Z</time></trkpt><trkpt lat="44.0370467" lon="11.6347567"><ele>788.0</ele><time>2026-04-18T12:43:22.279Z</time></trkpt><trkpt lat="44.0371017" lon="11.6349617"><ele>787.0</ele><time>2026-04-18T12:43:23.279Z</time></trkpt><trkpt lat="44.037175" lon="11.6351267"><ele>786.0</ele><time>2026-04-18T12:43:24.279Z</time></trkpt><trkpt lat="44.0372917" lon="11.6352767"><ele>790.6666666666667</ele><time>2026-04-18T12:43:25.281Z</time></trkpt><trkpt lat="44.03742" lon="11.6354233"><ele>795.3333333333334</ele><time>2026-04-18T12:43:26.28Z</time></trkpt><trkpt lat="44.03752" lon="11.63559"><ele>800.0</ele><time>2026-04-18T12:43:27.28Z</time></trkpt><trkpt lat="44.03759" lon="11.63576"><ele>800.4</ele><time>2026-04-18T12:43:28.28Z</time></trkpt><trkpt lat="44.03762" lon="11.6359283"><ele>800.8</ele><time>2026-04-18T12:43:29.279Z</time></trkpt><trkpt lat="44.037615" lon="11.6360733"><ele>801.2</ele><time>2026-04-18T12:43:30.28Z</time></trkpt><trkpt lat="44.0375767" lon="11.63619"><ele>801.6</ele><time>2026-04-18T12:43:31.28Z</time></trkpt><trkpt lat="44.0375317" lon="11.6362717"><ele>802.0</ele><time>2026-04-18T12:43:32.28Z</time></trkpt><trkpt lat="44.03745" lon="11.6363167"><ele>809.5</ele><time>2026-04-18T12:43:33.28Z</time></trkpt><trkpt lat="44.0373433" lon="11.6363133"><ele>817.0</ele><time>2026-04-18T12:43:34.278Z</time></trkpt><trkpt lat="44.037245" lon="11.6363083"><ele>824.5</ele><time>2026-04-18T12:43:35.282Z</time></trkpt><trkpt lat="44.0370383" lon="11.6362517"><ele>832.0</ele><time>2026-04-18T12:43:36.28Z</time></trkpt><trkpt lat="44.0367917" lon="11.6362"><ele>824.0</ele><time>2026-04-18T12:43:37.281Z</time></trkpt><trkpt lat="44.0366" lon="11.636135"><ele>816.0</ele><time>2026-04-18T12:43:38.281Z</time></trkpt><trkpt lat="44.0364467" lon="11.6360317"><ele>808.0</ele><time>2026-04-18T12:43:39.28Z</time></trkpt><trkpt lat="44.0363167" lon="11.6359633"><ele>808.0</ele><time>2026-04-18T12:43:40.278Z</time></trkpt><trkpt lat="44.0361967" lon="11.6359467"><ele>808.0</ele><time>2026-04-18T12:43:41.28Z</time></trkpt><trkpt lat="44.036065" lon="11.6359833"><ele>808.0</ele><time>2026-04-18T12:43:42.281Z</time></trkpt><trkpt lat="44.0359217" lon="11.6360433"><ele>808.0</ele><time>2026-04-18T12:43:43.28Z</time></trkpt><trkpt lat="44.035755" lon="11.6360783"><ele>812.0</ele><time>2026-04-18T12:43:44.279Z</time></trkpt><trkpt lat="44.035585" lon="11.6360683"><ele>816.0</ele><time>2026-04-18T12:43:45.28Z</time></trkpt><trkpt lat="44.035435" lon="11.6360467"><ele>820.0</ele><time>2026-04-18T12:43:46.278Z</time></trkpt><trkpt lat="44.0352933" lon="11.63606"><ele>820.0</ele><time>2026-04-18T12:43:47.279Z</time></trkpt><trkpt lat="44.0351617" lon="11.6361183"><ele>820.0</ele><time>2026-04-18T12:43:48.279Z</time></trkpt><trkpt lat="44.035045" lon="11.6361633"><ele>820.0</ele><time>2026-04-18T12:43:49.279Z</time></trkpt><trkpt lat="44.0349283" lon="11.6361567"><ele>820.0</ele><time>2026-04-18T12:43:50.28Z</time></trkpt><trkpt lat="44.0348033" lon="11.6360967"><ele>822.75</ele><time>2026-04-18T12:43:51.281Z</time></trkpt><trkpt lat="44.0346933" lon="11.6359917"><ele>825.5</ele><time>2026-04-18T12:43:52.279Z</time></trkpt><trkpt lat="44.0346083" lon="11.6358267"><ele>828.25</ele><time>2026-04-18T12:43:53.279Z</time></trkpt><trkpt lat="44.0345233" lon="11.6356783"><ele>831.0</ele><time>2026-04-18T12:43:54.28Z</time></trkpt><trkpt lat="44.0344367" lon="11.6355883"><ele>831.0</ele><time>2026-04-18T12:43:55.281Z</time></trkpt><trkpt lat="44.034335" lon="11.6355567"><ele>831.0</ele><time>2026-04-18T12:43:56.282Z</time></trkpt><trkpt lat="44.03423" lon="11.6355817"><ele>831.0</ele><time>2026-04-18T12:43:57.28Z</time></trkpt><trkpt lat="44.034115" lon="11.63567"><ele>831.0</ele><time>2026-04-18T12:43:58.28Z</time></trkpt><trkpt lat="44.0340117" lon="11.6358267"><ele>828.0</ele><time>2026-04-18T12:43:59.281Z</time></trkpt><trkpt lat="44.0339083" lon="11.636035"><ele>825.0</ele><time>2026-04-18T12:44:00.281Z</time></trkpt><trkpt lat="44.0338167" lon="11.636305"><ele>822.0</ele><time>2026-04-18T12:44:01.278Z</time></trkpt><trkpt lat="44.0337283" lon="11.6366067"><ele>822.0</ele><time>2026-04-18T12:44:02.281Z</time></trkpt><trkpt lat="44.03365" lon="11.6369217"><ele>822.0</ele><time>2026-04-18T12:44:03.28Z</time></trkpt><trkpt lat="44.0335767" lon="11.637245"><ele>826.3333333333333</ele><time>2026-04-18T12:44:04.28Z</time></trkpt><trkpt lat="44.0335217" lon="11.6375533"><ele>830.6666666666666</ele><time>2026-04-18T12:44:05.281Z</time></trkpt><trkpt lat="44.033475" lon="11.6378367"><ele>835.0</ele><time>2026-04-18T12:44:06.281Z</time></trkpt><trkpt lat="44.0334267" lon="11.6381"><ele>835.3333333333333</ele><time>2026-04-18T12:44:07.279Z</time></trkpt><trkpt lat="44.0333717" lon="11.6383333"><ele>835.6666666666667</ele><time>2026-04-18T12:44:08.281Z</time></trkpt><trkpt lat="44.03329" lon="11.6385267"><ele>836.0</ele><time>2026-04-18T12:44:09.281Z</time></trkpt><trkpt lat="44.0331783" lon="11.6386883"><ele>843.3333333333334</ele><time>2026-04-18T12:44:10.279Z</time></trkpt><trkpt lat="44.0330633" lon="11.63882"><ele>850.6666666666667</ele><time>2026-04-18T12:44:11.28Z</time></trkpt><trkpt lat="44.0329217" lon="11.638925"><ele>858.0</ele><time>2026-04-18T12:44:12.278Z</time></trkpt><trkpt lat="44.0327417" lon="11.6389933"><ele>858.0</ele><time>2026-04-18T12:44:13.278Z</time></trkpt><trkpt lat="44.032555" lon="11.6390133"><ele>858.0</ele><time>2026-04-18T12:44:14.28Z</time></trkpt><trkpt lat="44.0324083" lon="11.639015"><ele>858.0</ele><time>2026-04-18T12:44:15.28Z</time></trkpt><trkpt lat="44.0322817" lon="11.639035"><ele>857.3333333333334</ele><time>2026-04-18T12:44:16.279Z</time></trkpt><trkpt lat="44.0322" lon="11.6391"><ele>856.6666666666667</ele><time>2026-04-18T12:44:17.283Z</time></trkpt><trkpt lat="44.0321367" lon="11.63918"><ele>856.0</ele><time>2026-04-18T12:44:18.28Z</time></trkpt><trkpt lat="44.0321417" lon="11.6392767"><ele>855.3333333333334</ele><time>2026-04-18T12:44:19.28Z</time></trkpt><trkpt lat="44.0322083" lon="11.639345"><ele>854.6666666666667</ele><time>2026-04-18T12:44:20.281Z</time></trkpt><trkpt lat="44.0323017" lon="11.63937"><ele>854.0</ele><time>2026-04-18T12:44:21.278Z</time></trkpt><trkpt lat="44.032445" lon="11.6393667"><ele>855.3333333333334</ele><time>2026-04-18T12:44:22.281Z</time></trkpt><trkpt lat="44.0326233" lon="11.6393617"><ele>856.6666666666667</ele><time>2026-04-18T12:44:23.28Z</time></trkpt><trkpt lat="44.0328233" lon="11.63936"><ele>858.0</ele><time>2026-04-18T12:44:24.279Z</time></trkpt><trkpt lat="44.0330283" lon="11.6393617"><ele>858.0</ele><time>2026-04-18T12:44:25.279Z</time></trkpt><trkpt lat="44.0332217" lon="11.6393683"><ele>858.0</ele><time>2026-04-18T12:44:26.281Z</time></trkpt><trkpt lat="44.033395" lon="11.63938"><ele>858.0</ele><time>2026-04-18T12:44:27.279Z</time></trkpt><trkpt lat="44.03354" lon="11.6393967"><ele>859.8</ele><time>2026-04-18T12:44:28.281Z</time></trkpt><trkpt lat="44.0336433" lon="11.639445"><ele>861.5999999999999</ele><time>2026-04-18T12:44:29.28Z</time></trkpt><trkpt lat="44.0337167" lon="11.63954"><ele>863.4000000000001</ele><time>2026-04-18T12:44:30.28Z</time></trkpt><trkpt lat="44.0337433" lon="11.63966"><ele>865.2</ele><time>2026-04-18T12:44:31.279Z</time></trkpt><trkpt lat="44.0336933" lon="11.6397733"><ele>867.0</ele><time>2026-04-18T12:44:32.28Z</time></trkpt><trkpt lat="44.033615" lon="11.639845"><ele>872.3333333333333</ele><time>2026-04-18T12:44:33.281Z</time></trkpt><trkpt lat="44.0335333" lon="11.639905"><ele>877.6666666666666</ele><time>2026-04-18T12:44:34.281Z</time></trkpt><trkpt lat="44.033365" lon="11.63996"><ele>883.0</ele><time>2026-04-18T12:44:35.279Z</time></trkpt><trkpt lat="44.033165" lon="11.6400167"><ele>883.0</ele><time>2026-04-18T12:44:36.28Z</time></trkpt><trkpt lat="44.0329567" lon="11.640065"><ele>883.0</ele><time>2026-04-18T12:44:37.28Z</time></trkpt><trkpt lat="44.03279" lon="11.6401333"><ele>883.0</ele><time>2026-04-18T12:44:38.281Z</time></trkpt><trkpt lat="44.0325433" lon="11.64023"><ele>885.3333333333333</ele><time>2026-04-18T12:44:39.279Z</time></trkpt><trkpt lat="44.032345" lon="11.6403833"><ele>887.6666666666667</ele><time>2026-04-18T12:44:40.281Z</time></trkpt><trkpt lat="44.0321983" lon="11.6405817"><ele>890.0</ele><time>2026-04-18T12:44:41.278Z</time></trkpt><trkpt lat="44.0320833" lon="11.6408283"><ele>890.0</ele><time>2026-04-18T12:44:42.28Z</time></trkpt><trkpt lat="44.0319933" lon="11.6410783"><ele>890.0</ele><time>2026-04-18T12:44:43.281Z</time></trkpt><trkpt lat="44.0319217" lon="11.6412983"><ele>890.0</ele><time>2026-04-18T12:44:44.28Z</time></trkpt><trkpt lat="44.0318383" lon="11.6414683"><ele>895.25</ele><time>2026-04-18T12:44:45.281Z</time></trkpt><trkpt lat="44.0317433" lon="11.641575"><ele>900.5</ele><time>2026-04-18T12:44:46.28Z</time></trkpt><trkpt lat="44.03163" lon="11.64162"><ele>905.75</ele><time>2026-04-18T12:44:47.279Z</time></trkpt><trkpt lat="44.0315083" lon="11.641635"><ele>911.0</ele><time>2026-04-18T12:44:48.28Z</time></trkpt><trkpt lat="44.031365" lon="11.6416317"><ele>910.3333333333334</ele><time>2026-04-18T12:44:49.28Z</time></trkpt><trkpt lat="44.03117" lon="11.6416233"><ele>909.6666666666667</ele><time>2026-04-18T12:44:50.28Z</time></trkpt><trkpt lat="44.0309767" lon="11.64161"><ele>909.0</ele><time>2026-04-18T12:44:51.28Z</time></trkpt><trkpt lat="44.0308" lon="11.64157"><ele>909.0</ele><time>2026-04-18T12:44:52.28Z</time></trkpt><trkpt lat="44.0306417" lon="11.641485"><ele>909.0</ele><time>2026-04-18T12:44:53.28Z</time></trkpt><trkpt lat="44.0305217" lon="11.6413617"><ele>909.0</ele><time>2026-04-18T12:44:54.279Z</time></trkpt><trkpt lat="44.030435" lon="11.641195"><ele>909.2</ele><time>2026-04-18T12:44:55.281Z</time></trkpt><trkpt lat="44.0303633" lon="11.641035"><ele>909.4000000000001</ele><time>2026-04-18T12:44:56.28Z</time></trkpt><trkpt lat="44.030295" lon="11.640915"><ele>909.6</ele><time>2026-04-18T12:44:57.279Z</time></trkpt><trkpt lat="44.0302233" lon="11.640845"><ele>909.8</ele><time>2026-04-18T12:44:58.28Z</time></trkpt><trkpt lat="44.03016" lon="11.6408183"><ele>910.0</ele><time>2026-04-18T12:44:59.279Z</time></trkpt><trkpt lat="44.0300833" lon="11.6408417"><ele>910.0</ele><time>2026-04-18T12:45:00.28Z</time></trkpt><trkpt lat="44.0300217" lon="11.6409"><ele>910.0</ele><time>2026-04-18T12:45:01.28Z</time></trkpt><trkpt lat="44.0299917" lon="11.64098"><ele>910.0</ele><time>2026-04-18T12:45:02.281Z</time></trkpt><trkpt lat="44.030065" lon="11.6411067"><ele>910.0</ele><time>2026-04-18T12:45:03.278Z</time></trkpt><trkpt lat="44.0301133" lon="11.64122"><ele>910.0</ele><time>2026-04-18T12:45:04.28Z</time></trkpt><trkpt lat="44.0302033" lon="11.6413717"><ele>909.6666666666666</ele><time>2026-04-18T12:45:05.28Z</time></trkpt><trkpt lat="44.0302917" lon="11.6415733"><ele>909.3333333333333</ele><time>2026-04-18T12:45:06.279Z</time></trkpt><trkpt lat="44.0303583" lon="11.641795"><ele>909.0</ele><time>2026-04-18T12:45:07.282Z</time></trkpt><trkpt lat="44.0304133" lon="11.6420267"><ele>908.6666666666667</ele><time>2026-04-18T12:45:08.282Z</time></trkpt><trkpt lat="44.030455" lon="11.6422767"><ele>908.3333333333334</ele><time>2026-04-18T12:45:09.28Z</time></trkpt><trkpt lat="44.0304717" lon="11.6425267"><ele>908.0</ele><time>2026-04-18T12:45:10.28Z</time></trkpt><trkpt lat="44.0304867" lon="11.6427683"><ele>909.6666666666667</ele><time>2026-04-18T12:45:11.281Z</time></trkpt><trkpt lat="44.030505" lon="11.642985"><ele>911.3333333333333</ele><time>2026-04-18T12:45:12.279Z</time></trkpt><trkpt lat="44.0305183" lon="11.643195"><ele>913.0</ele><time>2026-04-18T12:45:13.28Z</time></trkpt><trkpt lat="44.0305033" lon="11.6434267"><ele>916.6666666666666</ele><time>2026-04-18T12:45:14.28Z</time></trkpt><trkpt lat="44.0304567" lon="11.6436467"><ele>920.3333333333333</ele><time>2026-04-18T12:45:15.28Z</time></trkpt><trkpt lat="44.0303567" lon="11.6438533"><ele>924.0</ele><time>2026-04-18T12:45:16.28Z</time></trkpt><trkpt lat="44.0302283" lon="11.644035"><ele>924.0</ele><time>2026-04-18T12:45:17.281Z</time></trkpt><trkpt lat="44.0300767" lon="11.6442017"><ele>924.0</ele><time>2026-04-18T12:45:18.279Z</time></trkpt><trkpt lat="44.0299217" lon="11.64437"><ele>924.0</ele><time>2026-04-18T12:45:19.281Z</time></trkpt><trkpt lat="44.0297883" lon="11.64453"><ele>923.6666666666667</ele><time>2026-04-18T12:45:20.28Z</time></trkpt><trkpt lat="44.0296333" lon="11.6446467"><ele>923.3333333333334</ele><time>2026-04-18T12:45:21.279Z</time></trkpt><trkpt lat="44.0294783" lon="11.6447183"><ele>923.0</ele><time>2026-04-18T12:45:22.28Z</time></trkpt><trkpt lat="44.029305" lon="11.6447633"><ele>921.0</ele><time>2026-04-18T12:45:23.28Z</time></trkpt><trkpt lat="44.029135" lon="11.6447983"><ele>919.0</ele><time>2026-04-18T12:45:24.281Z</time></trkpt><trkpt lat="44.02898" lon="11.6448233"><ele>917.0</ele><time>2026-04-18T12:45:25.281Z</time></trkpt><trkpt lat="44.0288383" lon="11.6448117"><ele>917.0</ele><time>2026-04-18T12:45:26.279Z</time></trkpt><trkpt lat="44.0287183" lon="11.6447667"><ele>917.0</ele><time>2026-04-18T12:45:27.281Z</time></trkpt><trkpt lat="44.0286267" lon="11.6446917"><ele>917.0</ele><time>2026-04-18T12:45:28.281Z</time></trkpt><trkpt lat="44.0285533" lon="11.6446133"><ele>917.0</ele><time>2026-04-18T12:45:29.281Z</time></trkpt><trkpt lat="44.0284617" lon="11.6445517"><ele>917.0</ele><time>2026-04-18T12:45:30.281Z</time></trkpt><trkpt lat="44.02835" lon="11.6445267"><ele>912.75</ele><time>2026-04-18T12:45:31.281Z</time></trkpt><trkpt lat="44.028225" lon="11.6445"><ele>908.5</ele><time>2026-04-18T12:45:32.282Z</time></trkpt><trkpt lat="44.0280733" lon="11.644475"><ele>904.25</ele><time>2026-04-18T12:45:33.281Z</time></trkpt><trkpt lat="44.0279167" lon="11.64447"><ele>900.0</ele><time>2026-04-18T12:45:34.282Z</time></trkpt><trkpt lat="44.0277533" lon="11.6445033"><ele>900.0</ele><time>2026-04-18T12:45:35.282Z</time></trkpt><trkpt lat="44.0275817" lon="11.64458"><ele>900.0</ele><time>2026-04-18T12:45:36.281Z</time></trkpt><trkpt lat="44.0274083" lon="11.64465"><ele>900.0</ele><time>2026-04-18T12:45:37.28Z</time></trkpt><trkpt lat="44.0272333" lon="11.644705"><ele>902.3333333333333</ele><time>2026-04-18T12:45:38.281Z</time></trkpt><trkpt lat="44.027065" lon="11.6447467"><ele>904.6666666666666</ele><time>2026-04-18T12:45:39.28Z</time></trkpt><trkpt lat="44.0269117" lon="11.6448"><ele>907.0</ele><time>2026-04-18T12:45:40.283Z</time></trkpt><trkpt lat="44.0267717" lon="11.644865"><ele>907.0</ele><time>2026-04-18T12:45:41.279Z</time></trkpt><trkpt lat="44.0266667" lon="11.6449617"><ele>907.0</ele><time>2026-04-18T12:45:42.281Z</time></trkpt><trkpt lat="44.0265967" lon="11.645105"><ele>907.0</ele><time>2026-04-18T12:45:43.281Z</time></trkpt><trkpt lat="44.0265333" lon="11.645255"><ele>907.0</ele><time>2026-04-18T12:45:44.281Z</time></trkpt><trkpt lat="44.0264567" lon="11.6453783"><ele>908.0</ele><time>2026-04-18T12:45:45.279Z</time></trkpt><trkpt lat="44.026355" lon="11.64546"><ele>909.0</ele><time>2026-04-18T12:45:46.282Z</time></trkpt><trkpt lat="44.0262633" lon="11.6455517"><ele>910.0</ele><time>2026-04-18T12:45:47.281Z</time></trkpt><trkpt lat="44.02621" lon="11.645685"><ele>911.0</ele><time>2026-04-18T12:45:48.28Z</time></trkpt><trkpt lat="44.0261683" lon="11.64584"><ele>911.0</ele><time>2026-04-18T12:45:49.282Z</time></trkpt><trkpt lat="44.0261167" lon="11.64598"><ele>910.9999999999999</ele><time>2026-04-18T12:45:50.281Z</time></trkpt><trkpt lat="44.026045" lon="11.6460683"><ele>910.9999999999999</ele><time>2026-04-18T12:45:51.281Z</time></trkpt><trkpt lat="44.0259733" lon="11.646115"><ele>911.0</ele><time>2026-04-18T12:45:52.28Z</time></trkpt><trkpt lat="44.0258517" lon="11.6460917"><ele>911.0</ele><time>2026-04-18T12:45:53.279Z</time></trkpt><trkpt lat="44.0257267" lon="11.64606"><ele>913.25</ele><time>2026-04-18T12:45:54.279Z</time></trkpt><trkpt lat="44.0255967" lon="11.646055"><ele>915.5</ele><time>2026-04-18T12:45:55.28Z</time></trkpt><trkpt lat="44.025475" lon="11.646105"><ele>917.75</ele><time>2026-04-18T12:45:56.281Z</time></trkpt><trkpt lat="44.0253633" lon="11.6462283"><ele>920.0</ele><time>2026-04-18T12:45:57.281Z</time></trkpt><trkpt lat="44.0252367" lon="11.646365"><ele>913.25</ele><time>2026-04-18T12:45:58.279Z</time></trkpt><trkpt lat="44.02511" lon="11.64649"><ele>906.5</ele><time>2026-04-18T12:45:59.28Z</time></trkpt><trkpt lat="44.0249983" lon="11.6466233"><ele>899.75</ele><time>2026-04-18T12:46:00.279Z</time></trkpt><trkpt lat="44.0249017" lon="11.6467633"><ele>893.0</ele><time>2026-04-18T12:46:01.28Z</time></trkpt><trkpt lat="44.0248233" lon="11.6468817"><ele>888.5999999999999</ele><time>2026-04-18T12:46:02.281Z</time></trkpt><trkpt lat="44.0247383" lon="11.6469567"><ele>884.1999999999999</ele><time>2026-04-18T12:46:03.28Z</time></trkpt><trkpt lat="44.0246517" lon="11.646975"><ele>879.8</ele><time>2026-04-18T12:46:04.28Z</time></trkpt><trkpt lat="44.024565" lon="11.6469567"><ele>875.4</ele><time>2026-04-18T12:46:05.28Z</time></trkpt><trkpt lat="44.0244867" lon="11.6468433"><ele>871.0</ele><time>2026-04-18T12:46:06.281Z</time></trkpt><trkpt lat="44.024415" lon="11.6466967"><ele>871.0</ele><time>2026-04-18T12:46:07.281Z</time></trkpt><trkpt lat="44.0243467" lon="11.64651"><ele>871.0</ele><time>2026-04-18T12:46:08.28Z</time></trkpt><trkpt lat="44.0242917" lon="11.6463017"><ele>871.0</ele><time>2026-04-18T12:46:09.28Z</time></trkpt><trkpt lat="44.0242467" lon="11.6461017"><ele>874.5</ele><time>2026-04-18T12:46:10.281Z</time></trkpt><trkpt lat="44.0242133" lon="11.6459233"><ele>878.0</ele><time>2026-04-18T12:46:11.281Z</time></trkpt><trkpt lat="44.02417" lon="11.6457567"><ele>881.5</ele><time>2026-04-18T12:46:12.282Z</time></trkpt><trkpt lat="44.0240983" lon="11.64563"><ele>885.0</ele><time>2026-04-18T12:46:13.28Z</time></trkpt><trkpt lat="44.02401" lon="11.645535"><ele>885.0</ele><time>2026-04-18T12:46:14.282Z</time></trkpt><trkpt lat="44.0239033" lon="11.6455133"><ele>885.0</ele><time>2026-04-18T12:46:15.28Z</time></trkpt><trkpt lat="44.02378" lon="11.6455467"><ele>885.0</ele><time>2026-04-18T12:46:16.28Z</time></trkpt><trkpt lat="44.0236433" lon="11.64565"><ele>885.0</ele><time>2026-04-18T12:46:17.28Z</time></trkpt><trkpt lat="44.0235067" lon="11.6457283"><ele>885.0</ele><time>2026-04-18T12:46:18.28Z</time></trkpt><trkpt lat="44.023375" lon="11.6458217"><ele>885.0</ele><time>2026-04-18T12:46:19.281Z</time></trkpt><trkpt lat="44.02327" lon="11.6459367"><ele>885.0</ele><time>2026-04-18T12:46:20.281Z</time></trkpt><trkpt lat="44.0231783" lon="11.6460667"><ele>885.0</ele><time>2026-04-18T12:46:21.28Z</time></trkpt><trkpt lat="44.023105" lon="11.6462167"><ele>883.75</ele><time>2026-04-18T12:46:22.281Z</time></trkpt><trkpt lat="44.0230583" lon="11.646385"><ele>882.5</ele><time>2026-04-18T12:46:23.282Z</time></trkpt><trkpt lat="44.0230167" lon="11.6465417"><ele>881.25</ele><time>2026-04-18T12:46:24.279Z</time></trkpt><trkpt lat="44.0229517" lon="11.646665"><ele>880.0</ele><time>2026-04-18T12:46:25.28Z</time></trkpt><trkpt lat="44.0228633" lon="11.6467633"><ele>880.0</ele><time>2026-04-18T12:46:26.281Z</time></trkpt><trkpt lat="44.0227517" lon="11.6468533"><ele>880.0</ele><time>2026-04-18T12:46:27.281Z</time></trkpt><trkpt lat="44.022645" lon="11.646945"><ele>880.0</ele><time>2026-04-18T12:46:28.28Z</time></trkpt><trkpt lat="44.0225367" lon="11.6470317"><ele>880.0</ele><time>2026-04-18T12:46:29.28Z</time></trkpt><trkpt lat="44.0224" lon="11.6470967"><ele>869.3333333333333</ele><time>2026-04-18T12:46:30.28Z</time></trkpt><trkpt lat="44.0222467" lon="11.6471433"><ele>858.6666666666667</ele><time>2026-04-18T12:46:31.282Z</time></trkpt><trkpt lat="44.0220867" lon="11.6471717"><ele>848.0</ele><time>2026-04-18T12:46:32.281Z</time></trkpt><trkpt lat="44.02193" lon="11.6471883"><ele>848.0</ele><time>2026-04-18T12:46:33.28Z</time></trkpt><trkpt lat="44.021785" lon="11.647155"><ele>848.0</ele><time>2026-04-18T12:46:34.278Z</time></trkpt><trkpt lat="44.0216583" lon="11.6471217"><ele>848.0</ele><time>2026-04-18T12:46:35.279Z</time></trkpt><trkpt lat="44.0215533" lon="11.6471117"><ele>848.0</ele><time>2026-04-18T12:46:36.282Z</time></trkpt><trkpt lat="44.0214683" lon="11.6471683"><ele>845.8</ele><time>2026-04-18T12:46:37.281Z</time></trkpt><trkpt lat="44.0214033" lon="11.6472583"><ele>843.5999999999999</ele><time>2026-04-18T12:46:38.281Z</time></trkpt><trkpt lat="44.021345" lon="11.6473683"><ele>841.4000000000001</ele><time>2026-04-18T12:46:39.28Z</time></trkpt><trkpt lat="44.021285" lon="11.64746"><ele>839.2</ele><time>2026-04-18T12:46:40.281Z</time></trkpt><trkpt lat="44.0211917" lon="11.6474933"><ele>837.0</ele><time>2026-04-18T12:46:41.282Z</time></trkpt><trkpt lat="44.0210983" lon="11.6474867"><ele>837.0</ele><time>2026-04-18T12:46:42.281Z</time></trkpt><trkpt lat="44.0209617" lon="11.6474217"><ele>837.0</ele><time>2026-04-18T12:46:43.281Z</time></trkpt><trkpt lat="44.0208133" lon="11.6473483"><ele>837.0</ele><time>2026-04-18T12:46:44.282Z</time></trkpt><trkpt lat="44.0206633" lon="11.64727"><ele>839.0</ele><time>2026-04-18T12:46:45.281Z</time></trkpt><trkpt lat="44.0205233" lon="11.6471967"><ele>841.0</ele><time>2026-04-18T12:46:46.282Z</time></trkpt><trkpt lat="44.0203883" lon="11.6471533"><ele>843.0</ele><time>2026-04-18T12:46:47.282Z</time></trkpt><trkpt lat="44.0202583" lon="11.6471483"><ele>845.0</ele><time>2026-04-18T12:46:48.281Z</time></trkpt><trkpt lat="44.0201333" lon="11.647215"><ele>845.0</ele><time>2026-04-18T12:46:49.282Z</time></trkpt><trkpt lat="44.02002" lon="11.6473067"><ele>845.0</ele><time>2026-04-18T12:46:50.283Z</time></trkpt><trkpt lat="44.0199233" lon="11.647425"><ele>845.0</ele><time>2026-04-18T12:46:51.28Z</time></trkpt><trkpt lat="44.0198517" lon="11.6475583"><ele>845.0</ele><time>2026-04-18T12:46:52.282Z</time></trkpt><trkpt lat="44.0198233" lon="11.6476983"><ele>846.25</ele><time>2026-04-18T12:46:53.283Z</time></trkpt><trkpt lat="44.01984" lon="11.6478317"><ele>847.5</ele><time>2026-04-18T12:46:54.283Z</time></trkpt><trkpt lat="44.019915" lon="11.6479667"><ele>848.75</ele><time>2026-04-18T12:46:55.282Z</time></trkpt><trkpt lat="44.0200267" lon="11.6480967"><ele>850.0</ele><time>2026-04-18T12:46:56.281Z</time></trkpt><trkpt lat="44.0201483" lon="11.6482533"><ele>850.0</ele><time>2026-04-18T12:46:57.283Z</time></trkpt><trkpt lat="44.0202917" lon="11.6484483"><ele>850.0</ele><time>2026-04-18T12:46:58.282Z</time></trkpt><trkpt lat="44.0204133" lon="11.6486683"><ele>850.0</ele><time>2026-04-18T12:46:59.28Z</time></trkpt><trkpt lat="44.0205133" lon="11.648905"><ele>856.6666666666666</ele><time>2026-04-18T12:47:00.282Z</time></trkpt><trkpt lat="44.0206117" lon="11.6491333"><ele>863.3333333333333</ele><time>2026-04-18T12:47:01.282Z</time></trkpt><trkpt lat="44.0207017" lon="11.6493233"><ele>870.0</ele><time>2026-04-18T12:47:02.281Z</time></trkpt><trkpt lat="44.0207583" lon="11.649495"><ele>870.0</ele><time>2026-04-18T12:47:03.281Z</time></trkpt><trkpt lat="44.0207683" lon="11.64965"><ele>870.0</ele><time>2026-04-18T12:47:04.28Z</time></trkpt><trkpt lat="44.020725" lon="11.6498133"><ele>870.0</ele><time>2026-04-18T12:47:05.281Z</time></trkpt><trkpt lat="44.0206633" lon="11.64997"><ele>870.0</ele><time>2026-04-18T12:47:06.28Z</time></trkpt><trkpt lat="44.0205733" lon="11.6501"><ele>870.0</ele><time>2026-04-18T12:47:07.281Z</time></trkpt><trkpt lat="44.0204483" lon="11.6501767"><ele>870.0</ele><time>2026-04-18T12:47:08.28Z</time></trkpt><trkpt lat="44.0203367" lon="11.6502183"><ele>870.0</ele><time>2026-04-18T12:47:09.281Z</time></trkpt><trkpt lat="44.0202483" lon="11.6502733"><ele>870.0</ele><time>2026-04-18T12:47:10.28Z</time></trkpt><trkpt lat="44.0201733" lon="11.650355"><ele>870.0</ele><time>2026-04-18T12:47:11.281Z</time></trkpt><trkpt lat="44.0201217" lon="11.6504683"><ele>873.4</ele><time>2026-04-18T12:47:12.281Z</time></trkpt><trkpt lat="44.0200733" lon="11.6505983"><ele>876.8</ele><time>2026-04-18T12:47:13.281Z</time></trkpt><trkpt lat="44.02001" lon="11.6507217"><ele>880.2</ele><time>2026-04-18T12:47:14.281Z</time></trkpt><trkpt lat="44.01992" lon="11.6508133"><ele>883.6</ele><time>2026-04-18T12:47:15.281Z</time></trkpt><trkpt lat="44.0198117" lon="11.6508717"><ele>887.0</ele><time>2026-04-18T12:47:16.281Z</time></trkpt><trkpt lat="44.0196933" lon="11.6509117"><ele>887.0</ele><time>2026-04-18T12:47:17.28Z</time></trkpt><trkpt lat="44.019575" lon="11.6509617"><ele>887.0</ele><time>2026-04-18T12:47:18.28Z</time></trkpt><trkpt lat="44.0194767" lon="11.6510567"><ele>887.0</ele><time>2026-04-18T12:47:19.281Z</time></trkpt><trkpt lat="44.0193817" lon="11.65119"><ele>887.0</ele><time>2026-04-18T12:47:20.282Z</time></trkpt><trkpt lat="44.0192717" lon="11.6513333"><ele>891.0</ele><time>2026-04-18T12:47:21.28Z</time></trkpt><trkpt lat="44.0191467" lon="11.6514617"><ele>895.0</ele><time>2026-04-18T12:47:22.28Z</time></trkpt><trkpt lat="44.0189983" lon="11.6515717"><ele>899.0</ele><time>2026-04-18T12:47:23.28Z</time></trkpt><trkpt lat="44.018875" lon="11.651695"><ele>899.0</ele><time>2026-04-18T12:47:24.28Z</time></trkpt><trkpt lat="44.01879" lon="11.6518683"><ele>899.0</ele><time>2026-04-18T12:47:25.281Z</time></trkpt><trkpt lat="44.01872" lon="11.6520767"><ele>899.0</ele><time>2026-04-18T12:47:26.283Z</time></trkpt><trkpt lat="44.0186683" lon="11.65228"><ele>893.0</ele><time>2026-04-18T12:47:27.28Z</time></trkpt><trkpt lat="44.0186183" lon="11.65246"><ele>887.0</ele><time>2026-04-18T12:47:28.28Z</time></trkpt><trkpt lat="44.0185883" lon="11.65262"><ele>881.0</ele><time>2026-04-18T12:47:29.28Z</time></trkpt><trkpt lat="44.0185167" lon="11.652735"><ele>875.0</ele><time>2026-04-18T12:47:30.279Z</time></trkpt><trkpt lat="44.01841" lon="11.6528083"><ele>875.5</ele><time>2026-04-18T12:47:31.281Z</time></trkpt><trkpt lat="44.0182817" lon="11.65284"><ele>876.0</ele><time>2026-04-18T12:47:32.281Z</time></trkpt><trkpt lat="44.0181333" lon="11.6528483"><ele>876.5</ele><time>2026-04-18T12:47:33.28Z</time></trkpt><trkpt lat="44.0179817" lon="11.6528133"><ele>877.0</ele><time>2026-04-18T12:47:34.28Z</time></trkpt><trkpt lat="44.0178333" lon="11.652775"><ele>877.0</ele><time>2026-04-18T12:47:35.28Z</time></trkpt><trkpt lat="44.0177067" lon="11.6527533"><ele>877.0</ele><time>2026-04-18T12:47:36.279Z</time></trkpt><trkpt lat="44.0176" lon="11.6527783"><ele>877.0</ele><time>2026-04-18T12:47:37.281Z</time></trkpt><trkpt lat="44.0175183" lon="11.652845"><ele>877.0</ele><time>2026-04-18T12:47:38.281Z</time></trkpt><trkpt lat="44.0174583" lon="11.6529417"><ele>877.0</ele><time>2026-04-18T12:47:39.28Z</time></trkpt><trkpt lat="44.0174383" lon="11.653065"><ele>877.0</ele><time>2026-04-18T12:47:40.281Z</time></trkpt><trkpt lat="44.017465" lon="11.6532"><ele>877.0</ele><time>2026-04-18T12:47:41.28Z</time></trkpt><trkpt lat="44.0175967" lon="11.65334"><ele>877.0</ele><time>2026-04-18T12:47:42.28Z</time></trkpt><trkpt lat="44.0177367" lon="11.6534733"><ele>877.0</ele><time>2026-04-18T12:47:43.281Z</time></trkpt><trkpt lat="44.0178933" lon="11.65363"><ele>878.0</ele><time>2026-04-18T12:47:44.281Z</time></trkpt><trkpt lat="44.0180583" lon="11.6538033"><ele>879.0</ele><time>2026-04-18T12:47:45.28Z</time></trkpt><trkpt lat="44.0182317" lon="11.6539917"><ele>880.0</ele><time>2026-04-18T12:47:46.282Z</time></trkpt><trkpt lat="44.0184167" lon="11.65418"><ele>880.0</ele><time>2026-04-18T12:47:47.281Z</time></trkpt><trkpt lat="44.018605" lon="11.65436"><ele>880.0</ele><time>2026-04-18T12:47:48.283Z</time></trkpt><trkpt lat="44.0188017" lon="11.65453"><ele>883.6666666666666</ele><time>2026-04-18T12:47:49.282Z</time></trkpt><trkpt lat="44.01898" lon="11.6546733"><ele>887.3333333333333</ele><time>2026-04-18T12:47:50.283Z</time></trkpt><trkpt lat="44.0191633" lon="11.654795"><ele>891.0</ele><time>2026-04-18T12:47:51.281Z</time></trkpt><trkpt lat="44.0193383" lon="11.654885"><ele>891.0</ele><time>2026-04-18T12:47:52.283Z</time></trkpt><trkpt lat="44.0195133" lon="11.6549267"><ele>891.0</ele><time>2026-04-18T12:47:53.281Z</time></trkpt><trkpt lat="44.0197067" lon="11.6549283"><ele>891.0</ele><time>2026-04-18T12:47:54.281Z</time></trkpt><trkpt lat="44.01987" lon="11.6548433"><ele>891.8</ele><time>2026-04-18T12:47:55.281Z</time></trkpt><trkpt lat="44.02001" lon="11.6547633"><ele>892.5999999999999</ele><time>2026-04-18T12:47:56.28Z</time></trkpt><trkpt lat="44.02013" lon="11.6547117"><ele>893.4</ele><time>2026-04-18T12:47:57.28Z</time></trkpt><trkpt lat="44.02022" lon="11.65471"><ele>894.2</ele><time>2026-04-18T12:47:58.281Z</time></trkpt><trkpt lat="44.020295" lon="11.65474"><ele>895.0</ele><time>2026-04-18T12:47:59.28Z</time></trkpt><trkpt lat="44.0202817" lon="11.6549333"><ele>895.0</ele><time>2026-04-18T12:48:01.281Z</time></trkpt><trkpt lat="44.0201983" lon="11.6550583"><ele>895.0</ele><time>2026-04-18T12:48:02.279Z</time></trkpt><trkpt lat="44.02007" lon="11.655205"><ele>895.0</ele><time>2026-04-18T12:48:03.28Z</time></trkpt><trkpt lat="44.0199167" lon="11.655375"><ele>899.5</ele><time>2026-04-18T12:48:04.28Z</time></trkpt><trkpt lat="44.0197283" lon="11.6555533"><ele>904.0</ele><time>2026-04-18T12:48:05.282Z</time></trkpt><trkpt lat="44.0195217" lon="11.6557083"><ele>904.0</ele><time>2026-04-18T12:48:06.283Z</time></trkpt><trkpt lat="44.0193117" lon="11.6558383"><ele>904.0</ele><time>2026-04-18T12:48:07.282Z</time></trkpt><trkpt lat="44.0191167" lon="11.6559483"><ele>904.0</ele><time>2026-04-18T12:48:08.282Z</time></trkpt><trkpt lat="44.0189367" lon="11.65604"><ele>906.0</ele><time>2026-04-18T12:48:09.282Z</time></trkpt><trkpt lat="44.0187633" lon="11.6560917"><ele>908.0</ele><time>2026-04-18T12:48:10.281Z</time></trkpt><trkpt lat="44.0185917" lon="11.6560817"><ele>910.0</ele><time>2026-04-18T12:48:11.282Z</time></trkpt><trkpt lat="44.018415" lon="11.6560117"><ele>913.3333333333333</ele><time>2026-04-18T12:48:12.282Z</time></trkpt><trkpt lat="44.0182283" lon="11.65591"><ele>916.6666666666667</ele><time>2026-04-18T12:48:13.28Z</time></trkpt><trkpt lat="44.0180467" lon="11.65581"><ele>920.0</ele><time>2026-04-18T12:48:14.28Z</time></trkpt><trkpt lat="44.0178867" lon="11.6557267"><ele>920.0</ele><time>2026-04-18T12:48:15.28Z</time></trkpt><trkpt lat="44.0177433" lon="11.65567"><ele>920.0</ele><time>2026-04-18T12:48:16.28Z</time></trkpt><trkpt lat="44.0176167" lon="11.6556567"><ele>920.0</ele><time>2026-04-18T12:48:17.281Z</time></trkpt><trkpt lat="44.0175067" lon="11.655715"><ele>920.0</ele><time>2026-04-18T12:48:18.281Z</time></trkpt><trkpt lat="44.0174217" lon="11.65584"><ele>919.6</ele><time>2026-04-18T12:48:19.28Z</time></trkpt><trkpt lat="44.0173533" lon="11.655985"><ele>919.2</ele><time>2026-04-18T12:48:20.28Z</time></trkpt><trkpt lat="44.0172933" lon="11.6561217"><ele>918.8</ele><time>2026-04-18T12:48:21.28Z</time></trkpt><trkpt lat="44.017245" lon="11.65624"><ele>918.4</ele><time>2026-04-18T12:48:22.28Z</time></trkpt><trkpt lat="44.0172183" lon="11.6563583"><ele>918.0</ele><time>2026-04-18T12:48:23.281Z</time></trkpt><trkpt lat="44.0172083" lon="11.6564867"><ele>918.0</ele><time>2026-04-18T12:48:24.28Z</time></trkpt><trkpt lat="44.0172167" lon="11.656635"><ele>918.0</ele><time>2026-04-18T12:48:25.279Z</time></trkpt><trkpt lat="44.017235" lon="11.6567817"><ele>918.0</ele><time>2026-04-18T12:48:26.279Z</time></trkpt><trkpt lat="44.0172483" lon="11.6569283"><ele>918.0</ele><time>2026-04-18T12:48:27.278Z</time></trkpt><trkpt lat="44.0172483" lon="11.6570817"><ele>918.0</ele><time>2026-04-18T12:48:28.279Z</time></trkpt><trkpt lat="44.017225" lon="11.6572417"><ele>917.0</ele><time>2026-04-18T12:48:29.28Z</time></trkpt><trkpt lat="44.0171817" lon="11.6574"><ele>916.0</ele><time>2026-04-18T12:48:30.278Z</time></trkpt><trkpt lat="44.0171333" lon="11.6575533"><ele>915.0</ele><time>2026-04-18T12:48:31.28Z</time></trkpt><trkpt lat="44.0170667" lon="11.6577033"><ele>914.0</ele><time>2026-04-18T12:48:32.281Z</time></trkpt><trkpt lat="44.0169967" lon="11.65784"><ele>914.0</ele><time>2026-04-18T12:48:33.28Z</time></trkpt><trkpt lat="44.0169167" lon="11.6579533"><ele>914.0000000000001</ele><time>2026-04-18T12:48:34.28Z</time></trkpt><trkpt lat="44.0168467" lon="11.6580633"><ele>914.0000000000001</ele><time>2026-04-18T12:48:35.28Z</time></trkpt><trkpt lat="44.016775" lon="11.6581733"><ele>914.0</ele><time>2026-04-18T12:48:36.28Z</time></trkpt><trkpt lat="44.0167217" lon="11.65829"><ele>914.0</ele><time>2026-04-18T12:48:37.279Z</time></trkpt><trkpt lat="44.0166983" lon="11.6584267"><ele>914.0</ele><time>2026-04-18T12:48:38.279Z</time></trkpt><trkpt lat="44.0166817" lon="11.6585583"><ele>914.0000000000001</ele><time>2026-04-18T12:48:39.28Z</time></trkpt><trkpt lat="44.016685" lon="11.6586933"><ele>914.0000000000001</ele><time>2026-04-18T12:48:40.281Z</time></trkpt><trkpt lat="44.0167133" lon="11.6588183"><ele>914.0</ele><time>2026-04-18T12:48:41.28Z</time></trkpt><trkpt lat="44.0167433" lon="11.6589333"><ele>914.0</ele><time>2026-04-18T12:48:42.278Z</time></trkpt><trkpt lat="44.016745" lon="11.6590467"><ele>912.4000000000001</ele><time>2026-04-18T12:48:43.278Z</time></trkpt><trkpt lat="44.0167333" lon="11.6591533"><ele>910.8000000000001</ele><time>2026-04-18T12:48:44.278Z</time></trkpt><trkpt lat="44.0167217" lon="11.65926"><ele>909.1999999999999</ele><time>2026-04-18T12:48:45.277Z</time></trkpt><trkpt lat="44.0166233" lon="11.6593367"><ele>907.5999999999999</ele><time>2026-04-18T12:48:46.278Z</time></trkpt><trkpt lat="44.01657" lon="11.6594217"><ele>906.0</ele><time>2026-04-18T12:48:47.277Z</time></trkpt><trkpt lat="44.0164767" lon="11.6594867"><ele>906.0</ele><time>2026-04-18T12:48:48.278Z</time></trkpt><trkpt lat="44.0162217" lon="11.6595317"><ele>906.0</ele><time>2026-04-18T12:48:49.279Z</time></trkpt><trkpt lat="44.016155" lon="11.6596617"><ele>906.0</ele><time>2026-04-18T12:48:50.28Z</time></trkpt><trkpt lat="44.0161217" lon="11.65979"><ele>906.0</ele><time>2026-04-18T12:48:51.28Z</time></trkpt><trkpt lat="44.0161133" lon="11.6598983"><ele>906.0</ele><time>2026-04-18T12:48:52.279Z</time></trkpt><trkpt lat="44.016135" lon="11.6600117"><ele>906.0</ele><time>2026-04-18T12:48:53.279Z</time></trkpt><trkpt lat="44.01612" lon="11.6601083"><ele>906.0</ele><time>2026-04-18T12:48:54.28Z</time></trkpt><trkpt lat="44.0160933" lon="11.6601983"><ele>906.0</ele><time>2026-04-18T12:48:55.281Z</time></trkpt><trkpt lat="44.01604" lon="11.66029"><ele>906.0</ele><time>2026-04-18T12:48:56.28Z</time></trkpt><trkpt lat="44.0159733" lon="11.6603733"><ele>906.5</ele><time>2026-04-18T12:48:57.279Z</time></trkpt><trkpt lat="44.0158917" lon="11.6604517"><ele>907.0</ele><time>2026-04-18T12:48:58.279Z</time></trkpt><trkpt lat="44.0157683" lon="11.6605183"><ele>907.5</ele><time>2026-04-18T12:48:59.282Z</time></trkpt><trkpt lat="44.015635" lon="11.6605817"><ele>908.0</ele><time>2026-04-18T12:49:00.281Z</time></trkpt><trkpt lat="44.0155033" lon="11.66065"><ele>904.0000000000001</ele><time>2026-04-18T12:49:01.28Z</time></trkpt><trkpt lat="44.0154217" lon="11.6607167"><ele>900.0</ele><time>2026-04-18T12:49:02.279Z</time></trkpt><trkpt lat="44.0153433" lon="11.660775"><ele>896.0</ele><time>2026-04-18T12:49:03.279Z</time></trkpt><trkpt lat="44.0152833" lon="11.66084"><ele>892.0</ele><time>2026-04-18T12:49:04.28Z</time></trkpt><trkpt lat="44.0152517" lon="11.6609167"><ele>888.0000000000001</ele><time>2026-04-18T12:49:05.28Z</time></trkpt><trkpt lat="44.01533" lon="11.6610183"><ele>884.0</ele><time>2026-04-18T12:49:07.28Z</time></trkpt><trkpt lat="44.0154417" lon="11.6610867"><ele>884.6666666666667</ele><time>2026-04-18T12:49:09.28Z</time></trkpt><trkpt lat="44.0155217" lon="11.6611533"><ele>885.3333333333334</ele><time>2026-04-18T12:49:10.282Z</time></trkpt><trkpt lat="44.0155983" lon="11.6612367"><ele>886.0</ele><time>2026-04-18T12:49:11.281Z</time></trkpt><trkpt lat="44.0156767" lon="11.66129"><ele>886.6666666666667</ele><time>2026-04-18T12:49:12.28Z</time></trkpt><trkpt lat="44.0157667" lon="11.6613033"><ele>887.3333333333334</ele><time>2026-04-18T12:49:13.28Z</time></trkpt><trkpt lat="44.0158417" lon="11.661335"><ele>888.0</ele><time>2026-04-18T12:49:14.28Z</time></trkpt><trkpt lat="44.01591" lon="11.661385"><ele>888.0</ele><time>2026-04-18T12:49:15.282Z</time></trkpt><trkpt lat="44.0159783" lon="11.661465"><ele>888.0</ele><time>2026-04-18T12:49:16.28Z</time></trkpt><trkpt lat="44.0160367" lon="11.6615683"><ele>888.0</ele><time>2026-04-18T12:49:17.28Z</time></trkpt><trkpt lat="44.01609" lon="11.6616783"><ele>888.0</ele><time>2026-04-18T12:49:18.281Z</time></trkpt><trkpt lat="44.016155" lon="11.6618283"><ele>888.0</ele><time>2026-04-18T12:49:19.28Z</time></trkpt><trkpt lat="44.0162217" lon="11.6620017"><ele>882.25</ele><time>2026-04-18T12:49:20.282Z</time></trkpt><trkpt lat="44.0162667" lon="11.6621917"><ele>876.5</ele><time>2026-04-18T12:49:21.279Z</time></trkpt><trkpt lat="44.0162967" lon="11.662355"><ele>870.75</ele><time>2026-04-18T12:49:22.28Z</time></trkpt><trkpt lat="44.0163083" lon="11.6625067"><ele>865.0</ele><time>2026-04-18T12:49:23.281Z</time></trkpt><trkpt lat="44.0163133" lon="11.6626333"><ele>865.0</ele><time>2026-04-18T12:49:24.281Z</time></trkpt><trkpt lat="44.0163267" lon="11.662735"><ele>865.0</ele><time>2026-04-18T12:49:25.28Z</time></trkpt><trkpt lat="44.0164017" lon="11.6628333"><ele>865.0</ele><time>2026-04-18T12:49:27.281Z</time></trkpt><trkpt lat="44.0165083" lon="11.6627967"><ele>865.0</ele><time>2026-04-18T12:49:29.28Z</time></trkpt><trkpt lat="44.0165833" lon="11.6626567"><ele>865.0</ele><time>2026-04-18T12:49:30.28Z</time></trkpt><trkpt lat="44.0166467" lon="11.6625433"><ele>866.4999999999999</ele><time>2026-04-18T12:49:31.28Z</time></trkpt><trkpt lat="44.016695" lon="11.6624267"><ele>868.0</ele><time>2026-04-18T12:49:32.28Z</time></trkpt><trkpt lat="44.0167417" lon="11.6623167"><ele>869.5</ele><time>2026-04-18T12:49:33.28Z</time></trkpt><trkpt lat="44.0167867" lon="11.6622183"><ele>871.0</ele><time>2026-04-18T12:49:34.281Z</time></trkpt><trkpt lat="44.016835" lon="11.6621267"><ele>872.4999999999999</ele><time>2026-04-18T12:49:35.281Z</time></trkpt><trkpt lat="44.01689" lon="11.662045"><ele>874.0</ele><time>2026-04-18T12:49:36.28Z</time></trkpt><trkpt lat="44.016995" lon="11.6619817"><ele>874.0</ele><time>2026-04-18T12:49:38.281Z</time></trkpt><trkpt lat="44.01706" lon="11.6620033"><ele>874.0</ele><time>2026-04-18T12:49:39.283Z</time></trkpt><trkpt lat="44.0171583" lon="11.66224"><ele>874.0</ele><time>2026-04-18T12:49:41.28Z</time></trkpt><trkpt lat="44.01716" lon="11.6624117"><ele>874.0</ele><time>2026-04-18T12:49:42.28Z</time></trkpt><trkpt lat="44.0171733" lon="11.6625833"><ele>868.0</ele><time>2026-04-18T12:49:43.28Z</time></trkpt><trkpt lat="44.0171667" lon="11.66283"><ele>862.0</ele><time>2026-04-18T12:49:44.28Z</time></trkpt><trkpt lat="44.01715" lon="11.6630283"><ele>856.0</ele><time>2026-04-18T12:49:45.283Z</time></trkpt><trkpt lat="44.017145" lon="11.6632217"><ele>856.0</ele><time>2026-04-18T12:49:46.28Z</time></trkpt><trkpt lat="44.01715" lon="11.6634917"><ele>856.0</ele><time>2026-04-18T12:49:47.281Z</time></trkpt><trkpt lat="44.0171283" lon="11.6636817"><ele>856.0</ele><time>2026-04-18T12:49:48.28Z</time></trkpt><trkpt lat="44.0171033" lon="11.6638367"><ele>856.0</ele><time>2026-04-18T12:49:49.281Z</time></trkpt><trkpt lat="44.0170667" lon="11.6639483"><ele>855.1666666666666</ele><time>2026-04-18T12:49:50.281Z</time></trkpt><trkpt lat="44.01703" lon="11.6640467"><ele>854.3333333333333</ele><time>2026-04-18T12:49:51.28Z</time></trkpt><trkpt lat="44.0170167" lon="11.6641467"><ele>853.5</ele><time>2026-04-18T12:49:52.279Z</time></trkpt><trkpt lat="44.0170317" lon="11.6642567"><ele>852.6666666666667</ele><time>2026-04-18T12:49:53.281Z</time></trkpt><trkpt lat="44.0170683" lon="11.664365"><ele>851.8333333333334</ele><time>2026-04-18T12:49:54.28Z</time></trkpt><trkpt lat="44.0171217" lon="11.6644767"><ele>851.0</ele><time>2026-04-18T12:49:55.28Z</time></trkpt><trkpt lat="44.01716" lon="11.6645867"><ele>853.6666666666667</ele><time>2026-04-18T12:49:56.282Z</time></trkpt><trkpt lat="44.0172017" lon="11.6647033"><ele>856.3333333333334</ele><time>2026-04-18T12:49:57.281Z</time></trkpt><trkpt lat="44.01722" lon="11.66481"><ele>859.0</ele><time>2026-04-18T12:49:58.281Z</time></trkpt><trkpt lat="44.0172083" lon="11.6649117"><ele>861.6666666666667</ele><time>2026-04-18T12:49:59.28Z</time></trkpt><trkpt lat="44.0171383" lon="11.6649483"><ele>864.3333333333334</ele><time>2026-04-18T12:50:00.28Z</time></trkpt><trkpt lat="44.0170567" lon="11.6649617"><ele>867.0</ele><time>2026-04-18T12:50:01.28Z</time></trkpt><trkpt lat="44.01697" lon="11.664955"><ele>867.0</ele><time>2026-04-18T12:50:02.279Z</time></trkpt><trkpt lat="44.0168233" lon="11.664855"><ele>867.0</ele><time>2026-04-18T12:50:03.281Z</time></trkpt><trkpt lat="44.0167117" lon="11.6647683"><ele>867.0</ele><time>2026-04-18T12:50:04.28Z</time></trkpt><trkpt lat="44.016605" lon="11.6646817"><ele>867.0</ele><time>2026-04-18T12:50:05.28Z</time></trkpt><trkpt lat="44.0164967" lon="11.6646"><ele>869.5</ele><time>2026-04-18T12:50:06.279Z</time></trkpt><trkpt lat="44.0163883" lon="11.6645067"><ele>872.0</ele><time>2026-04-18T12:50:07.284Z</time></trkpt><trkpt lat="44.0162717" lon="11.66444"><ele>874.5</ele><time>2026-04-18T12:50:08.28Z</time></trkpt><trkpt lat="44.01616" lon="11.664385"><ele>877.0</ele><time>2026-04-18T12:50:09.282Z</time></trkpt><trkpt lat="44.0160367" lon="11.664315"><ele>872.25</ele><time>2026-04-18T12:50:10.28Z</time></trkpt><trkpt lat="44.01591" lon="11.664255"><ele>867.5</ele><time>2026-04-18T12:50:11.28Z</time></trkpt><trkpt lat="44.0157817" lon="11.6641933"><ele>862.75</ele><time>2026-04-18T12:50:12.28Z</time></trkpt><trkpt lat="44.0156417" lon="11.6640783"><ele>858.0</ele><time>2026-04-18T12:50:13.279Z</time></trkpt><trkpt lat="44.0155017" lon="11.6640117"><ele>858.0</ele><time>2026-04-18T12:50:14.281Z</time></trkpt><trkpt lat="44.015365" lon="11.66394"><ele>858.0</ele><time>2026-04-18T12:50:15.28Z</time></trkpt><trkpt lat="44.0152283" lon="11.6638767"><ele>858.0</ele><time>2026-04-18T12:50:16.279Z</time></trkpt><trkpt lat="44.0150933" lon="11.6638283"><ele>858.0</ele><time>2026-04-18T12:50:17.28Z</time></trkpt><trkpt lat="44.0149667" lon="11.66379"><ele>857.0</ele><time>2026-04-18T12:50:18.28Z</time></trkpt><trkpt lat="44.0148417" lon="11.66376"><ele>856.0</ele><time>2026-04-18T12:50:19.278Z</time></trkpt><trkpt lat="44.01472" lon="11.66373"><ele>855.0</ele><time>2026-04-18T12:50:20.28Z</time></trkpt><trkpt lat="44.0145983" lon="11.663685"><ele>854.0</ele><time>2026-04-18T12:50:21.28Z</time></trkpt><trkpt lat="44.0144867" lon="11.66362"><ele>849.4000000000001</ele><time>2026-04-18T12:50:22.281Z</time></trkpt><trkpt lat="44.01438" lon="11.6635483"><ele>844.8000000000001</ele><time>2026-04-18T12:50:23.281Z</time></trkpt><trkpt lat="44.0142767" lon="11.6634783"><ele>840.2</ele><time>2026-04-18T12:50:24.281Z</time></trkpt><trkpt lat="44.0141767" lon="11.6634267"><ele>835.5999999999999</ele><time>2026-04-18T12:50:25.281Z</time></trkpt><trkpt lat="44.0140733" lon="11.663395"><ele>831.0</ele><time>2026-04-18T12:50:26.28Z</time></trkpt><trkpt lat="44.0139733" lon="11.6633783"><ele>827.5</ele><time>2026-04-18T12:50:27.281Z</time></trkpt><trkpt lat="44.0138683" lon="11.6633917"><ele>824.0</ele><time>2026-04-18T12:50:28.28Z</time></trkpt><trkpt lat="44.0137333" lon="11.6634467"><ele>820.5</ele><time>2026-04-18T12:50:29.281Z</time></trkpt><trkpt lat="44.0135933" lon="11.6635033"><ele>817.0</ele><time>2026-04-18T12:50:30.281Z</time></trkpt><trkpt lat="44.01346" lon="11.6635067"><ele>817.0</ele><time>2026-04-18T12:50:31.281Z</time></trkpt><trkpt lat="44.0133467" lon="11.66355"><ele>817.0</ele><time>2026-04-18T12:50:32.28Z</time></trkpt><trkpt lat="44.0132517" lon="11.6636033"><ele>817.0</ele><time>2026-04-18T12:50:33.281Z</time></trkpt><trkpt lat="44.0131683" lon="11.6636833"><ele>817.0</ele><time>2026-04-18T12:50:34.281Z</time></trkpt><trkpt lat="44.0130967" lon="11.6637967"><ele>817.0</ele><time>2026-04-18T12:50:35.28Z</time></trkpt><trkpt lat="44.0130283" lon="11.663935"><ele>817.25</ele><time>2026-04-18T12:50:36.281Z</time></trkpt><trkpt lat="44.0129667" lon="11.6641017"><ele>817.5</ele><time>2026-04-18T12:50:37.281Z</time></trkpt><trkpt lat="44.0129167" lon="11.6642633"><ele>817.75</ele><time>2026-04-18T12:50:38.282Z</time></trkpt><trkpt lat="44.0128917" lon="11.664435"><ele>818.0</ele><time>2026-04-18T12:50:39.28Z</time></trkpt><trkpt lat="44.012885" lon="11.6646133"><ele>818.0</ele><time>2026-04-18T12:50:40.28Z</time></trkpt><trkpt lat="44.0129017" lon="11.6647867"><ele>818.0</ele><time>2026-04-18T12:50:41.281Z</time></trkpt><trkpt lat="44.0129467" lon="11.6649483"><ele>818.0</ele><time>2026-04-18T12:50:42.281Z</time></trkpt><trkpt lat="44.0130067" lon="11.6650967"><ele>818.0</ele><time>2026-04-18T12:50:43.28Z</time></trkpt><trkpt lat="44.013055" lon="11.6652283"><ele>821.0000000000001</ele><time>2026-04-18T12:50:44.281Z</time></trkpt><trkpt lat="44.0130983" lon="11.665355"><ele>824.0</ele><time>2026-04-18T12:50:45.28Z</time></trkpt><trkpt lat="44.01313" lon="11.6654717"><ele>827.0</ele><time>2026-04-18T12:50:46.281Z</time></trkpt><trkpt lat="44.0131567" lon="11.665585"><ele>830.0</ele><time>2026-04-18T12:50:47.281Z</time></trkpt><trkpt lat="44.0131583" lon="11.6656833"><ele>833.0000000000001</ele><time>2026-04-18T12:50:48.281Z</time></trkpt><trkpt lat="44.0131667" lon="11.6657817"><ele>836.0</ele><time>2026-04-18T12:50:49.282Z</time></trkpt><trkpt lat="44.0131433" lon="11.6659317"><ele>836.0000000000001</ele><time>2026-04-18T12:50:51.281Z</time></trkpt><trkpt lat="44.0130783" lon="11.6659767"><ele>836.0</ele><time>2026-04-18T12:50:54.28Z</time></trkpt><trkpt lat="44.01299" lon="11.6659117"><ele>836.0</ele><time>2026-04-18T12:50:56.28Z</time></trkpt><trkpt lat="44.01293" lon="11.66586"><ele>836.0</ele><time>2026-04-18T12:50:57.279Z</time></trkpt><trkpt lat="44.012875" lon="11.66579"><ele>836.0000000000001</ele><time>2026-04-18T12:50:58.28Z</time></trkpt><trkpt lat="44.01282" lon="11.6657267"><ele>836.0</ele><time>2026-04-18T12:50:59.28Z</time></trkpt><trkpt lat="44.0127283" lon="11.6656467"><ele>836.0</ele><time>2026-04-18T12:51:00.282Z</time></trkpt><trkpt lat="44.01258" lon="11.6655333"><ele>836.0</ele><time>2026-04-18T12:51:01.28Z</time></trkpt><trkpt lat="44.0124383" lon="11.6654283"><ele>836.0</ele><time>2026-04-18T12:51:02.281Z</time></trkpt><trkpt lat="44.0122667" lon="11.6651283"><ele>838.3333333333334</ele><time>2026-04-18T12:51:03.28Z</time></trkpt><trkpt lat="44.0121183" lon="11.6648983"><ele>840.6666666666667</ele><time>2026-04-18T12:51:04.281Z</time></trkpt><trkpt lat="44.0120383" lon="11.6647367"><ele>843.0</ele><time>2026-04-18T12:51:05.28Z</time></trkpt><trkpt lat="44.0119633" lon="11.6645717"><ele>838.25</ele><time>2026-04-18T12:51:06.281Z</time></trkpt><trkpt lat="44.01189" lon="11.6644317"><ele>833.5</ele><time>2026-04-18T12:51:07.28Z</time></trkpt><trkpt lat="44.0117883" lon="11.6642683"><ele>828.75</ele><time>2026-04-18T12:51:08.282Z</time></trkpt><trkpt lat="44.0116867" lon="11.6641417"><ele>824.0</ele><time>2026-04-18T12:51:09.28Z</time></trkpt><trkpt lat="44.01157" lon="11.6639983"><ele>824.0</ele><time>2026-04-18T12:51:10.28Z</time></trkpt><trkpt lat="44.0114417" lon="11.6639117"><ele>824.0</ele><time>2026-04-18T12:51:11.281Z</time></trkpt><trkpt lat="44.011305" lon="11.66377"><ele>824.0</ele><time>2026-04-18T12:51:12.28Z</time></trkpt><trkpt lat="44.0111767" lon="11.6636483"><ele>818.6666666666667</ele><time>2026-04-18T12:51:13.281Z</time></trkpt><trkpt lat="44.011045" lon="11.6635367"><ele>813.3333333333333</ele><time>2026-04-18T12:51:14.281Z</time></trkpt><trkpt lat="44.0109083" lon="11.6634367"><ele>808.0</ele><time>2026-04-18T12:51:15.28Z</time></trkpt><trkpt lat="44.0107717" lon="11.6633433"><ele>808.0</ele><time>2026-04-18T12:51:16.282Z</time></trkpt><trkpt lat="44.0106433" lon="11.6632717"><ele>808.0</ele><time>2026-04-18T12:51:17.28Z</time></trkpt><trkpt lat="44.010515" lon="11.6632017"><ele>808.0</ele><time>2026-04-18T12:51:18.282Z</time></trkpt><trkpt lat="44.010385" lon="11.6631617"><ele>808.0</ele><time>2026-04-18T12:51:19.281Z</time></trkpt><trkpt lat="44.0102483" lon="11.6631533"><ele>808.0</ele><time>2026-04-18T12:51:20.281Z</time></trkpt><trkpt lat="44.0101033" lon="11.6631567"><ele>808.0</ele><time>2026-04-18T12:51:21.281Z</time></trkpt><trkpt lat="44.00995" lon="11.6631583"><ele>808.0</ele><time>2026-04-18T12:51:22.282Z</time></trkpt><trkpt lat="44.0098" lon="11.6631433"><ele>808.0</ele><time>2026-04-18T12:51:23.281Z</time></trkpt><trkpt lat="44.0096567" lon="11.66313"><ele>804.5</ele><time>2026-04-18T12:51:24.279Z</time></trkpt><trkpt lat="44.0095167" lon="11.6631133"><ele>801.0</ele><time>2026-04-18T12:51:25.28Z</time></trkpt><trkpt lat="44.0093933" lon="11.6631233"><ele>797.5</ele><time>2026-04-18T12:51:26.279Z</time></trkpt><trkpt lat="44.0092733" lon="11.6631583"><ele>794.0</ele><time>2026-04-18T12:51:27.281Z</time></trkpt><trkpt lat="44.0091633" lon="11.66324"><ele>792.3333333333334</ele><time>2026-04-18T12:51:28.28Z</time></trkpt><trkpt lat="44.00905" lon="11.663355"><ele>790.6666666666667</ele><time>2026-04-18T12:51:29.281Z</time></trkpt><trkpt lat="44.00893" lon="11.66349"><ele>789.0</ele><time>2026-04-18T12:51:30.279Z</time></trkpt><trkpt lat="44.008805" lon="11.6636283"><ele>789.0</ele><time>2026-04-18T12:51:31.281Z</time></trkpt><trkpt lat="44.0086783" lon="11.663765"><ele>789.0</ele><time>2026-04-18T12:51:32.281Z</time></trkpt><trkpt lat="44.008555" lon="11.6638983"><ele>789.0</ele><time>2026-04-18T12:51:33.281Z</time></trkpt><trkpt lat="44.0084367" lon="11.664025"><ele>785.0</ele><time>2026-04-18T12:51:34.281Z</time></trkpt><trkpt lat="44.00831" lon="11.664135"><ele>781.0</ele><time>2026-04-18T12:51:35.281Z</time></trkpt><trkpt lat="44.00818" lon="11.6642267"><ele>777.0</ele><time>2026-04-18T12:51:36.28Z</time></trkpt><trkpt lat="44.008045" lon="11.6643"><ele>773.0</ele><time>2026-04-18T12:51:37.28Z</time></trkpt><trkpt lat="44.0079067" lon="11.6643583"><ele>773.0</ele><time>2026-04-18T12:51:38.28Z</time></trkpt><trkpt lat="44.0077733" lon="11.664395"><ele>773.0</ele><time>2026-04-18T12:51:39.281Z</time></trkpt><trkpt lat="44.0076533" lon="11.6644267"><ele>773.0</ele><time>2026-04-18T12:51:40.278Z</time></trkpt><trkpt lat="44.0075433" lon="11.6644683"><ele>773.0</ele><time>2026-04-18T12:51:41.28Z</time></trkpt><trkpt lat="44.00744" lon="11.6645333"><ele>769.25</ele><time>2026-04-18T12:51:42.281Z</time></trkpt><trkpt lat="44.0073383" lon="11.6646317"><ele>765.5</ele><time>2026-04-18T12:51:43.279Z</time></trkpt><trkpt lat="44.0072483" lon="11.6647517"><ele>761.75</ele><time>2026-04-18T12:51:44.28Z</time></trkpt><trkpt lat="44.0071733" lon="11.66488"><ele>758.0</ele><time>2026-04-18T12:51:45.28Z</time></trkpt><trkpt lat="44.0071067" lon="11.6650017"><ele>758.0</ele><time>2026-04-18T12:51:46.283Z</time></trkpt><trkpt lat="44.00706" lon="11.66511"><ele>758.0</ele><time>2026-04-18T12:51:47.284Z</time></trkpt><trkpt lat="44.0070267" lon="11.6652067"><ele>758.0</ele><time>2026-04-18T12:51:48.281Z</time></trkpt><trkpt lat="44.0070267" lon="11.6653083"><ele>758.0</ele><time>2026-04-18T12:51:49.28Z</time></trkpt><trkpt lat="44.0070483" lon="11.66542"><ele>758.0</ele><time>2026-04-18T12:51:50.285Z</time></trkpt><trkpt lat="44.0070783" lon="11.6655317"><ele>758.0</ele><time>2026-04-18T12:51:51.282Z</time></trkpt><trkpt lat="44.0071267" lon="11.665645"><ele>756.8</ele><time>2026-04-18T12:51:52.282Z</time></trkpt><trkpt lat="44.0071833" lon="11.6657767"><ele>755.5999999999999</ele><time>2026-04-18T12:51:53.281Z</time></trkpt><trkpt lat="44.0072033" lon="11.6659117"><ele>754.4000000000001</ele><time>2026-04-18T12:51:54.28Z</time></trkpt><trkpt lat="44.0072033" lon="11.6660483"><ele>753.2</ele><time>2026-04-18T12:51:55.28Z</time></trkpt><trkpt lat="44.00719" lon="11.666195"><ele>752.0</ele><time>2026-04-18T12:51:56.281Z</time></trkpt><trkpt lat="44.0071833" lon="11.666345"><ele>752.0</ele><time>2026-04-18T12:51:57.281Z</time></trkpt><trkpt lat="44.0071867" lon="11.6665017"><ele>752.0</ele><time>2026-04-18T12:51:58.283Z</time></trkpt><trkpt lat="44.0071983" lon="11.6666633"><ele>752.0</ele><time>2026-04-18T12:51:59.281Z</time></trkpt><trkpt lat="44.00721" lon="11.66683"><ele>752.0</ele><time>2026-04-18T12:52:00.282Z</time></trkpt><trkpt lat="44.0072317" lon="11.6669883"><ele>752.75</ele><time>2026-04-18T12:52:01.282Z</time></trkpt><trkpt lat="44.0072583" lon="11.667125"><ele>753.5</ele><time>2026-04-18T12:52:02.283Z</time></trkpt><trkpt lat="44.0072767" lon="11.6672667"><ele>754.25</ele><time>2026-04-18T12:52:03.28Z</time></trkpt><trkpt lat="44.0072833" lon="11.6674483"><ele>755.0</ele><time>2026-04-18T12:52:04.284Z</time></trkpt><trkpt lat="44.0072583" lon="11.6676067"><ele>755.0</ele><time>2026-04-18T12:52:05.282Z</time></trkpt><trkpt lat="44.0072283" lon="11.66775"><ele>755.0</ele><time>2026-04-18T12:52:06.283Z</time></trkpt><trkpt lat="44.0071633" lon="11.6678733"><ele>755.0</ele><time>2026-04-18T12:52:07.281Z</time></trkpt><trkpt lat="44.007075" lon="11.6679567"><ele>755.0</ele><time>2026-04-18T12:52:08.283Z</time></trkpt><trkpt lat="44.006975" lon="11.668005"><ele>755.0</ele><time>2026-04-18T12:52:09.279Z</time></trkpt><trkpt lat="44.006865" lon="11.6680017"><ele>757.0</ele><time>2026-04-18T12:52:10.283Z</time></trkpt><trkpt lat="44.00677" lon="11.6679733"><ele>759.0</ele><time>2026-04-18T12:52:11.283Z</time></trkpt><trkpt lat="44.0066817" lon="11.6679083"><ele>761.0</ele><time>2026-04-18T12:52:12.28Z</time></trkpt><trkpt lat="44.0066083" lon="11.66783"><ele>763.0</ele><time>2026-04-18T12:52:13.281Z</time></trkpt><trkpt lat="44.00654" lon="11.667745"><ele>765.0</ele><time>2026-04-18T12:52:14.281Z</time></trkpt><trkpt lat="44.0064667" lon="11.6676367"><ele>768.5</ele><time>2026-04-18T12:52:15.281Z</time></trkpt><trkpt lat="44.0063867" lon="11.667525"><ele>772.0</ele><time>2026-04-18T12:52:16.279Z</time></trkpt><trkpt lat="44.0062983" lon="11.6674183"><ele>775.5</ele><time>2026-04-18T12:52:17.282Z</time></trkpt><trkpt lat="44.0061933" lon="11.667285"><ele>779.0</ele><time>2026-04-18T12:52:18.281Z</time></trkpt><trkpt lat="44.006115" lon="11.667175"><ele>779.0</ele><time>2026-04-18T12:52:19.278Z</time></trkpt><trkpt lat="44.0060867" lon="11.66705"><ele>779.0</ele><time>2026-04-18T12:52:20.28Z</time></trkpt><trkpt lat="44.006055" lon="11.6669333"><ele>779.0</ele><time>2026-04-18T12:52:21.282Z</time></trkpt><trkpt lat="44.006005" lon="11.66682"><ele>779.0</ele><time>2026-04-18T12:52:22.28Z</time></trkpt><trkpt lat="44.0059483" lon="11.6667283"><ele>779.0</ele><time>2026-04-18T12:52:23.281Z</time></trkpt><trkpt lat="44.0058817" lon="11.6666333"><ele>779.5</ele><time>2026-04-18T12:52:24.281Z</time></trkpt><trkpt lat="44.0057933" lon="11.66652"><ele>780.0</ele><time>2026-04-18T12:52:25.279Z</time></trkpt><trkpt lat="44.0057233" lon="11.6664117"><ele>780.5</ele><time>2026-04-18T12:52:26.281Z</time></trkpt><trkpt lat="44.005625" lon="11.666225"><ele>781.0</ele><time>2026-04-18T12:52:27.281Z</time></trkpt><trkpt lat="44.005525" lon="11.6661133"><ele>774.75</ele><time>2026-04-18T12:52:28.281Z</time></trkpt><trkpt lat="44.0054117" lon="11.66602"><ele>768.5</ele><time>2026-04-18T12:52:29.28Z</time></trkpt><trkpt lat="44.0052883" lon="11.6659133"><ele>762.25</ele><time>2026-04-18T12:52:30.281Z</time></trkpt><trkpt lat="44.0051817" lon="11.66583"><ele>756.0</ele><time>2026-04-18T12:52:31.28Z</time></trkpt><trkpt lat="44.005055" lon="11.6657517"><ele>756.1999999999999</ele><time>2026-04-18T12:52:32.28Z</time></trkpt><trkpt lat="44.0049383" lon="11.6657367"><ele>756.4</ele><time>2026-04-18T12:52:33.282Z</time></trkpt><trkpt lat="44.0048267" lon="11.6657433"><ele>756.6</ele><time>2026-04-18T12:52:34.28Z</time></trkpt><trkpt lat="44.00472" lon="11.6657183"><ele>756.8</ele><time>2026-04-18T12:52:35.281Z</time></trkpt><trkpt lat="44.004625" lon="11.6656767"><ele>757.0</ele><time>2026-04-18T12:52:36.279Z</time></trkpt><trkpt lat="44.0045317" lon="11.6656333"><ele>757.0</ele><time>2026-04-18T12:52:37.281Z</time></trkpt><trkpt lat="44.0044217" lon="11.665635"><ele>757.0</ele><time>2026-04-18T12:52:38.28Z</time></trkpt><trkpt lat="44.0043" lon="11.665655"><ele>757.0</ele><time>2026-04-18T12:52:39.281Z</time></trkpt><trkpt lat="44.0041533" lon="11.6657133"><ele>757.0</ele><time>2026-04-18T12:52:40.28Z</time></trkpt><trkpt lat="44.0039867" lon="11.6657783"><ele>755.3333333333334</ele><time>2026-04-18T12:52:41.281Z</time></trkpt><trkpt lat="44.00382" lon="11.6658317"><ele>753.6666666666666</ele><time>2026-04-18T12:52:42.282Z</time></trkpt><trkpt lat="44.0036517" lon="11.6658733"><ele>752.0</ele><time>2026-04-18T12:52:43.281Z</time></trkpt><trkpt lat="44.003485" lon="11.6658917"><ele>753.0</ele><time>2026-04-18T12:52:44.281Z</time></trkpt><trkpt lat="44.0033267" lon="11.6658733"><ele>754.0</ele><time>2026-04-18T12:52:45.281Z</time></trkpt><trkpt lat="44.0031767" lon="11.6658367"><ele>755.0</ele><time>2026-04-18T12:52:46.281Z</time></trkpt><trkpt lat="44.00303" lon="11.665795"><ele>755.0</ele><time>2026-04-18T12:52:47.28Z</time></trkpt><trkpt lat="44.0028867" lon="11.66574"><ele>755.0</ele><time>2026-04-18T12:52:48.28Z</time></trkpt><trkpt lat="44.0027467" lon="11.6656633"><ele>755.0</ele><time>2026-04-18T12:52:49.282Z</time></trkpt><trkpt lat="44.0026233" lon="11.6655733"><ele>755.0</ele><time>2026-04-18T12:52:50.282Z</time></trkpt><trkpt lat="44.0025083" lon="11.6655033"><ele>750.75</ele><time>2026-04-18T12:52:51.28Z</time></trkpt><trkpt lat="44.0023883" lon="11.6654617"><ele>746.5</ele><time>2026-04-18T12:52:52.281Z</time></trkpt><trkpt lat="44.0022617" lon="11.6654583"><ele>742.25</ele><time>2026-04-18T12:52:53.282Z</time></trkpt><trkpt lat="44.0021367" lon="11.6654733"><ele>738.0</ele><time>2026-04-18T12:52:54.282Z</time></trkpt><trkpt lat="44.00203" lon="11.6655"><ele>738.0</ele><time>2026-04-18T12:52:55.282Z</time></trkpt><trkpt lat="44.0019333" lon="11.66555"><ele>738.0</ele><time>2026-04-18T12:52:56.281Z</time></trkpt><trkpt lat="44.0018583" lon="11.665635"><ele>738.0</ele><time>2026-04-18T12:52:57.28Z</time></trkpt><trkpt lat="44.0017933" lon="11.66576"><ele>738.0</ele><time>2026-04-18T12:52:58.28Z</time></trkpt><trkpt lat="44.001745" lon="11.6659367"><ele>738.0</ele><time>2026-04-18T12:52:59.281Z</time></trkpt><trkpt lat="44.001695" lon="11.6661283"><ele>735.25</ele><time>2026-04-18T12:53:00.281Z</time></trkpt><trkpt lat="44.0016483" lon="11.6663183"><ele>732.5</ele><time>2026-04-18T12:53:01.281Z</time></trkpt><trkpt lat="44.0015817" lon="11.6664983"><ele>729.75</ele><time>2026-04-18T12:53:02.281Z</time></trkpt><trkpt lat="44.0014867" lon="11.66665"><ele>727.0</ele><time>2026-04-18T12:53:03.281Z</time></trkpt><trkpt lat="44.0013933" lon="11.6667717"><ele>727.0</ele><time>2026-04-18T12:53:04.28Z</time></trkpt><trkpt lat="44.0013083" lon="11.66687"><ele>727.0</ele><time>2026-04-18T12:53:05.282Z</time></trkpt><trkpt lat="44.0012567" lon="11.6669733"><ele>727.0</ele><time>2026-04-18T12:53:06.281Z</time></trkpt><trkpt lat="44.0012167" lon="11.66708"><ele>727.0</ele><time>2026-04-18T12:53:07.281Z</time></trkpt><trkpt lat="44.00127" lon="11.6672117"><ele>727.0</ele><time>2026-04-18T12:53:08.281Z</time></trkpt><trkpt lat="44.00134" lon="11.6673417"><ele>728.25</ele><time>2026-04-18T12:53:09.282Z</time></trkpt><trkpt lat="44.0014433" lon="11.66749"><ele>729.5</ele><time>2026-04-18T12:53:10.28Z</time></trkpt><trkpt lat="44.0014917" lon="11.6676383"><ele>730.75</ele><time>2026-04-18T12:53:11.281Z</time></trkpt><trkpt lat="44.0015167" lon="11.6678083"><ele>732.0</ele><time>2026-04-18T12:53:12.282Z</time></trkpt><trkpt lat="44.0015183" lon="11.6679883"><ele>733.5</ele><time>2026-04-18T12:53:13.281Z</time></trkpt><trkpt lat="44.0014733" lon="11.668165"><ele>735.0</ele><time>2026-04-18T12:53:14.282Z</time></trkpt><trkpt lat="44.0014067" lon="11.66832"><ele>736.5</ele><time>2026-04-18T12:53:15.281Z</time></trkpt><trkpt lat="44.0013167" lon="11.66845"><ele>738.0</ele><time>2026-04-18T12:53:16.283Z</time></trkpt><trkpt lat="44.0012267" lon="11.66858"><ele>740.25</ele><time>2026-04-18T12:53:17.283Z</time></trkpt><trkpt lat="44.0011717" lon="11.668725"><ele>742.5</ele><time>2026-04-18T12:53:18.281Z</time></trkpt><trkpt lat="44.0011167" lon="11.6688883"><ele>744.75</ele><time>2026-04-18T12:53:19.28Z</time></trkpt><trkpt lat="44.0010767" lon="11.6690767"><ele>747.0</ele><time>2026-04-18T12:53:20.283Z</time></trkpt><trkpt lat="44.001035" lon="11.6692817"><ele>751.6666666666666</ele><time>2026-04-18T12:53:21.281Z</time></trkpt><trkpt lat="44.0009733" lon="11.6694817"><ele>756.3333333333333</ele><time>2026-04-18T12:53:22.281Z</time></trkpt><trkpt lat="44.000885" lon="11.6696483"><ele>761.0</ele><time>2026-04-18T12:53:23.282Z</time></trkpt><trkpt lat="44.0007767" lon="11.6697833"><ele>765.0</ele><time>2026-04-18T12:53:24.28Z</time></trkpt><trkpt lat="44.0006583" lon="11.6699017"><ele>769.0</ele><time>2026-04-18T12:53:25.281Z</time></trkpt><trkpt lat="44.0005467" lon="11.67002"><ele>773.0</ele><time>2026-04-18T12:53:26.282Z</time></trkpt><trkpt lat="44.0004533" lon="11.6701317"><ele>777.0</ele><time>2026-04-18T12:53:27.283Z</time></trkpt><trkpt lat="44.0003683" lon="11.6702233"><ele>777.0</ele><time>2026-04-18T12:53:28.28Z</time></trkpt><trkpt lat="44.0003" lon="11.6702867"><ele>777.0</ele><time>2026-04-18T12:53:29.281Z</time></trkpt><trkpt lat="44.0002333" lon="11.6703283"><ele>777.0</ele><time>2026-04-18T12:53:30.283Z</time></trkpt><trkpt lat="44.00017" lon="11.6703283"><ele>777.0</ele><time>2026-04-18T12:53:31.28Z</time></trkpt><trkpt lat="44.0001183" lon="11.6702017"><ele>777.0</ele><time>2026-04-18T12:53:33.28Z</time></trkpt><trkpt lat="44.0001183" lon="11.6700667"><ele>777.0</ele><time>2026-04-18T12:53:34.279Z</time></trkpt><trkpt lat="44.0001467" lon="11.6698967"><ele>777.0</ele><time>2026-04-18T12:53:35.28Z</time></trkpt><trkpt lat="44.0001533" lon="11.6696967"><ele>777.0</ele><time>2026-04-18T12:53:36.279Z</time></trkpt><trkpt lat="44.0001467" lon="11.6694783"><ele>777.0</ele><time>2026-04-18T12:53:37.28Z</time></trkpt><trkpt lat="44.00013" lon="11.6692667"><ele>775.25</ele><time>2026-04-18T12:53:38.279Z</time></trkpt><trkpt lat="44.00012" lon="11.669035"><ele>773.5</ele><time>2026-04-18T12:53:39.281Z</time></trkpt><trkpt lat="44.0001133" lon="11.66883"><ele>771.75</ele><time>2026-04-18T12:53:40.279Z</time></trkpt><trkpt lat="44.0001067" lon="11.6686483"><ele>770.0</ele><time>2026-04-18T12:53:41.281Z</time></trkpt><trkpt lat="44.0001" lon="11.6684967"><ele>767.8</ele><time>2026-04-18T12:53:42.28Z</time></trkpt><trkpt lat="44.000085" lon="11.6683633"><ele>765.6</ele><time>2026-04-18T12:53:43.283Z</time></trkpt><trkpt lat="44.0000533" lon="11.6682633"><ele>763.4000000000001</ele><time>2026-04-18T12:53:44.281Z</time></trkpt><trkpt lat="43.9999983" lon="11.6681583"><ele>761.2</ele><time>2026-04-18T12:53:45.28Z</time></trkpt><trkpt lat="43.9999" lon="11.668065"><ele>759.0</ele><time>2026-04-18T12:53:46.278Z</time></trkpt><trkpt lat="43.9997933" lon="11.6679567"><ele>759.0</ele><time>2026-04-18T12:53:47.278Z</time></trkpt><trkpt lat="43.9996967" lon="11.667865"><ele>759.0</ele><time>2026-04-18T12:53:48.28Z</time></trkpt><trkpt lat="43.999595" lon="11.6677933"><ele>759.0</ele><time>2026-04-18T12:53:49.28Z</time></trkpt><trkpt lat="43.9994983" lon="11.6677267"><ele>759.0</ele><time>2026-04-18T12:53:50.282Z</time></trkpt><trkpt lat="43.999415" lon="11.66764"><ele>759.0</ele><time>2026-04-18T12:53:51.279Z</time></trkpt><trkpt lat="43.9993417" lon="11.667545"><ele>757.25</ele><time>2026-04-18T12:53:52.28Z</time></trkpt><trkpt lat="43.9992483" lon="11.6674733"><ele>755.5</ele><time>2026-04-18T12:53:53.281Z</time></trkpt><trkpt lat="43.9991333" lon="11.6674217"><ele>753.75</ele><time>2026-04-18T12:53:54.28Z</time></trkpt><trkpt lat="43.9990017" lon="11.6673767"><ele>752.0</ele><time>2026-04-18T12:53:55.281Z</time></trkpt><trkpt lat="43.9988583" lon="11.6673383"><ele>752.0</ele><time>2026-04-18T12:53:56.28Z</time></trkpt><trkpt lat="43.998705" lon="11.6673183"><ele>752.0</ele><time>2026-04-18T12:53:57.279Z</time></trkpt><trkpt lat="43.99855" lon="11.6673017"><ele>752.0</ele><time>2026-04-18T12:53:58.278Z</time></trkpt><trkpt lat="43.9983867" lon="11.667305"><ele>752.6666666666666</ele><time>2026-04-18T12:53:59.279Z</time></trkpt><trkpt lat="43.9982283" lon="11.6673283"><ele>753.3333333333334</ele><time>2026-04-18T12:54:00.279Z</time></trkpt><trkpt lat="43.998065" lon="11.66735"><ele>754.0</ele><time>2026-04-18T12:54:01.281Z</time></trkpt><trkpt lat="43.997905" lon="11.6673817"><ele>754.0</ele><time>2026-04-18T12:54:02.279Z</time></trkpt><trkpt lat="43.9977533" lon="11.6674233"><ele>754.0</ele><time>2026-04-18T12:54:03.279Z</time></trkpt><trkpt lat="43.997605" lon="11.667455"><ele>754.0</ele><time>2026-04-18T12:54:04.279Z</time></trkpt><trkpt lat="43.997465" lon="11.6674783"><ele>754.0</ele><time>2026-04-18T12:54:05.279Z</time></trkpt><trkpt lat="43.9973267" lon="11.6675283"><ele>751.75</ele><time>2026-04-18T12:54:06.279Z</time></trkpt><trkpt lat="43.9971967" lon="11.6676067"><ele>749.5</ele><time>2026-04-18T12:54:07.282Z</time></trkpt><trkpt lat="43.9970817" lon="11.6676917"><ele>747.25</ele><time>2026-04-18T12:54:08.28Z</time></trkpt><trkpt lat="43.9969667" lon="11.6677533"><ele>745.0</ele><time>2026-04-18T12:54:09.281Z</time></trkpt><trkpt lat="43.9968567" lon="11.6677867"><ele>743.0</ele><time>2026-04-18T12:54:10.28Z</time></trkpt><trkpt lat="43.9967583" lon="11.667785"><ele>741.0</ele><time>2026-04-18T12:54:11.282Z</time></trkpt><trkpt lat="43.99666" lon="11.6677767"><ele>739.0</ele><time>2026-04-18T12:54:12.28Z</time></trkpt><trkpt lat="43.99656" lon="11.66777"><ele>737.0</ele><time>2026-04-18T12:54:13.279Z</time></trkpt><trkpt lat="43.99646" lon="11.6677783"><ele>735.0</ele><time>2026-04-18T12:54:14.281Z</time></trkpt><trkpt lat="43.9963483" lon="11.6678017"><ele>739.4</ele><time>2026-04-18T12:54:15.279Z</time></trkpt><trkpt lat="43.9962217" lon="11.6678333"><ele>743.8</ele><time>2026-04-18T12:54:16.279Z</time></trkpt><trkpt lat="43.996115" lon="11.667855"><ele>748.2</ele><time>2026-04-18T12:54:17.282Z</time></trkpt><trkpt lat="43.9960283" lon="11.6678633"><ele>752.6</ele><time>2026-04-18T12:54:18.279Z</time></trkpt><trkpt lat="43.9959533" lon="11.667865"><ele>757.0</ele><time>2026-04-18T12:54:19.28Z</time></trkpt><trkpt lat="43.99587" lon="11.6678717"><ele>756.1428571428572</ele><time>2026-04-18T12:54:21.28Z</time></trkpt><trkpt lat="43.9957683" lon="11.667855"><ele>755.2857142857142</ele><time>2026-04-18T12:54:23.279Z</time></trkpt><trkpt lat="43.9957033" lon="11.6678517"><ele>754.4285714285714</ele><time>2026-04-18T12:54:24.279Z</time></trkpt><trkpt lat="43.995635" lon="11.6678517"><ele>753.5714285714287</ele><time>2026-04-18T12:54:25.28Z</time></trkpt><trkpt lat="43.9955683" lon="11.6678533"><ele>752.7142857142858</ele><time>2026-04-18T12:54:26.28Z</time></trkpt><trkpt lat="43.9955" lon="11.6678533"><ele>751.8571428571429</ele><time>2026-04-18T12:54:27.282Z</time></trkpt><trkpt lat="43.995435" lon="11.6678533"><ele>751.0</ele><time>2026-04-18T12:54:28.28Z</time></trkpt><trkpt lat="43.99531" lon="11.6678217"><ele>751.0000000000001</ele><time>2026-04-18T12:54:30.281Z</time></trkpt><trkpt lat="43.9952467" lon="11.6678"><ele>751.0</ele><time>2026-04-18T12:54:31.28Z</time></trkpt><trkpt lat="43.99518" lon="11.66777"><ele>751.0</ele><time>2026-04-18T12:54:32.282Z</time></trkpt><trkpt lat="43.995115" lon="11.6677433"><ele>751.0</ele><time>2026-04-18T12:54:33.28Z</time></trkpt><trkpt lat="43.9950517" lon="11.6677117"><ele>751.0</ele><time>2026-04-18T12:54:34.28Z</time></trkpt><trkpt lat="43.9949883" lon="11.6676783"><ele>751.0000000000001</ele><time>2026-04-18T12:54:35.281Z</time></trkpt><trkpt lat="43.9949233" lon="11.6676533"><ele>751.0</ele><time>2026-04-18T12:54:36.279Z</time></trkpt><trkpt lat="43.9948533" lon="11.6676383"><ele>747.3333333333334</ele><time>2026-04-18T12:54:37.279Z</time></trkpt><trkpt lat="43.9947817" lon="11.6676317"><ele>743.6666666666667</ele><time>2026-04-18T12:54:38.28Z</time></trkpt><trkpt lat="43.9947017" lon="11.66763"><ele>740.0</ele><time>2026-04-18T12:54:39.28Z</time></trkpt><trkpt lat="43.99461" lon="11.6676217"><ele>736.3333333333334</ele><time>2026-04-18T12:54:40.28Z</time></trkpt><trkpt lat="43.9945133" lon="11.6675967"><ele>732.6666666666666</ele><time>2026-04-18T12:54:41.279Z</time></trkpt><trkpt lat="43.994415" lon="11.66756"><ele>729.0</ele><time>2026-04-18T12:54:42.279Z</time></trkpt><trkpt lat="43.9943167" lon="11.667515"><ele>729.0</ele><time>2026-04-18T12:54:43.279Z</time></trkpt><trkpt lat="43.9942083" lon="11.667475"><ele>729.0</ele><time>2026-04-18T12:54:44.279Z</time></trkpt><trkpt lat="43.994095" lon="11.6674433"><ele>729.0</ele><time>2026-04-18T12:54:45.279Z</time></trkpt><trkpt lat="43.9939883" lon="11.6674267"><ele>729.0</ele><time>2026-04-18T12:54:46.278Z</time></trkpt><trkpt lat="43.9938683" lon="11.6674167"><ele>728.5</ele><time>2026-04-18T12:54:47.277Z</time></trkpt><trkpt lat="43.99375" lon="11.6674167"><ele>728.0</ele><time>2026-04-18T12:54:48.28Z</time></trkpt><trkpt lat="43.9936267" lon="11.6674267"><ele>727.5</ele><time>2026-04-18T12:54:49.28Z</time></trkpt><trkpt lat="43.993505" lon="11.6674533"><ele>727.0</ele><time>2026-04-18T12:54:50.28Z</time></trkpt><trkpt lat="43.99338" lon="11.6674883"><ele>724.75</ele><time>2026-04-18T12:54:51.279Z</time></trkpt><trkpt lat="43.9932533" lon="11.66752"><ele>722.5</ele><time>2026-04-18T12:54:52.28Z</time></trkpt><trkpt lat="43.99313" lon="11.6675517"><ele>720.25</ele><time>2026-04-18T12:54:53.286Z</time></trkpt><trkpt lat="43.9930083" lon="11.6675817"><ele>718.0</ele><time>2026-04-18T12:54:54.279Z</time></trkpt><trkpt lat="43.9928867" lon="11.6676133"><ele>718.0</ele><time>2026-04-18T12:54:55.279Z</time></trkpt><trkpt lat="43.9927683" lon="11.66764"><ele>718.0</ele><time>2026-04-18T12:54:56.279Z</time></trkpt><trkpt lat="43.9926517" lon="11.6676667"><ele>718.0</ele><time>2026-04-18T12:54:57.281Z</time></trkpt><trkpt lat="43.99253" lon="11.6676867"><ele>718.0</ele><time>2026-04-18T12:54:58.281Z</time></trkpt><trkpt lat="43.99241" lon="11.6677083"><ele>719.0</ele><time>2026-04-18T12:54:59.28Z</time></trkpt><trkpt lat="43.992285" lon="11.6677283"><ele>720.0</ele><time>2026-04-18T12:55:00.279Z</time></trkpt><trkpt lat="43.992155" lon="11.6677467"><ele>721.0</ele><time>2026-04-18T12:55:01.281Z</time></trkpt><trkpt lat="43.9920267" lon="11.6677633"><ele>722.0</ele><time>2026-04-18T12:55:02.281Z</time></trkpt><trkpt lat="43.9919067" lon="11.66779"><ele>722.0</ele><time>2026-04-18T12:55:03.279Z</time></trkpt><trkpt lat="43.9918" lon="11.6678367"><ele>722.0</ele><time>2026-04-18T12:55:04.279Z</time></trkpt><trkpt lat="43.99171" lon="11.66792"><ele>722.0</ele><time>2026-04-18T12:55:05.279Z</time></trkpt><trkpt lat="43.9916433" lon="11.6680317"><ele>722.0</ele><time>2026-04-18T12:55:06.281Z</time></trkpt><trkpt lat="43.99159" lon="11.66816"><ele>722.0</ele><time>2026-04-18T12:55:07.279Z</time></trkpt><trkpt lat="43.991545" lon="11.6683033"><ele>721.75</ele><time>2026-04-18T12:55:08.28Z</time></trkpt><trkpt lat="43.991475" lon="11.6684367"><ele>721.5</ele><time>2026-04-18T12:55:09.279Z</time></trkpt><trkpt lat="43.9913683" lon="11.66853"><ele>721.25</ele><time>2026-04-18T12:55:10.279Z</time></trkpt><trkpt lat="43.9912533" lon="11.6686017"><ele>721.0</ele><time>2026-04-18T12:55:11.279Z</time></trkpt><trkpt lat="43.9911383" lon="11.6686567"><ele>721.0</ele><time>2026-04-18T12:55:12.28Z</time></trkpt><trkpt lat="43.9910317" lon="11.668715"><ele>721.0</ele><time>2026-04-18T12:55:13.28Z</time></trkpt><trkpt lat="43.9909317" lon="11.6687967"><ele>721.0</ele><time>2026-04-18T12:55:14.283Z</time></trkpt><trkpt lat="43.99084" lon="11.6689017"><ele>721.0</ele><time>2026-04-18T12:55:15.28Z</time></trkpt><trkpt lat="43.9907583" lon="11.66904"><ele>718.75</ele><time>2026-04-18T12:55:16.28Z</time></trkpt><trkpt lat="43.9906617" lon="11.6691783"><ele>716.5</ele><time>2026-04-18T12:55:17.279Z</time></trkpt><trkpt lat="43.99055" lon="11.6692933"><ele>714.25</ele><time>2026-04-18T12:55:18.28Z</time></trkpt><trkpt lat="43.99043" lon="11.6693817"><ele>712.0</ele><time>2026-04-18T12:55:19.28Z</time></trkpt><trkpt lat="43.990325" lon="11.6694517"><ele>712.0</ele><time>2026-04-18T12:55:20.284Z</time></trkpt><trkpt lat="43.9902383" lon="11.6695083"><ele>712.0</ele><time>2026-04-18T12:55:21.28Z</time></trkpt><trkpt lat="43.9901667" lon="11.6695633"><ele>712.0</ele><time>2026-04-18T12:55:22.279Z</time></trkpt><trkpt lat="43.99011" lon="11.66963"><ele>712.0</ele><time>2026-04-18T12:55:23.28Z</time></trkpt><trkpt lat="43.9900733" lon="11.6697033"><ele>712.0</ele><time>2026-04-18T12:55:24.28Z</time></trkpt><trkpt lat="43.9900567" lon="11.6697883"><ele>712.0</ele><time>2026-04-18T12:55:25.281Z</time></trkpt><trkpt lat="43.990095" lon="11.6699"><ele>712.0</ele><time>2026-04-18T12:55:26.281Z</time></trkpt><trkpt lat="43.9901217" lon="11.6700367"><ele>712.0</ele><time>2026-04-18T12:55:27.281Z</time></trkpt><trkpt lat="43.9901517" lon="11.6701933"><ele>712.0</ele><time>2026-04-18T12:55:28.281Z</time></trkpt><trkpt lat="43.990175" lon="11.6703533"><ele>712.0</ele><time>2026-04-18T12:55:29.281Z</time></trkpt><trkpt lat="43.9901867" lon="11.670515"><ele>714.2</ele><time>2026-04-18T12:55:30.28Z</time></trkpt><trkpt lat="43.9901983" lon="11.6706683"><ele>716.4000000000001</ele><time>2026-04-18T12:55:31.281Z</time></trkpt><trkpt lat="43.99021" lon="11.6708083"><ele>718.5999999999999</ele><time>2026-04-18T12:55:32.28Z</time></trkpt><trkpt lat="43.9902083" lon="11.670935"><ele>720.8</ele><time>2026-04-18T12:55:33.279Z</time></trkpt><trkpt lat="43.9902017" lon="11.6710467"><ele>723.0</ele><time>2026-04-18T12:55:34.28Z</time></trkpt><trkpt lat="43.99017" lon="11.671135"><ele>723.2</ele><time>2026-04-18T12:55:35.28Z</time></trkpt><trkpt lat="43.9900783" lon="11.6711583"><ele>723.4</ele><time>2026-04-18T12:55:36.281Z</time></trkpt><trkpt lat="43.9899733" lon="11.67114"><ele>723.6</ele><time>2026-04-18T12:55:37.28Z</time></trkpt><trkpt lat="43.9898767" lon="11.6710967"><ele>723.8000000000001</ele><time>2026-04-18T12:55:38.28Z</time></trkpt><trkpt lat="43.9897767" lon="11.6710617"><ele>724.0</ele><time>2026-04-18T12:55:39.281Z</time></trkpt><trkpt lat="43.9896767" lon="11.6710533"><ele>718.25</ele><time>2026-04-18T12:55:40.279Z</time></trkpt><trkpt lat="43.9895617" lon="11.6711017"><ele>712.5</ele><time>2026-04-18T12:55:41.281Z</time></trkpt><trkpt lat="43.9894433" lon="11.67116"><ele>706.75</ele><time>2026-04-18T12:55:42.28Z</time></trkpt><trkpt lat="43.9893183" lon="11.67122"><ele>701.0</ele><time>2026-04-18T12:55:43.28Z</time></trkpt><trkpt lat="43.989185" lon="11.6712767"><ele>698.5</ele><time>2026-04-18T12:55:44.281Z</time></trkpt><trkpt lat="43.9890467" lon="11.671335"><ele>696.0</ele><time>2026-04-18T12:55:45.28Z</time></trkpt><trkpt lat="43.9889083" lon="11.6713933"><ele>693.5</ele><time>2026-04-18T12:55:46.278Z</time></trkpt><trkpt lat="43.9887583" lon="11.6714533"><ele>691.0</ele><time>2026-04-18T12:55:47.28Z</time></trkpt><trkpt lat="43.9886017" lon="11.6715133"><ele>691.0</ele><time>2026-04-18T12:55:48.28Z</time></trkpt><trkpt lat="43.9884517" lon="11.6715633"><ele>691.0</ele><time>2026-04-18T12:55:49.28Z</time></trkpt><trkpt lat="43.9883033" lon="11.6716067"><ele>691.0</ele><time>2026-04-18T12:55:50.281Z</time></trkpt><trkpt lat="43.9881433" lon="11.6716533"><ele>685.3333333333334</ele><time>2026-04-18T12:55:51.28Z</time></trkpt><trkpt lat="43.9879833" lon="11.6717"><ele>679.6666666666666</ele><time>2026-04-18T12:55:52.281Z</time></trkpt><trkpt lat="43.987825" lon="11.6717417"><ele>674.0</ele><time>2026-04-18T12:55:53.28Z</time></trkpt><trkpt lat="43.9876633" lon="11.6717867"><ele>670.3333333333333</ele><time>2026-04-18T12:55:54.28Z</time></trkpt><trkpt lat="43.9875067" lon="11.6718367"><ele>666.6666666666666</ele><time>2026-04-18T12:55:55.28Z</time></trkpt><trkpt lat="43.987355" lon="11.6718783"><ele>663.0</ele><time>2026-04-18T12:55:56.279Z</time></trkpt><trkpt lat="43.9872067" lon="11.6719283"><ele>668.6666666666666</ele><time>2026-04-18T12:55:57.28Z</time></trkpt><trkpt lat="43.9870617" lon="11.6719767"><ele>674.3333333333333</ele><time>2026-04-18T12:55:58.28Z</time></trkpt><trkpt lat="43.986905" lon="11.67202"><ele>680.0</ele><time>2026-04-18T12:55:59.281Z</time></trkpt><trkpt lat="43.98675" lon="11.6720667"><ele>676.0</ele><time>2026-04-18T12:56:00.281Z</time></trkpt><trkpt lat="43.9865933" lon="11.6721083"><ele>672.0</ele><time>2026-04-18T12:56:01.281Z</time></trkpt><trkpt lat="43.98644" lon="11.6721467"><ele>668.0</ele><time>2026-04-18T12:56:02.281Z</time></trkpt><trkpt lat="43.9862917" lon="11.6721867"><ele>668.0</ele><time>2026-04-18T12:56:03.281Z</time></trkpt><trkpt lat="43.9861417" lon="11.672225"><ele>668.0</ele><time>2026-04-18T12:56:04.283Z</time></trkpt><trkpt lat="43.98599" lon="11.6722567"><ele>668.0</ele><time>2026-04-18T12:56:05.281Z</time></trkpt><trkpt lat="43.9858433" lon="11.672295"><ele>664.75</ele><time>2026-04-18T12:56:06.28Z</time></trkpt><trkpt lat="43.9857" lon="11.6723317"><ele>661.5</ele><time>2026-04-18T12:56:07.28Z</time></trkpt><trkpt lat="43.985565" lon="11.6723717"><ele>658.25</ele><time>2026-04-18T12:56:08.281Z</time></trkpt><trkpt lat="43.98544" lon="11.6724267"><ele>655.0</ele><time>2026-04-18T12:56:09.279Z</time></trkpt><trkpt lat="43.985335" lon="11.6725083"><ele>655.0</ele><time>2026-04-18T12:56:10.279Z</time></trkpt><trkpt lat="43.9852433" lon="11.67262"><ele>655.0</ele><time>2026-04-18T12:56:11.279Z</time></trkpt><trkpt lat="43.9851583" lon="11.6727283"><ele>655.0</ele><time>2026-04-18T12:56:12.281Z</time></trkpt><trkpt lat="43.98507" lon="11.6728133"><ele>655.0</ele><time>2026-04-18T12:56:13.282Z</time></trkpt><trkpt lat="43.98497" lon="11.6728683"><ele>653.8</ele><time>2026-04-18T12:56:14.282Z</time></trkpt><trkpt lat="43.9848617" lon="11.6729083"><ele>652.6</ele><time>2026-04-18T12:56:15.281Z</time></trkpt><trkpt lat="43.98476" lon="11.6729567"><ele>651.4000000000001</ele><time>2026-04-18T12:56:16.281Z</time></trkpt><trkpt lat="43.984675" lon="11.6730367"><ele>650.2</ele><time>2026-04-18T12:56:17.279Z</time></trkpt><trkpt lat="43.98461" lon="11.673145"><ele>649.0</ele><time>2026-04-18T12:56:18.281Z</time></trkpt><trkpt lat="43.9845833" lon="11.6732933"><ele>649.0</ele><time>2026-04-18T12:56:19.279Z</time></trkpt><trkpt lat="43.98458" lon="11.6734583"><ele>649.0</ele><time>2026-04-18T12:56:20.28Z</time></trkpt><trkpt lat="43.984565" lon="11.6736183"><ele>649.0</ele><time>2026-04-18T12:56:21.279Z</time></trkpt><trkpt lat="43.984515" lon="11.67376"><ele>649.0</ele><time>2026-04-18T12:56:22.28Z</time></trkpt><trkpt lat="43.9844567" lon="11.673885"><ele>648.1666666666667</ele><time>2026-04-18T12:56:23.281Z</time></trkpt><trkpt lat="43.98441" lon="11.674"><ele>647.3333333333334</ele><time>2026-04-18T12:56:24.28Z</time></trkpt><trkpt lat="43.98438" lon="11.6741133"><ele>646.5</ele><time>2026-04-18T12:56:25.28Z</time></trkpt><trkpt lat="43.984375" lon="11.6742217"><ele>645.6666666666666</ele><time>2026-04-18T12:56:26.28Z</time></trkpt><trkpt lat="43.984375" lon="11.6743183"><ele>644.8333333333333</ele><time>2026-04-18T12:56:27.281Z</time></trkpt><trkpt lat="43.98441" lon="11.6744"><ele>644.0</ele><time>2026-04-18T12:56:28.28Z</time></trkpt><trkpt lat="43.98451" lon="11.6744733"><ele>644.0</ele><time>2026-04-18T12:56:29.28Z</time></trkpt><trkpt lat="43.9845933" lon="11.6745633"><ele>644.0</ele><time>2026-04-18T12:56:30.28Z</time></trkpt><trkpt lat="43.9847017" lon="11.6746833"><ele>644.0</ele><time>2026-04-18T12:56:31.281Z</time></trkpt><trkpt lat="43.984805" lon="11.6748283"><ele>644.0</ele><time>2026-04-18T12:56:32.28Z</time></trkpt><trkpt lat="43.9848883" lon="11.6749867"><ele>644.0</ele><time>2026-04-18T12:56:33.281Z</time></trkpt><trkpt lat="43.9849667" lon="11.67514"><ele>644.0</ele><time>2026-04-18T12:56:34.278Z</time></trkpt><trkpt lat="43.9850233" lon="11.6753183"><ele>644.0</ele><time>2026-04-18T12:56:35.281Z</time></trkpt><trkpt lat="43.9850617" lon="11.6755"><ele>644.0</ele><time>2026-04-18T12:56:36.28Z</time></trkpt><trkpt lat="43.9850717" lon="11.6756833"><ele>639.5</ele><time>2026-04-18T12:56:37.28Z</time></trkpt><trkpt lat="43.9850333" lon="11.675865"><ele>635.0</ele><time>2026-04-18T12:56:38.281Z</time></trkpt><trkpt lat="43.9849933" lon="11.676035"><ele>630.5</ele><time>2026-04-18T12:56:39.279Z</time></trkpt><trkpt lat="43.98494" lon="11.6761867"><ele>626.0</ele><time>2026-04-18T12:56:40.278Z</time></trkpt><trkpt lat="43.9848733" lon="11.6763217"><ele>625.75</ele><time>2026-04-18T12:56:41.28Z</time></trkpt><trkpt lat="43.9848133" lon="11.6764633"><ele>625.5</ele><time>2026-04-18T12:56:42.28Z</time></trkpt><trkpt lat="43.9847633" lon="11.676625"><ele>625.25</ele><time>2026-04-18T12:56:43.281Z</time></trkpt><trkpt lat="43.9847267" lon="11.6768"><ele>625.0</ele><time>2026-04-18T12:56:44.281Z</time></trkpt><trkpt lat="43.9847067" lon="11.6769733"><ele>623.0</ele><time>2026-04-18T12:56:45.28Z</time></trkpt><trkpt lat="43.9846983" lon="11.6771417"><ele>621.0</ele><time>2026-04-18T12:56:46.28Z</time></trkpt><trkpt lat="43.9846983" lon="11.6772833"><ele>619.0</ele><time>2026-04-18T12:56:47.279Z</time></trkpt><trkpt lat="43.9847217" lon="11.67742"><ele>617.0</ele><time>2026-04-18T12:56:48.28Z</time></trkpt><trkpt lat="43.9847967" lon="11.6775283"><ele>615.0</ele><time>2026-04-18T12:56:49.281Z</time></trkpt><trkpt lat="43.984905" lon="11.677625"><ele>615.0</ele><time>2026-04-18T12:56:50.28Z</time></trkpt><trkpt lat="43.9850017" lon="11.6777333"><ele>615.0</ele><time>2026-04-18T12:56:51.279Z</time></trkpt><trkpt lat="43.9851033" lon="11.6778267"><ele>615.0</ele><time>2026-04-18T12:56:52.28Z</time></trkpt><trkpt lat="43.9851883" lon="11.6779133"><ele>615.0</ele><time>2026-04-18T12:56:53.28Z</time></trkpt><trkpt lat="43.9852583" lon="11.6779967"><ele>615.0</ele><time>2026-04-18T12:56:54.282Z</time></trkpt><trkpt lat="43.9853267" lon="11.678095"><ele>620.2</ele><time>2026-04-18T12:56:55.28Z</time></trkpt><trkpt lat="43.9853667" lon="11.6781883"><ele>625.4</ele><time>2026-04-18T12:56:56.281Z</time></trkpt><trkpt lat="43.98539" lon="11.67828"><ele>630.5999999999999</ele><time>2026-04-18T12:56:57.282Z</time></trkpt><trkpt lat="43.9853967" lon="11.6784083"><ele>635.8</ele><time>2026-04-18T12:56:59.281Z</time></trkpt><trkpt lat="43.98522" lon="11.6784083"><ele>641.0</ele><time>2026-04-18T12:57:01.28Z</time></trkpt><trkpt lat="43.9851433" lon="11.67841"><ele>641.0</ele><time>2026-04-18T12:57:02.28Z</time></trkpt><trkpt lat="43.98502" lon="11.6784183"><ele>641.0</ele><time>2026-04-18T12:57:03.28Z</time></trkpt><trkpt lat="43.984915" lon="11.6784683"><ele>641.0</ele><time>2026-04-18T12:57:04.279Z</time></trkpt><trkpt lat="43.984825" lon="11.6785767"><ele>641.0</ele><time>2026-04-18T12:57:05.281Z</time></trkpt><trkpt lat="43.9847417" lon="11.6787267"><ele>634.0</ele><time>2026-04-18T12:57:06.281Z</time></trkpt><trkpt lat="43.9846667" lon="11.6788833"><ele>627.0</ele><time>2026-04-18T12:57:07.28Z</time></trkpt><trkpt lat="43.9845583" lon="11.6790167"><ele>620.0</ele><time>2026-04-18T12:57:08.279Z</time></trkpt><trkpt lat="43.9844467" lon="11.67913"><ele>613.0</ele><time>2026-04-18T12:57:09.28Z</time></trkpt><trkpt lat="43.9843333" lon="11.6792233"><ele>613.0</ele><time>2026-04-18T12:57:10.278Z</time></trkpt><trkpt lat="43.9842317" lon="11.6793233"><ele>613.0</ele><time>2026-04-18T12:57:11.28Z</time></trkpt><trkpt lat="43.9841367" lon="11.6794317"><ele>613.0</ele><time>2026-04-18T12:57:12.28Z</time></trkpt><trkpt lat="43.98408" lon="11.679545"><ele>613.0</ele><time>2026-04-18T12:57:13.281Z</time></trkpt><trkpt lat="43.984035" lon="11.67968"><ele>611.6</ele><time>2026-04-18T12:57:14.284Z</time></trkpt><trkpt lat="43.9840117" lon="11.679835"><ele>610.1999999999999</ele><time>2026-04-18T12:57:15.281Z</time></trkpt><trkpt lat="43.9840133" lon="11.6799883"><ele>608.8</ele><time>2026-04-18T12:57:16.281Z</time></trkpt><trkpt lat="43.9840067" lon="11.6801417"><ele>607.4</ele><time>2026-04-18T12:57:17.281Z</time></trkpt><trkpt lat="43.9839967" lon="11.6803"><ele>606.0</ele><time>2026-04-18T12:57:18.28Z</time></trkpt><trkpt lat="43.98397" lon="11.6804517"><ele>606.0</ele><time>2026-04-18T12:57:19.28Z</time></trkpt><trkpt lat="43.983915" lon="11.68061"><ele>606.0</ele><time>2026-04-18T12:57:20.28Z</time></trkpt><trkpt lat="43.983855" lon="11.6807683"><ele>606.0</ele><time>2026-04-18T12:57:21.281Z</time></trkpt><trkpt lat="43.9838" lon="11.6809133"><ele>606.0</ele><time>2026-04-18T12:57:22.28Z</time></trkpt><trkpt lat="43.98375" lon="11.6810533"><ele>606.25</ele><time>2026-04-18T12:57:23.281Z</time></trkpt><trkpt lat="43.9837167" lon="11.6812117"><ele>606.5</ele><time>2026-04-18T12:57:24.28Z</time></trkpt><trkpt lat="43.983705" lon="11.68139"><ele>606.75</ele><time>2026-04-18T12:57:25.281Z</time></trkpt><trkpt lat="43.9837033" lon="11.681575"><ele>607.0</ele><time>2026-04-18T12:57:26.28Z</time></trkpt><trkpt lat="43.983715" lon="11.681765"><ele>605.5</ele><time>2026-04-18T12:57:27.28Z</time></trkpt><trkpt lat="43.9837233" lon="11.6819433"><ele>604.0</ele><time>2026-04-18T12:57:28.28Z</time></trkpt><trkpt lat="43.983745" lon="11.6821117"><ele>602.5</ele><time>2026-04-18T12:57:29.282Z</time></trkpt><trkpt lat="43.9837667" lon="11.6822667"><ele>601.0</ele><time>2026-04-18T12:57:30.281Z</time></trkpt><trkpt lat="43.9837683" lon="11.682395"><ele>601.0</ele><time>2026-04-18T12:57:31.28Z</time></trkpt><trkpt lat="43.98375" lon="11.6825067"><ele>601.0</ele><time>2026-04-18T12:57:32.281Z</time></trkpt><trkpt lat="43.983725" lon="11.68261"><ele>601.0</ele><time>2026-04-18T12:57:33.28Z</time></trkpt><trkpt lat="43.9837083" lon="11.6827117"><ele>601.0</ele><time>2026-04-18T12:57:34.28Z</time></trkpt><trkpt lat="43.9837117" lon="11.68282"><ele>601.0</ele><time>2026-04-18T12:57:35.281Z</time></trkpt><trkpt lat="43.9837317" lon="11.6829267"><ele>601.0</ele><time>2026-04-18T12:57:36.28Z</time></trkpt><trkpt lat="43.9837683" lon="11.6830417"><ele>601.5</ele><time>2026-04-18T12:57:37.281Z</time></trkpt><trkpt lat="43.9838117" lon="11.683195"><ele>602.0</ele><time>2026-04-18T12:57:38.281Z</time></trkpt><trkpt lat="43.98383" lon="11.6833617"><ele>602.5</ele><time>2026-04-18T12:57:39.28Z</time></trkpt><trkpt lat="43.9838467" lon="11.6835383"><ele>603.0</ele><time>2026-04-18T12:57:40.281Z</time></trkpt><trkpt lat="43.98385" lon="11.6837033"><ele>600.6</ele><time>2026-04-18T12:57:41.281Z</time></trkpt><trkpt lat="43.98385" lon="11.68384"><ele>598.1999999999999</ele><time>2026-04-18T12:57:42.28Z</time></trkpt><trkpt lat="43.9838567" lon="11.6839617"><ele>595.8</ele><time>2026-04-18T12:57:43.28Z</time></trkpt><trkpt lat="43.9838717" lon="11.68406"><ele>593.4</ele><time>2026-04-18T12:57:44.28Z</time></trkpt><trkpt lat="43.9838917" lon="11.6841483"><ele>591.0</ele><time>2026-04-18T12:57:45.281Z</time></trkpt><trkpt lat="43.983955" lon="11.6843067"><ele>591.0</ele><time>2026-04-18T12:57:47.281Z</time></trkpt><trkpt lat="43.984" lon="11.6843883"><ele>591.0</ele><time>2026-04-18T12:57:48.28Z</time></trkpt><trkpt lat="43.9840417" lon="11.6844633"><ele>591.0</ele><time>2026-04-18T12:57:49.281Z</time></trkpt><trkpt lat="43.9840833" lon="11.684545"><ele>591.0</ele><time>2026-04-18T12:57:50.28Z</time></trkpt><trkpt lat="43.9841383" lon="11.6846217"><ele>591.0</ele><time>2026-04-18T12:57:51.28Z</time></trkpt><trkpt lat="43.98417" lon="11.684705"><ele>591.0</ele><time>2026-04-18T12:57:52.281Z</time></trkpt><trkpt lat="43.9842033" lon="11.68479"><ele>591.0</ele><time>2026-04-18T12:57:53.28Z</time></trkpt><trkpt lat="43.9842317" lon="11.6848933"><ele>591.6666666666666</ele><time>2026-04-18T12:57:54.281Z</time></trkpt><trkpt lat="43.98424" lon="11.68499"><ele>592.3333333333334</ele><time>2026-04-18T12:57:55.28Z</time></trkpt><trkpt lat="43.9842417" lon="11.685085"><ele>593.0</ele><time>2026-04-18T12:57:56.279Z</time></trkpt><trkpt lat="43.9842367" lon="11.6852"><ele>593.6666666666667</ele><time>2026-04-18T12:57:57.28Z</time></trkpt><trkpt lat="43.98422" lon="11.6853333"><ele>594.3333333333334</ele><time>2026-04-18T12:57:58.281Z</time></trkpt><trkpt lat="43.9842133" lon="11.6854667"><ele>595.0</ele><time>2026-04-18T12:57:59.279Z</time></trkpt><trkpt lat="43.9842" lon="11.6856167"><ele>595.0</ele><time>2026-04-18T12:58:00.281Z</time></trkpt><trkpt lat="43.9841883" lon="11.6857583"><ele>595.0</ele><time>2026-04-18T12:58:01.28Z</time></trkpt><trkpt lat="43.9841767" lon="11.6858933"><ele>595.0</ele><time>2026-04-18T12:58:02.28Z</time></trkpt><trkpt lat="43.98416" lon="11.6860267"><ele>595.0</ele><time>2026-04-18T12:58:03.28Z</time></trkpt><trkpt lat="43.9841367" lon="11.68616"><ele>595.0</ele><time>2026-04-18T12:58:04.281Z</time></trkpt><trkpt lat="43.9840817" lon="11.6862933"><ele>591.8</ele><time>2026-04-18T12:58:05.281Z</time></trkpt><trkpt lat="43.9840217" lon="11.6864283"><ele>588.6</ele><time>2026-04-18T12:58:06.28Z</time></trkpt><trkpt lat="43.9839583" lon="11.6865517"><ele>585.4</ele><time>2026-04-18T12:58:07.28Z</time></trkpt><trkpt lat="43.9838917" lon="11.6866617"><ele>582.2</ele><time>2026-04-18T12:58:08.282Z</time></trkpt><trkpt lat="43.9838367" lon="11.6867617"><ele>579.0</ele><time>2026-04-18T12:58:09.281Z</time></trkpt><trkpt lat="43.983785" lon="11.68686"><ele>576.6666666666666</ele><time>2026-04-18T12:58:10.283Z</time></trkpt><trkpt lat="43.9837467" lon="11.6869617"><ele>574.3333333333334</ele><time>2026-04-18T12:58:11.282Z</time></trkpt><trkpt lat="43.98378" lon="11.687055"><ele>572.0</ele><time>2026-04-18T12:58:12.281Z</time></trkpt><trkpt lat="43.9838067" lon="11.68716"><ele>569.6666666666667</ele><time>2026-04-18T12:58:13.28Z</time></trkpt><trkpt lat="43.9838633" lon="11.687265"><ele>567.3333333333334</ele><time>2026-04-18T12:58:14.282Z</time></trkpt><trkpt lat="43.98393" lon="11.6873683"><ele>565.0</ele><time>2026-04-18T12:58:15.28Z</time></trkpt><trkpt lat="43.9839933" lon="11.6874733"><ele>565.0</ele><time>2026-04-18T12:58:16.281Z</time></trkpt><trkpt lat="43.9840567" lon="11.68756"><ele>565.0</ele><time>2026-04-18T12:58:17.28Z</time></trkpt><trkpt lat="43.98413" lon="11.6876217"><ele>565.0</ele><time>2026-04-18T12:58:18.28Z</time></trkpt><trkpt lat="43.984195" lon="11.6876533"><ele>565.0</ele><time>2026-04-18T12:58:19.28Z</time></trkpt><trkpt lat="43.9842917" lon="11.6876933"><ele>565.0</ele><time>2026-04-18T12:58:21.281Z</time></trkpt><trkpt lat="43.984355" lon="11.6877367"><ele>565.0</ele><time>2026-04-18T12:58:23.281Z</time></trkpt><trkpt lat="43.9842583" lon="11.687775"><ele>565.0</ele><time>2026-04-18T12:58:25.279Z</time></trkpt><trkpt lat="43.9841833" lon="11.6877783"><ele>565.0</ele><time>2026-04-18T12:58:26.28Z</time></trkpt><trkpt lat="43.9841067" lon="11.6877617"><ele>565.0</ele><time>2026-04-18T12:58:27.281Z</time></trkpt><trkpt lat="43.9840167" lon="11.687735"><ele>565.0</ele><time>2026-04-18T12:58:28.279Z</time></trkpt><trkpt lat="43.983925" lon="11.6876933"><ele>565.0</ele><time>2026-04-18T12:58:29.283Z</time></trkpt><trkpt lat="43.9838367" lon="11.68764"><ele>565.0</ele><time>2026-04-18T12:58:30.28Z</time></trkpt><trkpt lat="43.9837533" lon="11.687585"><ele>565.0</ele><time>2026-04-18T12:58:31.282Z</time></trkpt><trkpt lat="43.9836717" lon="11.6875317"><ele>565.0</ele><time>2026-04-18T12:58:32.28Z</time></trkpt><trkpt lat="43.9835867" lon="11.6874717"><ele>565.0</ele><time>2026-04-18T12:58:33.281Z</time></trkpt><trkpt lat="43.9834983" lon="11.6874167"><ele>565.0</ele><time>2026-04-18T12:58:34.28Z</time></trkpt><trkpt lat="43.9834033" lon="11.68738"><ele>565.0</ele><time>2026-04-18T12:58:35.28Z</time></trkpt><trkpt lat="43.9833067" lon="11.68736"><ele>559.6</ele><time>2026-04-18T12:58:36.279Z</time></trkpt><trkpt lat="43.9832017" lon="11.6873567"><ele>554.2</ele><time>2026-04-18T12:58:37.278Z</time></trkpt><trkpt lat="43.9830967" lon="11.6873733"><ele>548.8</ele><time>2026-04-18T12:58:38.28Z</time></trkpt><trkpt lat="43.983" lon="11.6873833"><ele>543.4</ele><time>2026-04-18T12:58:39.28Z</time></trkpt><trkpt lat="43.9829133" lon="11.6873967"><ele>538.0</ele><time>2026-04-18T12:58:40.28Z</time></trkpt><trkpt lat="43.982825" lon="11.6874067"><ele>538.0</ele><time>2026-04-18T12:58:41.28Z</time></trkpt><trkpt lat="43.9827433" lon="11.6873933"><ele>538.0</ele><time>2026-04-18T12:58:42.279Z</time></trkpt><trkpt lat="43.9826683" lon="11.687355"><ele>538.0</ele><time>2026-04-18T12:58:43.28Z</time></trkpt><trkpt lat="43.9826067" lon="11.687295"><ele>538.0</ele><time>2026-04-18T12:58:44.279Z</time></trkpt><trkpt lat="43.98256" lon="11.6871917"><ele>538.0</ele><time>2026-04-18T12:58:45.279Z</time></trkpt><trkpt lat="43.9825283" lon="11.68707"><ele>538.0</ele><time>2026-04-18T12:58:46.279Z</time></trkpt><trkpt lat="43.9825333" lon="11.6869133"><ele>536.5</ele><time>2026-04-18T12:58:47.279Z</time></trkpt><trkpt lat="43.9825517" lon="11.6867883"><ele>535.0</ele><time>2026-04-18T12:58:48.28Z</time></trkpt><trkpt lat="43.98257" lon="11.6866883"><ele>533.5</ele><time>2026-04-18T12:58:49.279Z</time></trkpt><trkpt lat="43.9825967" lon="11.68653"><ele>532.0</ele><time>2026-04-18T12:58:51.279Z</time></trkpt><trkpt lat="43.9825883" lon="11.68641"><ele>530.5</ele><time>2026-04-18T12:58:53.279Z</time></trkpt><trkpt lat="43.9825317" lon="11.6864733"><ele>529.0</ele><time>2026-04-18T12:58:55.28Z</time></trkpt><trkpt lat="43.98249" lon="11.68663"><ele>529.0</ele><time>2026-04-18T12:58:57.279Z</time></trkpt><trkpt lat="43.98247" lon="11.6867433"><ele>529.0</ele><time>2026-04-18T12:58:58.279Z</time></trkpt><trkpt lat="43.9824567" lon="11.6868517"><ele>529.0</ele><time>2026-04-18T12:58:59.279Z</time></trkpt><trkpt lat="43.9824583" lon="11.686955"><ele>529.0</ele><time>2026-04-18T12:59:00.279Z</time></trkpt><trkpt lat="43.98249" lon="11.6870483"><ele>529.0</ele><time>2026-04-18T12:59:01.279Z</time></trkpt><trkpt lat="43.9825183" lon="11.68713"><ele>529.0</ele><time>2026-04-18T12:59:02.28Z</time></trkpt><trkpt lat="43.98258" lon="11.6872533"><ele>530.8</ele><time>2026-04-18T12:59:04.28Z</time></trkpt><trkpt lat="43.9825967" lon="11.6873617"><ele>532.5999999999999</ele><time>2026-04-18T12:59:06.279Z</time></trkpt><trkpt lat="43.9825167" lon="11.68733"><ele>534.4</ele><time>2026-04-18T12:59:08.28Z</time></trkpt><trkpt lat="43.9824217" lon="11.6872367"><ele>536.1999999999999</ele><time>2026-04-18T12:59:10.279Z</time></trkpt><trkpt lat="43.9823717" lon="11.6871517"><ele>538.0</ele><time>2026-04-18T12:59:11.28Z</time></trkpt><trkpt lat="43.982315" lon="11.687045"><ele>536.1999999999999</ele><time>2026-04-18T12:59:12.279Z</time></trkpt><trkpt lat="43.9822467" lon="11.6868917"><ele>534.4</ele><time>2026-04-18T12:59:13.279Z</time></trkpt><trkpt lat="43.9822183" lon="11.6867517"><ele>532.5999999999999</ele><time>2026-04-18T12:59:14.281Z</time></trkpt><trkpt lat="43.982205" lon="11.6866117"><ele>530.8</ele><time>2026-04-18T12:59:15.281Z</time></trkpt><trkpt lat="43.9821883" lon="11.6864933"><ele>529.0</ele><time>2026-04-18T12:59:16.28Z</time></trkpt><trkpt lat="43.9821783" lon="11.6863783"><ele>529.0</ele><time>2026-04-18T12:59:17.281Z</time></trkpt><trkpt lat="43.98217" lon="11.6862817"><ele>529.0</ele><time>2026-04-18T12:59:18.283Z</time></trkpt><trkpt lat="43.982145" lon="11.6861383"><ele>529.0</ele><time>2026-04-18T12:59:20.281Z</time></trkpt><trkpt lat="43.982105" lon="11.6860617"><ele>529.0</ele><time>2026-04-18T12:59:22.279Z</time></trkpt><trkpt lat="43.98204" lon="11.686115"><ele>529.0</ele><time>2026-04-18T12:59:25.28Z</time></trkpt><trkpt lat="43.9820217" lon="11.6862567"><ele>529.0</ele><time>2026-04-18T12:59:26.281Z</time></trkpt><trkpt lat="43.9820083" lon="11.6863933"><ele>529.0</ele><time>2026-04-18T12:59:27.281Z</time></trkpt><trkpt lat="43.9819867" lon="11.68653"><ele>529.0</ele><time>2026-04-18T12:59:28.279Z</time></trkpt><trkpt lat="43.9819683" lon="11.6866583"><ele>529.0</ele><time>2026-04-18T12:59:29.281Z</time></trkpt><trkpt lat="43.9819517" lon="11.6867733"><ele>529.0</ele><time>2026-04-18T12:59:30.281Z</time></trkpt><trkpt lat="43.98195" lon="11.686885"><ele>529.0</ele><time>2026-04-18T12:59:31.28Z</time></trkpt><trkpt lat="43.9819433" lon="11.6869933"><ele>529.0</ele><time>2026-04-18T12:59:32.282Z</time></trkpt><trkpt lat="43.9819383" lon="11.6870917"><ele>527.0</ele><time>2026-04-18T12:59:33.28Z</time></trkpt><trkpt lat="43.981915" lon="11.6871983"><ele>525.0</ele><time>2026-04-18T12:59:34.281Z</time></trkpt><trkpt lat="43.9818833" lon="11.6873133"><ele>523.0</ele><time>2026-04-18T12:59:35.28Z</time></trkpt><trkpt lat="43.9818433" lon="11.6874283"><ele>521.0</ele><time>2026-04-18T12:59:36.28Z</time></trkpt><trkpt lat="43.9818" lon="11.68754"><ele>519.0</ele><time>2026-04-18T12:59:37.28Z</time></trkpt><trkpt lat="43.981755" lon="11.6876483"><ele>517.0</ele><time>2026-04-18T12:59:38.281Z</time></trkpt><trkpt lat="43.98173" lon="11.687755"><ele>513.2</ele><time>2026-04-18T12:59:39.28Z</time></trkpt><trkpt lat="43.9817" lon="11.6878417"><ele>509.40000000000003</ele><time>2026-04-18T12:59:40.28Z</time></trkpt><trkpt lat="43.98165" lon="11.6879717"><ele>505.59999999999997</ele><time>2026-04-18T12:59:42.281Z</time></trkpt><trkpt lat="43.9816017" lon="11.6880367"><ele>501.79999999999995</ele><time>2026-04-18T12:59:44.281Z</time></trkpt><trkpt lat="43.9815033" lon="11.6881283"><ele>498.0</ele><time>2026-04-18T12:59:46.28Z</time></trkpt><trkpt lat="43.98142" lon="11.6881717"><ele>498.0</ele><time>2026-04-18T12:59:47.28Z</time></trkpt><trkpt lat="43.9813433" lon="11.688225"><ele>497.99999999999994</ele><time>2026-04-18T12:59:48.28Z</time></trkpt><trkpt lat="43.9812633" lon="11.6883067"><ele>497.99999999999994</ele><time>2026-04-18T12:59:49.282Z</time></trkpt><trkpt lat="43.9811733" lon="11.68838"><ele>498.0</ele><time>2026-04-18T12:59:50.282Z</time></trkpt><trkpt lat="43.981085" lon="11.6884283"><ele>498.0</ele><time>2026-04-18T12:59:51.281Z</time></trkpt><trkpt lat="43.981" lon="11.6884583"><ele>498.0</ele><time>2026-04-18T12:59:52.28Z</time></trkpt><trkpt lat="43.9809367" lon="11.68847"><ele>497.99999999999994</ele><time>2026-04-18T12:59:53.28Z</time></trkpt><trkpt lat="43.98088" lon="11.6884267"><ele>497.99999999999994</ele><time>2026-04-18T12:59:54.28Z</time></trkpt><trkpt lat="43.98083" lon="11.6883367"><ele>498.0</ele><time>2026-04-18T12:59:55.28Z</time></trkpt><trkpt lat="43.980785" lon="11.68814"><ele>498.0</ele><time>2026-04-18T12:59:56.282Z</time></trkpt><trkpt lat="43.9807383" lon="11.6879183"><ele>505.66666666666663</ele><time>2026-04-18T12:59:57.28Z</time></trkpt><trkpt lat="43.9806817" lon="11.6876867"><ele>513.3333333333333</ele><time>2026-04-18T12:59:58.282Z</time></trkpt><trkpt lat="43.9805917" lon="11.6875067"><ele>521.0</ele><time>2026-04-18T12:59:59.28Z</time></trkpt><trkpt lat="43.98049" lon="11.6873433"><ele>521.0</ele><time>2026-04-18T13:00:00.28Z</time></trkpt><trkpt lat="43.9803733" lon="11.68722"><ele>521.0</ele><time>2026-04-18T13:00:01.28Z</time></trkpt><trkpt lat="43.980235" lon="11.68711"><ele>521.0</ele><time>2026-04-18T13:00:02.278Z</time></trkpt><trkpt lat="43.98008" lon="11.6870233"><ele>519.5</ele><time>2026-04-18T13:00:03.279Z</time></trkpt><trkpt lat="43.9799117" lon="11.686985"><ele>518.0</ele><time>2026-04-18T13:00:04.278Z</time></trkpt><trkpt lat="43.9797633" lon="11.6869733"><ele>516.5</ele><time>2026-04-18T13:00:05.282Z</time></trkpt><trkpt lat="43.9796367" lon="11.6869967"><ele>515.0</ele><time>2026-04-18T13:00:06.28Z</time></trkpt><trkpt lat="43.9795333" lon="11.68699"><ele>515.0</ele><time>2026-04-18T13:00:07.278Z</time></trkpt><trkpt lat="43.979455" lon="11.68694"><ele>515.0</ele><time>2026-04-18T13:00:08.28Z</time></trkpt><trkpt lat="43.9794033" lon="11.6868383"><ele>515.0</ele><time>2026-04-18T13:00:09.281Z</time></trkpt><trkpt lat="43.97939" lon="11.68669"><ele>515.0</ele><time>2026-04-18T13:00:10.282Z</time></trkpt><trkpt lat="43.9794" lon="11.6865083"><ele>515.0</ele><time>2026-04-18T13:00:11.278Z</time></trkpt><trkpt lat="43.9794183" lon="11.6862767"><ele>526.3333333333333</ele><time>2026-04-18T13:00:12.279Z</time></trkpt><trkpt lat="43.9794333" lon="11.6860433"><ele>537.6666666666666</ele><time>2026-04-18T13:00:13.278Z</time></trkpt><trkpt lat="43.97945" lon="11.6857917"><ele>549.0</ele><time>2026-04-18T13:00:14.281Z</time></trkpt><trkpt lat="43.97946" lon="11.6855433"><ele>549.0</ele><time>2026-04-18T13:00:15.28Z</time></trkpt><trkpt lat="43.9794633" lon="11.6852867"><ele>549.0</ele><time>2026-04-18T13:00:16.281Z</time></trkpt><trkpt lat="43.9794567" lon="11.6850317"><ele>549.0</ele><time>2026-04-18T13:00:17.28Z</time></trkpt><trkpt lat="43.9794383" lon="11.684785"><ele>551.6666666666666</ele><time>2026-04-18T13:00:18.281Z</time></trkpt><trkpt lat="43.97941" lon="11.68455"><ele>554.3333333333333</ele><time>2026-04-18T13:00:19.28Z</time></trkpt><trkpt lat="43.9793633" lon="11.6843217"><ele>557.0</ele><time>2026-04-18T13:00:20.282Z</time></trkpt><trkpt lat="43.97929" lon="11.6841133"><ele>554.25</ele><time>2026-04-18T13:00:21.283Z</time></trkpt><trkpt lat="43.9791983" lon="11.683935"><ele>551.5</ele><time>2026-04-18T13:00:22.279Z</time></trkpt><trkpt lat="43.9791133" lon="11.683785"><ele>548.75</ele><time>2026-04-18T13:00:23.28Z</time></trkpt><trkpt lat="43.9790667" lon="11.683615"><ele>546.0</ele><time>2026-04-18T13:00:24.282Z</time></trkpt><trkpt lat="43.979065" lon="11.6834267"><ele>546.0</ele><time>2026-04-18T13:00:25.282Z</time></trkpt><trkpt lat="43.979095" lon="11.6832267"><ele>546.0</ele><time>2026-04-18T13:00:26.28Z</time></trkpt><trkpt lat="43.9791283" lon="11.683015"><ele>546.0</ele><time>2026-04-18T13:00:27.28Z</time></trkpt><trkpt lat="43.979135" lon="11.6827667"><ele>550.6666666666666</ele><time>2026-04-18T13:00:28.281Z</time></trkpt><trkpt lat="43.97911" lon="11.68252"><ele>555.3333333333333</ele><time>2026-04-18T13:00:29.281Z</time></trkpt><trkpt lat="43.97907" lon="11.6823"><ele>560.0</ele><time>2026-04-18T13:00:30.282Z</time></trkpt><trkpt lat="43.9789933" lon="11.6821283"><ele>560.0</ele><time>2026-04-18T13:00:31.281Z</time></trkpt><trkpt lat="43.9789033" lon="11.6819917"><ele>560.0</ele><time>2026-04-18T13:00:32.281Z</time></trkpt><trkpt lat="43.97876" lon="11.6818917"><ele>560.0</ele><time>2026-04-18T13:00:33.282Z</time></trkpt><trkpt lat="43.978605" lon="11.6818233"><ele>557.0</ele><time>2026-04-18T13:00:34.279Z</time></trkpt><trkpt lat="43.9784817" lon="11.6817633"><ele>554.0</ele><time>2026-04-18T13:00:35.281Z</time></trkpt><trkpt lat="43.9783717" lon="11.6817017"><ele>551.0</ele><time>2026-04-18T13:00:36.281Z</time></trkpt><trkpt lat="43.978295" lon="11.6816033"><ele>548.0</ele><time>2026-04-18T13:00:37.282Z</time></trkpt><trkpt lat="43.9782667" lon="11.6814517"><ele>548.0</ele><time>2026-04-18T13:00:38.281Z</time></trkpt><trkpt lat="43.9782733" lon="11.6812867"><ele>548.0</ele><time>2026-04-18T13:00:39.281Z</time></trkpt><trkpt lat="43.9782883" lon="11.681095"><ele>548.0</ele><time>2026-04-18T13:00:40.28Z</time></trkpt><trkpt lat="43.978285" lon="11.68091"><ele>548.0</ele><time>2026-04-18T13:00:41.281Z</time></trkpt><trkpt lat="43.9782733" lon="11.68074"><ele>553.0</ele><time>2026-04-18T13:00:42.28Z</time></trkpt><trkpt lat="43.978215" lon="11.6805767"><ele>558.0</ele><time>2026-04-18T13:00:43.279Z</time></trkpt><trkpt lat="43.978095" lon="11.6804167"><ele>563.0</ele><time>2026-04-18T13:00:44.281Z</time></trkpt><trkpt lat="43.9779617" lon="11.6802567"><ele>568.6666666666666</ele><time>2026-04-18T13:00:45.281Z</time></trkpt><trkpt lat="43.9778417" lon="11.6800917"><ele>574.3333333333334</ele><time>2026-04-18T13:00:46.282Z</time></trkpt><trkpt lat="43.9777183" lon="11.6799167"><ele>580.0</ele><time>2026-04-18T13:00:47.283Z</time></trkpt><trkpt lat="43.9776117" lon="11.6797283"><ele>580.0</ele><time>2026-04-18T13:00:48.28Z</time></trkpt><trkpt lat="43.9775217" lon="11.6795333"><ele>580.0</ele><time>2026-04-18T13:00:49.28Z</time></trkpt><trkpt lat="43.977405" lon="11.67937"><ele>580.0</ele><time>2026-04-18T13:00:50.28Z</time></trkpt><trkpt lat="43.9772717" lon="11.6791883"><ele>577.0</ele><time>2026-04-18T13:00:51.281Z</time></trkpt><trkpt lat="43.9771467" lon="11.6790033"><ele>574.0</ele><time>2026-04-18T13:00:52.28Z</time></trkpt><trkpt lat="43.97705" lon="11.6788233"><ele>571.0</ele><time>2026-04-18T13:00:53.281Z</time></trkpt><trkpt lat="43.9769617" lon="11.6786667"><ele>567.25</ele><time>2026-04-18T13:00:54.279Z</time></trkpt><trkpt lat="43.9768567" lon="11.6785717"><ele>563.5</ele><time>2026-04-18T13:00:55.281Z</time></trkpt><trkpt lat="43.9767467" lon="11.6785467"><ele>559.75</ele><time>2026-04-18T13:00:56.28Z</time></trkpt><trkpt lat="43.9766367" lon="11.6785783"><ele>556.0</ele><time>2026-04-18T13:00:57.28Z</time></trkpt><trkpt lat="43.9765233" lon="11.6786517"><ele>556.0</ele><time>2026-04-18T13:00:58.281Z</time></trkpt><trkpt lat="43.9764183" lon="11.6787783"><ele>556.0</ele><time>2026-04-18T13:00:59.281Z</time></trkpt><trkpt lat="43.9763" lon="11.6788567"><ele>556.0</ele><time>2026-04-18T13:01:00.281Z</time></trkpt><trkpt lat="43.9761667" lon="11.6788783"><ele>556.0</ele><time>2026-04-18T13:01:01.279Z</time></trkpt><trkpt lat="43.97603" lon="11.6788617"><ele>556.0</ele><time>2026-04-18T13:01:02.282Z</time></trkpt><trkpt lat="43.9758933" lon="11.6788567"><ele>556.0</ele><time>2026-04-18T13:01:03.281Z</time></trkpt><trkpt lat="43.9757667" lon="11.6789083"><ele>556.0</ele><time>2026-04-18T13:01:04.279Z</time></trkpt><trkpt lat="43.9756567" lon="11.6789617"><ele>556.0</ele><time>2026-04-18T13:01:05.281Z</time></trkpt><trkpt lat="43.9755417" lon="11.6789633"><ele>558.0</ele><time>2026-04-18T13:01:06.281Z</time></trkpt><trkpt lat="43.9754367" lon="11.6789"><ele>560.0</ele><time>2026-04-18T13:01:07.282Z</time></trkpt><trkpt lat="43.9753467" lon="11.67878"><ele>562.0</ele><time>2026-04-18T13:01:08.28Z</time></trkpt><trkpt lat="43.975275" lon="11.6786383"><ele>564.0</ele><time>2026-04-18T13:01:09.278Z</time></trkpt><trkpt lat="43.97523" lon="11.6784883"><ele>573.25</ele><time>2026-04-18T13:01:10.279Z</time></trkpt><trkpt lat="43.975215" lon="11.67833"><ele>582.5</ele><time>2026-04-18T13:01:11.282Z</time></trkpt><trkpt lat="43.9752217" lon="11.6781467"><ele>591.75</ele><time>2026-04-18T13:01:12.281Z</time></trkpt><trkpt lat="43.975225" lon="11.6779617"><ele>601.0</ele><time>2026-04-18T13:01:13.281Z</time></trkpt><trkpt lat="43.9751967" lon="11.6778033"><ele>599.5</ele><time>2026-04-18T13:01:14.281Z</time></trkpt><trkpt lat="43.9751383" lon="11.6776617"><ele>598.0</ele><time>2026-04-18T13:01:15.279Z</time></trkpt><trkpt lat="43.9750517" lon="11.677545"><ele>596.5</ele><time>2026-04-18T13:01:16.28Z</time></trkpt><trkpt lat="43.9749533" lon="11.67745"><ele>595.0</ele><time>2026-04-18T13:01:17.28Z</time></trkpt><trkpt lat="43.9748567" lon="11.6773983"><ele>595.0</ele><time>2026-04-18T13:01:18.283Z</time></trkpt><trkpt lat="43.97476" lon="11.6774067"><ele>595.0</ele><time>2026-04-18T13:01:19.282Z</time></trkpt><trkpt lat="43.9746633" lon="11.6774617"><ele>595.0</ele><time>2026-04-18T13:01:20.281Z</time></trkpt><trkpt lat="43.9745817" lon="11.677575"><ele>595.0</ele><time>2026-04-18T13:01:21.281Z</time></trkpt><trkpt lat="43.9745033" lon="11.6776583"><ele>595.0</ele><time>2026-04-18T13:01:22.282Z</time></trkpt><trkpt lat="43.9744167" lon="11.6776833"><ele>595.0</ele><time>2026-04-18T13:01:23.282Z</time></trkpt><trkpt lat="43.9743183" lon="11.6776683"><ele>595.0</ele><time>2026-04-18T13:01:24.282Z</time></trkpt><trkpt lat="43.974195" lon="11.6776133"><ele>595.0</ele><time>2026-04-18T13:01:25.28Z</time></trkpt><trkpt lat="43.9740567" lon="11.6775367"><ele>595.0</ele><time>2026-04-18T13:01:26.28Z</time></trkpt><trkpt lat="43.973925" lon="11.6774583"><ele>595.75</ele><time>2026-04-18T13:01:27.282Z</time></trkpt><trkpt lat="43.97382" lon="11.677355"><ele>596.5</ele><time>2026-04-18T13:01:28.281Z</time></trkpt><trkpt lat="43.97375" lon="11.677215"><ele>597.25</ele><time>2026-04-18T13:01:29.281Z</time></trkpt><trkpt lat="43.9736883" lon="11.67707"><ele>598.0</ele><time>2026-04-18T13:01:30.28Z</time></trkpt><trkpt lat="43.9736083" lon="11.67696"><ele>600.1999999999999</ele><time>2026-04-18T13:01:31.281Z</time></trkpt><trkpt lat="43.9735033" lon="11.676905"><ele>602.4</ele><time>2026-04-18T13:01:32.281Z</time></trkpt><trkpt lat="43.9733867" lon="11.6769117"><ele>604.5999999999999</ele><time>2026-04-18T13:01:33.281Z</time></trkpt><trkpt lat="43.97327" lon="11.6769317"><ele>606.8</ele><time>2026-04-18T13:01:34.28Z</time></trkpt><trkpt lat="43.9731683" lon="11.67691"><ele>609.0</ele><time>2026-04-18T13:01:35.281Z</time></trkpt><trkpt lat="43.9731017" lon="11.6768367"><ele>609.0</ele><time>2026-04-18T13:01:36.282Z</time></trkpt><trkpt lat="43.9730567" lon="11.676745"><ele>609.0</ele><time>2026-04-18T13:01:37.28Z</time></trkpt><trkpt lat="43.97304" lon="11.6765583"><ele>609.0</ele><time>2026-04-18T13:01:38.283Z</time></trkpt><trkpt lat="43.972995" lon="11.6763767"><ele>609.0</ele><time>2026-04-18T13:01:39.282Z</time></trkpt><trkpt lat="43.9729483" lon="11.6761917"><ele>614.25</ele><time>2026-04-18T13:01:40.28Z</time></trkpt><trkpt lat="43.9729283" lon="11.6760017"><ele>619.5</ele><time>2026-04-18T13:01:41.281Z</time></trkpt><trkpt lat="43.9729333" lon="11.67582"><ele>624.75</ele><time>2026-04-18T13:01:42.281Z</time></trkpt><trkpt lat="43.9729317" lon="11.6756617"><ele>630.0</ele><time>2026-04-18T13:01:43.281Z</time></trkpt><trkpt lat="43.972915" lon="11.6755317"><ele>630.0</ele><time>2026-04-18T13:01:44.28Z</time></trkpt><trkpt lat="43.97286" lon="11.6754517"><ele>630.0</ele><time>2026-04-18T13:01:45.28Z</time></trkpt><trkpt lat="43.9727783" lon="11.6754167"><ele>630.0</ele><time>2026-04-18T13:01:46.281Z</time></trkpt><trkpt lat="43.9726833" lon="11.67541"><ele>630.0</ele><time>2026-04-18T13:01:47.281Z</time></trkpt><trkpt lat="43.97253" lon="11.675475"><ele>630.0</ele><time>2026-04-18T13:01:48.28Z</time></trkpt><trkpt lat="43.9723783" lon="11.675565"><ele>624.25</ele><time>2026-04-18T13:01:49.28Z</time></trkpt><trkpt lat="43.9722533" lon="11.6756817"><ele>618.5</ele><time>2026-04-18T13:01:50.282Z</time></trkpt><trkpt lat="43.9721517" lon="11.6757933"><ele>612.75</ele><time>2026-04-18T13:01:51.281Z</time></trkpt><trkpt lat="43.9720583" lon="11.6758767"><ele>607.0</ele><time>2026-04-18T13:01:52.282Z</time></trkpt><trkpt lat="43.971955" lon="11.6759033"><ele>607.0</ele><time>2026-04-18T13:01:53.283Z</time></trkpt><trkpt lat="43.9718333" lon="11.675865"><ele>607.0</ele><time>2026-04-18T13:01:54.282Z</time></trkpt><trkpt lat="43.97169" lon="11.6758117"><ele>607.0</ele><time>2026-04-18T13:01:55.28Z</time></trkpt><trkpt lat="43.97154" lon="11.6757817"><ele>607.0</ele><time>2026-04-18T13:01:56.28Z</time></trkpt><trkpt lat="43.9713917" lon="11.675755"><ele>608.0</ele><time>2026-04-18T13:01:57.28Z</time></trkpt><trkpt lat="43.9712467" lon="11.675675"><ele>609.0</ele><time>2026-04-18T13:01:58.28Z</time></trkpt><trkpt lat="43.971105" lon="11.6755667"><ele>610.0</ele><time>2026-04-18T13:01:59.28Z</time></trkpt><trkpt lat="43.970975" lon="11.6754533"><ele>610.0</ele><time>2026-04-18T13:02:00.282Z</time></trkpt><trkpt lat="43.9708617" lon="11.6753083"><ele>610.0</ele><time>2026-04-18T13:02:01.282Z</time></trkpt><trkpt lat="43.9707883" lon="11.675135"><ele>610.0</ele><time>2026-04-18T13:02:02.282Z</time></trkpt><trkpt lat="43.9707417" lon="11.6749683"><ele>610.0</ele><time>2026-04-18T13:02:03.28Z</time></trkpt><trkpt lat="43.9706883" lon="11.6748233"><ele>611.6</ele><time>2026-04-18T13:02:04.279Z</time></trkpt><trkpt lat="43.97061" lon="11.6747317"><ele>613.2</ele><time>2026-04-18T13:02:05.281Z</time></trkpt><trkpt lat="43.9705117" lon="11.67471"><ele>614.8</ele><time>2026-04-18T13:02:06.28Z</time></trkpt><trkpt lat="43.9704017" lon="11.6747467"><ele>616.4</ele><time>2026-04-18T13:02:07.283Z</time></trkpt><trkpt lat="43.9702967" lon="11.674855"><ele>618.0</ele><time>2026-04-18T13:02:08.281Z</time></trkpt><trkpt lat="43.9701967" lon="11.6749817"><ele>618.0</ele><time>2026-04-18T13:02:09.282Z</time></trkpt><trkpt lat="43.9700867" lon="11.67509"><ele>618.0</ele><time>2026-04-18T13:02:10.28Z</time></trkpt><trkpt lat="43.9699617" lon="11.675155"><ele>618.0</ele><time>2026-04-18T13:02:11.281Z</time></trkpt><trkpt lat="43.9698233" lon="11.6751917"><ele>618.0</ele><time>2026-04-18T13:02:12.281Z</time></trkpt><trkpt lat="43.9696867" lon="11.6752133"><ele>618.0</ele><time>2026-04-18T13:02:13.281Z</time></trkpt><trkpt lat="43.9695567" lon="11.6752083"><ele>618.0</ele><time>2026-04-18T13:02:14.281Z</time></trkpt><trkpt lat="43.969435" lon="11.67515"><ele>618.0</ele><time>2026-04-18T13:02:15.28Z</time></trkpt><trkpt lat="43.969315" lon="11.675055"><ele>618.0</ele><time>2026-04-18T13:02:16.281Z</time></trkpt><trkpt lat="43.969185" lon="11.674945"><ele>618.0</ele><time>2026-04-18T13:02:17.281Z</time></trkpt><trkpt lat="43.96903" lon="11.674865"><ele>618.0</ele><time>2026-04-18T13:02:18.279Z</time></trkpt><trkpt lat="43.9688517" lon="11.6748317"><ele>618.0</ele><time>2026-04-18T13:02:19.282Z</time></trkpt><trkpt lat="43.96866" lon="11.67484"><ele>618.0</ele><time>2026-04-18T13:02:20.281Z</time></trkpt><trkpt lat="43.96847" lon="11.6748683"><ele>618.0</ele><time>2026-04-18T13:02:21.279Z</time></trkpt><trkpt lat="43.9683033" lon="11.674925"><ele>618.0</ele><time>2026-04-18T13:02:22.281Z</time></trkpt><trkpt lat="43.9681717" lon="11.6750033"><ele>616.75</ele><time>2026-04-18T13:02:23.28Z</time></trkpt><trkpt lat="43.968055" lon="11.6750683"><ele>615.5</ele><time>2026-04-18T13:02:24.28Z</time></trkpt><trkpt lat="43.9679417" lon="11.6750717"><ele>614.25</ele><time>2026-04-18T13:02:25.28Z</time></trkpt><trkpt lat="43.96783" lon="11.675025"><ele>613.0</ele><time>2026-04-18T13:02:26.282Z</time></trkpt><trkpt lat="43.967705" lon="11.6749183"><ele>613.0</ele><time>2026-04-18T13:02:27.28Z</time></trkpt><trkpt lat="43.9675733" lon="11.6747983"><ele>613.0</ele><time>2026-04-18T13:02:28.281Z</time></trkpt><trkpt lat="43.9674583" lon="11.6746883"><ele>613.0</ele><time>2026-04-18T13:02:29.283Z</time></trkpt><trkpt lat="43.9673683" lon="11.6745583"><ele>613.0</ele><time>2026-04-18T13:02:30.282Z</time></trkpt><trkpt lat="43.9673133" lon="11.6744033"><ele>616.0</ele><time>2026-04-18T13:02:31.28Z</time></trkpt><trkpt lat="43.9672867" lon="11.6742217"><ele>619.0</ele><time>2026-04-18T13:02:32.281Z</time></trkpt><trkpt lat="43.9672633" lon="11.6740433"><ele>622.0</ele><time>2026-04-18T13:02:33.283Z</time></trkpt><trkpt lat="43.9672233" lon="11.6738867"><ele>625.0</ele><time>2026-04-18T13:02:34.281Z</time></trkpt><trkpt lat="43.967155" lon="11.6737567"><ele>625.0</ele><time>2026-04-18T13:02:35.283Z</time></trkpt><trkpt lat="43.9670467" lon="11.67365"><ele>625.0</ele><time>2026-04-18T13:02:36.281Z</time></trkpt><trkpt lat="43.9669367" lon="11.67356"><ele>625.0</ele><time>2026-04-18T13:02:37.285Z</time></trkpt><trkpt lat="43.966845" lon="11.6734467"><ele>625.0</ele><time>2026-04-18T13:02:38.285Z</time></trkpt><trkpt lat="43.9667783" lon="11.6733033"><ele>628.5</ele><time>2026-04-18T13:02:39.282Z</time></trkpt><trkpt lat="43.9667317" lon="11.67313"><ele>632.0</ele><time>2026-04-18T13:02:40.28Z</time></trkpt><trkpt lat="43.966705" lon="11.672945"><ele>635.5</ele><time>2026-04-18T13:02:41.28Z</time></trkpt><trkpt lat="43.9667" lon="11.6727467"><ele>639.0</ele><time>2026-04-18T13:02:42.281Z</time></trkpt><trkpt lat="43.9667" lon="11.6725417"><ele>635.75</ele><time>2026-04-18T13:02:43.281Z</time></trkpt><trkpt lat="43.96669" lon="11.672345"><ele>632.5</ele><time>2026-04-18T13:02:44.281Z</time></trkpt><trkpt lat="43.96666" lon="11.672155"><ele>629.25</ele><time>2026-04-18T13:02:45.281Z</time></trkpt><trkpt lat="43.9666167" lon="11.67199"><ele>626.0</ele><time>2026-04-18T13:02:46.281Z</time></trkpt><trkpt lat="43.9665667" lon="11.6718367"><ele>626.0</ele><time>2026-04-18T13:02:47.281Z</time></trkpt><trkpt lat="43.966505" lon="11.6717017"><ele>626.0</ele><time>2026-04-18T13:02:48.281Z</time></trkpt><trkpt lat="43.9664383" lon="11.6715933"><ele>626.0</ele><time>2026-04-18T13:02:49.281Z</time></trkpt><trkpt lat="43.9663783" lon="11.6714967"><ele>626.0</ele><time>2026-04-18T13:02:50.281Z</time></trkpt><trkpt lat="43.9663217" lon="11.6713967"><ele>626.0</ele><time>2026-04-18T13:02:51.28Z</time></trkpt><trkpt lat="43.9662533" lon="11.6713117"><ele>626.0</ele><time>2026-04-18T13:02:52.281Z</time></trkpt><trkpt lat="43.9661883" lon="11.67123"><ele>626.0</ele><time>2026-04-18T13:02:53.281Z</time></trkpt><trkpt lat="43.9661283" lon="11.6711483"><ele>626.0</ele><time>2026-04-18T13:02:54.281Z</time></trkpt><trkpt lat="43.9660783" lon="11.6710717"><ele>626.0</ele><time>2026-04-18T13:02:55.281Z</time></trkpt><trkpt lat="43.9660033" lon="11.6709667"><ele>626.0</ele><time>2026-04-18T13:02:57.28Z</time></trkpt><trkpt lat="43.9659883" lon="11.6710617"><ele>626.0</ele><time>2026-04-18T13:03:02.282Z</time></trkpt><trkpt lat="43.9659767" lon="11.670925"><ele>624.4</ele><time>2026-04-18T13:03:31.281Z</time></trkpt><trkpt lat="43.9659083" lon="11.6708333"><ele>622.8</ele><time>2026-04-18T13:03:32.281Z</time></trkpt><trkpt lat="43.96585" lon="11.67074"><ele>621.1999999999999</ele><time>2026-04-18T13:03:33.282Z</time></trkpt><trkpt lat="43.9657933" lon="11.6706433"><ele>619.6</ele><time>2026-04-18T13:03:34.283Z</time></trkpt><trkpt lat="43.9657367" lon="11.6705267"><ele>618.0</ele><time>2026-04-18T13:03:35.281Z</time></trkpt><trkpt lat="43.9656917" lon="11.670395"><ele>621.75</ele><time>2026-04-18T13:03:36.28Z</time></trkpt><trkpt lat="43.9656567" lon="11.6702367"><ele>625.5</ele><time>2026-04-18T13:03:37.279Z</time></trkpt><trkpt lat="43.9656233" lon="11.6700533"><ele>629.25</ele><time>2026-04-18T13:03:38.282Z</time></trkpt><trkpt lat="43.9655983" lon="11.66984"><ele>633.0</ele><time>2026-04-18T13:03:39.281Z</time></trkpt><trkpt lat="43.9655717" lon="11.669645"><ele>633.0</ele><time>2026-04-18T13:03:40.28Z</time></trkpt><trkpt lat="43.9655367" lon="11.6695"><ele>633.0</ele><time>2026-04-18T13:03:41.28Z</time></trkpt><trkpt lat="43.9655" lon="11.6693833"><ele>633.0</ele><time>2026-04-18T13:03:42.281Z</time></trkpt><trkpt lat="43.9654567" lon="11.6692817"><ele>633.0</ele><time>2026-04-18T13:03:43.28Z</time></trkpt><trkpt lat="43.96539" lon="11.669245"><ele>633.0</ele><time>2026-04-18T13:03:44.281Z</time></trkpt><trkpt lat="43.9652783" lon="11.669455"><ele>633.0</ele><time>2026-04-18T13:03:45.279Z</time></trkpt><trkpt lat="43.965165" lon="11.66962"><ele>633.0</ele><time>2026-04-18T13:03:46.279Z</time></trkpt><trkpt lat="43.9650183" lon="11.66981"><ele>633.0</ele><time>2026-04-18T13:03:47.28Z</time></trkpt><trkpt lat="43.9648633" lon="11.669955"><ele>629.0</ele><time>2026-04-18T13:03:48.28Z</time></trkpt><trkpt lat="43.9647" lon="11.6700333"><ele>625.0</ele><time>2026-04-18T13:03:49.281Z</time></trkpt><trkpt lat="43.964525" lon="11.6700683"><ele>621.0</ele><time>2026-04-18T13:03:50.28Z</time></trkpt><trkpt lat="43.9643133" lon="11.670085"><ele>623.0</ele><time>2026-04-18T13:03:51.28Z</time></trkpt><trkpt lat="43.96409" lon="11.6701167"><ele>625.0</ele><time>2026-04-18T13:03:52.281Z</time></trkpt><trkpt lat="43.9638733" lon="11.6701933"><ele>627.0</ele><time>2026-04-18T13:03:53.28Z</time></trkpt><trkpt lat="43.9636683" lon="11.6702983"><ele>627.0</ele><time>2026-04-18T13:03:54.28Z</time></trkpt><trkpt lat="43.9634883" lon="11.6703933"><ele>627.0</ele><time>2026-04-18T13:03:55.28Z</time></trkpt><trkpt lat="43.963335" lon="11.67046"><ele>627.0</ele><time>2026-04-18T13:03:56.28Z</time></trkpt><trkpt lat="43.9631883" lon="11.67049"><ele>627.5</ele><time>2026-04-18T13:03:57.28Z</time></trkpt><trkpt lat="43.9630583" lon="11.6704733"><ele>628.0</ele><time>2026-04-18T13:03:58.279Z</time></trkpt><trkpt lat="43.9629483" lon="11.6704217"><ele>628.5</ele><time>2026-04-18T13:03:59.281Z</time></trkpt><trkpt lat="43.9628317" lon="11.670305"><ele>629.0</ele><time>2026-04-18T13:04:00.28Z</time></trkpt><trkpt lat="43.9627" lon="11.67013"><ele>636.3333333333333</ele><time>2026-04-18T13:04:01.279Z</time></trkpt><trkpt lat="43.9625333" lon="11.6699633"><ele>643.6666666666666</ele><time>2026-04-18T13:04:02.279Z</time></trkpt><trkpt lat="43.9623383" lon="11.669805"><ele>651.0</ele><time>2026-04-18T13:04:03.28Z</time></trkpt><trkpt lat="43.96215" lon="11.6696617"><ele>651.0</ele><time>2026-04-18T13:04:04.281Z</time></trkpt><trkpt lat="43.9619683" lon="11.6695433"><ele>651.0</ele><time>2026-04-18T13:04:05.28Z</time></trkpt><trkpt lat="43.961775" lon="11.6694567"><ele>651.0</ele><time>2026-04-18T13:04:06.279Z</time></trkpt><trkpt lat="43.9615733" lon="11.669405"><ele>660.0</ele><time>2026-04-18T13:04:07.279Z</time></trkpt><trkpt lat="43.9613817" lon="11.6693983"><ele>669.0</ele><time>2026-04-18T13:04:08.281Z</time></trkpt><trkpt lat="43.96121" lon="11.6693817"><ele>678.0</ele><time>2026-04-18T13:04:09.28Z</time></trkpt><trkpt lat="43.9610533" lon="11.669345"><ele>678.0</ele><time>2026-04-18T13:04:10.281Z</time></trkpt><trkpt lat="43.9609133" lon="11.6692833"><ele>678.0</ele><time>2026-04-18T13:04:11.279Z</time></trkpt><trkpt lat="43.9607917" lon="11.6691917"><ele>678.0</ele><time>2026-04-18T13:04:12.28Z</time></trkpt><trkpt lat="43.96068" lon="11.6690933"><ele>678.0</ele><time>2026-04-18T13:04:13.279Z</time></trkpt><trkpt lat="43.9605583" lon="11.6690317"><ele>675.6666666666666</ele><time>2026-04-18T13:04:14.279Z</time></trkpt><trkpt lat="43.9604317" lon="11.6690183"><ele>673.3333333333333</ele><time>2026-04-18T13:04:15.28Z</time></trkpt><trkpt lat="43.96027" lon="11.6690033"><ele>671.0</ele><time>2026-04-18T13:04:16.28Z</time></trkpt><trkpt lat="43.9600883" lon="11.66896"><ele>669.0</ele><time>2026-04-18T13:04:17.279Z</time></trkpt><trkpt lat="43.9598967" lon="11.6688883"><ele>667.0</ele><time>2026-04-18T13:04:18.279Z</time></trkpt><trkpt lat="43.9596983" lon="11.668805"><ele>665.0</ele><time>2026-04-18T13:04:19.28Z</time></trkpt><trkpt lat="43.95951" lon="11.6687117"><ele>672.0</ele><time>2026-04-18T13:04:20.279Z</time></trkpt><trkpt lat="43.9593333" lon="11.6685783"><ele>679.0</ele><time>2026-04-18T13:04:21.279Z</time></trkpt><trkpt lat="43.9591833" lon="11.6684383"><ele>686.0</ele><time>2026-04-18T13:04:22.279Z</time></trkpt><trkpt lat="43.9590483" lon="11.6683467"><ele>686.0</ele><time>2026-04-18T13:04:23.278Z</time></trkpt><trkpt lat="43.9589167" lon="11.6682717"><ele>686.0</ele><time>2026-04-18T13:04:24.279Z</time></trkpt><trkpt lat="43.9587867" lon="11.6682383"><ele>686.0</ele><time>2026-04-18T13:04:25.283Z</time></trkpt><trkpt lat="43.9586483" lon="11.6682567"><ele>686.0</ele><time>2026-04-18T13:04:26.28Z</time></trkpt><trkpt lat="43.95853" lon="11.6682783"><ele>686.0</ele><time>2026-04-18T13:04:27.28Z</time></trkpt><trkpt lat="43.9584083" lon="11.6682683"><ele>686.0</ele><time>2026-04-18T13:04:28.279Z</time></trkpt><trkpt lat="43.9582933" lon="11.6682117"><ele>686.0</ele><time>2026-04-18T13:04:29.28Z</time></trkpt><trkpt lat="43.95817" lon="11.66809"><ele>686.0</ele><time>2026-04-18T13:04:30.28Z</time></trkpt><trkpt lat="43.9580333" lon="11.6679233"><ele>684.3333333333333</ele><time>2026-04-18T13:04:31.28Z</time></trkpt><trkpt lat="43.95787" lon="11.6677867"><ele>682.6666666666666</ele><time>2026-04-18T13:04:32.28Z</time></trkpt><trkpt lat="43.95767" lon="11.66768"><ele>681.0</ele><time>2026-04-18T13:04:33.28Z</time></trkpt><trkpt lat="43.957465" lon="11.6676"><ele>687.0</ele><time>2026-04-18T13:04:34.279Z</time></trkpt><trkpt lat="43.9572783" lon="11.6675417"><ele>693.0</ele><time>2026-04-18T13:04:35.282Z</time></trkpt><trkpt lat="43.95711" lon="11.6675117"><ele>699.0</ele><time>2026-04-18T13:04:36.281Z</time></trkpt><trkpt lat="43.956945" lon="11.667505"><ele>699.0</ele><time>2026-04-18T13:04:37.279Z</time></trkpt><trkpt lat="43.95679" lon="11.667545"><ele>699.0</ele><time>2026-04-18T13:04:38.281Z</time></trkpt><trkpt lat="43.9566533" lon="11.667545"><ele>699.0</ele><time>2026-04-18T13:04:39.282Z</time></trkpt><trkpt lat="43.95652" lon="11.667525"><ele>699.0</ele><time>2026-04-18T13:04:40.279Z</time></trkpt><trkpt lat="43.9564233" lon="11.6674267"><ele>698.4000000000001</ele><time>2026-04-18T13:04:41.281Z</time></trkpt><trkpt lat="43.9563567" lon="11.6673017"><ele>697.8</ele><time>2026-04-18T13:04:42.279Z</time></trkpt><trkpt lat="43.956315" lon="11.66717"><ele>697.2</ele><time>2026-04-18T13:04:43.281Z</time></trkpt><trkpt lat="43.956285" lon="11.6670483"><ele>696.5999999999999</ele><time>2026-04-18T13:04:44.279Z</time></trkpt><trkpt lat="43.9562483" lon="11.6669433"><ele>696.0</ele><time>2026-04-18T13:04:45.28Z</time></trkpt><trkpt lat="43.9562067" lon="11.666865"><ele>696.0</ele><time>2026-04-18T13:04:46.28Z</time></trkpt><trkpt lat="43.9561017" lon="11.6668"><ele>696.0</ele><time>2026-04-18T13:04:48.279Z</time></trkpt><trkpt lat="43.9559833" lon="11.6669833"><ele>696.0</ele><time>2026-04-18T13:04:49.28Z</time></trkpt><trkpt lat="43.9558233" lon="11.6672467"><ele>696.75</ele><time>2026-04-18T13:04:50.28Z</time></trkpt><trkpt lat="43.9557017" lon="11.6674"><ele>697.5</ele><time>2026-04-18T13:04:51.28Z</time></trkpt><trkpt lat="43.955575" lon="11.6675033"><ele>698.25</ele><time>2026-04-18T13:04:52.28Z</time></trkpt><trkpt lat="43.9554433" lon="11.667535"><ele>699.0</ele><time>2026-04-18T13:04:53.28Z</time></trkpt><trkpt lat="43.955315" lon="11.6675167"><ele>699.0</ele><time>2026-04-18T13:04:54.28Z</time></trkpt><trkpt lat="43.95518" lon="11.6674433"><ele>699.0</ele><time>2026-04-18T13:04:55.28Z</time></trkpt><trkpt lat="43.9550317" lon="11.6673467"><ele>699.0</ele><time>2026-04-18T13:04:56.278Z</time></trkpt><trkpt lat="43.95487" lon="11.6672617"><ele>701.3333333333334</ele><time>2026-04-18T13:04:57.28Z</time></trkpt><trkpt lat="43.9547" lon="11.66722"><ele>703.6666666666667</ele><time>2026-04-18T13:04:58.28Z</time></trkpt><trkpt lat="43.9545317" lon="11.667185"><ele>706.0</ele><time>2026-04-18T13:04:59.28Z</time></trkpt><trkpt lat="43.9543633" lon="11.66721"><ele>706.0</ele><time>2026-04-18T13:05:00.279Z</time></trkpt><trkpt lat="43.9542067" lon="11.6672583"><ele>706.0</ele><time>2026-04-18T13:05:01.281Z</time></trkpt><trkpt lat="43.9540533" lon="11.6672733"><ele>706.0</ele><time>2026-04-18T13:05:02.28Z</time></trkpt><trkpt lat="43.9538983" lon="11.6672533"><ele>706.75</ele><time>2026-04-18T13:05:03.279Z</time></trkpt><trkpt lat="43.953745" lon="11.667195"><ele>707.5</ele><time>2026-04-18T13:05:04.281Z</time></trkpt><trkpt lat="43.9536067" lon="11.6671333"><ele>708.25</ele><time>2026-04-18T13:05:05.28Z</time></trkpt><trkpt lat="43.9534917" lon="11.66706"><ele>709.0</ele><time>2026-04-18T13:05:06.28Z</time></trkpt><trkpt lat="43.9534067" lon="11.66695"><ele>711.6666666666667</ele><time>2026-04-18T13:05:07.281Z</time></trkpt><trkpt lat="43.9533483" lon="11.66678"><ele>714.3333333333334</ele><time>2026-04-18T13:05:08.281Z</time></trkpt><trkpt lat="43.9532983" lon="11.6665633"><ele>717.0</ele><time>2026-04-18T13:05:09.281Z</time></trkpt><trkpt lat="43.95326" lon="11.66635"><ele>717.0</ele><time>2026-04-18T13:05:10.28Z</time></trkpt><trkpt lat="43.9532467" lon="11.6661483"><ele>717.0</ele><time>2026-04-18T13:05:11.279Z</time></trkpt><trkpt lat="43.9532817" lon="11.665965"><ele>717.0</ele><time>2026-04-18T13:05:12.28Z</time></trkpt><trkpt lat="43.9533533" lon="11.6657983"><ele>717.0</ele><time>2026-04-18T13:05:13.278Z</time></trkpt><trkpt lat="43.9534583" lon="11.665625"><ele>730.0</ele><time>2026-04-18T13:05:14.281Z</time></trkpt><trkpt lat="43.9535933" lon="11.6654517"><ele>743.0</ele><time>2026-04-18T13:05:15.28Z</time></trkpt><trkpt lat="43.9537167" lon="11.665295"><ele>756.0</ele><time>2026-04-18T13:05:16.28Z</time></trkpt><trkpt lat="43.9538017" lon="11.6651467"><ele>756.0</ele><time>2026-04-18T13:05:17.279Z</time></trkpt><trkpt lat="43.953855" lon="11.6650117"><ele>756.0</ele><time>2026-04-18T13:05:18.279Z</time></trkpt><trkpt lat="43.9538817" lon="11.66489"><ele>756.0</ele><time>2026-04-18T13:05:19.28Z</time></trkpt><trkpt lat="43.9538333" lon="11.6647883"><ele>756.0</ele><time>2026-04-18T13:05:21.279Z</time></trkpt><trkpt lat="43.9537117" lon="11.6647783"><ele>756.0</ele><time>2026-04-18T13:05:23.28Z</time></trkpt><trkpt lat="43.9536017" lon="11.6648417"><ele>756.0</ele><time>2026-04-18T13:05:24.28Z</time></trkpt><trkpt lat="43.953485" lon="11.6649433"><ele>756.0</ele><time>2026-04-18T13:05:25.281Z</time></trkpt><trkpt lat="43.9532767" lon="11.6650633"><ele>756.0</ele><time>2026-04-18T13:05:26.28Z</time></trkpt><trkpt lat="43.9530567" lon="11.6651833"><ele>747.5</ele><time>2026-04-18T13:05:27.278Z</time></trkpt><trkpt lat="43.9528233" lon="11.6651667"><ele>739.0</ele><time>2026-04-18T13:05:28.279Z</time></trkpt><trkpt lat="43.952575" lon="11.6650383"><ele>734.3333333333334</ele><time>2026-04-18T13:05:29.28Z</time></trkpt><trkpt lat="43.95242" lon="11.6648833"><ele>729.6666666666666</ele><time>2026-04-18T13:05:30.28Z</time></trkpt><trkpt lat="43.95231" lon="11.6646667"><ele>725.0</ele><time>2026-04-18T13:05:31.281Z</time></trkpt><trkpt lat="43.9522333" lon="11.664465"><ele>731.3333333333333</ele><time>2026-04-18T13:05:32.279Z</time></trkpt><trkpt lat="43.9522" lon="11.6642483"><ele>737.6666666666666</ele><time>2026-04-18T13:05:33.279Z</time></trkpt><trkpt lat="43.95221" lon="11.6639917"><ele>744.0</ele><time>2026-04-18T13:05:34.279Z</time></trkpt><trkpt lat="43.95227" lon="11.6637667"><ele>746.0</ele><time>2026-04-18T13:05:35.278Z</time></trkpt><trkpt lat="43.9523567" lon="11.6635467"><ele>748.0</ele><time>2026-04-18T13:05:36.28Z</time></trkpt><trkpt lat="43.9524383" lon="11.6633517"><ele>750.0</ele><time>2026-04-18T13:05:37.279Z</time></trkpt><trkpt lat="43.952505" lon="11.6631683"><ele>754.0</ele><time>2026-04-18T13:05:38.282Z</time></trkpt><trkpt lat="43.9525517" lon="11.6630117"><ele>758.0</ele><time>2026-04-18T13:05:39.28Z</time></trkpt><trkpt lat="43.9525917" lon="11.66288"><ele>762.0</ele><time>2026-04-18T13:05:40.281Z</time></trkpt><trkpt lat="43.9525983" lon="11.6627867"><ele>766.0</ele><time>2026-04-18T13:05:41.282Z</time></trkpt><trkpt lat="43.95261" lon="11.662685"><ele>770.0</ele><time>2026-04-18T13:05:42.28Z</time></trkpt><trkpt lat="43.9524983" lon="11.662705"><ele>770.0</ele><time>2026-04-18T13:05:46.282Z</time></trkpt><trkpt lat="43.95239" lon="11.662655"><ele>770.0</ele><time>2026-04-18T13:05:47.28Z</time></trkpt><trkpt lat="43.95228" lon="11.662665"><ele>770.0</ele><time>2026-04-18T13:05:48.281Z</time></trkpt><trkpt lat="43.9521683" lon="11.6626467"><ele>770.0</ele><time>2026-04-18T13:05:49.28Z</time></trkpt><trkpt lat="43.952005" lon="11.66264"><ele>770.0</ele><time>2026-04-18T13:05:50.281Z</time></trkpt><trkpt lat="43.9517267" lon="11.662595"><ele>770.0</ele><time>2026-04-18T13:05:51.28Z</time></trkpt><trkpt lat="43.9514083" lon="11.6626483"><ele>768.0</ele><time>2026-04-18T13:05:52.28Z</time></trkpt><trkpt lat="43.9511467" lon="11.662555"><ele>766.0</ele><time>2026-04-18T13:05:53.281Z</time></trkpt><trkpt lat="43.950975" lon="11.662535"><ele>764.0</ele><time>2026-04-18T13:05:54.281Z</time></trkpt><trkpt lat="43.9507917" lon="11.66243"><ele>762.5</ele><time>2026-04-18T13:05:55.28Z</time></trkpt><trkpt lat="43.9506333" lon="11.6623317"><ele>761.0</ele><time>2026-04-18T13:05:56.28Z</time></trkpt><trkpt lat="43.9505483" lon="11.6621367"><ele>759.5</ele><time>2026-04-18T13:05:57.28Z</time></trkpt><trkpt lat="43.95048" lon="11.6620717"><ele>758.0</ele><time>2026-04-18T13:05:58.279Z</time></trkpt><trkpt lat="43.9504483" lon="11.66192"><ele>758.0</ele><time>2026-04-18T13:05:59.281Z</time></trkpt><trkpt lat="43.9504767" lon="11.6616733"><ele>758.0</ele><time>2026-04-18T13:06:00.28Z</time></trkpt><trkpt lat="43.95056" lon="11.6614117"><ele>758.0</ele><time>2026-04-18T13:06:01.281Z</time></trkpt><trkpt lat="43.950635" lon="11.6612"><ele>757.75</ele><time>2026-04-18T13:06:02.282Z</time></trkpt><trkpt lat="43.9506817" lon="11.6610117"><ele>757.5</ele><time>2026-04-18T13:06:03.281Z</time></trkpt><trkpt lat="43.9506933" lon="11.6608417"><ele>757.25</ele><time>2026-04-18T13:06:04.282Z</time></trkpt><trkpt lat="43.9506783" lon="11.6607"><ele>757.0</ele><time>2026-04-18T13:06:05.281Z</time></trkpt><trkpt lat="43.9506233" lon="11.66059"><ele>757.0</ele><time>2026-04-18T13:06:06.281Z</time></trkpt><trkpt lat="43.9505117" lon="11.6604967"><ele>757.0</ele><time>2026-04-18T13:06:07.28Z</time></trkpt><trkpt lat="43.9503367" lon="11.6604133"><ele>757.0</ele><time>2026-04-18T13:06:08.28Z</time></trkpt><trkpt lat="43.95018" lon="11.6603333"><ele>751.3333333333334</ele><time>2026-04-18T13:06:09.279Z</time></trkpt><trkpt lat="43.950035" lon="11.6602867"><ele>745.6666666666666</ele><time>2026-04-18T13:06:10.279Z</time></trkpt><trkpt lat="43.9498633" lon="11.6603167"><ele>740.0</ele><time>2026-04-18T13:06:11.28Z</time></trkpt><trkpt lat="43.9496733" lon="11.660335"><ele>740.0</ele><time>2026-04-18T13:06:12.279Z</time></trkpt><trkpt lat="43.94949" lon="11.660375"><ele>740.0</ele><time>2026-04-18T13:06:13.279Z</time></trkpt><trkpt lat="43.9493183" lon="11.6604517"><ele>740.0</ele><time>2026-04-18T13:06:14.283Z</time></trkpt><trkpt lat="43.949145" lon="11.6605167"><ele>739.3333333333333</ele><time>2026-04-18T13:06:15.282Z</time></trkpt><trkpt lat="43.94896" lon="11.660545"><ele>738.6666666666666</ele><time>2026-04-18T13:06:16.28Z</time></trkpt><trkpt lat="43.9487817" lon="11.6605417"><ele>738.0</ele><time>2026-04-18T13:06:17.279Z</time></trkpt><trkpt lat="43.94864" lon="11.6604917"><ele>738.0</ele><time>2026-04-18T13:06:18.28Z</time></trkpt><trkpt lat="43.9485317" lon="11.6603817"><ele>738.0</ele><time>2026-04-18T13:06:19.28Z</time></trkpt><trkpt lat="43.9484383" lon="11.660225"><ele>738.0</ele><time>2026-04-18T13:06:20.281Z</time></trkpt><trkpt lat="43.9483567" lon="11.66005"><ele>738.0</ele><time>2026-04-18T13:06:21.28Z</time></trkpt><trkpt lat="43.948295" lon="11.6598633"><ele>741.0</ele><time>2026-04-18T13:06:22.281Z</time></trkpt><trkpt lat="43.9482717" lon="11.6596683"><ele>744.0</ele><time>2026-04-18T13:06:23.279Z</time></trkpt><trkpt lat="43.9482733" lon="11.65948"><ele>747.0</ele><time>2026-04-18T13:06:24.28Z</time></trkpt><trkpt lat="43.9482717" lon="11.6593067"><ele>750.0</ele><time>2026-04-18T13:06:25.28Z</time></trkpt><trkpt lat="43.94823" lon="11.6591883"><ele>752.75</ele><time>2026-04-18T13:06:26.279Z</time></trkpt><trkpt lat="43.948135" lon="11.6591383"><ele>755.5</ele><time>2026-04-18T13:06:27.279Z</time></trkpt><trkpt lat="43.948035" lon="11.6591183"><ele>758.25</ele><time>2026-04-18T13:06:28.279Z</time></trkpt><trkpt lat="43.9478917" lon="11.6592417"><ele>761.0</ele><time>2026-04-18T13:06:29.28Z</time></trkpt><trkpt lat="43.9477867" lon="11.6593767"><ele>758.25</ele><time>2026-04-18T13:06:30.28Z</time></trkpt><trkpt lat="43.94768" lon="11.659495"><ele>755.5</ele><time>2026-04-18T13:06:31.281Z</time></trkpt><trkpt lat="43.9475667" lon="11.65956"><ele>752.75</ele><time>2026-04-18T13:06:32.28Z</time></trkpt><trkpt lat="43.9474317" lon="11.6595667"><ele>750.0</ele><time>2026-04-18T13:06:33.279Z</time></trkpt><trkpt lat="43.94728" lon="11.6595233"><ele>755.0</ele><time>2026-04-18T13:06:34.281Z</time></trkpt><trkpt lat="43.947115" lon="11.6594483"><ele>760.0</ele><time>2026-04-18T13:06:35.281Z</time></trkpt><trkpt lat="43.9469333" lon="11.6593933"><ele>765.0</ele><time>2026-04-18T13:06:36.281Z</time></trkpt><trkpt lat="43.9467617" lon="11.6593817"><ele>764.25</ele><time>2026-04-18T13:06:37.28Z</time></trkpt><trkpt lat="43.946605" lon="11.65938"><ele>763.5</ele><time>2026-04-18T13:06:38.281Z</time></trkpt><trkpt lat="43.9464617" lon="11.6593533"><ele>762.75</ele><time>2026-04-18T13:06:39.279Z</time></trkpt><trkpt lat="43.9463417" lon="11.6592783"><ele>762.0</ele><time>2026-04-18T13:06:40.28Z</time></trkpt><trkpt lat="43.946235" lon="11.6591417"><ele>762.0</ele><time>2026-04-18T13:06:41.28Z</time></trkpt><trkpt lat="43.9461167" lon="11.6589567"><ele>762.0</ele><time>2026-04-18T13:06:42.28Z</time></trkpt><trkpt lat="43.945985" lon="11.6587517"><ele>762.0</ele><time>2026-04-18T13:06:43.281Z</time></trkpt><trkpt lat="43.9458367" lon="11.658575"><ele>762.6666666666666</ele><time>2026-04-18T13:06:44.281Z</time></trkpt><trkpt lat="43.9456783" lon="11.6583883"><ele>763.3333333333333</ele><time>2026-04-18T13:06:45.28Z</time></trkpt><trkpt lat="43.94551" lon="11.6582083"><ele>764.0</ele><time>2026-04-18T13:06:46.28Z</time></trkpt><trkpt lat="43.9453417" lon="11.6580433"><ele>764.0</ele><time>2026-04-18T13:06:47.281Z</time></trkpt><trkpt lat="43.9451883" lon="11.65789"><ele>764.0</ele><time>2026-04-18T13:06:48.281Z</time></trkpt><trkpt lat="43.94506" lon="11.6577567"><ele>764.0</ele><time>2026-04-18T13:06:49.281Z</time></trkpt><trkpt lat="43.94494" lon="11.6576867"><ele>764.5</ele><time>2026-04-18T13:06:50.28Z</time></trkpt><trkpt lat="43.9448317" lon="11.65767"><ele>765.0</ele><time>2026-04-18T13:06:51.28Z</time></trkpt><trkpt lat="43.9447317" lon="11.657705"><ele>765.5</ele><time>2026-04-18T13:06:52.28Z</time></trkpt><trkpt lat="43.944635" lon="11.6578067"><ele>766.0</ele><time>2026-04-18T13:06:53.28Z</time></trkpt><trkpt lat="43.9445517" lon="11.6579483"><ele>764.5</ele><time>2026-04-18T13:06:54.283Z</time></trkpt><trkpt lat="43.944495" lon="11.6581017"><ele>763.0</ele><time>2026-04-18T13:06:55.279Z</time></trkpt><trkpt lat="43.94447" lon="11.6582717"><ele>761.5</ele><time>2026-04-18T13:06:56.28Z</time></trkpt><trkpt lat="43.944485" lon="11.6584483"><ele>760.0</ele><time>2026-04-18T13:06:57.28Z</time></trkpt><trkpt lat="43.9445317" lon="11.6586133"><ele>763.3333333333334</ele><time>2026-04-18T13:06:58.282Z</time></trkpt><trkpt lat="43.944675" lon="11.6587617"><ele>766.6666666666667</ele><time>2026-04-18T13:06:59.281Z</time></trkpt><trkpt lat="43.9448183" lon="11.6588717"><ele>770.0</ele><time>2026-04-18T13:07:00.28Z</time></trkpt><trkpt lat="43.94495" lon="11.6589517"><ele>770.0000000000001</ele><time>2026-04-18T13:07:01.28Z</time></trkpt><trkpt lat="43.9450567" lon="11.6590383"><ele>770.0</ele><time>2026-04-18T13:07:02.281Z</time></trkpt><trkpt lat="43.945125" lon="11.6591333"><ele>770.0</ele><time>2026-04-18T13:07:03.28Z</time></trkpt><trkpt lat="43.94515" lon="11.65922"><ele>770.0</ele><time>2026-04-18T13:07:04.28Z</time></trkpt><trkpt lat="43.94509" lon="11.6593133"><ele>770.0000000000001</ele><time>2026-04-18T13:07:06.28Z</time></trkpt><trkpt lat="43.9450233" lon="11.6592767"><ele>770.0</ele><time>2026-04-18T13:07:07.281Z</time></trkpt><trkpt lat="43.9449433" lon="11.659195"><ele>770.0</ele><time>2026-04-18T13:07:08.28Z</time></trkpt><trkpt lat="43.94484" lon="11.6591217"><ele>770.0</ele><time>2026-04-18T13:07:09.28Z</time></trkpt><trkpt lat="43.944695" lon="11.6590483"><ele>770.0</ele><time>2026-04-18T13:07:10.28Z</time></trkpt><trkpt lat="43.9445467" lon="11.6589283"><ele>770.0</ele><time>2026-04-18T13:07:11.28Z</time></trkpt><trkpt lat="43.9444083" lon="11.65879"><ele>770.0</ele><time>2026-04-18T13:07:12.28Z</time></trkpt><trkpt lat="43.9442867" lon="11.6586367"><ele>770.0</ele><time>2026-04-18T13:07:13.28Z</time></trkpt><trkpt lat="43.9441783" lon="11.6584617"><ele>770.0</ele><time>2026-04-18T13:07:14.281Z</time></trkpt><trkpt lat="43.9440633" lon="11.6582933"><ele>772.6666666666667</ele><time>2026-04-18T13:07:15.282Z</time></trkpt><trkpt lat="43.94393" lon="11.6581467"><ele>775.3333333333333</ele><time>2026-04-18T13:07:16.281Z</time></trkpt><trkpt lat="43.9437883" lon="11.6580167"><ele>778.0</ele><time>2026-04-18T13:07:17.281Z</time></trkpt><trkpt lat="43.943655" lon="11.65792"><ele>778.0</ele><time>2026-04-18T13:07:18.28Z</time></trkpt><trkpt lat="43.9435367" lon="11.6578467"><ele>778.0</ele><time>2026-04-18T13:07:19.28Z</time></trkpt><trkpt lat="43.9434217" lon="11.6578433"><ele>778.0</ele><time>2026-04-18T13:07:20.282Z</time></trkpt><trkpt lat="43.9433183" lon="11.6578767"><ele>778.0</ele><time>2026-04-18T13:07:21.281Z</time></trkpt><trkpt lat="43.9432367" lon="11.6579483"><ele>778.0</ele><time>2026-04-18T13:07:22.28Z</time></trkpt><trkpt lat="43.9431933" lon="11.65803"><ele>778.0</ele><time>2026-04-18T13:07:23.281Z</time></trkpt><trkpt lat="43.9432183" lon="11.6581633"><ele>778.0</ele><time>2026-04-18T13:07:24.28Z</time></trkpt><trkpt lat="43.943255" lon="11.6582833"><ele>778.0</ele><time>2026-04-18T13:07:25.28Z</time></trkpt><trkpt lat="43.9433133" lon="11.6584067"><ele>778.0</ele><time>2026-04-18T13:07:26.28Z</time></trkpt><trkpt lat="43.94346" lon="11.6584567"><ele>778.0</ele><time>2026-04-18T13:07:27.281Z</time></trkpt><trkpt lat="43.94363" lon="11.6584867"><ele>778.0</ele><time>2026-04-18T13:07:28.28Z</time></trkpt><trkpt lat="43.9437783" lon="11.6585417"><ele>778.0</ele><time>2026-04-18T13:07:29.281Z</time></trkpt><trkpt lat="43.9438967" lon="11.6586433"><ele>781.75</ele><time>2026-04-18T13:07:30.28Z</time></trkpt><trkpt lat="43.9439783" lon="11.6587867"><ele>785.5</ele><time>2026-04-18T13:07:31.28Z</time></trkpt><trkpt lat="43.9440217" lon="11.6589617"><ele>789.25</ele><time>2026-04-18T13:07:32.28Z</time></trkpt><trkpt lat="43.9440783" lon="11.659135"><ele>793.0</ele><time>2026-04-18T13:07:33.28Z</time></trkpt><trkpt lat="43.9441633" lon="11.6592967"><ele>791.2</ele><time>2026-04-18T13:07:34.281Z</time></trkpt><trkpt lat="43.9442683" lon="11.6594267"><ele>789.4</ele><time>2026-04-18T13:07:35.281Z</time></trkpt><trkpt lat="43.9443617" lon="11.6595283"><ele>787.6</ele><time>2026-04-18T13:07:36.281Z</time></trkpt><trkpt lat="43.94442" lon="11.6596233"><ele>785.8000000000001</ele><time>2026-04-18T13:07:37.281Z</time></trkpt><trkpt lat="43.944435" lon="11.6597117"><ele>784.0</ele><time>2026-04-18T13:07:38.28Z</time></trkpt><trkpt lat="43.9443267" lon="11.6597833"><ele>784.0</ele><time>2026-04-18T13:07:40.279Z</time></trkpt><trkpt lat="43.9442467" lon="11.659775"><ele>784.0</ele><time>2026-04-18T13:07:41.281Z</time></trkpt><trkpt lat="43.9440917" lon="11.6597217"><ele>784.0</ele><time>2026-04-18T13:07:42.281Z</time></trkpt><trkpt lat="43.94393" lon="11.659655"><ele>784.0</ele><time>2026-04-18T13:07:43.28Z</time></trkpt><trkpt lat="43.9437817" lon="11.6595667"><ele>787.0</ele><time>2026-04-18T13:07:44.28Z</time></trkpt><trkpt lat="43.9436433" lon="11.659435"><ele>790.0</ele><time>2026-04-18T13:07:45.281Z</time></trkpt><trkpt lat="43.94352" lon="11.65926"><ele>793.0</ele><time>2026-04-18T13:07:46.28Z</time></trkpt><trkpt lat="43.9434333" lon="11.6590517"><ele>800.6666666666666</ele><time>2026-04-18T13:07:47.282Z</time></trkpt><trkpt lat="43.9433467" lon="11.65886"><ele>808.3333333333333</ele><time>2026-04-18T13:07:48.281Z</time></trkpt><trkpt lat="43.9432367" lon="11.65871"><ele>816.0</ele><time>2026-04-18T13:07:49.28Z</time></trkpt><trkpt lat="43.943105" lon="11.65862"><ele>816.0</ele><time>2026-04-18T13:07:50.28Z</time></trkpt><trkpt lat="43.942975" lon="11.6585667"><ele>816.0</ele><time>2026-04-18T13:07:51.28Z</time></trkpt><trkpt lat="43.94283" lon="11.6585667"><ele>816.0</ele><time>2026-04-18T13:07:52.282Z</time></trkpt><trkpt lat="43.942665" lon="11.6586467"><ele>817.0</ele><time>2026-04-18T13:07:53.281Z</time></trkpt><trkpt lat="43.942495" lon="11.65874"><ele>818.0</ele><time>2026-04-18T13:07:54.281Z</time></trkpt><trkpt lat="43.94234" lon="11.65883"><ele>819.0</ele><time>2026-04-18T13:07:55.281Z</time></trkpt><trkpt lat="43.9422117" lon="11.658905"><ele>819.0</ele><time>2026-04-18T13:07:56.281Z</time></trkpt><trkpt lat="43.942125" lon="11.6589683"><ele>819.0</ele><time>2026-04-18T13:07:57.281Z</time></trkpt><trkpt lat="43.94206" lon="11.6590417"><ele>819.0</ele><time>2026-04-18T13:07:58.282Z</time></trkpt><trkpt lat="43.942045" lon="11.65913"><ele>819.0</ele><time>2026-04-18T13:07:59.281Z</time></trkpt><trkpt lat="43.9420983" lon="11.6592283"><ele>819.0</ele><time>2026-04-18T13:08:01.281Z</time></trkpt><trkpt lat="43.94221" lon="11.6592383"><ele>819.0</ele><time>2026-04-18T13:08:02.281Z</time></trkpt><trkpt lat="43.9423367" lon="11.6592083"><ele>819.0</ele><time>2026-04-18T13:08:03.281Z</time></trkpt><trkpt lat="43.9424717" lon="11.6591483"><ele>819.0</ele><time>2026-04-18T13:08:04.28Z</time></trkpt><trkpt lat="43.942625" lon="11.6590683"><ele>819.0</ele><time>2026-04-18T13:08:05.283Z</time></trkpt><trkpt lat="43.9427583" lon="11.658975"><ele>818.5</ele><time>2026-04-18T13:08:06.281Z</time></trkpt><trkpt lat="43.942865" lon="11.6588967"><ele>818.0</ele><time>2026-04-18T13:08:07.281Z</time></trkpt><trkpt lat="43.9429567" lon="11.658855"><ele>817.5</ele><time>2026-04-18T13:08:08.282Z</time></trkpt><trkpt lat="43.9430433" lon="11.6588517"><ele>817.0</ele><time>2026-04-18T13:08:09.28Z</time></trkpt><trkpt lat="43.9431" lon="11.658915"><ele>816.5</ele><time>2026-04-18T13:08:10.28Z</time></trkpt><trkpt lat="43.94311" lon="11.6590117"><ele>816.0</ele><time>2026-04-18T13:08:11.281Z</time></trkpt><trkpt lat="43.9430633" lon="11.6591283"><ele>816.0</ele><time>2026-04-18T13:08:12.281Z</time></trkpt><trkpt lat="43.9429683" lon="11.6592483"><ele>816.0</ele><time>2026-04-18T13:08:13.28Z</time></trkpt><trkpt lat="43.9428383" lon="11.6593883"><ele>816.0</ele><time>2026-04-18T13:08:14.281Z</time></trkpt><trkpt lat="43.942685" lon="11.65951"><ele>825.0</ele><time>2026-04-18T13:08:15.28Z</time></trkpt><trkpt lat="43.9424933" lon="11.6596"><ele>834.0</ele><time>2026-04-18T13:08:16.281Z</time></trkpt><trkpt lat="43.9423017" lon="11.65966"><ele>843.0</ele><time>2026-04-18T13:08:17.28Z</time></trkpt><trkpt lat="43.94212" lon="11.6596917"><ele>843.0</ele><time>2026-04-18T13:08:18.282Z</time></trkpt><trkpt lat="43.9419633" lon="11.65971"><ele>843.0</ele><time>2026-04-18T13:08:19.282Z</time></trkpt><trkpt lat="43.941835" lon="11.6597317"><ele>843.0</ele><time>2026-04-18T13:08:20.282Z</time></trkpt><trkpt lat="43.9417383" lon="11.65978"><ele>843.0</ele><time>2026-04-18T13:08:21.282Z</time></trkpt><trkpt lat="43.9416817" lon="11.65985"><ele>843.0</ele><time>2026-04-18T13:08:22.281Z</time></trkpt><trkpt lat="43.9416383" lon="11.65992"><ele>843.0</ele><time>2026-04-18T13:08:23.28Z</time></trkpt><trkpt lat="43.9416433" lon="11.6600333"><ele>843.0</ele><time>2026-04-18T13:08:25.28Z</time></trkpt><trkpt lat="43.9419083" lon="11.6600017"><ele>843.0</ele><time>2026-04-18T13:08:26.281Z</time></trkpt><trkpt lat="43.942115" lon="11.6600017"><ele>843.0</ele><time>2026-04-18T13:08:27.281Z</time></trkpt><trkpt lat="43.9423367" lon="11.659995"><ele>843.0</ele><time>2026-04-18T13:08:28.282Z</time></trkpt><trkpt lat="43.942545" lon="11.65996"><ele>843.0</ele><time>2026-04-18T13:08:29.281Z</time></trkpt><trkpt lat="43.9427267" lon="11.6599233"><ele>841.5</ele><time>2026-04-18T13:08:30.282Z</time></trkpt><trkpt lat="43.9428817" lon="11.6598633"><ele>840.0</ele><time>2026-04-18T13:08:31.28Z</time></trkpt><trkpt lat="43.9429983" lon="11.65981"><ele>838.5</ele><time>2026-04-18T13:08:32.28Z</time></trkpt><trkpt lat="43.9430883" lon="11.659795"><ele>837.0</ele><time>2026-04-18T13:08:33.282Z</time></trkpt><trkpt lat="43.9431667" lon="11.6598317"><ele>837.0</ele><time>2026-04-18T13:08:34.28Z</time></trkpt><trkpt lat="43.943225" lon="11.6598933"><ele>837.0</ele><time>2026-04-18T13:08:35.283Z</time></trkpt><trkpt lat="43.9432117" lon="11.65999"><ele>837.0</ele><time>2026-04-18T13:08:36.281Z</time></trkpt><trkpt lat="43.943145" lon="11.6600817"><ele>837.0</ele><time>2026-04-18T13:08:37.281Z</time></trkpt><trkpt lat="43.943055" lon="11.66016"><ele>837.0</ele><time>2026-04-18T13:08:38.281Z</time></trkpt><trkpt lat="43.9428967" lon="11.66023"><ele>835.0</ele><time>2026-04-18T13:08:39.282Z</time></trkpt><trkpt lat="43.9426883" lon="11.6603"><ele>833.0</ele><time>2026-04-18T13:08:40.28Z</time></trkpt><trkpt lat="43.94247" lon="11.66038"><ele>831.0</ele><time>2026-04-18T13:08:41.282Z</time></trkpt><trkpt lat="43.94224" lon="11.6604383"><ele>838.0</ele><time>2026-04-18T13:08:42.281Z</time></trkpt><trkpt lat="43.9420233" lon="11.6604583"><ele>845.0</ele><time>2026-04-18T13:08:43.281Z</time></trkpt><trkpt lat="43.941825" lon="11.6604683"><ele>852.0</ele><time>2026-04-18T13:08:44.281Z</time></trkpt><trkpt lat="43.941645" lon="11.6604433"><ele>853.3333333333333</ele><time>2026-04-18T13:08:45.28Z</time></trkpt><trkpt lat="43.9414867" lon="11.6603767"><ele>854.6666666666666</ele><time>2026-04-18T13:08:46.28Z</time></trkpt><trkpt lat="43.9413467" lon="11.66027"><ele>856.0</ele><time>2026-04-18T13:08:47.281Z</time></trkpt><trkpt lat="43.94125" lon="11.6601267"><ele>856.0</ele><time>2026-04-18T13:08:48.28Z</time></trkpt><trkpt lat="43.94118" lon="11.65995"><ele>856.0</ele><time>2026-04-18T13:08:49.28Z</time></trkpt><trkpt lat="43.941135" lon="11.6597383"><ele>856.0</ele><time>2026-04-18T13:08:50.282Z</time></trkpt><trkpt lat="43.9411183" lon="11.6595033"><ele>852.5</ele><time>2026-04-18T13:08:51.283Z</time></trkpt><trkpt lat="43.9411033" lon="11.65928"><ele>849.0</ele><time>2026-04-18T13:08:52.281Z</time></trkpt><trkpt lat="43.9410667" lon="11.6590983"><ele>845.5</ele><time>2026-04-18T13:08:53.28Z</time></trkpt><trkpt lat="43.94101" lon="11.65892"><ele>842.0</ele><time>2026-04-18T13:08:54.281Z</time></trkpt><trkpt lat="43.94094" lon="11.6587317"><ele>848.75</ele><time>2026-04-18T13:08:55.281Z</time></trkpt><trkpt lat="43.940875" lon="11.6585367"><ele>855.5</ele><time>2026-04-18T13:08:56.28Z</time></trkpt><trkpt lat="43.940795" lon="11.65838"><ele>862.25</ele><time>2026-04-18T13:08:57.281Z</time></trkpt><trkpt lat="43.940695" lon="11.6582767"><ele>869.0</ele><time>2026-04-18T13:08:58.281Z</time></trkpt><trkpt lat="43.9405717" lon="11.6582267"><ele>869.0</ele><time>2026-04-18T13:08:59.282Z</time></trkpt><trkpt lat="43.9404467" lon="11.6582117"><ele>869.0</ele><time>2026-04-18T13:09:00.283Z</time></trkpt><trkpt lat="43.9402367" lon="11.6583183"><ele>869.0</ele><time>2026-04-18T13:09:01.28Z</time></trkpt><trkpt lat="43.9400533" lon="11.6584033"><ele>870.6666666666667</ele><time>2026-04-18T13:09:02.281Z</time></trkpt><trkpt lat="43.93988" lon="11.6584767"><ele>872.3333333333333</ele><time>2026-04-18T13:09:03.281Z</time></trkpt><trkpt lat="43.939725" lon="11.65855"><ele>874.0</ele><time>2026-04-18T13:09:04.281Z</time></trkpt><trkpt lat="43.9395833" lon="11.6586133"><ele>879.25</ele><time>2026-04-18T13:09:05.281Z</time></trkpt><trkpt lat="43.9394567" lon="11.65866"><ele>884.5</ele><time>2026-04-18T13:09:06.283Z</time></trkpt><trkpt lat="43.9393417" lon="11.6586867"><ele>889.75</ele><time>2026-04-18T13:09:07.281Z</time></trkpt><trkpt lat="43.9392283" lon="11.6587017"><ele>895.0</ele><time>2026-04-18T13:09:08.283Z</time></trkpt><trkpt lat="43.9391083" lon="11.6586967"><ele>896.0</ele><time>2026-04-18T13:09:09.28Z</time></trkpt><trkpt lat="43.93899" lon="11.6586683"><ele>897.0</ele><time>2026-04-18T13:09:10.281Z</time></trkpt><trkpt lat="43.9388733" lon="11.6586267"><ele>898.0</ele><time>2026-04-18T13:09:11.281Z</time></trkpt><trkpt lat="43.9387367" lon="11.65856"><ele>899.0</ele><time>2026-04-18T13:09:12.282Z</time></trkpt><trkpt lat="43.9385867" lon="11.658475"><ele>896.75</ele><time>2026-04-18T13:09:13.281Z</time></trkpt><trkpt lat="43.9384483" lon="11.6583867"><ele>894.5</ele><time>2026-04-18T13:09:14.281Z</time></trkpt><trkpt lat="43.9383117" lon="11.658315"><ele>892.25</ele><time>2026-04-18T13:09:15.28Z</time></trkpt><trkpt lat="43.9381717" lon="11.6582767"><ele>890.0</ele><time>2026-04-18T13:09:16.281Z</time></trkpt><trkpt lat="43.938025" lon="11.6582833"><ele>890.0</ele><time>2026-04-18T13:09:17.282Z</time></trkpt><trkpt lat="43.9378767" lon="11.6583333"><ele>890.0</ele><time>2026-04-18T13:09:18.282Z</time></trkpt><trkpt lat="43.9377167" lon="11.6583933"><ele>890.0</ele><time>2026-04-18T13:09:19.284Z</time></trkpt><trkpt lat="43.93757" lon="11.6584333"><ele>890.75</ele><time>2026-04-18T13:09:20.282Z</time></trkpt><trkpt lat="43.937435" lon="11.65842"><ele>891.5</ele><time>2026-04-18T13:09:21.282Z</time></trkpt><trkpt lat="43.9373083" lon="11.658345"><ele>892.25</ele><time>2026-04-18T13:09:22.28Z</time></trkpt><trkpt lat="43.9371633" lon="11.65826"><ele>893.0</ele><time>2026-04-18T13:09:23.28Z</time></trkpt><trkpt lat="43.9369983" lon="11.658185"><ele>893.0</ele><time>2026-04-18T13:09:24.28Z</time></trkpt><trkpt lat="43.93679" lon="11.6581317"><ele>893.0</ele><time>2026-04-18T13:09:25.282Z</time></trkpt><trkpt lat="43.9365733" lon="11.65808"><ele>893.0</ele><time>2026-04-18T13:09:26.282Z</time></trkpt><trkpt lat="43.9363633" lon="11.6580283"><ele>896.0</ele><time>2026-04-18T13:09:27.281Z</time></trkpt><trkpt lat="43.93616" lon="11.6579883"><ele>899.0</ele><time>2026-04-18T13:09:28.281Z</time></trkpt><trkpt lat="43.9359717" lon="11.6579867"><ele>902.0</ele><time>2026-04-18T13:09:29.279Z</time></trkpt><trkpt lat="43.9358033" lon="11.658025"><ele>902.5</ele><time>2026-04-18T13:09:30.283Z</time></trkpt><trkpt lat="43.9356517" lon="11.6580767"><ele>903.0</ele><time>2026-04-18T13:09:31.282Z</time></trkpt><trkpt lat="43.9355117" lon="11.6581017"><ele>903.5</ele><time>2026-04-18T13:09:32.28Z</time></trkpt><trkpt lat="43.9353733" lon="11.65807"><ele>904.0</ele><time>2026-04-18T13:09:33.279Z</time></trkpt><trkpt lat="43.9352383" lon="11.6579883"><ele>904.0</ele><time>2026-04-18T13:09:34.282Z</time></trkpt><trkpt lat="43.9350817" lon="11.6579033"><ele>904.0</ele><time>2026-04-18T13:09:35.28Z</time></trkpt><trkpt lat="43.9349133" lon="11.65784"><ele>904.0</ele><time>2026-04-18T13:09:36.28Z</time></trkpt><trkpt lat="43.9347367" lon="11.6578167"><ele>907.6666666666666</ele><time>2026-04-18T13:09:37.28Z</time></trkpt><trkpt lat="43.9345683" lon="11.6578317"><ele>911.3333333333333</ele><time>2026-04-18T13:09:38.281Z</time></trkpt><trkpt lat="43.9344217" lon="11.6578533"><ele>915.0</ele><time>2026-04-18T13:09:39.281Z</time></trkpt><trkpt lat="43.9342833" lon="11.657835"><ele>912.0</ele><time>2026-04-18T13:09:40.28Z</time></trkpt><trkpt lat="43.9341533" lon="11.65776"><ele>909.0</ele><time>2026-04-18T13:09:41.281Z</time></trkpt><trkpt lat="43.934045" lon="11.6576467"><ele>906.0</ele><time>2026-04-18T13:09:42.28Z</time></trkpt><trkpt lat="43.9339417" lon="11.657505"><ele>903.0</ele><time>2026-04-18T13:09:43.28Z</time></trkpt><trkpt lat="43.93383" lon="11.6573483"><ele>903.0</ele><time>2026-04-18T13:09:44.281Z</time></trkpt><trkpt lat="43.9337" lon="11.6571917"><ele>903.0</ele><time>2026-04-18T13:09:45.28Z</time></trkpt><trkpt lat="43.9335583" lon="11.6570833"><ele>903.0</ele><time>2026-04-18T13:09:46.279Z</time></trkpt><trkpt lat="43.9334083" lon="11.6569867"><ele>903.3333333333333</ele><time>2026-04-18T13:09:47.28Z</time></trkpt><trkpt lat="43.9332517" lon="11.6569017"><ele>903.6666666666666</ele><time>2026-04-18T13:09:48.28Z</time></trkpt><trkpt lat="43.9331117" lon="11.6568467"><ele>904.0</ele><time>2026-04-18T13:09:49.28Z</time></trkpt><trkpt lat="43.9329583" lon="11.6568067"><ele>904.0</ele><time>2026-04-18T13:09:50.281Z</time></trkpt><trkpt lat="43.9328083" lon="11.6567783"><ele>904.0</ele><time>2026-04-18T13:09:51.281Z</time></trkpt><trkpt lat="43.9326733" lon="11.6567483"><ele>904.0</ele><time>2026-04-18T13:09:52.279Z</time></trkpt><trkpt lat="43.9325667" lon="11.65668"><ele>904.0</ele><time>2026-04-18T13:09:53.279Z</time></trkpt><trkpt lat="43.9324717" lon="11.6565917"><ele>904.3333333333333</ele><time>2026-04-18T13:09:54.279Z</time></trkpt><trkpt lat="43.9324133" lon="11.6564933"><ele>904.6666666666666</ele><time>2026-04-18T13:09:55.28Z</time></trkpt><trkpt lat="43.9324033" lon="11.6563817"><ele>905.0</ele><time>2026-04-18T13:09:56.279Z</time></trkpt><trkpt lat="43.9323967" lon="11.6562767"><ele>905.3333333333333</ele><time>2026-04-18T13:09:57.279Z</time></trkpt><trkpt lat="43.9324083" lon="11.65616"><ele>905.6666666666666</ele><time>2026-04-18T13:09:58.279Z</time></trkpt><trkpt lat="43.932415" lon="11.65606"><ele>906.0</ele><time>2026-04-18T13:09:59.28Z</time></trkpt><trkpt lat="43.932445" lon="11.655895"><ele>906.0</ele><time>2026-04-18T13:10:00.281Z</time></trkpt><trkpt lat="43.9324633" lon="11.655805"><ele>906.0</ele><time>2026-04-18T13:10:01.28Z</time></trkpt><trkpt lat="43.932485" lon="11.6556933"><ele>906.0</ele><time>2026-04-18T13:10:03.279Z</time></trkpt><trkpt lat="43.932515" lon="11.6555983"><ele>906.0</ele><time>2026-04-18T13:10:05.279Z</time></trkpt><trkpt lat="43.9325567" lon="11.6554817"><ele>906.0</ele><time>2026-04-18T13:10:08.282Z</time></trkpt><trkpt lat="43.93259" lon="11.6554017"><ele>906.0</ele><time>2026-04-18T13:10:10.279Z</time></trkpt><trkpt lat="43.93263" lon="11.6553233"><ele>906.8333333333334</ele><time>2026-04-18T13:10:12.281Z</time></trkpt><trkpt lat="43.9326633" lon="11.6552383"><ele>907.6666666666667</ele><time>2026-04-18T13:10:30.28Z</time></trkpt><trkpt lat="43.93271" lon="11.6551433"><ele>908.5</ele><time>2026-04-18T13:10:33.28Z</time></trkpt><trkpt lat="43.9327483" lon="11.655065"><ele>909.3333333333334</ele><time>2026-04-18T13:10:35.279Z</time></trkpt><trkpt lat="43.9327383" lon="11.6551783"><ele>910.1666666666667</ele><time>2026-04-18T13:10:48.28Z</time></trkpt><trkpt lat="43.93269" lon="11.6553283"><ele>911.0</ele><time>2026-04-18T13:10:50.279Z</time></trkpt><trkpt lat="43.9326233" lon="11.6554733"><ele>910.0</ele><time>2026-04-18T13:10:52.28Z</time></trkpt><trkpt lat="43.9325417" lon="11.6556067"><ele>908.9999999999999</ele><time>2026-04-18T13:10:54.28Z</time></trkpt><trkpt lat="43.9324783" lon="11.6557433"><ele>907.9999999999999</ele><time>2026-04-18T13:10:56.282Z</time></trkpt><trkpt lat="43.9324333" lon="11.6558817"><ele>907.0</ele><time>2026-04-18T13:10:58.28Z</time></trkpt><trkpt lat="43.9324233" lon="11.6559917"><ele>906.0</ele><time>2026-04-18T13:11:00.281Z</time></trkpt><trkpt lat="43.9322667" lon="11.6558417"><ele>906.0</ele><time>2026-04-18T13:14:28.215Z</time></trkpt><trkpt lat="43.9323267" lon="11.655925"><ele>906.0</ele><time>2026-04-18T13:14:34.28Z</time></trkpt></trkseg></trk></gpx>